<?xml version='1.0' encoding='UTF-8'?><gpx version="1.1" creator="JPX - https://github.com/jenetics/jpx" xmlns="http://www.topografix.com/GPX/1/1"><trk><trkseg><trkpt lat="43.18566761562848" lon="12.167967763992282"><ele>269.0</ele><time>2026-04-10T12:11:48.001Z</time></trkpt><trkpt lat="43.18573759164456" lon="12.167882044255112"><ele>270.0</ele><time>2026-04-10T12:11:50.001Z</time></trkpt><trkpt lat="43.18580683630133" lon="12.167825752774538"><ele>271.0</ele><time>2026-04-10T12:11:52.001Z</time></trkpt><trkpt lat="43.185841493254216" lon="12.16768144883775"><ele>272.0</ele><time>2026-04-10T12:11:55.001Z</time></trkpt><trkpt lat="43.18585463199018" lon="12.167592863759289"><ele>273.0</ele><time>2026-04-10T12:11:56.001Z</time></trkpt><trkpt lat="43.185876243024" lon="12.167457812474245"><ele>272.8333333333333</ele><time>2026-04-10T12:11:58.001Z</time></trkpt><trkpt lat="43.18582760033254" lon="12.167352034471115"><ele>272.6666666666667</ele><time>2026-04-10T12:12:01.001Z</time></trkpt><trkpt lat="43.18573378273728" lon="12.16729316388751"><ele>272.5</ele><time>2026-04-10T12:12:03.001Z</time></trkpt><trkpt lat="43.185667764460106" lon="12.167249996118244"><ele>272.33333333333337</ele><time>2026-04-10T12:12:04.001Z</time></trkpt><trkpt lat="43.18560023219153" lon="12.16721183191818"><ele>272.1666666666667</ele><time>2026-04-10T12:12:05.001Z</time></trkpt><trkpt lat="43.1855331687723" lon="12.167172048976486"><ele>272.0</ele><time>2026-04-10T12:12:06.001Z</time></trkpt><trkpt lat="43.18547130982007" lon="12.167130724977186"><ele>271.0</ele><time>2026-04-10T12:12:07.001Z</time></trkpt><trkpt lat="43.18537101768582" lon="12.167068437875143"><ele>270.0</ele><time>2026-04-10T12:12:09.001Z</time></trkpt><trkpt lat="43.185310608948605" lon="12.167042931261884"><ele>269.0</ele><time>2026-04-10T12:12:10.001Z</time></trkpt><trkpt lat="43.18477788031346" lon="12.162538899821614"><ele>268.59999999999997</ele><time>2026-04-10T12:13:11.001Z</time></trkpt><trkpt lat="43.18481652591772" lon="12.162410057425488"><ele>268.2</ele><time>2026-04-10T12:13:12.001Z</time></trkpt><trkpt lat="43.1848491645496" lon="12.16228482703856"><ele>267.79999999999995</ele><time>2026-04-10T12:13:13Z</time></trkpt><trkpt lat="43.18486239911488" lon="12.162139497961645"><ele>267.4</ele><time>2026-04-10T12:13:14Z</time></trkpt><trkpt lat="43.18486314301081" lon="12.162006430734927"><ele>267.0</ele><time>2026-04-10T12:13:15Z</time></trkpt><trkpt lat="43.18489676314936" lon="12.16187794964"><ele>267.0</ele><time>2026-04-10T12:13:16Z</time></trkpt><trkpt lat="43.18490329099859" lon="12.161716773076863"><ele>267.0</ele><time>2026-04-10T12:13:17Z</time></trkpt><trkpt lat="43.184932779535465" lon="12.161552220645623"><ele>267.0</ele><time>2026-04-10T12:13:18Z</time></trkpt><trkpt lat="43.184960007896734" lon="12.161382152511527"><ele>267.0</ele><time>2026-04-10T12:13:19Z</time></trkpt><trkpt lat="43.18498245227254" lon="12.161202990860044"><ele>267.0</ele><time>2026-04-10T12:13:20Z</time></trkpt><trkpt lat="43.18500669409398" lon="12.161017950207626"><ele>267.0</ele><time>2026-04-10T12:13:21Z</time></trkpt><trkpt lat="43.18503613327529" lon="12.16083531494603"><ele>267.0</ele><time>2026-04-10T12:13:22Z</time></trkpt><trkpt lat="43.185063108212645" lon="12.160652655818163"><ele>267.0</ele><time>2026-04-10T12:13:23Z</time></trkpt><trkpt lat="43.185086888679805" lon="12.160473502708296"><ele>267.0</ele><time>2026-04-10T12:13:24Z</time></trkpt><trkpt lat="43.185110705969656" lon="12.160304454572259"><ele>267.0</ele><time>2026-04-10T12:13:25Z</time></trkpt><trkpt lat="43.18513734931729" lon="12.160162376993686"><ele>267.0</ele><time>2026-04-10T12:13:26Z</time></trkpt><trkpt lat="43.18516751839387" lon="12.160037482150196"><ele>267.0</ele><time>2026-04-10T12:13:27Z</time></trkpt><trkpt lat="43.18518860937225" lon="12.15995080409474"><ele>267.0</ele><time>2026-04-10T12:13:28Z</time></trkpt><trkpt lat="43.18521461135304" lon="12.15984086907446"><ele>267.4</ele><time>2026-04-10T12:13:31Z</time></trkpt><trkpt lat="43.185126556553946" lon="12.159772856895882"><ele>267.79999999999995</ele><time>2026-04-10T12:13:32Z</time></trkpt><trkpt lat="43.1850556381464" lon="12.159732603848125"><ele>268.2</ele><time>2026-04-10T12:13:33Z</time></trkpt><trkpt lat="43.184967101894195" lon="12.15969748711756"><ele>268.59999999999997</ele><time>2026-04-10T12:13:34Z</time></trkpt><trkpt lat="43.18486995233019" lon="12.159650763830744"><ele>269.0</ele><time>2026-04-10T12:13:35Z</time></trkpt><trkpt lat="43.18475855674212" lon="12.159591706997542"><ele>267.5</ele><time>2026-04-10T12:13:36Z</time></trkpt><trkpt lat="43.18463447824062" lon="12.159525528967336"><ele>266.0</ele><time>2026-04-10T12:13:37Z</time></trkpt><trkpt lat="43.18450046739963" lon="12.159459254548421"><ele>264.5</ele><time>2026-04-10T12:13:38Z</time></trkpt><trkpt lat="43.18437188016618" lon="12.159395727800058"><ele>263.0</ele><time>2026-04-10T12:13:39Z</time></trkpt><trkpt lat="43.184256726341545" lon="12.159322578951999"><ele>263.0</ele><time>2026-04-10T12:13:40Z</time></trkpt><trkpt lat="43.184163804182205" lon="12.159263606352301"><ele>263.0</ele><time>2026-04-10T12:13:41Z</time></trkpt><trkpt lat="43.18409089583692" lon="12.159210387791706"><ele>263.0</ele><time>2026-04-10T12:13:42Z</time></trkpt><trkpt lat="43.18404219259633" lon="12.159083263520063"><ele>263.0</ele><time>2026-04-10T12:13:44Z</time></trkpt><trkpt lat="43.1840585149719" lon="12.158977733636881"><ele>263.0</ele><time>2026-04-10T12:13:45.001Z</time></trkpt><trkpt lat="43.18409165144451" lon="12.158854506577798"><ele>262.75</ele><time>2026-04-10T12:13:46.001Z</time></trkpt><trkpt lat="43.18412019831538" lon="12.158702045231463"><ele>262.5</ele><time>2026-04-10T12:13:47.001Z</time></trkpt><trkpt lat="43.18414998103194" lon="12.158526143753136"><ele>262.25</ele><time>2026-04-10T12:13:48.001Z</time></trkpt><trkpt lat="43.18418763223817" lon="12.158340763584276"><ele>262.0</ele><time>2026-04-10T12:13:49.001Z</time></trkpt><trkpt lat="43.184229669016524" lon="12.15815471109045"><ele>261.66666666666663</ele><time>2026-04-10T12:13:50.001Z</time></trkpt><trkpt lat="43.18427325638279" lon="12.157959459826925"><ele>261.3333333333333</ele><time>2026-04-10T12:13:51.001Z</time></trkpt><trkpt lat="43.18431874138151" lon="12.157754341658425"><ele>261.0</ele><time>2026-04-10T12:13:52.001Z</time></trkpt><trkpt lat="43.18436589080739" lon="12.157545214576135"><ele>260.6666666666667</ele><time>2026-04-10T12:13:53.001Z</time></trkpt><trkpt lat="43.184410922980874" lon="12.157329923849819"><ele>260.33333333333337</ele><time>2026-04-10T12:13:54.001Z</time></trkpt><trkpt lat="43.18445573091715" lon="12.15711488311038"><ele>260.0</ele><time>2026-04-10T12:13:55.001Z</time></trkpt><trkpt lat="43.184498215793624" lon="12.156911820142996"><ele>260.0</ele><time>2026-04-10T12:13:56.001Z</time></trkpt><trkpt lat="43.18453910438873" lon="12.156725734581856"><ele>260.0</ele><time>2026-04-10T12:13:57.001Z</time></trkpt><trkpt lat="43.18456896076543" lon="12.156550636739441"><ele>260.0</ele><time>2026-04-10T12:13:58.001Z</time></trkpt><trkpt lat="43.184587985721" lon="12.156365592660551"><ele>260.0</ele><time>2026-04-10T12:13:59.001Z</time></trkpt><trkpt lat="43.18460090772756" lon="12.156186988068649"><ele>260.0</ele><time>2026-04-10T12:14:00.001Z</time></trkpt><trkpt lat="43.18461313303812" lon="12.156021356103281"><ele>260.0</ele><time>2026-04-10T12:14:01.001Z</time></trkpt><trkpt lat="43.18462614915823" lon="12.155848470652904"><ele>260.0</ele><time>2026-04-10T12:14:02.001Z</time></trkpt><trkpt lat="43.18464028840448" lon="12.155641418415321"><ele>260.0</ele><time>2026-04-10T12:14:03.001Z</time></trkpt><trkpt lat="43.18464704210277" lon="12.155460708081005"><ele>260.1666666666667</ele><time>2026-04-10T12:14:04.001Z</time></trkpt><trkpt lat="43.184652257080785" lon="12.155321648424762"><ele>260.33333333333337</ele><time>2026-04-10T12:14:05.001Z</time></trkpt><trkpt lat="43.18465648542741" lon="12.155205773517059"><ele>260.5</ele><time>2026-04-10T12:14:06.001Z</time></trkpt><trkpt lat="43.18467453003" lon="12.155106233821943"><ele>260.6666666666667</ele><time>2026-04-10T12:14:07.001Z</time></trkpt><trkpt lat="43.18470761265596" lon="12.155018019978996"><ele>260.8333333333333</ele><time>2026-04-10T12:14:08.001Z</time></trkpt><trkpt lat="43.18476513974775" lon="12.154949086965638"><ele>261.0</ele><time>2026-04-10T12:14:09.001Z</time></trkpt><trkpt lat="43.184840496968334" lon="12.154901223229572"><ele>261.0</ele><time>2026-04-10T12:14:10.001Z</time></trkpt><trkpt lat="43.18556821705757" lon="12.154580198813065"><ele>261.0</ele><time>2026-04-10T12:15:21Z</time></trkpt><trkpt lat="43.185549549460504" lon="12.154090680177909"><ele>261.0</ele><time>2026-04-10T12:22:11.001Z</time></trkpt><trkpt lat="43.18514861715339" lon="12.155013512636895"><ele>261.2</ele><time>2026-04-10T12:25:11.001Z</time></trkpt><trkpt lat="43.18520321390926" lon="12.155166270766655"><ele>261.40000000000003</ele><time>2026-04-10T12:25:13.001Z</time></trkpt><trkpt lat="43.1852601963072" lon="12.155243064229644"><ele>261.6</ele><time>2026-04-10T12:25:14.001Z</time></trkpt><trkpt lat="43.185327289920146" lon="12.155322030645797"><ele>261.8</ele><time>2026-04-10T12:25:15.001Z</time></trkpt><trkpt lat="43.185406446822036" lon="12.155409375996042"><ele>262.0</ele><time>2026-04-10T12:25:16.001Z</time></trkpt><trkpt lat="43.18549155987539" lon="12.155508574059763"><ele>262.0</ele><time>2026-04-10T12:25:17.001Z</time></trkpt><trkpt lat="43.18558339937888" lon="12.155613524620907"><ele>262.0</ele><time>2026-04-10T12:25:18.001Z</time></trkpt><trkpt lat="43.18568030562963" lon="12.155708312265736"><ele>262.0</ele><time>2026-04-10T12:25:19.001Z</time></trkpt><trkpt lat="43.18577806965516" lon="12.155805922725387"><ele>262.0</ele><time>2026-04-10T12:25:20.001Z</time></trkpt><trkpt lat="43.18588145054673" lon="12.155910779036887"><ele>263.25</ele><time>2026-04-10T12:25:21.001Z</time></trkpt><trkpt lat="43.18598968497488" lon="12.156014420086873"><ele>264.5</ele><time>2026-04-10T12:25:22.001Z</time></trkpt><trkpt lat="43.18610177048419" lon="12.156118369201812"><ele>265.75</ele><time>2026-04-10T12:25:23.001Z</time></trkpt><trkpt lat="43.18620764300905" lon="12.156218838157466"><ele>267.0</ele><time>2026-04-10T12:25:24.001Z</time></trkpt><trkpt lat="43.18639270186078" lon="12.15639163144372"><ele>267.0</ele><time>2026-04-10T12:25:26.001Z</time></trkpt><trkpt lat="43.18649191785385" lon="12.156451719354896"><ele>267.0</ele><time>2026-04-10T12:25:27.001Z</time></trkpt><trkpt lat="43.186597456752224" lon="12.156481968543005"><ele>267.0</ele><time>2026-04-10T12:25:28.001Z</time></trkpt><trkpt lat="43.186698663624526" lon="12.156476949416817"><ele>267.0</ele><time>2026-04-10T12:25:29.001Z</time></trkpt><trkpt lat="43.18679478330039" lon="12.15643605363675"><ele>267.0</ele><time>2026-04-10T12:25:30.001Z</time></trkpt><trkpt lat="43.18688596771675" lon="12.156357166585176"><ele>268.0</ele><time>2026-04-10T12:25:31.001Z</time></trkpt><trkpt lat="43.18696823774576" lon="12.156247674431848"><ele>269.0</ele><time>2026-04-10T12:25:32.001Z</time></trkpt><trkpt lat="43.187030227618536" lon="12.156127172135896"><ele>270.0</ele><time>2026-04-10T12:25:33.001Z</time></trkpt><trkpt lat="43.187070333100586" lon="12.155998110291911"><ele>271.0</ele><time>2026-04-10T12:25:34.001Z</time></trkpt><trkpt lat="43.18708459957216" lon="12.155856066978297"><ele>272.0</ele><time>2026-04-10T12:25:35.001Z</time></trkpt><trkpt lat="43.1870702987362" lon="12.155716650665592"><ele>272.0</ele><time>2026-04-10T12:25:36.001Z</time></trkpt><trkpt lat="43.18702905225503" lon="12.15558541343091"><ele>272.0</ele><time>2026-04-10T12:25:37.001Z</time></trkpt><trkpt lat="43.18696817339462" lon="12.155461795662026"><ele>272.0</ele><time>2026-04-10T12:25:38.001Z</time></trkpt><trkpt lat="43.18689237668515" lon="12.155351334897844"><ele>272.0</ele><time>2026-04-10T12:25:39.001Z</time></trkpt><trkpt lat="43.186816958734596" lon="12.155255209244384"><ele>272.0</ele><time>2026-04-10T12:25:40.001Z</time></trkpt><trkpt lat="43.18676119883507" lon="12.155149468358186"><ele>272.0</ele><time>2026-04-10T12:25:41.001Z</time></trkpt><trkpt lat="43.18672797477767" lon="12.155019654822746"><ele>272.0</ele><time>2026-04-10T12:25:42.001Z</time></trkpt><trkpt lat="43.18671888987874" lon="12.154878943226421"><ele>272.0</ele><time>2026-04-10T12:25:43.001Z</time></trkpt><trkpt lat="43.186734616261866" lon="12.154737097929955"><ele>272.0</ele><time>2026-04-10T12:25:44.001Z</time></trkpt><trkpt lat="43.186778288749906" lon="12.154603113904459"><ele>272.0</ele><time>2026-04-10T12:25:45.001Z</time></trkpt><trkpt lat="43.186820757576726" lon="12.154463238872697"><ele>272.5</ele><time>2026-04-10T12:25:46.001Z</time></trkpt><trkpt lat="43.186917860853306" lon="12.154333482006546"><ele>273.0</ele><time>2026-04-10T12:25:47Z</time></trkpt><trkpt lat="43.186993479944434" lon="12.154170678360218"><ele>273.5</ele><time>2026-04-10T12:25:48Z</time></trkpt><trkpt lat="43.18707313152903" lon="12.153990538106848"><ele>274.0</ele><time>2026-04-10T12:25:49Z</time></trkpt><trkpt lat="43.18716149575717" lon="12.153800118761431"><ele>274.0</ele><time>2026-04-10T12:25:50Z</time></trkpt><trkpt lat="43.187252867226164" lon="12.153599158518775"><ele>274.0</ele><time>2026-04-10T12:25:51Z</time></trkpt><trkpt lat="43.18734521817018" lon="12.153401023697434"><ele>274.0</ele><time>2026-04-10T12:25:52Z</time></trkpt><trkpt lat="43.187446578110276" lon="12.153194966203309"><ele>274.3333333333333</ele><time>2026-04-10T12:25:53Z</time></trkpt><trkpt lat="43.18755386937879" lon="12.152984895898385"><ele>274.6666666666667</ele><time>2026-04-10T12:25:54Z</time></trkpt><trkpt lat="43.18766428285564" lon="12.152769130307638"><ele>275.0</ele><time>2026-04-10T12:25:55Z</time></trkpt><trkpt lat="43.18777707189535" lon="12.152546946868606"><ele>274.33333333333337</ele><time>2026-04-10T12:25:56Z</time></trkpt><trkpt lat="43.187893935160716" lon="12.152321046089407"><ele>273.6666666666667</ele><time>2026-04-10T12:25:57Z</time></trkpt><trkpt lat="43.18801233506944" lon="12.152089375105424"><ele>273.0</ele><time>2026-04-10T12:25:58Z</time></trkpt><trkpt lat="43.18812635721945" lon="12.15185722408209"><ele>275.0</ele><time>2026-04-10T12:25:59Z</time></trkpt><trkpt lat="43.18824288723914" lon="12.151621101218074"><ele>277.0</ele><time>2026-04-10T12:26:00Z</time></trkpt><trkpt lat="43.1883593405882" lon="12.151376908437362"><ele>279.0</ele><time>2026-04-10T12:26:01Z</time></trkpt><trkpt lat="43.18847125330605" lon="12.151123699645764"><ele>279.6666666666667</ele><time>2026-04-10T12:26:02Z</time></trkpt><trkpt lat="43.18858482992636" lon="12.150868955950598"><ele>280.33333333333337</ele><time>2026-04-10T12:26:03Z</time></trkpt><trkpt lat="43.18869883412437" lon="12.15061348741577"><ele>281.0</ele><time>2026-04-10T12:26:04Z</time></trkpt><trkpt lat="43.188812415304454" lon="12.15035713505699"><ele>281.0</ele><time>2026-04-10T12:26:05Z</time></trkpt><trkpt lat="43.18892321203805" lon="12.15009943793529"><ele>281.0</ele><time>2026-04-10T12:26:06Z</time></trkpt><trkpt lat="43.18903114117038" lon="12.149839137357857"><ele>281.0</ele><time>2026-04-10T12:26:07Z</time></trkpt><trkpt lat="43.189137301297606" lon="12.149577465331381"><ele>285.6666666666667</ele><time>2026-04-10T12:26:08Z</time></trkpt><trkpt lat="43.189239524898326" lon="12.149315669020067"><ele>290.3333333333333</ele><time>2026-04-10T12:26:09Z</time></trkpt><trkpt lat="43.18934817548235" lon="12.149057748532899"><ele>295.0</ele><time>2026-04-10T12:26:10Z</time></trkpt><trkpt lat="43.19304411998573" lon="12.140062355354145"><ele>298.0</ele><time>2026-04-10T12:27:11.001Z</time></trkpt><trkpt lat="43.19736205151045" lon="12.12621238462817"><ele>303.0</ele><time>2026-04-10T12:29:11Z</time></trkpt><trkpt lat="43.1973352923197" lon="12.125889621527477"><ele>308.0</ele><time>2026-04-10T12:29:12Z</time></trkpt><trkpt lat="43.19730249774178" lon="12.1255664542962"><ele>308.0</ele><time>2026-04-10T12:29:13Z</time></trkpt><trkpt lat="43.197269400253596" lon="12.125242165808768"><ele>308.0</ele><time>2026-04-10T12:29:14Z</time></trkpt><trkpt lat="43.19723947658789" lon="12.124916881589085"><ele>308.5</ele><time>2026-04-10T12:29:15Z</time></trkpt><trkpt lat="43.19721195603256" lon="12.124600610056007"><ele>309.0</ele><time>2026-04-10T12:29:16Z</time></trkpt><trkpt lat="43.197182424468025" lon="12.124274661861856"><ele>312.0</ele><time>2026-04-10T12:29:17Z</time></trkpt><trkpt lat="43.19715102883932" lon="12.123951791942014"><ele>315.0</ele><time>2026-04-10T12:29:18Z</time></trkpt><trkpt lat="43.19712117151902" lon="12.123622220125956"><ele>315.0</ele><time>2026-04-10T12:29:19Z</time></trkpt><trkpt lat="43.19709597660646" lon="12.123291071047285"><ele>315.0</ele><time>2026-04-10T12:29:20Z</time></trkpt><trkpt lat="43.197074833141805" lon="12.122951624310469"><ele>318.5</ele><time>2026-04-10T12:29:21Z</time></trkpt><trkpt lat="43.19704880396734" lon="12.122608285717519"><ele>322.0</ele><time>2026-04-10T12:29:22Z</time></trkpt><trkpt lat="43.19702143937216" lon="12.122266721109861"><ele>321.3333333333333</ele><time>2026-04-10T12:29:23Z</time></trkpt><trkpt lat="43.196984122306624" lon="12.121934972145683"><ele>320.6666666666667</ele><time>2026-04-10T12:29:24Z</time></trkpt><trkpt lat="43.19695546757136" lon="12.121681543767762"><ele>320.0</ele><time>2026-04-10T12:29:25Z</time></trkpt><trkpt lat="43.19695346047177" lon="12.121405712496271"><ele>320.0</ele><time>2026-04-10T12:29:26Z</time></trkpt><trkpt lat="43.19693012595207" lon="12.12111440078586"><ele>320.0</ele><time>2026-04-10T12:29:27Z</time></trkpt><trkpt lat="43.19690894590652" lon="12.120814075455046"><ele>320.0</ele><time>2026-04-10T12:29:28Z</time></trkpt><trkpt lat="43.196888195069285" lon="12.120484941681696"><ele>315.0</ele><time>2026-04-10T12:29:29.071Z</time></trkpt><trkpt lat="43.19686533770652" lon="12.120184189880595"><ele>310.0</ele><time>2026-04-10T12:29:30.056Z</time></trkpt><trkpt lat="43.19669804373781" lon="12.120005582793935"><ele>305.0</ele><time>2026-04-10T12:29:31.046Z</time></trkpt><trkpt lat="43.196687374229136" lon="12.119779486793067"><ele>297.5</ele><time>2026-04-10T12:29:32.04Z</time></trkpt><trkpt lat="43.19666339539014" lon="12.11951310941423"><ele>290.0</ele><time>2026-04-10T12:29:33Z</time></trkpt><trkpt lat="43.196661381780025" lon="12.118754402402958"><ele>285.0</ele><time>2026-04-10T12:29:34Z</time></trkpt><trkpt lat="43.19665082200056" lon="12.118399748683068"><ele>280.0</ele><time>2026-04-10T12:29:35Z</time></trkpt><trkpt lat="43.19661982800928" lon="12.118126178767465"><ele>276.5</ele><time>2026-04-10T12:29:36Z</time></trkpt><trkpt lat="43.196585685634574" lon="12.117812065955786"><ele>273.0</ele><time>2026-04-10T12:29:37Z</time></trkpt><trkpt lat="43.19654746007463" lon="12.117496497163154"><ele>271.5</ele><time>2026-04-10T12:29:38Z</time></trkpt><trkpt lat="43.19651217941231" lon="12.117177291324138"><ele>270.0</ele><time>2026-04-10T12:29:39Z</time></trkpt><trkpt lat="43.19648701302187" lon="12.116864692514994"><ele>267.5</ele><time>2026-04-10T12:29:40Z</time></trkpt><trkpt lat="43.19645970490763" lon="12.116547090907837"><ele>265.0</ele><time>2026-04-10T12:29:41Z</time></trkpt><trkpt lat="43.19643015339856" lon="12.116235398532606"><ele>265.0</ele><time>2026-04-10T12:29:42Z</time></trkpt><trkpt lat="43.19640217020685" lon="12.11592252905605"><ele>265.0</ele><time>2026-04-10T12:29:43Z</time></trkpt><trkpt lat="43.196371857127275" lon="12.115610364703532"><ele>265.0</ele><time>2026-04-10T12:29:44Z</time></trkpt><trkpt lat="43.196341257549854" lon="12.115300308722604"><ele>265.0</ele><time>2026-04-10T12:29:45Z</time></trkpt><trkpt lat="43.19631005982482" lon="12.114985205848631"><ele>265.0</ele><time>2026-04-10T12:29:46Z</time></trkpt><trkpt lat="43.19627716282232" lon="12.114669277368389"><ele>265.0</ele><time>2026-04-10T12:29:47Z</time></trkpt><trkpt lat="43.19624506305767" lon="12.114351426814858"><ele>266.0</ele><time>2026-04-10T12:29:48Z</time></trkpt><trkpt lat="43.19621322998497" lon="12.114032523107653"><ele>267.0</ele><time>2026-04-10T12:29:49Z</time></trkpt><trkpt lat="43.196183175556094" lon="12.113716596363089"><ele>267.0</ele><time>2026-04-10T12:29:50Z</time></trkpt><trkpt lat="43.19615148561377" lon="12.113399131345437"><ele>267.0</ele><time>2026-04-10T12:29:51Z</time></trkpt><trkpt lat="43.19611628326071" lon="12.113081221058264"><ele>266.0</ele><time>2026-04-10T12:29:52Z</time></trkpt><trkpt lat="43.19608636746316" lon="12.112761467901334"><ele>265.0</ele><time>2026-04-10T12:29:53Z</time></trkpt><trkpt lat="43.196052176291474" lon="12.112443475324374"><ele>265.5</ele><time>2026-04-10T12:29:54Z</time></trkpt><trkpt lat="43.19602197652306" lon="12.112125683206447"><ele>266.0</ele><time>2026-04-10T12:29:55Z</time></trkpt><trkpt lat="43.195991576589186" lon="12.111811777675621"><ele>266.0</ele><time>2026-04-10T12:29:56Z</time></trkpt><trkpt lat="43.1959557730899" lon="12.111496378298371"><ele>266.0</ele><time>2026-04-10T12:29:57Z</time></trkpt><trkpt lat="43.195928723858756" lon="12.111179680330638"><ele>266.0</ele><time>2026-04-10T12:29:58Z</time></trkpt><trkpt lat="43.19589738641599" lon="12.110862317444925"><ele>266.0</ele><time>2026-04-10T12:29:58.999Z</time></trkpt><trkpt lat="43.19587066648004" lon="12.110546824238275"><ele>265.0</ele><time>2026-04-10T12:29:59.999Z</time></trkpt><trkpt lat="43.1958421112146" lon="12.110231516060958"><ele>264.0</ele><time>2026-04-10T12:30:00.999Z</time></trkpt><trkpt lat="43.195812718075615" lon="12.109916077676187"><ele>263.0</ele><time>2026-04-10T12:30:01.999Z</time></trkpt><trkpt lat="43.19578523473543" lon="12.109597841485083"><ele>262.0</ele><time>2026-04-10T12:30:02.999Z</time></trkpt><trkpt lat="43.195756657624656" lon="12.109281583602197"><ele>262.0</ele><time>2026-04-10T12:30:03.999Z</time></trkpt><trkpt lat="43.19572793538406" lon="12.108966395232802"><ele>262.0</ele><time>2026-04-10T12:30:04.999Z</time></trkpt><trkpt lat="43.1957016038122" lon="12.108649562374545"><ele>261.5</ele><time>2026-04-10T12:30:05.999Z</time></trkpt><trkpt lat="43.19566816417607" lon="12.108337315256184"><ele>261.0</ele><time>2026-04-10T12:30:06.999Z</time></trkpt><trkpt lat="43.19564100809987" lon="12.10801523368181"><ele>262.0</ele><time>2026-04-10T12:30:07.999Z</time></trkpt><trkpt lat="43.195610635848446" lon="12.10769973215223"><ele>263.0</ele><time>2026-04-10T12:30:08.999Z</time></trkpt><trkpt lat="43.19558347367902" lon="12.107381808123568"><ele>260.0</ele><time>2026-04-10T12:30:09.999Z</time></trkpt><trkpt lat="43.19714435491167" lon="12.088370682245278"><ele>259.5</ele><time>2026-04-10T12:31:11Z</time></trkpt><trkpt lat="43.19718885379812" lon="12.08804227622149"><ele>259.0</ele><time>2026-04-10T12:31:12Z</time></trkpt><trkpt lat="43.19723600539977" lon="12.087718086828358"><ele>259.0</ele><time>2026-04-10T12:31:13Z</time></trkpt><trkpt lat="43.19728430710868" lon="12.087388936933554"><ele>259.0</ele><time>2026-04-10T12:31:14Z</time></trkpt><trkpt lat="43.197332845788296" lon="12.087061112574519"><ele>259.5</ele><time>2026-04-10T12:31:15Z</time></trkpt><trkpt lat="43.19738167330148" lon="12.086733592373111"><ele>260.0</ele><time>2026-04-10T12:31:16Z</time></trkpt><trkpt lat="43.197431970302944" lon="12.086405238196413"><ele>260.5</ele><time>2026-04-10T12:31:17Z</time></trkpt><trkpt lat="43.197481030274574" lon="12.086076134947783"><ele>261.0</ele><time>2026-04-10T12:31:18Z</time></trkpt><trkpt lat="43.1975303136037" lon="12.085744751660192"><ele>261.5</ele><time>2026-04-10T12:31:19Z</time></trkpt><trkpt lat="43.1975737260096" lon="12.085408768689794"><ele>262.0</ele><time>2026-04-10T12:31:20Z</time></trkpt><trkpt lat="43.19761044333706" lon="12.085073822751887"><ele>262.0</ele><time>2026-04-10T12:31:21Z</time></trkpt><trkpt lat="43.197637583499606" lon="12.084736654532259"><ele>262.0</ele><time>2026-04-10T12:31:22Z</time></trkpt><trkpt lat="43.19766291620465" lon="12.084396257866187"><ele>261.0</ele><time>2026-04-10T12:31:23Z</time></trkpt><trkpt lat="43.197682610841206" lon="12.084055668823247"><ele>260.0</ele><time>2026-04-10T12:31:24Z</time></trkpt><trkpt lat="43.19769397972545" lon="12.08371646728237"><ele>260.0</ele><time>2026-04-10T12:31:25Z</time></trkpt><trkpt lat="43.19769594618691" lon="12.083378715722834"><ele>260.0</ele><time>2026-04-10T12:31:26Z</time></trkpt><trkpt lat="43.19769215059092" lon="12.083042109288192"><ele>260.0</ele><time>2026-04-10T12:31:27Z</time></trkpt><trkpt lat="43.19768251630799" lon="12.082706698042255"><ele>260.0</ele><time>2026-04-10T12:31:28Z</time></trkpt><trkpt lat="43.197666503280495" lon="12.082369585841814"><ele>260.0</ele><time>2026-04-10T12:31:29Z</time></trkpt><trkpt lat="43.197645736216415" lon="12.08203367502993"><ele>260.0</ele><time>2026-04-10T12:31:30Z</time></trkpt><trkpt lat="43.19761972285787" lon="12.081700240720918"><ele>260.5</ele><time>2026-04-10T12:31:31Z</time></trkpt><trkpt lat="43.19759419020523" lon="12.081365036448544"><ele>261.0</ele><time>2026-04-10T12:31:32Z</time></trkpt><trkpt lat="43.19757226966002" lon="12.081029819402843"><ele>260.5</ele><time>2026-04-10T12:31:33Z</time></trkpt><trkpt lat="43.197551082658094" lon="12.08069568479607"><ele>260.0</ele><time>2026-04-10T12:31:34Z</time></trkpt><trkpt lat="43.197528359154006" lon="12.080360628734027"><ele>260.0</ele><time>2026-04-10T12:31:35Z</time></trkpt><trkpt lat="43.197503250203724" lon="12.080025718589606"><ele>260.0</ele><time>2026-04-10T12:31:36Z</time></trkpt><trkpt lat="43.19747821576249" lon="12.079691507137582"><ele>260.5</ele><time>2026-04-10T12:31:37Z</time></trkpt><trkpt lat="43.19745328857277" lon="12.079358397209782"><ele>261.0</ele><time>2026-04-10T12:31:38Z</time></trkpt><trkpt lat="43.19743236465298" lon="12.079022195205184"><ele>261.5</ele><time>2026-04-10T12:31:39Z</time></trkpt><trkpt lat="43.19741249885258" lon="12.07868882734347"><ele>262.0</ele><time>2026-04-10T12:31:40Z</time></trkpt><trkpt lat="43.197389950433845" lon="12.07835189970034"><ele>262.5</ele><time>2026-04-10T12:31:41Z</time></trkpt><trkpt lat="43.19736744340538" lon="12.078016625936515"><ele>263.0</ele><time>2026-04-10T12:31:42Z</time></trkpt><trkpt lat="43.197341861882485" lon="12.077679950718306"><ele>263.5</ele><time>2026-04-10T12:31:43Z</time></trkpt><trkpt lat="43.19731889437259" lon="12.077344916531235"><ele>264.0</ele><time>2026-04-10T12:31:44Z</time></trkpt><trkpt lat="43.19729851931123" lon="12.07700713292767"><ele>264.0</ele><time>2026-04-10T12:31:45Z</time></trkpt><trkpt lat="43.19727910283157" lon="12.076666958569165"><ele>264.0</ele><time>2026-04-10T12:31:46Z</time></trkpt><trkpt lat="43.19725733207876" lon="12.07633039543716"><ele>262.0</ele><time>2026-04-10T12:31:47Z</time></trkpt><trkpt lat="43.197228128057446" lon="12.075988450808653"><ele>260.0</ele><time>2026-04-10T12:31:48Z</time></trkpt><trkpt lat="43.19719835508284" lon="12.075649745668642"><ele>259.5</ele><time>2026-04-10T12:31:49Z</time></trkpt><trkpt lat="43.19716432881073" lon="12.075312259910762"><ele>259.0</ele><time>2026-04-10T12:31:50Z</time></trkpt><trkpt lat="43.19713557725484" lon="12.074974395349015"><ele>259.0</ele><time>2026-04-10T12:31:51Z</time></trkpt><trkpt lat="43.197107183929994" lon="12.074633347873084"><ele>259.0</ele><time>2026-04-10T12:31:52Z</time></trkpt><trkpt lat="43.19708331564462" lon="12.074295024723256"><ele>259.5</ele><time>2026-04-10T12:31:53Z</time></trkpt><trkpt lat="43.19705628775874" lon="12.073958900377141"><ele>260.0</ele><time>2026-04-10T12:31:54Z</time></trkpt><trkpt lat="43.19701782379063" lon="12.073625343483714"><ele>260.0</ele><time>2026-04-10T12:31:55Z</time></trkpt><trkpt lat="43.19696877348043" lon="12.073296107769723"><ele>260.0</ele><time>2026-04-10T12:31:56.001Z</time></trkpt><trkpt lat="43.196918537589234" lon="12.072970099195665"><ele>260.0</ele><time>2026-04-10T12:31:57.001Z</time></trkpt><trkpt lat="43.19686471551632" lon="12.072647388617868"><ele>260.0</ele><time>2026-04-10T12:31:58.001Z</time></trkpt><trkpt lat="43.1968061035271" lon="12.072328183690782"><ele>259.5</ele><time>2026-04-10T12:31:59.001Z</time></trkpt><trkpt lat="43.196745412768095" lon="12.072011910871819"><ele>259.0</ele><time>2026-04-10T12:32:00.001Z</time></trkpt><trkpt lat="43.1966827601881" lon="12.071697999138705"><ele>260.5</ele><time>2026-04-10T12:32:01.001Z</time></trkpt><trkpt lat="43.1966105126846" lon="12.071388094741566"><ele>262.0</ele><time>2026-04-10T12:32:02.001Z</time></trkpt><trkpt lat="43.19653247738727" lon="12.071079481828303"><ele>263.0</ele><time>2026-04-10T12:32:03.001Z</time></trkpt><trkpt lat="43.19645338984123" lon="12.070770861344185"><ele>264.0</ele><time>2026-04-10T12:32:04.001Z</time></trkpt><trkpt lat="43.19637198163598" lon="12.070465045573242"><ele>264.0</ele><time>2026-04-10T12:32:04.999Z</time></trkpt><trkpt lat="43.19628736727366" lon="12.070159274734733"><ele>264.0</ele><time>2026-04-10T12:32:05.999Z</time></trkpt><trkpt lat="43.1962021663685" lon="12.069854010462585"><ele>263.0</ele><time>2026-04-10T12:32:06.999Z</time></trkpt><trkpt lat="43.19611616264511" lon="12.069546719080908"><ele>262.0</ele><time>2026-04-10T12:32:07.999Z</time></trkpt><trkpt lat="43.19603413323288" lon="12.069236488070217"><ele>261.5</ele><time>2026-04-10T12:32:08.999Z</time></trkpt><trkpt lat="43.195950628565285" lon="12.068925481057285"><ele>261.0</ele><time>2026-04-10T12:32:09.999Z</time></trkpt><trkpt lat="43.19391276681603" lon="12.051692965700802"><ele>271.3333333333333</ele><time>2026-04-10T12:33:11Z</time></trkpt><trkpt lat="43.19372292078512" lon="12.051537438121619"><ele>281.66666666666663</ele><time>2026-04-10T12:33:12Z</time></trkpt><trkpt lat="43.19352750152733" lon="12.051392674763317"><ele>292.0</ele><time>2026-04-10T12:33:13Z</time></trkpt><trkpt lat="43.193326627622646" lon="12.051256682642654"><ele>288.5</ele><time>2026-04-10T12:33:14Z</time></trkpt><trkpt lat="43.193123505037704" lon="12.0511225751943"><ele>285.0</ele><time>2026-04-10T12:33:15Z</time></trkpt><trkpt lat="43.19291833637918" lon="12.050986436204438"><ele>285.0</ele><time>2026-04-10T12:33:16Z</time></trkpt><trkpt lat="43.19271128796258" lon="12.05085011152343"><ele>285.0</ele><time>2026-04-10T12:33:17Z</time></trkpt><trkpt lat="43.19250422659682" lon="12.050709301608599"><ele>287.0</ele><time>2026-04-10T12:33:18Z</time></trkpt><trkpt lat="43.19229478456641" lon="12.050567640421036"><ele>289.0</ele><time>2026-04-10T12:33:19Z</time></trkpt><trkpt lat="43.19208216505179" lon="12.05042685608031"><ele>289.0</ele><time>2026-04-10T12:33:20Z</time></trkpt><trkpt lat="43.191867709870195" lon="12.050286076038145"><ele>289.0</ele><time>2026-04-10T12:33:21Z</time></trkpt><trkpt lat="43.19164969367872" lon="12.050144348420245"><ele>291.0</ele><time>2026-04-10T12:33:22Z</time></trkpt><trkpt lat="43.19143074296839" lon="12.050001969614597"><ele>293.0</ele><time>2026-04-10T12:33:23Z</time></trkpt><trkpt lat="43.191212414577286" lon="12.04985171476141"><ele>293.0</ele><time>2026-04-10T12:33:24Z</time></trkpt><trkpt lat="43.19099440816587" lon="12.049695667147413"><ele>293.0</ele><time>2026-04-10T12:33:25Z</time></trkpt><trkpt lat="43.1907766201029" lon="12.049530934588088"><ele>286.0</ele><time>2026-04-10T12:33:26Z</time></trkpt><trkpt lat="43.19056667163971" lon="12.049350715841719"><ele>279.0</ele><time>2026-04-10T12:33:27Z</time></trkpt><trkpt lat="43.19036967388153" lon="12.04915763340644"><ele>279.0</ele><time>2026-04-10T12:33:28Z</time></trkpt><trkpt lat="43.19018238533899" lon="12.048945273633977"><ele>279.0</ele><time>2026-04-10T12:33:29Z</time></trkpt><trkpt lat="43.19000187838676" lon="12.048714526229737"><ele>272.5</ele><time>2026-04-10T12:33:30Z</time></trkpt><trkpt lat="43.18982657195392" lon="12.048468028048049"><ele>266.0</ele><time>2026-04-10T12:33:31Z</time></trkpt><trkpt lat="43.18966707612664" lon="12.048212996175769"><ele>266.0</ele><time>2026-04-10T12:33:32Z</time></trkpt><trkpt lat="43.189514518342406" lon="12.047958129880557"><ele>266.0</ele><time>2026-04-10T12:33:33Z</time></trkpt><trkpt lat="43.1893720097232" lon="12.047694649180183"><ele>265.5</ele><time>2026-04-10T12:33:34Z</time></trkpt><trkpt lat="43.18924785288279" lon="12.047415900557233"><ele>265.0</ele><time>2026-04-10T12:33:35Z</time></trkpt><trkpt lat="43.18913456982313" lon="12.047128304242717"><ele>265.0</ele><time>2026-04-10T12:33:36Z</time></trkpt><trkpt lat="43.1890290780235" lon="12.046837554771233"><ele>265.0</ele><time>2026-04-10T12:33:37Z</time></trkpt><trkpt lat="43.188933900696846" lon="12.046536042364467"><ele>264.0</ele><time>2026-04-10T12:33:38Z</time></trkpt><trkpt lat="43.18884378472156" lon="12.046226591371024"><ele>263.0</ele><time>2026-04-10T12:33:39Z</time></trkpt><trkpt lat="43.188756218715696" lon="12.045911656610164"><ele>261.5</ele><time>2026-04-10T12:33:40Z</time></trkpt><trkpt lat="43.18866869225521" lon="12.04559468818941"><ele>260.0</ele><time>2026-04-10T12:33:41Z</time></trkpt><trkpt lat="43.18858000193258" lon="12.045275016744755"><ele>260.5</ele><time>2026-04-10T12:33:42Z</time></trkpt><trkpt lat="43.18849163801693" lon="12.044953660450666"><ele>261.0</ele><time>2026-04-10T12:33:43Z</time></trkpt><trkpt lat="43.18840387004175" lon="12.044629357991477"><ele>261.0</ele><time>2026-04-10T12:33:44Z</time></trkpt><trkpt lat="43.18831504086592" lon="12.044303239891114"><ele>261.0</ele><time>2026-04-10T12:33:45Z</time></trkpt><trkpt lat="43.188225878049785" lon="12.04397265478089"><ele>260.5</ele><time>2026-04-10T12:33:46Z</time></trkpt><trkpt lat="43.18813682603037" lon="12.043640931288047"><ele>260.0</ele><time>2026-04-10T12:33:47.001Z</time></trkpt><trkpt lat="43.188049625860614" lon="12.043310430551992"><ele>260.0</ele><time>2026-04-10T12:33:48.001Z</time></trkpt><trkpt lat="43.187964394981385" lon="12.042986685325284"><ele>260.0</ele><time>2026-04-10T12:33:49.001Z</time></trkpt><trkpt lat="43.187879574235325" lon="12.042666859185347"><ele>260.0</ele><time>2026-04-10T12:33:50.001Z</time></trkpt><trkpt lat="43.18779397817292" lon="12.04234688037046"><ele>260.0</ele><time>2026-04-10T12:33:51.001Z</time></trkpt><trkpt lat="43.187706829079154" lon="12.042028033655827"><ele>260.0</ele><time>2026-04-10T12:33:52.001Z</time></trkpt><trkpt lat="43.18761832662561" lon="12.041711557238056"><ele>260.0</ele><time>2026-04-10T12:33:53.001Z</time></trkpt><trkpt lat="43.18753206566428" lon="12.041393418120876"><ele>262.0</ele><time>2026-04-10T12:33:54.001Z</time></trkpt><trkpt lat="43.1874448126691" lon="12.041082492051256"><ele>264.0</ele><time>2026-04-10T12:33:55.001Z</time></trkpt><trkpt lat="43.187357253680894" lon="12.040772666059674"><ele>262.5</ele><time>2026-04-10T12:33:56.001Z</time></trkpt><trkpt lat="43.18727016410873" lon="12.040464349435625"><ele>261.0</ele><time>2026-04-10T12:33:57.001Z</time></trkpt><trkpt lat="43.18718482565171" lon="12.040156339291219"><ele>262.0</ele><time>2026-04-10T12:33:58.001Z</time></trkpt><trkpt lat="43.187101130143894" lon="12.039848269518798"><ele>263.0</ele><time>2026-04-10T12:33:59.001Z</time></trkpt><trkpt lat="43.18701940047015" lon="12.039540838699086"><ele>263.0</ele><time>2026-04-10T12:34:00.001Z</time></trkpt><trkpt lat="43.186936170479136" lon="12.039234479923778"><ele>263.0</ele><time>2026-04-10T12:34:01.001Z</time></trkpt><trkpt lat="43.1868545722438" lon="12.038925233674622"><ele>264.0</ele><time>2026-04-10T12:34:02.001Z</time></trkpt><trkpt lat="43.18677019740309" lon="12.038618938430117"><ele>265.0</ele><time>2026-04-10T12:34:03.001Z</time></trkpt><trkpt lat="43.18668700619529" lon="12.038314750510033"><ele>265.5</ele><time>2026-04-10T12:34:04.001Z</time></trkpt><trkpt lat="43.18660692279282" lon="12.038005843964001"><ele>266.0</ele><time>2026-04-10T12:34:05.001Z</time></trkpt><trkpt lat="43.1865324331766" lon="12.0376923748965"><ele>262.5</ele><time>2026-04-10T12:34:06.001Z</time></trkpt><trkpt lat="43.186465973265825" lon="12.037374827552888"><ele>259.0</ele><time>2026-04-10T12:34:07.001Z</time></trkpt><trkpt lat="43.186411510829366" lon="12.037052198724375"><ele>259.0</ele><time>2026-04-10T12:34:08.001Z</time></trkpt><trkpt lat="43.18636385654421" lon="12.036728335581374"><ele>259.0</ele><time>2026-04-10T12:34:09.001Z</time></trkpt><trkpt lat="43.1863227317303" lon="12.036399559000408"><ele>259.0</ele><time>2026-04-10T12:34:10.001Z</time></trkpt><trkpt lat="43.189669466955515" lon="12.017824367485515"><ele>259.0</ele><time>2026-04-10T12:35:11Z</time></trkpt><trkpt lat="43.18972356712155" lon="12.017542818336784"><ele>259.0</ele><time>2026-04-10T12:35:12Z</time></trkpt><trkpt lat="43.18976962847144" lon="12.017279707145002"><ele>259.0</ele><time>2026-04-10T12:35:13Z</time></trkpt><trkpt lat="43.18980770962436" lon="12.017048764124125"><ele>259.3333333333333</ele><time>2026-04-10T12:35:14Z</time></trkpt><trkpt lat="43.18983773733333" lon="12.016818605097786"><ele>259.6666666666667</ele><time>2026-04-10T12:35:15Z</time></trkpt><trkpt lat="43.18986836701769" lon="12.01657457761594"><ele>260.0</ele><time>2026-04-10T12:35:16Z</time></trkpt><trkpt lat="43.189894521980015" lon="12.016323327322624"><ele>261.0</ele><time>2026-04-10T12:35:17Z</time></trkpt><trkpt lat="43.18991843757394" lon="12.016061632174667"><ele>262.0</ele><time>2026-04-10T12:35:18Z</time></trkpt><trkpt lat="43.18994354810938" lon="12.01580097106462"><ele>263.0</ele><time>2026-04-10T12:35:19Z</time></trkpt><trkpt lat="43.189968486522524" lon="12.015537532670322"><ele>263.33333333333337</ele><time>2026-04-10T12:35:20Z</time></trkpt><trkpt lat="43.18999087034034" lon="12.015263415777145"><ele>263.6666666666667</ele><time>2026-04-10T12:35:21Z</time></trkpt><trkpt lat="43.19000940787482" lon="12.01498450518184"><ele>264.0</ele><time>2026-04-10T12:35:22Z</time></trkpt><trkpt lat="43.1900226614651" lon="12.014700489261221"><ele>264.0</ele><time>2026-04-10T12:35:23Z</time></trkpt><trkpt lat="43.19003014638" lon="12.014409860796887"><ele>264.0</ele><time>2026-04-10T12:35:24Z</time></trkpt><trkpt lat="43.19003286439846" lon="12.014114467995922"><ele>264.0</ele><time>2026-04-10T12:35:25Z</time></trkpt><trkpt lat="43.19003083175601" lon="12.013815200363199"><ele>264.0</ele><time>2026-04-10T12:35:26Z</time></trkpt><trkpt lat="43.190023738847536" lon="12.013509148101322"><ele>264.0</ele><time>2026-04-10T12:35:27Z</time></trkpt><trkpt lat="43.19001692072333" lon="12.01319889362143"><ele>264.5</ele><time>2026-04-10T12:35:28Z</time></trkpt><trkpt lat="43.19000960652334" lon="12.012884142826486"><ele>265.0</ele><time>2026-04-10T12:35:29Z</time></trkpt><trkpt lat="43.190001988149696" lon="12.012564916678683"><ele>265.0</ele><time>2026-04-10T12:35:30Z</time></trkpt><trkpt lat="43.18999650298329" lon="12.012239516117045"><ele>265.0</ele><time>2026-04-10T12:35:31Z</time></trkpt><trkpt lat="43.18999357405065" lon="12.011908874170794"><ele>265.5</ele><time>2026-04-10T12:35:32Z</time></trkpt><trkpt lat="43.18999060591466" lon="12.011574790302811"><ele>266.0</ele><time>2026-04-10T12:35:33Z</time></trkpt><trkpt lat="43.18998751597812" lon="12.011235961700551"><ele>266.0</ele><time>2026-04-10T12:35:34Z</time></trkpt><trkpt lat="43.18998511593276" lon="12.010895242683498"><ele>266.0</ele><time>2026-04-10T12:35:35Z</time></trkpt><trkpt lat="43.189984850058" lon="12.010549876313377"><ele>266.0</ele><time>2026-04-10T12:35:36Z</time></trkpt><trkpt lat="43.18998909814594" lon="12.010201279036183"><ele>266.0</ele><time>2026-04-10T12:35:37Z</time></trkpt><trkpt lat="43.189998769559416" lon="12.009855719457452"><ele>266.5</ele><time>2026-04-10T12:35:38Z</time></trkpt><trkpt lat="43.190010585371716" lon="12.009511454707646"><ele>267.0</ele><time>2026-04-10T12:35:39.001Z</time></trkpt><trkpt lat="43.19002377613701" lon="12.009174592523973"><ele>266.5</ele><time>2026-04-10T12:35:40.001Z</time></trkpt><trkpt lat="43.19004138719567" lon="12.008841167668523"><ele>266.0</ele><time>2026-04-10T12:35:41.001Z</time></trkpt><trkpt lat="43.190062416136975" lon="12.008504679634115"><ele>266.0</ele><time>2026-04-10T12:35:42.001Z</time></trkpt><trkpt lat="43.1900868493358" lon="12.008168423315054"><ele>266.0</ele><time>2026-04-10T12:35:43.001Z</time></trkpt><trkpt lat="43.19011331274504" lon="12.007835078315939"><ele>266.0</ele><time>2026-04-10T12:35:44.001Z</time></trkpt><trkpt lat="43.19014429248905" lon="12.007504037701452"><ele>266.0</ele><time>2026-04-10T12:35:45.001Z</time></trkpt><trkpt lat="43.190177755202946" lon="12.007173293675415"><ele>265.5</ele><time>2026-04-10T12:35:46.001Z</time></trkpt><trkpt lat="43.19021359417579" lon="12.006843227353286"><ele>265.0</ele><time>2026-04-10T12:35:47.001Z</time></trkpt><trkpt lat="43.19025177216992" lon="12.006512364575746"><ele>265.0</ele><time>2026-04-10T12:35:48.001Z</time></trkpt><trkpt lat="43.19029320893755" lon="12.006184336444939"><ele>265.0</ele><time>2026-04-10T12:35:49.001Z</time></trkpt><trkpt lat="43.1903355191336" lon="12.005858047420503"><ele>265.0</ele><time>2026-04-10T12:35:50.001Z</time></trkpt><trkpt lat="43.19038059158392" lon="12.005527611997962"><ele>265.0</ele><time>2026-04-10T12:35:51.001Z</time></trkpt><trkpt lat="43.19043210217795" lon="12.005198775518295"><ele>265.0</ele><time>2026-04-10T12:35:52.001Z</time></trkpt><trkpt lat="43.19048820983425" lon="12.004869195706688"><ele>265.0</ele><time>2026-04-10T12:35:53.001Z</time></trkpt><trkpt lat="43.19054728636779" lon="12.004542100944954"><ele>265.0</ele><time>2026-04-10T12:35:54.001Z</time></trkpt><trkpt lat="43.190607651062045" lon="12.004212663789497"><ele>265.0</ele><time>2026-04-10T12:35:55.001Z</time></trkpt><trkpt lat="43.19067116034314" lon="12.003882032780826"><ele>266.0</ele><time>2026-04-10T12:35:56.001Z</time></trkpt><trkpt lat="43.19073533081456" lon="12.003551706232836"><ele>267.0</ele><time>2026-04-10T12:35:57.001Z</time></trkpt><trkpt lat="43.19080453048918" lon="12.003225225404124"><ele>267.0</ele><time>2026-04-10T12:35:58.001Z</time></trkpt><trkpt lat="43.19087835170773" lon="12.002899266451934"><ele>267.0</ele><time>2026-04-10T12:35:59.001Z</time></trkpt><trkpt lat="43.19095531992036" lon="12.002569974459997"><ele>266.5</ele><time>2026-04-10T12:36:00.001Z</time></trkpt><trkpt lat="43.19103573446388" lon="12.002243131953719"><ele>266.0</ele><time>2026-04-10T12:36:01.001Z</time></trkpt><trkpt lat="43.19112017549174" lon="12.001915729059018"><ele>266.0</ele><time>2026-04-10T12:36:02.001Z</time></trkpt><trkpt lat="43.19120645313011" lon="12.001591397810952"><ele>266.0</ele><time>2026-04-10T12:36:03.001Z</time></trkpt><trkpt lat="43.19129453347219" lon="12.001267717373855"><ele>266.0</ele><time>2026-04-10T12:36:04.001Z</time></trkpt><trkpt lat="43.1913855718604" lon="12.000948353579165"><ele>266.0</ele><time>2026-04-10T12:36:05.001Z</time></trkpt><trkpt lat="43.19147527917129" lon="12.000632009016131"><ele>266.0</ele><time>2026-04-10T12:36:06.001Z</time></trkpt><trkpt lat="43.191567922171004" lon="12.00031990885958"><ele>266.0</ele><time>2026-04-10T12:36:07.001Z</time></trkpt><trkpt lat="43.19166466915181" lon="12.000012009239303"><ele>266.0</ele><time>2026-04-10T12:36:08.001Z</time></trkpt><trkpt lat="43.191763520597455" lon="11.999709064077779"><ele>266.0</ele><time>2026-04-10T12:36:09.001Z</time></trkpt><trkpt lat="43.191862738027304" lon="11.99940554525481"><ele>264.0</ele><time>2026-04-10T12:36:10.001Z</time></trkpt><trkpt lat="43.19798361735394" lon="11.981823126946606"><ele>264.0</ele><time>2026-04-10T12:37:11Z</time></trkpt><trkpt lat="43.19809626018072" lon="11.98154299347335"><ele>264.0</ele><time>2026-04-10T12:37:12Z</time></trkpt><trkpt lat="43.198208924997374" lon="11.981264154216646"><ele>263.5</ele><time>2026-04-10T12:37:13Z</time></trkpt><trkpt lat="43.198322907514076" lon="11.98098587339528"><ele>263.0</ele><time>2026-04-10T12:37:14Z</time></trkpt><trkpt lat="43.1984380014162" lon="11.980704388371624"><ele>264.5</ele><time>2026-04-10T12:37:15Z</time></trkpt><trkpt lat="43.198553706897364" lon="11.980421383128387"><ele>266.0</ele><time>2026-04-10T12:37:16Z</time></trkpt><trkpt lat="43.198671074907566" lon="11.98013647399683"><ele>267.5</ele><time>2026-04-10T12:37:17Z</time></trkpt><trkpt lat="43.19878828713668" lon="11.979848116041117"><ele>269.0</ele><time>2026-04-10T12:37:18Z</time></trkpt><trkpt lat="43.19890597887551" lon="11.9795586755382"><ele>268.0</ele><time>2026-04-10T12:37:19Z</time></trkpt><trkpt lat="43.19902093856577" lon="11.979266636376375"><ele>267.0</ele><time>2026-04-10T12:37:20Z</time></trkpt><trkpt lat="43.19913663596733" lon="11.978971611501054"><ele>267.0</ele><time>2026-04-10T12:37:21Z</time></trkpt><trkpt lat="43.19925616980026" lon="11.978682037529628"><ele>267.0</ele><time>2026-04-10T12:37:22Z</time></trkpt><trkpt lat="43.199374221489066" lon="11.97839046826527"><ele>267.0</ele><time>2026-04-10T12:37:23Z</time></trkpt><trkpt lat="43.199489615422436" lon="11.978098259094956"><ele>267.0</ele><time>2026-04-10T12:37:24Z</time></trkpt><trkpt lat="43.19960324275963" lon="11.977807333793363"><ele>267.0</ele><time>2026-04-10T12:37:25Z</time></trkpt><trkpt lat="43.199713925402904" lon="11.977516158999824"><ele>267.0</ele><time>2026-04-10T12:37:26Z</time></trkpt><trkpt lat="43.199822087709514" lon="11.977224756834778"><ele>267.0</ele><time>2026-04-10T12:37:27Z</time></trkpt><trkpt lat="43.19992926393645" lon="11.976929882557812"><ele>267.0</ele><time>2026-04-10T12:37:28Z</time></trkpt><trkpt lat="43.2000354981583" lon="11.976638368818945"><ele>268.5</ele><time>2026-04-10T12:37:29Z</time></trkpt><trkpt lat="43.200140358244475" lon="11.97634568881084"><ele>270.0</ele><time>2026-04-10T12:37:30Z</time></trkpt><trkpt lat="43.200245329117415" lon="11.976054728162374"><ele>271.0</ele><time>2026-04-10T12:37:31Z</time></trkpt><trkpt lat="43.200351647401796" lon="11.975767015921546"><ele>272.0</ele><time>2026-04-10T12:37:32Z</time></trkpt><trkpt lat="43.20045761201827" lon="11.975476474346669"><ele>272.0</ele><time>2026-04-10T12:37:33Z</time></trkpt><trkpt lat="43.200564305240206" lon="11.975186714981298"><ele>272.0</ele><time>2026-04-10T12:37:34Z</time></trkpt><trkpt lat="43.200670851763775" lon="11.9748972346113"><ele>272.5</ele><time>2026-04-10T12:37:35Z</time></trkpt><trkpt lat="43.200775570028604" lon="11.974605330084108"><ele>273.0</ele><time>2026-04-10T12:37:36Z</time></trkpt><trkpt lat="43.200877407487155" lon="11.974312676403763"><ele>273.5</ele><time>2026-04-10T12:37:37Z</time></trkpt><trkpt lat="43.2009808261946" lon="11.974017851278195"><ele>274.0</ele><time>2026-04-10T12:37:38Z</time></trkpt><trkpt lat="43.201086451911614" lon="11.973720412159167"><ele>274.0</ele><time>2026-04-10T12:37:39Z</time></trkpt><trkpt lat="43.2011928843742" lon="11.97342184914719"><ele>274.0</ele><time>2026-04-10T12:37:40Z</time></trkpt><trkpt lat="43.20130009569251" lon="11.973122674615551"><ele>274.5</ele><time>2026-04-10T12:37:41Z</time></trkpt><trkpt lat="43.20140862580403" lon="11.97282426862007"><ele>275.0</ele><time>2026-04-10T12:37:42Z</time></trkpt><trkpt lat="43.20151765662183" lon="11.972527638232249"><ele>273.5</ele><time>2026-04-10T12:37:43Z</time></trkpt><trkpt lat="43.20161494222151" lon="11.972244987300032"><ele>272.0</ele><time>2026-04-10T12:37:44Z</time></trkpt><trkpt lat="43.20171970993395" lon="11.971956791551156"><ele>271.5</ele><time>2026-04-10T12:37:45Z</time></trkpt><trkpt lat="43.20182342078171" lon="11.97166985684574"><ele>271.0</ele><time>2026-04-10T12:37:46Z</time></trkpt><trkpt lat="43.201926754917736" lon="11.971382262553437"><ele>271.0</ele><time>2026-04-10T12:37:47.001Z</time></trkpt><trkpt lat="43.20202782011592" lon="11.971096661321003"><ele>271.0</ele><time>2026-04-10T12:37:48.001Z</time></trkpt><trkpt lat="43.20213023419937" lon="11.970810689616643"><ele>270.5</ele><time>2026-04-10T12:37:49.001Z</time></trkpt><trkpt lat="43.20223414397328" lon="11.970523632838566"><ele>270.0</ele><time>2026-04-10T12:37:50.001Z</time></trkpt><trkpt lat="43.20233671920387" lon="11.970236347660391"><ele>269.5</ele><time>2026-04-10T12:37:51.001Z</time></trkpt><trkpt lat="43.20243972199938" lon="11.969949744927597"><ele>269.0</ele><time>2026-04-10T12:37:52.001Z</time></trkpt><trkpt lat="43.20254301077555" lon="11.969663342171284"><ele>269.0</ele><time>2026-04-10T12:37:53.001Z</time></trkpt><trkpt lat="43.20264110534158" lon="11.969379942576191"><ele>269.0</ele><time>2026-04-10T12:37:54.001Z</time></trkpt><trkpt lat="43.20273418180408" lon="11.969097429745593"><ele>269.0</ele><time>2026-04-10T12:37:55.001Z</time></trkpt><trkpt lat="43.20285782385635" lon="11.968794425970044"><ele>269.0</ele><time>2026-04-10T12:37:56.001Z</time></trkpt><trkpt lat="43.20296418588194" lon="11.968502468315302"><ele>270.5</ele><time>2026-04-10T12:37:57.001Z</time></trkpt><trkpt lat="43.20307092807808" lon="11.968206011580653"><ele>272.0</ele><time>2026-04-10T12:37:58.001Z</time></trkpt><trkpt lat="43.203176466575584" lon="11.967910662699891"><ele>272.0</ele><time>2026-04-10T12:37:59.001Z</time></trkpt><trkpt lat="43.203284069611534" lon="11.967615979927091"><ele>272.0</ele><time>2026-04-10T12:38:00.001Z</time></trkpt><trkpt lat="43.203391530469275" lon="11.967317714321696"><ele>272.0</ele><time>2026-04-10T12:38:01.001Z</time></trkpt><trkpt lat="43.20349995299776" lon="11.96702250204157"><ele>272.0</ele><time>2026-04-10T12:38:02.001Z</time></trkpt><trkpt lat="43.20360629686976" lon="11.966725011025211"><ele>272.5</ele><time>2026-04-10T12:38:03.001Z</time></trkpt><trkpt lat="43.20371176565899" lon="11.96642667897495"><ele>273.0</ele><time>2026-04-10T12:38:04.001Z</time></trkpt><trkpt lat="43.20381385911718" lon="11.966127205117283"><ele>273.0</ele><time>2026-04-10T12:38:05.001Z</time></trkpt><trkpt lat="43.2039199587121" lon="11.965823939882656"><ele>273.0</ele><time>2026-04-10T12:38:06.001Z</time></trkpt><trkpt lat="43.204029909841786" lon="11.965523006503648"><ele>272.0</ele><time>2026-04-10T12:38:07.001Z</time></trkpt><trkpt lat="43.204137734168256" lon="11.965222334430377"><ele>271.0</ele><time>2026-04-10T12:38:08.001Z</time></trkpt><trkpt lat="43.204245719554805" lon="11.964922050966633"><ele>271.0</ele><time>2026-04-10T12:38:09.001Z</time></trkpt><trkpt lat="43.204355243415804" lon="11.964621806505237"><ele>271.0</ele><time>2026-04-10T12:38:10.001Z</time></trkpt><trkpt lat="43.21006517745491" lon="11.946339659728896"><ele>278.0</ele><time>2026-04-10T12:39:11Z</time></trkpt><trkpt lat="43.210217511807485" lon="11.94608174663256"><ele>285.0</ele><time>2026-04-10T12:39:12Z</time></trkpt><trkpt lat="43.21037153121385" lon="11.945830106985827"><ele>285.0</ele><time>2026-04-10T12:39:13Z</time></trkpt><trkpt lat="43.21053088433696" lon="11.945583480141224"><ele>285.0</ele><time>2026-04-10T12:39:14Z</time></trkpt><trkpt lat="43.21069444488234" lon="11.945341987504436"><ele>285.0</ele><time>2026-04-10T12:39:15Z</time></trkpt><trkpt lat="43.21086051983079" lon="11.945098993986129"><ele>285.0</ele><time>2026-04-10T12:39:16Z</time></trkpt><trkpt lat="43.21103119149565" lon="11.944855019674586"><ele>285.5</ele><time>2026-04-10T12:39:17Z</time></trkpt><trkpt lat="43.211203871248635" lon="11.944611285572892"><ele>286.0</ele><time>2026-04-10T12:39:18Z</time></trkpt><trkpt lat="43.2113774273914" lon="11.94436669737388"><ele>285.5</ele><time>2026-04-10T12:39:19Z</time></trkpt><trkpt lat="43.21155141850128" lon="11.94412042701786"><ele>285.0</ele><time>2026-04-10T12:39:20Z</time></trkpt><trkpt lat="43.21172434447474" lon="11.943872638548429"><ele>285.0</ele><time>2026-04-10T12:39:21Z</time></trkpt><trkpt lat="43.21189464310833" lon="11.943617793331336"><ele>285.0</ele><time>2026-04-10T12:39:22Z</time></trkpt><trkpt lat="43.21206030023252" lon="11.94335502415046"><ele>285.5</ele><time>2026-04-10T12:39:23Z</time></trkpt><trkpt lat="43.21222149140056" lon="11.943095972866981"><ele>286.0</ele><time>2026-04-10T12:39:24Z</time></trkpt><trkpt lat="43.212387984161204" lon="11.942820491550336"><ele>285.0</ele><time>2026-04-10T12:39:25Z</time></trkpt><trkpt lat="43.21255412944313" lon="11.942546270039204"><ele>284.0</ele><time>2026-04-10T12:39:26Z</time></trkpt><trkpt lat="43.21271644128531" lon="11.94227178789205"><ele>284.0</ele><time>2026-04-10T12:39:27Z</time></trkpt><trkpt lat="43.21287297119842" lon="11.941991682908256"><ele>284.0</ele><time>2026-04-10T12:39:28Z</time></trkpt><trkpt lat="43.21302142358833" lon="11.941710423633353"><ele>284.0</ele><time>2026-04-10T12:39:29Z</time></trkpt><trkpt lat="43.21316604350308" lon="11.941429492084204"><ele>284.0</ele><time>2026-04-10T12:39:30Z</time></trkpt><trkpt lat="43.21331055312793" lon="11.94115330437549"><ele>284.0</ele><time>2026-04-10T12:39:31Z</time></trkpt><trkpt lat="43.21344974535991" lon="11.940883316143633"><ele>284.0</ele><time>2026-04-10T12:39:32Z</time></trkpt><trkpt lat="43.21358056438287" lon="11.940610234669537"><ele>281.0</ele><time>2026-04-10T12:39:33Z</time></trkpt><trkpt lat="43.213708395843234" lon="11.940332455888004"><ele>278.0</ele><time>2026-04-10T12:39:34Z</time></trkpt><trkpt lat="43.21383425644923" lon="11.940055013204814"><ele>277.5</ele><time>2026-04-10T12:39:35Z</time></trkpt><trkpt lat="43.213956557496275" lon="11.93977647491072"><ele>277.0</ele><time>2026-04-10T12:39:36Z</time></trkpt><trkpt lat="43.21407483318591" lon="11.93949667804463"><ele>274.5</ele><time>2026-04-10T12:39:37Z</time></trkpt><trkpt lat="43.21419045696552" lon="11.939214984263424"><ele>272.0</ele><time>2026-04-10T12:39:38Z</time></trkpt><trkpt lat="43.21430315847096" lon="11.938932145209359"><ele>272.0</ele><time>2026-04-10T12:39:39Z</time></trkpt><trkpt lat="43.21441607341256" lon="11.938650344576816"><ele>272.0</ele><time>2026-04-10T12:39:40Z</time></trkpt><trkpt lat="43.21452942105319" lon="11.938369678897383"><ele>270.5</ele><time>2026-04-10T12:39:41Z</time></trkpt><trkpt lat="43.21463710610705" lon="11.938088263861836"><ele>269.0</ele><time>2026-04-10T12:39:42Z</time></trkpt><trkpt lat="43.2147416017261" lon="11.937802390665162"><ele>269.0</ele><time>2026-04-10T12:39:43Z</time></trkpt><trkpt lat="43.21484247881" lon="11.937520209041852"><ele>269.0</ele><time>2026-04-10T12:39:44Z</time></trkpt><trkpt lat="43.214945283113565" lon="11.937234698123447"><ele>269.0</ele><time>2026-04-10T12:39:45Z</time></trkpt><trkpt lat="43.21504403865731" lon="11.936950388869075"><ele>269.0</ele><time>2026-04-10T12:39:46Z</time></trkpt><trkpt lat="43.215144633312896" lon="11.936665758071928"><ele>270.0</ele><time>2026-04-10T12:39:47Z</time></trkpt><trkpt lat="43.21524724501362" lon="11.936376477192962"><ele>271.0</ele><time>2026-04-10T12:39:48.001Z</time></trkpt><trkpt lat="43.21534816408708" lon="11.936095594008123"><ele>270.0</ele><time>2026-04-10T12:39:49.001Z</time></trkpt><trkpt lat="43.21545352412446" lon="11.935814171914384"><ele>269.0</ele><time>2026-04-10T12:39:50.001Z</time></trkpt><trkpt lat="43.215560166968764" lon="11.935536537113112"><ele>268.5</ele><time>2026-04-10T12:39:51.001Z</time></trkpt><trkpt lat="43.21567084097071" lon="11.9352616329294"><ele>268.0</ele><time>2026-04-10T12:39:52.001Z</time></trkpt><trkpt lat="43.21577695592502" lon="11.934988956263885"><ele>269.0</ele><time>2026-04-10T12:39:53.001Z</time></trkpt><trkpt lat="43.21587880226924" lon="11.934716272921493"><ele>270.0</ele><time>2026-04-10T12:39:54.001Z</time></trkpt><trkpt lat="43.21597713158714" lon="11.934444003716907"><ele>271.0</ele><time>2026-04-10T12:39:55.001Z</time></trkpt><trkpt lat="43.2160716492849" lon="11.934172392228252"><ele>271.66666666666663</ele><time>2026-04-10T12:39:56.001Z</time></trkpt><trkpt lat="43.216163748416776" lon="11.933903007365373"><ele>272.3333333333333</ele><time>2026-04-10T12:39:57.001Z</time></trkpt><trkpt lat="43.216251742679724" lon="11.933634904165977"><ele>273.0</ele><time>2026-04-10T12:39:58.001Z</time></trkpt><trkpt lat="43.216337902207925" lon="11.93336691738368"><ele>274.0</ele><time>2026-04-10T12:39:59.001Z</time></trkpt><trkpt lat="43.21642021281861" lon="11.933098682182194"><ele>275.0</ele><time>2026-04-10T12:40:00.001Z</time></trkpt><trkpt lat="43.216500732312426" lon="11.932829067257613"><ele>276.0</ele><time>2026-04-10T12:40:01.001Z</time></trkpt><trkpt lat="43.216579458889605" lon="11.932557939375574"><ele>277.0</ele><time>2026-04-10T12:40:02.001Z</time></trkpt><trkpt lat="43.21666056379319" lon="11.932282842973985"><ele>278.0</ele><time>2026-04-10T12:40:03.001Z</time></trkpt><trkpt lat="43.21673976155878" lon="11.932006015963797"><ele>279.0</ele><time>2026-04-10T12:40:04.001Z</time></trkpt><trkpt lat="43.21681498400282" lon="11.931726176770427"><ele>280.3333333333333</ele><time>2026-04-10T12:40:05.001Z</time></trkpt><trkpt lat="43.21688510941948" lon="11.931445058225838"><ele>281.66666666666663</ele><time>2026-04-10T12:40:06.001Z</time></trkpt><trkpt lat="43.21695422872616" lon="11.931162936674742"><ele>283.0</ele><time>2026-04-10T12:40:07.001Z</time></trkpt><trkpt lat="43.21701894270301" lon="11.93087800232825"><ele>285.0</ele><time>2026-04-10T12:40:08.001Z</time></trkpt><trkpt lat="43.2170786983044" lon="11.930590231190502"><ele>287.0</ele><time>2026-04-10T12:40:09.001Z</time></trkpt><trkpt lat="43.21713621585489" lon="11.93030279852537"><ele>289.0</ele><time>2026-04-10T12:40:10.001Z</time></trkpt><trkpt lat="43.221392546247735" lon="11.91184016841263"><ele>299.0</ele><time>2026-04-10T12:41:11Z</time></trkpt><trkpt lat="43.22142776559019" lon="11.9115191393744"><ele>309.0</ele><time>2026-04-10T12:41:12Z</time></trkpt><trkpt lat="43.22145308223599" lon="11.911196829924817"><ele>309.0</ele><time>2026-04-10T12:41:13Z</time></trkpt><trkpt lat="43.221476230307864" lon="11.910872694771507"><ele>309.0</ele><time>2026-04-10T12:41:14Z</time></trkpt><trkpt lat="43.22150066837435" lon="11.910550326493057"><ele>309.0</ele><time>2026-04-10T12:41:15Z</time></trkpt><trkpt lat="43.22153027388806" lon="11.910227556061267"><ele>309.0</ele><time>2026-04-10T12:41:16Z</time></trkpt><trkpt lat="43.22156232068007" lon="11.909902988891167"><ele>309.5</ele><time>2026-04-10T12:41:17Z</time></trkpt><trkpt lat="43.221595086729465" lon="11.909578036185689"><ele>310.0</ele><time>2026-04-10T12:41:18Z</time></trkpt><trkpt lat="43.22162409016271" lon="11.909253170722133"><ele>309.5</ele><time>2026-04-10T12:41:19Z</time></trkpt><trkpt lat="43.221653505381866" lon="11.90892705035394"><ele>309.0</ele><time>2026-04-10T12:41:20Z</time></trkpt><trkpt lat="43.22168681553613" lon="11.908604769531483"><ele>309.0</ele><time>2026-04-10T12:41:21Z</time></trkpt><trkpt lat="43.2217204925389" lon="11.908281251451664"><ele>309.0</ele><time>2026-04-10T12:41:22Z</time></trkpt><trkpt lat="43.221756952993815" lon="11.907958760927183"><ele>309.0</ele><time>2026-04-10T12:41:23Z</time></trkpt><trkpt lat="43.22180281300868" lon="11.907642447145854"><ele>309.0</ele><time>2026-04-10T12:41:24Z</time></trkpt><trkpt lat="43.22185662843841" lon="11.907333502905926"><ele>309.5</ele><time>2026-04-10T12:41:25Z</time></trkpt><trkpt lat="43.22191243500043" lon="11.907027487728822"><ele>310.0</ele><time>2026-04-10T12:41:26Z</time></trkpt><trkpt lat="43.22197790526537" lon="11.906731221943541"><ele>310.5</ele><time>2026-04-10T12:41:27Z</time></trkpt><trkpt lat="43.22204240850134" lon="11.906426034430119"><ele>311.0</ele><time>2026-04-10T12:41:28Z</time></trkpt><trkpt lat="43.22211612210865" lon="11.906126456978093"><ele>311.5</ele><time>2026-04-10T12:41:29Z</time></trkpt><trkpt lat="43.22219656028135" lon="11.905832800712023"><ele>312.0</ele><time>2026-04-10T12:41:30Z</time></trkpt><trkpt lat="43.22227967560507" lon="11.905541010728328"><ele>306.5</ele><time>2026-04-10T12:41:31Z</time></trkpt><trkpt lat="43.22236444024634" lon="11.905252457161676"><ele>301.0</ele><time>2026-04-10T12:41:32Z</time></trkpt><trkpt lat="43.22245357163771" lon="11.904967278801438"><ele>301.0</ele><time>2026-04-10T12:41:33Z</time></trkpt><trkpt lat="43.222552082910745" lon="11.904687743643507"><ele>301.0</ele><time>2026-04-10T12:41:34Z</time></trkpt><trkpt lat="43.222656597305615" lon="11.904413235457039"><ele>300.5</ele><time>2026-04-10T12:41:35Z</time></trkpt><trkpt lat="43.22276901811112" lon="11.904137544656107"><ele>300.0</ele><time>2026-04-10T12:41:36Z</time></trkpt><trkpt lat="43.22288362830293" lon="11.903857001015778"><ele>300.0</ele><time>2026-04-10T12:41:37Z</time></trkpt><trkpt lat="43.22299298691857" lon="11.903594426851704"><ele>300.0</ele><time>2026-04-10T12:41:38Z</time></trkpt><trkpt lat="43.22311640987402" lon="11.903333659635267"><ele>300.0</ele><time>2026-04-10T12:41:39Z</time></trkpt><trkpt lat="43.22324792521986" lon="11.903072526250819"><ele>300.0</ele><time>2026-04-10T12:41:40Z</time></trkpt><trkpt lat="43.2233824500527" lon="11.902822018933128"><ele>300.0</ele><time>2026-04-10T12:41:41Z</time></trkpt><trkpt lat="43.22352084933145" lon="11.902568098032642"><ele>302.0</ele><time>2026-04-10T12:41:42Z</time></trkpt><trkpt lat="43.223663738149405" lon="11.902319469499995"><ele>304.0</ele><time>2026-04-10T12:41:43Z</time></trkpt><trkpt lat="43.22381682578163" lon="11.90207932356378"><ele>304.0</ele><time>2026-04-10T12:41:44Z</time></trkpt><trkpt lat="43.22396817652035" lon="11.90184719374406"><ele>304.0</ele><time>2026-04-10T12:41:45Z</time></trkpt><trkpt lat="43.224121593846384" lon="11.901622137024079"><ele>305.0</ele><time>2026-04-10T12:41:46Z</time></trkpt><trkpt lat="43.224271496603414" lon="11.901406904755586"><ele>306.0</ele><time>2026-04-10T12:41:47Z</time></trkpt><trkpt lat="43.224421471176115" lon="11.90118663082413"><ele>307.0</ele><time>2026-04-10T12:41:48Z</time></trkpt><trkpt lat="43.224576167744964" lon="11.900947398974063"><ele>306.5</ele><time>2026-04-10T12:41:49Z</time></trkpt><trkpt lat="43.22471990309931" lon="11.900693516616549"><ele>306.0</ele><time>2026-04-10T12:41:50Z</time></trkpt><trkpt lat="43.2248604780326" lon="11.900436011092665"><ele>303.5</ele><time>2026-04-10T12:41:51Z</time></trkpt><trkpt lat="43.224999932270876" lon="11.900170580948135"><ele>301.0</ele><time>2026-04-10T12:41:52Z</time></trkpt><trkpt lat="43.225134208103725" lon="11.899897965012567"><ele>299.0</ele><time>2026-04-10T12:41:53Z</time></trkpt><trkpt lat="43.22526900927117" lon="11.899617471325104"><ele>297.0</ele><time>2026-04-10T12:41:54Z</time></trkpt><trkpt lat="43.225397671958355" lon="11.899342912066246"><ele>293.5</ele><time>2026-04-10T12:41:55Z</time></trkpt><trkpt lat="43.22551823555808" lon="11.899057258633624"><ele>290.0</ele><time>2026-04-10T12:41:56Z</time></trkpt><trkpt lat="43.2256324133074" lon="11.89876540185757"><ele>290.0</ele><time>2026-04-10T12:41:57Z</time></trkpt><trkpt lat="43.22574431947885" lon="11.898474027418064"><ele>290.0</ele><time>2026-04-10T12:41:58Z</time></trkpt><trkpt lat="43.22584967605137" lon="11.898180203609506"><ele>290.0</ele><time>2026-04-10T12:41:59Z</time></trkpt><trkpt lat="43.225945855823916" lon="11.897882198459051"><ele>290.0</ele><time>2026-04-10T12:42:00Z</time></trkpt><trkpt lat="43.22603955675892" lon="11.897583366726826"><ele>290.5</ele><time>2026-04-10T12:42:01Z</time></trkpt><trkpt lat="43.22612542447664" lon="11.897280646189856"><ele>291.0</ele><time>2026-04-10T12:42:02Z</time></trkpt><trkpt lat="43.22620476404296" lon="11.896976094147801"><ele>291.5</ele><time>2026-04-10T12:42:03.001Z</time></trkpt><trkpt lat="43.226280805552975" lon="11.89666943330364"><ele>292.0</ele><time>2026-04-10T12:42:04.001Z</time></trkpt><trkpt lat="43.22635622787031" lon="11.89636490026249"><ele>292.0</ele><time>2026-04-10T12:42:05.001Z</time></trkpt><trkpt lat="43.22643315972133" lon="11.89606145889892"><ele>292.0</ele><time>2026-04-10T12:42:06.001Z</time></trkpt><trkpt lat="43.22650687519643" lon="11.89575576553683"><ele>297.0</ele><time>2026-04-10T12:42:07.001Z</time></trkpt><trkpt lat="43.2265790019468" lon="11.895452999408485"><ele>302.0</ele><time>2026-04-10T12:42:08.001Z</time></trkpt><trkpt lat="43.226655842184144" lon="11.8951495306165"><ele>300.5</ele><time>2026-04-10T12:42:09.001Z</time></trkpt><trkpt lat="43.22673138532283" lon="11.894845554735891"><ele>299.0</ele><time>2026-04-10T12:42:10.001Z</time></trkpt><trkpt lat="43.22983591996943" lon="11.875306295454907"><ele>284.5</ele><time>2026-04-10T12:43:11Z</time></trkpt><trkpt lat="43.22987050350371" lon="11.874967702498761"><ele>270.0</ele><time>2026-04-10T12:43:12Z</time></trkpt><trkpt lat="43.22990485295258" lon="11.87462934166298"><ele>270.0</ele><time>2026-04-10T12:43:13Z</time></trkpt><trkpt lat="43.229940805387365" lon="11.874288573527144"><ele>270.0</ele><time>2026-04-10T12:43:14Z</time></trkpt><trkpt lat="43.229974176260974" lon="11.873949511963783"><ele>269.0</ele><time>2026-04-10T12:43:15Z</time></trkpt><trkpt lat="43.23001031483987" lon="11.873607579582986"><ele>268.0</ele><time>2026-04-10T12:43:16Z</time></trkpt><trkpt lat="43.230045894138506" lon="11.873264069848977"><ele>267.5</ele><time>2026-04-10T12:43:17Z</time></trkpt><trkpt lat="43.23008390875787" lon="11.872918885482017"><ele>267.0</ele><time>2026-04-10T12:43:18Z</time></trkpt><trkpt lat="43.23011825370588" lon="11.872573433500634"><ele>266.5</ele><time>2026-04-10T12:43:19Z</time></trkpt><trkpt lat="43.230150019989466" lon="11.872226033086253"><ele>266.0</ele><time>2026-04-10T12:43:20Z</time></trkpt><trkpt lat="43.2301851382154" lon="11.871879815646606"><ele>266.0</ele><time>2026-04-10T12:43:21Z</time></trkpt><trkpt lat="43.23022478481692" lon="11.87153337703992"><ele>266.0</ele><time>2026-04-10T12:43:22Z</time></trkpt><trkpt lat="43.23026303968682" lon="11.871187893682748"><ele>266.5</ele><time>2026-04-10T12:43:23Z</time></trkpt><trkpt lat="43.23030161552875" lon="11.870844367815138"><ele>267.0</ele><time>2026-04-10T12:43:24Z</time></trkpt><trkpt lat="43.230334197410485" lon="11.870498818061332"><ele>267.0</ele><time>2026-04-10T12:43:25Z</time></trkpt><trkpt lat="43.230370164605354" lon="11.870158273029151"><ele>267.0</ele><time>2026-04-10T12:43:26Z</time></trkpt><trkpt lat="43.23040752778426" lon="11.869810786386916"><ele>267.5</ele><time>2026-04-10T12:43:27Z</time></trkpt><trkpt lat="43.23044536901312" lon="11.86946942000393"><ele>268.0</ele><time>2026-04-10T12:43:28Z</time></trkpt><trkpt lat="43.230482413165426" lon="11.869126123833407"><ele>266.5</ele><time>2026-04-10T12:43:29Z</time></trkpt><trkpt lat="43.23051986615701" lon="11.868786297497842"><ele>265.0</ele><time>2026-04-10T12:43:30Z</time></trkpt><trkpt lat="43.23055576829414" lon="11.868445429412374"><ele>265.0</ele><time>2026-04-10T12:43:31Z</time></trkpt><trkpt lat="43.23059073789136" lon="11.86810068069952"><ele>265.0</ele><time>2026-04-10T12:43:32Z</time></trkpt><trkpt lat="43.23062686767963" lon="11.867761654555641"><ele>264.0</ele><time>2026-04-10T12:43:33Z</time></trkpt><trkpt lat="43.23066312914676" lon="11.867421058794942"><ele>263.0</ele><time>2026-04-10T12:43:34Z</time></trkpt><trkpt lat="43.23070087997334" lon="11.867083357758581"><ele>263.0</ele><time>2026-04-10T12:43:35Z</time></trkpt><trkpt lat="43.23073743031895" lon="11.866747669068715"><ele>263.0</ele><time>2026-04-10T12:43:36Z</time></trkpt><trkpt lat="43.23077234908367" lon="11.866416108677202"><ele>263.0</ele><time>2026-04-10T12:43:37Z</time></trkpt><trkpt lat="43.23080326624613" lon="11.866085405122833"><ele>263.0</ele><time>2026-04-10T12:43:38Z</time></trkpt><trkpt lat="43.230821805924506" lon="11.865758513846643"><ele>264.0</ele><time>2026-04-10T12:43:39Z</time></trkpt><trkpt lat="43.23083478341535" lon="11.865430129145526"><ele>265.0</ele><time>2026-04-10T12:43:40Z</time></trkpt><trkpt lat="43.23084706556544" lon="11.865101574002741"><ele>266.0</ele><time>2026-04-10T12:43:41Z</time></trkpt><trkpt lat="43.230854484244006" lon="11.86477338626257"><ele>267.0</ele><time>2026-04-10T12:43:42Z</time></trkpt><trkpt lat="43.23085679405126" lon="11.864439971414205"><ele>266.0</ele><time>2026-04-10T12:43:43Z</time></trkpt><trkpt lat="43.23085650104208" lon="11.864106371746963"><ele>265.0</ele><time>2026-04-10T12:43:44Z</time></trkpt><trkpt lat="43.23085534438651" lon="11.863770783027189"><ele>265.0</ele><time>2026-04-10T12:43:45Z</time></trkpt><trkpt lat="43.23085035061654" lon="11.863433517152455"><ele>265.0</ele><time>2026-04-10T12:43:46Z</time></trkpt><trkpt lat="43.230842658534364" lon="11.863096217036569"><ele>265.0</ele><time>2026-04-10T12:43:47Z</time></trkpt><trkpt lat="43.23083480404415" lon="11.862761016976721"><ele>265.0</ele><time>2026-04-10T12:43:48Z</time></trkpt><trkpt lat="43.230831090432915" lon="11.862425109925077"><ele>264.0</ele><time>2026-04-10T12:43:49Z</time></trkpt><trkpt lat="43.2308308446846" lon="11.862087252021588"><ele>263.0</ele><time>2026-04-10T12:43:50Z</time></trkpt><trkpt lat="43.23082890928151" lon="11.861749469099676"><ele>261.0</ele><time>2026-04-10T12:43:51Z</time></trkpt><trkpt lat="43.23082426337644" lon="11.861412639022348"><ele>259.0</ele><time>2026-04-10T12:43:52Z</time></trkpt><trkpt lat="43.23082076649046" lon="11.861076832314655"><ele>259.0</ele><time>2026-04-10T12:43:53Z</time></trkpt><trkpt lat="43.23081637312379" lon="11.860738187950655"><ele>259.0</ele><time>2026-04-10T12:43:54Z</time></trkpt><trkpt lat="43.23081170367705" lon="11.860401220569555"><ele>259.0</ele><time>2026-04-10T12:43:55Z</time></trkpt><trkpt lat="43.23080782920351" lon="11.860065045324838"><ele>259.0</ele><time>2026-04-10T12:43:56Z</time></trkpt><trkpt lat="43.23080462703263" lon="11.859728647037533"><ele>259.0</ele><time>2026-04-10T12:43:57Z</time></trkpt><trkpt lat="43.230800423175715" lon="11.859392398433206"><ele>259.0</ele><time>2026-04-10T12:43:58Z</time></trkpt><trkpt lat="43.230794950267786" lon="11.859059637929366"><ele>259.5</ele><time>2026-04-10T12:43:59Z</time></trkpt><trkpt lat="43.230793099456164" lon="11.858729618675254"><ele>260.0</ele><time>2026-04-10T12:44:00Z</time></trkpt><trkpt lat="43.23078787830792" lon="11.858402397798447"><ele>260.0</ele><time>2026-04-10T12:44:01Z</time></trkpt><trkpt lat="43.23077771289858" lon="11.858075506976263"><ele>260.0</ele><time>2026-04-10T12:44:02Z</time></trkpt><trkpt lat="43.23077127054212" lon="11.857748339035412"><ele>262.0</ele><time>2026-04-10T12:44:03Z</time></trkpt><trkpt lat="43.2307704988792" lon="11.857423672357731"><ele>264.0</ele><time>2026-04-10T12:44:04Z</time></trkpt><trkpt lat="43.23077224636406" lon="11.85709813634779"><ele>266.0</ele><time>2026-04-10T12:44:05Z</time></trkpt><trkpt lat="43.230774234666846" lon="11.856774840185542"><ele>268.0</ele><time>2026-04-10T12:44:06Z</time></trkpt><trkpt lat="43.23078040319875" lon="11.85645263602328"><ele>268.0</ele><time>2026-04-10T12:44:07Z</time></trkpt><trkpt lat="43.23079389030996" lon="11.85613327662669"><ele>268.0</ele><time>2026-04-10T12:44:08Z</time></trkpt><trkpt lat="43.230827865216675" lon="11.855815154134563"><ele>269.5</ele><time>2026-04-10T12:44:09Z</time></trkpt><trkpt lat="43.23088288100133" lon="11.85550555978685"><ele>271.0</ele><time>2026-04-10T12:44:10Z</time></trkpt><trkpt lat="43.22927608273913" lon="11.839779295472221"><ele>265.0</ele><time>2026-04-10T12:45:11Z</time></trkpt><trkpt lat="43.22909550854374" lon="11.839565871466535"><ele>259.0</ele><time>2026-04-10T12:45:12Z</time></trkpt><trkpt lat="43.22891160350861" lon="11.83935534911313"><ele>255.5</ele><time>2026-04-10T12:45:13Z</time></trkpt><trkpt lat="43.22873138519274" lon="11.839140257358189"><ele>252.0</ele><time>2026-04-10T12:45:14Z</time></trkpt><trkpt lat="43.228554122290724" lon="11.838916359838041"><ele>252.0</ele><time>2026-04-10T12:45:15Z</time></trkpt><trkpt lat="43.228377371407646" lon="11.838691510163894"><ele>252.0</ele><time>2026-04-10T12:45:16Z</time></trkpt><trkpt lat="43.22820533793099" lon="11.838464021111864"><ele>251.5</ele><time>2026-04-10T12:45:17Z</time></trkpt><trkpt lat="43.22803613593997" lon="11.83822571709963"><ele>251.0</ele><time>2026-04-10T12:45:18Z</time></trkpt><trkpt lat="43.227874175616066" lon="11.837985233002675"><ele>251.0</ele><time>2026-04-10T12:45:19Z</time></trkpt><trkpt lat="43.22771648960871" lon="11.837732653848821"><ele>251.0</ele><time>2026-04-10T12:45:20Z</time></trkpt><trkpt lat="43.227563048912046" lon="11.83747983929186"><ele>251.0</ele><time>2026-04-10T12:45:21Z</time></trkpt><trkpt lat="43.227412842752514" lon="11.837218066250868"><ele>251.0</ele><time>2026-04-10T12:45:22Z</time></trkpt><trkpt lat="43.22726112068454" lon="11.8369606101695"><ele>249.0</ele><time>2026-04-10T12:45:23Z</time></trkpt><trkpt lat="43.22711191561763" lon="11.83669689526009"><ele>247.0</ele><time>2026-04-10T12:45:24Z</time></trkpt><trkpt lat="43.22697260715674" lon="11.836436367394183"><ele>247.0</ele><time>2026-04-10T12:45:25Z</time></trkpt><trkpt lat="43.2268425767768" lon="11.836167577058696"><ele>247.0</ele><time>2026-04-10T12:45:26Z</time></trkpt><trkpt lat="43.22671559297657" lon="11.835901929806775"><ele>246.5</ele><time>2026-04-10T12:45:27Z</time></trkpt><trkpt lat="43.22659369237671" lon="11.83563414454904"><ele>246.0</ele><time>2026-04-10T12:45:28Z</time></trkpt><trkpt lat="43.226477815625465" lon="11.835368430714635"><ele>245.33333333333331</ele><time>2026-04-10T12:45:29Z</time></trkpt><trkpt lat="43.226367217604746" lon="11.835113613209709"><ele>244.66666666666666</ele><time>2026-04-10T12:45:30Z</time></trkpt><trkpt lat="43.22625204531593" lon="11.834860696379554"><ele>244.0</ele><time>2026-04-10T12:45:31Z</time></trkpt><trkpt lat="43.226136527704554" lon="11.83460196747069"><ele>244.0</ele><time>2026-04-10T12:45:32Z</time></trkpt><trkpt lat="43.2260254051233" lon="11.834347214944872"><ele>244.0</ele><time>2026-04-10T12:45:33Z</time></trkpt><trkpt lat="43.225917056209106" lon="11.834087165492695"><ele>244.0</ele><time>2026-04-10T12:45:34Z</time></trkpt><trkpt lat="43.22581213593443" lon="11.833825789183553"><ele>243.66666666666666</ele><time>2026-04-10T12:45:35Z</time></trkpt><trkpt lat="43.2257061034191" lon="11.833564933368317"><ele>243.33333333333331</ele><time>2026-04-10T12:45:36Z</time></trkpt><trkpt lat="43.22560198659988" lon="11.833306681194866"><ele>243.0</ele><time>2026-04-10T12:45:37Z</time></trkpt><trkpt lat="43.22550465402317" lon="11.833070209588037"><ele>243.66666666666669</ele><time>2026-04-10T12:45:38Z</time></trkpt><trkpt lat="43.225413175693824" lon="11.832845444603498"><ele>244.33333333333334</ele><time>2026-04-10T12:45:39Z</time></trkpt><trkpt lat="43.225325958141525" lon="11.832635715250074"><ele>245.0</ele><time>2026-04-10T12:45:40Z</time></trkpt><trkpt lat="43.22523254226377" lon="11.832421910184484"><ele>246.0</ele><time>2026-04-10T12:45:41Z</time></trkpt><trkpt lat="43.2251320470465" lon="11.832203153541611"><ele>247.0</ele><time>2026-04-10T12:45:42Z</time></trkpt><trkpt lat="43.22502857918227" lon="11.831987099165955"><ele>248.0</ele><time>2026-04-10T12:45:43Z</time></trkpt><trkpt lat="43.22492816921237" lon="11.83176889130476"><ele>248.0</ele><time>2026-04-10T12:45:44Z</time></trkpt><trkpt lat="43.224818387530334" lon="11.831519411209378"><ele>248.0</ele><time>2026-04-10T12:45:45Z</time></trkpt><trkpt lat="43.22471675631304" lon="11.831264275275412"><ele>248.0</ele><time>2026-04-10T12:45:46Z</time></trkpt><trkpt lat="43.22461212419294" lon="11.830999233529845"><ele>248.33333333333334</ele><time>2026-04-10T12:45:47Z</time></trkpt><trkpt lat="43.22450581897404" lon="11.83072879709685"><ele>248.66666666666669</ele><time>2026-04-10T12:45:48Z</time></trkpt><trkpt lat="43.22440014584142" lon="11.830456039640993"><ele>249.0</ele><time>2026-04-10T12:45:49Z</time></trkpt><trkpt lat="43.22429441434821" lon="11.830178274899453"><ele>249.0</ele><time>2026-04-10T12:45:50Z</time></trkpt><trkpt lat="43.224192763391756" lon="11.829905922041933"><ele>249.0</ele><time>2026-04-10T12:45:51Z</time></trkpt><trkpt lat="43.22409686776322" lon="11.829645381415052"><ele>249.0</ele><time>2026-04-10T12:45:52Z</time></trkpt><trkpt lat="43.224002472001565" lon="11.829379836956868"><ele>248.0</ele><time>2026-04-10T12:45:53Z</time></trkpt><trkpt lat="43.22391016613411" lon="11.829105726156472"><ele>247.0</ele><time>2026-04-10T12:45:54Z</time></trkpt><trkpt lat="43.22382116722016" lon="11.828828480321347"><ele>246.0</ele><time>2026-04-10T12:45:55Z</time></trkpt><trkpt lat="43.223737639000994" lon="11.8285419141135"><ele>247.0</ele><time>2026-04-10T12:45:56Z</time></trkpt><trkpt lat="43.223654067897634" lon="11.828253855237365"><ele>248.0</ele><time>2026-04-10T12:45:57Z</time></trkpt><trkpt lat="43.22357456428077" lon="11.827961384940766"><ele>248.0</ele><time>2026-04-10T12:45:58Z</time></trkpt><trkpt lat="43.22349909822965" lon="11.82766804996055"><ele>248.0</ele><time>2026-04-10T12:45:59Z</time></trkpt><trkpt lat="43.223423802295436" lon="11.827375365011955"><ele>248.0</ele><time>2026-04-10T12:46:00Z</time></trkpt><trkpt lat="43.223347748932156" lon="11.827080321872408"><ele>248.0</ele><time>2026-04-10T12:46:01Z</time></trkpt><trkpt lat="43.223275850377554" lon="11.82678673949215"><ele>248.0</ele><time>2026-04-10T12:46:02Z</time></trkpt><trkpt lat="43.223201786671424" lon="11.82649290538347"><ele>248.0</ele><time>2026-04-10T12:46:03Z</time></trkpt><trkpt lat="43.223126641931174" lon="11.826201836471382"><ele>247.5</ele><time>2026-04-10T12:46:04Z</time></trkpt><trkpt lat="43.223049275752" lon="11.825908128048255"><ele>247.0</ele><time>2026-04-10T12:46:05Z</time></trkpt><trkpt lat="43.222974002740415" lon="11.825614050316991"><ele>247.0</ele><time>2026-04-10T12:46:06Z</time></trkpt><trkpt lat="43.222898280903" lon="11.82531727408794"><ele>247.0</ele><time>2026-04-10T12:46:07Z</time></trkpt><trkpt lat="43.222823416790014" lon="11.825019968873786"><ele>248.5</ele><time>2026-04-10T12:46:08Z</time></trkpt><trkpt lat="43.222749444939126" lon="11.824722006555538"><ele>250.0</ele><time>2026-04-10T12:46:09Z</time></trkpt><trkpt lat="43.222675570750326" lon="11.82442343108509"><ele>250.0</ele><time>2026-04-10T12:46:10Z</time></trkpt><trkpt lat="43.22013294747348" lon="11.810698955389013"><ele>249.99999999999997</ele><time>2026-04-10T12:47:11.001Z</time></trkpt><trkpt lat="43.2201744000944" lon="11.810601419031073"><ele>250.0</ele><time>2026-04-10T12:47:12.001Z</time></trkpt><trkpt lat="43.22030863490613" lon="11.810582005091355"><ele>250.0</ele><time>2026-04-10T12:47:13.001Z</time></trkpt><trkpt lat="43.220380753460084" lon="11.8105236288991"><ele>250.0</ele><time>2026-04-10T12:47:14.001Z</time></trkpt><trkpt lat="43.22044676967624" lon="11.81048759420695"><ele>249.99999999999997</ele><time>2026-04-10T12:47:15.001Z</time></trkpt><trkpt lat="43.22048808300741" lon="11.810402102429734"><ele>250.0</ele><time>2026-04-10T12:47:16.001Z</time></trkpt><trkpt lat="43.22051241705267" lon="11.810313651729526"><ele>249.99999999999997</ele><time>2026-04-10T12:47:17.001Z</time></trkpt><trkpt lat="43.2204986368463" lon="11.810209228634918"><ele>250.0</ele><time>2026-04-10T12:47:18.001Z</time></trkpt><trkpt lat="43.2205032548002" lon="11.81010951752224"><ele>250.0</ele><time>2026-04-10T12:47:19.001Z</time></trkpt><trkpt lat="43.22044802620686" lon="11.810024170147337"><ele>250.0</ele><time>2026-04-10T12:47:20.001Z</time></trkpt><trkpt lat="43.22040916410704" lon="11.809946691595766"><ele>249.99999999999997</ele><time>2026-04-10T12:47:21.001Z</time></trkpt><trkpt lat="43.22032526132624" lon="11.809923910464368"><ele>250.0</ele><time>2026-04-10T12:47:22.001Z</time></trkpt><trkpt lat="43.22025192822942" lon="11.809905423347455"><ele>250.0</ele><time>2026-04-10T12:47:23.001Z</time></trkpt><trkpt lat="43.220172349714495" lon="11.809921287470928"><ele>250.0</ele><time>2026-04-10T12:47:24.001Z</time></trkpt><trkpt lat="43.22008417649182" lon="11.809974000839098"><ele>250.0</ele><time>2026-04-10T12:47:25.001Z</time></trkpt><trkpt lat="43.220012454277935" lon="11.810085825448075"><ele>250.0</ele><time>2026-04-10T12:47:26.001Z</time></trkpt><trkpt lat="43.219957884246064" lon="11.810204619103551"><ele>250.0</ele><time>2026-04-10T12:47:27.001Z</time></trkpt><trkpt lat="43.21993761578434" lon="11.810295403737262"><ele>249.66666666666666</ele><time>2026-04-10T12:47:28.001Z</time></trkpt><trkpt lat="43.21973926791994" lon="11.810180199688439"><ele>249.33333333333331</ele><time>2026-04-10T12:47:29.001Z</time></trkpt><trkpt lat="43.21962107424664" lon="11.810192878624356"><ele>249.0</ele><time>2026-04-10T12:47:30.001Z</time></trkpt><trkpt lat="43.21948537090868" lon="11.810164912185181"><ele>249.0</ele><time>2026-04-10T12:47:31.001Z</time></trkpt><trkpt lat="43.21934143883913" lon="11.810156513658125"><ele>249.0</ele><time>2026-04-10T12:47:32.001Z</time></trkpt><trkpt lat="43.21919744457243" lon="11.810158967443211"><ele>249.0</ele><time>2026-04-10T12:47:33.001Z</time></trkpt><trkpt lat="43.21905439499016" lon="11.810160187928071"><ele>249.0</ele><time>2026-04-10T12:47:34.001Z</time></trkpt><trkpt lat="43.21890422549834" lon="11.810152207568542"><ele>250.33333333333331</ele><time>2026-04-10T12:47:35.001Z</time></trkpt><trkpt lat="43.218746789444914" lon="11.81013614804062"><ele>251.66666666666666</ele><time>2026-04-10T12:47:36.001Z</time></trkpt><trkpt lat="43.21858609034086" lon="11.810108095775782"><ele>253.0</ele><time>2026-04-10T12:47:37.001Z</time></trkpt><trkpt lat="43.218423685816546" lon="11.810081486911052"><ele>253.0</ele><time>2026-04-10T12:47:38.001Z</time></trkpt><trkpt lat="43.21826947694961" lon="11.810045977451539"><ele>253.0</ele><time>2026-04-10T12:47:39.001Z</time></trkpt><trkpt lat="43.21811410179107" lon="11.810006764282694"><ele>253.0</ele><time>2026-04-10T12:47:40.001Z</time></trkpt><trkpt lat="43.217976116287105" lon="11.80996890372631"><ele>253.0</ele><time>2026-04-10T12:47:41.001Z</time></trkpt><trkpt lat="43.21783397657263" lon="11.809942105085666"><ele>253.0</ele><time>2026-04-10T12:47:42.001Z</time></trkpt><trkpt lat="43.21770166627263" lon="11.809918815178198"><ele>253.0</ele><time>2026-04-10T12:47:43.001Z</time></trkpt><trkpt lat="43.21757934616586" lon="11.809894282696897"><ele>253.0</ele><time>2026-04-10T12:47:44.001Z</time></trkpt><trkpt lat="43.21746972951029" lon="11.80989660019412"><ele>252.99999999999997</ele><time>2026-04-10T12:47:45.001Z</time></trkpt><trkpt lat="43.21738001355649" lon="11.809900377911251"><ele>253.0</ele><time>2026-04-10T12:47:46.001Z</time></trkpt><trkpt lat="43.217298338239104" lon="11.809887532269892"><ele>253.0</ele><time>2026-04-10T12:47:47.001Z</time></trkpt><trkpt lat="43.21723351601042" lon="11.809850602287334"><ele>253.0</ele><time>2026-04-10T12:47:48.001Z</time></trkpt><trkpt lat="43.217167210483204" lon="11.809780730133363"><ele>252.99999999999997</ele><time>2026-04-10T12:47:49.001Z</time></trkpt><trkpt lat="43.217093351177056" lon="11.809702985558268"><ele>253.0</ele><time>2026-04-10T12:47:50.001Z</time></trkpt><trkpt lat="43.21701843202425" lon="11.809650464892758"><ele>252.60000000000002</ele><time>2026-04-10T12:47:51.001Z</time></trkpt><trkpt lat="43.21693783204956" lon="11.809622408362351"><ele>252.20000000000002</ele><time>2026-04-10T12:47:52.001Z</time></trkpt><trkpt lat="43.21684747675432" lon="11.809623751855955"><ele>251.8</ele><time>2026-04-10T12:47:53.001Z</time></trkpt><trkpt lat="43.21674333535654" lon="11.809659753528866"><ele>251.4</ele><time>2026-04-10T12:47:54.001Z</time></trkpt><trkpt lat="43.21662874175905" lon="11.80970670474151"><ele>251.0</ele><time>2026-04-10T12:47:55.001Z</time></trkpt><trkpt lat="43.2165169756448" lon="11.809712007253866"><ele>250.25</ele><time>2026-04-10T12:47:56.001Z</time></trkpt><trkpt lat="43.216415714869754" lon="11.8097142885742"><ele>249.5</ele><time>2026-04-10T12:47:57.001Z</time></trkpt><trkpt lat="43.21629823532159" lon="11.809606872473918"><ele>248.75</ele><time>2026-04-10T12:47:58.001Z</time></trkpt><trkpt lat="43.2161754742235" lon="11.809524081523124"><ele>248.0</ele><time>2026-04-10T12:47:59.001Z</time></trkpt><trkpt lat="43.21605098882826" lon="11.809447228987256"><ele>248.0</ele><time>2026-04-10T12:48:00.001Z</time></trkpt><trkpt lat="43.21593082032078" lon="11.80937964158468"><ele>248.0</ele><time>2026-04-10T12:48:01.001Z</time></trkpt><trkpt lat="43.21581296381149" lon="11.809312762403248"><ele>248.0</ele><time>2026-04-10T12:48:02.001Z</time></trkpt><trkpt lat="43.21570508351222" lon="11.809250296745109"><ele>248.0</ele><time>2026-04-10T12:48:03.001Z</time></trkpt><trkpt lat="43.21559493630583" lon="11.809186871773155"><ele>249.0</ele><time>2026-04-10T12:48:04.001Z</time></trkpt><trkpt lat="43.21548177771914" lon="11.809115106212147"><ele>250.0</ele><time>2026-04-10T12:48:05.001Z</time></trkpt><trkpt lat="43.215365381214305" lon="11.80904849921524"><ele>251.0</ele><time>2026-04-10T12:48:06.001Z</time></trkpt><trkpt lat="43.215245909856314" lon="11.808980935399415"><ele>252.0</ele><time>2026-04-10T12:48:07.001Z</time></trkpt><trkpt lat="43.215116363428436" lon="11.80889222660842"><ele>252.0</ele><time>2026-04-10T12:48:08.001Z</time></trkpt><trkpt lat="43.21497929904606" lon="11.80880224378593"><ele>252.0</ele><time>2026-04-10T12:48:09.001Z</time></trkpt><trkpt lat="43.21484863059526" lon="11.808723869727643"><ele>252.0</ele><time>2026-04-10T12:48:10.001Z</time></trkpt><trkpt lat="43.21161490451198" lon="11.806101278602073"><ele>259.0</ele><time>2026-04-10T12:49:11.001Z</time></trkpt><trkpt lat="43.21153903002417" lon="11.806811942524812"><ele>259.0</ele><time>2026-04-10T12:51:10.999Z</time></trkpt><trkpt lat="43.21153949616783" lon="11.80693553439002"><ele>259.0</ele><time>2026-04-10T12:51:24Z</time></trkpt><trkpt lat="43.21154588141238" lon="11.807026294004755"><ele>259.0</ele><time>2026-04-10T12:51:25Z</time></trkpt><trkpt lat="43.21155765857988" lon="11.807138181663028"><ele>259.0</ele><time>2026-04-10T12:51:26Z</time></trkpt><trkpt lat="43.21157348614739" lon="11.807251110511777"><ele>259.0</ele><time>2026-04-10T12:51:27Z</time></trkpt><trkpt lat="43.21159299385759" lon="11.807372552877192"><ele>259.0</ele><time>2026-04-10T12:51:28Z</time></trkpt><trkpt lat="43.211643734692665" lon="11.807508355466563"><ele>259.25</ele><time>2026-04-10T12:51:29Z</time></trkpt><trkpt lat="43.21164334322653" lon="11.807692870131307"><ele>259.5</ele><time>2026-04-10T12:51:30Z</time></trkpt><trkpt lat="43.211671577310035" lon="11.807866203843734"><ele>259.75</ele><time>2026-04-10T12:51:31Z</time></trkpt><trkpt lat="43.211704665375755" lon="11.80806034796793"><ele>260.0</ele><time>2026-04-10T12:51:32Z</time></trkpt><trkpt lat="43.21174562928596" lon="11.808241774330938"><ele>260.0</ele><time>2026-04-10T12:51:33Z</time></trkpt><trkpt lat="43.211790458880934" lon="11.808424831671607"><ele>260.0</ele><time>2026-04-10T12:51:34Z</time></trkpt><trkpt lat="43.211845883037086" lon="11.808604527256595"><ele>260.0</ele><time>2026-04-10T12:51:35Z</time></trkpt><trkpt lat="43.211909224091386" lon="11.808774034318883"><ele>260.0</ele><time>2026-04-10T12:51:36Z</time></trkpt><trkpt lat="43.21197376774627" lon="11.808935365310516"><ele>259.0</ele><time>2026-04-10T12:51:37Z</time></trkpt><trkpt lat="43.21203209438434" lon="11.809085722732439"><ele>258.0</ele><time>2026-04-10T12:51:38Z</time></trkpt><trkpt lat="43.212085815852035" lon="11.809224558314982"><ele>257.0</ele><time>2026-04-10T12:51:39Z</time></trkpt><trkpt lat="43.21213839162783" lon="11.809358551301573"><ele>256.0</ele><time>2026-04-10T12:51:40Z</time></trkpt><trkpt lat="43.21218661150264" lon="11.809490651567716"><ele>255.4</ele><time>2026-04-10T12:51:41Z</time></trkpt><trkpt lat="43.21222788825726" lon="11.809624907759225"><ele>254.8</ele><time>2026-04-10T12:51:42Z</time></trkpt><trkpt lat="43.21225190468264" lon="11.80975258745772"><ele>254.20000000000002</ele><time>2026-04-10T12:51:43Z</time></trkpt><trkpt lat="43.21225131288499" lon="11.809873035450288"><ele>253.60000000000002</ele><time>2026-04-10T12:51:44Z</time></trkpt><trkpt lat="43.212228723399555" lon="11.809998928760006"><ele>253.0</ele><time>2026-04-10T12:51:45Z</time></trkpt><trkpt lat="43.21218264662616" lon="11.810108080967415"><ele>252.2</ele><time>2026-04-10T12:51:46Z</time></trkpt><trkpt lat="43.21211513800384" lon="11.810200459655661"><ele>251.4</ele><time>2026-04-10T12:51:47Z</time></trkpt><trkpt lat="43.212039407565484" lon="11.81026189157476"><ele>250.59999999999997</ele><time>2026-04-10T12:51:48Z</time></trkpt><trkpt lat="43.21195100219035" lon="11.81029433846328"><ele>249.79999999999998</ele><time>2026-04-10T12:51:49Z</time></trkpt><trkpt lat="43.211856349498454" lon="11.810316901090735"><ele>249.0</ele><time>2026-04-10T12:51:50Z</time></trkpt><trkpt lat="43.21175944198139" lon="11.810304030799593"><ele>249.0</ele><time>2026-04-10T12:51:51Z</time></trkpt><trkpt lat="43.21168330932778" lon="11.810253049374012"><ele>248.99999999999997</ele><time>2026-04-10T12:51:52Z</time></trkpt><trkpt lat="43.21160851329882" lon="11.810170461819748"><ele>248.99999999999997</ele><time>2026-04-10T12:51:53Z</time></trkpt><trkpt lat="43.21156147477671" lon="11.810063457316161"><ele>249.0</ele><time>2026-04-10T12:51:54Z</time></trkpt><trkpt lat="43.211528169214006" lon="11.80993870033663"><ele>249.0</ele><time>2026-04-10T12:51:55Z</time></trkpt><trkpt lat="43.21151843606302" lon="11.809803379948043"><ele>250.0</ele><time>2026-04-10T12:51:56Z</time></trkpt><trkpt lat="43.211537212649965" lon="11.809667143176348"><ele>251.0</ele><time>2026-04-10T12:51:57Z</time></trkpt><trkpt lat="43.21157860051956" lon="11.809535063890152"><ele>252.0</ele><time>2026-04-10T12:51:58Z</time></trkpt><trkpt lat="43.21165196311654" lon="11.809404850225894"><ele>253.0</ele><time>2026-04-10T12:51:59Z</time></trkpt><trkpt lat="43.2117429300515" lon="11.809273953832466"><ele>253.75</ele><time>2026-04-10T12:52:00Z</time></trkpt><trkpt lat="43.21185011621214" lon="11.809166180139538"><ele>254.5</ele><time>2026-04-10T12:52:01Z</time></trkpt><trkpt lat="43.21197635162696" lon="11.809059377423115"><ele>255.25</ele><time>2026-04-10T12:52:02Z</time></trkpt><trkpt lat="43.21211848424099" lon="11.808952303591514"><ele>256.0</ele><time>2026-04-10T12:52:03Z</time></trkpt><trkpt lat="43.21226844141169" lon="11.808839628336887"><ele>256.0</ele><time>2026-04-10T12:52:04Z</time></trkpt><trkpt lat="43.21242892805718" lon="11.808721499698082"><ele>256.0</ele><time>2026-04-10T12:52:05Z</time></trkpt><trkpt lat="43.21259382479609" lon="11.808593764257573"><ele>256.0</ele><time>2026-04-10T12:52:06Z</time></trkpt><trkpt lat="43.21276962700651" lon="11.808462513569687"><ele>256.0</ele><time>2026-04-10T12:52:07Z</time></trkpt><trkpt lat="43.21295125496303" lon="11.808329255647793"><ele>256.0</ele><time>2026-04-10T12:52:08Z</time></trkpt><trkpt lat="43.213129543572876" lon="11.808196321759217"><ele>256.0</ele><time>2026-04-10T12:52:09Z</time></trkpt><trkpt lat="43.21331643408164" lon="11.808055466408828"><ele>251.0</ele><time>2026-04-10T12:52:10Z</time></trkpt><trkpt lat="43.22479525806749" lon="11.79809650765573"><ele>250.5</ele><time>2026-04-10T12:53:10.999Z</time></trkpt><trkpt lat="43.225004961190514" lon="11.797914556573785"><ele>250.0</ele><time>2026-04-10T12:53:11.999Z</time></trkpt><trkpt lat="43.22520505864684" lon="11.797738278196409"><ele>250.5</ele><time>2026-04-10T12:53:12.999Z</time></trkpt><trkpt lat="43.22540173462802" lon="11.797566396759358"><ele>251.0</ele><time>2026-04-10T12:53:13.999Z</time></trkpt><trkpt lat="43.225593920808905" lon="11.797394895301608"><ele>250.0</ele><time>2026-04-10T12:53:14.999Z</time></trkpt><trkpt lat="43.22578100459771" lon="11.797223467449957"><ele>249.0</ele><time>2026-04-10T12:53:15.999Z</time></trkpt><trkpt lat="43.22596871724625" lon="11.797053907470689"><ele>249.0</ele><time>2026-04-10T12:53:16.999Z</time></trkpt><trkpt lat="43.22616138685409" lon="11.796883788149996"><ele>249.0</ele><time>2026-04-10T12:53:17.999Z</time></trkpt><trkpt lat="43.226356018449515" lon="11.796710704890021"><ele>250.5</ele><time>2026-04-10T12:53:18.999Z</time></trkpt><trkpt lat="43.22655296309399" lon="11.796537786525663"><ele>252.0</ele><time>2026-04-10T12:53:19.999Z</time></trkpt><trkpt lat="43.22674889843323" lon="11.796365260989338"><ele>252.0</ele><time>2026-04-10T12:53:21Z</time></trkpt><trkpt lat="43.226942821148356" lon="11.79619461507509"><ele>252.0</ele><time>2026-04-10T12:53:22Z</time></trkpt><trkpt lat="43.22713667174961" lon="11.796020514131964"><ele>252.5</ele><time>2026-04-10T12:53:23Z</time></trkpt><trkpt lat="43.2273296291753" lon="11.79584967609503"><ele>253.0</ele><time>2026-04-10T12:53:24Z</time></trkpt><trkpt lat="43.22752367832952" lon="11.795679743739955"><ele>253.0</ele><time>2026-04-10T12:53:25Z</time></trkpt><trkpt lat="43.22771443161669" lon="11.795507194202742"><ele>253.0</ele><time>2026-04-10T12:53:26Z</time></trkpt><trkpt lat="43.22790414861777" lon="11.795335388056955"><ele>252.5</ele><time>2026-04-10T12:53:27Z</time></trkpt><trkpt lat="43.22809445669771" lon="11.79516731746038"><ele>252.0</ele><time>2026-04-10T12:53:28Z</time></trkpt><trkpt lat="43.22828464593941" lon="11.79500206194716"><ele>252.0</ele><time>2026-04-10T12:53:29Z</time></trkpt><trkpt lat="43.22847447541792" lon="11.794836821026719"><ele>252.0</ele><time>2026-04-10T12:53:30Z</time></trkpt><trkpt lat="43.22866334065715" lon="11.794671225702288"><ele>252.0</ele><time>2026-04-10T12:53:31Z</time></trkpt><trkpt lat="43.22885206256859" lon="11.794500855594654"><ele>251.0</ele><time>2026-04-10T12:53:32Z</time></trkpt><trkpt lat="43.22904015874613" lon="11.794333541704972"><ele>250.0</ele><time>2026-04-10T12:53:33Z</time></trkpt><trkpt lat="43.22923035995186" lon="11.794169246043422"><ele>249.0</ele><time>2026-04-10T12:53:34Z</time></trkpt><trkpt lat="43.229420043703094" lon="11.794002802269269"><ele>249.0</ele><time>2026-04-10T12:53:35Z</time></trkpt><trkpt lat="43.22960756555781" lon="11.793835026764974"><ele>249.0</ele><time>2026-04-10T12:53:36Z</time></trkpt><trkpt lat="43.229795584894994" lon="11.793668326441741"><ele>249.0</ele><time>2026-04-10T12:53:37Z</time></trkpt><trkpt lat="43.22998588968145" lon="11.793503175912827"><ele>249.0</ele><time>2026-04-10T12:53:38Z</time></trkpt><trkpt lat="43.23017593604121" lon="11.793339394783315"><ele>249.0</ele><time>2026-04-10T12:53:39Z</time></trkpt><trkpt lat="43.23036700231559" lon="11.793173030745525"><ele>249.0</ele><time>2026-04-10T12:53:40Z</time></trkpt><trkpt lat="43.23055681714543" lon="11.79300208837829"><ele>249.0</ele><time>2026-04-10T12:53:41Z</time></trkpt><trkpt lat="43.230749054197105" lon="11.792830117140218"><ele>248.5</ele><time>2026-04-10T12:53:42Z</time></trkpt><trkpt lat="43.23093731848201" lon="11.792660921470615"><ele>248.0</ele><time>2026-04-10T12:53:43Z</time></trkpt><trkpt lat="43.23112919423373" lon="11.792490144743875"><ele>248.0</ele><time>2026-04-10T12:53:44Z</time></trkpt><trkpt lat="43.231321647909404" lon="11.792319603059937"><ele>248.0</ele><time>2026-04-10T12:53:45Z</time></trkpt><trkpt lat="43.23151352504953" lon="11.792149891381854"><ele>248.0</ele><time>2026-04-10T12:53:46Z</time></trkpt><trkpt lat="43.231704697501584" lon="11.791980442767716"><ele>248.0</ele><time>2026-04-10T12:53:47Z</time></trkpt><trkpt lat="43.23189230560487" lon="11.791812370786776"><ele>248.66666666666669</ele><time>2026-04-10T12:53:48Z</time></trkpt><trkpt lat="43.23207420674918" lon="11.791645044597283"><ele>249.33333333333331</ele><time>2026-04-10T12:53:49Z</time></trkpt><trkpt lat="43.232259516176164" lon="11.791482090269357"><ele>250.0</ele><time>2026-04-10T12:53:50Z</time></trkpt><trkpt lat="43.23244968986935" lon="11.791320565851711"><ele>250.33333333333331</ele><time>2026-04-10T12:53:51Z</time></trkpt><trkpt lat="43.23263140478163" lon="11.791157004639585"><ele>250.66666666666669</ele><time>2026-04-10T12:53:52Z</time></trkpt><trkpt lat="43.23280934037" lon="11.790991431101011"><ele>251.0</ele><time>2026-04-10T12:53:53Z</time></trkpt><trkpt lat="43.23298364016074" lon="11.790820779857846"><ele>251.33333333333334</ele><time>2026-04-10T12:53:54Z</time></trkpt><trkpt lat="43.23315428093386" lon="11.790643562130642"><ele>251.66666666666669</ele><time>2026-04-10T12:53:55Z</time></trkpt><trkpt lat="43.23332024850228" lon="11.790461487346857"><ele>252.0</ele><time>2026-04-10T12:53:56Z</time></trkpt><trkpt lat="43.23348650143174" lon="11.790274322778016"><ele>253.0</ele><time>2026-04-10T12:53:57Z</time></trkpt><trkpt lat="43.233651178217514" lon="11.79008365544906"><ele>254.0</ele><time>2026-04-10T12:53:58Z</time></trkpt><trkpt lat="43.23381901397671" lon="11.789891942006175"><ele>255.0</ele><time>2026-04-10T12:53:59Z</time></trkpt><trkpt lat="43.233982111213614" lon="11.78969564429168"><ele>255.0</ele><time>2026-04-10T12:54:00Z</time></trkpt><trkpt lat="43.2341414969235" lon="11.789491156485768"><ele>255.0</ele><time>2026-04-10T12:54:01Z</time></trkpt><trkpt lat="43.23429476915357" lon="11.789281303567638"><ele>255.0</ele><time>2026-04-10T12:54:02Z</time></trkpt><trkpt lat="43.234449013827835" lon="11.78907250334342"><ele>254.66666666666669</ele><time>2026-04-10T12:54:03Z</time></trkpt><trkpt lat="43.23460230529132" lon="11.788859359908392"><ele>254.33333333333334</ele><time>2026-04-10T12:54:04Z</time></trkpt><trkpt lat="43.234753078104454" lon="11.788648249724046"><ele>254.0</ele><time>2026-04-10T12:54:05Z</time></trkpt><trkpt lat="43.234899300881736" lon="11.788435699216176"><ele>254.0</ele><time>2026-04-10T12:54:06Z</time></trkpt><trkpt lat="43.235042269743545" lon="11.788222139232907"><ele>254.0</ele><time>2026-04-10T12:54:07Z</time></trkpt><trkpt lat="43.235185013284216" lon="11.788008067484238"><ele>254.0</ele><time>2026-04-10T12:54:08Z</time></trkpt><trkpt lat="43.23532397246958" lon="11.78779313100068"><ele>256.0</ele><time>2026-04-10T12:54:09Z</time></trkpt><trkpt lat="43.235462829048096" lon="11.787580880454394"><ele>258.0</ele><time>2026-04-10T12:54:10Z</time></trkpt><trkpt lat="43.24538198327" lon="11.77572703892775"><ele>257.0</ele><time>2026-04-10T12:55:11Z</time></trkpt><trkpt lat="43.245557508372585" lon="11.775528204138276"><ele>256.0</ele><time>2026-04-10T12:55:12Z</time></trkpt><trkpt lat="43.24573372152019" lon="11.775333751937776"><ele>257.0</ele><time>2026-04-10T12:55:13Z</time></trkpt><trkpt lat="43.24590727692455" lon="11.775142766620526"><ele>258.0</ele><time>2026-04-10T12:55:14Z</time></trkpt><trkpt lat="43.246080218015386" lon="11.774953580425352"><ele>259.0</ele><time>2026-04-10T12:55:15Z</time></trkpt><trkpt lat="43.246249945365804" lon="11.774765677624538"><ele>259.0</ele><time>2026-04-10T12:55:16Z</time></trkpt><trkpt lat="43.246418225753374" lon="11.774576152279447"><ele>259.0</ele><time>2026-04-10T12:55:17Z</time></trkpt><trkpt lat="43.246587634106426" lon="11.774386885401512"><ele>259.0</ele><time>2026-04-10T12:55:18Z</time></trkpt><trkpt lat="43.246756919146286" lon="11.774197490077643"><ele>259.3333333333333</ele><time>2026-04-10T12:55:19Z</time></trkpt><trkpt lat="43.2469267496532" lon="11.774011672465194"><ele>259.6666666666667</ele><time>2026-04-10T12:55:20Z</time></trkpt><trkpt lat="43.24709619075285" lon="11.773828920208816"><ele>260.0</ele><time>2026-04-10T12:55:21Z</time></trkpt><trkpt lat="43.247265304516866" lon="11.7736456519142"><ele>259.6666666666667</ele><time>2026-04-10T12:55:22Z</time></trkpt><trkpt lat="43.24743926797088" lon="11.773464733851187"><ele>259.3333333333333</ele><time>2026-04-10T12:55:23Z</time></trkpt><trkpt lat="43.247619777122026" lon="11.773291811057462"><ele>259.0</ele><time>2026-04-10T12:55:24Z</time></trkpt><trkpt lat="43.24780261121015" lon="11.77312216236504"><ele>259.0</ele><time>2026-04-10T12:55:25Z</time></trkpt><trkpt lat="43.24798961969467" lon="11.772955064914388"><ele>259.0</ele><time>2026-04-10T12:55:26Z</time></trkpt><trkpt lat="43.24818140221377" lon="11.772795617941787"><ele>259.0</ele><time>2026-04-10T12:55:27Z</time></trkpt><trkpt lat="43.2483768918267" lon="11.772642055223395"><ele>257.5</ele><time>2026-04-10T12:55:28Z</time></trkpt><trkpt lat="43.24857709327129" lon="11.772492325550607"><ele>256.0</ele><time>2026-04-10T12:55:29Z</time></trkpt><trkpt lat="43.24878306489458" lon="11.772353844762753"><ele>254.5</ele><time>2026-04-10T12:55:30Z</time></trkpt><trkpt lat="43.24898886834139" lon="11.772223734356862"><ele>253.0</ele><time>2026-04-10T12:55:31Z</time></trkpt><trkpt lat="43.24919700353921" lon="11.772098566888893"><ele>253.0</ele><time>2026-04-10T12:55:32Z</time></trkpt><trkpt lat="43.249406395305485" lon="11.771986621309095"><ele>253.0</ele><time>2026-04-10T12:55:33Z</time></trkpt><trkpt lat="43.24961548077337" lon="11.771883346214656"><ele>253.0</ele><time>2026-04-10T12:55:34Z</time></trkpt><trkpt lat="43.24982432939117" lon="11.771783186972055"><ele>255.0</ele><time>2026-04-10T12:55:35Z</time></trkpt><trkpt lat="43.25002891465743" lon="11.77168877977804"><ele>257.0</ele><time>2026-04-10T12:55:36Z</time></trkpt><trkpt lat="43.25023631936422" lon="11.77159705710031"><ele>259.0</ele><time>2026-04-10T12:55:37Z</time></trkpt><trkpt lat="43.25044263573744" lon="11.771513640184345"><ele>258.3333333333333</ele><time>2026-04-10T12:55:38Z</time></trkpt><trkpt lat="43.250647959338984" lon="11.771436168856658"><ele>257.6666666666667</ele><time>2026-04-10T12:55:39Z</time></trkpt><trkpt lat="43.25085366645803" lon="11.771358519420072"><ele>257.0</ele><time>2026-04-10T12:55:40Z</time></trkpt><trkpt lat="43.251063106356796" lon="11.771284157564155"><ele>257.0</ele><time>2026-04-10T12:55:41Z</time></trkpt><trkpt lat="43.25127224861412" lon="11.771208224984646"><ele>257.0</ele><time>2026-04-10T12:55:42Z</time></trkpt><trkpt lat="43.25148029412199" lon="11.771125450839182"><ele>257.0</ele><time>2026-04-10T12:55:43Z</time></trkpt><trkpt lat="43.25168886433159" lon="11.771039279393957"><ele>257.0</ele><time>2026-04-10T12:55:44Z</time></trkpt><trkpt lat="43.25190126281742" lon="11.770957788842654"><ele>257.0</ele><time>2026-04-10T12:55:45Z</time></trkpt><trkpt lat="43.252112402972415" lon="11.770874476066691"><ele>257.0</ele><time>2026-04-10T12:55:46Z</time></trkpt><trkpt lat="43.25232505658376" lon="11.770790932111446"><ele>257.0</ele><time>2026-04-10T12:55:47Z</time></trkpt><trkpt lat="43.25253619044007" lon="11.770706776825207"><ele>257.0</ele><time>2026-04-10T12:55:48Z</time></trkpt><trkpt lat="43.252748004416915" lon="11.770625704116739"><ele>257.0</ele><time>2026-04-10T12:55:49Z</time></trkpt><trkpt lat="43.252961661517965" lon="11.770545527846275"><ele>255.66666666666669</ele><time>2026-04-10T12:55:50Z</time></trkpt><trkpt lat="43.25317638345274" lon="11.770465921975305"><ele>254.33333333333331</ele><time>2026-04-10T12:55:51Z</time></trkpt><trkpt lat="43.25339463654818" lon="11.770384431448647"><ele>253.0</ele><time>2026-04-10T12:55:52Z</time></trkpt><trkpt lat="43.253609798423824" lon="11.770302954459348"><ele>253.0</ele><time>2026-04-10T12:55:53Z</time></trkpt><trkpt lat="43.25382737172521" lon="11.770222063714671"><ele>253.0</ele><time>2026-04-10T12:55:54Z</time></trkpt><trkpt lat="43.25403959015427" lon="11.770140368343974"><ele>253.0</ele><time>2026-04-10T12:55:55Z</time></trkpt><trkpt lat="43.25425038539623" lon="11.770061364441988"><ele>252.66666666666666</ele><time>2026-04-10T12:55:56Z</time></trkpt><trkpt lat="43.25445624550889" lon="11.769982638701261"><ele>252.33333333333331</ele><time>2026-04-10T12:55:57Z</time></trkpt><trkpt lat="43.25466119343674" lon="11.76990562618915"><ele>252.0</ele><time>2026-04-10T12:55:58.001Z</time></trkpt><trkpt lat="43.254863465115974" lon="11.769831698684571"><ele>252.0</ele><time>2026-04-10T12:55:59.001Z</time></trkpt><trkpt lat="43.25506508129792" lon="11.769754936843713"><ele>252.0</ele><time>2026-04-10T12:56:00.001Z</time></trkpt><trkpt lat="43.255266941147305" lon="11.769674142229501"><ele>252.0</ele><time>2026-04-10T12:56:01.001Z</time></trkpt><trkpt lat="43.25547203848215" lon="11.769597600898075"><ele>252.0</ele><time>2026-04-10T12:56:02.001Z</time></trkpt><trkpt lat="43.25567772681907" lon="11.769523597041513"><ele>252.0</ele><time>2026-04-10T12:56:03.001Z</time></trkpt><trkpt lat="43.25588508855693" lon="11.769444386038792"><ele>252.0</ele><time>2026-04-10T12:56:04.001Z</time></trkpt><trkpt lat="43.2560951663034" lon="11.769360049307824"><ele>251.66666666666669</ele><time>2026-04-10T12:56:05.001Z</time></trkpt><trkpt lat="43.256305620774015" lon="11.769274673734827"><ele>251.33333333333334</ele><time>2026-04-10T12:56:06.001Z</time></trkpt><trkpt lat="43.256520690806454" lon="11.76919098416484"><ele>251.0</ele><time>2026-04-10T12:56:07.001Z</time></trkpt><trkpt lat="43.25673415510772" lon="11.76910233361615"><ele>251.0</ele><time>2026-04-10T12:56:08.001Z</time></trkpt><trkpt lat="43.25695109637433" lon="11.769021401529768"><ele>251.0</ele><time>2026-04-10T12:56:09.001Z</time></trkpt><trkpt lat="43.25717042422325" lon="11.768942209847841"><ele>256.0</ele><time>2026-04-10T12:56:10.001Z</time></trkpt><trkpt lat="43.271189595269135" lon="11.768953568928307"><ele>256.0</ele><time>2026-04-10T12:57:11.001Z</time></trkpt><trkpt lat="43.271431848428286" lon="11.768886594337088"><ele>256.0</ele><time>2026-04-10T12:57:12.001Z</time></trkpt><trkpt lat="43.27167554625018" lon="11.768819707802857"><ele>256.0</ele><time>2026-04-10T12:57:13.001Z</time></trkpt><trkpt lat="43.27191881603618" lon="11.76875356372065"><ele>256.0</ele><time>2026-04-10T12:57:14.001Z</time></trkpt><trkpt lat="43.272160903341565" lon="11.768686625571087"><ele>256.0</ele><time>2026-04-10T12:57:15Z</time></trkpt><trkpt lat="43.27240419452228" lon="11.768614226769266"><ele>256.0</ele><time>2026-04-10T12:57:16Z</time></trkpt><trkpt lat="43.27264761486926" lon="11.768545145346959"><ele>257.0</ele><time>2026-04-10T12:57:17Z</time></trkpt><trkpt lat="43.27289034584598" lon="11.76847720411751"><ele>258.0</ele><time>2026-04-10T12:57:18Z</time></trkpt><trkpt lat="43.27313048427525" lon="11.768416251822126"><ele>258.0</ele><time>2026-04-10T12:57:19Z</time></trkpt><trkpt lat="43.273375743930785" lon="11.768350615454542"><ele>258.0</ele><time>2026-04-10T12:57:20Z</time></trkpt><trkpt lat="43.27362075061891" lon="11.768284942208638"><ele>258.0</ele><time>2026-04-10T12:57:21Z</time></trkpt><trkpt lat="43.27386527234433" lon="11.768218081969104"><ele>258.0</ele><time>2026-04-10T12:57:22Z</time></trkpt><trkpt lat="43.27410820534728" lon="11.768151223188955"><ele>259.0</ele><time>2026-04-10T12:57:23Z</time></trkpt><trkpt lat="43.27435304218947" lon="11.768083230351845"><ele>260.0</ele><time>2026-04-10T12:57:24Z</time></trkpt><trkpt lat="43.27459997881183" lon="11.768016477597676"><ele>259.0</ele><time>2026-04-10T12:57:25Z</time></trkpt><trkpt lat="43.27484719982342" lon="11.767952716270765"><ele>258.0</ele><time>2026-04-10T12:57:26Z</time></trkpt><trkpt lat="43.27509202242528" lon="11.767888158247132"><ele>258.0</ele><time>2026-04-10T12:57:27Z</time></trkpt><trkpt lat="43.27533999361282" lon="11.767823774193856"><ele>258.0</ele><time>2026-04-10T12:57:28Z</time></trkpt><trkpt lat="43.275586782896674" lon="11.76775791534722"><ele>257.5</ele><time>2026-04-10T12:57:29Z</time></trkpt><trkpt lat="43.275834584558844" lon="11.767693542349054"><ele>257.0</ele><time>2026-04-10T12:57:30Z</time></trkpt><trkpt lat="43.276086362323234" lon="11.767623210596646"><ele>257.0</ele><time>2026-04-10T12:57:31Z</time></trkpt><trkpt lat="43.27633592746185" lon="11.767555014988936"><ele>257.0</ele><time>2026-04-10T12:57:32Z</time></trkpt><trkpt lat="43.27658374611912" lon="11.76748750990979"><ele>257.0</ele><time>2026-04-10T12:57:33Z</time></trkpt><trkpt lat="43.27683084788033" lon="11.76741589514912"><ele>257.0</ele><time>2026-04-10T12:57:34Z</time></trkpt><trkpt lat="43.27707761029448" lon="11.76734469425824"><ele>256.0</ele><time>2026-04-10T12:57:35Z</time></trkpt><trkpt lat="43.27732296984927" lon="11.767271723934815"><ele>255.0</ele><time>2026-04-10T12:57:36Z</time></trkpt><trkpt lat="43.27756987735441" lon="11.767199135905512"><ele>255.0</ele><time>2026-04-10T12:57:37Z</time></trkpt><trkpt lat="43.27781898533177" lon="11.767128730717248"><ele>255.0</ele><time>2026-04-10T12:57:38Z</time></trkpt><trkpt lat="43.27806874719759" lon="11.767063259944962"><ele>255.5</ele><time>2026-04-10T12:57:39Z</time></trkpt><trkpt lat="43.27831466430848" lon="11.76700062572187"><ele>256.0</ele><time>2026-04-10T12:57:40Z</time></trkpt><trkpt lat="43.27856109285133" lon="11.76693945603288"><ele>256.0</ele><time>2026-04-10T12:57:41Z</time></trkpt><trkpt lat="43.2788061503643" lon="11.766872749120186"><ele>256.0</ele><time>2026-04-10T12:57:42Z</time></trkpt><trkpt lat="43.27904679108597" lon="11.76680681635966"><ele>256.5</ele><time>2026-04-10T12:57:43Z</time></trkpt><trkpt lat="43.27928711244065" lon="11.7667430943421"><ele>257.0</ele><time>2026-04-10T12:57:44Z</time></trkpt><trkpt lat="43.279527838807965" lon="11.76667603092437"><ele>257.0</ele><time>2026-04-10T12:57:45Z</time></trkpt><trkpt lat="43.279766817974405" lon="11.76660635154872"><ele>257.0</ele><time>2026-04-10T12:57:46Z</time></trkpt><trkpt lat="43.280010353328336" lon="11.766537434297732"><ele>257.0</ele><time>2026-04-10T12:57:47Z</time></trkpt><trkpt lat="43.28025202690866" lon="11.766474853738723"><ele>257.0</ele><time>2026-04-10T12:57:48Z</time></trkpt><trkpt lat="43.280493042280526" lon="11.76641121390664"><ele>257.0</ele><time>2026-04-10T12:57:49Z</time></trkpt><trkpt lat="43.28073521317644" lon="11.766344677098228"><ele>257.0</ele><time>2026-04-10T12:57:50Z</time></trkpt><trkpt lat="43.28097593448837" lon="11.766277445610607"><ele>257.0</ele><time>2026-04-10T12:57:51Z</time></trkpt><trkpt lat="43.281220410845535" lon="11.766212449975859"><ele>257.0</ele><time>2026-04-10T12:57:52Z</time></trkpt><trkpt lat="43.28146566124237" lon="11.766148463760596"><ele>257.5</ele><time>2026-04-10T12:57:53Z</time></trkpt><trkpt lat="43.281709043543756" lon="11.766085404622403"><ele>258.0</ele><time>2026-04-10T12:57:54.001Z</time></trkpt><trkpt lat="43.28194908046826" lon="11.766018471646992"><ele>258.5</ele><time>2026-04-10T12:57:55.001Z</time></trkpt><trkpt lat="43.282192637044645" lon="11.765952664556997"><ele>259.0</ele><time>2026-04-10T12:57:56.001Z</time></trkpt><trkpt lat="43.28243661059998" lon="11.765887337124617"><ele>259.0</ele><time>2026-04-10T12:57:57.001Z</time></trkpt><trkpt lat="43.28267263086893" lon="11.765823306907262"><ele>259.0</ele><time>2026-04-10T12:57:58.001Z</time></trkpt><trkpt lat="43.28290875332407" lon="11.765756122960688"><ele>258.5</ele><time>2026-04-10T12:57:59.001Z</time></trkpt><trkpt lat="43.2831423099227" lon="11.765688773046213"><ele>258.0</ele><time>2026-04-10T12:58:00.001Z</time></trkpt><trkpt lat="43.28337239533291" lon="11.765627876542402"><ele>258.0</ele><time>2026-04-10T12:58:01.001Z</time></trkpt><trkpt lat="43.283595717293714" lon="11.76556280681129"><ele>258.0</ele><time>2026-04-10T12:58:02.001Z</time></trkpt><trkpt lat="43.28382015238022" lon="11.765499697823762"><ele>257.5</ele><time>2026-04-10T12:58:03.001Z</time></trkpt><trkpt lat="43.28404420464564" lon="11.765436651658876"><ele>257.0</ele><time>2026-04-10T12:58:04.001Z</time></trkpt><trkpt lat="43.28426575495488" lon="11.765376445186494"><ele>257.0</ele><time>2026-04-10T12:58:05.001Z</time></trkpt><trkpt lat="43.28447847263233" lon="11.765318970885867"><ele>257.0</ele><time>2026-04-10T12:58:06.001Z</time></trkpt><trkpt lat="43.28468354192251" lon="11.765266956939945"><ele>257.0</ele><time>2026-04-10T12:58:07.001Z</time></trkpt><trkpt lat="43.28488145053635" lon="11.765216721677598"><ele>256.6666666666667</ele><time>2026-04-10T12:58:08.001Z</time></trkpt><trkpt lat="43.28508059700703" lon="11.765160760559226"><ele>256.3333333333333</ele><time>2026-04-10T12:58:09.001Z</time></trkpt><trkpt lat="43.285287312877635" lon="11.765106778869225"><ele>256.0</ele><time>2026-04-10T12:58:10.001Z</time></trkpt><trkpt lat="43.29858236049583" lon="11.763077532337238"><ele>257.0</ele><time>2026-04-10T12:59:11.001Z</time></trkpt><trkpt lat="43.298800112446635" lon="11.763058153987927"><ele>258.0</ele><time>2026-04-10T12:59:12.001Z</time></trkpt><trkpt lat="43.2990173232132" lon="11.76304138281802"><ele>259.0</ele><time>2026-04-10T12:59:13.001Z</time></trkpt><trkpt lat="43.29923524988468" lon="11.763024863708944"><ele>259.0</ele><time>2026-04-10T12:59:14.001Z</time></trkpt><trkpt lat="43.29945313439649" lon="11.762996483853152"><ele>259.0</ele><time>2026-04-10T12:59:15.001Z</time></trkpt><trkpt lat="43.29967218046453" lon="11.76296879738763"><ele>259.0</ele><time>2026-04-10T12:59:16.002Z</time></trkpt><trkpt lat="43.299892797385745" lon="11.762944047803495"><ele>259.0</ele><time>2026-04-10T12:59:17.002Z</time></trkpt><trkpt lat="43.300111313374366" lon="11.762918276787207"><ele>259.0</ele><time>2026-04-10T12:59:18.002Z</time></trkpt><trkpt lat="43.30032366332711" lon="11.762897308956182"><ele>259.0</ele><time>2026-04-10T12:59:19.002Z</time></trkpt><trkpt lat="43.300538324821495" lon="11.762882533004515"><ele>258.3333333333333</ele><time>2026-04-10T12:59:20Z</time></trkpt><trkpt lat="43.30074549035805" lon="11.762867168539243"><ele>257.6666666666667</ele><time>2026-04-10T12:59:21Z</time></trkpt><trkpt lat="43.30095446349574" lon="11.7628464192125"><ele>257.0</ele><time>2026-04-10T12:59:22Z</time></trkpt><trkpt lat="43.301160535683664" lon="11.76281979701296"><ele>257.0</ele><time>2026-04-10T12:59:23Z</time></trkpt><trkpt lat="43.301366513452045" lon="11.762795471795357"><ele>257.0</ele><time>2026-04-10T12:59:24Z</time></trkpt><trkpt lat="43.30157277279142" lon="11.762776120159788"><ele>257.0</ele><time>2026-04-10T12:59:25Z</time></trkpt><trkpt lat="43.30178020794243" lon="11.762756360295526"><ele>257.0</ele><time>2026-04-10T12:59:26Z</time></trkpt><trkpt lat="43.30198948730426" lon="11.762740095363444"><ele>257.0</ele><time>2026-04-10T12:59:27Z</time></trkpt><trkpt lat="43.30220129802502" lon="11.762718610068163"><ele>257.0</ele><time>2026-04-10T12:59:28Z</time></trkpt><trkpt lat="43.30241272893261" lon="11.76269730084757"><ele>257.0</ele><time>2026-04-10T12:59:29Z</time></trkpt><trkpt lat="43.302623857072724" lon="11.762682184092075"><ele>257.0</ele><time>2026-04-10T12:59:30Z</time></trkpt><trkpt lat="43.30283563513392" lon="11.762661290371272"><ele>257.0</ele><time>2026-04-10T12:59:31Z</time></trkpt><trkpt lat="43.30304818765283" lon="11.762642994167443"><ele>257.6666666666667</ele><time>2026-04-10T12:59:32Z</time></trkpt><trkpt lat="43.30325639823628" lon="11.76262612528685"><ele>258.3333333333333</ele><time>2026-04-10T12:59:33Z</time></trkpt><trkpt lat="43.303459898935934" lon="11.762604054845752"><ele>259.0</ele><time>2026-04-10T12:59:34Z</time></trkpt><trkpt lat="43.30366710799744" lon="11.762584539653982"><ele>259.0</ele><time>2026-04-10T12:59:35Z</time></trkpt><trkpt lat="43.3038705767055" lon="11.762562060000311"><ele>259.0</ele><time>2026-04-10T12:59:36Z</time></trkpt><trkpt lat="43.30407483377714" lon="11.76254363309297"><ele>259.0</ele><time>2026-04-10T12:59:37Z</time></trkpt><trkpt lat="43.304279013048784" lon="11.762523588452842"><ele>258.66666666666663</ele><time>2026-04-10T12:59:38Z</time></trkpt><trkpt lat="43.30448373362288" lon="11.762502013964735"><ele>258.3333333333333</ele><time>2026-04-10T12:59:39Z</time></trkpt><trkpt lat="43.304686141373956" lon="11.76248337304813"><ele>258.0</ele><time>2026-04-10T12:59:40Z</time></trkpt><trkpt lat="43.304887160550585" lon="11.76246821225615"><ele>258.0</ele><time>2026-04-10T12:59:41Z</time></trkpt><trkpt lat="43.30508858323997" lon="11.76244796087342"><ele>258.0</ele><time>2026-04-10T12:59:42Z</time></trkpt><trkpt lat="43.305288589293234" lon="11.762424176014875"><ele>258.0</ele><time>2026-04-10T12:59:43Z</time></trkpt><trkpt lat="43.30549425337501" lon="11.762403846974415"><ele>258.0</ele><time>2026-04-10T12:59:44Z</time></trkpt><trkpt lat="43.30569886617853" lon="11.762379309087267"><ele>258.0</ele><time>2026-04-10T12:59:45Z</time></trkpt><trkpt lat="43.305906054952516" lon="11.762358898286008"><ele>258.0</ele><time>2026-04-10T12:59:46Z</time></trkpt><trkpt lat="43.306115539267175" lon="11.762337780543394"><ele>258.0</ele><time>2026-04-10T12:59:47Z</time></trkpt><trkpt lat="43.30632527053348" lon="11.762323567018404"><ele>258.0</ele><time>2026-04-10T12:59:48Z</time></trkpt><trkpt lat="43.306535341128594" lon="11.762301713189231"><ele>258.0</ele><time>2026-04-10T12:59:49Z</time></trkpt><trkpt lat="43.30674723706979" lon="11.76227917105229"><ele>258.0</ele><time>2026-04-10T12:59:50Z</time></trkpt><trkpt lat="43.306961029019064" lon="11.762256381494565"><ele>258.0</ele><time>2026-04-10T12:59:51Z</time></trkpt><trkpt lat="43.307177123841804" lon="11.762235456596894"><ele>258.0</ele><time>2026-04-10T12:59:52Z</time></trkpt><trkpt lat="43.307394358991885" lon="11.762214312465122"><ele>258.0</ele><time>2026-04-10T12:59:53Z</time></trkpt><trkpt lat="43.307614017583425" lon="11.762196646218523"><ele>258.0</ele><time>2026-04-10T12:59:54.001Z</time></trkpt><trkpt lat="43.307836026964246" lon="11.762173572039025"><ele>258.0</ele><time>2026-04-10T12:59:55.001Z</time></trkpt><trkpt lat="43.30805619288207" lon="11.762149420988921"><ele>257.5</ele><time>2026-04-10T12:59:56.001Z</time></trkpt><trkpt lat="43.30827991213811" lon="11.762127497827993"><ele>257.0</ele><time>2026-04-10T12:59:57.001Z</time></trkpt><trkpt lat="43.30850560867406" lon="11.762105339590208"><ele>257.0</ele><time>2026-04-10T12:59:58.001Z</time></trkpt><trkpt lat="43.308732481806885" lon="11.762080525209319"><ele>257.0</ele><time>2026-04-10T12:59:59.001Z</time></trkpt><trkpt lat="43.308956881425104" lon="11.762054690875205"><ele>258.0</ele><time>2026-04-10T13:00:00.001Z</time></trkpt><trkpt lat="43.30918105978556" lon="11.76202822693617"><ele>259.0</ele><time>2026-04-10T13:00:01.001Z</time></trkpt><trkpt lat="43.309405947464185" lon="11.762003555585858"><ele>259.0</ele><time>2026-04-10T13:00:02.001Z</time></trkpt><trkpt lat="43.309630964651916" lon="11.761978353531575"><ele>259.0</ele><time>2026-04-10T13:00:03.001Z</time></trkpt><trkpt lat="43.309857229081594" lon="11.761954076574156"><ele>258.0</ele><time>2026-04-10T13:00:04.001Z</time></trkpt><trkpt lat="43.31008410277004" lon="11.761930440019377"><ele>257.0</ele><time>2026-04-10T13:00:05.001Z</time></trkpt><trkpt lat="43.31031021728948" lon="11.761912187438469"><ele>257.0</ele><time>2026-04-10T13:00:06.001Z</time></trkpt><trkpt lat="43.310537587716226" lon="11.761889471753854"><ele>257.0</ele><time>2026-04-10T13:00:07.001Z</time></trkpt><trkpt lat="43.31076524715565" lon="11.761866574937653"><ele>257.5</ele><time>2026-04-10T13:00:08.001Z</time></trkpt><trkpt lat="43.31099128920617" lon="11.761848053405723"><ele>258.0</ele><time>2026-04-10T13:00:09.001Z</time></trkpt><trkpt lat="43.311217100609746" lon="11.76183502369872"><ele>259.0</ele><time>2026-04-10T13:00:10.001Z</time></trkpt><trkpt lat="43.32539460616562" lon="11.762042912547628"><ele>260.5</ele><time>2026-04-10T13:01:11.001Z</time></trkpt><trkpt lat="43.325636682049776" lon="11.762063392513072"><ele>262.0</ele><time>2026-04-10T13:01:12.001Z</time></trkpt><trkpt lat="43.32587739167481" lon="11.762084536729754"><ele>262.0</ele><time>2026-04-10T13:01:13.001Z</time></trkpt><trkpt lat="43.326118387393755" lon="11.76210762730147"><ele>262.0</ele><time>2026-04-10T13:01:14.001Z</time></trkpt><trkpt lat="43.326359783785605" lon="11.762127320954225"><ele>263.0</ele><time>2026-04-10T13:01:15.001Z</time></trkpt><trkpt lat="43.32660090087493" lon="11.7621501771789"><ele>264.0</ele><time>2026-04-10T13:01:16.001Z</time></trkpt><trkpt lat="43.32684202656481" lon="11.762172501942622"><ele>264.0</ele><time>2026-04-10T13:01:17.001Z</time></trkpt><trkpt lat="43.327083646455286" lon="11.762197357755442"><ele>264.0</ele><time>2026-04-10T13:01:18.001Z</time></trkpt><trkpt lat="43.32732535637654" lon="11.762224134755723"><ele>263.0</ele><time>2026-04-10T13:01:19.002Z</time></trkpt><trkpt lat="43.32756595958765" lon="11.762250828001493"><ele>262.0</ele><time>2026-04-10T13:01:20.002Z</time></trkpt><trkpt lat="43.32780828271111" lon="11.762273766410754"><ele>262.0</ele><time>2026-04-10T13:01:21.002Z</time></trkpt><trkpt lat="43.32804917611396" lon="11.762294054591859"><ele>262.0</ele><time>2026-04-10T13:01:22.002Z</time></trkpt><trkpt lat="43.32829051920982" lon="11.762313325648774"><ele>261.0</ele><time>2026-04-10T13:01:23.002Z</time></trkpt><trkpt lat="43.32853179013045" lon="11.762335137227627"><ele>260.0</ele><time>2026-04-10T13:01:24.002Z</time></trkpt><trkpt lat="43.328774287109724" lon="11.76235598829221"><ele>260.0</ele><time>2026-04-10T13:01:25.002Z</time></trkpt><trkpt lat="43.32901330414879" lon="11.762378051110867"><ele>260.0</ele><time>2026-04-10T13:01:26Z</time></trkpt><trkpt lat="43.32925211607314" lon="11.7623987895383"><ele>260.0</ele><time>2026-04-10T13:01:27Z</time></trkpt><trkpt lat="43.32948517740837" lon="11.762425304801573"><ele>260.0</ele><time>2026-04-10T13:01:28Z</time></trkpt><trkpt lat="43.329724035665826" lon="11.762443598835903"><ele>262.5</ele><time>2026-04-10T13:01:29Z</time></trkpt><trkpt lat="43.32995608788053" lon="11.76246322441299"><ele>265.0</ele><time>2026-04-10T13:01:30Z</time></trkpt><trkpt lat="43.33018986473343" lon="11.762481391532633"><ele>265.0</ele><time>2026-04-10T13:01:31Z</time></trkpt><trkpt lat="43.33042169303892" lon="11.762499007324955"><ele>265.0</ele><time>2026-04-10T13:01:32Z</time></trkpt><trkpt lat="43.33064870370845" lon="11.762525157324056"><ele>267.0</ele><time>2026-04-10T13:01:33Z</time></trkpt><trkpt lat="43.3308789699435" lon="11.762549822636075"><ele>269.0</ele><time>2026-04-10T13:01:34Z</time></trkpt><trkpt lat="43.33110758444852" lon="11.762569002148947"><ele>269.0</ele><time>2026-04-10T13:01:35Z</time></trkpt><trkpt lat="43.33133606095362" lon="11.762589225345964"><ele>269.0</ele><time>2026-04-10T13:01:36Z</time></trkpt><trkpt lat="43.331564459973336" lon="11.762608845160917"><ele>270.5</ele><time>2026-04-10T13:01:37Z</time></trkpt><trkpt lat="43.331792911374095" lon="11.76262889218726"><ele>272.0</ele><time>2026-04-10T13:01:38Z</time></trkpt><trkpt lat="43.33202365942978" lon="11.762652391643593"><ele>275.5</ele><time>2026-04-10T13:01:39Z</time></trkpt><trkpt lat="43.33225335373439" lon="11.762672280745251"><ele>279.0</ele><time>2026-04-10T13:01:40Z</time></trkpt><trkpt lat="43.332483760405424" lon="11.76269451429495"><ele>279.0</ele><time>2026-04-10T13:01:41Z</time></trkpt><trkpt lat="43.33271480476609" lon="11.762716037499752"><ele>279.0</ele><time>2026-04-10T13:01:42Z</time></trkpt><trkpt lat="43.332947321278446" lon="11.762737642421223"><ele>278.5</ele><time>2026-04-10T13:01:43Z</time></trkpt><trkpt lat="43.33318110730265" lon="11.762757991057015"><ele>278.0</ele><time>2026-04-10T13:01:44Z</time></trkpt><trkpt lat="43.3334140674753" lon="11.762781833848258"><ele>278.0</ele><time>2026-04-10T13:01:45Z</time></trkpt><trkpt lat="43.33364616924625" lon="11.762807329781149"><ele>278.0</ele><time>2026-04-10T13:01:46Z</time></trkpt><trkpt lat="43.3338811095367" lon="11.762828415248528"><ele>277.5</ele><time>2026-04-10T13:01:47Z</time></trkpt><trkpt lat="43.334117821757474" lon="11.762849292165086"><ele>277.0</ele><time>2026-04-10T13:01:48Z</time></trkpt><trkpt lat="43.334352921556984" lon="11.762868769621813"><ele>277.0</ele><time>2026-04-10T13:01:49Z</time></trkpt><trkpt lat="43.33458935275288" lon="11.762888270218165"><ele>277.0</ele><time>2026-04-10T13:01:50Z</time></trkpt><trkpt lat="43.33482226669814" lon="11.762911096272138"><ele>275.0</ele><time>2026-04-10T13:01:51Z</time></trkpt><trkpt lat="43.33505369582078" lon="11.762939772887549"><ele>273.0</ele><time>2026-04-10T13:01:52Z</time></trkpt><trkpt lat="43.335291726202804" lon="11.762964596167691"><ele>273.0</ele><time>2026-04-10T13:01:53Z</time></trkpt><trkpt lat="43.33552892928885" lon="11.76298914056207"><ele>273.0</ele><time>2026-04-10T13:01:54Z</time></trkpt><trkpt lat="43.33577031185098" lon="11.763008844352388"><ele>271.5</ele><time>2026-04-10T13:01:55Z</time></trkpt><trkpt lat="43.33601364525931" lon="11.763032541316056"><ele>270.0</ele><time>2026-04-10T13:01:56Z</time></trkpt><trkpt lat="43.33626036799707" lon="11.763047486748519"><ele>269.5</ele><time>2026-04-10T13:01:57Z</time></trkpt><trkpt lat="43.336507745952" lon="11.763068019087187"><ele>269.0</ele><time>2026-04-10T13:01:58Z</time></trkpt><trkpt lat="43.33675016130701" lon="11.763089157228466"><ele>269.0</ele><time>2026-04-10T13:01:59Z</time></trkpt><trkpt lat="43.336993041623884" lon="11.763109681146226"><ele>269.0</ele><time>2026-04-10T13:02:00Z</time></trkpt><trkpt lat="43.337237215873195" lon="11.763128078423593"><ele>268.5</ele><time>2026-04-10T13:02:01Z</time></trkpt><trkpt lat="43.33747887168544" lon="11.763150117179544"><ele>268.0</ele><time>2026-04-10T13:02:02Z</time></trkpt><trkpt lat="43.33771771330823" lon="11.763173797360645"><ele>268.0</ele><time>2026-04-10T13:02:03Z</time></trkpt><trkpt lat="43.33795694665788" lon="11.763196386989655"><ele>268.0</ele><time>2026-04-10T13:02:04Z</time></trkpt><trkpt lat="43.33819677693452" lon="11.763221603805299"><ele>266.5</ele><time>2026-04-10T13:02:05Z</time></trkpt><trkpt lat="43.3384383595249" lon="11.763244549587712"><ele>265.0</ele><time>2026-04-10T13:02:06Z</time></trkpt><trkpt lat="43.338678610828985" lon="11.763268064289006"><ele>264.5</ele><time>2026-04-10T13:02:07Z</time></trkpt><trkpt lat="43.33891928548654" lon="11.763290825348033"><ele>264.0</ele><time>2026-04-10T13:02:08.001Z</time></trkpt><trkpt lat="43.33916154123352" lon="11.763309835371594"><ele>264.0</ele><time>2026-04-10T13:02:09.001Z</time></trkpt><trkpt lat="43.33940164351166" lon="11.76333277488804"><ele>264.0</ele><time>2026-04-10T13:02:10.001Z</time></trkpt><trkpt lat="43.3542578682093" lon="11.76469066766192"><ele>262.5</ele><time>2026-04-10T13:03:11.001Z</time></trkpt><trkpt lat="43.354503602849505" lon="11.764714108985451"><ele>261.0</ele><time>2026-04-10T13:03:12.001Z</time></trkpt><trkpt lat="43.35474848633375" lon="11.764735345366896"><ele>260.5</ele><time>2026-04-10T13:03:13.001Z</time></trkpt><trkpt lat="43.35499579411561" lon="11.764744498286019"><ele>260.0</ele><time>2026-04-10T13:03:14.001Z</time></trkpt><trkpt lat="43.3552447276937" lon="11.764742802593027"><ele>260.0</ele><time>2026-04-10T13:03:15.001Z</time></trkpt><trkpt lat="43.35549485282621" lon="11.764732069824175"><ele>260.0</ele><time>2026-04-10T13:03:16.001Z</time></trkpt><trkpt lat="43.35574592457546" lon="11.764712508857075"><ele>260.0</ele><time>2026-04-10T13:03:17.001Z</time></trkpt><trkpt lat="43.35599617937125" lon="11.764690123419392"><ele>260.0</ele><time>2026-04-10T13:03:18.001Z</time></trkpt><trkpt lat="43.356246790187" lon="11.7646655955451"><ele>261.0</ele><time>2026-04-10T13:03:19.001Z</time></trkpt><trkpt lat="43.3564950308611" lon="11.764631876746963"><ele>262.0</ele><time>2026-04-10T13:03:20.001Z</time></trkpt><trkpt lat="43.35674225717177" lon="11.764587225075799"><ele>262.0</ele><time>2026-04-10T13:03:21.001Z</time></trkpt><trkpt lat="43.356988990348015" lon="11.764531609066887"><ele>262.0</ele><time>2026-04-10T13:03:22.001Z</time></trkpt><trkpt lat="43.35723379088478" lon="11.76446902311473"><ele>262.0</ele><time>2026-04-10T13:03:23.001Z</time></trkpt><trkpt lat="43.357477640410615" lon="11.76440208211693"><ele>262.0</ele><time>2026-04-10T13:03:24.001Z</time></trkpt><trkpt lat="43.35772064965081" lon="11.764330736343116"><ele>264.5</ele><time>2026-04-10T13:03:25.001Z</time></trkpt><trkpt lat="43.35796133515314" lon="11.76424898973794"><ele>267.0</ele><time>2026-04-10T13:03:26.001Z</time></trkpt><trkpt lat="43.35819793789649" lon="11.764155099276561"><ele>268.0</ele><time>2026-04-10T13:03:27.001Z</time></trkpt><trkpt lat="43.35843481961765" lon="11.764057264320376"><ele>269.0</ele><time>2026-04-10T13:03:28.001Z</time></trkpt><trkpt lat="43.35867038466497" lon="11.763953465909104"><ele>268.0</ele><time>2026-04-10T13:03:29.001Z</time></trkpt><trkpt lat="43.35890365899859" lon="11.763841645648704"><ele>267.0</ele><time>2026-04-10T13:03:30.001Z</time></trkpt><trkpt lat="43.35913539575702" lon="11.763723584994185"><ele>267.0</ele><time>2026-04-10T13:03:31.001Z</time></trkpt><trkpt lat="43.35936760625168" lon="11.763603956363006"><ele>267.0</ele><time>2026-04-10T13:03:32Z</time></trkpt><trkpt lat="43.359597943752405" lon="11.76348031538091"><ele>268.0</ele><time>2026-04-10T13:03:33Z</time></trkpt><trkpt lat="43.3598285690629" lon="11.763357090660696"><ele>269.0</ele><time>2026-04-10T13:03:34Z</time></trkpt><trkpt lat="43.36006099493209" lon="11.763231834223397"><ele>269.0</ele><time>2026-04-10T13:03:35Z</time></trkpt><trkpt lat="43.360294290612416" lon="11.763110628783997"><ele>269.0</ele><time>2026-04-10T13:03:36Z</time></trkpt><trkpt lat="43.360525912438064" lon="11.762990083900494"><ele>268.0</ele><time>2026-04-10T13:03:37Z</time></trkpt><trkpt lat="43.36075696018227" lon="11.762867186668188"><ele>267.0</ele><time>2026-04-10T13:03:38Z</time></trkpt><trkpt lat="43.36098718116445" lon="11.762744581757284"><ele>268.5</ele><time>2026-04-10T13:03:39Z</time></trkpt><trkpt lat="43.36121675947859" lon="11.762618403054192"><ele>270.0</ele><time>2026-04-10T13:03:40Z</time></trkpt><trkpt lat="43.36144850196376" lon="11.76250047136376"><ele>270.0</ele><time>2026-04-10T13:03:41Z</time></trkpt><trkpt lat="43.36167640129111" lon="11.762374732740128"><ele>270.0</ele><time>2026-04-10T13:03:42Z</time></trkpt><trkpt lat="43.36190636558988" lon="11.762258952462405"><ele>270.0</ele><time>2026-04-10T13:03:43Z</time></trkpt><trkpt lat="43.362137385199624" lon="11.762143941215452"><ele>270.0</ele><time>2026-04-10T13:03:44Z</time></trkpt><trkpt lat="43.362367682131406" lon="11.762027477902771"><ele>269.5</ele><time>2026-04-10T13:03:45Z</time></trkpt><trkpt lat="43.36259658879142" lon="11.761909846290715"><ele>269.0</ele><time>2026-04-10T13:03:46Z</time></trkpt><trkpt lat="43.362825033512514" lon="11.761793659681237"><ele>269.5</ele><time>2026-04-10T13:03:47Z</time></trkpt><trkpt lat="43.36305421135434" lon="11.761678915574924"><ele>270.0</ele><time>2026-04-10T13:03:48Z</time></trkpt><trkpt lat="43.36328309274406" lon="11.761561897395653"><ele>270.0</ele><time>2026-04-10T13:03:49Z</time></trkpt><trkpt lat="43.36351080021342" lon="11.761445118556393"><ele>270.0</ele><time>2026-04-10T13:03:50Z</time></trkpt><trkpt lat="43.363738364230656" lon="11.761325916255913"><ele>267.5</ele><time>2026-04-10T13:03:51Z</time></trkpt><trkpt lat="43.36396567895138" lon="11.761206583533092"><ele>265.0</ele><time>2026-04-10T13:03:52Z</time></trkpt><trkpt lat="43.364193416502076" lon="11.761085900786071"><ele>268.0</ele><time>2026-04-10T13:03:53Z</time></trkpt><trkpt lat="43.36442051182821" lon="11.760967492523717"><ele>271.0</ele><time>2026-04-10T13:03:54Z</time></trkpt><trkpt lat="43.36464710229621" lon="11.760852338560337"><ele>269.5</ele><time>2026-04-10T13:03:55Z</time></trkpt><trkpt lat="43.36487226507054" lon="11.760735344446628"><ele>268.0</ele><time>2026-04-10T13:03:56Z</time></trkpt><trkpt lat="43.36509627613278" lon="11.760618783927942"><ele>268.0</ele><time>2026-04-10T13:03:57Z</time></trkpt><trkpt lat="43.36531944936827" lon="11.760499791088893"><ele>268.0</ele><time>2026-04-10T13:03:58Z</time></trkpt><trkpt lat="43.3655432948727" lon="11.76038283997386"><ele>267.0</ele><time>2026-04-10T13:03:59Z</time></trkpt><trkpt lat="43.3657676188798" lon="11.760266505826081"><ele>266.0</ele><time>2026-04-10T13:04:00Z</time></trkpt><trkpt lat="43.365991702237025" lon="11.760147907360407"><ele>267.5</ele><time>2026-04-10T13:04:01Z</time></trkpt><trkpt lat="43.36621387212483" lon="11.76002676033546"><ele>269.0</ele><time>2026-04-10T13:04:02Z</time></trkpt><trkpt lat="43.366440397395785" lon="11.759911720914939"><ele>269.0</ele><time>2026-04-10T13:04:03Z</time></trkpt><trkpt lat="43.36666898105943" lon="11.759799527423905"><ele>269.0</ele><time>2026-04-10T13:04:04Z</time></trkpt><trkpt lat="43.3668978747287" lon="11.759681374915495"><ele>269.0</ele><time>2026-04-10T13:04:05Z</time></trkpt><trkpt lat="43.36712645785027" lon="11.759563041170779"><ele>269.0</ele><time>2026-04-10T13:04:06Z</time></trkpt><trkpt lat="43.36735553549566" lon="11.7594425398631"><ele>270.0</ele><time>2026-04-10T13:04:07Z</time></trkpt><trkpt lat="43.367586126432805" lon="11.759322582816864"><ele>271.0</ele><time>2026-04-10T13:04:08Z</time></trkpt><trkpt lat="43.367816770674345" lon="11.75920113677571"><ele>271.5</ele><time>2026-04-10T13:04:09Z</time></trkpt><trkpt lat="43.36804715765121" lon="11.759077319094784"><ele>272.0</ele><time>2026-04-10T13:04:10Z</time></trkpt><trkpt lat="43.382901796168156" lon="11.756750464994411"><ele>274.0</ele><time>2026-04-10T13:05:11.001Z</time></trkpt><trkpt lat="43.38311162835028" lon="11.756746736790816"><ele>276.0</ele><time>2026-04-10T13:05:12.001Z</time></trkpt><trkpt lat="43.3833194178483" lon="11.756744057127339"><ele>278.0</ele><time>2026-04-10T13:05:13.001Z</time></trkpt><trkpt lat="43.383530460538296" lon="11.756741071983665"><ele>278.0</ele><time>2026-04-10T13:05:14.001Z</time></trkpt><trkpt lat="43.38374105053647" lon="11.756735693452717"><ele>278.0</ele><time>2026-04-10T13:05:15.001Z</time></trkpt><trkpt lat="43.38395806606911" lon="11.756736175119203"><ele>278.0</ele><time>2026-04-10T13:05:16.001Z</time></trkpt><trkpt lat="43.38417792485439" lon="11.756735734907926"><ele>279.0</ele><time>2026-04-10T13:05:17.001Z</time></trkpt><trkpt lat="43.384402430200765" lon="11.756739910068745"><ele>280.0</ele><time>2026-04-10T13:05:18.001Z</time></trkpt><trkpt lat="43.38463254876712" lon="11.756742500445318"><ele>281.5</ele><time>2026-04-10T13:05:19.001Z</time></trkpt><trkpt lat="43.384865301709105" lon="11.756742865389013"><ele>283.0</ele><time>2026-04-10T13:05:20.001Z</time></trkpt><trkpt lat="43.385101041643004" lon="11.756739225748701"><ele>283.0</ele><time>2026-04-10T13:05:21.001Z</time></trkpt><trkpt lat="43.38533931369976" lon="11.756737351295575"><ele>283.0</ele><time>2026-04-10T13:05:22.001Z</time></trkpt><trkpt lat="43.38557835744126" lon="11.756734263148498"><ele>284.5</ele><time>2026-04-10T13:05:23.001Z</time></trkpt><trkpt lat="43.38582094352371" lon="11.756732024038492"><ele>286.0</ele><time>2026-04-10T13:05:24.001Z</time></trkpt><trkpt lat="43.38606371781297" lon="11.756728303996805"><ele>286.0</ele><time>2026-04-10T13:05:25.001Z</time></trkpt><trkpt lat="43.386304316003944" lon="11.756726164108574"><ele>286.0</ele><time>2026-04-10T13:05:26.001Z</time></trkpt><trkpt lat="43.38654500263241" lon="11.756726189392005"><ele>286.0</ele><time>2026-04-10T13:05:27.001Z</time></trkpt><trkpt lat="43.38678024654575" lon="11.756728679070012"><ele>286.0</ele><time>2026-04-10T13:05:28.001Z</time></trkpt><trkpt lat="43.38701227317055" lon="11.756730576545733"><ele>286.0</ele><time>2026-04-10T13:05:29.001Z</time></trkpt><trkpt lat="43.3872479228203" lon="11.756728690082861"><ele>286.0</ele><time>2026-04-10T13:05:30.001Z</time></trkpt><trkpt lat="43.3874862922749" lon="11.756727772342872"><ele>286.0</ele><time>2026-04-10T13:05:31.001Z</time></trkpt><trkpt lat="43.387724727828555" lon="11.756722277926649"><ele>286.0</ele><time>2026-04-10T13:05:32.001Z</time></trkpt><trkpt lat="43.38796528244291" lon="11.756716958965216"><ele>285.5</ele><time>2026-04-10T13:05:33.001Z</time></trkpt><trkpt lat="43.3881965260698" lon="11.756713149873152"><ele>285.0</ele><time>2026-04-10T13:05:34.001Z</time></trkpt><trkpt lat="43.38842450845389" lon="11.756710456192359"><ele>285.0</ele><time>2026-04-10T13:05:35.001Z</time></trkpt><trkpt lat="43.38865228010825" lon="11.756711476222653"><ele>285.0</ele><time>2026-04-10T13:05:36.001Z</time></trkpt><trkpt lat="43.38887861588844" lon="11.756713009462873"><ele>285.0</ele><time>2026-04-10T13:05:37.001Z</time></trkpt><trkpt lat="43.38910557653624" lon="11.756712301275842"><ele>285.0</ele><time>2026-04-10T13:05:37.999Z</time></trkpt><trkpt lat="43.38932617711818" lon="11.75670918884399"><ele>285.0</ele><time>2026-04-10T13:05:38.999Z</time></trkpt><trkpt lat="43.38954937209325" lon="11.756705714487984"><ele>284.5</ele><time>2026-04-10T13:05:39.999Z</time></trkpt><trkpt lat="43.389777022752256" lon="11.756705168613964"><ele>284.0</ele><time>2026-04-10T13:05:40.999Z</time></trkpt><trkpt lat="43.39000622323682" lon="11.756702299459066"><ele>284.0</ele><time>2026-04-10T13:05:41.999Z</time></trkpt><trkpt lat="43.39023664953479" lon="11.75669933771631"><ele>284.0</ele><time>2026-04-10T13:05:42.999Z</time></trkpt><trkpt lat="43.3904688986581" lon="11.75669802231748"><ele>284.5</ele><time>2026-04-10T13:05:43.999Z</time></trkpt><trkpt lat="43.39070425184157" lon="11.756697099585603"><ele>285.0</ele><time>2026-04-10T13:05:44.999Z</time></trkpt><trkpt lat="43.39094166341797" lon="11.756692734385254"><ele>285.0</ele><time>2026-04-10T13:05:45.999Z</time></trkpt><trkpt lat="43.39118142417102" lon="11.756691890924683"><ele>285.0</ele><time>2026-04-10T13:05:46.999Z</time></trkpt><trkpt lat="43.391422776874336" lon="11.756698556314555"><ele>285.0</ele><time>2026-04-10T13:05:47.999Z</time></trkpt><trkpt lat="43.39166558418044" lon="11.756711126561717"><ele>285.0</ele><time>2026-04-10T13:05:48.999Z</time></trkpt><trkpt lat="43.391909793433506" lon="11.756729653347724"><ele>285.0</ele><time>2026-04-10T13:05:50Z</time></trkpt><trkpt lat="43.39215212754017" lon="11.756752743989836"><ele>285.0</ele><time>2026-04-10T13:05:51Z</time></trkpt><trkpt lat="43.39239362206789" lon="11.756780323458301"><ele>284.5</ele><time>2026-04-10T13:05:52Z</time></trkpt><trkpt lat="43.392634943459434" lon="11.756810921706897"><ele>284.0</ele><time>2026-04-10T13:05:53Z</time></trkpt><trkpt lat="43.39287363451639" lon="11.756849225258604"><ele>284.0</ele><time>2026-04-10T13:05:54Z</time></trkpt><trkpt lat="43.393113623241184" lon="11.756886775366699"><ele>284.0</ele><time>2026-04-10T13:05:55Z</time></trkpt><trkpt lat="43.39335365695673" lon="11.756931227363037"><ele>284.0</ele><time>2026-04-10T13:05:56Z</time></trkpt><trkpt lat="43.39359419725118" lon="11.756981367858414"><ele>284.0</ele><time>2026-04-10T13:05:57Z</time></trkpt><trkpt lat="43.393835383853286" lon="11.757032202065341"><ele>284.0</ele><time>2026-04-10T13:05:58Z</time></trkpt><trkpt lat="43.3940728202864" lon="11.757087000761015"><ele>284.0</ele><time>2026-04-10T13:05:59Z</time></trkpt><trkpt lat="43.39431290651448" lon="11.757153634507988"><ele>284.0</ele><time>2026-04-10T13:06:00Z</time></trkpt><trkpt lat="43.39455220357905" lon="11.757218899440355"><ele>284.0</ele><time>2026-04-10T13:06:01Z</time></trkpt><trkpt lat="43.39479112366431" lon="11.757291181598"><ele>283.0</ele><time>2026-04-10T13:06:02Z</time></trkpt><trkpt lat="43.39502911667093" lon="11.757365377198305"><ele>282.0</ele><time>2026-04-10T13:06:03Z</time></trkpt><trkpt lat="43.39526826466567" lon="11.757444734595726"><ele>281.0</ele><time>2026-04-10T13:06:04Z</time></trkpt><trkpt lat="43.3955076502718" lon="11.757529205331329"><ele>280.0</ele><time>2026-04-10T13:06:05Z</time></trkpt><trkpt lat="43.39574476394946" lon="11.757616727935043"><ele>280.0</ele><time>2026-04-10T13:06:06Z</time></trkpt><trkpt lat="43.395980848116224" lon="11.757713888221103"><ele>280.0</ele><time>2026-04-10T13:06:07Z</time></trkpt><trkpt lat="43.396215612665834" lon="11.757816159879852"><ele>281.0</ele><time>2026-04-10T13:06:08Z</time></trkpt><trkpt lat="43.39645178735875" lon="11.757920515842763"><ele>282.0</ele><time>2026-04-10T13:06:09Z</time></trkpt><trkpt lat="43.39668718233358" lon="11.758024088793018"><ele>274.0</ele><time>2026-04-10T13:06:10Z</time></trkpt><trkpt lat="43.40493639638686" lon="11.763071893371276"><ele>274.0</ele><time>2026-04-10T13:07:21.001Z</time></trkpt><trkpt lat="43.40499211213133" lon="11.76312814107936"><ele>274.0</ele><time>2026-04-10T13:11:25.001Z</time></trkpt><trkpt lat="43.40505528377502" lon="11.763194808149827"><ele>274.0</ele><time>2026-04-10T13:11:27.001Z</time></trkpt><trkpt lat="43.40512393491657" lon="11.763212886424125"><ele>274.0</ele><time>2026-04-10T13:11:29.001Z</time></trkpt><trkpt lat="43.40524652003342" lon="11.763249372720946"><ele>274.0</ele><time>2026-04-10T13:11:31.001Z</time></trkpt><trkpt lat="43.40531659430041" lon="11.76328640067412"><ele>274.0</ele><time>2026-04-10T13:11:32.001Z</time></trkpt><trkpt lat="43.40540658098776" lon="11.763336341120162"><ele>274.0</ele><time>2026-04-10T13:11:33.001Z</time></trkpt><trkpt lat="43.40550726542898" lon="11.763386974319308"><ele>274.0</ele><time>2026-04-10T13:11:34.001Z</time></trkpt><trkpt lat="43.4055910609571" lon="11.76343929374972"><ele>274.0</ele><time>2026-04-10T13:11:35.001Z</time></trkpt><trkpt lat="43.405665374791525" lon="11.763492695330887"><ele>274.0</ele><time>2026-04-10T13:11:36.001Z</time></trkpt><trkpt lat="43.405736563209416" lon="11.763539405876946"><ele>274.0</ele><time>2026-04-10T13:11:37.001Z</time></trkpt><trkpt lat="43.405801366867124" lon="11.763582136628584"><ele>274.0</ele><time>2026-04-10T13:11:38.001Z</time></trkpt><trkpt lat="43.40586097776929" lon="11.76362779614361"><ele>274.0</ele><time>2026-04-10T13:11:39.001Z</time></trkpt><trkpt lat="43.405931552573584" lon="11.763682628204148"><ele>274.0</ele><time>2026-04-10T13:11:41.001Z</time></trkpt><trkpt lat="43.406030410902545" lon="11.763718297523475"><ele>274.0</ele><time>2026-04-10T13:11:56Z</time></trkpt><trkpt lat="43.406074419139735" lon="11.763583230455481"><ele>274.0</ele><time>2026-04-10T13:11:56.999Z</time></trkpt><trkpt lat="43.406197957391754" lon="11.763536642495191"><ele>274.0</ele><time>2026-04-10T13:11:58Z</time></trkpt><trkpt lat="43.40627558421796" lon="11.763556201730045"><ele>274.0</ele><time>2026-04-10T13:11:58.999Z</time></trkpt><trkpt lat="43.406339532243024" lon="11.763717232895996"><ele>274.0</ele><time>2026-04-10T13:11:59.999Z</time></trkpt><trkpt lat="43.406420165596856" lon="11.763727592104905"><ele>274.0</ele><time>2026-04-10T13:12:01Z</time></trkpt><trkpt lat="43.4065076769202" lon="11.763736699336306"><ele>274.0</ele><time>2026-04-10T13:12:02Z</time></trkpt><trkpt lat="43.40659835870339" lon="11.763734576368414"><ele>274.0</ele><time>2026-04-10T13:12:03Z</time></trkpt><trkpt lat="43.40670230981984" lon="11.76370421716988"><ele>274.0</ele><time>2026-04-10T13:12:04Z</time></trkpt><trkpt lat="43.40679975594367" lon="11.76376574925084"><ele>274.0</ele><time>2026-04-10T13:12:05Z</time></trkpt><trkpt lat="43.406905650070435" lon="11.763814805117772"><ele>274.0</ele><time>2026-04-10T13:12:06Z</time></trkpt><trkpt lat="43.4070180319103" lon="11.763871827361314"><ele>274.0</ele><time>2026-04-10T13:12:07Z</time></trkpt><trkpt lat="43.40713204088611" lon="11.763950598632897"><ele>274.0</ele><time>2026-04-10T13:12:08Z</time></trkpt><trkpt lat="43.40725085938738" lon="11.764010875612332"><ele>274.0</ele><time>2026-04-10T13:12:09Z</time></trkpt><trkpt lat="43.407375929331316" lon="11.764057246365654"><ele>274.0</ele><time>2026-04-10T13:12:10Z</time></trkpt><trkpt lat="43.40828486939962" lon="11.76434415104409"><ele>274.0</ele><time>2026-04-10T13:13:11Z</time></trkpt><trkpt lat="43.40841669718278" lon="11.764404720424471"><ele>274.0</ele><time>2026-04-10T13:13:13Z</time></trkpt><trkpt lat="43.40850945352357" lon="11.76444555833216"><ele>274.0</ele><time>2026-04-10T13:13:14Z</time></trkpt><trkpt lat="43.40862228398197" lon="11.764498504689536"><ele>274.0</ele><time>2026-04-10T13:13:15Z</time></trkpt><trkpt lat="43.40874749603596" lon="11.764567039901713"><ele>274.5</ele><time>2026-04-10T13:13:16Z</time></trkpt><trkpt lat="43.40887829651719" lon="11.764634728647941"><ele>275.0</ele><time>2026-04-10T13:13:17Z</time></trkpt><trkpt lat="43.40901584820517" lon="11.764700884282444"><ele>275.5</ele><time>2026-04-10T13:13:18Z</time></trkpt><trkpt lat="43.409160926570536" lon="11.764774051359105"><ele>276.0</ele><time>2026-04-10T13:13:19Z</time></trkpt><trkpt lat="43.409322649470276" lon="11.764857859478665"><ele>276.0</ele><time>2026-04-10T13:13:20Z</time></trkpt><trkpt lat="43.40949232611875" lon="11.764946719696837"><ele>276.0</ele><time>2026-04-10T13:13:21.001Z</time></trkpt><trkpt lat="43.40967312503072" lon="11.765042288380046"><ele>276.0</ele><time>2026-04-10T13:13:22.001Z</time></trkpt><trkpt lat="43.40986257744116" lon="11.765145913061394"><ele>276.3333333333333</ele><time>2026-04-10T13:13:23.001Z</time></trkpt><trkpt lat="43.410055523809255" lon="11.765253392991664"><ele>276.66666666666663</ele><time>2026-04-10T13:13:24.001Z</time></trkpt><trkpt lat="43.410254701416406" lon="11.765365652199392"><ele>277.0</ele><time>2026-04-10T13:13:25.001Z</time></trkpt><trkpt lat="43.410459615435755" lon="11.765484547677199"><ele>278.0</ele><time>2026-04-10T13:13:26.001Z</time></trkpt><trkpt lat="43.4106667326594" lon="11.765602791009709"><ele>279.0</ele><time>2026-04-10T13:13:27.001Z</time></trkpt><trkpt lat="43.41087465192221" lon="11.765722689396659"><ele>279.0</ele><time>2026-04-10T13:13:28.001Z</time></trkpt><trkpt lat="43.411085271825556" lon="11.765845720189374"><ele>279.0</ele><time>2026-04-10T13:13:29.001Z</time></trkpt><trkpt lat="43.41129762232415" lon="11.765972468811963"><ele>276.0</ele><time>2026-04-10T13:13:30.001Z</time></trkpt><trkpt lat="43.41151045568728" lon="11.766099806156287"><ele>273.0</ele><time>2026-04-10T13:13:31.001Z</time></trkpt><trkpt lat="43.41172985457571" lon="11.766241920351906"><ele>273.0</ele><time>2026-04-10T13:13:32.001Z</time></trkpt><trkpt lat="43.41193385996592" lon="11.766374647009217"><ele>273.0</ele><time>2026-04-10T13:13:33.001Z</time></trkpt><trkpt lat="43.41214118973025" lon="11.766519111758711"><ele>270.5</ele><time>2026-04-10T13:13:34.001Z</time></trkpt><trkpt lat="43.41234834340553" lon="11.766669350507986"><ele>268.0</ele><time>2026-04-10T13:13:35.001Z</time></trkpt><trkpt lat="43.412558909604776" lon="11.766819444470011"><ele>268.5</ele><time>2026-04-10T13:13:36.001Z</time></trkpt><trkpt lat="43.4127710567739" lon="11.766966666623878"><ele>269.0</ele><time>2026-04-10T13:13:37.001Z</time></trkpt><trkpt lat="43.41298405336546" lon="11.767122865254729"><ele>267.0</ele><time>2026-04-10T13:13:38.001Z</time></trkpt><trkpt lat="43.413197471382915" lon="11.767283633065968"><ele>265.0</ele><time>2026-04-10T13:13:39.001Z</time></trkpt><trkpt lat="43.41340928663781" lon="11.767450240335773"><ele>265.0</ele><time>2026-04-10T13:13:40.001Z</time></trkpt><trkpt lat="43.413622958920385" lon="11.767617409613324"><ele>265.0</ele><time>2026-04-10T13:13:41.001Z</time></trkpt><trkpt lat="43.41383779526718" lon="11.767786820409459"><ele>264.0</ele><time>2026-04-10T13:13:42.001Z</time></trkpt><trkpt lat="43.41405303502671" lon="11.767961986102378"><ele>263.0</ele><time>2026-04-10T13:13:43.001Z</time></trkpt><trkpt lat="43.41426811536667" lon="11.768136329647957"><ele>263.0</ele><time>2026-04-10T13:13:44.001Z</time></trkpt><trkpt lat="43.41448052829337" lon="11.768321086722231"><ele>263.0</ele><time>2026-04-10T13:13:45.001Z</time></trkpt><trkpt lat="43.41469270766071" lon="11.768502793156475"><ele>263.5</ele><time>2026-04-10T13:13:46.001Z</time></trkpt><trkpt lat="43.414906171463265" lon="11.768689329518772"><ele>264.0</ele><time>2026-04-10T13:13:47.001Z</time></trkpt><trkpt lat="43.41512001552689" lon="11.768876469499059"><ele>264.0</ele><time>2026-04-10T13:13:48.001Z</time></trkpt><trkpt lat="43.41533157152623" lon="11.769064865845287"><ele>264.0</ele><time>2026-04-10T13:13:49.001Z</time></trkpt><trkpt lat="43.415548070787096" lon="11.769250748866916"><ele>264.5</ele><time>2026-04-10T13:13:50.001Z</time></trkpt><trkpt lat="43.415767982921956" lon="11.769436581770295"><ele>265.0</ele><time>2026-04-10T13:13:51.001Z</time></trkpt><trkpt lat="43.41598361878148" lon="11.769623103111577"><ele>265.0</ele><time>2026-04-10T13:13:52.001Z</time></trkpt><trkpt lat="43.416199053569194" lon="11.769811193490355"><ele>265.0</ele><time>2026-04-10T13:13:53.001Z</time></trkpt><trkpt lat="43.41641588824396" lon="11.769998357646356"><ele>267.0</ele><time>2026-04-10T13:13:54.001Z</time></trkpt><trkpt lat="43.41663378144531" lon="11.77018645629496"><ele>269.0</ele><time>2026-04-10T13:13:55.001Z</time></trkpt><trkpt lat="43.41685349812904" lon="11.77037436989811"><ele>269.0</ele><time>2026-04-10T13:13:56.001Z</time></trkpt><trkpt lat="43.41707096496764" lon="11.77056272553267"><ele>269.0</ele><time>2026-04-10T13:13:57.001Z</time></trkpt><trkpt lat="43.41728210168476" lon="11.770748779657842"><ele>269.5</ele><time>2026-04-10T13:13:58.001Z</time></trkpt><trkpt lat="43.417493675502044" lon="11.770933615654808"><ele>270.0</ele><time>2026-04-10T13:13:59.001Z</time></trkpt><trkpt lat="43.417706977116204" lon="11.77111594420069"><ele>270.0</ele><time>2026-04-10T13:14:00.001Z</time></trkpt><trkpt lat="43.41792202489354" lon="11.771301506131556"><ele>270.0</ele><time>2026-04-10T13:14:01.001Z</time></trkpt><trkpt lat="43.41813675553577" lon="11.771487556832346"><ele>270.5</ele><time>2026-04-10T13:14:01.999Z</time></trkpt><trkpt lat="43.41835407008744" lon="11.771675594448812"><ele>271.0</ele><time>2026-04-10T13:14:02.999Z</time></trkpt><trkpt lat="43.418569457143086" lon="11.771864400640647"><ele>270.0</ele><time>2026-04-10T13:14:03.999Z</time></trkpt><trkpt lat="43.41878301292591" lon="11.772048554066194"><ele>269.0</ele><time>2026-04-10T13:14:04.999Z</time></trkpt><trkpt lat="43.41900027852838" lon="11.772227442097474"><ele>268.0</ele><time>2026-04-10T13:14:05.999Z</time></trkpt><trkpt lat="43.4192103414284" lon="11.772406150710605"><ele>267.0</ele><time>2026-04-10T13:14:06.999Z</time></trkpt><trkpt lat="43.419420759917614" lon="11.772588471362496"><ele>265.0</ele><time>2026-04-10T13:14:07.999Z</time></trkpt><trkpt lat="43.41962911895849" lon="11.772769288117066"><ele>263.0</ele><time>2026-04-10T13:14:08.999Z</time></trkpt><trkpt lat="43.41983621369803" lon="11.772949953213065"><ele>263.0</ele><time>2026-04-10T13:14:09.999Z</time></trkpt><trkpt lat="43.43294778309384" lon="11.77756742375578"><ele>263.0</ele><time>2026-04-10T13:15:11Z</time></trkpt><trkpt lat="43.433176018793304" lon="11.77747425779689"><ele>263.0</ele><time>2026-04-10T13:15:12Z</time></trkpt><trkpt lat="43.4333998847389" lon="11.777379560702837"><ele>263.0</ele><time>2026-04-10T13:15:13Z</time></trkpt><trkpt lat="43.43362259435578" lon="11.77728574429459"><ele>263.0</ele><time>2026-04-10T13:15:14Z</time></trkpt><trkpt lat="43.43384646667605" lon="11.77719514318742"><ele>262.5</ele><time>2026-04-10T13:15:15Z</time></trkpt><trkpt lat="43.43407047865296" lon="11.777104417804148"><ele>262.0</ele><time>2026-04-10T13:15:16Z</time></trkpt><trkpt lat="43.434302405747374" lon="11.777010243806636"><ele>262.0</ele><time>2026-04-10T13:15:17Z</time></trkpt><trkpt lat="43.43453356058604" lon="11.776913579191048"><ele>262.0</ele><time>2026-04-10T13:15:18Z</time></trkpt><trkpt lat="43.43475964639522" lon="11.776815652003405"><ele>262.5</ele><time>2026-04-10T13:15:19Z</time></trkpt><trkpt lat="43.43498265769761" lon="11.776718409606326"><ele>263.0</ele><time>2026-04-10T13:15:20Z</time></trkpt><trkpt lat="43.43520927630746" lon="11.776624118370849"><ele>263.0</ele><time>2026-04-10T13:15:21Z</time></trkpt><trkpt lat="43.43543485992156" lon="11.776530948489805"><ele>263.0</ele><time>2026-04-10T13:15:22Z</time></trkpt><trkpt lat="43.43566088711386" lon="11.776436865874743"><ele>263.5</ele><time>2026-04-10T13:15:23Z</time></trkpt><trkpt lat="43.43588793377683" lon="11.776344646259433"><ele>264.0</ele><time>2026-04-10T13:15:24Z</time></trkpt><trkpt lat="43.436113604088156" lon="11.77625197794907"><ele>264.0</ele><time>2026-04-10T13:15:25Z</time></trkpt><trkpt lat="43.436338156983396" lon="11.776157080349538"><ele>264.0</ele><time>2026-04-10T13:15:26Z</time></trkpt><trkpt lat="43.43656256783215" lon="11.776066241007314"><ele>265.0</ele><time>2026-04-10T13:15:27Z</time></trkpt><trkpt lat="43.43678791416956" lon="11.775975893425617"><ele>266.0</ele><time>2026-04-10T13:15:28Z</time></trkpt><trkpt lat="43.437013211597325" lon="11.775883995571611"><ele>265.5</ele><time>2026-04-10T13:15:29Z</time></trkpt><trkpt lat="43.437237479644594" lon="11.775791685082366"><ele>265.0</ele><time>2026-04-10T13:15:30Z</time></trkpt><trkpt lat="43.43746270789818" lon="11.775698123829493"><ele>265.0</ele><time>2026-04-10T13:15:31.001Z</time></trkpt><trkpt lat="43.43768901897771" lon="11.775604434616488"><ele>265.0</ele><time>2026-04-10T13:15:32.001Z</time></trkpt><trkpt lat="43.43791568096347" lon="11.775509207909273"><ele>264.5</ele><time>2026-04-10T13:15:33.001Z</time></trkpt><trkpt lat="43.43814302386937" lon="11.77541273607051"><ele>264.0</ele><time>2026-04-10T13:15:34.001Z</time></trkpt><trkpt lat="43.438370845673816" lon="11.77531591115483"><ele>264.0</ele><time>2026-04-10T13:15:35.001Z</time></trkpt><trkpt lat="43.438600064382676" lon="11.775221684118868"><ele>264.0</ele><time>2026-04-10T13:15:36.001Z</time></trkpt><trkpt lat="43.438829515800684" lon="11.775129449798083"><ele>266.0</ele><time>2026-04-10T13:15:37.001Z</time></trkpt><trkpt lat="43.43905838670932" lon="11.77503290708252"><ele>268.0</ele><time>2026-04-10T13:15:38.001Z</time></trkpt><trkpt lat="43.43928845718072" lon="11.774936935721266"><ele>268.0</ele><time>2026-04-10T13:15:39.001Z</time></trkpt><trkpt lat="43.43951284890452" lon="11.774840505673247"><ele>268.0</ele><time>2026-04-10T13:15:40.001Z</time></trkpt><trkpt lat="43.43973830498166" lon="11.774738567745777"><ele>267.5</ele><time>2026-04-10T13:15:41.001Z</time></trkpt><trkpt lat="43.439965620987174" lon="11.774632317227615"><ele>267.0</ele><time>2026-04-10T13:15:42.001Z</time></trkpt><trkpt lat="43.440189738050336" lon="11.774521306467742"><ele>267.0</ele><time>2026-04-10T13:15:43.001Z</time></trkpt><trkpt lat="43.44041209883397" lon="11.774402258233513"><ele>267.0</ele><time>2026-04-10T13:15:44.001Z</time></trkpt><trkpt lat="43.440634107123174" lon="11.774268789638752"><ele>268.0</ele><time>2026-04-10T13:15:45.001Z</time></trkpt><trkpt lat="43.440853515771835" lon="11.774125415832161"><ele>269.0</ele><time>2026-04-10T13:15:46.001Z</time></trkpt><trkpt lat="43.44106965600139" lon="11.773975577077135"><ele>269.0</ele><time>2026-04-10T13:15:47.001Z</time></trkpt><trkpt lat="43.44127981466623" lon="11.773818497256835"><ele>269.0</ele><time>2026-04-10T13:15:48.001Z</time></trkpt><trkpt lat="43.44148610337773" lon="11.773654120243132"><ele>268.5</ele><time>2026-04-10T13:15:49.001Z</time></trkpt><trkpt lat="43.44168651836755" lon="11.773482877935754"><ele>268.0</ele><time>2026-04-10T13:15:50.001Z</time></trkpt><trkpt lat="43.441881682220966" lon="11.773308490969685"><ele>268.0</ele><time>2026-04-10T13:15:51.001Z</time></trkpt><trkpt lat="43.44206980576214" lon="11.773132955139575"><ele>268.0</ele><time>2026-04-10T13:15:52.001Z</time></trkpt><trkpt lat="43.442255002889034" lon="11.772950464097436"><ele>268.0</ele><time>2026-04-10T13:15:53.001Z</time></trkpt><trkpt lat="43.44243494742675" lon="11.772765376959375"><ele>268.0</ele><time>2026-04-10T13:15:54.001Z</time></trkpt><trkpt lat="43.44261085477671" lon="11.772579636556612"><ele>268.0</ele><time>2026-04-10T13:15:55.001Z</time></trkpt><trkpt lat="43.4427841709987" lon="11.77238635022672"><ele>269.0</ele><time>2026-04-10T13:15:56.001Z</time></trkpt><trkpt lat="43.44295448826532" lon="11.772181730450427"><ele>270.0</ele><time>2026-04-10T13:15:57.001Z</time></trkpt><trkpt lat="43.44312160594294" lon="11.771970359503053"><ele>270.0</ele><time>2026-04-10T13:15:58.001Z</time></trkpt><trkpt lat="43.44328550387378" lon="11.771753438914525"><ele>270.0</ele><time>2026-04-10T13:15:59.001Z</time></trkpt><trkpt lat="43.44344552326272" lon="11.771533370175387"><ele>270.0</ele><time>2026-04-10T13:16:00.001Z</time></trkpt><trkpt lat="43.443603262605535" lon="11.771310174906064"><ele>270.0</ele><time>2026-04-10T13:16:01.001Z</time></trkpt><trkpt lat="43.443760596007" lon="11.77108484047453"><ele>271.0</ele><time>2026-04-10T13:16:02.001Z</time></trkpt><trkpt lat="43.443919828987944" lon="11.770860353267157"><ele>272.0</ele><time>2026-04-10T13:16:03.001Z</time></trkpt><trkpt lat="43.444079964255515" lon="11.770635498788396"><ele>272.0</ele><time>2026-04-10T13:16:04.001Z</time></trkpt><trkpt lat="43.44424176876539" lon="11.770408159343958"><ele>272.0</ele><time>2026-04-10T13:16:05.001Z</time></trkpt><trkpt lat="43.44440465119424" lon="11.770179037110314"><ele>271.0</ele><time>2026-04-10T13:16:06.001Z</time></trkpt><trkpt lat="43.44456973568102" lon="11.769950115646578"><ele>270.0</ele><time>2026-04-10T13:16:07.001Z</time></trkpt><trkpt lat="43.44473386753397" lon="11.769720930657673"><ele>270.0</ele><time>2026-04-10T13:16:07.999Z</time></trkpt><trkpt lat="43.444899474061046" lon="11.769490605407073"><ele>270.0</ele><time>2026-04-10T13:16:08.999Z</time></trkpt><trkpt lat="43.445063564037866" lon="11.769256729712582"><ele>323.0</ele><time>2026-04-10T13:16:09.999Z</time></trkpt><trkpt lat="43.45211984911746" lon="11.755250637271335"><ele>322.5</ele><time>2026-04-10T13:17:11Z</time></trkpt><trkpt lat="43.45234832298463" lon="11.75518020048312"><ele>322.0</ele><time>2026-04-10T13:17:12Z</time></trkpt><trkpt lat="43.452578375782615" lon="11.755110761040564"><ele>322.0</ele><time>2026-04-10T13:17:13Z</time></trkpt><trkpt lat="43.4528097856319" lon="11.755044283356401"><ele>322.0</ele><time>2026-04-10T13:17:14Z</time></trkpt><trkpt lat="43.45304130321643" lon="11.754982598458941"><ele>324.0</ele><time>2026-04-10T13:17:15Z</time></trkpt><trkpt lat="43.453273482476696" lon="11.75492403651759"><ele>326.0</ele><time>2026-04-10T13:17:16Z</time></trkpt><trkpt lat="43.453506364961825" lon="11.754871847021718"><ele>326.0</ele><time>2026-04-10T13:17:17Z</time></trkpt><trkpt lat="43.45373818607056" lon="11.75481721841253"><ele>326.0</ele><time>2026-04-10T13:17:18Z</time></trkpt><trkpt lat="43.45397075972114" lon="11.754758867418367"><ele>329.5</ele><time>2026-04-10T13:17:19Z</time></trkpt><trkpt lat="43.45420333337597" lon="11.75469493861217"><ele>333.0</ele><time>2026-04-10T13:17:20Z</time></trkpt><trkpt lat="43.45443507828786" lon="11.754623321515059"><ele>340.5</ele><time>2026-04-10T13:17:21Z</time></trkpt><trkpt lat="43.45466769667775" lon="11.754550936711102"><ele>348.0</ele><time>2026-04-10T13:17:22Z</time></trkpt><trkpt lat="43.45490084743164" lon="11.754484532157706"><ele>348.0</ele><time>2026-04-10T13:17:23Z</time></trkpt><trkpt lat="43.455135735065056" lon="11.754422400216587"><ele>348.0</ele><time>2026-04-10T13:17:24Z</time></trkpt><trkpt lat="43.455369920371986" lon="11.754358624387796"><ele>345.5</ele><time>2026-04-10T13:17:25Z</time></trkpt><trkpt lat="43.45560251613552" lon="11.754287017421188"><ele>343.0</ele><time>2026-04-10T13:17:26Z</time></trkpt><trkpt lat="43.4558335063095" lon="11.75421852608644"><ele>343.0</ele><time>2026-04-10T13:17:27Z</time></trkpt><trkpt lat="43.45606759259105" lon="11.754151543018466"><ele>343.0</ele><time>2026-04-10T13:17:28.001Z</time></trkpt><trkpt lat="43.45630951801685" lon="11.754085332601113"><ele>345.0</ele><time>2026-04-10T13:17:29.001Z</time></trkpt><trkpt lat="43.45655779919928" lon="11.754011896422075"><ele>347.0</ele><time>2026-04-10T13:17:30.001Z</time></trkpt><trkpt lat="43.45680668915797" lon="11.753936302640863"><ele>347.0</ele><time>2026-04-10T13:17:31.001Z</time></trkpt><trkpt lat="43.457049229954556" lon="11.753860620290899"><ele>347.0</ele><time>2026-04-10T13:17:32.001Z</time></trkpt><trkpt lat="43.4572925955404" lon="11.753784199742304"><ele>346.5</ele><time>2026-04-10T13:17:33.001Z</time></trkpt><trkpt lat="43.45753958529011" lon="11.753706136137673"><ele>346.0</ele><time>2026-04-10T13:17:34.001Z</time></trkpt><trkpt lat="43.45776344259985" lon="11.753632884590992"><ele>345.5</ele><time>2026-04-10T13:17:35.001Z</time></trkpt><trkpt lat="43.45798872060907" lon="11.753593987871168"><ele>345.0</ele><time>2026-04-10T13:17:36.001Z</time></trkpt><trkpt lat="43.45822991483658" lon="11.753524191405786"><ele>336.5</ele><time>2026-04-10T13:17:37.001Z</time></trkpt><trkpt lat="43.45847230212924" lon="11.753451992081127"><ele>328.0</ele><time>2026-04-10T13:17:38.001Z</time></trkpt><trkpt lat="43.458716041181034" lon="11.753376518588093"><ele>326.5</ele><time>2026-04-10T13:17:39.001Z</time></trkpt><trkpt lat="43.45896347429378" lon="11.753294651587701"><ele>325.0</ele><time>2026-04-10T13:17:40.001Z</time></trkpt><trkpt lat="43.45921145576326" lon="11.753201659337414"><ele>325.0</ele><time>2026-04-10T13:17:41.001Z</time></trkpt><trkpt lat="43.45945640404008" lon="11.753095901092628"><ele>325.0</ele><time>2026-04-10T13:17:42.001Z</time></trkpt><trkpt lat="43.45969490424854" lon="11.752977641252222"><ele>329.5</ele><time>2026-04-10T13:17:43.001Z</time></trkpt><trkpt lat="43.45992954568084" lon="11.752852723497696"><ele>334.0</ele><time>2026-04-10T13:17:44.001Z</time></trkpt><trkpt lat="43.460159600169135" lon="11.752721169701921"><ele>334.0</ele><time>2026-04-10T13:17:45.001Z</time></trkpt><trkpt lat="43.460387550739945" lon="11.752581904319936"><ele>334.0</ele><time>2026-04-10T13:17:46.001Z</time></trkpt><trkpt lat="43.46061595150909" lon="11.752440425941264"><ele>334.0</ele><time>2026-04-10T13:17:47.001Z</time></trkpt><trkpt lat="43.46084069080263" lon="11.75229148974694"><ele>334.0</ele><time>2026-04-10T13:17:48.001Z</time></trkpt><trkpt lat="43.46105975783695" lon="11.752128960067262"><ele>334.0</ele><time>2026-04-10T13:17:49.001Z</time></trkpt><trkpt lat="43.46127480431354" lon="11.751958677608982"><ele>334.0</ele><time>2026-04-10T13:17:50.001Z</time></trkpt><trkpt lat="43.461486928388496" lon="11.751784599600608"><ele>329.0</ele><time>2026-04-10T13:17:51.001Z</time></trkpt><trkpt lat="43.461697518455324" lon="11.751602878353447"><ele>324.0</ele><time>2026-04-10T13:17:52.001Z</time></trkpt><trkpt lat="43.46190463122903" lon="11.751409798770865"><ele>324.0</ele><time>2026-04-10T13:17:53.001Z</time></trkpt><trkpt lat="43.46210623565588" lon="11.751205351971889"><ele>324.0</ele><time>2026-04-10T13:17:54.001Z</time></trkpt><trkpt lat="43.46230370750886" lon="11.750993776341776"><ele>320.0</ele><time>2026-04-10T13:17:55.001Z</time></trkpt><trkpt lat="43.462502346871794" lon="11.750782863776081"><ele>316.0</ele><time>2026-04-10T13:17:56.001Z</time></trkpt><trkpt lat="43.46269902931494" lon="11.750572265093224"><ele>316.0</ele><time>2026-04-10T13:17:57.001Z</time></trkpt><trkpt lat="43.462893248637606" lon="11.750357234726957"><ele>316.0</ele><time>2026-04-10T13:17:58.001Z</time></trkpt><trkpt lat="43.46309210437242" lon="11.750141262313061"><ele>309.0</ele><time>2026-04-10T13:17:59.001Z</time></trkpt><trkpt lat="43.46329268489395" lon="11.749923936006333"><ele>302.0</ele><time>2026-04-10T13:18:00.001Z</time></trkpt><trkpt lat="43.46349781112161" lon="11.749705469806468"><ele>302.0</ele><time>2026-04-10T13:18:01.001Z</time></trkpt><trkpt lat="43.463704254345075" lon="11.749483534830873"><ele>302.0</ele><time>2026-04-10T13:18:02.001Z</time></trkpt><trkpt lat="43.46391186284389" lon="11.749260897595978"><ele>299.0</ele><time>2026-04-10T13:18:03.001Z</time></trkpt><trkpt lat="43.464122128535756" lon="11.749036324731023"><ele>296.0</ele><time>2026-04-10T13:18:04.001Z</time></trkpt><trkpt lat="43.464334351266125" lon="11.748813880746246"><ele>296.0</ele><time>2026-04-10T13:18:05.001Z</time></trkpt><trkpt lat="43.46454609979011" lon="11.748588064095044"><ele>296.0</ele><time>2026-04-10T13:18:06.001Z</time></trkpt><trkpt lat="43.464759273686234" lon="11.748361702253625"><ele>294.5</ele><time>2026-04-10T13:18:07.001Z</time></trkpt><trkpt lat="43.464971643204244" lon="11.748132219213094"><ele>293.0</ele><time>2026-04-10T13:18:08.001Z</time></trkpt><trkpt lat="43.46518487418966" lon="11.747906190948536"><ele>294.5</ele><time>2026-04-10T13:18:09.001Z</time></trkpt><trkpt lat="43.46539845690607" lon="11.747678690823882"><ele>296.0</ele><time>2026-04-10T13:18:10.001Z</time></trkpt><trkpt lat="43.478131915749145" lon="11.735168663049967"><ele>284.0</ele><time>2026-04-10T13:19:11Z</time></trkpt><trkpt lat="43.4782745034845" lon="11.734883797050568"><ele>272.0</ele><time>2026-04-10T13:19:12Z</time></trkpt><trkpt lat="43.47841035063489" lon="11.73459105685211"><ele>272.5</ele><time>2026-04-10T13:19:13Z</time></trkpt><trkpt lat="43.47853999586088" lon="11.734293690602724"><ele>273.0</ele><time>2026-04-10T13:19:14Z</time></trkpt><trkpt lat="43.47866462641662" lon="11.733989517302366"><ele>273.5</ele><time>2026-04-10T13:19:15Z</time></trkpt><trkpt lat="43.47878557802495" lon="11.733678845184809"><ele>274.0</ele><time>2026-04-10T13:19:16Z</time></trkpt><trkpt lat="43.4789028496737" lon="11.733363559712343"><ele>274.0</ele><time>2026-04-10T13:19:17Z</time></trkpt><trkpt lat="43.47902084749093" lon="11.733044995213316"><ele>274.0</ele><time>2026-04-10T13:19:18Z</time></trkpt><trkpt lat="43.47914397261172" lon="11.732727312087464"><ele>275.5</ele><time>2026-04-10T13:19:19Z</time></trkpt><trkpt lat="43.479267483242985" lon="11.732406896965372"><ele>277.0</ele><time>2026-04-10T13:19:20Z</time></trkpt><trkpt lat="43.47939002143149" lon="11.732084026071803"><ele>277.0</ele><time>2026-04-10T13:19:21Z</time></trkpt><trkpt lat="43.4795074343011" lon="11.731768215434311"><ele>277.0</ele><time>2026-04-10T13:19:22.001Z</time></trkpt><trkpt lat="43.47962386552562" lon="11.731458824243006"><ele>277.0</ele><time>2026-04-10T13:19:23.001Z</time></trkpt><trkpt lat="43.47973973934634" lon="11.731163423710916"><ele>277.0</ele><time>2026-04-10T13:19:24.001Z</time></trkpt><trkpt lat="43.4798471352463" lon="11.730870095244978"><ele>277.0</ele><time>2026-04-10T13:19:25.001Z</time></trkpt><trkpt lat="43.47995576397908" lon="11.730575530615598"><ele>277.0</ele><time>2026-04-10T13:19:26.001Z</time></trkpt><trkpt lat="43.48006955792227" lon="11.73028457108125"><ele>282.0</ele><time>2026-04-10T13:19:27.001Z</time></trkpt><trkpt lat="43.480181637223424" lon="11.729995608725973"><ele>287.0</ele><time>2026-04-10T13:19:28.001Z</time></trkpt><trkpt lat="43.48028306661231" lon="11.729717931808768"><ele>287.0</ele><time>2026-04-10T13:19:29.001Z</time></trkpt><trkpt lat="43.48038669520182" lon="11.729444966990519"><ele>287.0</ele><time>2026-04-10T13:19:30.001Z</time></trkpt><trkpt lat="43.480490063990395" lon="11.729172321525315"><ele>287.0</ele><time>2026-04-10T13:19:31.001Z</time></trkpt><trkpt lat="43.480590837161195" lon="11.728904443553864"><ele>281.0</ele><time>2026-04-10T13:19:32.001Z</time></trkpt><trkpt lat="43.48069225991964" lon="11.728637277945317"><ele>275.0</ele><time>2026-04-10T13:19:33.001Z</time></trkpt><trkpt lat="43.48079387137412" lon="11.728366749155452"><ele>269.0</ele><time>2026-04-10T13:19:34.001Z</time></trkpt><trkpt lat="43.480896509596775" lon="11.728095011938125"><ele>268.5</ele><time>2026-04-10T13:19:35.001Z</time></trkpt><trkpt lat="43.48099998371347" lon="11.727816585951672"><ele>268.0</ele><time>2026-04-10T13:19:36.001Z</time></trkpt><trkpt lat="43.48110543638503" lon="11.72753739990045"><ele>268.0</ele><time>2026-04-10T13:19:37.001Z</time></trkpt><trkpt lat="43.48121452720078" lon="11.727258109804561"><ele>268.0</ele><time>2026-04-10T13:19:38.001Z</time></trkpt><trkpt lat="43.4813245565756" lon="11.726977076408447"><ele>263.5</ele><time>2026-04-10T13:19:39.001Z</time></trkpt><trkpt lat="43.481434468930445" lon="11.72669562969116"><ele>259.0</ele><time>2026-04-10T13:19:40.001Z</time></trkpt><trkpt lat="43.481541670558215" lon="11.726410629539316"><ele>259.0</ele><time>2026-04-10T13:19:41.001Z</time></trkpt><trkpt lat="43.48164923831623" lon="11.726124676157816"><ele>259.0</ele><time>2026-04-10T13:19:42.001Z</time></trkpt><trkpt lat="43.481755089981256" lon="11.725836240084044"><ele>259.0</ele><time>2026-04-10T13:19:43.001Z</time></trkpt><trkpt lat="43.48186089656148" lon="11.725545910293668"><ele>259.0</ele><time>2026-04-10T13:19:44.001Z</time></trkpt><trkpt lat="43.48196914116879" lon="11.72525717953465"><ele>258.5</ele><time>2026-04-10T13:19:45.001Z</time></trkpt><trkpt lat="43.48207864610784" lon="11.724969971655053"><ele>258.0</ele><time>2026-04-10T13:19:46.001Z</time></trkpt><trkpt lat="43.482186244511524" lon="11.724686963200526"><ele>258.6666666666667</ele><time>2026-04-10T13:19:47.001Z</time></trkpt><trkpt lat="43.4822916278341" lon="11.724412818422856"><ele>259.33333333333337</ele><time>2026-04-10T13:19:48.001Z</time></trkpt><trkpt lat="43.482397028706664" lon="11.724141047738678"><ele>260.0</ele><time>2026-04-10T13:19:49.001Z</time></trkpt><trkpt lat="43.482505506831835" lon="11.723874744275712"><ele>260.33333333333337</ele><time>2026-04-10T13:19:50.001Z</time></trkpt><trkpt lat="43.4826134776001" lon="11.723607856204776"><ele>260.6666666666667</ele><time>2026-04-10T13:19:51.001Z</time></trkpt><trkpt lat="43.48272341377928" lon="11.723337349272391"><ele>261.0</ele><time>2026-04-10T13:19:52.001Z</time></trkpt><trkpt lat="43.482838030097255" lon="11.723059575552394"><ele>259.5</ele><time>2026-04-10T13:19:53.001Z</time></trkpt><trkpt lat="43.48295147188593" lon="11.72277583730696"><ele>258.0</ele><time>2026-04-10T13:19:54.001Z</time></trkpt><trkpt lat="43.48306436485126" lon="11.72248372740668"><ele>257.5</ele><time>2026-04-10T13:19:55.001Z</time></trkpt><trkpt lat="43.483181697304786" lon="11.72218736862669"><ele>257.0</ele><time>2026-04-10T13:19:56.001Z</time></trkpt><trkpt lat="43.48330581310749" lon="11.721891878541435"><ele>256.0</ele><time>2026-04-10T13:19:57.001Z</time></trkpt><trkpt lat="43.48343164263884" lon="11.721597451588627"><ele>255.0</ele><time>2026-04-10T13:19:58.001Z</time></trkpt><trkpt lat="43.483554743122" lon="11.721305343000463"><ele>254.0</ele><time>2026-04-10T13:19:59.001Z</time></trkpt><trkpt lat="43.48366670253501" lon="11.72101437436277"><ele>253.0</ele><time>2026-04-10T13:20:00.001Z</time></trkpt><trkpt lat="43.48377083878037" lon="11.72070963634102"><ele>252.0</ele><time>2026-04-10T13:20:01.001Z</time></trkpt><trkpt lat="43.48386176055056" lon="11.720389476261916"><ele>251.0</ele><time>2026-04-10T13:20:02.001Z</time></trkpt><trkpt lat="43.48393892714535" lon="11.720067179465687"><ele>251.0</ele><time>2026-04-10T13:20:03.001Z</time></trkpt><trkpt lat="43.48400067490355" lon="11.719741896564637"><ele>251.0</ele><time>2026-04-10T13:20:04.001Z</time></trkpt><trkpt lat="43.48405182431062" lon="11.719412186600296"><ele>253.0</ele><time>2026-04-10T13:20:05.001Z</time></trkpt><trkpt lat="43.48408657829767" lon="11.719087689135963"><ele>255.0</ele><time>2026-04-10T13:20:06.001Z</time></trkpt><trkpt lat="43.48410877361586" lon="11.71876448465034"><ele>257.0</ele><time>2026-04-10T13:20:07.001Z</time></trkpt><trkpt lat="43.48412607150129" lon="11.718438339563706"><ele>259.0</ele><time>2026-04-10T13:20:08.001Z</time></trkpt><trkpt lat="43.48412860014766" lon="11.718106799826236"><ele>259.0</ele><time>2026-04-10T13:20:09.001Z</time></trkpt><trkpt lat="43.48411265746678" lon="11.71776264882984"><ele>259.0</ele><time>2026-04-10T13:20:10.001Z</time></trkpt><trkpt lat="43.48651441932518" lon="11.697825423691855"><ele>254.5</ele><time>2026-04-10T13:21:11Z</time></trkpt><trkpt lat="43.486581472194175" lon="11.697503299721843"><ele>250.0</ele><time>2026-04-10T13:21:12Z</time></trkpt><trkpt lat="43.486648617669054" lon="11.697180021958422"><ele>247.5</ele><time>2026-04-10T13:21:13Z</time></trkpt><trkpt lat="43.486714805905144" lon="11.69685587150065"><ele>245.0</ele><time>2026-04-10T13:21:14Z</time></trkpt><trkpt lat="43.486779748960906" lon="11.696535186483572"><ele>245.0</ele><time>2026-04-10T13:21:15Z</time></trkpt><trkpt lat="43.48684524077756" lon="11.696214643607641"><ele>245.0</ele><time>2026-04-10T13:21:16Z</time></trkpt><trkpt lat="43.48691197688994" lon="11.6958925490783"><ele>244.5</ele><time>2026-04-10T13:21:17Z</time></trkpt><trkpt lat="43.48697893596213" lon="11.695569909099204"><ele>244.0</ele><time>2026-04-10T13:21:18Z</time></trkpt><trkpt lat="43.48704867848304" lon="11.695248622762136"><ele>245.0</ele><time>2026-04-10T13:21:19Z</time></trkpt><trkpt lat="43.487115491737136" lon="11.694924353961387"><ele>246.0</ele><time>2026-04-10T13:21:20Z</time></trkpt><trkpt lat="43.48718221282514" lon="11.694599830017658"><ele>247.5</ele><time>2026-04-10T13:21:21Z</time></trkpt><trkpt lat="43.4872481264859" lon="11.694275046782753"><ele>249.0</ele><time>2026-04-10T13:21:22Z</time></trkpt><trkpt lat="43.48731436954715" lon="11.693949030710677"><ele>249.0</ele><time>2026-04-10T13:21:23Z</time></trkpt><trkpt lat="43.48737968373498" lon="11.6936257835076"><ele>249.0</ele><time>2026-04-10T13:21:24.001Z</time></trkpt><trkpt lat="43.48744375617437" lon="11.693305766504373"><ele>249.5</ele><time>2026-04-10T13:21:25.001Z</time></trkpt><trkpt lat="43.48751108667125" lon="11.69298593085888"><ele>250.0</ele><time>2026-04-10T13:21:26.001Z</time></trkpt><trkpt lat="43.48758455011945" lon="11.69266962399374"><ele>250.5</ele><time>2026-04-10T13:21:27.001Z</time></trkpt><trkpt lat="43.4876515014165" lon="11.69235505611064"><ele>251.0</ele><time>2026-04-10T13:21:28.001Z</time></trkpt><trkpt lat="43.4877184437924" lon="11.692043641472909"><ele>250.5</ele><time>2026-04-10T13:21:29.001Z</time></trkpt><trkpt lat="43.4877851359536" lon="11.691731409453078"><ele>250.0</ele><time>2026-04-10T13:21:30.001Z</time></trkpt><trkpt lat="43.4878467846552" lon="11.691418517231737"><ele>250.0</ele><time>2026-04-10T13:21:31.001Z</time></trkpt><trkpt lat="43.48791033182806" lon="11.69110518191765"><ele>250.0</ele><time>2026-04-10T13:21:32.001Z</time></trkpt><trkpt lat="43.487977147985916" lon="11.69079458187826"><ele>248.5</ele><time>2026-04-10T13:21:33.001Z</time></trkpt><trkpt lat="43.48804019417907" lon="11.69048072241847"><ele>247.0</ele><time>2026-04-10T13:21:34.001Z</time></trkpt><trkpt lat="43.488104848195015" lon="11.690167601286127"><ele>247.0</ele><time>2026-04-10T13:21:35.001Z</time></trkpt><trkpt lat="43.48816774341342" lon="11.68985399861068"><ele>247.0</ele><time>2026-04-10T13:21:36.002Z</time></trkpt><trkpt lat="43.488232106672164" lon="11.68954102938528"><ele>248.5</ele><time>2026-04-10T13:21:37.002Z</time></trkpt><trkpt lat="43.48829693090892" lon="11.689228889788811"><ele>250.0</ele><time>2026-04-10T13:21:38.002Z</time></trkpt><trkpt lat="43.488363940682994" lon="11.688917744511262"><ele>250.0</ele><time>2026-04-10T13:21:39.002Z</time></trkpt><trkpt lat="43.488430856934826" lon="11.68860461977382"><ele>250.0</ele><time>2026-04-10T13:21:40.002Z</time></trkpt><trkpt lat="43.48849441857005" lon="11.688290228597927"><ele>250.0</ele><time>2026-04-10T13:21:41.002Z</time></trkpt><trkpt lat="43.48855794913699" lon="11.687973715125745"><ele>250.0</ele><time>2026-04-10T13:21:42.002Z</time></trkpt><trkpt lat="43.488623062167335" lon="11.687657345270212"><ele>250.0</ele><time>2026-04-10T13:21:43.002Z</time></trkpt><trkpt lat="43.488686870921775" lon="11.687342392616333"><ele>250.0</ele><time>2026-04-10T13:21:44.002Z</time></trkpt><trkpt lat="43.488750434064876" lon="11.687024505901892"><ele>249.5</ele><time>2026-04-10T13:21:45.002Z</time></trkpt><trkpt lat="43.48881362710934" lon="11.686703178372888"><ele>249.0</ele><time>2026-04-10T13:21:46.002Z</time></trkpt><trkpt lat="43.48888164536995" lon="11.686382139319525"><ele>248.0</ele><time>2026-04-10T13:21:47.002Z</time></trkpt><trkpt lat="43.48894915521961" lon="11.686062022483437"><ele>247.0</ele><time>2026-04-10T13:21:48.002Z</time></trkpt><trkpt lat="43.48901687976248" lon="11.685741485869409"><ele>247.0</ele><time>2026-04-10T13:21:49.002Z</time></trkpt><trkpt lat="43.48908481562873" lon="11.685420041073375"><ele>247.0</ele><time>2026-04-10T13:21:50.002Z</time></trkpt><trkpt lat="43.48915014497818" lon="11.685097812633355"><ele>246.5</ele><time>2026-04-10T13:21:51.002Z</time></trkpt><trkpt lat="43.489214949001386" lon="11.684775465129972"><ele>246.0</ele><time>2026-04-10T13:21:52.002Z</time></trkpt><trkpt lat="43.48928095370189" lon="11.684452679915575"><ele>247.0</ele><time>2026-04-10T13:21:53.002Z</time></trkpt><trkpt lat="43.489348064724524" lon="11.684130711773616"><ele>248.0</ele><time>2026-04-10T13:21:54.002Z</time></trkpt><trkpt lat="43.489415626273406" lon="11.683808562707226"><ele>248.5</ele><time>2026-04-10T13:21:55.002Z</time></trkpt><trkpt lat="43.48948306770468" lon="11.683488693132379"><ele>249.0</ele><time>2026-04-10T13:21:56.002Z</time></trkpt><trkpt lat="43.489551162108015" lon="11.683171501486106"><ele>251.0</ele><time>2026-04-10T13:21:57.002Z</time></trkpt><trkpt lat="43.48961446154634" lon="11.68285009243103"><ele>253.0</ele><time>2026-04-10T13:21:58.002Z</time></trkpt><trkpt lat="43.48968196790584" lon="11.682531031699954"><ele>253.0</ele><time>2026-04-10T13:21:59.002Z</time></trkpt><trkpt lat="43.48974954140761" lon="11.682212322829743"><ele>253.0</ele><time>2026-04-10T13:22:00.002Z</time></trkpt><trkpt lat="43.48981511593775" lon="11.681887945341408"><ele>253.0</ele><time>2026-04-10T13:22:01.002Z</time></trkpt><trkpt lat="43.489885428817594" lon="11.681565852456453"><ele>253.0</ele><time>2026-04-10T13:22:02.002Z</time></trkpt><trkpt lat="43.48995740230398" lon="11.681244890657291"><ele>249.0</ele><time>2026-04-10T13:22:03.002Z</time></trkpt><trkpt lat="43.49002310104427" lon="11.6809193696448"><ele>245.0</ele><time>2026-04-10T13:22:04.002Z</time></trkpt><trkpt lat="43.4900833446431" lon="11.680590518077825"><ele>242.5</ele><time>2026-04-10T13:22:05.002Z</time></trkpt><trkpt lat="43.490148526768394" lon="11.680262562773416"><ele>240.0</ele><time>2026-04-10T13:22:06.002Z</time></trkpt><trkpt lat="43.49021326752262" lon="11.679934400763775"><ele>240.0</ele><time>2026-04-10T13:22:07.002Z</time></trkpt><trkpt lat="43.49028161813307" lon="11.679604572245932"><ele>240.0</ele><time>2026-04-10T13:22:08.002Z</time></trkpt><trkpt lat="43.490355099393504" lon="11.679275308081134"><ele>240.5</ele><time>2026-04-10T13:22:09.002Z</time></trkpt><trkpt lat="43.49042615273636" lon="11.678944817149322"><ele>241.0</ele><time>2026-04-10T13:22:10.002Z</time></trkpt><trkpt lat="43.49841120595063" lon="11.662426805353807"><ele>242.0</ele><time>2026-04-10T13:23:11.001Z</time></trkpt><trkpt lat="43.498524402725614" lon="11.662130564475081"><ele>243.0</ele><time>2026-04-10T13:23:12.001Z</time></trkpt><trkpt lat="43.49863354348206" lon="11.661829941369643"><ele>243.0</ele><time>2026-04-10T13:23:13.001Z</time></trkpt><trkpt lat="43.498738625598165" lon="11.661523084260853"><ele>243.0</ele><time>2026-04-10T13:23:14.001Z</time></trkpt><trkpt lat="43.498844599236925" lon="11.66121879136707"><ele>244.0</ele><time>2026-04-10T13:23:15.001Z</time></trkpt><trkpt lat="43.49895397254234" lon="11.660915785488328"><ele>245.0</ele><time>2026-04-10T13:23:16.001Z</time></trkpt><trkpt lat="43.499061806787296" lon="11.660610070972039"><ele>245.0</ele><time>2026-04-10T13:23:17.001Z</time></trkpt><trkpt lat="43.49917120130809" lon="11.660303521566155"><ele>245.0</ele><time>2026-04-10T13:23:18.001Z</time></trkpt><trkpt lat="43.49928447599509" lon="11.659998605745594"><ele>245.0</ele><time>2026-04-10T13:23:19.001Z</time></trkpt><trkpt lat="43.4993965315389" lon="11.659693317453485"><ele>245.0</ele><time>2026-04-10T13:23:20.001Z</time></trkpt><trkpt lat="43.499508682938945" lon="11.659386001034337"><ele>241.5</ele><time>2026-04-10T13:23:21.001Z</time></trkpt><trkpt lat="43.499618249310885" lon="11.659077673986959"><ele>238.0</ele><time>2026-04-10T13:23:22.001Z</time></trkpt><trkpt lat="43.4997264056741" lon="11.65877447094699"><ele>241.5</ele><time>2026-04-10T13:23:23.001Z</time></trkpt><trkpt lat="43.499837502527775" lon="11.658476620637584"><ele>245.0</ele><time>2026-04-10T13:23:24.001Z</time></trkpt><trkpt lat="43.499955895847876" lon="11.658181892464896"><ele>245.0</ele><time>2026-04-10T13:23:25.001Z</time></trkpt><trkpt lat="43.50008367779485" lon="11.65788600626353"><ele>245.0</ele><time>2026-04-10T13:23:26.001Z</time></trkpt><trkpt lat="43.50020905596015" lon="11.657592518529448"><ele>246.5</ele><time>2026-04-10T13:23:27.001Z</time></trkpt><trkpt lat="43.500336811246164" lon="11.657302699810286"><ele>248.0</ele><time>2026-04-10T13:23:28.001Z</time></trkpt><trkpt lat="43.50046430566649" lon="11.657009865072329"><ele>242.5</ele><time>2026-04-10T13:23:29.001Z</time></trkpt><trkpt lat="43.500594260441716" lon="11.656716072967956"><ele>237.0</ele><time>2026-04-10T13:23:30.001Z</time></trkpt><trkpt lat="43.50073236979484" lon="11.656427626089378"><ele>237.0</ele><time>2026-04-10T13:23:31.001Z</time></trkpt><trkpt lat="43.50087471063473" lon="11.656143210706793"><ele>237.0</ele><time>2026-04-10T13:23:32.001Z</time></trkpt><trkpt lat="43.501019613191055" lon="11.655868191435639"><ele>239.5</ele><time>2026-04-10T13:23:33.001Z</time></trkpt><trkpt lat="43.50116358384598" lon="11.655593043235289"><ele>242.0</ele><time>2026-04-10T13:23:34.001Z</time></trkpt><trkpt lat="43.501308403638404" lon="11.655321396266952"><ele>234.0</ele><time>2026-04-10T13:23:35.001Z</time></trkpt><trkpt lat="43.50145318406018" lon="11.655057560273166"><ele>226.0</ele><time>2026-04-10T13:23:36.001Z</time></trkpt><trkpt lat="43.50160107546768" lon="11.654789061688572"><ele>226.0</ele><time>2026-04-10T13:23:37.001Z</time></trkpt><trkpt lat="43.50174564580005" lon="11.654519571936317"><ele>226.0</ele><time>2026-04-10T13:23:38.001Z</time></trkpt><trkpt lat="43.50189006085559" lon="11.654246396480774"><ele>229.0</ele><time>2026-04-10T13:23:39.001Z</time></trkpt><trkpt lat="43.50204045510999" lon="11.653978769877524"><ele>232.0</ele><time>2026-04-10T13:23:40.001Z</time></trkpt><trkpt lat="43.50218933956104" lon="11.653708945297982"><ele>237.0</ele><time>2026-04-10T13:23:41.001Z</time></trkpt><trkpt lat="43.50233675172518" lon="11.653442803943022"><ele>242.0</ele><time>2026-04-10T13:23:42.002Z</time></trkpt><trkpt lat="43.50248449730769" lon="11.653170995270273"><ele>242.0</ele><time>2026-04-10T13:23:43.002Z</time></trkpt><trkpt lat="43.50263652119825" lon="11.652899898031457"><ele>242.0</ele><time>2026-04-10T13:23:44.002Z</time></trkpt><trkpt lat="43.50278941958153" lon="11.652633262039862"><ele>238.0</ele><time>2026-04-10T13:23:45.002Z</time></trkpt><trkpt lat="43.502936393326124" lon="11.652362906267133"><ele>234.0</ele><time>2026-04-10T13:23:46.002Z</time></trkpt><trkpt lat="43.50308351396772" lon="11.652089792887454"><ele>235.5</ele><time>2026-04-10T13:23:47.002Z</time></trkpt><trkpt lat="43.503232136645" lon="11.651842489109955"><ele>237.0</ele><time>2026-04-10T13:23:48.002Z</time></trkpt><trkpt lat="43.50338193609019" lon="11.651599196733192"><ele>237.0</ele><time>2026-04-10T13:23:49.002Z</time></trkpt><trkpt lat="43.503535243973694" lon="11.651360428104097"><ele>237.0</ele><time>2026-04-10T13:23:50.002Z</time></trkpt><trkpt lat="43.50369387576585" lon="11.651128983501323"><ele>234.5</ele><time>2026-04-10T13:23:51.002Z</time></trkpt><trkpt lat="43.50385821569394" lon="11.650909564685646"><ele>232.0</ele><time>2026-04-10T13:23:52.002Z</time></trkpt><trkpt lat="43.5040218930393" lon="11.650703532793553"><ele>232.0</ele><time>2026-04-10T13:23:53.002Z</time></trkpt><trkpt lat="43.50417508831249" lon="11.650505571809884"><ele>232.0</ele><time>2026-04-10T13:23:54.002Z</time></trkpt><trkpt lat="43.5043222217274" lon="11.650323063062627"><ele>232.0</ele><time>2026-04-10T13:23:55.002Z</time></trkpt><trkpt lat="43.504466133724804" lon="11.650159237175332"><ele>231.0</ele><time>2026-04-10T13:23:56.002Z</time></trkpt><trkpt lat="43.504604795719516" lon="11.650026981906464"><ele>230.0</ele><time>2026-04-10T13:23:57.002Z</time></trkpt><trkpt lat="43.5047283798472" lon="11.649906299250299"><ele>229.0</ele><time>2026-04-10T13:23:58.002Z</time></trkpt><trkpt lat="43.504851862857514" lon="11.64980867393149"><ele>229.0</ele><time>2026-04-10T13:23:59.002Z</time></trkpt><trkpt lat="43.504963493252426" lon="11.649739243180637"><ele>229.0</ele><time>2026-04-10T13:24:00.002Z</time></trkpt><trkpt lat="43.50508866447062" lon="11.649677126884642"><ele>229.0</ele><time>2026-04-10T13:24:01.002Z</time></trkpt><trkpt lat="43.50521855253515" lon="11.649619462895815"><ele>229.0</ele><time>2026-04-10T13:24:02.002Z</time></trkpt><trkpt lat="43.505345986753845" lon="11.649555943941273"><ele>227.75</ele><time>2026-04-10T13:24:03.002Z</time></trkpt><trkpt lat="43.50547442234479" lon="11.649487726659027"><ele>226.5</ele><time>2026-04-10T13:24:04.002Z</time></trkpt><trkpt lat="43.50560328582046" lon="11.64941653261637"><ele>225.25</ele><time>2026-04-10T13:24:05.002Z</time></trkpt><trkpt lat="43.505731853158366" lon="11.649352319237147"><ele>224.0</ele><time>2026-04-10T13:24:06.002Z</time></trkpt><trkpt lat="43.505853520977915" lon="11.649294167815379"><ele>224.0</ele><time>2026-04-10T13:24:07.002Z</time></trkpt><trkpt lat="43.505970268519" lon="11.649226631373867"><ele>224.0</ele><time>2026-04-10T13:24:08.002Z</time></trkpt><trkpt lat="43.506075042746204" lon="11.649163253444462"><ele>224.0</ele><time>2026-04-10T13:24:09.002Z</time></trkpt><trkpt lat="43.50616206648567" lon="11.649109412636788"><ele>224.0</ele><time>2026-04-10T13:24:10.002Z</time></trkpt><trkpt lat="43.506656988438905" lon="11.649035897147494"><ele>224.0</ele><time>2026-04-10T13:25:12.001Z</time></trkpt><trkpt lat="43.50602395841323" lon="11.648889177602014"><ele>224.0</ele><time>2026-04-10T13:30:11.001Z</time></trkpt><trkpt lat="43.50612283708689" lon="11.648823382414196"><ele>224.0</ele><time>2026-04-10T13:30:13.001Z</time></trkpt><trkpt lat="43.50625716868264" lon="11.648719831679532"><ele>224.0</ele><time>2026-04-10T13:30:15.001Z</time></trkpt><trkpt lat="43.50635879273379" lon="11.648632933323414"><ele>224.0</ele><time>2026-04-10T13:30:16.001Z</time></trkpt><trkpt lat="43.50648270151452" lon="11.648550058050866"><ele>219.0</ele><time>2026-04-10T13:30:17.001Z</time></trkpt><trkpt lat="43.506616610813005" lon="11.648447889266071"><ele>214.0</ele><time>2026-04-10T13:30:18.001Z</time></trkpt><trkpt lat="43.50676910433046" lon="11.648336106403942"><ele>209.0</ele><time>2026-04-10T13:30:19.001Z</time></trkpt><trkpt lat="43.506932819466" lon="11.648220564480415"><ele>202.66666666666669</ele><time>2026-04-10T13:30:20.001Z</time></trkpt><trkpt lat="43.50710609761774" lon="11.64809987535289"><ele>196.33333333333334</ele><time>2026-04-10T13:30:21.001Z</time></trkpt><trkpt lat="43.50728898300165" lon="11.647972637955828"><ele>190.0</ele><time>2026-04-10T13:30:22.001Z</time></trkpt><trkpt lat="43.507474771545375" lon="11.647839510809234"><ele>187.5</ele><time>2026-04-10T13:30:23.001Z</time></trkpt><trkpt lat="43.50767112487616" lon="11.647696977503765"><ele>185.0</ele><time>2026-04-10T13:30:24.001Z</time></trkpt><trkpt lat="43.50787781032046" lon="11.647550376824901"><ele>184.5</ele><time>2026-04-10T13:30:25.001Z</time></trkpt><trkpt lat="43.50808653370897" lon="11.6474026375717"><ele>184.0</ele><time>2026-04-10T13:30:26.001Z</time></trkpt><trkpt lat="43.508297540309975" lon="11.647255945147457"><ele>184.0</ele><time>2026-04-10T13:30:27.001Z</time></trkpt><trkpt lat="43.508499837067816" lon="11.647113628567093"><ele>184.0</ele><time>2026-04-10T13:30:28.001Z</time></trkpt><trkpt lat="43.508701728257684" lon="11.646972098352379"><ele>195.66666666666669</ele><time>2026-04-10T13:30:29.001Z</time></trkpt><trkpt lat="43.50890342017634" lon="11.64683148481445"><ele>207.33333333333334</ele><time>2026-04-10T13:30:30.001Z</time></trkpt><trkpt lat="43.509092021037915" lon="11.646695889642519"><ele>219.0</ele><time>2026-04-10T13:30:31.001Z</time></trkpt><trkpt lat="43.509272117762706" lon="11.64656481211865"><ele>219.0</ele><time>2026-04-10T13:30:32.001Z</time></trkpt><trkpt lat="43.50945141767141" lon="11.646438731521256"><ele>219.0</ele><time>2026-04-10T13:30:33.001Z</time></trkpt><trkpt lat="43.50963041445929" lon="11.646318033737995"><ele>219.0</ele><time>2026-04-10T13:30:34.001Z</time></trkpt><trkpt lat="43.5098010181309" lon="11.646201346056223"><ele>225.0</ele><time>2026-04-10T13:30:35.001Z</time></trkpt><trkpt lat="43.50997072335585" lon="11.646083041083081"><ele>231.0</ele><time>2026-04-10T13:30:36.001Z</time></trkpt><trkpt lat="43.51013994890561" lon="11.645959274273116"><ele>237.0</ele><time>2026-04-10T13:30:37.001Z</time></trkpt><trkpt lat="43.51031656435224" lon="11.645828580339566"><ele>237.33333333333331</ele><time>2026-04-10T13:30:38.001Z</time></trkpt><trkpt lat="43.510499325585144" lon="11.645698028712339"><ele>237.66666666666666</ele><time>2026-04-10T13:30:39.001Z</time></trkpt><trkpt lat="43.5106797836637" lon="11.64557187936181"><ele>238.0</ele><time>2026-04-10T13:30:40.001Z</time></trkpt><trkpt lat="43.51085150348921" lon="11.645454629595006"><ele>238.0</ele><time>2026-04-10T13:30:41.001Z</time></trkpt><trkpt lat="43.51102193708331" lon="11.64533634439064"><ele>238.0</ele><time>2026-04-10T13:30:42.001Z</time></trkpt><trkpt lat="43.5111935253071" lon="11.645204409888295"><ele>238.0</ele><time>2026-04-10T13:30:43.001Z</time></trkpt><trkpt lat="43.511371024868296" lon="11.645092132161418"><ele>238.0</ele><time>2026-04-10T13:30:44.001Z</time></trkpt><trkpt lat="43.51154179849876" lon="11.644929750782069"><ele>238.0</ele><time>2026-04-10T13:30:45.001Z</time></trkpt><trkpt lat="43.511700847128544" lon="11.644759916031767"><ele>238.0</ele><time>2026-04-10T13:30:46.001Z</time></trkpt><trkpt lat="43.51186078098345" lon="11.64457623808135"><ele>237.0</ele><time>2026-04-10T13:30:47.001Z</time></trkpt><trkpt lat="43.51200990870995" lon="11.644385319591828"><ele>236.0</ele><time>2026-04-10T13:30:48.001Z</time></trkpt><trkpt lat="43.512149015226306" lon="11.64419413233032"><ele>235.0</ele><time>2026-04-10T13:30:49.001Z</time></trkpt><trkpt lat="43.51228666973453" lon="11.643982915980699"><ele>234.66666666666666</ele><time>2026-04-10T13:30:50.001Z</time></trkpt><trkpt lat="43.512414219230216" lon="11.643760862978501"><ele>234.33333333333331</ele><time>2026-04-10T13:30:51.001Z</time></trkpt><trkpt lat="43.51253175779751" lon="11.643522882605202"><ele>234.0</ele><time>2026-04-10T13:30:52.001Z</time></trkpt><trkpt lat="43.51264644620966" lon="11.643268218322582"><ele>233.33333333333331</ele><time>2026-04-10T13:30:53.001Z</time></trkpt><trkpt lat="43.512749923668835" lon="11.643003924227964"><ele>232.66666666666666</ele><time>2026-04-10T13:30:54.001Z</time></trkpt><trkpt lat="43.5128388138093" lon="11.642741634296808"><ele>232.0</ele><time>2026-04-10T13:30:55.001Z</time></trkpt><trkpt lat="43.51291814765163" lon="11.642472007032053"><ele>231.0</ele><time>2026-04-10T13:30:56.001Z</time></trkpt><trkpt lat="43.51298722083369" lon="11.6421964963355"><ele>230.0</ele><time>2026-04-10T13:30:57.001Z</time></trkpt><trkpt lat="43.51304475465236" lon="11.641918832167242"><ele>229.0</ele><time>2026-04-10T13:30:58.001Z</time></trkpt><trkpt lat="43.513087004905046" lon="11.641634451135204"><ele>229.0</ele><time>2026-04-10T13:30:59.001Z</time></trkpt><trkpt lat="43.51311850335074" lon="11.641343623315837"><ele>229.0</ele><time>2026-04-10T13:31:00.001Z</time></trkpt><trkpt lat="43.51315120646436" lon="11.64104416575004"><ele>229.0</ele><time>2026-04-10T13:31:01.001Z</time></trkpt><trkpt lat="43.51319041946691" lon="11.640750441118087"><ele>227.0</ele><time>2026-04-10T13:31:02.001Z</time></trkpt><trkpt lat="43.51324374643952" lon="11.640456007519772"><ele>225.0</ele><time>2026-04-10T13:31:03.001Z</time></trkpt><trkpt lat="43.513290148476564" lon="11.640156418707969"><ele>223.0</ele><time>2026-04-10T13:31:04.001Z</time></trkpt><trkpt lat="43.51334589263833" lon="11.639858291112201"><ele>222.0</ele><time>2026-04-10T13:31:05.001Z</time></trkpt><trkpt lat="43.513421657029774" lon="11.639563990595132"><ele>221.0</ele><time>2026-04-10T13:31:06.001Z</time></trkpt><trkpt lat="43.51351275169849" lon="11.639271081547715"><ele>218.5</ele><time>2026-04-10T13:31:07.001Z</time></trkpt><trkpt lat="43.513606569116845" lon="11.638975493247058"><ele>216.0</ele><time>2026-04-10T13:31:08.001Z</time></trkpt><trkpt lat="43.513707439449796" lon="11.638686244815899"><ele>216.0</ele><time>2026-04-10T13:31:09.001Z</time></trkpt><trkpt lat="43.51381351649993" lon="11.638400476230267"><ele>216.0</ele><time>2026-04-10T13:31:10.001Z</time></trkpt><trkpt lat="43.51480670129999" lon="11.618128742360026"><ele>185.0</ele><time>2026-04-10T13:32:11.001Z</time></trkpt><trkpt lat="43.51484533180937" lon="11.61777011642906"><ele>154.0</ele><time>2026-04-10T13:32:12.001Z</time></trkpt><trkpt lat="43.514889420976836" lon="11.617413534656476"><ele>154.0</ele><time>2026-04-10T13:32:13.001Z</time></trkpt><trkpt lat="43.514938623141404" lon="11.617060746300673"><ele>154.0</ele><time>2026-04-10T13:32:14.001Z</time></trkpt><trkpt lat="43.51498743957509" lon="11.61672370828823"><ele>152.0</ele><time>2026-04-10T13:32:15.001Z</time></trkpt><trkpt lat="43.515039678465136" lon="11.616388131349355"><ele>150.0</ele><time>2026-04-10T13:32:16.001Z</time></trkpt><trkpt lat="43.515100592108936" lon="11.616049410646466"><ele>148.5</ele><time>2026-04-10T13:32:17.001Z</time></trkpt><trkpt lat="43.51516453753254" lon="11.615719694098855"><ele>147.0</ele><time>2026-04-10T13:32:18.001Z</time></trkpt><trkpt lat="43.51522939094834" lon="11.61540700512702"><ele>147.0</ele><time>2026-04-10T13:32:19.001Z</time></trkpt><trkpt lat="43.51529399529434" lon="11.61508273259021"><ele>147.0</ele><time>2026-04-10T13:32:20.001Z</time></trkpt><trkpt lat="43.51536577408091" lon="11.614752766301057"><ele>151.0</ele><time>2026-04-10T13:32:21.001Z</time></trkpt><trkpt lat="43.51544245051318" lon="11.614418789449859"><ele>155.0</ele><time>2026-04-10T13:32:22.001Z</time></trkpt><trkpt lat="43.51552934078241" lon="11.61408067823008"><ele>155.0</ele><time>2026-04-10T13:32:23.001Z</time></trkpt><trkpt lat="43.515627629012535" lon="11.613745196633847"><ele>155.0</ele><time>2026-04-10T13:32:24.001Z</time></trkpt><trkpt lat="43.515733569096604" lon="11.613402729640288"><ele>152.5</ele><time>2026-04-10T13:32:25.001Z</time></trkpt><trkpt lat="43.51584859641489" lon="11.613058047577475"><ele>150.0</ele><time>2026-04-10T13:32:26.001Z</time></trkpt><trkpt lat="43.51597404388969" lon="11.612721985050154"><ele>149.0</ele><time>2026-04-10T13:32:27.001Z</time></trkpt><trkpt lat="43.51609671071243" lon="11.612379899625237"><ele>148.0</ele><time>2026-04-10T13:32:28.001Z</time></trkpt><trkpt lat="43.51623522451731" lon="11.612052123182767"><ele>150.5</ele><time>2026-04-10T13:32:29.001Z</time></trkpt><trkpt lat="43.51638507550006" lon="11.611736105734082"><ele>153.0</ele><time>2026-04-10T13:32:30.001Z</time></trkpt><trkpt lat="43.51654407729692" lon="11.6114360307437"><ele>152.0</ele><time>2026-04-10T13:32:31.001Z</time></trkpt><trkpt lat="43.516662444503396" lon="11.611055470341894"><ele>151.0</ele><time>2026-04-10T13:32:32.001Z</time></trkpt><trkpt lat="43.51681058931095" lon="11.610723001510085"><ele>151.0</ele><time>2026-04-10T13:32:33.001Z</time></trkpt><trkpt lat="43.51696531142813" lon="11.61040370389287"><ele>151.0</ele><time>2026-04-10T13:32:34.001Z</time></trkpt><trkpt lat="43.51713913017492" lon="11.61010778953488"><ele>152.0</ele><time>2026-04-10T13:32:35.001Z</time></trkpt><trkpt lat="43.51731015272158" lon="11.609812996606239"><ele>153.0</ele><time>2026-04-10T13:32:36.001Z</time></trkpt><trkpt lat="43.5174809433785" lon="11.609527833771857"><ele>152.0</ele><time>2026-04-10T13:32:37.001Z</time></trkpt><trkpt lat="43.51765456619287" lon="11.609259199405251"><ele>151.0</ele><time>2026-04-10T13:32:38.001Z</time></trkpt><trkpt lat="43.51782595791784" lon="11.60900220482214"><ele>150.66666666666669</ele><time>2026-04-10T13:32:39.001Z</time></trkpt><trkpt lat="43.517985940329" lon="11.608763488736635"><ele>150.33333333333334</ele><time>2026-04-10T13:32:40.001Z</time></trkpt><trkpt lat="43.518122886231495" lon="11.60854269589853"><ele>150.0</ele><time>2026-04-10T13:32:41.001Z</time></trkpt><trkpt lat="43.51824864650649" lon="11.608331667789521"><ele>150.0</ele><time>2026-04-10T13:32:42.001Z</time></trkpt><trkpt lat="43.518360586994454" lon="11.608140190863026"><ele>150.0</ele><time>2026-04-10T13:32:43.001Z</time></trkpt><trkpt lat="43.5184615879531" lon="11.607978844160675"><ele>150.0</ele><time>2026-04-10T13:32:44.001Z</time></trkpt><trkpt lat="43.51853597533309" lon="11.607846188290793"><ele>150.4</ele><time>2026-04-10T13:32:45.001Z</time></trkpt><trkpt lat="43.51860330706231" lon="11.607735899533639"><ele>150.8</ele><time>2026-04-10T13:32:46.001Z</time></trkpt><trkpt lat="43.518666864308045" lon="11.607635196509886"><ele>151.2</ele><time>2026-04-10T13:32:47.001Z</time></trkpt><trkpt lat="43.51874408495723" lon="11.6075160311058"><ele>151.6</ele><time>2026-04-10T13:32:49.001Z</time></trkpt><trkpt lat="43.51879860206666" lon="11.607428907305925"><ele>152.0</ele><time>2026-04-10T13:32:51.001Z</time></trkpt><trkpt lat="43.52382848402587" lon="11.598903682860367"><ele>150.33333333333331</ele><time>2026-04-10T13:34:11.001Z</time></trkpt><trkpt lat="43.523969029476234" lon="11.598660866581401"><ele>148.66666666666666</ele><time>2026-04-10T13:34:12.001Z</time></trkpt><trkpt lat="43.52410184998707" lon="11.59842631037969"><ele>147.0</ele><time>2026-04-10T13:34:13.001Z</time></trkpt><trkpt lat="43.52422887531367" lon="11.5981950058263"><ele>147.0</ele><time>2026-04-10T13:34:14.001Z</time></trkpt><trkpt lat="43.52435302038255" lon="11.597970107445668"><ele>147.0</ele><time>2026-04-10T13:34:15.001Z</time></trkpt><trkpt lat="43.52447587758298" lon="11.597753018952288"><ele>147.0</ele><time>2026-04-10T13:34:16.001Z</time></trkpt><trkpt lat="43.52459497328813" lon="11.597539580321035"><ele>146.33333333333334</ele><time>2026-04-10T13:34:17.001Z</time></trkpt><trkpt lat="43.524708526944494" lon="11.597330099894203"><ele>145.66666666666669</ele><time>2026-04-10T13:34:18.001Z</time></trkpt><trkpt lat="43.52482219135365" lon="11.597128466768794"><ele>145.0</ele><time>2026-04-10T13:34:19.001Z</time></trkpt><trkpt lat="43.52493377691935" lon="11.596933912013647"><ele>145.0</ele><time>2026-04-10T13:34:20.001Z</time></trkpt><trkpt lat="43.52504212597733" lon="11.596745039204183"><ele>145.0</ele><time>2026-04-10T13:34:21.001Z</time></trkpt><trkpt lat="43.525147985844804" lon="11.596563338057644"><ele>145.0</ele><time>2026-04-10T13:34:22.001Z</time></trkpt><trkpt lat="43.52525630773642" lon="11.59638611938396"><ele>145.0</ele><time>2026-04-10T13:34:23.001Z</time></trkpt><trkpt lat="43.52535698500343" lon="11.596209996965863"><ele>145.0</ele><time>2026-04-10T13:34:24.001Z</time></trkpt><trkpt lat="43.52545479638415" lon="11.596036668923686"><ele>145.0</ele><time>2026-04-10T13:34:25.001Z</time></trkpt><trkpt lat="43.52555019066062" lon="11.595866354960515"><ele>145.0</ele><time>2026-04-10T13:34:26.001Z</time></trkpt><trkpt lat="43.52564401667558" lon="11.595704276179257"><ele>145.0</ele><time>2026-04-10T13:34:27.001Z</time></trkpt><trkpt lat="43.52573608232987" lon="11.595545859824437"><ele>145.0</ele><time>2026-04-10T13:34:28.001Z</time></trkpt><trkpt lat="43.52581979066848" lon="11.595385783738328"><ele>145.0</ele><time>2026-04-10T13:34:29.001Z</time></trkpt><trkpt lat="43.525904288104726" lon="11.59523259108118"><ele>145.0</ele><time>2026-04-10T13:34:30.001Z</time></trkpt><trkpt lat="43.52598570650988" lon="11.59508720811004"><ele>145.0</ele><time>2026-04-10T13:34:31.001Z</time></trkpt><trkpt lat="43.52606233532689" lon="11.594952447424157"><ele>145.0</ele><time>2026-04-10T13:34:32.001Z</time></trkpt><trkpt lat="43.526137894542295" lon="11.594821823751916"><ele>145.0</ele><time>2026-04-10T13:34:33.001Z</time></trkpt><trkpt lat="43.52620910447095" lon="11.594696034624432"><ele>145.2</ele><time>2026-04-10T13:34:34.001Z</time></trkpt><trkpt lat="43.52627715837648" lon="11.594570488640391"><ele>145.4</ele><time>2026-04-10T13:34:35.001Z</time></trkpt><trkpt lat="43.52634402950247" lon="11.594448060261572"><ele>145.6</ele><time>2026-04-10T13:34:36.001Z</time></trkpt><trkpt lat="43.52641041149304" lon="11.594330075260944"><ele>145.8</ele><time>2026-04-10T13:34:37.001Z</time></trkpt><trkpt lat="43.52647510011416" lon="11.59421522076541"><ele>146.0</ele><time>2026-04-10T13:34:38.001Z</time></trkpt><trkpt lat="43.52653874543675" lon="11.594102992490003"><ele>146.0</ele><time>2026-04-10T13:34:39.001Z</time></trkpt><trkpt lat="43.52660092074143" lon="11.593993576127444"><ele>146.0</ele><time>2026-04-10T13:34:40.001Z</time></trkpt><trkpt lat="43.526660926252454" lon="11.593885833138053"><ele>146.0</ele><time>2026-04-10T13:34:41.001Z</time></trkpt><trkpt lat="43.526719124928526" lon="11.593783123588384"><ele>146.0</ele><time>2026-04-10T13:34:42.001Z</time></trkpt><trkpt lat="43.526776963376555" lon="11.59368338994553"><ele>146.0</ele><time>2026-04-10T13:34:43.001Z</time></trkpt><trkpt lat="43.52684256736547" lon="11.593593414128158"><ele>146.0</ele><time>2026-04-10T13:34:44.001Z</time></trkpt><trkpt lat="43.52690300689517" lon="11.59350620065298"><ele>146.0</ele><time>2026-04-10T13:34:45.001Z</time></trkpt><trkpt lat="43.52694747233486" lon="11.59339685478331"><ele>146.0</ele><time>2026-04-10T13:34:46.001Z</time></trkpt><trkpt lat="43.52699430278777" lon="11.593312537531887"><ele>146.0</ele><time>2026-04-10T13:34:47.001Z</time></trkpt><trkpt lat="43.52705218894132" lon="11.593208386158981"><ele>146.0</ele><time>2026-04-10T13:34:49.001Z</time></trkpt><trkpt lat="43.52709130968741" lon="11.593137998241582"><ele>146.0</ele><time>2026-04-10T13:34:55.001Z</time></trkpt><trkpt lat="43.53151035415616" lon="11.585082952814076"><ele>145.0</ele><time>2026-04-10T13:37:10.999Z</time></trkpt><trkpt lat="43.531654539460035" lon="11.58482368008413"><ele>144.0</ele><time>2026-04-10T13:37:11.999Z</time></trkpt><trkpt lat="43.53179529566761" lon="11.58456661275665"><ele>143.5</ele><time>2026-04-10T13:37:12.999Z</time></trkpt><trkpt lat="43.53193836239025" lon="11.584307615411102"><ele>143.0</ele><time>2026-04-10T13:37:13.999Z</time></trkpt><trkpt lat="43.532081182009954" lon="11.584055595112746"><ele>143.0</ele><time>2026-04-10T13:37:14.999Z</time></trkpt><trkpt lat="43.5322223924348" lon="11.58379892327073"><ele>143.0</ele><time>2026-04-10T13:37:16Z</time></trkpt><trkpt lat="43.53236254770775" lon="11.58354377485628"><ele>143.0</ele><time>2026-04-10T13:37:17Z</time></trkpt><trkpt lat="43.53250336923958" lon="11.58329469605403"><ele>143.0</ele><time>2026-04-10T13:37:18Z</time></trkpt><trkpt lat="43.532642816294405" lon="11.583046598499212"><ele>143.0</ele><time>2026-04-10T13:37:19Z</time></trkpt><trkpt lat="43.532781392172595" lon="11.582794903682775"><ele>143.0</ele><time>2026-04-10T13:37:20Z</time></trkpt><trkpt lat="43.53292054349423" lon="11.58254204617098"><ele>143.0</ele><time>2026-04-10T13:37:21Z</time></trkpt><trkpt lat="43.533058295801034" lon="11.582290960997533"><ele>143.0</ele><time>2026-04-10T13:37:22Z</time></trkpt><trkpt lat="43.53319723263622" lon="11.582039464680536"><ele>142.0</ele><time>2026-04-10T13:37:23Z</time></trkpt><trkpt lat="43.53334125673882" lon="11.581782422036795"><ele>141.0</ele><time>2026-04-10T13:37:24Z</time></trkpt><trkpt lat="43.53348313982821" lon="11.581529934882779"><ele>141.0</ele><time>2026-04-10T13:37:25Z</time></trkpt><trkpt lat="43.53362675632789" lon="11.581280002619483"><ele>141.0</ele><time>2026-04-10T13:37:26Z</time></trkpt><trkpt lat="43.53376722747379" lon="11.581028973226827"><ele>142.0</ele><time>2026-04-10T13:37:27Z</time></trkpt><trkpt lat="43.53390586838961" lon="11.58077558664992"><ele>143.0</ele><time>2026-04-10T13:37:28Z</time></trkpt><trkpt lat="43.534044476639885" lon="11.58052217416692"><ele>143.5</ele><time>2026-04-10T13:37:29Z</time></trkpt><trkpt lat="43.534187463594165" lon="11.580268152706426"><ele>144.0</ele><time>2026-04-10T13:37:30Z</time></trkpt><trkpt lat="43.534327282829665" lon="11.580017753315811"><ele>144.0</ele><time>2026-04-10T13:37:31Z</time></trkpt><trkpt lat="43.53446681675195" lon="11.579765266659948"><ele>144.0</ele><time>2026-04-10T13:37:32Z</time></trkpt><trkpt lat="43.53460785586894" lon="11.579512237124755"><ele>142.5</ele><time>2026-04-10T13:37:33Z</time></trkpt><trkpt lat="43.53474821194177" lon="11.579255487379042"><ele>141.0</ele><time>2026-04-10T13:37:34Z</time></trkpt><trkpt lat="43.534889634933045" lon="11.578997412705968"><ele>141.0</ele><time>2026-04-10T13:37:35Z</time></trkpt><trkpt lat="43.535030410258514" lon="11.578741587898776"><ele>141.0</ele><time>2026-04-10T13:37:36Z</time></trkpt><trkpt lat="43.53517081251701" lon="11.57848663847822"><ele>141.0</ele><time>2026-04-10T13:37:37Z</time></trkpt><trkpt lat="43.535314262354916" lon="11.578231989870353"><ele>141.0</ele><time>2026-04-10T13:37:38Z</time></trkpt><trkpt lat="43.53545808617815" lon="11.577978559550289"><ele>141.0</ele><time>2026-04-10T13:37:39Z</time></trkpt><trkpt lat="43.53559965246333" lon="11.577724659944586"><ele>141.0</ele><time>2026-04-10T13:37:40Z</time></trkpt><trkpt lat="43.5357406357135" lon="11.57747089676502"><ele>141.0</ele><time>2026-04-10T13:37:41Z</time></trkpt><trkpt lat="43.53588202365898" lon="11.57721450541846"><ele>141.0</ele><time>2026-04-10T13:37:42Z</time></trkpt><trkpt lat="43.53602376793286" lon="11.576959327385296"><ele>141.0</ele><time>2026-04-10T13:37:43Z</time></trkpt><trkpt lat="43.53616783279861" lon="11.576703767076731"><ele>141.0</ele><time>2026-04-10T13:37:44Z</time></trkpt><trkpt lat="43.536310637302776" lon="11.576447116767532"><ele>141.0</ele><time>2026-04-10T13:37:45Z</time></trkpt><trkpt lat="43.536454275813725" lon="11.576189359686659"><ele>141.0</ele><time>2026-04-10T13:37:46Z</time></trkpt><trkpt lat="43.536592048173155" lon="11.575929744947418"><ele>141.0</ele><time>2026-04-10T13:37:47Z</time></trkpt><trkpt lat="43.53673602504085" lon="11.575673113397796"><ele>141.0</ele><time>2026-04-10T13:37:48Z</time></trkpt><trkpt lat="43.53687955440924" lon="11.575416876834803"><ele>141.0</ele><time>2026-04-10T13:37:49Z</time></trkpt><trkpt lat="43.537028121414025" lon="11.57516066734935"><ele>141.0</ele><time>2026-04-10T13:37:50Z</time></trkpt><trkpt lat="43.53717190582667" lon="11.574900840861474"><ele>141.0</ele><time>2026-04-10T13:37:51Z</time></trkpt><trkpt lat="43.53731475091133" lon="11.574640098395314"><ele>141.0</ele><time>2026-04-10T13:37:52Z</time></trkpt><trkpt lat="43.537455170130265" lon="11.574381393622307"><ele>142.0</ele><time>2026-04-10T13:37:53Z</time></trkpt><trkpt lat="43.53759670762902" lon="11.57412262020262"><ele>143.0</ele><time>2026-04-10T13:37:54Z</time></trkpt><trkpt lat="43.53774297148416" lon="11.573860878120952"><ele>142.5</ele><time>2026-04-10T13:37:55Z</time></trkpt><trkpt lat="43.53788938711132" lon="11.573600878208019"><ele>142.0</ele><time>2026-04-10T13:37:56Z</time></trkpt><trkpt lat="43.538037717015094" lon="11.57334207498722"><ele>142.0</ele><time>2026-04-10T13:37:57Z</time></trkpt><trkpt lat="43.53818007043415" lon="11.573097270664684"><ele>142.0</ele><time>2026-04-10T13:37:58Z</time></trkpt><trkpt lat="43.53831860963985" lon="11.57286035580532"><ele>142.0</ele><time>2026-04-10T13:37:59Z</time></trkpt><trkpt lat="43.53845761292579" lon="11.572623183864025"><ele>142.0</ele><time>2026-04-10T13:38:00Z</time></trkpt><trkpt lat="43.538595475585026" lon="11.572387642117906"><ele>142.0</ele><time>2026-04-10T13:38:01Z</time></trkpt><trkpt lat="43.5387361378219" lon="11.572149918563282"><ele>142.0</ele><time>2026-04-10T13:38:02Z</time></trkpt><trkpt lat="43.53887783816387" lon="11.571906081223245"><ele>140.5</ele><time>2026-04-10T13:38:03Z</time></trkpt><trkpt lat="43.539029502856415" lon="11.571670373190754"><ele>139.0</ele><time>2026-04-10T13:38:04Z</time></trkpt><trkpt lat="43.539182489866064" lon="11.571428577670646"><ele>138.5</ele><time>2026-04-10T13:38:05Z</time></trkpt><trkpt lat="43.53933920403425" lon="11.571180976930597"><ele>138.0</ele><time>2026-04-10T13:38:06Z</time></trkpt><trkpt lat="43.5394968295247" lon="11.57093028542616"><ele>139.5</ele><time>2026-04-10T13:38:07Z</time></trkpt><trkpt lat="43.53965644624418" lon="11.570683349357438"><ele>141.0</ele><time>2026-04-10T13:38:08Z</time></trkpt><trkpt lat="43.539816114809675" lon="11.570450336679942"><ele>140.5</ele><time>2026-04-10T13:38:09Z</time></trkpt><trkpt lat="43.53997405349944" lon="11.57020237662968"><ele>140.0</ele><time>2026-04-10T13:38:10Z</time></trkpt><trkpt lat="43.549647287142086" lon="11.556099903886237"><ele>138.5</ele><time>2026-04-10T13:39:11.001Z</time></trkpt><trkpt lat="43.54980959392113" lon="11.555860491178379"><ele>137.0</ele><time>2026-04-10T13:39:12.001Z</time></trkpt><trkpt lat="43.5499757074451" lon="11.55561866583228"><ele>137.0</ele><time>2026-04-10T13:39:13.001Z</time></trkpt><trkpt lat="43.55014161498143" lon="11.55537678545958"><ele>137.0</ele><time>2026-04-10T13:39:13.999Z</time></trkpt><trkpt lat="43.5503060970924" lon="11.555133967556863"><ele>137.0</ele><time>2026-04-10T13:39:14.999Z</time></trkpt><trkpt lat="43.55046357597938" lon="11.5548999510964"><ele>137.0</ele><time>2026-04-10T13:39:15.999Z</time></trkpt><trkpt lat="43.55061774582994" lon="11.554673672912926"><ele>137.5</ele><time>2026-04-10T13:39:16.999Z</time></trkpt><trkpt lat="43.55077361852234" lon="11.554447901192018"><ele>138.0</ele><time>2026-04-10T13:39:17.999Z</time></trkpt><trkpt lat="43.55092991697028" lon="11.554223924838706"><ele>138.0</ele><time>2026-04-10T13:39:18.999Z</time></trkpt><trkpt lat="43.55108794118804" lon="11.554000351408547"><ele>138.0</ele><time>2026-04-10T13:39:19.999Z</time></trkpt><trkpt lat="43.55124189683921" lon="11.553773260101305"><ele>138.0</ele><time>2026-04-10T13:39:20.999Z</time></trkpt><trkpt lat="43.5513978610068" lon="11.553544432445127"><ele>138.0</ele><time>2026-04-10T13:39:21.999Z</time></trkpt><trkpt lat="43.551557450077524" lon="11.553312291613718"><ele>138.0</ele><time>2026-04-10T13:39:22.999Z</time></trkpt><trkpt lat="43.551719993380225" lon="11.553073703313778"><ele>138.0</ele><time>2026-04-10T13:39:23.999Z</time></trkpt><trkpt lat="43.55188663414528" lon="11.552832428349728"><ele>137.5</ele><time>2026-04-10T13:39:24.999Z</time></trkpt><trkpt lat="43.55205390066867" lon="11.552590801441145"><ele>137.0</ele><time>2026-04-10T13:39:25.999Z</time></trkpt><trkpt lat="43.5522210963722" lon="11.552345709257416"><ele>137.0</ele><time>2026-04-10T13:39:26.999Z</time></trkpt><trkpt lat="43.55238513089864" lon="11.552099964926615"><ele>137.0</ele><time>2026-04-10T13:39:27.999Z</time></trkpt><trkpt lat="43.55253903388076" lon="11.551858720931527"><ele>136.0</ele><time>2026-04-10T13:39:28.999Z</time></trkpt><trkpt lat="43.55268668021027" lon="11.551614998500213"><ele>135.0</ele><time>2026-04-10T13:39:29.999Z</time></trkpt><trkpt lat="43.55284105260967" lon="11.551358210432834"><ele>135.5</ele><time>2026-04-10T13:39:30.999Z</time></trkpt><trkpt lat="43.55299741908055" lon="11.551098286508816"><ele>136.0</ele><time>2026-04-10T13:39:31.999Z</time></trkpt><trkpt lat="43.55315706673296" lon="11.550830678919239"><ele>136.0</ele><time>2026-04-10T13:39:32.999Z</time></trkpt><trkpt lat="43.5533177811397" lon="11.550557003244293"><ele>136.0</ele><time>2026-04-10T13:39:33.999Z</time></trkpt><trkpt lat="43.55347973920664" lon="11.550279916553437"><ele>136.0</ele><time>2026-04-10T13:39:34.999Z</time></trkpt><trkpt lat="43.55364518653308" lon="11.55000067844362"><ele>136.0</ele><time>2026-04-10T13:39:35.999Z</time></trkpt><trkpt lat="43.55380879167441" lon="11.549717061387554"><ele>135.0</ele><time>2026-04-10T13:39:37Z</time></trkpt><trkpt lat="43.55397351959545" lon="11.549426361858638"><ele>134.0</ele><time>2026-04-10T13:39:38Z</time></trkpt><trkpt lat="43.55413293625433" lon="11.549131113887157"><ele>134.0</ele><time>2026-04-10T13:39:39Z</time></trkpt><trkpt lat="43.554288384246625" lon="11.548838280753145"><ele>134.0</ele><time>2026-04-10T13:39:40Z</time></trkpt><trkpt lat="43.55444149786007" lon="11.548542190070076"><ele>135.5</ele><time>2026-04-10T13:39:41Z</time></trkpt><trkpt lat="43.55459143486759" lon="11.548246226641291"><ele>137.0</ele><time>2026-04-10T13:39:42Z</time></trkpt><trkpt lat="43.55474786249559" lon="11.547964487348194"><ele>136.5</ele><time>2026-04-10T13:39:43Z</time></trkpt><trkpt lat="43.55490671449237" lon="11.547679951118088"><ele>136.0</ele><time>2026-04-10T13:39:44Z</time></trkpt><trkpt lat="43.55506039560495" lon="11.547394449302754"><ele>136.0</ele><time>2026-04-10T13:39:45Z</time></trkpt><trkpt lat="43.555211298565546" lon="11.547111062287142"><ele>136.0</ele><time>2026-04-10T13:39:46Z</time></trkpt><trkpt lat="43.555364910581545" lon="11.546834414395075"><ele>139.5</ele><time>2026-04-10T13:39:47Z</time></trkpt><trkpt lat="43.555523784020295" lon="11.546562721415597"><ele>143.0</ele><time>2026-04-10T13:39:48Z</time></trkpt><trkpt lat="43.555681320453076" lon="11.546295273116336"><ele>140.5</ele><time>2026-04-10T13:39:49Z</time></trkpt><trkpt lat="43.55583968128435" lon="11.546029621588113"><ele>138.0</ele><time>2026-04-10T13:39:50Z</time></trkpt><trkpt lat="43.55600167147675" lon="11.545766126198236"><ele>138.0</ele><time>2026-04-10T13:39:51Z</time></trkpt><trkpt lat="43.556168913673645" lon="11.545506987572983"><ele>138.0</ele><time>2026-04-10T13:39:52Z</time></trkpt><trkpt lat="43.55633989790961" lon="11.545251916574918"><ele>139.5</ele><time>2026-04-10T13:39:53Z</time></trkpt><trkpt lat="43.55651332979772" lon="11.54499944893173"><ele>141.0</ele><time>2026-04-10T13:39:54Z</time></trkpt><trkpt lat="43.55668857196795" lon="11.544751360577811"><ele>139.5</ele><time>2026-04-10T13:39:55Z</time></trkpt><trkpt lat="43.55685630253097" lon="11.544511098835624"><ele>138.0</ele><time>2026-04-10T13:39:56Z</time></trkpt><trkpt lat="43.55702035638954" lon="11.544278571115116"><ele>139.0</ele><time>2026-04-10T13:39:57Z</time></trkpt><trkpt lat="43.55718263560174" lon="11.544042510031735"><ele>140.0</ele><time>2026-04-10T13:39:58Z</time></trkpt><trkpt lat="43.55735128225712" lon="11.543810999105357"><ele>138.5</ele><time>2026-04-10T13:39:59Z</time></trkpt><trkpt lat="43.55752071664824" lon="11.54358164921374"><ele>137.0</ele><time>2026-04-10T13:40:00Z</time></trkpt><trkpt lat="43.55769314976779" lon="11.543366661212108"><ele>137.0</ele><time>2026-04-10T13:40:01Z</time></trkpt><trkpt lat="43.557871968119066" lon="11.543165474215394"><ele>137.0</ele><time>2026-04-10T13:40:02Z</time></trkpt><trkpt lat="43.55805851298016" lon="11.542980073383967"><ele>136.5</ele><time>2026-04-10T13:40:03Z</time></trkpt><trkpt lat="43.55825655282042" lon="11.542814381834663"><ele>136.0</ele><time>2026-04-10T13:40:04Z</time></trkpt><trkpt lat="43.55845917680717" lon="11.542667365233324"><ele>136.0</ele><time>2026-04-10T13:40:05Z</time></trkpt><trkpt lat="43.558671037812346" lon="11.542539015542157"><ele>136.0</ele><time>2026-04-10T13:40:06Z</time></trkpt><trkpt lat="43.55888591452988" lon="11.54242767649519"><ele>136.5</ele><time>2026-04-10T13:40:07Z</time></trkpt><trkpt lat="43.55910479618959" lon="11.542335617722262"><ele>137.0</ele><time>2026-04-10T13:40:08Z</time></trkpt><trkpt lat="43.55933460047602" lon="11.542266619630691"><ele>136.0</ele><time>2026-04-10T13:40:09Z</time></trkpt><trkpt lat="43.55956937600556" lon="11.542219285248594"><ele>135.0</ele><time>2026-04-10T13:40:10Z</time></trkpt><trkpt lat="43.57202477916488" lon="11.540474561884311"><ele>135.5</ele><time>2026-04-10T13:41:11Z</time></trkpt><trkpt lat="43.57220889638169" lon="11.54029151465816"><ele>136.0</ele><time>2026-04-10T13:41:12Z</time></trkpt><trkpt lat="43.572386339677145" lon="11.540099265111682"><ele>136.0</ele><time>2026-04-10T13:41:13Z</time></trkpt><trkpt lat="43.57256236710922" lon="11.539902737042123"><ele>136.0</ele><time>2026-04-10T13:41:14Z</time></trkpt><trkpt lat="43.57273670631588" lon="11.539703792593066"><ele>135.5</ele><time>2026-04-10T13:41:15.001Z</time></trkpt><trkpt lat="43.572907284821014" lon="11.539501645267666"><ele>135.0</ele><time>2026-04-10T13:41:16.001Z</time></trkpt><trkpt lat="43.57307599199962" lon="11.539288602139848"><ele>135.0</ele><time>2026-04-10T13:41:17.001Z</time></trkpt><trkpt lat="43.573245542656714" lon="11.539079009115941"><ele>135.0</ele><time>2026-04-10T13:41:18.001Z</time></trkpt><trkpt lat="43.573411446649665" lon="11.53886433305956"><ele>134.5</ele><time>2026-04-10T13:41:19.001Z</time></trkpt><trkpt lat="43.57357865066069" lon="11.53864184303473"><ele>134.0</ele><time>2026-04-10T13:41:19.999Z</time></trkpt><trkpt lat="43.57374626832302" lon="11.538418724020453"><ele>135.0</ele><time>2026-04-10T13:41:20.999Z</time></trkpt><trkpt lat="43.5739109879607" lon="11.538192440891242"><ele>136.0</ele><time>2026-04-10T13:41:21.999Z</time></trkpt><trkpt lat="43.57407437007972" lon="11.537967028589675"><ele>135.5</ele><time>2026-04-10T13:41:22.999Z</time></trkpt><trkpt lat="43.57423813132293" lon="11.53774025588862"><ele>135.0</ele><time>2026-04-10T13:41:23.999Z</time></trkpt><trkpt lat="43.57440219894739" lon="11.537508561105094"><ele>135.5</ele><time>2026-04-10T13:41:24.999Z</time></trkpt><trkpt lat="43.574566128306294" lon="11.53727541212809"><ele>136.0</ele><time>2026-04-10T13:41:25.999Z</time></trkpt><trkpt lat="43.57472766265704" lon="11.537038014622086"><ele>136.0</ele><time>2026-04-10T13:41:26.999Z</time></trkpt><trkpt lat="43.57489253240941" lon="11.53679590207053"><ele>136.0</ele><time>2026-04-10T13:41:27.999Z</time></trkpt><trkpt lat="43.575060782147176" lon="11.536553712537636"><ele>136.0</ele><time>2026-04-10T13:41:28.999Z</time></trkpt><trkpt lat="43.575227889205046" lon="11.53631433964596"><ele>136.0</ele><time>2026-04-10T13:41:29.999Z</time></trkpt><trkpt lat="43.5753934808165" lon="11.536076933017887"><ele>136.0</ele><time>2026-04-10T13:41:30.999Z</time></trkpt><trkpt lat="43.57555496719487" lon="11.535848465827085"><ele>136.0</ele><time>2026-04-10T13:41:31.999Z</time></trkpt><trkpt lat="43.5757164524275" lon="11.535617940412608"><ele>136.0</ele><time>2026-04-10T13:41:32.999Z</time></trkpt><trkpt lat="43.57587675214148" lon="11.535389322668165"><ele>136.0</ele><time>2026-04-10T13:41:33.999Z</time></trkpt><trkpt lat="43.57603535694285" lon="11.535160705998768"><ele>135.5</ele><time>2026-04-10T13:41:34.999Z</time></trkpt><trkpt lat="43.576191239838714" lon="11.534932064459314"><ele>135.0</ele><time>2026-04-10T13:41:35.999Z</time></trkpt><trkpt lat="43.57634668454003" lon="11.534702316601171"><ele>135.0</ele><time>2026-04-10T13:41:36.999Z</time></trkpt><trkpt lat="43.57650184856703" lon="11.534469818742311"><ele>135.0</ele><time>2026-04-10T13:41:37.999Z</time></trkpt><trkpt lat="43.57665983135925" lon="11.53424170375172"><ele>135.0</ele><time>2026-04-10T13:41:38.999Z</time></trkpt><trkpt lat="43.57682015061788" lon="11.534015285950852"><ele>135.0</ele><time>2026-04-10T13:41:39.999Z</time></trkpt><trkpt lat="43.5769819743368" lon="11.533787888665524"><ele>135.0</ele><time>2026-04-10T13:41:40.999Z</time></trkpt><trkpt lat="43.57714395812689" lon="11.533557100693843"><ele>135.0</ele><time>2026-04-10T13:41:42Z</time></trkpt><trkpt lat="43.5773057961138" lon="11.533320187624083"><ele>135.0</ele><time>2026-04-10T13:41:43Z</time></trkpt><trkpt lat="43.57746665798945" lon="11.53307900564448"><ele>135.0</ele><time>2026-04-10T13:41:44Z</time></trkpt><trkpt lat="43.577627010958885" lon="11.532841422197258"><ele>134.0</ele><time>2026-04-10T13:41:45Z</time></trkpt><trkpt lat="43.57778956343321" lon="11.532603939840566"><ele>133.0</ele><time>2026-04-10T13:41:46Z</time></trkpt><trkpt lat="43.577951745233435" lon="11.53236775001295"><ele>133.0</ele><time>2026-04-10T13:41:47Z</time></trkpt><trkpt lat="43.578113973784895" lon="11.532131984237845"><ele>133.0</ele><time>2026-04-10T13:41:48Z</time></trkpt><trkpt lat="43.57827613238295" lon="11.531893976722245"><ele>132.5</ele><time>2026-04-10T13:41:49Z</time></trkpt><trkpt lat="43.57844256726738" lon="11.531656363976438"><ele>132.0</ele><time>2026-04-10T13:41:50Z</time></trkpt><trkpt lat="43.57860130396175" lon="11.531426403669794"><ele>132.0</ele><time>2026-04-10T13:41:51Z</time></trkpt><trkpt lat="43.57875042406653" lon="11.531187727103525"><ele>132.0</ele><time>2026-04-10T13:41:52Z</time></trkpt><trkpt lat="43.57889745083899" lon="11.530946693809918"><ele>132.0</ele><time>2026-04-10T13:41:53Z</time></trkpt><trkpt lat="43.57904043401083" lon="11.530699385693291"><ele>132.0</ele><time>2026-04-10T13:41:54Z</time></trkpt><trkpt lat="43.57918228922887" lon="11.530448260917026"><ele>131.0</ele><time>2026-04-10T13:41:55Z</time></trkpt><trkpt lat="43.57932031725213" lon="11.53019179892888"><ele>130.0</ele><time>2026-04-10T13:41:56Z</time></trkpt><trkpt lat="43.57945386693466" lon="11.529935521621669"><ele>130.0</ele><time>2026-04-10T13:41:57Z</time></trkpt><trkpt lat="43.57958300710542" lon="11.52967048914561"><ele>130.0</ele><time>2026-04-10T13:41:58Z</time></trkpt><trkpt lat="43.5797070878489" lon="11.529400998532246"><ele>130.0</ele><time>2026-04-10T13:41:59Z</time></trkpt><trkpt lat="43.57982708661996" lon="11.52912927052321"><ele>130.0</ele><time>2026-04-10T13:42:00Z</time></trkpt><trkpt lat="43.57994200365588" lon="11.528859879834439"><ele>130.0</ele><time>2026-04-10T13:42:01Z</time></trkpt><trkpt lat="43.580050243954396" lon="11.528588689336647"><ele>130.0</ele><time>2026-04-10T13:42:02Z</time></trkpt><trkpt lat="43.58015906831556" lon="11.528311812556115"><ele>130.0</ele><time>2026-04-10T13:42:03Z</time></trkpt><trkpt lat="43.58026121969406" lon="11.528037669773795"><ele>130.0</ele><time>2026-04-10T13:42:04Z</time></trkpt><trkpt lat="43.58035796230882" lon="11.527760290636635"><ele>130.0</ele><time>2026-04-10T13:42:05Z</time></trkpt><trkpt lat="43.580449992200606" lon="11.527478434676254"><ele>130.0</ele><time>2026-04-10T13:42:06Z</time></trkpt><trkpt lat="43.58054094321867" lon="11.527190448232897"><ele>130.0</ele><time>2026-04-10T13:42:07Z</time></trkpt><trkpt lat="43.58062755411182" lon="11.526898261583574"><ele>130.0</ele><time>2026-04-10T13:42:08Z</time></trkpt><trkpt lat="43.58071648252316" lon="11.526605934245868"><ele>130.0</ele><time>2026-04-10T13:42:09Z</time></trkpt><trkpt lat="43.58080563389856" lon="11.526315988095805"><ele>128.0</ele><time>2026-04-10T13:42:10Z</time></trkpt><trkpt lat="43.59190687889438" lon="11.511606375062756"><ele>128.0</ele><time>2026-04-10T13:43:11.001Z</time></trkpt><trkpt lat="43.59211202642819" lon="11.511382621148064"><ele>128.0</ele><time>2026-04-10T13:43:12.001Z</time></trkpt><trkpt lat="43.59231321098898" lon="11.511159636443228"><ele>128.0</ele><time>2026-04-10T13:43:13.001Z</time></trkpt><trkpt lat="43.59251531518147" lon="11.510930892485192"><ele>128.0</ele><time>2026-04-10T13:43:14.001Z</time></trkpt><trkpt lat="43.59271643736684" lon="11.510710521121593"><ele>128.5</ele><time>2026-04-10T13:43:15.001Z</time></trkpt><trkpt lat="43.59291856780266" lon="11.51049138519612"><ele>129.0</ele><time>2026-04-10T13:43:16.001Z</time></trkpt><trkpt lat="43.593118953019015" lon="11.510269965139148"><ele>129.0</ele><time>2026-04-10T13:43:17.001Z</time></trkpt><trkpt lat="43.59331861130363" lon="11.51004709939329"><ele>129.0</ele><time>2026-04-10T13:43:18.001Z</time></trkpt><trkpt lat="43.59351808247255" lon="11.509824308746998"><ele>129.0</ele><time>2026-04-10T13:43:19.001Z</time></trkpt><trkpt lat="43.59372076773126" lon="11.509600111803831"><ele>129.0</ele><time>2026-04-10T13:43:20.001Z</time></trkpt><trkpt lat="43.59392805854987" lon="11.509378540738549"><ele>129.0</ele><time>2026-04-10T13:43:21.001Z</time></trkpt><trkpt lat="43.59413410321157" lon="11.50915873319757"><ele>129.0</ele><time>2026-04-10T13:43:22.001Z</time></trkpt><trkpt lat="43.5943430880304" lon="11.508932179054616"><ele>129.5</ele><time>2026-04-10T13:43:23.001Z</time></trkpt><trkpt lat="43.594547398235235" lon="11.508705935573458"><ele>130.0</ele><time>2026-04-10T13:43:24.001Z</time></trkpt><trkpt lat="43.5947444077942" lon="11.50848631771157"><ele>130.0</ele><time>2026-04-10T13:43:25.001Z</time></trkpt><trkpt lat="43.59494115505704" lon="11.508270041951237"><ele>130.0</ele><time>2026-04-10T13:43:26Z</time></trkpt><trkpt lat="43.595136988684175" lon="11.508052611232447"><ele>130.0</ele><time>2026-04-10T13:43:27Z</time></trkpt><trkpt lat="43.595330580835984" lon="11.50783574584851"><ele>130.0</ele><time>2026-04-10T13:43:28Z</time></trkpt><trkpt lat="43.59552158405128" lon="11.507623042736846"><ele>130.0</ele><time>2026-04-10T13:43:29Z</time></trkpt><trkpt lat="43.59571327208541" lon="11.50741144941177"><ele>130.0</ele><time>2026-04-10T13:43:30Z</time></trkpt><trkpt lat="43.59590559556733" lon="11.507200738038183"><ele>129.5</ele><time>2026-04-10T13:43:31Z</time></trkpt><trkpt lat="43.5960986064138" lon="11.50699499453609"><ele>129.0</ele><time>2026-04-10T13:43:32Z</time></trkpt><trkpt lat="43.596293458134895" lon="11.50678672507668"><ele>129.0</ele><time>2026-04-10T13:43:33Z</time></trkpt><trkpt lat="43.596486113279234" lon="11.506574655895442"><ele>129.0</ele><time>2026-04-10T13:43:34Z</time></trkpt><trkpt lat="43.596677635342644" lon="11.506364913452362"><ele>129.0</ele><time>2026-04-10T13:43:35Z</time></trkpt><trkpt lat="43.59687189656634" lon="11.506131712661746"><ele>129.0</ele><time>2026-04-10T13:43:36Z</time></trkpt><trkpt lat="43.59706275085064" lon="11.505905705448429"><ele>129.0</ele><time>2026-04-10T13:43:37Z</time></trkpt><trkpt lat="43.5972569611825" lon="11.505681035586695"><ele>129.0</ele><time>2026-04-10T13:43:38Z</time></trkpt><trkpt lat="43.597456516661744" lon="11.50545286404546"><ele>129.0</ele><time>2026-04-10T13:43:39Z</time></trkpt><trkpt lat="43.59765911267653" lon="11.505227527920724"><ele>129.0</ele><time>2026-04-10T13:43:40Z</time></trkpt><trkpt lat="43.59786707569387" lon="11.504999034389702"><ele>129.0</ele><time>2026-04-10T13:43:41Z</time></trkpt><trkpt lat="43.598076491204154" lon="11.504770374550711"><ele>129.0</ele><time>2026-04-10T13:43:42Z</time></trkpt><trkpt lat="43.59828844502625" lon="11.504539785748122"><ele>128.5</ele><time>2026-04-10T13:43:43Z</time></trkpt><trkpt lat="43.59850202666149" lon="11.504309082693128"><ele>128.0</ele><time>2026-04-10T13:43:44Z</time></trkpt><trkpt lat="43.5987138625313" lon="11.504074215368885"><ele>128.0</ele><time>2026-04-10T13:43:45Z</time></trkpt><trkpt lat="43.59892424608418" lon="11.503835817982242"><ele>128.0</ele><time>2026-04-10T13:43:46Z</time></trkpt><trkpt lat="43.59913716804306" lon="11.503595600092359"><ele>127.5</ele><time>2026-04-10T13:43:47Z</time></trkpt><trkpt lat="43.59935052567261" lon="11.503363748511672"><ele>127.0</ele><time>2026-04-10T13:43:48Z</time></trkpt><trkpt lat="43.59956955393411" lon="11.503124894190758"><ele>125.5</ele><time>2026-04-10T13:43:49Z</time></trkpt><trkpt lat="43.59978167551785" lon="11.502887812002784"><ele>124.0</ele><time>2026-04-10T13:43:50Z</time></trkpt><trkpt lat="43.599998671612454" lon="11.502646868773475"><ele>124.0</ele><time>2026-04-10T13:43:51Z</time></trkpt><trkpt lat="43.60021769320511" lon="11.502407821350655"><ele>124.0</ele><time>2026-04-10T13:43:52Z</time></trkpt><trkpt lat="43.60044175910435" lon="11.5021738577018"><ele>124.5</ele><time>2026-04-10T13:43:53Z</time></trkpt><trkpt lat="43.600668906812786" lon="11.50194594341278"><ele>125.0</ele><time>2026-04-10T13:43:54Z</time></trkpt><trkpt lat="43.60089615547268" lon="11.501719288039984"><ele>125.0</ele><time>2026-04-10T13:43:55Z</time></trkpt><trkpt lat="43.60112302610917" lon="11.501491062227926"><ele>125.0</ele><time>2026-04-10T13:43:56Z</time></trkpt><trkpt lat="43.601351831884074" lon="11.501269883081259"><ele>124.0</ele><time>2026-04-10T13:43:57Z</time></trkpt><trkpt lat="43.60158566218425" lon="11.501053718493047"><ele>123.0</ele><time>2026-04-10T13:43:58Z</time></trkpt><trkpt lat="43.60181316149968" lon="11.500834027878566"><ele>123.5</ele><time>2026-04-10T13:43:59Z</time></trkpt><trkpt lat="43.602041956784475" lon="11.500619239693314"><ele>124.0</ele><time>2026-04-10T13:44:00Z</time></trkpt><trkpt lat="43.602276827340184" lon="11.500407263812159"><ele>124.0</ele><time>2026-04-10T13:44:01Z</time></trkpt><trkpt lat="43.602510983563114" lon="11.50019758295476"><ele>124.0</ele><time>2026-04-10T13:44:02Z</time></trkpt><trkpt lat="43.60274460453479" lon="11.49998870989748"><ele>125.0</ele><time>2026-04-10T13:44:03Z</time></trkpt><trkpt lat="43.60297770574504" lon="11.499779788887007"><ele>126.0</ele><time>2026-04-10T13:44:04Z</time></trkpt><trkpt lat="43.6032105332726" lon="11.499571893224466"><ele>126.0</ele><time>2026-04-10T13:44:05Z</time></trkpt><trkpt lat="43.603443957700094" lon="11.499366165501648"><ele>126.0</ele><time>2026-04-10T13:44:06Z</time></trkpt><trkpt lat="43.603675969137356" lon="11.499162640581691"><ele>126.5</ele><time>2026-04-10T13:44:07Z</time></trkpt><trkpt lat="43.60390458252275" lon="11.498960317306278"><ele>127.0</ele><time>2026-04-10T13:44:08Z</time></trkpt><trkpt lat="43.60413928738239" lon="11.498758392186708"><ele>125.5</ele><time>2026-04-10T13:44:09Z</time></trkpt><trkpt lat="43.60437418770333" lon="11.498568615824713"><ele>124.0</ele><time>2026-04-10T13:44:10Z</time></trkpt><trkpt lat="43.617239538065874" lon="11.487172288715186"><ele>124.0</ele><time>2026-04-10T13:45:11.001Z</time></trkpt><trkpt lat="43.6174636538841" lon="11.486986774372332"><ele>124.0</ele><time>2026-04-10T13:45:12.001Z</time></trkpt><trkpt lat="43.6176872669025" lon="11.486803477699473"><ele>124.5</ele><time>2026-04-10T13:45:13.001Z</time></trkpt><trkpt lat="43.61791115911454" lon="11.486620700577847"><ele>125.0</ele><time>2026-04-10T13:45:14.001Z</time></trkpt><trkpt lat="43.61812791477788" lon="11.486434347959595"><ele>123.5</ele><time>2026-04-10T13:45:15.001Z</time></trkpt><trkpt lat="43.618343485459135" lon="11.48624434592271"><ele>122.0</ele><time>2026-04-10T13:45:16.001Z</time></trkpt><trkpt lat="43.61855763550076" lon="11.486050381153026"><ele>123.0</ele><time>2026-04-10T13:45:17.001Z</time></trkpt><trkpt lat="43.61876828281897" lon="11.48586095529037"><ele>124.0</ele><time>2026-04-10T13:45:18.001Z</time></trkpt><trkpt lat="43.61897793087514" lon="11.485674629522153"><ele>124.0</ele><time>2026-04-10T13:45:19.001Z</time></trkpt><trkpt lat="43.61918728008358" lon="11.485491537349855"><ele>124.0</ele><time>2026-04-10T13:45:20.001Z</time></trkpt><trkpt lat="43.61939448760409" lon="11.485306597927469"><ele>124.0</ele><time>2026-04-10T13:45:21.001Z</time></trkpt><trkpt lat="43.61960053779321" lon="11.485122720708471"><ele>124.0</ele><time>2026-04-10T13:45:22.001Z</time></trkpt><trkpt lat="43.61980552387461" lon="11.48493937681074"><ele>124.0</ele><time>2026-04-10T13:45:23.001Z</time></trkpt><trkpt lat="43.62001164833414" lon="11.484756259896946"><ele>124.0</ele><time>2026-04-10T13:45:24.001Z</time></trkpt><trkpt lat="43.6202183434481" lon="11.484575062296352"><ele>124.0</ele><time>2026-04-10T13:45:25.001Z</time></trkpt><trkpt lat="43.620424410800084" lon="11.484394297791683"><ele>124.0</ele><time>2026-04-10T13:45:26.001Z</time></trkpt><trkpt lat="43.62063122932119" lon="11.484214295714844"><ele>124.0</ele><time>2026-04-10T13:45:27.001Z</time></trkpt><trkpt lat="43.620841440844195" lon="11.484033336360254"><ele>124.0</ele><time>2026-04-10T13:45:28.001Z</time></trkpt><trkpt lat="43.62105092140992" lon="11.483844338780964"><ele>124.0</ele><time>2026-04-10T13:45:29.001Z</time></trkpt><trkpt lat="43.62125720051363" lon="11.483651290950755"><ele>124.0</ele><time>2026-04-10T13:45:30.001Z</time></trkpt><trkpt lat="43.62146542818756" lon="11.483461297239197"><ele>124.0</ele><time>2026-04-10T13:45:31.001Z</time></trkpt><trkpt lat="43.62167125422564" lon="11.483268877803951"><ele>124.0</ele><time>2026-04-10T13:45:32Z</time></trkpt><trkpt lat="43.62187496815388" lon="11.48307129141364"><ele>124.5</ele><time>2026-04-10T13:45:33Z</time></trkpt><trkpt lat="43.62207506891778" lon="11.482869571712616"><ele>125.0</ele><time>2026-04-10T13:45:34Z</time></trkpt><trkpt lat="43.62227443355903" lon="11.482669360011355"><ele>125.0</ele><time>2026-04-10T13:45:35Z</time></trkpt><trkpt lat="43.62247294078611" lon="11.482468235986762"><ele>125.0</ele><time>2026-04-10T13:45:36Z</time></trkpt><trkpt lat="43.62266773770818" lon="11.482264094558547"><ele>125.5</ele><time>2026-04-10T13:45:37Z</time></trkpt><trkpt lat="43.6228598052061" lon="11.48205747423296"><ele>126.0</ele><time>2026-04-10T13:45:38Z</time></trkpt><trkpt lat="43.62305269975248" lon="11.481852510679717"><ele>126.0</ele><time>2026-04-10T13:45:39Z</time></trkpt><trkpt lat="43.623245380576506" lon="11.481644858294112"><ele>126.0</ele><time>2026-04-10T13:45:40Z</time></trkpt><trkpt lat="43.62343931004247" lon="11.481435167591611"><ele>126.0</ele><time>2026-04-10T13:45:41Z</time></trkpt><trkpt lat="43.62363621966151" lon="11.481219821494161"><ele>126.0</ele><time>2026-04-10T13:45:42Z</time></trkpt><trkpt lat="43.62383324901882" lon="11.481004787019094"><ele>126.0</ele><time>2026-04-10T13:45:43Z</time></trkpt><trkpt lat="43.624029324625276" lon="11.480788845768338"><ele>126.0</ele><time>2026-04-10T13:45:44Z</time></trkpt><trkpt lat="43.624222380460616" lon="11.480572375419213"><ele>125.5</ele><time>2026-04-10T13:45:45Z</time></trkpt><trkpt lat="43.62441814421576" lon="11.480356270649692"><ele>125.0</ele><time>2026-04-10T13:45:46Z</time></trkpt><trkpt lat="43.62461844690895" lon="11.480138839953705"><ele>125.0</ele><time>2026-04-10T13:45:47Z</time></trkpt><trkpt lat="43.624817469889834" lon="11.479919625424847"><ele>125.0</ele><time>2026-04-10T13:45:48Z</time></trkpt><trkpt lat="43.625017619744185" lon="11.479700882096743"><ele>125.0</ele><time>2026-04-10T13:45:49Z</time></trkpt><trkpt lat="43.62521948656053" lon="11.4794813766034"><ele>125.0</ele><time>2026-04-10T13:45:50Z</time></trkpt><trkpt lat="43.62542471715919" lon="11.47925909647092"><ele>125.0</ele><time>2026-04-10T13:45:51Z</time></trkpt><trkpt lat="43.625628589991216" lon="11.479032827537416"><ele>125.0</ele><time>2026-04-10T13:45:52Z</time></trkpt><trkpt lat="43.62583246294606" lon="11.478806462644494"><ele>124.5</ele><time>2026-04-10T13:45:53Z</time></trkpt><trkpt lat="43.62603997613582" lon="11.478579838420556"><ele>124.0</ele><time>2026-04-10T13:45:54Z</time></trkpt><trkpt lat="43.626245602601834" lon="11.478351835327448"><ele>124.0</ele><time>2026-04-10T13:45:55Z</time></trkpt><trkpt lat="43.626452425684334" lon="11.478130040959838"><ele>124.0</ele><time>2026-04-10T13:45:56Z</time></trkpt><trkpt lat="43.626662304610505" lon="11.477907028513435"><ele>124.0</ele><time>2026-04-10T13:45:57Z</time></trkpt><trkpt lat="43.626858468949486" lon="11.477681793132206"><ele>124.0</ele><time>2026-04-10T13:45:58Z</time></trkpt><trkpt lat="43.62706136723539" lon="11.477459975535549"><ele>124.5</ele><time>2026-04-10T13:45:59Z</time></trkpt><trkpt lat="43.627262526264516" lon="11.477236599247576"><ele>125.0</ele><time>2026-04-10T13:46:00Z</time></trkpt><trkpt lat="43.6274637903083" lon="11.477013202201402"><ele>125.0</ele><time>2026-04-10T13:46:01Z</time></trkpt><trkpt lat="43.62766385845974" lon="11.476795148113197"><ele>125.0</ele><time>2026-04-10T13:46:02Z</time></trkpt><trkpt lat="43.627865458730376" lon="11.476571813972996"><ele>125.0</ele><time>2026-04-10T13:46:03Z</time></trkpt><trkpt lat="43.628064276188056" lon="11.476355899990637"><ele>125.0</ele><time>2026-04-10T13:46:04Z</time></trkpt><trkpt lat="43.628263687984486" lon="11.476147226943981"><ele>124.5</ele><time>2026-04-10T13:46:05Z</time></trkpt><trkpt lat="43.62845915082822" lon="11.475937174782722"><ele>124.0</ele><time>2026-04-10T13:46:06Z</time></trkpt><trkpt lat="43.62865207236663" lon="11.47572496452142"><ele>124.0</ele><time>2026-04-10T13:46:07Z</time></trkpt><trkpt lat="43.628844522812365" lon="11.475512229464604"><ele>124.0</ele><time>2026-04-10T13:46:08Z</time></trkpt><trkpt lat="43.62903825836863" lon="11.47529847649438"><ele>124.0</ele><time>2026-04-10T13:46:09Z</time></trkpt><trkpt lat="43.62923085212549" lon="11.475084218576063"><ele>124.0</ele><time>2026-04-10T13:46:10Z</time></trkpt><trkpt lat="43.6418155946015" lon="11.465915782288924"><ele>124.5</ele><time>2026-04-10T13:47:11.001Z</time></trkpt><trkpt lat="43.64206050607488" lon="11.465909005271222"><ele>125.0</ele><time>2026-04-10T13:47:12.001Z</time></trkpt><trkpt lat="43.642307028593244" lon="11.465904282979858"><ele>125.0</ele><time>2026-04-10T13:47:13.001Z</time></trkpt><trkpt lat="43.642554206724974" lon="11.465902483874485"><ele>125.0</ele><time>2026-04-10T13:47:14.001Z</time></trkpt><trkpt lat="43.64280108432424" lon="11.46589766602595"><ele>125.5</ele><time>2026-04-10T13:47:15.001Z</time></trkpt><trkpt lat="43.64304788408611" lon="11.465890700913729"><ele>126.0</ele><time>2026-04-10T13:47:16.001Z</time></trkpt><trkpt lat="43.64329336177637" lon="11.465880438538592"><ele>126.0</ele><time>2026-04-10T13:47:17.001Z</time></trkpt><trkpt lat="43.64353934471731" lon="11.465870518915986"><ele>126.0</ele><time>2026-04-10T13:47:18.001Z</time></trkpt><trkpt lat="43.64378461687378" lon="11.465862564904112"><ele>126.0</ele><time>2026-04-10T13:47:19.001Z</time></trkpt><trkpt lat="43.64402872918903" lon="11.465856270019398"><ele>126.0</ele><time>2026-04-10T13:47:20.001Z</time></trkpt><trkpt lat="43.64427244674617" lon="11.465851245892209"><ele>126.0</ele><time>2026-04-10T13:47:21.001Z</time></trkpt><trkpt lat="43.64451769203183" lon="11.465846602642525"><ele>126.0</ele><time>2026-04-10T13:47:22.001Z</time></trkpt><trkpt lat="43.64476391701258" lon="11.46583977905736"><ele>126.0</ele><time>2026-04-10T13:47:23.001Z</time></trkpt><trkpt lat="43.64500897780625" lon="11.465834663113213"><ele>126.0</ele><time>2026-04-10T13:47:24.001Z</time></trkpt><trkpt lat="43.64525344843153" lon="11.465830753599503"><ele>127.0</ele><time>2026-04-10T13:47:25.001Z</time></trkpt><trkpt lat="43.64549732209727" lon="11.465826760901232"><ele>128.0</ele><time>2026-04-10T13:47:26.001Z</time></trkpt><trkpt lat="43.64573898739182" lon="11.465818612264805"><ele>128.0</ele><time>2026-04-10T13:47:27.001Z</time></trkpt><trkpt lat="43.645980078352835" lon="11.465811361537785"><ele>128.0</ele><time>2026-04-10T13:47:28.001Z</time></trkpt><trkpt lat="43.64622078535651" lon="11.465806519517452"><ele>127.5</ele><time>2026-04-10T13:47:29.001Z</time></trkpt><trkpt lat="43.646458968362346" lon="11.46579416971062"><ele>127.0</ele><time>2026-04-10T13:47:30.001Z</time></trkpt><trkpt lat="43.64669748523352" lon="11.465778429293346"><ele>127.0</ele><time>2026-04-10T13:47:31.001Z</time></trkpt><trkpt lat="43.64693416800196" lon="11.465765076473376"><ele>127.0</ele><time>2026-04-10T13:47:32.001Z</time></trkpt><trkpt lat="43.647172994403135" lon="11.465773265042346"><ele>127.0</ele><time>2026-04-10T13:47:33.001Z</time></trkpt><trkpt lat="43.64740892270668" lon="11.465777766613984"><ele>127.0</ele><time>2026-04-10T13:47:34.001Z</time></trkpt><trkpt lat="43.6476476791256" lon="11.4657683776335"><ele>127.0</ele><time>2026-04-10T13:47:35.001Z</time></trkpt><trkpt lat="43.64788784845279" lon="11.465753601768494"><ele>127.0</ele><time>2026-04-10T13:47:36.001Z</time></trkpt><trkpt lat="43.648367819224674" lon="11.4657402415274"><ele>127.0</ele><time>2026-04-10T13:47:38Z</time></trkpt><trkpt lat="43.648608291995444" lon="11.465733893557069"><ele>127.0</ele><time>2026-04-10T13:47:39Z</time></trkpt><trkpt lat="43.648848068204536" lon="11.46573132771842"><ele>128.0</ele><time>2026-04-10T13:47:40Z</time></trkpt><trkpt lat="43.64909050610028" lon="11.46572989137752"><ele>129.0</ele><time>2026-04-10T13:47:41Z</time></trkpt><trkpt lat="43.64933212629716" lon="11.46572492121502"><ele>131.0</ele><time>2026-04-10T13:47:42Z</time></trkpt><trkpt lat="43.64957329271279" lon="11.465716659382394"><ele>133.0</ele><time>2026-04-10T13:47:43Z</time></trkpt><trkpt lat="43.649814925039564" lon="11.465706572854108"><ele>133.0</ele><time>2026-04-10T13:47:44Z</time></trkpt><trkpt lat="43.6500544792598" lon="11.465699743317776"><ele>133.0</ele><time>2026-04-10T13:47:45Z</time></trkpt><trkpt lat="43.65029728865314" lon="11.465694562263671"><ele>135.0</ele><time>2026-04-10T13:47:46Z</time></trkpt><trkpt lat="43.6505403518385" lon="11.465692280148176"><ele>137.0</ele><time>2026-04-10T13:47:47Z</time></trkpt><trkpt lat="43.6507851573954" lon="11.465687767576293"><ele>137.0</ele><time>2026-04-10T13:47:48Z</time></trkpt><trkpt lat="43.65102980487105" lon="11.465683547927167"><ele>137.0</ele><time>2026-04-10T13:47:49Z</time></trkpt><trkpt lat="43.65127354369672" lon="11.465680034741698"><ele>138.0</ele><time>2026-04-10T13:47:50Z</time></trkpt><trkpt lat="43.651518222584755" lon="11.465674631154553"><ele>139.0</ele><time>2026-04-10T13:47:51Z</time></trkpt><trkpt lat="43.65176297623754" lon="11.465665990819911"><ele>139.5</ele><time>2026-04-10T13:47:52Z</time></trkpt><trkpt lat="43.652006319295545" lon="11.465657244481681"><ele>140.0</ele><time>2026-04-10T13:47:53Z</time></trkpt><trkpt lat="43.65224797322033" lon="11.465654086678311"><ele>140.0</ele><time>2026-04-10T13:47:54Z</time></trkpt><trkpt lat="43.65249016508794" lon="11.465649621411991"><ele>140.0</ele><time>2026-04-10T13:47:55Z</time></trkpt><trkpt lat="43.65273257685938" lon="11.465644985325344"><ele>139.5</ele><time>2026-04-10T13:47:56Z</time></trkpt><trkpt lat="43.65297479181742" lon="11.465639055074739"><ele>139.0</ele><time>2026-04-10T13:47:57Z</time></trkpt><trkpt lat="43.65321747163856" lon="11.465631475452373"><ele>139.0</ele><time>2026-04-10T13:47:58Z</time></trkpt><trkpt lat="43.65346122525055" lon="11.465626113702202"><ele>139.0</ele><time>2026-04-10T13:47:59Z</time></trkpt><trkpt lat="43.65369842312643" lon="11.46561848399384"><ele>139.5</ele><time>2026-04-10T13:48:00Z</time></trkpt><trkpt lat="43.65393031785609" lon="11.46560919755112"><ele>140.0</ele><time>2026-04-10T13:48:01Z</time></trkpt><trkpt lat="43.65416203398162" lon="11.465601050822633"><ele>140.0</ele><time>2026-04-10T13:48:02Z</time></trkpt><trkpt lat="43.65439361546649" lon="11.46559667444221"><ele>140.0</ele><time>2026-04-10T13:48:03Z</time></trkpt><trkpt lat="43.65462460819424" lon="11.465594428977962"><ele>139.66666666666666</ele><time>2026-04-10T13:48:04Z</time></trkpt><trkpt lat="43.65485036547532" lon="11.465590646392814"><ele>139.33333333333334</ele><time>2026-04-10T13:48:05Z</time></trkpt><trkpt lat="43.65506875122652" lon="11.465586221305589"><ele>139.0</ele><time>2026-04-10T13:48:06Z</time></trkpt><trkpt lat="43.655278061747616" lon="11.46558117187994"><ele>138.66666666666669</ele><time>2026-04-10T13:48:07Z</time></trkpt><trkpt lat="43.655477185968614" lon="11.46557274923765"><ele>138.33333333333334</ele><time>2026-04-10T13:48:08Z</time></trkpt><trkpt lat="43.655681288929856" lon="11.465551396486697"><ele>138.0</ele><time>2026-04-10T13:48:09Z</time></trkpt><trkpt lat="43.65588766731616" lon="11.465513868926392"><ele>129.0</ele><time>2026-04-10T13:48:10Z</time></trkpt><trkpt lat="43.66797010204821" lon="11.457744661687764"><ele>129.0</ele><time>2026-04-10T13:49:11.001Z</time></trkpt><trkpt lat="43.66818140645773" lon="11.457633996283494"><ele>129.0</ele><time>2026-04-10T13:49:12.001Z</time></trkpt><trkpt lat="43.66839127438171" lon="11.45752262773877"><ele>129.0</ele><time>2026-04-10T13:49:13.001Z</time></trkpt><trkpt lat="43.66860045194903" lon="11.457407150798314"><ele>129.0</ele><time>2026-04-10T13:49:14.001Z</time></trkpt><trkpt lat="43.66881224390067" lon="11.457285288681764"><ele>129.0</ele><time>2026-04-10T13:49:15.001Z</time></trkpt><trkpt lat="43.66902621005239" lon="11.457154670768674"><ele>129.0</ele><time>2026-04-10T13:49:16.001Z</time></trkpt><trkpt lat="43.669240180213905" lon="11.457019880998468"><ele>130.0</ele><time>2026-04-10T13:49:17.001Z</time></trkpt><trkpt lat="43.66945813587598" lon="11.456881849179242"><ele>131.0</ele><time>2026-04-10T13:49:18.001Z</time></trkpt><trkpt lat="43.66967986248703" lon="11.456744072253239"><ele>131.0</ele><time>2026-04-10T13:49:19.001Z</time></trkpt><trkpt lat="43.66990394049006" lon="11.456602199411044"><ele>131.0</ele><time>2026-04-10T13:49:20.001Z</time></trkpt><trkpt lat="43.67012810655298" lon="11.456459103234545"><ele>133.0</ele><time>2026-04-10T13:49:21.001Z</time></trkpt><trkpt lat="43.670357416177815" lon="11.456327753548722"><ele>135.0</ele><time>2026-04-10T13:49:22.001Z</time></trkpt><trkpt lat="43.670590701185745" lon="11.456201567406652"><ele>135.0</ele><time>2026-04-10T13:49:23.001Z</time></trkpt><trkpt lat="43.67082580499936" lon="11.456081725489382"><ele>135.0</ele><time>2026-04-10T13:49:24.001Z</time></trkpt><trkpt lat="43.67106221542691" lon="11.455962459132719"><ele>143.0</ele><time>2026-04-10T13:49:25.001Z</time></trkpt><trkpt lat="43.67129881306324" lon="11.455850917023653"><ele>151.0</ele><time>2026-04-10T13:49:26.001Z</time></trkpt><trkpt lat="43.671535220003534" lon="11.455747993839784"><ele>151.0</ele><time>2026-04-10T13:49:27.001Z</time></trkpt><trkpt lat="43.67177445224887" lon="11.455645926818102"><ele>151.0</ele><time>2026-04-10T13:49:28.001Z</time></trkpt><trkpt lat="43.672014180465915" lon="11.45554952691408"><ele>155.5</ele><time>2026-04-10T13:49:29.001Z</time></trkpt><trkpt lat="43.672253967744744" lon="11.455451926674069"><ele>160.0</ele><time>2026-04-10T13:49:30.001Z</time></trkpt><trkpt lat="43.67249541305801" lon="11.455350983949373"><ele>160.0</ele><time>2026-04-10T13:49:31.001Z</time></trkpt><trkpt lat="43.672735592171456" lon="11.455252043939263"><ele>160.0</ele><time>2026-04-10T13:49:32.001Z</time></trkpt><trkpt lat="43.6729667468466" lon="11.455151531538519"><ele>169.5</ele><time>2026-04-10T13:49:33.001Z</time></trkpt><trkpt lat="43.67319763053533" lon="11.455037242742058"><ele>179.0</ele><time>2026-04-10T13:49:34.001Z</time></trkpt><trkpt lat="43.673426897868666" lon="11.454913668073376"><ele>174.0</ele><time>2026-04-10T13:49:35.001Z</time></trkpt><trkpt lat="43.67365472811189" lon="11.454790746126223"><ele>169.0</ele><time>2026-04-10T13:49:36.001Z</time></trkpt><trkpt lat="43.67388195086985" lon="11.454668036419772"><ele>163.5</ele><time>2026-04-10T13:49:37.001Z</time></trkpt><trkpt lat="43.67412033091364" lon="11.454535349843553"><ele>158.0</ele><time>2026-04-10T13:49:38.001Z</time></trkpt><trkpt lat="43.67435952016959" lon="11.454407491997797"><ele>149.5</ele><time>2026-04-10T13:49:39.001Z</time></trkpt><trkpt lat="43.67460240970568" lon="11.454282001156297"><ele>141.0</ele><time>2026-04-10T13:49:40.001Z</time></trkpt><trkpt lat="43.67488528710288" lon="11.454144564628479"><ele>141.0</ele><time>2026-04-10T13:49:41.001Z</time></trkpt><trkpt lat="43.67515685684855" lon="11.453993504564105"><ele>141.0</ele><time>2026-04-10T13:49:42.001Z</time></trkpt><trkpt lat="43.6754129002687" lon="11.453863151768685"><ele>126.0</ele><time>2026-04-10T13:49:43.001Z</time></trkpt><trkpt lat="43.67565992933458" lon="11.453736848758833"><ele>111.0</ele><time>2026-04-10T13:49:44Z</time></trkpt><trkpt lat="43.67589465641746" lon="11.453608410631492"><ele>114.0</ele><time>2026-04-10T13:49:45Z</time></trkpt><trkpt lat="43.67614125810121" lon="11.453478618038744"><ele>117.0</ele><time>2026-04-10T13:49:46Z</time></trkpt><trkpt lat="43.67637675841003" lon="11.453353656648469"><ele>117.0</ele><time>2026-04-10T13:49:47Z</time></trkpt><trkpt lat="43.67661241366567" lon="11.453230375972913"><ele>117.0</ele><time>2026-04-10T13:49:48Z</time></trkpt><trkpt lat="43.67684762980224" lon="11.45311028114921"><ele>122.0</ele><time>2026-04-10T13:49:49Z</time></trkpt><trkpt lat="43.67708004014302" lon="11.45298741860455"><ele>127.0</ele><time>2026-04-10T13:49:50Z</time></trkpt><trkpt lat="43.677312329352944" lon="11.452865100389346"><ele>131.0</ele><time>2026-04-10T13:49:51Z</time></trkpt><trkpt lat="43.67754398671618" lon="11.452737526072822"><ele>135.0</ele><time>2026-04-10T13:49:52Z</time></trkpt><trkpt lat="43.67777662467427" lon="11.452602755735088"><ele>135.0</ele><time>2026-04-10T13:49:53Z</time></trkpt><trkpt lat="43.678006855692054" lon="11.45246226948486"><ele>135.0</ele><time>2026-04-10T13:49:54Z</time></trkpt><trkpt lat="43.678235640861764" lon="11.452317523489151"><ele>135.0</ele><time>2026-04-10T13:49:55Z</time></trkpt><trkpt lat="43.67846488837238" lon="11.452173492647878"><ele>135.0</ele><time>2026-04-10T13:49:56Z</time></trkpt><trkpt lat="43.67869165607319" lon="11.45202281666723"><ele>135.0</ele><time>2026-04-10T13:49:57Z</time></trkpt><trkpt lat="43.67891725311838" lon="11.451865122403413"><ele>135.0</ele><time>2026-04-10T13:49:58Z</time></trkpt><trkpt lat="43.679139896083235" lon="11.451712009364373"><ele>135.0</ele><time>2026-04-10T13:49:59Z</time></trkpt><trkpt lat="43.67936055809819" lon="11.451556983259852"><ele>135.0</ele><time>2026-04-10T13:50:00Z</time></trkpt><trkpt lat="43.679580051132966" lon="11.451389100063546"><ele>134.5</ele><time>2026-04-10T13:50:01Z</time></trkpt><trkpt lat="43.67980172885871" lon="11.451212666621922"><ele>134.0</ele><time>2026-04-10T13:50:02Z</time></trkpt><trkpt lat="43.68002385317027" lon="11.451031241239452"><ele>134.0</ele><time>2026-04-10T13:50:03Z</time></trkpt><trkpt lat="43.68024605494247" lon="11.450842897649153"><ele>134.0</ele><time>2026-04-10T13:50:04Z</time></trkpt><trkpt lat="43.680467394810755" lon="11.450653851377492"><ele>132.0</ele><time>2026-04-10T13:50:05Z</time></trkpt><trkpt lat="43.68069299096069" lon="11.450469442323541"><ele>130.0</ele><time>2026-04-10T13:50:06Z</time></trkpt><trkpt lat="43.68091846778701" lon="11.45029050783133"><ele>127.0</ele><time>2026-04-10T13:50:07Z</time></trkpt><trkpt lat="43.68113663997943" lon="11.450104280209915"><ele>124.0</ele><time>2026-04-10T13:50:08Z</time></trkpt><trkpt lat="43.68135026148767" lon="11.449915582210298"><ele>124.0</ele><time>2026-04-10T13:50:09Z</time></trkpt><trkpt lat="43.681561522212725" lon="11.449724966303998"><ele>124.0</ele><time>2026-04-10T13:50:10Z</time></trkpt><trkpt lat="43.69167299963005" lon="11.435637876804785"><ele>143.0</ele><time>2026-04-10T13:51:11Z</time></trkpt><trkpt lat="43.69174288658851" lon="11.43532503368499"><ele>162.0</ele><time>2026-04-10T13:51:12Z</time></trkpt><trkpt lat="43.69180965434394" lon="11.435009281559545"><ele>162.0</ele><time>2026-04-10T13:51:13.001Z</time></trkpt><trkpt lat="43.69188016386476" lon="11.434697396019228"><ele>162.0</ele><time>2026-04-10T13:51:14.001Z</time></trkpt><trkpt lat="43.69194912274287" lon="11.43438472947665"><ele>157.0</ele><time>2026-04-10T13:51:15.001Z</time></trkpt><trkpt lat="43.69202066427225" lon="11.434070467565245"><ele>152.0</ele><time>2026-04-10T13:51:16.001Z</time></trkpt><trkpt lat="43.69209134929833" lon="11.43375208124248"><ele>151.5</ele><time>2026-04-10T13:51:17.001Z</time></trkpt><trkpt lat="43.69215996017031" lon="11.433434814879549"><ele>151.0</ele><time>2026-04-10T13:51:18.001Z</time></trkpt><trkpt lat="43.69222685288161" lon="11.433114231750547"><ele>150.5</ele><time>2026-04-10T13:51:19.001Z</time></trkpt><trkpt lat="43.69229601358434" lon="11.432794116600613"><ele>150.0</ele><time>2026-04-10T13:51:20.001Z</time></trkpt><trkpt lat="43.692370144297186" lon="11.432474231300073"><ele>150.0</ele><time>2026-04-10T13:51:21.001Z</time></trkpt><trkpt lat="43.69244354902356" lon="11.432153536506247"><ele>150.0</ele><time>2026-04-10T13:51:22.001Z</time></trkpt><trkpt lat="43.692513997336725" lon="11.431832428844725"><ele>150.5</ele><time>2026-04-10T13:51:23.001Z</time></trkpt><trkpt lat="43.69258476636891" lon="11.431514476435588"><ele>151.0</ele><time>2026-04-10T13:51:24.001Z</time></trkpt><trkpt lat="43.69265722299876" lon="11.431195707209017"><ele>151.5</ele><time>2026-04-10T13:51:25.001Z</time></trkpt><trkpt lat="43.69272897086382" lon="11.430877899968337"><ele>152.0</ele><time>2026-04-10T13:51:26.001Z</time></trkpt><trkpt lat="43.69279874688771" lon="11.430562469925052"><ele>153.0</ele><time>2026-04-10T13:51:27.001Z</time></trkpt><trkpt lat="43.69286795003266" lon="11.430247696197648"><ele>154.0</ele><time>2026-04-10T13:51:28.001Z</time></trkpt><trkpt lat="43.69293535075974" lon="11.429933430218334"><ele>156.5</ele><time>2026-04-10T13:51:29.001Z</time></trkpt><trkpt lat="43.69300703797996" lon="11.429621645090698"><ele>159.0</ele><time>2026-04-10T13:51:30.001Z</time></trkpt><trkpt lat="43.69307701550873" lon="11.429312673966772"><ele>159.0</ele><time>2026-04-10T13:51:31.001Z</time></trkpt><trkpt lat="43.693145899082786" lon="11.429000297530283"><ele>159.0</ele><time>2026-04-10T13:51:32.001Z</time></trkpt><trkpt lat="43.693213029132195" lon="11.428690604453138"><ele>162.0</ele><time>2026-04-10T13:51:33.001Z</time></trkpt><trkpt lat="43.69328461375672" lon="11.428381602038655"><ele>165.0</ele><time>2026-04-10T13:51:34.001Z</time></trkpt><trkpt lat="43.693355177053" lon="11.428072680966283"><ele>168.0</ele><time>2026-04-10T13:51:35.001Z</time></trkpt><trkpt lat="43.69342557812966" lon="11.427762395244905"><ele>171.0</ele><time>2026-04-10T13:51:36.001Z</time></trkpt><trkpt lat="43.69349360220497" lon="11.427452511306733"><ele>171.0</ele><time>2026-04-10T13:51:37.001Z</time></trkpt><trkpt lat="43.69356135063137" lon="11.427144364567658"><ele>171.0</ele><time>2026-04-10T13:51:38.001Z</time></trkpt><trkpt lat="43.69362752245051" lon="11.426835741447732"><ele>170.5</ele><time>2026-04-10T13:51:39.001Z</time></trkpt><trkpt lat="43.69369749608828" lon="11.426526866384807"><ele>170.0</ele><time>2026-04-10T13:51:40.001Z</time></trkpt><trkpt lat="43.69376858915329" lon="11.426216450701967"><ele>171.5</ele><time>2026-04-10T13:51:41.001Z</time></trkpt><trkpt lat="43.69383767355586" lon="11.425906238060932"><ele>173.0</ele><time>2026-04-10T13:51:42.001Z</time></trkpt><trkpt lat="43.693905584617774" lon="11.425594548938706"><ele>175.0</ele><time>2026-04-10T13:51:43.001Z</time></trkpt><trkpt lat="43.693972571384535" lon="11.425284826490762"><ele>177.0</ele><time>2026-04-10T13:51:44.001Z</time></trkpt><trkpt lat="43.69404107032464" lon="11.424974572844308"><ele>177.0</ele><time>2026-04-10T13:51:45.001Z</time></trkpt><trkpt lat="43.69410855568316" lon="11.424682605438111"><ele>177.0</ele><time>2026-04-10T13:51:46.001Z</time></trkpt><trkpt lat="43.694165202848595" lon="11.42442361876266"><ele>177.0</ele><time>2026-04-10T13:51:47.001Z</time></trkpt><trkpt lat="43.69421577829704" lon="11.42418829105075"><ele>177.0</ele><time>2026-04-10T13:51:48.001Z</time></trkpt><trkpt lat="43.69426115175054" lon="11.42396326267863"><ele>177.0</ele><time>2026-04-10T13:51:49Z</time></trkpt><trkpt lat="43.694300338950235" lon="11.423738816942013"><ele>177.0</ele><time>2026-04-10T13:51:50Z</time></trkpt><trkpt lat="43.69433229640501" lon="11.423506030189536"><ele>179.0</ele><time>2026-04-10T13:51:51Z</time></trkpt><trkpt lat="43.69435666368498" lon="11.423273900520684"><ele>181.0</ele><time>2026-04-10T13:51:52Z</time></trkpt><trkpt lat="43.69437373914614" lon="11.423050004320611"><ele>183.0</ele><time>2026-04-10T13:51:53Z</time></trkpt><trkpt lat="43.69438472883818" lon="11.422816240778298"><ele>183.66666666666666</ele><time>2026-04-10T13:51:54Z</time></trkpt><trkpt lat="43.69438650466246" lon="11.422567703339613"><ele>184.33333333333331</ele><time>2026-04-10T13:51:55Z</time></trkpt><trkpt lat="43.6943804689739" lon="11.422310534409602"><ele>185.0</ele><time>2026-04-10T13:51:56Z</time></trkpt><trkpt lat="43.69437379682606" lon="11.422039005331222"><ele>186.33333333333331</ele><time>2026-04-10T13:51:57Z</time></trkpt><trkpt lat="43.69436794345702" lon="11.421759563955733"><ele>187.66666666666666</ele><time>2026-04-10T13:51:58Z</time></trkpt><trkpt lat="43.69435799817084" lon="11.421474574004035"><ele>189.0</ele><time>2026-04-10T13:51:59Z</time></trkpt><trkpt lat="43.69434411217008" lon="11.42117871852263"><ele>189.33333333333334</ele><time>2026-04-10T13:52:00Z</time></trkpt><trkpt lat="43.69432085742756" lon="11.420879279931869"><ele>189.66666666666669</ele><time>2026-04-10T13:52:01Z</time></trkpt><trkpt lat="43.69427849218391" lon="11.420580320836962"><ele>190.0</ele><time>2026-04-10T13:52:02Z</time></trkpt><trkpt lat="43.69422054024143" lon="11.420283041551965"><ele>189.33333333333334</ele><time>2026-04-10T13:52:03Z</time></trkpt><trkpt lat="43.69415722038399" lon="11.419986798020286"><ele>188.66666666666666</ele><time>2026-04-10T13:52:04Z</time></trkpt><trkpt lat="43.69408690344562" lon="11.419694460170943"><ele>188.0</ele><time>2026-04-10T13:52:05Z</time></trkpt><trkpt lat="43.694009328482515" lon="11.419410606422765"><ele>187.33333333333331</ele><time>2026-04-10T13:52:06Z</time></trkpt><trkpt lat="43.693929161556404" lon="11.419134905486294"><ele>186.66666666666666</ele><time>2026-04-10T13:52:07Z</time></trkpt><trkpt lat="43.69384664809182" lon="11.4188747416793"><ele>186.0</ele><time>2026-04-10T13:52:08Z</time></trkpt><trkpt lat="43.69376402806471" lon="11.418615356231982"><ele>185.5</ele><time>2026-04-10T13:52:09Z</time></trkpt><trkpt lat="43.693684561134035" lon="11.418352636128795"><ele>185.0</ele><time>2026-04-10T13:52:10Z</time></trkpt><trkpt lat="43.69918321257063" lon="11.404090869366993"><ele>206.33333333333331</ele><time>2026-04-10T13:53:11Z</time></trkpt><trkpt lat="43.69934912453085" lon="11.40391877704954"><ele>227.66666666666666</ele><time>2026-04-10T13:53:12Z</time></trkpt><trkpt lat="43.6995128084944" lon="11.403751009200596"><ele>249.0</ele><time>2026-04-10T13:53:13Z</time></trkpt><trkpt lat="43.69967264207615" lon="11.403579546322444"><ele>249.0</ele><time>2026-04-10T13:53:14Z</time></trkpt><trkpt lat="43.699829391382735" lon="11.403404643781126"><ele>249.0</ele><time>2026-04-10T13:53:15Z</time></trkpt><trkpt lat="43.69998337761836" lon="11.40322875397157"><ele>249.0</ele><time>2026-04-10T13:53:16Z</time></trkpt><trkpt lat="43.700138384135926" lon="11.403048547843369"><ele>251.33333333333331</ele><time>2026-04-10T13:53:17Z</time></trkpt><trkpt lat="43.700295045412005" lon="11.402867603566618"><ele>253.66666666666666</ele><time>2026-04-10T13:53:18Z</time></trkpt><trkpt lat="43.70045064224382" lon="11.402690027209232"><ele>256.0</ele><time>2026-04-10T13:53:19Z</time></trkpt><trkpt lat="43.700606263912576" lon="11.402505621627382"><ele>256.0</ele><time>2026-04-10T13:53:20.001Z</time></trkpt><trkpt lat="43.70075852163615" lon="11.402316255445138"><ele>256.0</ele><time>2026-04-10T13:53:21.001Z</time></trkpt><trkpt lat="43.70091029651217" lon="11.402132686651399"><ele>256.0</ele><time>2026-04-10T13:53:22.001Z</time></trkpt><trkpt lat="43.70106314413286" lon="11.40195049829497"><ele>257.3333333333333</ele><time>2026-04-10T13:53:23.001Z</time></trkpt><trkpt lat="43.70121299750082" lon="11.401766007239534"><ele>258.6666666666667</ele><time>2026-04-10T13:53:24.001Z</time></trkpt><trkpt lat="43.70135780591067" lon="11.401582935310058"><ele>260.0</ele><time>2026-04-10T13:53:25.001Z</time></trkpt><trkpt lat="43.70149873633871" lon="11.401408615965412"><ele>259.6666666666667</ele><time>2026-04-10T13:53:26.001Z</time></trkpt><trkpt lat="43.70164290042391" lon="11.40123796819925"><ele>259.3333333333333</ele><time>2026-04-10T13:53:27.001Z</time></trkpt><trkpt lat="43.70178911023586" lon="11.401061437571377"><ele>259.0</ele><time>2026-04-10T13:53:28.001Z</time></trkpt><trkpt lat="43.70193394078946" lon="11.400885698724"><ele>259.0</ele><time>2026-04-10T13:53:29.001Z</time></trkpt><trkpt lat="43.702079798820854" lon="11.400706261840455"><ele>259.0</ele><time>2026-04-10T13:53:30.001Z</time></trkpt><trkpt lat="43.70222815559319" lon="11.400527086357565"><ele>259.0</ele><time>2026-04-10T13:53:31.001Z</time></trkpt><trkpt lat="43.70237742673593" lon="11.40034800732348"><ele>257.3333333333333</ele><time>2026-04-10T13:53:32.001Z</time></trkpt><trkpt lat="43.702527844421866" lon="11.400168884567071"><ele>255.66666666666669</ele><time>2026-04-10T13:53:33.001Z</time></trkpt><trkpt lat="43.702680904890734" lon="11.399988632998841"><ele>254.0</ele><time>2026-04-10T13:53:34.001Z</time></trkpt><trkpt lat="43.70284177630055" lon="11.399810007846353"><ele>257.6666666666667</ele><time>2026-04-10T13:53:35.001Z</time></trkpt><trkpt lat="43.70300975021226" lon="11.399641936536014"><ele>261.3333333333333</ele><time>2026-04-10T13:53:36.001Z</time></trkpt><trkpt lat="43.70318047332985" lon="11.399482915267019"><ele>265.0</ele><time>2026-04-10T13:53:37.001Z</time></trkpt><trkpt lat="43.70334656162178" lon="11.399320014592982"><ele>265.0</ele><time>2026-04-10T13:53:38.001Z</time></trkpt><trkpt lat="43.703517761003795" lon="11.399150953510684"><ele>265.0</ele><time>2026-04-10T13:53:39.001Z</time></trkpt><trkpt lat="43.70369263992368" lon="11.398973704133912"><ele>265.0</ele><time>2026-04-10T13:53:40.001Z</time></trkpt><trkpt lat="43.70386639431361" lon="11.398784924769831"><ele>268.0</ele><time>2026-04-10T13:53:41.001Z</time></trkpt><trkpt lat="43.70403730985301" lon="11.398585096274823"><ele>271.0</ele><time>2026-04-10T13:53:42.001Z</time></trkpt><trkpt lat="43.7042048163137" lon="11.398377332540228"><ele>274.0</ele><time>2026-04-10T13:53:43.001Z</time></trkpt><trkpt lat="43.704374038309396" lon="11.39816289193486"><ele>276.0</ele><time>2026-04-10T13:53:44.001Z</time></trkpt><trkpt lat="43.704547103120035" lon="11.397951630408269"><ele>278.0</ele><time>2026-04-10T13:53:45.001Z</time></trkpt><trkpt lat="43.70472454865015" lon="11.39774194400935"><ele>278.0</ele><time>2026-04-10T13:53:46.001Z</time></trkpt><trkpt lat="43.70489946992835" lon="11.397526255546884"><ele>278.0</ele><time>2026-04-10T13:53:47.001Z</time></trkpt><trkpt lat="43.705074126692274" lon="11.397312344361"><ele>277.5</ele><time>2026-04-10T13:53:48.001Z</time></trkpt><trkpt lat="43.70524173649247" lon="11.397104487533241"><ele>277.0</ele><time>2026-04-10T13:53:49.001Z</time></trkpt><trkpt lat="43.705414638689156" lon="11.396897097405638"><ele>277.0</ele><time>2026-04-10T13:53:50.001Z</time></trkpt><trkpt lat="43.7055899387649" lon="11.396688014187161"><ele>277.0</ele><time>2026-04-10T13:53:51.001Z</time></trkpt><trkpt lat="43.70576134768461" lon="11.396476061502522"><ele>276.3333333333333</ele><time>2026-04-10T13:53:52.001Z</time></trkpt><trkpt lat="43.70593274272369" lon="11.396267069120098"><ele>275.6666666666667</ele><time>2026-04-10T13:53:53.001Z</time></trkpt><trkpt lat="43.70609728747671" lon="11.396073441131433"><ele>275.0</ele><time>2026-04-10T13:53:54.001Z</time></trkpt><trkpt lat="43.70625447968178" lon="11.395884969394288"><ele>275.0</ele><time>2026-04-10T13:53:55Z</time></trkpt><trkpt lat="43.70641537923211" lon="11.395694876050088"><ele>275.0</ele><time>2026-04-10T13:53:56Z</time></trkpt><trkpt lat="43.70657513837586" lon="11.395503784145442"><ele>275.0</ele><time>2026-04-10T13:53:57Z</time></trkpt><trkpt lat="43.70674007412851" lon="11.395310047907238"><ele>272.0</ele><time>2026-04-10T13:53:58Z</time></trkpt><trkpt lat="43.706911978271485" lon="11.395113594227363"><ele>269.0</ele><time>2026-04-10T13:53:59Z</time></trkpt><trkpt lat="43.707086011447664" lon="11.394912111045606"><ele>269.0</ele><time>2026-04-10T13:54:00Z</time></trkpt><trkpt lat="43.70726806316581" lon="11.394712096151515"><ele>269.0</ele><time>2026-04-10T13:54:01Z</time></trkpt><trkpt lat="43.707458249509244" lon="11.394519061099327"><ele>272.5</ele><time>2026-04-10T13:54:02Z</time></trkpt><trkpt lat="43.7076567062141" lon="11.394330128528548"><ele>276.0</ele><time>2026-04-10T13:54:03Z</time></trkpt><trkpt lat="43.70786167643088" lon="11.394150759383944"><ele>276.0</ele><time>2026-04-10T13:54:04Z</time></trkpt><trkpt lat="43.70807371267972" lon="11.393977249038631"><ele>276.0</ele><time>2026-04-10T13:54:05Z</time></trkpt><trkpt lat="43.70829225248826" lon="11.393810625930618"><ele>278.5</ele><time>2026-04-10T13:54:06Z</time></trkpt><trkpt lat="43.70851287228566" lon="11.393657052247839"><ele>281.0</ele><time>2026-04-10T13:54:07Z</time></trkpt><trkpt lat="43.70874089546892" lon="11.393513451898475"><ele>276.0</ele><time>2026-04-10T13:54:08Z</time></trkpt><trkpt lat="43.708974454735504" lon="11.393375559248476"><ele>271.0</ele><time>2026-04-10T13:54:09Z</time></trkpt><trkpt lat="43.70921372440803" lon="11.39324798171634"><ele>360.0</ele><time>2026-04-10T13:54:10Z</time></trkpt><trkpt lat="43.7193216749966" lon="11.383396709403463"><ele>362.0</ele><time>2026-04-10T13:55:11Z</time></trkpt><trkpt lat="43.719507027244525" lon="11.383123515598484"><ele>364.0</ele><time>2026-04-10T13:55:12Z</time></trkpt><trkpt lat="43.719649694647416" lon="11.382855450729426"><ele>370.0</ele><time>2026-04-10T13:55:13Z</time></trkpt><trkpt lat="43.71979300234303" lon="11.38257937289722"><ele>376.0</ele><time>2026-04-10T13:55:14Z</time></trkpt><trkpt lat="43.71993816282044" lon="11.382305512544812"><ele>379.0</ele><time>2026-04-10T13:55:15Z</time></trkpt><trkpt lat="43.720077969009665" lon="11.382025802973985"><ele>382.0</ele><time>2026-04-10T13:55:16Z</time></trkpt><trkpt lat="43.72022779024874" lon="11.381746528283974"><ele>381.5</ele><time>2026-04-10T13:55:17Z</time></trkpt><trkpt lat="43.720383054301344" lon="11.38145623790657"><ele>381.0</ele><time>2026-04-10T13:55:18Z</time></trkpt><trkpt lat="43.720533959441504" lon="11.381162601868882"><ele>381.0</ele><time>2026-04-10T13:55:19Z</time></trkpt><trkpt lat="43.72068486203471" lon="11.380868916976834"><ele>381.0</ele><time>2026-04-10T13:55:20Z</time></trkpt><trkpt lat="43.720838489736956" lon="11.38057025762393"><ele>376.5</ele><time>2026-04-10T13:55:21Z</time></trkpt><trkpt lat="43.721010021439405" lon="11.38028750652881"><ele>372.0</ele><time>2026-04-10T13:55:22Z</time></trkpt><trkpt lat="43.721168714668444" lon="11.37999094486853"><ele>366.0</ele><time>2026-04-10T13:55:23Z</time></trkpt><trkpt lat="43.72132885903866" lon="11.379694494252867"><ele>360.0</ele><time>2026-04-10T13:55:24Z</time></trkpt><trkpt lat="43.72149204155635" lon="11.379394245293396"><ele>355.5</ele><time>2026-04-10T13:55:25Z</time></trkpt><trkpt lat="43.721652203663666" lon="11.379100067279005"><ele>351.0</ele><time>2026-04-10T13:55:26Z</time></trkpt><trkpt lat="43.721813122319745" lon="11.378804499679045"><ele>341.0</ele><time>2026-04-10T13:55:27Z</time></trkpt><trkpt lat="43.72196813643845" lon="11.37851570987844"><ele>331.0</ele><time>2026-04-10T13:55:28Z</time></trkpt><trkpt lat="43.722115054059536" lon="11.378240914911702"><ele>326.5</ele><time>2026-04-10T13:55:29.001Z</time></trkpt><trkpt lat="43.72225264043622" lon="11.377983573143037"><ele>322.0</ele><time>2026-04-10T13:55:30.001Z</time></trkpt><trkpt lat="43.722395211049815" lon="11.377721011423695"><ele>322.0</ele><time>2026-04-10T13:55:31.001Z</time></trkpt><trkpt lat="43.722536343868356" lon="11.377462564770271"><ele>322.0</ele><time>2026-04-10T13:55:32.001Z</time></trkpt><trkpt lat="43.722679292394496" lon="11.377200906169817"><ele>317.66666666666663</ele><time>2026-04-10T13:55:33.001Z</time></trkpt><trkpt lat="43.72282282231147" lon="11.376938183362526"><ele>313.3333333333333</ele><time>2026-04-10T13:55:34.001Z</time></trkpt><trkpt lat="43.72294532252076" lon="11.376716435861434"><ele>309.0</ele><time>2026-04-10T13:55:35.001Z</time></trkpt><trkpt lat="43.723025600837296" lon="11.376573664460397"><ele>309.0</ele><time>2026-04-10T13:55:36.001Z</time></trkpt><trkpt lat="43.72312806351875" lon="11.376394393022931"><ele>309.0</ele><time>2026-04-10T13:55:37.001Z</time></trkpt><trkpt lat="43.72323929852997" lon="11.376217623482221"><ele>309.0</ele><time>2026-04-10T13:55:38.026Z</time></trkpt><trkpt lat="43.72335449261611" lon="11.376135289828587"><ele>306.0</ele><time>2026-04-10T13:55:40.001Z</time></trkpt><trkpt lat="43.72349995565501" lon="11.375929312998812"><ele>303.0</ele><time>2026-04-10T13:55:41.001Z</time></trkpt><trkpt lat="43.723659036089174" lon="11.375769744637548"><ele>300.0</ele><time>2026-04-10T13:55:42.001Z</time></trkpt><trkpt lat="43.72387941096616" lon="11.375613168662532"><ele>297.3333333333333</ele><time>2026-04-10T13:55:43.001Z</time></trkpt><trkpt lat="43.72405696804338" lon="11.375464360733853"><ele>294.66666666666663</ele><time>2026-04-10T13:55:44.001Z</time></trkpt><trkpt lat="43.724252281395444" lon="11.375314363987552"><ele>292.0</ele><time>2026-04-10T13:55:45.001Z</time></trkpt><trkpt lat="43.72446114395224" lon="11.375177906624135"><ele>292.0</ele><time>2026-04-10T13:55:46.001Z</time></trkpt><trkpt lat="43.72467879565782" lon="11.375053111306016"><ele>292.0</ele><time>2026-04-10T13:55:47.001Z</time></trkpt><trkpt lat="43.724904480141866" lon="11.374948665501874"><ele>292.0</ele><time>2026-04-10T13:55:48.001Z</time></trkpt><trkpt lat="43.72513643042648" lon="11.374862583231302"><ele>292.0</ele><time>2026-04-10T13:55:49.001Z</time></trkpt><trkpt lat="43.72537338040746" lon="11.374784183463833"><ele>288.5</ele><time>2026-04-10T13:55:50.001Z</time></trkpt><trkpt lat="43.725608224889896" lon="11.374700453892988"><ele>285.0</ele><time>2026-04-10T13:55:51.001Z</time></trkpt><trkpt lat="43.725841141168424" lon="11.3746178393933"><ele>278.5</ele><time>2026-04-10T13:55:52.001Z</time></trkpt><trkpt lat="43.726079978898255" lon="11.374532621269129"><ele>272.0</ele><time>2026-04-10T13:55:53.001Z</time></trkpt><trkpt lat="43.72632205853334" lon="11.374446859977713"><ele>272.0</ele><time>2026-04-10T13:55:54.001Z</time></trkpt><trkpt lat="43.72656759047763" lon="11.374361231273955"><ele>272.0</ele><time>2026-04-10T13:55:55.001Z</time></trkpt><trkpt lat="43.72681251644274" lon="11.37427481833481"><ele>270.5</ele><time>2026-04-10T13:55:56.001Z</time></trkpt><trkpt lat="43.727051589546925" lon="11.37418398945771"><ele>269.0</ele><time>2026-04-10T13:55:57.001Z</time></trkpt><trkpt lat="43.727280350714196" lon="11.37409394865556"><ele>269.0</ele><time>2026-04-10T13:55:58.001Z</time></trkpt><trkpt lat="43.72750545454282" lon="11.374004656255678"><ele>269.0</ele><time>2026-04-10T13:55:59.001Z</time></trkpt><trkpt lat="43.72772924730913" lon="11.373908818580116"><ele>268.5</ele><time>2026-04-10T13:56:00.001Z</time></trkpt><trkpt lat="43.72794961052166" lon="11.373789202623785"><ele>268.0</ele><time>2026-04-10T13:56:01Z</time></trkpt><trkpt lat="43.728161841351636" lon="11.373648490630098"><ele>268.0</ele><time>2026-04-10T13:56:02Z</time></trkpt><trkpt lat="43.72836700639711" lon="11.373486822813424"><ele>268.0</ele><time>2026-04-10T13:56:03Z</time></trkpt><trkpt lat="43.728566335898286" lon="11.373308292850302"><ele>267.5</ele><time>2026-04-10T13:56:04Z</time></trkpt><trkpt lat="43.72876152213738" lon="11.37310861682335"><ele>267.0</ele><time>2026-04-10T13:56:05Z</time></trkpt><trkpt lat="43.728952746481866" lon="11.372885044452914"><ele>267.0</ele><time>2026-04-10T13:56:06Z</time></trkpt><trkpt lat="43.729132105849914" lon="11.372644047996559"><ele>267.0</ele><time>2026-04-10T13:56:07Z</time></trkpt><trkpt lat="43.72929604065783" lon="11.372385714148857"><ele>267.5</ele><time>2026-04-10T13:56:08Z</time></trkpt><trkpt lat="43.7294468477917" lon="11.3721101485225"><ele>268.0</ele><time>2026-04-10T13:56:09Z</time></trkpt><trkpt lat="43.72958283816185" lon="11.371820150966906"><ele>202.0</ele><time>2026-04-10T13:56:10Z</time></trkpt><trkpt lat="43.72846644039107" lon="11.350271611682489"><ele>202.0</ele><time>2026-04-10T13:57:11.001Z</time></trkpt><trkpt lat="43.72838262827468" lon="11.349932498753653"><ele>202.0</ele><time>2026-04-10T13:57:12.001Z</time></trkpt><trkpt lat="43.72829483487641" lon="11.349595394326974"><ele>205.0</ele><time>2026-04-10T13:57:13.001Z</time></trkpt><trkpt lat="43.72820519860239" lon="11.349258751804054"><ele>208.0</ele><time>2026-04-10T13:57:14.001Z</time></trkpt><trkpt lat="43.72811998908796" lon="11.34892154605436"><ele>213.5</ele><time>2026-04-10T13:57:15.001Z</time></trkpt><trkpt lat="43.728038493746716" lon="11.348580988768735"><ele>219.0</ele><time>2026-04-10T13:57:16.001Z</time></trkpt><trkpt lat="43.72796028150298" lon="11.348237780007643"><ele>220.5</ele><time>2026-04-10T13:57:17.001Z</time></trkpt><trkpt lat="43.727886054356105" lon="11.347885317060527"><ele>222.0</ele><time>2026-04-10T13:57:18.001Z</time></trkpt><trkpt lat="43.72782428397673" lon="11.347526680354951"><ele>218.5</ele><time>2026-04-10T13:57:19.001Z</time></trkpt><trkpt lat="43.72778053120807" lon="11.34716354036367"><ele>215.0</ele><time>2026-04-10T13:57:20.001Z</time></trkpt><trkpt lat="43.727747629907384" lon="11.346800361844817"><ele>209.5</ele><time>2026-04-10T13:57:21.001Z</time></trkpt><trkpt lat="43.727725477526604" lon="11.34644099900492"><ele>204.0</ele><time>2026-04-10T13:57:22.001Z</time></trkpt><trkpt lat="43.72771468057801" lon="11.34608720650077"><ele>203.5</ele><time>2026-04-10T13:57:23.001Z</time></trkpt><trkpt lat="43.72771207911804" lon="11.345735862852305"><ele>203.0</ele><time>2026-04-10T13:57:24.001Z</time></trkpt><trkpt lat="43.72772271555572" lon="11.345382518225575"><ele>203.5</ele><time>2026-04-10T13:57:25.001Z</time></trkpt><trkpt lat="43.727741451862805" lon="11.34502632377879"><ele>204.0</ele><time>2026-04-10T13:57:26.001Z</time></trkpt><trkpt lat="43.72776733717925" lon="11.344666498489971"><ele>204.0</ele><time>2026-04-10T13:57:27.001Z</time></trkpt><trkpt lat="43.72780478606827" lon="11.3443112226876"><ele>204.0</ele><time>2026-04-10T13:57:28.001Z</time></trkpt><trkpt lat="43.727852883500546" lon="11.343956346847676"><ele>202.5</ele><time>2026-04-10T13:57:29.001Z</time></trkpt><trkpt lat="43.72790502773586" lon="11.343597360810731"><ele>201.0</ele><time>2026-04-10T13:57:30.001Z</time></trkpt><trkpt lat="43.72795955253429" lon="11.343238665740158"><ele>200.5</ele><time>2026-04-10T13:57:31.001Z</time></trkpt><trkpt lat="43.728017824305745" lon="11.34287604068593"><ele>200.0</ele><time>2026-04-10T13:57:32.001Z</time></trkpt><trkpt lat="43.72807987061295" lon="11.342509514724926"><ele>199.0</ele><time>2026-04-10T13:57:33.001Z</time></trkpt><trkpt lat="43.728146868387" lon="11.342142983905829"><ele>198.0</ele><time>2026-04-10T13:57:34.001Z</time></trkpt><trkpt lat="43.72821815692009" lon="11.341777723521592"><ele>198.0</ele><time>2026-04-10T13:57:35.001Z</time></trkpt><trkpt lat="43.728297137986694" lon="11.341413155216292"><ele>198.0</ele><time>2026-04-10T13:57:36.001Z</time></trkpt><trkpt lat="43.72838208294665" lon="11.341044342850342"><ele>196.5</ele><time>2026-04-10T13:57:37.001Z</time></trkpt><trkpt lat="43.728473935015934" lon="11.340680168243582"><ele>195.0</ele><time>2026-04-10T13:57:38.001Z</time></trkpt><trkpt lat="43.728573051412894" lon="11.34031847380966"><ele>189.0</ele><time>2026-04-10T13:57:39.001Z</time></trkpt><trkpt lat="43.7286733453457" lon="11.339959496450495"><ele>183.0</ele><time>2026-04-10T13:57:40.001Z</time></trkpt><trkpt lat="43.72877277578531" lon="11.339600043866325"><ele>182.5</ele><time>2026-04-10T13:57:41.001Z</time></trkpt><trkpt lat="43.728873086613625" lon="11.339238886898057"><ele>182.0</ele><time>2026-04-10T13:57:42.001Z</time></trkpt><trkpt lat="43.72896867059495" lon="11.33887676944642"><ele>180.5</ele><time>2026-04-10T13:57:43.001Z</time></trkpt><trkpt lat="43.72905952597638" lon="11.338513992521525"><ele>179.0</ele><time>2026-04-10T13:57:44.001Z</time></trkpt><trkpt lat="43.72914875942861" lon="11.338151370789385"><ele>177.5</ele><time>2026-04-10T13:57:45.001Z</time></trkpt><trkpt lat="43.72923525330271" lon="11.337791393672362"><ele>176.0</ele><time>2026-04-10T13:57:46.001Z</time></trkpt><trkpt lat="43.72931591253574" lon="11.337434712679059"><ele>176.0</ele><time>2026-04-10T13:57:47.001Z</time></trkpt><trkpt lat="43.72938845625655" lon="11.337083795222807"><ele>176.0</ele><time>2026-04-10T13:57:48.001Z</time></trkpt><trkpt lat="43.729455745632514" lon="11.33672714649832"><ele>173.0</ele><time>2026-04-10T13:57:49.001Z</time></trkpt><trkpt lat="43.72951535351606" lon="11.33636666886687"><ele>170.0</ele><time>2026-04-10T13:57:50.001Z</time></trkpt><trkpt lat="43.72956437472702" lon="11.336001150579655"><ele>170.0</ele><time>2026-04-10T13:57:51.001Z</time></trkpt><trkpt lat="43.729605411067915" lon="11.335633792529284"><ele>170.0</ele><time>2026-04-10T13:57:52.001Z</time></trkpt><trkpt lat="43.729639304103095" lon="11.335261887509581"><ele>171.0</ele><time>2026-04-10T13:57:53.001Z</time></trkpt><trkpt lat="43.72966341414928" lon="11.334886666445321"><ele>172.0</ele><time>2026-04-10T13:57:54.001Z</time></trkpt><trkpt lat="43.72968090084985" lon="11.33451105863958"><ele>172.0</ele><time>2026-04-10T13:57:55.002Z</time></trkpt><trkpt lat="43.72969085736511" lon="11.334126760921105"><ele>172.0</ele><time>2026-04-10T13:57:56.002Z</time></trkpt><trkpt lat="43.72969438579241" lon="11.33374711128055"><ele>170.0</ele><time>2026-04-10T13:57:57.002Z</time></trkpt><trkpt lat="43.72969542755762" lon="11.33337161681585"><ele>168.0</ele><time>2026-04-10T13:57:58.002Z</time></trkpt><trkpt lat="43.72969087605713" lon="11.33299354672989"><ele>167.0</ele><time>2026-04-10T13:57:59.002Z</time></trkpt><trkpt lat="43.7296868922714" lon="11.332608031340486"><ele>166.0</ele><time>2026-04-10T13:58:00.002Z</time></trkpt><trkpt lat="43.729688214016285" lon="11.332234573127595"><ele>165.0</ele><time>2026-04-10T13:58:01.002Z</time></trkpt><trkpt lat="43.729689488137566" lon="11.331858803267359"><ele>164.0</ele><time>2026-04-10T13:58:02.002Z</time></trkpt><trkpt lat="43.72968636114989" lon="11.331483787457929"><ele>160.5</ele><time>2026-04-10T13:58:03.002Z</time></trkpt><trkpt lat="43.72968179355281" lon="11.331114110896097"><ele>157.0</ele><time>2026-04-10T13:58:04.002Z</time></trkpt><trkpt lat="43.72968363374808" lon="11.330738356767462"><ele>154.5</ele><time>2026-04-10T13:58:05.002Z</time></trkpt><trkpt lat="43.72968160477444" lon="11.330367180037806"><ele>152.0</ele><time>2026-04-10T13:58:06.002Z</time></trkpt><trkpt lat="43.7296798573764" lon="11.329999600142516"><ele>150.5</ele><time>2026-04-10T13:58:07.001Z</time></trkpt><trkpt lat="43.72967534688571" lon="11.329625943008091"><ele>149.0</ele><time>2026-04-10T13:58:08.001Z</time></trkpt><trkpt lat="43.72967004242695" lon="11.329253230686204"><ele>147.5</ele><time>2026-04-10T13:58:09.001Z</time></trkpt><trkpt lat="43.72966337433804" lon="11.328880608436279"><ele>146.0</ele><time>2026-04-10T13:58:10.001Z</time></trkpt><trkpt lat="43.733049458629395" lon="11.308471036821548"><ele>123.5</ele><time>2026-04-10T13:59:11.001Z</time></trkpt><trkpt lat="43.7331120235163" lon="11.308143865503915"><ele>101.0</ele><time>2026-04-10T13:59:12.001Z</time></trkpt><trkpt lat="43.73316335974902" lon="11.307828268978264"><ele>100.0</ele><time>2026-04-10T13:59:13.001Z</time></trkpt><trkpt lat="43.733209620699256" lon="11.307505309381575"><ele>99.0</ele><time>2026-04-10T13:59:14.001Z</time></trkpt><trkpt lat="43.73324811339149" lon="11.307179781756243"><ele>98.0</ele><time>2026-04-10T13:59:15.001Z</time></trkpt><trkpt lat="43.73327609838708" lon="11.306852754507492"><ele>97.0</ele><time>2026-04-10T13:59:16.001Z</time></trkpt><trkpt lat="43.73329965880178" lon="11.30652481886977"><ele>96.5</ele><time>2026-04-10T13:59:17.001Z</time></trkpt><trkpt lat="43.73331635942128" lon="11.306196089748765"><ele>96.0</ele><time>2026-04-10T13:59:18.001Z</time></trkpt><trkpt lat="43.73332551149388" lon="11.305866933280855"><ele>95.5</ele><time>2026-04-10T13:59:19.001Z</time></trkpt><trkpt lat="43.73332763265969" lon="11.305534124457674"><ele>95.0</ele><time>2026-04-10T13:59:20.001Z</time></trkpt><trkpt lat="43.7333271138941" lon="11.30520131543833"><ele>95.0</ele><time>2026-04-10T13:59:21.001Z</time></trkpt><trkpt lat="43.73332251873903" lon="11.304864775517903"><ele>95.0</ele><time>2026-04-10T13:59:22.001Z</time></trkpt><trkpt lat="43.73331690276466" lon="11.304525144723373"><ele>95.0</ele><time>2026-04-10T13:59:23.001Z</time></trkpt><trkpt lat="43.73331502924459" lon="11.30418732962807"><ele>95.0</ele><time>2026-04-10T13:59:24.001Z</time></trkpt><trkpt lat="43.733317946747576" lon="11.303846790175887"><ele>95.0</ele><time>2026-04-10T13:59:25.001Z</time></trkpt><trkpt lat="43.733324892868886" lon="11.3035045097635"><ele>95.0</ele><time>2026-04-10T13:59:26.001Z</time></trkpt><trkpt lat="43.73333795405536" lon="11.30315923559781"><ele>94.0</ele><time>2026-04-10T13:59:27.001Z</time></trkpt><trkpt lat="43.733362819666596" lon="11.302816346936641"><ele>93.0</ele><time>2026-04-10T13:59:28.001Z</time></trkpt><trkpt lat="43.73340091646992" lon="11.302477124553581"><ele>93.5</ele><time>2026-04-10T13:59:29.001Z</time></trkpt><trkpt lat="43.73345886736396" lon="11.302147054017398"><ele>94.0</ele><time>2026-04-10T13:59:30.001Z</time></trkpt><trkpt lat="43.73353209316337" lon="11.301821798126955"><ele>101.0</ele><time>2026-04-10T13:59:31.001Z</time></trkpt><trkpt lat="43.73362330435925" lon="11.301511471295692"><ele>108.0</ele><time>2026-04-10T13:59:32.001Z</time></trkpt><trkpt lat="43.73372808517714" lon="11.301213919557647"><ele>108.0</ele><time>2026-04-10T13:59:33.001Z</time></trkpt><trkpt lat="43.73384751871714" lon="11.300930315775302"><ele>108.0</ele><time>2026-04-10T13:59:34.001Z</time></trkpt><trkpt lat="43.733980038004574" lon="11.30065664819005"><ele>103.5</ele><time>2026-04-10T13:59:35.001Z</time></trkpt><trkpt lat="43.73412236871507" lon="11.30039330131041"><ele>99.0</ele><time>2026-04-10T13:59:36.001Z</time></trkpt><trkpt lat="43.73427198584113" lon="11.300135706940337"><ele>101.0</ele><time>2026-04-10T13:59:37.001Z</time></trkpt><trkpt lat="43.734427401596264" lon="11.299886446384898"><ele>103.0</ele><time>2026-04-10T13:59:38.001Z</time></trkpt><trkpt lat="43.734590331332285" lon="11.299646872901238"><ele>103.0</ele><time>2026-04-10T13:59:39.001Z</time></trkpt><trkpt lat="43.73475532283571" lon="11.299408167739603"><ele>103.0</ele><time>2026-04-10T13:59:40.001Z</time></trkpt><trkpt lat="43.73492190668436" lon="11.299168442539798"><ele>103.0</ele><time>2026-04-10T13:59:41.001Z</time></trkpt><trkpt lat="43.73508918697111" lon="11.29892838715512"><ele>103.0</ele><time>2026-04-10T13:59:42.001Z</time></trkpt><trkpt lat="43.73525476047779" lon="11.298686364526306"><ele>101.5</ele><time>2026-04-10T13:59:43.001Z</time></trkpt><trkpt lat="43.7354144617455" lon="11.298435208177256"><ele>100.0</ele><time>2026-04-10T13:59:44.001Z</time></trkpt><trkpt lat="43.73557440463167" lon="11.298183619297687"><ele>97.0</ele><time>2026-04-10T13:59:45.001Z</time></trkpt><trkpt lat="43.735728841241475" lon="11.297922878988052"><ele>94.0</ele><time>2026-04-10T13:59:46.001Z</time></trkpt><trkpt lat="43.73587488322906" lon="11.297653203592281"><ele>94.0</ele><time>2026-04-10T13:59:47.001Z</time></trkpt><trkpt lat="43.736012537892194" lon="11.297375755554379"><ele>94.0</ele><time>2026-04-10T13:59:48.001Z</time></trkpt><trkpt lat="43.736138492925996" lon="11.29708583511411"><ele>90.0</ele><time>2026-04-10T13:59:49.001Z</time></trkpt><trkpt lat="43.73625597081298" lon="11.296789148995455"><ele>86.0</ele><time>2026-04-10T13:59:50.001Z</time></trkpt><trkpt lat="43.73636382848199" lon="11.296485219981399"><ele>85.0</ele><time>2026-04-10T13:59:51.001Z</time></trkpt><trkpt lat="43.736462064451835" lon="11.296174099845564"><ele>84.0</ele><time>2026-04-10T13:59:52.001Z</time></trkpt><trkpt lat="43.73655332254373" lon="11.295859860907832"><ele>84.0</ele><time>2026-04-10T13:59:53.001Z</time></trkpt><trkpt lat="43.7366356317727" lon="11.29553928882076"><ele>84.0</ele><time>2026-04-10T13:59:54.001Z</time></trkpt><trkpt lat="43.73670901045585" lon="11.295214185757287"><ele>84.0</ele><time>2026-04-10T13:59:55.001Z</time></trkpt><trkpt lat="43.73677561325737" lon="11.294884795951782"><ele>84.0</ele><time>2026-04-10T13:59:56.001Z</time></trkpt><trkpt lat="43.73683725195363" lon="11.29455135519834"><ele>82.0</ele><time>2026-04-10T13:59:57.001Z</time></trkpt><trkpt lat="43.73689896064253" lon="11.294217856896362"><ele>80.0</ele><time>2026-04-10T13:59:58.001Z</time></trkpt><trkpt lat="43.73696364265383" lon="11.29388364547405"><ele>80.0</ele><time>2026-04-10T13:59:59.001Z</time></trkpt><trkpt lat="43.73703123612456" lon="11.293557869839072"><ele>80.0</ele><time>2026-04-10T14:00:00.001Z</time></trkpt><trkpt lat="43.737102777639315" lon="11.29324520734306"><ele>83.0</ele><time>2026-04-10T14:00:01.001Z</time></trkpt><trkpt lat="43.73717898872475" lon="11.292930318814575"><ele>86.0</ele><time>2026-04-10T14:00:02.001Z</time></trkpt><trkpt lat="43.73726112638954" lon="11.292614420800717"><ele>86.0</ele><time>2026-04-10T14:00:03.001Z</time></trkpt><trkpt lat="43.73735173863592" lon="11.292303830764565"><ele>86.0</ele><time>2026-04-10T14:00:04.001Z</time></trkpt><trkpt lat="43.73745201760829" lon="11.291998839757506"><ele>91.0</ele><time>2026-04-10T14:00:05.001Z</time></trkpt><trkpt lat="43.73755799271759" lon="11.29169642045142"><ele>96.0</ele><time>2026-04-10T14:00:06.001Z</time></trkpt><trkpt lat="43.73767513323571" lon="11.291400365793137"><ele>91.5</ele><time>2026-04-10T14:00:07.001Z</time></trkpt><trkpt lat="43.737800496874925" lon="11.291110358593176"><ele>87.0</ele><time>2026-04-10T14:00:08.001Z</time></trkpt><trkpt lat="43.73793276794902" lon="11.290828281513084"><ele>83.0</ele><time>2026-04-10T14:00:09.001Z</time></trkpt><trkpt lat="43.73806756072295" lon="11.290549516982946"><ele>79.0</ele><time>2026-04-10T14:00:10.001Z</time></trkpt><trkpt lat="43.73877091072582" lon="11.271259682257982"><ele>79.0</ele><time>2026-04-10T14:01:11.001Z</time></trkpt><trkpt lat="43.73861714788068" lon="11.270995338860796"><ele>79.0</ele><time>2026-04-10T14:01:12.001Z</time></trkpt><trkpt lat="43.73846101706978" lon="11.270731198834612"><ele>82.0</ele><time>2026-04-10T14:01:13.001Z</time></trkpt><trkpt lat="43.73830235871041" lon="11.270465847314748"><ele>85.0</ele><time>2026-04-10T14:01:14.001Z</time></trkpt><trkpt lat="43.738145216110986" lon="11.27019721709401"><ele>85.0</ele><time>2026-04-10T14:01:15.001Z</time></trkpt><trkpt lat="43.737985198920434" lon="11.269928731443892"><ele>85.0</ele><time>2026-04-10T14:01:16.001Z</time></trkpt><trkpt lat="43.73782726023239" lon="11.269660755159938"><ele>86.0</ele><time>2026-04-10T14:01:17.001Z</time></trkpt><trkpt lat="43.7376681872665" lon="11.269394216119311"><ele>87.0</ele><time>2026-04-10T14:01:18.001Z</time></trkpt><trkpt lat="43.737509606960714" lon="11.269125981777572"><ele>84.0</ele><time>2026-04-10T14:01:19.001Z</time></trkpt><trkpt lat="43.7373533321712" lon="11.268856222768903"><ele>81.0</ele><time>2026-04-10T14:01:20.001Z</time></trkpt><trkpt lat="43.737196934142744" lon="11.268587107706066"><ele>81.0</ele><time>2026-04-10T14:01:21.001Z</time></trkpt><trkpt lat="43.73704076930098" lon="11.26831964273554"><ele>81.0</ele><time>2026-04-10T14:01:22.001Z</time></trkpt><trkpt lat="43.736883408253554" lon="11.268052399012861"><ele>84.5</ele><time>2026-04-10T14:01:23.001Z</time></trkpt><trkpt lat="43.73672577344" lon="11.267785414307523"><ele>88.0</ele><time>2026-04-10T14:01:24.001Z</time></trkpt><trkpt lat="43.73656647496861" lon="11.26751827047712"><ele>84.5</ele><time>2026-04-10T14:01:25.001Z</time></trkpt><trkpt lat="43.736406614684505" lon="11.26725119119994"><ele>81.0</ele><time>2026-04-10T14:01:26.001Z</time></trkpt><trkpt lat="43.73624654102229" lon="11.266983275943808"><ele>81.0</ele><time>2026-04-10T14:01:27.001Z</time></trkpt><trkpt lat="43.7360863081474" lon="11.266714352939626"><ele>81.0</ele><time>2026-04-10T14:01:28.001Z</time></trkpt><trkpt lat="43.73592523312695" lon="11.266443431292023"><ele>82.0</ele><time>2026-04-10T14:01:29.001Z</time></trkpt><trkpt lat="43.7357636968262" lon="11.26616957500261"><ele>83.0</ele><time>2026-04-10T14:01:30.001Z</time></trkpt><trkpt lat="43.735602833769605" lon="11.265894331056206"><ele>83.0</ele><time>2026-04-10T14:01:31.001Z</time></trkpt><trkpt lat="43.73543958555039" lon="11.26561805480938"><ele>83.0</ele><time>2026-04-10T14:01:32.001Z</time></trkpt><trkpt lat="43.73527761623815" lon="11.265342050109984"><ele>86.0</ele><time>2026-04-10T14:01:33.001Z</time></trkpt><trkpt lat="43.7351158148167" lon="11.265064418033598"><ele>89.0</ele><time>2026-04-10T14:01:34.001Z</time></trkpt><trkpt lat="43.7349534408807" lon="11.264784435608965"><ele>87.5</ele><time>2026-04-10T14:01:35.001Z</time></trkpt><trkpt lat="43.73478940707603" lon="11.264506162455252"><ele>86.0</ele><time>2026-04-10T14:01:36.001Z</time></trkpt><trkpt lat="43.73462511297801" lon="11.264227092302708"><ele>86.0</ele><time>2026-04-10T14:01:37.001Z</time></trkpt><trkpt lat="43.7344602838594" lon="11.263948601356075"><ele>86.0</ele><time>2026-04-10T14:01:38.001Z</time></trkpt><trkpt lat="43.73429430363356" lon="11.263670571958968"><ele>88.0</ele><time>2026-04-10T14:01:39.001Z</time></trkpt><trkpt lat="43.73412819924146" lon="11.263392925436426"><ele>90.0</ele><time>2026-04-10T14:01:40.001Z</time></trkpt><trkpt lat="43.73396128627052" lon="11.263115380386862"><ele>87.0</ele><time>2026-04-10T14:01:41.001Z</time></trkpt><trkpt lat="43.733797331704274" lon="11.26284116501567"><ele>84.0</ele><time>2026-04-10T14:01:42.001Z</time></trkpt><trkpt lat="43.73364328070721" lon="11.262580527038471"><ele>83.0</ele><time>2026-04-10T14:01:43.001Z</time></trkpt><trkpt lat="43.733491373283066" lon="11.262319029820754"><ele>82.0</ele><time>2026-04-10T14:01:44.001Z</time></trkpt><trkpt lat="43.73333990531966" lon="11.262063325523538"><ele>82.0</ele><time>2026-04-10T14:01:45.001Z</time></trkpt><trkpt lat="43.73318976990745" lon="11.261809412583244"><ele>82.0</ele><time>2026-04-10T14:01:46.001Z</time></trkpt><trkpt lat="43.73304065453697" lon="11.261551404821175"><ele>79.0</ele><time>2026-04-10T14:01:47.001Z</time></trkpt><trkpt lat="43.732890251124815" lon="11.261297083850947"><ele>76.0</ele><time>2026-04-10T14:01:48.001Z</time></trkpt><trkpt lat="43.732740548009595" lon="11.261040256682971"><ele>79.0</ele><time>2026-04-10T14:01:49.001Z</time></trkpt><trkpt lat="43.732591029429905" lon="11.26078535662495"><ele>82.0</ele><time>2026-04-10T14:01:50.001Z</time></trkpt><trkpt lat="43.732440264551336" lon="11.260532322969526"><ele>82.0</ele><time>2026-04-10T14:01:51.001Z</time></trkpt><trkpt lat="43.73229064737216" lon="11.26027892069975"><ele>82.0</ele><time>2026-04-10T14:01:52.001Z</time></trkpt><trkpt lat="43.73213962169927" lon="11.260026803234135"><ele>83.5</ele><time>2026-04-10T14:01:53.001Z</time></trkpt><trkpt lat="43.731989506845174" lon="11.25977565388133"><ele>85.0</ele><time>2026-04-10T14:01:54.001Z</time></trkpt><trkpt lat="43.73184178845022" lon="11.2595230980219"><ele>85.0</ele><time>2026-04-10T14:01:55.001Z</time></trkpt><trkpt lat="43.73169591489188" lon="11.259268753362255"><ele>85.0</ele><time>2026-04-10T14:01:56.001Z</time></trkpt><trkpt lat="43.73154697041183" lon="11.259015500397688"><ele>80.5</ele><time>2026-04-10T14:01:57.001Z</time></trkpt><trkpt lat="43.73139820678281" lon="11.258762549927193"><ele>76.0</ele><time>2026-04-10T14:01:58.001Z</time></trkpt><trkpt lat="43.73124896276053" lon="11.258510879376031"><ele>76.0</ele><time>2026-04-10T14:01:59.001Z</time></trkpt><trkpt lat="43.73110056671043" lon="11.258258516512676"><ele>76.0</ele><time>2026-04-10T14:02:00.001Z</time></trkpt><trkpt lat="43.73095298029295" lon="11.258005077824283"><ele>79.0</ele><time>2026-04-10T14:02:01.001Z</time></trkpt><trkpt lat="43.730805098098884" lon="11.257749747148615"><ele>82.0</ele><time>2026-04-10T14:02:02.001Z</time></trkpt><trkpt lat="43.73065752904212" lon="11.257495972653649"><ele>81.0</ele><time>2026-04-10T14:02:03.001Z</time></trkpt><trkpt lat="43.730508862343214" lon="11.257244065471435"><ele>80.0</ele><time>2026-04-10T14:02:04.001Z</time></trkpt><trkpt lat="43.73035907184736" lon="11.256991348722282"><ele>84.5</ele><time>2026-04-10T14:02:05.001Z</time></trkpt><trkpt lat="43.73020742574811" lon="11.256739641833901"><ele>89.0</ele><time>2026-04-10T14:02:06.001Z</time></trkpt><trkpt lat="43.730055877594864" lon="11.256489452100976"><ele>87.5</ele><time>2026-04-10T14:02:07.001Z</time></trkpt><trkpt lat="43.729905367793634" lon="11.25623684422358"><ele>86.0</ele><time>2026-04-10T14:02:08.001Z</time></trkpt><trkpt lat="43.72975549429229" lon="11.255981722454974"><ele>86.0</ele><time>2026-04-10T14:02:09.001Z</time></trkpt><trkpt lat="43.72960659445961" lon="11.255726294724468"><ele>86.0</ele><time>2026-04-10T14:02:10.001Z</time></trkpt><trkpt lat="43.72094614138917" lon="11.240205430477115"><ele>93.0</ele><time>2026-04-10T14:03:11.001Z</time></trkpt><trkpt lat="43.72091910993564" lon="11.239891885220823"><ele>100.0</ele><time>2026-04-10T14:03:12.001Z</time></trkpt><trkpt lat="43.72090503871896" lon="11.239577645512085"><ele>100.0</ele><time>2026-04-10T14:03:13.001Z</time></trkpt><trkpt lat="43.72090607544262" lon="11.23926308903525"><ele>100.0</ele><time>2026-04-10T14:03:14.001Z</time></trkpt><trkpt lat="43.72091904129385" lon="11.23894914882474"><ele>101.0</ele><time>2026-04-10T14:03:15.001Z</time></trkpt><trkpt lat="43.720941626644354" lon="11.238633704776706"><ele>102.0</ele><time>2026-04-10T14:03:16.001Z</time></trkpt><trkpt lat="43.72097405223527" lon="11.238317663682402"><ele>105.0</ele><time>2026-04-10T14:03:17.001Z</time></trkpt><trkpt lat="43.72101141357628" lon="11.23799908971387"><ele>108.0</ele><time>2026-04-10T14:03:18.001Z</time></trkpt><trkpt lat="43.72104833661229" lon="11.237680702198729"><ele>102.5</ele><time>2026-04-10T14:03:19.001Z</time></trkpt><trkpt lat="43.72108517143683" lon="11.237362542786581"><ele>97.0</ele><time>2026-04-10T14:03:20.001Z</time></trkpt><trkpt lat="43.72111949353026" lon="11.237042342247884"><ele>97.0</ele><time>2026-04-10T14:03:21.001Z</time></trkpt><trkpt lat="43.721153066192244" lon="11.236720868940552"><ele>97.0</ele><time>2026-04-10T14:03:22.001Z</time></trkpt><trkpt lat="43.72118817005474" lon="11.236401062703715"><ele>96.5</ele><time>2026-04-10T14:03:23.001Z</time></trkpt><trkpt lat="43.72122547887352" lon="11.236083321351854"><ele>96.0</ele><time>2026-04-10T14:03:24.001Z</time></trkpt><trkpt lat="43.721261993710485" lon="11.235764799591093"><ele>95.0</ele><time>2026-04-10T14:03:25.001Z</time></trkpt><trkpt lat="43.72130075089174" lon="11.235446032847857"><ele>94.0</ele><time>2026-04-10T14:03:26.001Z</time></trkpt><trkpt lat="43.7213415459292" lon="11.235126963970975"><ele>94.0</ele><time>2026-04-10T14:03:27.001Z</time></trkpt><trkpt lat="43.721383902834226" lon="11.234807415457734"><ele>94.0</ele><time>2026-04-10T14:03:28.001Z</time></trkpt><trkpt lat="43.72142354969891" lon="11.23448789593277"><ele>93.0</ele><time>2026-04-10T14:03:29.001Z</time></trkpt><trkpt lat="43.72146222946538" lon="11.23417037461326"><ele>92.0</ele><time>2026-04-10T14:03:30.001Z</time></trkpt><trkpt lat="43.72149832525499" lon="11.23385365321844"><ele>92.0</ele><time>2026-04-10T14:03:31.001Z</time></trkpt><trkpt lat="43.72153160012443" lon="11.233536551335941"><ele>92.0</ele><time>2026-04-10T14:03:32.001Z</time></trkpt><trkpt lat="43.72156908566241" lon="11.233218479225611"><ele>96.0</ele><time>2026-04-10T14:03:33.001Z</time></trkpt><trkpt lat="43.7216090025954" lon="11.232900491877736"><ele>100.0</ele><time>2026-04-10T14:03:34.001Z</time></trkpt><trkpt lat="43.721641409248065" lon="11.232580761107677"><ele>105.5</ele><time>2026-04-10T14:03:35.001Z</time></trkpt><trkpt lat="43.721668669977426" lon="11.23225377403717"><ele>111.0</ele><time>2026-04-10T14:03:36.001Z</time></trkpt><trkpt lat="43.72169450247189" lon="11.231924667368853"><ele>111.0</ele><time>2026-04-10T14:03:37.001Z</time></trkpt><trkpt lat="43.72172368011318" lon="11.231592412894535"><ele>111.0</ele><time>2026-04-10T14:03:38.001Z</time></trkpt><trkpt lat="43.72175700851897" lon="11.23125670584954"><ele>116.0</ele><time>2026-04-10T14:03:39.001Z</time></trkpt><trkpt lat="43.72179191366079" lon="11.230918061764475"><ele>121.0</ele><time>2026-04-10T14:03:40.001Z</time></trkpt><trkpt lat="43.72183174136877" lon="11.2305767397928"><ele>121.0</ele><time>2026-04-10T14:03:41.001Z</time></trkpt><trkpt lat="43.72188117569318" lon="11.230232677772584"><ele>121.0</ele><time>2026-04-10T14:03:42.001Z</time></trkpt><trkpt lat="43.721911107862084" lon="11.229938803940065"><ele>122.5</ele><time>2026-04-10T14:03:43.001Z</time></trkpt><trkpt lat="43.72196625783807" lon="11.229606102552207"><ele>124.0</ele><time>2026-04-10T14:03:44.001Z</time></trkpt><trkpt lat="43.72202082056476" lon="11.229284258222966"><ele>118.0</ele><time>2026-04-10T14:03:45.001Z</time></trkpt><trkpt lat="43.72207450604437" lon="11.228971085611034"><ele>112.0</ele><time>2026-04-10T14:03:46.001Z</time></trkpt><trkpt lat="43.722135760946976" lon="11.228651042650634"><ele>112.0</ele><time>2026-04-10T14:03:47.001Z</time></trkpt><trkpt lat="43.72221375232552" lon="11.22834162660961"><ele>112.0</ele><time>2026-04-10T14:03:48.001Z</time></trkpt><trkpt lat="43.722297629812026" lon="11.228042071842333"><ele>104.0</ele><time>2026-04-10T14:03:49.001Z</time></trkpt><trkpt lat="43.72236826286423" lon="11.22773113924597"><ele>96.0</ele><time>2026-04-10T14:03:50.001Z</time></trkpt><trkpt lat="43.722448744835766" lon="11.227421219112639"><ele>89.0</ele><time>2026-04-10T14:03:51.001Z</time></trkpt><trkpt lat="43.72252425323112" lon="11.227107096653759"><ele>82.0</ele><time>2026-04-10T14:03:52.001Z</time></trkpt><trkpt lat="43.72260847157702" lon="11.226794236023725"><ele>78.0</ele><time>2026-04-10T14:03:53.001Z</time></trkpt><trkpt lat="43.7226909512279" lon="11.226476511553443"><ele>74.0</ele><time>2026-04-10T14:03:54.001Z</time></trkpt><trkpt lat="43.72276003099457" lon="11.226200476059848"><ele>73.5</ele><time>2026-04-10T14:03:55.001Z</time></trkpt><trkpt lat="43.72280031398741" lon="11.225874846102728"><ele>73.0</ele><time>2026-04-10T14:03:56.001Z</time></trkpt><trkpt lat="43.72286044006059" lon="11.225551854057231"><ele>69.5</ele><time>2026-04-10T14:03:57.001Z</time></trkpt><trkpt lat="43.72290273689623" lon="11.225217162068338"><ele>66.0</ele><time>2026-04-10T14:03:58.001Z</time></trkpt><trkpt lat="43.72296530380551" lon="11.224874785205394"><ele>65.5</ele><time>2026-04-10T14:03:59.001Z</time></trkpt><trkpt lat="43.72301533985781" lon="11.224552120237384"><ele>65.0</ele><time>2026-04-10T14:04:00.001Z</time></trkpt><trkpt lat="43.72306620672079" lon="11.224232147513387"><ele>66.5</ele><time>2026-04-10T14:04:01.001Z</time></trkpt><trkpt lat="43.72311852040162" lon="11.223914135967158"><ele>68.0</ele><time>2026-04-10T14:04:02.001Z</time></trkpt><trkpt lat="43.723177369437984" lon="11.223599254733548"><ele>68.0</ele><time>2026-04-10T14:04:03.001Z</time></trkpt><trkpt lat="43.7232445444034" lon="11.223289738248655"><ele>68.0</ele><time>2026-04-10T14:04:04.001Z</time></trkpt><trkpt lat="43.72332051034777" lon="11.222986466675486"><ele>69.5</ele><time>2026-04-10T14:04:05.001Z</time></trkpt><trkpt lat="43.72340474896166" lon="11.222683970547743"><ele>71.0</ele><time>2026-04-10T14:04:06.001Z</time></trkpt><trkpt lat="43.72349859729782" lon="11.222384846460132"><ele>73.5</ele><time>2026-04-10T14:04:07.001Z</time></trkpt><trkpt lat="43.72360046203075" lon="11.222091149770375"><ele>76.0</ele><time>2026-04-10T14:04:08.001Z</time></trkpt><trkpt lat="43.7237115826671" lon="11.221802943441592"><ele>76.0</ele><time>2026-04-10T14:04:09.001Z</time></trkpt><trkpt lat="43.72383143977841" lon="11.22152228423855"><ele>76.0</ele><time>2026-04-10T14:04:10.001Z</time></trkpt><trkpt lat="43.72816539637095" lon="11.203907505198268"><ele>103.33333333333333</ele><time>2026-04-10T14:05:11.001Z</time></trkpt><trkpt lat="43.728289896220254" lon="11.20368180943739"><ele>130.66666666666666</ele><time>2026-04-10T14:05:12.001Z</time></trkpt><trkpt lat="43.72843669456116" lon="11.20345199271638"><ele>158.0</ele><time>2026-04-10T14:05:13.001Z</time></trkpt><trkpt lat="43.728584334621154" lon="11.203207125949131"><ele>158.0</ele><time>2026-04-10T14:05:14.001Z</time></trkpt><trkpt lat="43.72873240268955" lon="11.202951907944165"><ele>158.0</ele><time>2026-04-10T14:05:15.001Z</time></trkpt><trkpt lat="43.728886157830075" lon="11.20270515749099"><ele>158.0</ele><time>2026-04-10T14:05:16.001Z</time></trkpt><trkpt lat="43.729041863553405" lon="11.202461163429346"><ele>158.0</ele><time>2026-04-10T14:05:17.001Z</time></trkpt><trkpt lat="43.729178755017955" lon="11.202195205848207"><ele>154.0</ele><time>2026-04-10T14:05:18.001Z</time></trkpt><trkpt lat="43.72932570877081" lon="11.201942015865306"><ele>150.0</ele><time>2026-04-10T14:05:19.001Z</time></trkpt><trkpt lat="43.7294723005974" lon="11.20168899894331"><ele>140.0</ele><time>2026-04-10T14:05:20.001Z</time></trkpt><trkpt lat="43.72961358258496" lon="11.201446048553565"><ele>130.0</ele><time>2026-04-10T14:05:21.001Z</time></trkpt><trkpt lat="43.729758867473386" lon="11.201197406031572"><ele>130.0</ele><time>2026-04-10T14:05:22.001Z</time></trkpt><trkpt lat="43.729901083015186" lon="11.200954016154737"><ele>130.0</ele><time>2026-04-10T14:05:23.001Z</time></trkpt><trkpt lat="43.730042673391694" lon="11.200711696711716"><ele>127.66666666666667</ele><time>2026-04-10T14:05:24.001Z</time></trkpt><trkpt lat="43.7301806719427" lon="11.200474546942884"><ele>125.33333333333334</ele><time>2026-04-10T14:05:25.001Z</time></trkpt><trkpt lat="43.73031221812378" lon="11.2002425023423"><ele>123.0</ele><time>2026-04-10T14:05:26.001Z</time></trkpt><trkpt lat="43.73055672430507" lon="11.199770454282511"><ele>119.0</ele><time>2026-04-10T14:05:27.001Z</time></trkpt><trkpt lat="43.73066787794478" lon="11.199469023503553"><ele>115.0</ele><time>2026-04-10T14:05:28.001Z</time></trkpt><trkpt lat="43.730719374109995" lon="11.199185120202978"><ele>113.33333333333334</ele><time>2026-04-10T14:05:29.001Z</time></trkpt><trkpt lat="43.730783370912704" lon="11.198914948565767"><ele>111.66666666666666</ele><time>2026-04-10T14:05:30.001Z</time></trkpt><trkpt lat="43.730838417335704" lon="11.198637391710394"><ele>110.0</ele><time>2026-04-10T14:05:31.001Z</time></trkpt><trkpt lat="43.73088436796894" lon="11.198342566805415"><ele>108.5</ele><time>2026-04-10T14:05:32.001Z</time></trkpt><trkpt lat="43.73093366602695" lon="11.198030119924123"><ele>107.0</ele><time>2026-04-10T14:05:33.001Z</time></trkpt><trkpt lat="43.73095958030135" lon="11.197725577220247"><ele>107.0</ele><time>2026-04-10T14:05:34.001Z</time></trkpt><trkpt lat="43.73097855744611" lon="11.197421497193327"><ele>107.0</ele><time>2026-04-10T14:05:35.001Z</time></trkpt><trkpt lat="43.73098831377863" lon="11.19711763436009"><ele>107.0</ele><time>2026-04-10T14:05:36.001Z</time></trkpt><trkpt lat="43.730982508662116" lon="11.196810828818641"><ele>103.0</ele><time>2026-04-10T14:05:37.001Z</time></trkpt><trkpt lat="43.73096457536729" lon="11.196501439079123"><ele>99.0</ele><time>2026-04-10T14:05:38.001Z</time></trkpt><trkpt lat="43.730948714560945" lon="11.196189324238151"><ele>99.0</ele><time>2026-04-10T14:05:39.001Z</time></trkpt><trkpt lat="43.73093931610957" lon="11.195872447357127"><ele>99.0</ele><time>2026-04-10T14:05:40.001Z</time></trkpt><trkpt lat="43.73093371540171" lon="11.195552551042104"><ele>97.0</ele><time>2026-04-10T14:05:41.001Z</time></trkpt><trkpt lat="43.730928668400686" lon="11.195231427981662"><ele>95.0</ele><time>2026-04-10T14:05:42.001Z</time></trkpt><trkpt lat="43.73092471529199" lon="11.194907178491661"><ele>94.0</ele><time>2026-04-10T14:05:43.001Z</time></trkpt><trkpt lat="43.730916490909564" lon="11.194584491867959"><ele>93.0</ele><time>2026-04-10T14:05:44.001Z</time></trkpt><trkpt lat="43.73090305358376" lon="11.19426181506056"><ele>92.0</ele><time>2026-04-10T14:05:45.001Z</time></trkpt><trkpt lat="43.730891828820006" lon="11.193937136307994"><ele>91.0</ele><time>2026-04-10T14:05:46.001Z</time></trkpt><trkpt lat="43.730886186543344" lon="11.193612745999195"><ele>91.0</ele><time>2026-04-10T14:05:47.001Z</time></trkpt><trkpt lat="43.7308800800368" lon="11.19329040512199"><ele>91.0</ele><time>2026-04-10T14:05:48.001Z</time></trkpt><trkpt lat="43.730882388612436" lon="11.192966919964858"><ele>89.5</ele><time>2026-04-10T14:05:49.001Z</time></trkpt><trkpt lat="43.73090393990255" lon="11.192644751229784"><ele>88.0</ele><time>2026-04-10T14:05:50.001Z</time></trkpt><trkpt lat="43.7309397478612" lon="11.1923254210098"><ele>87.0</ele><time>2026-04-10T14:05:51.001Z</time></trkpt><trkpt lat="43.73098668824736" lon="11.192008742110067"><ele>86.0</ele><time>2026-04-10T14:05:52.001Z</time></trkpt><trkpt lat="43.73104277534173" lon="11.191693443948774"><ele>94.0</ele><time>2026-04-10T14:05:53.001Z</time></trkpt><trkpt lat="43.73111258077877" lon="11.19138209858302"><ele>102.0</ele><time>2026-04-10T14:05:54.001Z</time></trkpt><trkpt lat="43.73119971253618" lon="11.191078951880993"><ele>102.0</ele><time>2026-04-10T14:05:55.001Z</time></trkpt><trkpt lat="43.731295962152004" lon="11.190783134640977"><ele>102.0</ele><time>2026-04-10T14:05:56.001Z</time></trkpt><trkpt lat="43.73140500523526" lon="11.190493908136894"><ele>97.5</ele><time>2026-04-10T14:05:57.001Z</time></trkpt><trkpt lat="43.73152530723154" lon="11.190214554576542"><ele>93.0</ele><time>2026-04-10T14:05:58.001Z</time></trkpt><trkpt lat="43.73165452321268" lon="11.189943852908332"><ele>93.5</ele><time>2026-04-10T14:05:59.001Z</time></trkpt><trkpt lat="43.73179461855692" lon="11.18968054765613"><ele>94.0</ele><time>2026-04-10T14:06:00.001Z</time></trkpt><trkpt lat="43.73194660114654" lon="11.189430437345962"><ele>94.0</ele><time>2026-04-10T14:06:01.001Z</time></trkpt><trkpt lat="43.73210979376581" lon="11.189192404147612"><ele>94.0</ele><time>2026-04-10T14:06:02.001Z</time></trkpt><trkpt lat="43.73228250398939" lon="11.188964524710713"><ele>87.5</ele><time>2026-04-10T14:06:03.001Z</time></trkpt><trkpt lat="43.73246054744819" lon="11.188751072430518"><ele>81.0</ele><time>2026-04-10T14:06:04.001Z</time></trkpt><trkpt lat="43.732649355129034" lon="11.1885543858241"><ele>83.5</ele><time>2026-04-10T14:06:05.001Z</time></trkpt><trkpt lat="43.732846625475034" lon="11.188375310944226"><ele>86.0</ele><time>2026-04-10T14:06:06.001Z</time></trkpt><trkpt lat="43.73304967083491" lon="11.188211891813191"><ele>79.0</ele><time>2026-04-10T14:06:07.001Z</time></trkpt><trkpt lat="43.733259420880756" lon="11.188066940986163"><ele>72.0</ele><time>2026-04-10T14:06:08.001Z</time></trkpt><trkpt lat="43.733475857406134" lon="11.187931835371966"><ele>74.5</ele><time>2026-04-10T14:06:09.001Z</time></trkpt><trkpt lat="43.733698118964085" lon="11.187808406811012"><ele>77.0</ele><time>2026-04-10T14:06:10.001Z</time></trkpt><trkpt lat="43.74481957613357" lon="11.176480737924937"><ele>65.5</ele><time>2026-04-10T14:07:11.001Z</time></trkpt><trkpt lat="43.7449085610744" lon="11.176192134177752"><ele>54.0</ele><time>2026-04-10T14:07:12.001Z</time></trkpt><trkpt lat="43.74499813488715" lon="11.175899644291231"><ele>53.5</ele><time>2026-04-10T14:07:13.001Z</time></trkpt><trkpt lat="43.7450913675517" lon="11.175607346606753"><ele>53.0</ele><time>2026-04-10T14:07:14.001Z</time></trkpt><trkpt lat="43.74519579129258" lon="11.175323501607172"><ele>52.5</ele><time>2026-04-10T14:07:15.001Z</time></trkpt><trkpt lat="43.74531042240338" lon="11.17504687795959"><ele>52.0</ele><time>2026-04-10T14:07:16.001Z</time></trkpt><trkpt lat="43.74543302604061" lon="11.174776734294355"><ele>53.0</ele><time>2026-04-10T14:07:17.001Z</time></trkpt><trkpt lat="43.745568393322706" lon="11.174516222474907"><ele>54.0</ele><time>2026-04-10T14:07:18.001Z</time></trkpt><trkpt lat="43.74571355194617" lon="11.174262422240593"><ele>54.5</ele><time>2026-04-10T14:07:19.001Z</time></trkpt><trkpt lat="43.745869274005344" lon="11.174012461624754"><ele>55.0</ele><time>2026-04-10T14:07:20.001Z</time></trkpt><trkpt lat="43.74604007869805" lon="11.173777832421141"><ele>53.5</ele><time>2026-04-10T14:07:21.001Z</time></trkpt><trkpt lat="43.74622087656917" lon="11.173555601494613"><ele>52.0</ele><time>2026-04-10T14:07:22.001Z</time></trkpt><trkpt lat="43.7464102949126" lon="11.1733470387832"><ele>52.0</ele><time>2026-04-10T14:07:23.001Z</time></trkpt><trkpt lat="43.746609968323604" lon="11.173150827324067"><ele>52.0</ele><time>2026-04-10T14:07:24.001Z</time></trkpt><trkpt lat="43.74681891381373" lon="11.172970728460568"><ele>50.5</ele><time>2026-04-10T14:07:25.001Z</time></trkpt><trkpt lat="43.74703588501165" lon="11.172809696886487"><ele>49.0</ele><time>2026-04-10T14:07:26.001Z</time></trkpt><trkpt lat="43.74725831547653" lon="11.172662186182137"><ele>49.0</ele><time>2026-04-10T14:07:27.001Z</time></trkpt><trkpt lat="43.74749118142066" lon="11.17253406519929"><ele>49.0</ele><time>2026-04-10T14:07:28.001Z</time></trkpt><trkpt lat="43.7477279222474" lon="11.172423411766196"><ele>49.0</ele><time>2026-04-10T14:07:29.001Z</time></trkpt><trkpt lat="43.74796953794605" lon="11.172329445632482"><ele>49.0</ele><time>2026-04-10T14:07:30.001Z</time></trkpt><trkpt lat="43.74821541297856" lon="11.17225100011269"><ele>49.0</ele><time>2026-04-10T14:07:31.001Z</time></trkpt><trkpt lat="43.74846506348825" lon="11.172184299077994"><ele>49.0</ele><time>2026-04-10T14:07:32.001Z</time></trkpt><trkpt lat="43.74871339163187" lon="11.17212730170295"><ele>49.0</ele><time>2026-04-10T14:07:33.001Z</time></trkpt><trkpt lat="43.74896507886895" lon="11.172077634706023"><ele>49.0</ele><time>2026-04-10T14:07:34.001Z</time></trkpt><trkpt lat="43.749215638650945" lon="11.17203357886929"><ele>48.0</ele><time>2026-04-10T14:07:35.001Z</time></trkpt><trkpt lat="43.749464113753035" lon="11.171992498768395"><ele>47.0</ele><time>2026-04-10T14:07:36.001Z</time></trkpt><trkpt lat="43.74971005405099" lon="11.171950974394463"><ele>47.0</ele><time>2026-04-10T14:07:37.001Z</time></trkpt><trkpt lat="43.749954725877174" lon="11.17190530605908"><ele>47.0</ele><time>2026-04-10T14:07:38.001Z</time></trkpt><trkpt lat="43.750199873377035" lon="11.171857714551768"><ele>47.0</ele><time>2026-04-10T14:07:39.001Z</time></trkpt><trkpt lat="43.7504448848335" lon="11.171810048994342"><ele>47.0</ele><time>2026-04-10T14:07:40.001Z</time></trkpt><trkpt lat="43.750689107769475" lon="11.171765201341813"><ele>47.0</ele><time>2026-04-10T14:07:41.001Z</time></trkpt><trkpt lat="43.75093571144347" lon="11.171722860048032"><ele>47.0</ele><time>2026-04-10T14:07:42.001Z</time></trkpt><trkpt lat="43.75118314078657" lon="11.171678871276734"><ele>46.5</ele><time>2026-04-10T14:07:43.001Z</time></trkpt><trkpt lat="43.751429413526196" lon="11.171633462237363"><ele>46.0</ele><time>2026-04-10T14:07:44.001Z</time></trkpt><trkpt lat="43.75167441876186" lon="11.171587306623447"><ele>45.5</ele><time>2026-04-10T14:07:45.001Z</time></trkpt><trkpt lat="43.75192142163635" lon="11.171538266784166"><ele>45.0</ele><time>2026-04-10T14:07:46.001Z</time></trkpt><trkpt lat="43.75216683213195" lon="11.171487972714026"><ele>45.0</ele><time>2026-04-10T14:07:47.001Z</time></trkpt><trkpt lat="43.752412502920976" lon="11.171439670353678"><ele>45.0</ele><time>2026-04-10T14:07:48.001Z</time></trkpt><trkpt lat="43.752659383850435" lon="11.171395105196245"><ele>45.5</ele><time>2026-04-10T14:07:49.001Z</time></trkpt><trkpt lat="43.75290569607815" lon="11.17135102806278"><ele>46.0</ele><time>2026-04-10T14:07:50.001Z</time></trkpt><trkpt lat="43.753151703487404" lon="11.171308590679905"><ele>46.0</ele><time>2026-04-10T14:07:51.001Z</time></trkpt><trkpt lat="43.75339711716822" lon="11.171268613737729"><ele>46.0</ele><time>2026-04-10T14:07:52.001Z</time></trkpt><trkpt lat="43.75364069941528" lon="11.171225700659644"><ele>45.0</ele><time>2026-04-10T14:07:53.001Z</time></trkpt><trkpt lat="43.75388708851874" lon="11.171184423675403"><ele>44.0</ele><time>2026-04-10T14:07:54.001Z</time></trkpt><trkpt lat="43.75413366262079" lon="11.171140963947224"><ele>43.5</ele><time>2026-04-10T14:07:55.001Z</time></trkpt><trkpt lat="43.7543808033033" lon="11.171091808736405"><ele>43.0</ele><time>2026-04-10T14:07:56.001Z</time></trkpt><trkpt lat="43.75462823497808" lon="11.171041041341091"><ele>43.0</ele><time>2026-04-10T14:07:57.001Z</time></trkpt><trkpt lat="43.75487407499679" lon="11.170995214020664"><ele>43.0</ele><time>2026-04-10T14:07:58.001Z</time></trkpt><trkpt lat="43.75512107121524" lon="11.170947156973295"><ele>43.5</ele><time>2026-04-10T14:07:59.001Z</time></trkpt><trkpt lat="43.75536786933271" lon="11.170898814321022"><ele>44.0</ele><time>2026-04-10T14:08:00.001Z</time></trkpt><trkpt lat="43.75561705314227" lon="11.17085207749407"><ele>44.0</ele><time>2026-04-10T14:08:01.001Z</time></trkpt><trkpt lat="43.75586691990776" lon="11.170809269162746"><ele>44.0</ele><time>2026-04-10T14:08:02.001Z</time></trkpt><trkpt lat="43.75611398214786" lon="11.170760040564137"><ele>44.0</ele><time>2026-04-10T14:08:03.001Z</time></trkpt><trkpt lat="43.75636085499045" lon="11.170710154831315"><ele>44.0</ele><time>2026-04-10T14:08:04.001Z</time></trkpt><trkpt lat="43.75660939431158" lon="11.170663478537806"><ele>43.5</ele><time>2026-04-10T14:08:05.001Z</time></trkpt><trkpt lat="43.75685630212215" lon="11.170617628835151"><ele>43.0</ele><time>2026-04-10T14:08:06.001Z</time></trkpt><trkpt lat="43.757105268993605" lon="11.170573118315998"><ele>42.0</ele><time>2026-04-10T14:08:07.001Z</time></trkpt><trkpt lat="43.75735060683296" lon="11.170523368085458"><ele>41.0</ele><time>2026-04-10T14:08:08.001Z</time></trkpt><trkpt lat="43.757598839329816" lon="11.170483711783886"><ele>41.0</ele><time>2026-04-10T14:08:09.001Z</time></trkpt><trkpt lat="43.75784613694876" lon="11.170437112914502"><ele>41.0</ele><time>2026-04-10T14:08:10.001Z</time></trkpt><trkpt lat="43.77169927668421" lon="11.163325390549"><ele>38.5</ele><time>2026-04-10T14:09:11Z</time></trkpt><trkpt lat="43.77193273562892" lon="11.163221568830696"><ele>36.0</ele><time>2026-04-10T14:09:12Z</time></trkpt><trkpt lat="43.772169922217245" lon="11.16312156328392"><ele>35.5</ele><time>2026-04-10T14:09:13Z</time></trkpt><trkpt lat="43.77240361022694" lon="11.163021019540986"><ele>35.0</ele><time>2026-04-10T14:09:14Z</time></trkpt><trkpt lat="43.77263704168296" lon="11.162926588676687"><ele>35.0</ele><time>2026-04-10T14:09:15Z</time></trkpt><trkpt lat="43.772873935107064" lon="11.16283710495749"><ele>35.0</ele><time>2026-04-10T14:09:16Z</time></trkpt><trkpt lat="43.77310631187017" lon="11.162753251195328"><ele>35.0</ele><time>2026-04-10T14:09:17Z</time></trkpt><trkpt lat="43.77335055252053" lon="11.162669075099773"><ele>35.0</ele><time>2026-04-10T14:09:18Z</time></trkpt><trkpt lat="43.77358105144281" lon="11.162592790061673"><ele>34.0</ele><time>2026-04-10T14:09:19Z</time></trkpt><trkpt lat="43.773814595514196" lon="11.162516042393"><ele>33.0</ele><time>2026-04-10T14:09:20Z</time></trkpt><trkpt lat="43.774048111569776" lon="11.162444305804273"><ele>33.0</ele><time>2026-04-10T14:09:21Z</time></trkpt><trkpt lat="43.77427697701814" lon="11.16237231470851"><ele>33.0</ele><time>2026-04-10T14:09:22Z</time></trkpt><trkpt lat="43.77450860520434" lon="11.162297905801845"><ele>34.0</ele><time>2026-04-10T14:09:23Z</time></trkpt><trkpt lat="43.7747405682295" lon="11.162228374923487"><ele>35.0</ele><time>2026-04-10T14:09:24Z</time></trkpt><trkpt lat="43.77497568093044" lon="11.162158093273664"><ele>34.5</ele><time>2026-04-10T14:09:25Z</time></trkpt><trkpt lat="43.77521185972744" lon="11.162089468548833"><ele>34.0</ele><time>2026-04-10T14:09:26Z</time></trkpt><trkpt lat="43.77544951925451" lon="11.162020684371972"><ele>34.0</ele><time>2026-04-10T14:09:27Z</time></trkpt><trkpt lat="43.77568949300032" lon="11.161954783129525"><ele>34.0</ele><time>2026-04-10T14:09:28Z</time></trkpt><trkpt lat="43.77593236607" lon="11.161888881752994"><ele>35.5</ele><time>2026-04-10T14:09:29Z</time></trkpt><trkpt lat="43.77617698539852" lon="11.161818467294143"><ele>37.0</ele><time>2026-04-10T14:09:30Z</time></trkpt><trkpt lat="43.776424491451294" lon="11.16174955096019"><ele>37.0</ele><time>2026-04-10T14:09:31Z</time></trkpt><trkpt lat="43.776675852477595" lon="11.16168345328164"><ele>37.0</ele><time>2026-04-10T14:09:32Z</time></trkpt><trkpt lat="43.77692952628155" lon="11.161617273298486"><ele>35.5</ele><time>2026-04-10T14:09:33.001Z</time></trkpt><trkpt lat="43.777182551584794" lon="11.161547126204313"><ele>34.0</ele><time>2026-04-10T14:09:34.001Z</time></trkpt><trkpt lat="43.77743680942488" lon="11.161474960896163"><ele>34.5</ele><time>2026-04-10T14:09:35.001Z</time></trkpt><trkpt lat="43.77769235078652" lon="11.161403229593235"><ele>35.0</ele><time>2026-04-10T14:09:36.001Z</time></trkpt><trkpt lat="43.77794482798482" lon="11.161331789623585"><ele>35.0</ele><time>2026-04-10T14:09:37.001Z</time></trkpt><trkpt lat="43.77819016640209" lon="11.161262331940328"><ele>35.0</ele><time>2026-04-10T14:09:38.001Z</time></trkpt><trkpt lat="43.77843336275343" lon="11.161194473773941"><ele>36.0</ele><time>2026-04-10T14:09:39.001Z</time></trkpt><trkpt lat="43.77867547441997" lon="11.161124128666675"><ele>37.0</ele><time>2026-04-10T14:09:40.001Z</time></trkpt><trkpt lat="43.778917156144345" lon="11.161055128525625"><ele>37.0</ele><time>2026-04-10T14:09:41.001Z</time></trkpt><trkpt lat="43.77915731758172" lon="11.160987836073437"><ele>37.0</ele><time>2026-04-10T14:09:42.001Z</time></trkpt><trkpt lat="43.77939780960414" lon="11.160918577213236"><ele>36.5</ele><time>2026-04-10T14:09:43.001Z</time></trkpt><trkpt lat="43.779639351859856" lon="11.160848654163312"><ele>36.0</ele><time>2026-04-10T14:09:44.001Z</time></trkpt><trkpt lat="43.77988058888091" lon="11.160779894009648"><ele>36.0</ele><time>2026-04-10T14:09:45.001Z</time></trkpt><trkpt lat="43.78012410101709" lon="11.16071430288903"><ele>36.0</ele><time>2026-04-10T14:09:46.001Z</time></trkpt><trkpt lat="43.780367371544386" lon="11.16064704472006"><ele>36.0</ele><time>2026-04-10T14:09:47.001Z</time></trkpt><trkpt lat="43.78061089055014" lon="11.160579132320361"><ele>36.0</ele><time>2026-04-10T14:09:48.001Z</time></trkpt><trkpt lat="43.78085462301209" lon="11.160512753273347"><ele>35.0</ele><time>2026-04-10T14:09:49.001Z</time></trkpt><trkpt lat="43.781096485438084" lon="11.160444383606416"><ele>34.0</ele><time>2026-04-10T14:09:50.001Z</time></trkpt><trkpt lat="43.781340496050206" lon="11.160375638049421"><ele>34.0</ele><time>2026-04-10T14:09:51.001Z</time></trkpt><trkpt lat="43.78158544405388" lon="11.160306092315038"><ele>34.0</ele><time>2026-04-10T14:09:52.001Z</time></trkpt><trkpt lat="43.78182975236081" lon="11.160237292224092"><ele>34.5</ele><time>2026-04-10T14:09:53.001Z</time></trkpt><trkpt lat="43.78207562922043" lon="11.160168528228406"><ele>35.0</ele><time>2026-04-10T14:09:54.001Z</time></trkpt><trkpt lat="43.78232129530059" lon="11.1600999250903"><ele>35.0</ele><time>2026-04-10T14:09:55.001Z</time></trkpt><trkpt lat="43.78256638218177" lon="11.160031995743193"><ele>35.0</ele><time>2026-04-10T14:09:56.001Z</time></trkpt><trkpt lat="43.78281051661342" lon="11.15996301551153"><ele>35.5</ele><time>2026-04-10T14:09:57.001Z</time></trkpt><trkpt lat="43.783052153638565" lon="11.15989530365167"><ele>36.0</ele><time>2026-04-10T14:09:58.001Z</time></trkpt><trkpt lat="43.78329515922359" lon="11.159827107127594"><ele>36.5</ele><time>2026-04-10T14:09:59.001Z</time></trkpt><trkpt lat="43.783540643860746" lon="11.159760257553526"><ele>37.0</ele><time>2026-04-10T14:10:00.001Z</time></trkpt><trkpt lat="43.78378239584793" lon="11.1596894810917"><ele>37.0</ele><time>2026-04-10T14:10:01.001Z</time></trkpt><trkpt lat="43.78402688419192" lon="11.159623321908583"><ele>37.0</ele><time>2026-04-10T14:10:02.001Z</time></trkpt><trkpt lat="43.784272078171476" lon="11.159561471799607"><ele>37.5</ele><time>2026-04-10T14:10:03.001Z</time></trkpt><trkpt lat="43.784515267960586" lon="11.159492699987593"><ele>38.0</ele><time>2026-04-10T14:10:04.001Z</time></trkpt><trkpt lat="43.78475960557126" lon="11.159423413988817"><ele>38.0</ele><time>2026-04-10T14:10:05.001Z</time></trkpt><trkpt lat="43.78500496438538" lon="11.159357846862706"><ele>38.0</ele><time>2026-04-10T14:10:06.001Z</time></trkpt><trkpt lat="43.78525067952232" lon="11.159295753873268"><ele>39.0</ele><time>2026-04-10T14:10:07.001Z</time></trkpt><trkpt lat="43.78549398579897" lon="11.159228270186926"><ele>40.0</ele><time>2026-04-10T14:10:08.001Z</time></trkpt><trkpt lat="43.78574262447271" lon="11.159163411262554"><ele>40.0</ele><time>2026-04-10T14:10:09.001Z</time></trkpt><trkpt lat="43.78598807273024" lon="11.159091417914587"><ele>40.0</ele><time>2026-04-10T14:10:10.001Z</time></trkpt><trkpt lat="43.80007462097812" lon="11.155145511107982"><ele>37.5</ele><time>2026-04-10T14:11:11Z</time></trkpt><trkpt lat="43.800299292689225" lon="11.155084492958743"><ele>35.0</ele><time>2026-04-10T14:11:12Z</time></trkpt><trkpt lat="43.80052509849002" lon="11.155020424101295"><ele>35.0</ele><time>2026-04-10T14:11:13Z</time></trkpt><trkpt lat="43.80074783299651" lon="11.154954142051016"><ele>35.0</ele><time>2026-04-10T14:11:14Z</time></trkpt><trkpt lat="43.80097184685287" lon="11.15488662645693"><ele>36.0</ele><time>2026-04-10T14:11:15Z</time></trkpt><trkpt lat="43.80119731307984" lon="11.154825344788687"><ele>37.0</ele><time>2026-04-10T14:11:16Z</time></trkpt><trkpt lat="43.80142028425358" lon="11.154766365561319"><ele>37.0</ele><time>2026-04-10T14:11:17Z</time></trkpt><trkpt lat="43.80164678763559" lon="11.15470410090157"><ele>37.0</ele><time>2026-04-10T14:11:18Z</time></trkpt><trkpt lat="43.801874621446665" lon="11.15463936318912"><ele>36.5</ele><time>2026-04-10T14:11:19Z</time></trkpt><trkpt lat="43.80210060971612" lon="11.154579696743918"><ele>36.0</ele><time>2026-04-10T14:11:20Z</time></trkpt><trkpt lat="43.802329381520444" lon="11.15451907758874"><ele>36.0</ele><time>2026-04-10T14:11:21Z</time></trkpt><trkpt lat="43.80255548544059" lon="11.154453866189886"><ele>36.0</ele><time>2026-04-10T14:11:22Z</time></trkpt><trkpt lat="43.802783407447215" lon="11.154386854497412"><ele>35.0</ele><time>2026-04-10T14:11:23Z</time></trkpt><trkpt lat="43.80301008822964" lon="11.154320461247995"><ele>34.0</ele><time>2026-04-10T14:11:24Z</time></trkpt><trkpt lat="43.80323889005031" lon="11.154261245885632"><ele>34.0</ele><time>2026-04-10T14:11:25Z</time></trkpt><trkpt lat="43.803470543239094" lon="11.154198556645012"><ele>34.0</ele><time>2026-04-10T14:11:26Z</time></trkpt><trkpt lat="43.80370232897428" lon="11.154132434670721"><ele>34.5</ele><time>2026-04-10T14:11:27Z</time></trkpt><trkpt lat="43.80393166418163" lon="11.154063996941"><ele>35.0</ele><time>2026-04-10T14:11:28Z</time></trkpt><trkpt lat="43.80416249865267" lon="11.15399576957042"><ele>36.0</ele><time>2026-04-10T14:11:29Z</time></trkpt><trkpt lat="43.80439341290043" lon="11.153928634300291"><ele>37.0</ele><time>2026-04-10T14:11:30Z</time></trkpt><trkpt lat="43.80462461339642" lon="11.153860476210498"><ele>37.0</ele><time>2026-04-10T14:11:31Z</time></trkpt><trkpt lat="43.80485694620886" lon="11.153797256798264"><ele>37.0</ele><time>2026-04-10T14:11:32Z</time></trkpt><trkpt lat="43.805090868717336" lon="11.153733627285119"><ele>35.5</ele><time>2026-04-10T14:11:33Z</time></trkpt><trkpt lat="43.805331057538766" lon="11.153675933296329"><ele>34.0</ele><time>2026-04-10T14:11:34Z</time></trkpt><trkpt lat="43.80556199613299" lon="11.153614724437334"><ele>34.0</ele><time>2026-04-10T14:11:35Z</time></trkpt><trkpt lat="43.80579159046379" lon="11.153546221607582"><ele>34.0</ele><time>2026-04-10T14:11:36Z</time></trkpt><trkpt lat="43.80602322125149" lon="11.153483934423784"><ele>33.5</ele><time>2026-04-10T14:11:37Z</time></trkpt><trkpt lat="43.80625222140747" lon="11.153412038815768"><ele>33.0</ele><time>2026-04-10T14:11:38Z</time></trkpt><trkpt lat="43.80648784090077" lon="11.153347901425755"><ele>33.0</ele><time>2026-04-10T14:11:39Z</time></trkpt><trkpt lat="43.80672077368674" lon="11.153288185833215"><ele>33.0</ele><time>2026-04-10T14:11:40Z</time></trkpt><trkpt lat="43.8069551745346" lon="11.153218389351418"><ele>33.5</ele><time>2026-04-10T14:11:41Z</time></trkpt><trkpt lat="43.80719353624134" lon="11.153157423432452"><ele>34.0</ele><time>2026-04-10T14:11:42Z</time></trkpt><trkpt lat="43.80742698879558" lon="11.153092193695283"><ele>34.0</ele><time>2026-04-10T14:11:43Z</time></trkpt><trkpt lat="43.807653962947924" lon="11.153022791654022"><ele>34.0</ele><time>2026-04-10T14:11:44Z</time></trkpt><trkpt lat="43.80788591805063" lon="11.15295345861407"><ele>34.0</ele><time>2026-04-10T14:11:45Z</time></trkpt><trkpt lat="43.80812404994312" lon="11.152886275173191"><ele>34.0</ele><time>2026-04-10T14:11:46Z</time></trkpt><trkpt lat="43.80835964227971" lon="11.152824215190853"><ele>35.0</ele><time>2026-04-10T14:11:47Z</time></trkpt><trkpt lat="43.80859899378831" lon="11.152755358979473"><ele>36.0</ele><time>2026-04-10T14:11:48Z</time></trkpt><trkpt lat="43.808837495858334" lon="11.152691309443899"><ele>36.0</ele><time>2026-04-10T14:11:49Z</time></trkpt><trkpt lat="43.809079229128734" lon="11.152623108397622"><ele>36.0</ele><time>2026-04-10T14:11:50Z</time></trkpt><trkpt lat="43.80932506161356" lon="11.152559774352964"><ele>36.5</ele><time>2026-04-10T14:11:51Z</time></trkpt><trkpt lat="43.809568283559926" lon="11.152493981108991"><ele>37.0</ele><time>2026-04-10T14:11:52Z</time></trkpt><trkpt lat="43.809814573407145" lon="11.152420887949491"><ele>37.5</ele><time>2026-04-10T14:11:53Z</time></trkpt><trkpt lat="43.81005455904698" lon="11.152348863836602"><ele>38.0</ele><time>2026-04-10T14:11:54Z</time></trkpt><trkpt lat="43.81030159600852" lon="11.152279973713396"><ele>36.0</ele><time>2026-04-10T14:11:55Z</time></trkpt><trkpt lat="43.8105429532303" lon="11.152215235930456"><ele>34.0</ele><time>2026-04-10T14:11:56Z</time></trkpt><trkpt lat="43.810785953939664" lon="11.15214348357883"><ele>34.0</ele><time>2026-04-10T14:11:57Z</time></trkpt><trkpt lat="43.81102881470117" lon="11.152075225419415"><ele>34.0</ele><time>2026-04-10T14:11:58Z</time></trkpt><trkpt lat="43.81126926903832" lon="11.15200612687197"><ele>34.0</ele><time>2026-04-10T14:11:59Z</time></trkpt><trkpt lat="43.811509533992144" lon="11.151942277742553"><ele>34.0</ele><time>2026-04-10T14:12:00Z</time></trkpt><trkpt lat="43.81175118802401" lon="11.151878297881572"><ele>34.5</ele><time>2026-04-10T14:12:01Z</time></trkpt><trkpt lat="43.81199265233124" lon="11.151814058400621"><ele>35.0</ele><time>2026-04-10T14:12:02Z</time></trkpt><trkpt lat="43.812234305521535" lon="11.151751980304452"><ele>35.0</ele><time>2026-04-10T14:12:03Z</time></trkpt><trkpt lat="43.8124763519942" lon="11.151694420737412"><ele>35.0</ele><time>2026-04-10T14:12:04Z</time></trkpt><trkpt lat="43.81272225856952" lon="11.15165063987655"><ele>35.0</ele><time>2026-04-10T14:12:05Z</time></trkpt><trkpt lat="43.81296837047985" lon="11.151611120794046"><ele>35.0</ele><time>2026-04-10T14:12:06Z</time></trkpt><trkpt lat="43.81321543113544" lon="11.151575604299735"><ele>35.0</ele><time>2026-04-10T14:12:07Z</time></trkpt><trkpt lat="43.8134642832751" lon="11.151545183083913"><ele>35.0</ele><time>2026-04-10T14:12:08Z</time></trkpt><trkpt lat="43.81371171929562" lon="11.151520153073545"><ele>34.5</ele><time>2026-04-10T14:12:09Z</time></trkpt><trkpt lat="43.81395732329486" lon="11.151508295175395"><ele>34.0</ele><time>2026-04-10T14:12:10Z</time></trkpt><trkpt lat="43.828760562345764" lon="11.153601242830806"><ele>37.0</ele><time>2026-04-10T14:13:11Z</time></trkpt><trkpt lat="43.82896934542009" lon="11.15377309626962"><ele>40.0</ele><time>2026-04-10T14:13:12Z</time></trkpt><trkpt lat="43.82917769100148" lon="11.153947575733248"><ele>39.5</ele><time>2026-04-10T14:13:13Z</time></trkpt><trkpt lat="43.829385217476755" lon="11.154122903891833"><ele>39.0</ele><time>2026-04-10T14:13:14Z</time></trkpt><trkpt lat="43.82959175329076" lon="11.154295108364135"><ele>39.0</ele><time>2026-04-10T14:13:15Z</time></trkpt><trkpt lat="43.829787342380236" lon="11.154461216430548"><ele>39.0</ele><time>2026-04-10T14:13:16Z</time></trkpt><trkpt lat="43.82997439640649" lon="11.15462505290707"><ele>39.0</ele><time>2026-04-10T14:13:17Z</time></trkpt><trkpt lat="43.83016086845821" lon="11.154788637161333"><ele>39.0</ele><time>2026-04-10T14:13:18Z</time></trkpt><trkpt lat="43.83035035124279" lon="11.154955130331476"><ele>39.0</ele><time>2026-04-10T14:13:19Z</time></trkpt><trkpt lat="43.83054263101102" lon="11.155117941656817"><ele>39.0</ele><time>2026-04-10T14:13:20Z</time></trkpt><trkpt lat="43.83074176263908" lon="11.155285514170519"><ele>39.0</ele><time>2026-04-10T14:13:21Z</time></trkpt><trkpt lat="43.83094265157904" lon="11.15545620403423"><ele>38.0</ele><time>2026-04-10T14:13:22Z</time></trkpt><trkpt lat="43.83114588110499" lon="11.155628083027313"><ele>37.0</ele><time>2026-04-10T14:13:23Z</time></trkpt><trkpt lat="43.8313470452603" lon="11.155796356484974"><ele>39.0</ele><time>2026-04-10T14:13:24Z</time></trkpt><trkpt lat="43.83154144081878" lon="11.155963515111063"><ele>41.0</ele><time>2026-04-10T14:13:25Z</time></trkpt><trkpt lat="43.83173717647329" lon="11.156130855563063"><ele>40.5</ele><time>2026-04-10T14:13:26Z</time></trkpt><trkpt lat="43.831936350844146" lon="11.156296695315717"><ele>40.0</ele><time>2026-04-10T14:13:27Z</time></trkpt><trkpt lat="43.832137564482025" lon="11.156465804316307"><ele>40.5</ele><time>2026-04-10T14:13:28Z</time></trkpt><trkpt lat="43.83233586698834" lon="11.156637611002973"><ele>41.0</ele><time>2026-04-10T14:13:29Z</time></trkpt><trkpt lat="43.83253648275338" lon="11.156816180607546"><ele>39.0</ele><time>2026-04-10T14:13:30Z</time></trkpt><trkpt lat="43.832738807751" lon="11.156995468410505"><ele>37.0</ele><time>2026-04-10T14:13:31Z</time></trkpt><trkpt lat="43.83294342870999" lon="11.1571716648065"><ele>37.0</ele><time>2026-04-10T14:13:32Z</time></trkpt><trkpt lat="43.83314801541187" lon="11.157348973869757"><ele>37.0</ele><time>2026-04-10T14:13:33Z</time></trkpt><trkpt lat="43.83335584659774" lon="11.15752485115611"><ele>38.0</ele><time>2026-04-10T14:13:34Z</time></trkpt><trkpt lat="43.833563702793256" lon="11.157698786599173"><ele>39.0</ele><time>2026-04-10T14:13:35Z</time></trkpt><trkpt lat="43.83377242174806" lon="11.157876648991255"><ele>39.0</ele><time>2026-04-10T14:13:36Z</time></trkpt><trkpt lat="43.83397995879269" lon="11.158055736925045"><ele>39.0</ele><time>2026-04-10T14:13:37Z</time></trkpt><trkpt lat="43.8341865656531" lon="11.158236834453337"><ele>38.0</ele><time>2026-04-10T14:13:38Z</time></trkpt><trkpt lat="43.83439539939928" lon="11.158417858446743"><ele>37.0</ele><time>2026-04-10T14:13:39Z</time></trkpt><trkpt lat="43.83460488185802" lon="11.158597504836107"><ele>37.0</ele><time>2026-04-10T14:13:40Z</time></trkpt><trkpt lat="43.834814616265845" lon="11.158776016545128"><ele>37.0</ele><time>2026-04-10T14:13:41Z</time></trkpt><trkpt lat="43.83502181056778" lon="11.158958820937094"><ele>37.0</ele><time>2026-04-10T14:13:42Z</time></trkpt><trkpt lat="43.835229242464756" lon="11.159142883223046"><ele>37.0</ele><time>2026-04-10T14:13:43Z</time></trkpt><trkpt lat="43.8354376778296" lon="11.159328063092827"><ele>37.0</ele><time>2026-04-10T14:13:44Z</time></trkpt><trkpt lat="43.835645405209" lon="11.15951128370643"><ele>37.0</ele><time>2026-04-10T14:13:45Z</time></trkpt><trkpt lat="43.83585304645929" lon="11.159693222630954"><ele>39.0</ele><time>2026-04-10T14:13:46Z</time></trkpt><trkpt lat="43.83606114921444" lon="11.159875391614614"><ele>41.0</ele><time>2026-04-10T14:13:47Z</time></trkpt><trkpt lat="43.83626864359777" lon="11.160053612109662"><ele>41.0</ele><time>2026-04-10T14:13:48Z</time></trkpt><trkpt lat="43.836476837766455" lon="11.160231385678305"><ele>41.0</ele><time>2026-04-10T14:13:49Z</time></trkpt><trkpt lat="43.83668517023083" lon="11.160407370433857"><ele>41.0</ele><time>2026-04-10T14:13:50Z</time></trkpt><trkpt lat="43.83689258038503" lon="11.160582006461174"><ele>41.0</ele><time>2026-04-10T14:13:51Z</time></trkpt><trkpt lat="43.837100261821476" lon="11.160755492826608"><ele>41.5</ele><time>2026-04-10T14:13:52Z</time></trkpt><trkpt lat="43.837306744556024" lon="11.160929450347023"><ele>42.0</ele><time>2026-04-10T14:13:53Z</time></trkpt><trkpt lat="43.837509656074836" lon="11.161112857793619"><ele>43.0</ele><time>2026-04-10T14:13:54Z</time></trkpt><trkpt lat="43.83771445035332" lon="11.161286085456986"><ele>44.0</ele><time>2026-04-10T14:13:55Z</time></trkpt><trkpt lat="43.837917088314775" lon="11.161463080386307"><ele>43.0</ele><time>2026-04-10T14:13:56Z</time></trkpt><trkpt lat="43.838120026899496" lon="11.161637141466386"><ele>42.0</ele><time>2026-04-10T14:13:57Z</time></trkpt><trkpt lat="43.83832639254845" lon="11.161807355280224"><ele>42.0</ele><time>2026-04-10T14:13:58Z</time></trkpt><trkpt lat="43.83852787976911" lon="11.161979353874125"><ele>42.0</ele><time>2026-04-10T14:13:59Z</time></trkpt><trkpt lat="43.83873094457633" lon="11.162154158094934"><ele>42.0</ele><time>2026-04-10T14:14:00Z</time></trkpt><trkpt lat="43.83893654142501" lon="11.162327621754653"><ele>42.0</ele><time>2026-04-10T14:14:01Z</time></trkpt><trkpt lat="43.83914184960945" lon="11.162500199288448"><ele>41.5</ele><time>2026-04-10T14:14:02Z</time></trkpt><trkpt lat="43.83934194525307" lon="11.162670774419304"><ele>41.0</ele><time>2026-04-10T14:14:03Z</time></trkpt><trkpt lat="43.839541281860505" lon="11.162846625996291"><ele>41.0</ele><time>2026-04-10T14:14:04Z</time></trkpt><trkpt lat="43.83974228342571" lon="11.163021156123497"><ele>41.0</ele><time>2026-04-10T14:14:05Z</time></trkpt><trkpt lat="43.83994245774774" lon="11.163190729070884"><ele>41.0</ele><time>2026-04-10T14:14:06Z</time></trkpt><trkpt lat="43.84014402119847" lon="11.163358078149098"><ele>41.0</ele><time>2026-04-10T14:14:07Z</time></trkpt><trkpt lat="43.840341713932" lon="11.163529442999184"><ele>41.0</ele><time>2026-04-10T14:14:08Z</time></trkpt><trkpt lat="43.84054430857794" lon="11.163700351827162"><ele>41.0</ele><time>2026-04-10T14:14:09Z</time></trkpt><trkpt lat="43.840743655959685" lon="11.163871063152502"><ele>64.0</ele><time>2026-04-10T14:14:10Z</time></trkpt><trkpt lat="43.85233033509259" lon="11.173755186595137"><ele>64.0</ele><time>2026-04-10T14:15:11Z</time></trkpt><trkpt lat="43.85252610315274" lon="11.17394181716826"><ele>64.0</ele><time>2026-04-10T14:15:12Z</time></trkpt><trkpt lat="43.85272426003274" lon="11.174117654750962"><ele>63.5</ele><time>2026-04-10T14:15:13Z</time></trkpt><trkpt lat="43.852918115917625" lon="11.174292125552546"><ele>63.0</ele><time>2026-04-10T14:15:14Z</time></trkpt><trkpt lat="43.853112872699306" lon="11.174451197328441"><ele>63.0</ele><time>2026-04-10T14:15:15Z</time></trkpt><trkpt lat="43.85331024025837" lon="11.17461942477003"><ele>63.0</ele><time>2026-04-10T14:15:16Z</time></trkpt><trkpt lat="43.85350540557209" lon="11.174793332414215"><ele>64.5</ele><time>2026-04-10T14:15:17Z</time></trkpt><trkpt lat="43.85370137001202" lon="11.174961403238836"><ele>66.0</ele><time>2026-04-10T14:15:18Z</time></trkpt><trkpt lat="43.8539005917518" lon="11.1751249085056"><ele>66.0</ele><time>2026-04-10T14:15:19Z</time></trkpt><trkpt lat="43.85409978880332" lon="11.175299344108543"><ele>66.0</ele><time>2026-04-10T14:15:20Z</time></trkpt><trkpt lat="43.854297461020415" lon="11.17545672539858"><ele>65.5</ele><time>2026-04-10T14:15:21Z</time></trkpt><trkpt lat="43.854496412629736" lon="11.175614172646904"><ele>65.0</ele><time>2026-04-10T14:15:22Z</time></trkpt><trkpt lat="43.85469636003884" lon="11.175777502446765"><ele>67.0</ele><time>2026-04-10T14:15:23Z</time></trkpt><trkpt lat="43.854886722822854" lon="11.175950078350166"><ele>69.0</ele><time>2026-04-10T14:15:24Z</time></trkpt><trkpt lat="43.85508663885967" lon="11.176111229874007"><ele>69.5</ele><time>2026-04-10T14:15:25Z</time></trkpt><trkpt lat="43.85528341665615" lon="11.176278343368931"><ele>70.0</ele><time>2026-04-10T14:15:26Z</time></trkpt><trkpt lat="43.855490522907786" lon="11.176435208215564"><ele>70.5</ele><time>2026-04-10T14:15:27Z</time></trkpt><trkpt lat="43.855695068459056" lon="11.1765722040377"><ele>71.0</ele><time>2026-04-10T14:15:28Z</time></trkpt><trkpt lat="43.85590717377624" lon="11.176710115669731"><ele>71.5</ele><time>2026-04-10T14:15:29Z</time></trkpt><trkpt lat="43.85612125281516" lon="11.176837848980394"><ele>72.0</ele><time>2026-04-10T14:15:30Z</time></trkpt><trkpt lat="43.856336395280245" lon="11.176958405616297"><ele>72.0</ele><time>2026-04-10T14:15:31Z</time></trkpt><trkpt lat="43.856553673472305" lon="11.17707816958049"><ele>72.0</ele><time>2026-04-10T14:15:32Z</time></trkpt><trkpt lat="43.85677558073284" lon="11.177170352860573"><ele>73.0</ele><time>2026-04-10T14:15:33Z</time></trkpt><trkpt lat="43.85699929245816" lon="11.17726364537522"><ele>74.0</ele><time>2026-04-10T14:15:34Z</time></trkpt><trkpt lat="43.857224104446644" lon="11.177354735836019"><ele>74.0</ele><time>2026-04-10T14:15:35Z</time></trkpt><trkpt lat="43.85744740682536" lon="11.177431380590987"><ele>74.0</ele><time>2026-04-10T14:15:36Z</time></trkpt><trkpt lat="43.85768013470453" lon="11.177486493757938"><ele>75.5</ele><time>2026-04-10T14:15:37Z</time></trkpt><trkpt lat="43.8579119303447" lon="11.177541700134658"><ele>77.0</ele><time>2026-04-10T14:15:38Z</time></trkpt><trkpt lat="43.85815533836504" lon="11.177606765753769"><ele>77.0</ele><time>2026-04-10T14:15:39Z</time></trkpt><trkpt lat="43.858398552689025" lon="11.177681623609582"><ele>77.0</ele><time>2026-04-10T14:15:40Z</time></trkpt><trkpt lat="43.85863933718259" lon="11.177697332354985"><ele>77.0</ele><time>2026-04-10T14:15:41Z</time></trkpt><trkpt lat="43.858874200915885" lon="11.177730023059926"><ele>77.0</ele><time>2026-04-10T14:15:42Z</time></trkpt><trkpt lat="43.85912202845146" lon="11.177741829360585"><ele>77.5</ele><time>2026-04-10T14:15:43Z</time></trkpt><trkpt lat="43.85936190674276" lon="11.177752732480716"><ele>78.0</ele><time>2026-04-10T14:15:44Z</time></trkpt><trkpt lat="43.85959552002998" lon="11.177751266880978"><ele>78.0</ele><time>2026-04-10T14:15:45Z</time></trkpt><trkpt lat="43.859838174341775" lon="11.17773630643959"><ele>78.0</ele><time>2026-04-10T14:15:46Z</time></trkpt><trkpt lat="43.860077506686814" lon="11.177717676074979"><ele>79.0</ele><time>2026-04-10T14:15:47Z</time></trkpt><trkpt lat="43.86031169242045" lon="11.177688316455551"><ele>80.0</ele><time>2026-04-10T14:15:48Z</time></trkpt><trkpt lat="43.86054503527696" lon="11.177644372304963"><ele>80.0</ele><time>2026-04-10T14:15:49Z</time></trkpt><trkpt lat="43.86078016892964" lon="11.177609349740234"><ele>80.0</ele><time>2026-04-10T14:15:50Z</time></trkpt><trkpt lat="43.86101325746612" lon="11.177551966459891"><ele>81.0</ele><time>2026-04-10T14:15:51Z</time></trkpt><trkpt lat="43.86124275218812" lon="11.177493648992812"><ele>82.0</ele><time>2026-04-10T14:15:52Z</time></trkpt><trkpt lat="43.861469698838484" lon="11.177428001015851"><ele>82.0</ele><time>2026-04-10T14:15:53Z</time></trkpt><trkpt lat="43.86169638182966" lon="11.177360197110696"><ele>82.0</ele><time>2026-04-10T14:15:54Z</time></trkpt><trkpt lat="43.86192199354223" lon="11.177286978173955"><ele>80.0</ele><time>2026-04-10T14:15:55Z</time></trkpt><trkpt lat="43.86214666885442" lon="11.177207945350792"><ele>78.0</ele><time>2026-04-10T14:15:56Z</time></trkpt><trkpt lat="43.86237041055357" lon="11.177129289511663"><ele>78.0</ele><time>2026-04-10T14:15:57Z</time></trkpt><trkpt lat="43.86259290313706" lon="11.17704724822892"><ele>78.0</ele><time>2026-04-10T14:15:58Z</time></trkpt><trkpt lat="43.862815058072684" lon="11.176958934650221"><ele>78.5</ele><time>2026-04-10T14:15:59Z</time></trkpt><trkpt lat="43.86303943289013" lon="11.176868714421124"><ele>79.0</ele><time>2026-04-10T14:16:00Z</time></trkpt><trkpt lat="43.86326632150477" lon="11.176775504485134"><ele>81.0</ele><time>2026-04-10T14:16:01Z</time></trkpt><trkpt lat="43.86349320424847" lon="11.17668326364788"><ele>83.0</ele><time>2026-04-10T14:16:02Z</time></trkpt><trkpt lat="43.86372065778242" lon="11.17658837261677"><ele>82.5</ele><time>2026-04-10T14:16:03Z</time></trkpt><trkpt lat="43.863948650497974" lon="11.17649437953747"><ele>82.0</ele><time>2026-04-10T14:16:04Z</time></trkpt><trkpt lat="43.864178361429815" lon="11.17640314781802"><ele>83.5</ele><time>2026-04-10T14:16:05Z</time></trkpt><trkpt lat="43.8644111048508" lon="11.176311507943273"><ele>85.0</ele><time>2026-04-10T14:16:06Z</time></trkpt><trkpt lat="43.86464254147555" lon="11.176221691473398"><ele>85.0</ele><time>2026-04-10T14:16:07Z</time></trkpt><trkpt lat="43.86487538246728" lon="11.176130860986577"><ele>85.0</ele><time>2026-04-10T14:16:08Z</time></trkpt><trkpt lat="43.86510881652801" lon="11.176039123665571"><ele>87.5</ele><time>2026-04-10T14:16:09Z</time></trkpt><trkpt lat="43.86534342484342" lon="11.175945273457211"><ele>90.0</ele><time>2026-04-10T14:16:10Z</time></trkpt><trkpt lat="43.878245150513045" lon="11.17803902884573"><ele>94.5</ele><time>2026-04-10T14:17:11Z</time></trkpt><trkpt lat="43.878412491502516" lon="11.17827736388796"><ele>99.0</ele><time>2026-04-10T14:17:12Z</time></trkpt><trkpt lat="43.87857145935432" lon="11.178519193262701"><ele>99.0</ele><time>2026-04-10T14:17:13Z</time></trkpt><trkpt lat="43.87872683639392" lon="11.178772508280485"><ele>99.0</ele><time>2026-04-10T14:17:14Z</time></trkpt><trkpt lat="43.87887729152657" lon="11.179032196633285"><ele>105.5</ele><time>2026-04-10T14:17:15Z</time></trkpt><trkpt lat="43.879018753919986" lon="11.179305324334717"><ele>112.0</ele><time>2026-04-10T14:17:16Z</time></trkpt><trkpt lat="43.87915293497446" lon="11.179587070120949"><ele>104.5</ele><time>2026-04-10T14:17:17Z</time></trkpt><trkpt lat="43.879289628078716" lon="11.179868184749202"><ele>97.0</ele><time>2026-04-10T14:17:18Z</time></trkpt><trkpt lat="43.8794255948411" lon="11.180150501120847"><ele>97.0</ele><time>2026-04-10T14:17:19Z</time></trkpt><trkpt lat="43.87955943165797" lon="11.180428335760908"><ele>97.0</ele><time>2026-04-10T14:17:20Z</time></trkpt><trkpt lat="43.879691839441605" lon="11.180696327114507"><ele>103.0</ele><time>2026-04-10T14:17:21Z</time></trkpt><trkpt lat="43.87982890292648" lon="11.180953863604483"><ele>109.0</ele><time>2026-04-10T14:17:22Z</time></trkpt><trkpt lat="43.87997479124806" lon="11.1812094661703"><ele>106.0</ele><time>2026-04-10T14:17:23Z</time></trkpt><trkpt lat="43.8801245023893" lon="11.181446172489364"><ele>103.0</ele><time>2026-04-10T14:17:24Z</time></trkpt><trkpt lat="43.88027913930132" lon="11.18167605861981"><ele>103.0</ele><time>2026-04-10T14:17:25Z</time></trkpt><trkpt lat="43.88043705535003" lon="11.181898432743353"><ele>103.0</ele><time>2026-04-10T14:17:26Z</time></trkpt><trkpt lat="43.880599084428596" lon="11.182115598528272"><ele>103.0</ele><time>2026-04-10T14:17:27Z</time></trkpt><trkpt lat="43.880763059927936" lon="11.18232334923055"><ele>103.0</ele><time>2026-04-10T14:17:28Z</time></trkpt><trkpt lat="43.88093274146627" lon="11.1825241676571"><ele>103.0</ele><time>2026-04-10T14:17:29Z</time></trkpt><trkpt lat="43.88110591328151" lon="11.182715572361502"><ele>107.0</ele><time>2026-04-10T14:17:30Z</time></trkpt><trkpt lat="43.88127957980272" lon="11.182901648325776"><ele>111.0</ele><time>2026-04-10T14:17:31Z</time></trkpt><trkpt lat="43.881453530549244" lon="11.183081256997529"><ele>115.0</ele><time>2026-04-10T14:17:32Z</time></trkpt><trkpt lat="43.881623077148525" lon="11.183265265001054"><ele>114.0</ele><time>2026-04-10T14:17:33Z</time></trkpt><trkpt lat="43.88178949921161" lon="11.183451124590977"><ele>113.0</ele><time>2026-04-10T14:17:34Z</time></trkpt><trkpt lat="43.88195845245754" lon="11.183629349083782"><ele>112.0</ele><time>2026-04-10T14:17:35Z</time></trkpt><trkpt lat="43.882127916219886" lon="11.183804931224147"><ele>112.0</ele><time>2026-04-10T14:17:36Z</time></trkpt><trkpt lat="43.882299574294045" lon="11.183974256088867"><ele>112.0</ele><time>2026-04-10T14:17:37Z</time></trkpt><trkpt lat="43.88247618939559" lon="11.184130183549819"><ele>112.0</ele><time>2026-04-10T14:17:38Z</time></trkpt><trkpt lat="43.88265902045937" lon="11.184276938191553"><ele>108.66666666666667</ele><time>2026-04-10T14:17:39Z</time></trkpt><trkpt lat="43.88285157292006" lon="11.184410600088224"><ele>105.33333333333334</ele><time>2026-04-10T14:17:40Z</time></trkpt><trkpt lat="43.88305385613696" lon="11.184534869917986"><ele>102.0</ele><time>2026-04-10T14:17:41Z</time></trkpt><trkpt lat="43.88325979058427" lon="11.18465651074372"><ele>102.0</ele><time>2026-04-10T14:17:42Z</time></trkpt><trkpt lat="43.883470723959654" lon="11.18475770649738"><ele>102.0</ele><time>2026-04-10T14:17:43Z</time></trkpt><trkpt lat="43.8836835136338" lon="11.184838696177126"><ele>102.0</ele><time>2026-04-10T14:17:44Z</time></trkpt><trkpt lat="43.88389771330556" lon="11.184909190701754"><ele>102.0</ele><time>2026-04-10T14:17:45Z</time></trkpt><trkpt lat="43.88411216955587" lon="11.184968849985923"><ele>102.0</ele><time>2026-04-10T14:17:46Z</time></trkpt><trkpt lat="43.88432993206319" lon="11.185012581104347"><ele>102.0</ele><time>2026-04-10T14:17:47Z</time></trkpt><trkpt lat="43.88454885259673" lon="11.18504160528259"><ele>101.0</ele><time>2026-04-10T14:17:48Z</time></trkpt><trkpt lat="43.8847690371645" lon="11.185053856810304"><ele>100.0</ele><time>2026-04-10T14:17:49Z</time></trkpt><trkpt lat="43.88499186924962" lon="11.185047697368068"><ele>99.0</ele><time>2026-04-10T14:17:50Z</time></trkpt><trkpt lat="43.88521272150787" lon="11.185030898237125"><ele>99.0</ele><time>2026-04-10T14:17:51Z</time></trkpt><trkpt lat="43.88543322271853" lon="11.185002233390469"><ele>99.0</ele><time>2026-04-10T14:17:52Z</time></trkpt><trkpt lat="43.88565271142539" lon="11.184957422895723"><ele>99.0</ele><time>2026-04-10T14:17:53Z</time></trkpt><trkpt lat="43.88586984286503" lon="11.184890931541721"><ele>105.33333333333334</ele><time>2026-04-10T14:17:54Z</time></trkpt><trkpt lat="43.88608543011995" lon="11.184820964581075"><ele>111.66666666666667</ele><time>2026-04-10T14:17:55Z</time></trkpt><trkpt lat="43.88630443289996" lon="11.184746533123441"><ele>118.0</ele><time>2026-04-10T14:17:56Z</time></trkpt><trkpt lat="43.88651990164783" lon="11.18467041498997"><ele>118.0</ele><time>2026-04-10T14:17:57Z</time></trkpt><trkpt lat="43.88673759247995" lon="11.184600890791067"><ele>118.0</ele><time>2026-04-10T14:17:58Z</time></trkpt><trkpt lat="43.88695873079375" lon="11.184534649299536"><ele>122.5</ele><time>2026-04-10T14:17:59Z</time></trkpt><trkpt lat="43.88718087705825" lon="11.184467082370547"><ele>127.0</ele><time>2026-04-10T14:18:00Z</time></trkpt><trkpt lat="43.88740158833929" lon="11.18439748945558"><ele>128.66666666666669</ele><time>2026-04-10T14:18:01Z</time></trkpt><trkpt lat="43.887621970771264" lon="11.184340516575348"><ele>130.33333333333334</ele><time>2026-04-10T14:18:02Z</time></trkpt><trkpt lat="43.887844715768914" lon="11.184310563955695"><ele>132.0</ele><time>2026-04-10T14:18:03Z</time></trkpt><trkpt lat="43.88806826361808" lon="11.184290004673235"><ele>132.0</ele><time>2026-04-10T14:18:04Z</time></trkpt><trkpt lat="43.8882919267844" lon="11.184279306602837"><ele>132.0</ele><time>2026-04-10T14:18:05Z</time></trkpt><trkpt lat="43.8885160321948" lon="11.184278650527386"><ele>132.0</ele><time>2026-04-10T14:18:06Z</time></trkpt><trkpt lat="43.88873861960346" lon="11.184288497067621"><ele>132.33333333333334</ele><time>2026-04-10T14:18:07Z</time></trkpt><trkpt lat="43.88895992801327" lon="11.184308704052578"><ele>132.66666666666669</ele><time>2026-04-10T14:18:08Z</time></trkpt><trkpt lat="43.889179647669934" lon="11.184343729308816"><ele>133.0</ele><time>2026-04-10T14:18:09Z</time></trkpt><trkpt lat="43.889399439894724" lon="11.18439302392616"><ele>181.0</ele><time>2026-04-10T14:18:10Z</time></trkpt><trkpt lat="43.9012879723277" lon="11.193480197613015"><ele>181.0</ele><time>2026-04-10T14:19:11Z</time></trkpt><trkpt lat="43.901511804784455" lon="11.193556588236376"><ele>181.0</ele><time>2026-04-10T14:19:12Z</time></trkpt><trkpt lat="43.90173778429816" lon="11.193633263988053"><ele>185.0</ele><time>2026-04-10T14:19:13Z</time></trkpt><trkpt lat="43.901958631605915" lon="11.193712673624768"><ele>189.0</ele><time>2026-04-10T14:19:14Z</time></trkpt><trkpt lat="43.90217908640788" lon="11.193792581953161"><ele>189.0</ele><time>2026-04-10T14:19:15Z</time></trkpt><trkpt lat="43.902398608948346" lon="11.193880620738865"><ele>189.0</ele><time>2026-04-10T14:19:16Z</time></trkpt><trkpt lat="43.90261846723536" lon="11.19396485836477"><ele>196.5</ele><time>2026-04-10T14:19:17Z</time></trkpt><trkpt lat="43.902836833062516" lon="11.194043780810686"><ele>204.0</ele><time>2026-04-10T14:19:18Z</time></trkpt><trkpt lat="43.903059052054346" lon="11.194121730843293"><ele>204.0</ele><time>2026-04-10T14:19:19Z</time></trkpt><trkpt lat="43.903279913325974" lon="11.194200390925447"><ele>204.0</ele><time>2026-04-10T14:19:20Z</time></trkpt><trkpt lat="43.90349709816123" lon="11.194275922032455"><ele>199.0</ele><time>2026-04-10T14:19:21Z</time></trkpt><trkpt lat="43.90371532362642" lon="11.194348650818256"><ele>194.0</ele><time>2026-04-10T14:19:22Z</time></trkpt><trkpt lat="43.90393578831863" lon="11.194414952478251"><ele>194.0</ele><time>2026-04-10T14:19:23Z</time></trkpt><trkpt lat="43.90415683312181" lon="11.194476029299594"><ele>194.0</ele><time>2026-04-10T14:19:24Z</time></trkpt><trkpt lat="43.90437649381719" lon="11.194531504566223"><ele>194.0</ele><time>2026-04-10T14:19:25Z</time></trkpt><trkpt lat="43.9045974489275" lon="11.194588854490103"><ele>192.0</ele><time>2026-04-10T14:19:26Z</time></trkpt><trkpt lat="43.904815550480556" lon="11.194629352279861"><ele>190.0</ele><time>2026-04-10T14:19:27Z</time></trkpt><trkpt lat="43.90503178576406" lon="11.194664280015486"><ele>188.0</ele><time>2026-04-10T14:19:28Z</time></trkpt><trkpt lat="43.905247815520276" lon="11.194693658513481"><ele>188.0</ele><time>2026-04-10T14:19:29Z</time></trkpt><trkpt lat="43.90546204968798" lon="11.194727484973134"><ele>188.0</ele><time>2026-04-10T14:19:30Z</time></trkpt><trkpt lat="43.90567652555292" lon="11.194754120917162"><ele>188.0</ele><time>2026-04-10T14:19:31Z</time></trkpt><trkpt lat="43.90589626916487" lon="11.19476214332558"><ele>192.0</ele><time>2026-04-10T14:19:32Z</time></trkpt><trkpt lat="43.90612329425495" lon="11.194761890915274"><ele>196.0</ele><time>2026-04-10T14:19:33Z</time></trkpt><trkpt lat="43.90635278842483" lon="11.194767737267291"><ele>196.0</ele><time>2026-04-10T14:19:34Z</time></trkpt><trkpt lat="43.90658399594072" lon="11.194779051578179"><ele>196.0</ele><time>2026-04-10T14:19:35Z</time></trkpt><trkpt lat="43.90681610123428" lon="11.194787880937556"><ele>189.0</ele><time>2026-04-10T14:19:36Z</time></trkpt><trkpt lat="43.907050729995596" lon="11.194782795299105"><ele>182.0</ele><time>2026-04-10T14:19:37Z</time></trkpt><trkpt lat="43.90728483620929" lon="11.194772907233382"><ele>182.0</ele><time>2026-04-10T14:19:38Z</time></trkpt><trkpt lat="43.90752096838519" lon="11.194762305158022"><ele>182.0</ele><time>2026-04-10T14:19:39Z</time></trkpt><trkpt lat="43.907757696527554" lon="11.194750871518213"><ele>186.5</ele><time>2026-04-10T14:19:40Z</time></trkpt><trkpt lat="43.90799348320049" lon="11.194743399390758"><ele>191.0</ele><time>2026-04-10T14:19:41Z</time></trkpt><trkpt lat="43.90822924506683" lon="11.194736517500653"><ele>196.5</ele><time>2026-04-10T14:19:42Z</time></trkpt><trkpt lat="43.90846511237508" lon="11.194733493449904"><ele>202.0</ele><time>2026-04-10T14:19:43Z</time></trkpt><trkpt lat="43.90870072966323" lon="11.194727545908291"><ele>202.0</ele><time>2026-04-10T14:19:44Z</time></trkpt><trkpt lat="43.90893598032776" lon="11.19472180911516"><ele>202.0</ele><time>2026-04-10T14:19:45Z</time></trkpt><trkpt lat="43.909165428738504" lon="11.194720815808862"><ele>202.0</ele><time>2026-04-10T14:19:46Z</time></trkpt><trkpt lat="43.90939125001841" lon="11.194728829537523"><ele>202.0</ele><time>2026-04-10T14:19:47Z</time></trkpt><trkpt lat="43.90961369318522" lon="11.19475466144845"><ele>202.0</ele><time>2026-04-10T14:19:48Z</time></trkpt><trkpt lat="43.909833189038274" lon="11.19479751164708"><ele>207.0</ele><time>2026-04-10T14:19:49Z</time></trkpt><trkpt lat="43.91005112547612" lon="11.194858653997173"><ele>212.0</ele><time>2026-04-10T14:19:50Z</time></trkpt><trkpt lat="43.91026835211867" lon="11.19493009773934"><ele>217.0</ele><time>2026-04-10T14:19:51Z</time></trkpt><trkpt lat="43.910483266596934" lon="11.19501985980384"><ele>217.0</ele><time>2026-04-10T14:19:52Z</time></trkpt><trkpt lat="43.910690635539716" lon="11.195114060977867"><ele>217.0</ele><time>2026-04-10T14:19:53Z</time></trkpt><trkpt lat="43.91088752938093" lon="11.195225585228593"><ele>217.0</ele><time>2026-04-10T14:19:54Z</time></trkpt><trkpt lat="43.91108222648913" lon="11.195352466856558"><ele>219.33333333333331</ele><time>2026-04-10T14:19:55Z</time></trkpt><trkpt lat="43.91127591472215" lon="11.195493175120836"><ele>221.66666666666669</ele><time>2026-04-10T14:19:56Z</time></trkpt><trkpt lat="43.91146521957183" lon="11.19564352537978"><ele>224.0</ele><time>2026-04-10T14:19:57Z</time></trkpt><trkpt lat="43.911648476488395" lon="11.1958120017786"><ele>209.5</ele><time>2026-04-10T14:19:58Z</time></trkpt><trkpt lat="43.91182776290984" lon="11.195995557275564"><ele>195.0</ele><time>2026-04-10T14:19:59Z</time></trkpt><trkpt lat="43.91200498195249" lon="11.196191908063874"><ele>195.0</ele><time>2026-04-10T14:20:00Z</time></trkpt><trkpt lat="43.91217877505693" lon="11.196398537471246"><ele>195.0</ele><time>2026-04-10T14:20:01Z</time></trkpt><trkpt lat="43.912356308890644" lon="11.19660804694733"><ele>198.5</ele><time>2026-04-10T14:20:02Z</time></trkpt><trkpt lat="43.9125350866388" lon="11.196814411740611"><ele>202.0</ele><time>2026-04-10T14:20:03Z</time></trkpt><trkpt lat="43.912708782988716" lon="11.197022988726287"><ele>202.0</ele><time>2026-04-10T14:20:04Z</time></trkpt><trkpt lat="43.91287917292397" lon="11.197232668947322"><ele>202.0</ele><time>2026-04-10T14:20:05Z</time></trkpt><trkpt lat="43.913047248237774" lon="11.197437427497686"><ele>202.0</ele><time>2026-04-10T14:20:06Z</time></trkpt><trkpt lat="43.91321045980825" lon="11.197626856359943"><ele>202.0</ele><time>2026-04-10T14:20:07Z</time></trkpt><trkpt lat="43.91338046360579" lon="11.197808082738696"><ele>202.0</ele><time>2026-04-10T14:20:08Z</time></trkpt><trkpt lat="43.913552182764235" lon="11.197981399224068"><ele>202.0</ele><time>2026-04-10T14:20:09Z</time></trkpt><trkpt lat="43.913720330280356" lon="11.198146243095799"><ele>202.0</ele><time>2026-04-10T14:20:10Z</time></trkpt><trkpt lat="43.91997265256286" lon="11.209598674726056"><ele>213.49999999999997</ele><time>2026-04-10T14:21:11Z</time></trkpt><trkpt lat="43.92001652612511" lon="11.209709915553635"><ele>225.0</ele><time>2026-04-10T14:21:13Z</time></trkpt><trkpt lat="43.9200487531405" lon="11.209809451574355"><ele>236.5</ele><time>2026-04-10T14:21:15Z</time></trkpt><trkpt lat="43.9200914579865" lon="11.209919616531373"><ele>248.0</ele><time>2026-04-10T14:21:18Z</time></trkpt><trkpt lat="43.92011825275247" lon="11.210001923479913"><ele>259.5</ele><time>2026-04-10T14:21:19Z</time></trkpt><trkpt lat="43.92014710842713" lon="11.21008740613727"><ele>271.0</ele><time>2026-04-10T14:21:20Z</time></trkpt><trkpt lat="43.92018130876826" lon="11.210163256192514"><ele>271.0</ele><time>2026-04-10T14:21:21Z</time></trkpt><trkpt lat="43.92024098388861" lon="11.210305929821681"><ele>271.0</ele><time>2026-04-10T14:21:23Z</time></trkpt><trkpt lat="43.920273937141744" lon="11.210385145252735"><ele>271.0</ele><time>2026-04-10T14:21:24Z</time></trkpt><trkpt lat="43.920315464536955" lon="11.210478969440953"><ele>271.0</ele><time>2026-04-10T14:21:25Z</time></trkpt><trkpt lat="43.92036844664592" lon="11.210592941677968"><ele>271.0</ele><time>2026-04-10T14:21:26Z</time></trkpt><trkpt lat="43.92043210454458" lon="11.210720296579572"><ele>272.6</ele><time>2026-04-10T14:21:27Z</time></trkpt><trkpt lat="43.920500741707514" lon="11.21086067682122"><ele>274.20000000000005</ele><time>2026-04-10T14:21:28Z</time></trkpt><trkpt lat="43.92056755432881" lon="11.210990550419355"><ele>275.79999999999995</ele><time>2026-04-10T14:21:29Z</time></trkpt><trkpt lat="43.92062480406097" lon="11.211100070888882"><ele>277.4</ele><time>2026-04-10T14:21:30Z</time></trkpt><trkpt lat="43.92068501521724" lon="11.211211699207917"><ele>279.0</ele><time>2026-04-10T14:21:31Z</time></trkpt><trkpt lat="43.920751698410804" lon="11.211325799540251"><ele>279.0</ele><time>2026-04-10T14:21:32Z</time></trkpt><trkpt lat="43.92081869899898" lon="11.211436849987926"><ele>279.0</ele><time>2026-04-10T14:21:33Z</time></trkpt><trkpt lat="43.920882511168585" lon="11.211545040004157"><ele>279.0</ele><time>2026-04-10T14:21:34Z</time></trkpt><trkpt lat="43.92094942193377" lon="11.211656474244911"><ele>279.0</ele><time>2026-04-10T14:21:35Z</time></trkpt><trkpt lat="43.921022241694274" lon="11.21177269284038"><ele>279.0</ele><time>2026-04-10T14:21:36Z</time></trkpt><trkpt lat="43.921102016652576" lon="11.21189357633376"><ele>277.75</ele><time>2026-04-10T14:21:37Z</time></trkpt><trkpt lat="43.92118648256778" lon="11.2120150394354"><ele>276.5</ele><time>2026-04-10T14:21:38Z</time></trkpt><trkpt lat="43.921279486884146" lon="11.212138056188666"><ele>275.25</ele><time>2026-04-10T14:21:39Z</time></trkpt><trkpt lat="43.92137967214035" lon="11.21226990744572"><ele>274.0</ele><time>2026-04-10T14:21:40Z</time></trkpt><trkpt lat="43.92148558964274" lon="11.212405941019805"><ele>274.0</ele><time>2026-04-10T14:21:41Z</time></trkpt><trkpt lat="43.921593582834205" lon="11.212543576781565"><ele>274.0</ele><time>2026-04-10T14:21:42Z</time></trkpt><trkpt lat="43.921699413679036" lon="11.212674733868639"><ele>274.0</ele><time>2026-04-10T14:21:43Z</time></trkpt><trkpt lat="43.921803711759175" lon="11.212800678345006"><ele>274.0</ele><time>2026-04-10T14:21:44Z</time></trkpt><trkpt lat="43.92190439644811" lon="11.212918860724235"><ele>274.25</ele><time>2026-04-10T14:21:45Z</time></trkpt><trkpt lat="43.92200074158622" lon="11.213027535644764"><ele>274.5</ele><time>2026-04-10T14:21:46Z</time></trkpt><trkpt lat="43.92209408179775" lon="11.213126403994718"><ele>274.75</ele><time>2026-04-10T14:21:47Z</time></trkpt><trkpt lat="43.92218384746858" lon="11.213223452820506"><ele>275.0</ele><time>2026-04-10T14:21:48Z</time></trkpt><trkpt lat="43.922276560394174" lon="11.213319873650772"><ele>275.0</ele><time>2026-04-10T14:21:49Z</time></trkpt><trkpt lat="43.92237199089004" lon="11.213421891231736"><ele>275.0</ele><time>2026-04-10T14:21:50Z</time></trkpt><trkpt lat="43.92247563070402" lon="11.21353098242369"><ele>275.0</ele><time>2026-04-10T14:21:51Z</time></trkpt><trkpt lat="43.92258056214344" lon="11.213642940055449"><ele>275.0</ele><time>2026-04-10T14:21:52Z</time></trkpt><trkpt lat="43.92268911179916" lon="11.21375552562173"><ele>272.75</ele><time>2026-04-10T14:21:53Z</time></trkpt><trkpt lat="43.92280139050175" lon="11.213873024296626"><ele>270.5</ele><time>2026-04-10T14:21:54Z</time></trkpt><trkpt lat="43.92291842711204" lon="11.213992027570162"><ele>268.25</ele><time>2026-04-10T14:21:55Z</time></trkpt><trkpt lat="43.923044012104924" lon="11.214116658492104"><ele>266.0</ele><time>2026-04-10T14:21:56Z</time></trkpt><trkpt lat="43.923171644690626" lon="11.214245985032974"><ele>260.33333333333337</ele><time>2026-04-10T14:21:57Z</time></trkpt><trkpt lat="43.92330235588973" lon="11.21437992925945"><ele>254.66666666666669</ele><time>2026-04-10T14:21:58Z</time></trkpt><trkpt lat="43.92343934828936" lon="11.214518911479237"><ele>249.0</ele><time>2026-04-10T14:21:59Z</time></trkpt><trkpt lat="43.923579453927836" lon="11.214665664708386"><ele>249.0</ele><time>2026-04-10T14:22:00Z</time></trkpt><trkpt lat="43.92371759885835" lon="11.214814307858212"><ele>249.0</ele><time>2026-04-10T14:22:01Z</time></trkpt><trkpt lat="43.9238557506506" lon="11.214954953090386"><ele>249.0</ele><time>2026-04-10T14:22:02Z</time></trkpt><trkpt lat="43.923994356689214" lon="11.2150952575898"><ele>250.0</ele><time>2026-04-10T14:22:03Z</time></trkpt><trkpt lat="43.924133413937966" lon="11.215237724575662"><ele>251.0</ele><time>2026-04-10T14:22:04Z</time></trkpt><trkpt lat="43.92428060683528" lon="11.215386626464594"><ele>252.0</ele><time>2026-04-10T14:22:05Z</time></trkpt><trkpt lat="43.92443353649792" lon="11.215542092049494"><ele>264.6666666666667</ele><time>2026-04-10T14:22:06Z</time></trkpt><trkpt lat="43.92458765971975" lon="11.215702169352333"><ele>277.33333333333337</ele><time>2026-04-10T14:22:07Z</time></trkpt><trkpt lat="43.92472932690162" lon="11.21584780705241"><ele>290.0</ele><time>2026-04-10T14:22:08Z</time></trkpt><trkpt lat="43.92486122570207" lon="11.215982868584124"><ele>290.0</ele><time>2026-04-10T14:22:09Z</time></trkpt><trkpt lat="43.92498179035645" lon="11.216109273422438"><ele>290.0</ele><time>2026-04-10T14:22:10Z</time></trkpt><trkpt lat="43.931298611716564" lon="11.219063701626059"><ele>300.6666666666667</ele><time>2026-04-10T14:23:11Z</time></trkpt><trkpt lat="43.931473430424525" lon="11.219100819146625"><ele>311.3333333333333</ele><time>2026-04-10T14:23:12Z</time></trkpt><trkpt lat="43.931648128282426" lon="11.219137675561198"><ele>322.0</ele><time>2026-04-10T14:23:13Z</time></trkpt><trkpt lat="43.93182028540424" lon="11.219177143166464"><ele>323.0</ele><time>2026-04-10T14:23:14Z</time></trkpt><trkpt lat="43.931995351995496" lon="11.219228471877308"><ele>324.0</ele><time>2026-04-10T14:23:15Z</time></trkpt><trkpt lat="43.93217243470463" lon="11.219287675378004"><ele>325.0</ele><time>2026-04-10T14:23:16Z</time></trkpt><trkpt lat="43.9323511022886" lon="11.219359502436207"><ele>325.0</ele><time>2026-04-10T14:23:17Z</time></trkpt><trkpt lat="43.93253482173238" lon="11.2194490355306"><ele>325.0</ele><time>2026-04-10T14:23:18Z</time></trkpt><trkpt lat="43.93271669958193" lon="11.219548442927547"><ele>325.0</ele><time>2026-04-10T14:23:18.999Z</time></trkpt><trkpt lat="43.93289482682533" lon="11.219655292856158"><ele>324.66666666666663</ele><time>2026-04-10T14:23:19.999Z</time></trkpt><trkpt lat="43.93306666762625" lon="11.219772227848372"><ele>324.3333333333333</ele><time>2026-04-10T14:23:21Z</time></trkpt><trkpt lat="43.93323737458998" lon="11.219899883984606"><ele>324.0</ele><time>2026-04-10T14:23:21.999Z</time></trkpt><trkpt lat="43.933394046848356" lon="11.220032269599486"><ele>324.0</ele><time>2026-04-10T14:23:22.999Z</time></trkpt><trkpt lat="43.933539995315805" lon="11.22015822203679"><ele>324.0</ele><time>2026-04-10T14:23:24Z</time></trkpt><trkpt lat="43.933687282877976" lon="11.220298383470478"><ele>324.0</ele><time>2026-04-10T14:23:25Z</time></trkpt><trkpt lat="43.93383441101743" lon="11.220451541809679"><ele>324.0</ele><time>2026-04-10T14:23:25.999Z</time></trkpt><trkpt lat="43.93398874247827" lon="11.220609627280004"><ele>324.0</ele><time>2026-04-10T14:23:27Z</time></trkpt><trkpt lat="43.93414819339208" lon="11.220774099484462"><ele>324.0</ele><time>2026-04-10T14:23:28Z</time></trkpt><trkpt lat="43.93429587743764" lon="11.220930547362098"><ele>324.0</ele><time>2026-04-10T14:23:29Z</time></trkpt><trkpt lat="43.93444487508002" lon="11.22106902206945"><ele>324.0</ele><time>2026-04-10T14:23:30Z</time></trkpt><trkpt lat="43.934604346024244" lon="11.221201109389934"><ele>324.0</ele><time>2026-04-10T14:23:31Z</time></trkpt><trkpt lat="43.934769632661364" lon="11.221329524067608"><ele>324.0</ele><time>2026-04-10T14:23:32Z</time></trkpt><trkpt lat="43.93493711214745" lon="11.221453125602038"><ele>324.0</ele><time>2026-04-10T14:23:33Z</time></trkpt><trkpt lat="43.93510871578302" lon="11.221560769307128"><ele>324.0</ele><time>2026-04-10T14:23:34Z</time></trkpt><trkpt lat="43.93528220375821" lon="11.221658401580918"><ele>324.6666666666667</ele><time>2026-04-10T14:23:35Z</time></trkpt><trkpt lat="43.935452417002125" lon="11.221737658267621"><ele>325.33333333333337</ele><time>2026-04-10T14:23:36Z</time></trkpt><trkpt lat="43.935624195527026" lon="11.221805854685032"><ele>326.0</ele><time>2026-04-10T14:23:37Z</time></trkpt><trkpt lat="43.93579184981198" lon="11.221870613474715"><ele>328.33333333333337</ele><time>2026-04-10T14:23:38Z</time></trkpt><trkpt lat="43.935947833969074" lon="11.221918905609323"><ele>330.6666666666667</ele><time>2026-04-10T14:23:39Z</time></trkpt><trkpt lat="43.93610756847435" lon="11.22194947220008"><ele>333.0</ele><time>2026-04-10T14:23:40Z</time></trkpt><trkpt lat="43.93627867606092" lon="11.221981337869131"><ele>333.0</ele><time>2026-04-10T14:23:41Z</time></trkpt><trkpt lat="43.936456096683074" lon="11.222005896635718"><ele>333.0</ele><time>2026-04-10T14:23:42Z</time></trkpt><trkpt lat="43.936627592398956" lon="11.22200957231828"><ele>333.0</ele><time>2026-04-10T14:23:43Z</time></trkpt><trkpt lat="43.936805925706146" lon="11.222006586387602"><ele>338.3333333333333</ele><time>2026-04-10T14:23:44Z</time></trkpt><trkpt lat="43.93697857920248" lon="11.221994204541312"><ele>343.66666666666663</ele><time>2026-04-10T14:23:45Z</time></trkpt><trkpt lat="43.937135759264024" lon="11.2219816798193"><ele>349.0</ele><time>2026-04-10T14:23:46Z</time></trkpt><trkpt lat="43.937293076571045" lon="11.22196964483757"><ele>349.0</ele><time>2026-04-10T14:23:47Z</time></trkpt><trkpt lat="43.93744867760983" lon="11.221958538973436"><ele>349.0</ele><time>2026-04-10T14:23:48Z</time></trkpt><trkpt lat="43.93760833231377" lon="11.221950042035216"><ele>349.0</ele><time>2026-04-10T14:23:49Z</time></trkpt><trkpt lat="43.93777299083044" lon="11.221934803239147"><ele>347.0</ele><time>2026-04-10T14:23:50Z</time></trkpt><trkpt lat="43.93792529355837" lon="11.221927344568888"><ele>345.0</ele><time>2026-04-10T14:23:51Z</time></trkpt><trkpt lat="43.9380749030443" lon="11.221917508665378"><ele>343.0</ele><time>2026-04-10T14:23:52Z</time></trkpt><trkpt lat="43.93822428923335" lon="11.221905353684265"><ele>343.0</ele><time>2026-04-10T14:23:53Z</time></trkpt><trkpt lat="43.938381079228975" lon="11.221897877023078"><ele>343.0</ele><time>2026-04-10T14:23:54Z</time></trkpt><trkpt lat="43.93852421433484" lon="11.221886252190812"><ele>343.0</ele><time>2026-04-10T14:23:55Z</time></trkpt><trkpt lat="43.93865319409515" lon="11.221877346351372"><ele>343.0</ele><time>2026-04-10T14:23:56Z</time></trkpt><trkpt lat="43.938763446046444" lon="11.221871237575673"><ele>341.79999999999995</ele><time>2026-04-10T14:23:57Z</time></trkpt><trkpt lat="43.93886316576203" lon="11.22186483909947"><ele>340.6</ele><time>2026-04-10T14:23:58Z</time></trkpt><trkpt lat="43.938954921312714" lon="11.221855353759803"><ele>339.4</ele><time>2026-04-10T14:23:59Z</time></trkpt><trkpt lat="43.939039894904795" lon="11.221844228996494"><ele>338.20000000000005</ele><time>2026-04-10T14:24:00Z</time></trkpt><trkpt lat="43.93911511653646" lon="11.221838974384154"><ele>337.0</ele><time>2026-04-10T14:24:01Z</time></trkpt><trkpt lat="43.939228925627376" lon="11.22183079455708"><ele>341.0</ele><time>2026-04-10T14:24:03Z</time></trkpt><trkpt lat="43.939299018329464" lon="11.221825053981714"><ele>345.0</ele><time>2026-04-10T14:24:05Z</time></trkpt><trkpt lat="43.939374245618325" lon="11.221820095898408"><ele>349.0</ele><time>2026-04-10T14:24:10Z</time></trkpt><trkpt lat="43.94617185750102" lon="11.215145110838636"><ele>410.0</ele><time>2026-04-10T14:25:21.215Z</time></trkpt><trkpt lat="43.94658499813359" lon="11.214667665371124"><ele>399.0</ele><time>2026-04-10T14:25:22.212Z</time></trkpt><trkpt lat="43.94704536496722" lon="11.21428019348269"><ele>388.0</ele><time>2026-04-10T14:25:23.211Z</time></trkpt><trkpt lat="43.94762287938145" lon="11.213970995064287"><ele>388.0</ele><time>2026-04-10T14:25:34.001Z</time></trkpt><trkpt lat="43.947870547753226" lon="11.213831185276643"><ele>388.0</ele><time>2026-04-10T14:25:35.001Z</time></trkpt><trkpt lat="43.948051112894035" lon="11.213816217172802"><ele>388.0</ele><time>2026-04-10T14:25:36.001Z</time></trkpt><trkpt lat="43.948261920607784" lon="11.21381594770762"><ele>386.33333333333337</ele><time>2026-04-10T14:25:37.001Z</time></trkpt><trkpt lat="43.94847724564168" lon="11.213818489043959"><ele>384.6666666666667</ele><time>2026-04-10T14:25:38.001Z</time></trkpt><trkpt lat="43.94870348118547" lon="11.213811878853903"><ele>383.0</ele><time>2026-04-10T14:25:39.001Z</time></trkpt><trkpt lat="43.94893153993428" lon="11.213802346145364"><ele>383.0</ele><time>2026-04-10T14:25:39.999Z</time></trkpt><trkpt lat="43.94915810762483" lon="11.213784181392127"><ele>383.0</ele><time>2026-04-10T14:25:40.999Z</time></trkpt><trkpt lat="43.94938462022516" lon="11.213764658197517"><ele>381.5</ele><time>2026-04-10T14:25:41.999Z</time></trkpt><trkpt lat="43.949615744477775" lon="11.213747302978152"><ele>380.0</ele><time>2026-04-10T14:25:42.999Z</time></trkpt><trkpt lat="43.94984714521044" lon="11.213727593723966"><ele>380.5</ele><time>2026-04-10T14:25:43.999Z</time></trkpt><trkpt lat="43.95008379158632" lon="11.213706953479797"><ele>381.0</ele><time>2026-04-10T14:25:44.999Z</time></trkpt><trkpt lat="43.95031803590554" lon="11.213685310914432"><ele>381.0</ele><time>2026-04-10T14:25:45.999Z</time></trkpt><trkpt lat="43.950548418611376" lon="11.213662385840571"><ele>381.0</ele><time>2026-04-10T14:25:46.999Z</time></trkpt><trkpt lat="43.950775667937734" lon="11.213625721347288"><ele>378.5</ele><time>2026-04-10T14:25:47.999Z</time></trkpt><trkpt lat="43.950999505776615" lon="11.21356352548807"><ele>376.0</ele><time>2026-04-10T14:25:48.999Z</time></trkpt><trkpt lat="43.95122228554843" lon="11.213472057593243"><ele>376.0</ele><time>2026-04-10T14:25:49.999Z</time></trkpt><trkpt lat="43.951442615633866" lon="11.213375856991501"><ele>376.0</ele><time>2026-04-10T14:25:50.999Z</time></trkpt><trkpt lat="43.95165711313268" lon="11.21326189508414"><ele>381.5</ele><time>2026-04-10T14:25:51.999Z</time></trkpt><trkpt lat="43.95187085777164" lon="11.213123115968225"><ele>387.0</ele><time>2026-04-10T14:25:52.999Z</time></trkpt><trkpt lat="43.95207503030484" lon="11.212966914985087"><ele>387.0</ele><time>2026-04-10T14:25:54Z</time></trkpt><trkpt lat="43.95227490099204" lon="11.212788076062036"><ele>387.0</ele><time>2026-04-10T14:25:55Z</time></trkpt><trkpt lat="43.952475414079544" lon="11.21259355333671"><ele>390.5</ele><time>2026-04-10T14:25:56Z</time></trkpt><trkpt lat="43.95267838978944" lon="11.212392049719421"><ele>394.0</ele><time>2026-04-10T14:25:57Z</time></trkpt><trkpt lat="43.95287694007965" lon="11.21218939746944"><ele>399.5</ele><time>2026-04-10T14:25:58Z</time></trkpt><trkpt lat="43.95307525941653" lon="11.21198210161988"><ele>405.0</ele><time>2026-04-10T14:25:59Z</time></trkpt><trkpt lat="43.9532701384626" lon="11.211774023460555"><ele>392.0</ele><time>2026-04-10T14:26:00Z</time></trkpt><trkpt lat="43.95345747828265" lon="11.211568434841748"><ele>379.0</ele><time>2026-04-10T14:26:01Z</time></trkpt><trkpt lat="43.9536424452202" lon="11.211357637019798"><ele>374.5</ele><time>2026-04-10T14:26:02Z</time></trkpt><trkpt lat="43.95383061616835" lon="11.211135792636544"><ele>370.0</ele><time>2026-04-10T14:26:03Z</time></trkpt><trkpt lat="43.95401852176489" lon="11.210914864824725"><ele>357.5</ele><time>2026-04-10T14:26:04Z</time></trkpt><trkpt lat="43.95421175154258" lon="11.210687919525322"><ele>345.0</ele><time>2026-04-10T14:26:05Z</time></trkpt><trkpt lat="43.95442817616014" lon="11.210544043166607"><ele>345.0</ele><time>2026-04-10T14:26:06Z</time></trkpt><trkpt lat="43.95462668321279" lon="11.210353324060659"><ele>345.0</ele><time>2026-04-10T14:26:07Z</time></trkpt><trkpt lat="43.954823228244955" lon="11.210173755400394"><ele>345.0</ele><time>2026-04-10T14:26:08Z</time></trkpt><trkpt lat="43.95502701632326" lon="11.209986412054016"><ele>345.0</ele><time>2026-04-10T14:26:09Z</time></trkpt><trkpt lat="43.955232330889096" lon="11.209810852001134"><ele>344.0</ele><time>2026-04-10T14:26:10Z</time></trkpt><trkpt lat="43.97001655878843" lon="11.211560103138526"><ele>342.5</ele><time>2026-04-10T14:27:11Z</time></trkpt><trkpt lat="43.97028026363663" lon="11.21155368609213"><ele>341.0</ele><time>2026-04-10T14:27:12Z</time></trkpt><trkpt lat="43.970548488438475" lon="11.211551066659997"><ele>341.0</ele><time>2026-04-10T14:27:13Z</time></trkpt><trkpt lat="43.97081483310596" lon="11.21154888088486"><ele>341.0</ele><time>2026-04-10T14:27:14Z</time></trkpt><trkpt lat="43.971083371462335" lon="11.211544947453337"><ele>339.0</ele><time>2026-04-10T14:27:15Z</time></trkpt><trkpt lat="43.97135495443324" lon="11.211532129718766"><ele>337.0</ele><time>2026-04-10T14:27:16Z</time></trkpt><trkpt lat="43.97162840048872" lon="11.21152465664387"><ele>333.0</ele><time>2026-04-10T14:27:17Z</time></trkpt><trkpt lat="43.9718942622447" lon="11.211516208209597"><ele>329.0</ele><time>2026-04-10T14:27:18Z</time></trkpt><trkpt lat="43.97215984047424" lon="11.211511044068379"><ele>329.0</ele><time>2026-04-10T14:27:19Z</time></trkpt><trkpt lat="43.972427221279574" lon="11.211504191041"><ele>329.0</ele><time>2026-04-10T14:27:20Z</time></trkpt><trkpt lat="43.97269480290681" lon="11.21150108963958"><ele>323.5</ele><time>2026-04-10T14:27:21Z</time></trkpt><trkpt lat="43.97295480922438" lon="11.211493884873834"><ele>318.0</ele><time>2026-04-10T14:27:22Z</time></trkpt><trkpt lat="43.973219222242946" lon="11.211492768038799"><ele>326.0</ele><time>2026-04-10T14:27:23Z</time></trkpt><trkpt lat="43.97348795478219" lon="11.21148877272163"><ele>334.0</ele><time>2026-04-10T14:27:24Z</time></trkpt><trkpt lat="43.97375903630889" lon="11.21148303368799"><ele>334.0</ele><time>2026-04-10T14:27:25Z</time></trkpt><trkpt lat="43.97403265041247" lon="11.211468781526484"><ele>334.0</ele><time>2026-04-10T14:27:26Z</time></trkpt><trkpt lat="43.97430782763668" lon="11.211457382882415"><ele>319.5</ele><time>2026-04-10T14:27:27Z</time></trkpt><trkpt lat="43.97459040317874" lon="11.21144428854041"><ele>305.0</ele><time>2026-04-10T14:27:28Z</time></trkpt><trkpt lat="43.974877220682984" lon="11.211436051437387"><ele>297.5</ele><time>2026-04-10T14:27:29Z</time></trkpt><trkpt lat="43.97516769643614" lon="11.211431892926234"><ele>290.0</ele><time>2026-04-10T14:27:30Z</time></trkpt><trkpt lat="43.97545580684992" lon="11.211429572620046"><ele>290.0</ele><time>2026-04-10T14:27:31Z</time></trkpt><trkpt lat="43.97574368870647" lon="11.21142724667771"><ele>290.0</ele><time>2026-04-10T14:27:32Z</time></trkpt><trkpt lat="43.97602156282573" lon="11.211424257956859"><ele>300.0</ele><time>2026-04-10T14:27:33Z</time></trkpt><trkpt lat="43.9762980455918" lon="11.211419138255213"><ele>310.0</ele><time>2026-04-10T14:27:34Z</time></trkpt><trkpt lat="43.976566234831864" lon="11.211418397405343"><ele>315.5</ele><time>2026-04-10T14:27:35Z</time></trkpt><trkpt lat="43.976828251610826" lon="11.211417897038238"><ele>321.0</ele><time>2026-04-10T14:27:36Z</time></trkpt><trkpt lat="43.97711293752694" lon="11.211411206498552"><ele>321.0</ele><time>2026-04-10T14:27:37Z</time></trkpt><trkpt lat="43.977384971619806" lon="11.21140855971156"><ele>321.0</ele><time>2026-04-10T14:27:38Z</time></trkpt><trkpt lat="43.97765294023505" lon="11.211399513686384"><ele>319.0</ele><time>2026-04-10T14:27:39Z</time></trkpt><trkpt lat="43.977918716066476" lon="11.2113964244834"><ele>317.0</ele><time>2026-04-10T14:27:40Z</time></trkpt><trkpt lat="43.97819511988311" lon="11.21138404268181"><ele>315.5</ele><time>2026-04-10T14:27:41Z</time></trkpt><trkpt lat="43.97847385484512" lon="11.211380333876534"><ele>314.0</ele><time>2026-04-10T14:27:42Z</time></trkpt><trkpt lat="43.97874945594595" lon="11.211376236732116"><ele>314.0</ele><time>2026-04-10T14:27:43Z</time></trkpt><trkpt lat="43.97902617636286" lon="11.211380289341394"><ele>314.0</ele><time>2026-04-10T14:27:44Z</time></trkpt><trkpt lat="43.97930053920349" lon="11.211371326791902"><ele>313.5</ele><time>2026-04-10T14:27:45Z</time></trkpt><trkpt lat="43.97957760156224" lon="11.211355757926158"><ele>313.0</ele><time>2026-04-10T14:27:46Z</time></trkpt><trkpt lat="43.97985430899959" lon="11.21134700841089"><ele>307.0</ele><time>2026-04-10T14:27:47Z</time></trkpt><trkpt lat="43.98013048860193" lon="11.211345587107607"><ele>301.0</ele><time>2026-04-10T14:27:48Z</time></trkpt><trkpt lat="43.980409615006366" lon="11.21134110212813"><ele>301.0</ele><time>2026-04-10T14:27:49Z</time></trkpt><trkpt lat="43.9806850953291" lon="11.211330710050248"><ele>301.0</ele><time>2026-04-10T14:27:50Z</time></trkpt><trkpt lat="43.980961806153424" lon="11.211329993179366"><ele>293.5</ele><time>2026-04-10T14:27:51Z</time></trkpt><trkpt lat="43.98124477809608" lon="11.21132064681171"><ele>286.0</ele><time>2026-04-10T14:27:52Z</time></trkpt><trkpt lat="43.98152534768876" lon="11.211319527408378"><ele>289.5</ele><time>2026-04-10T14:27:53Z</time></trkpt><trkpt lat="43.981802898416674" lon="11.21131474682113"><ele>293.0</ele><time>2026-04-10T14:27:54Z</time></trkpt><trkpt lat="43.982084143512886" lon="11.211308594349703"><ele>293.0</ele><time>2026-04-10T14:27:55Z</time></trkpt><trkpt lat="43.982372367855184" lon="11.21131793070589"><ele>293.0</ele><time>2026-04-10T14:27:56Z</time></trkpt><trkpt lat="43.98265143766109" lon="11.211302809299307"><ele>293.0</ele><time>2026-04-10T14:27:57Z</time></trkpt><trkpt lat="43.982932656735905" lon="11.211293278946819"><ele>293.0</ele><time>2026-04-10T14:27:58Z</time></trkpt><trkpt lat="43.98321283876522" lon="11.21129031622624"><ele>291.5</ele><time>2026-04-10T14:27:59Z</time></trkpt><trkpt lat="43.98349480576671" lon="11.211282881345031"><ele>290.0</ele><time>2026-04-10T14:28:00Z</time></trkpt><trkpt lat="43.98377648125262" lon="11.211281228444621"><ele>290.0</ele><time>2026-04-10T14:28:01Z</time></trkpt><trkpt lat="43.98404166566702" lon="11.21128007805392"><ele>290.0</ele><time>2026-04-10T14:28:02Z</time></trkpt><trkpt lat="43.98431918463012" lon="11.211271334262877"><ele>288.0</ele><time>2026-04-10T14:28:03Z</time></trkpt><trkpt lat="43.984600339853436" lon="11.211266072554865"><ele>286.0</ele><time>2026-04-10T14:28:04Z</time></trkpt><trkpt lat="43.984871466174724" lon="11.211263506644451"><ele>284.5</ele><time>2026-04-10T14:28:05Z</time></trkpt><trkpt lat="43.985142268850154" lon="11.211270636091797"><ele>283.0</ele><time>2026-04-10T14:28:06Z</time></trkpt><trkpt lat="43.98540709508537" lon="11.211295692602256"><ele>283.0</ele><time>2026-04-10T14:28:07Z</time></trkpt><trkpt lat="43.98567164968866" lon="11.211330739402234"><ele>283.0</ele><time>2026-04-10T14:28:08Z</time></trkpt><trkpt lat="43.985933781864155" lon="11.211374128001989"><ele>281.0</ele><time>2026-04-10T14:28:09Z</time></trkpt><trkpt lat="43.986191380916814" lon="11.2114333880612"><ele>279.0</ele><time>2026-04-10T14:28:10Z</time></trkpt><trkpt lat="43.99792390225482" lon="11.219719496422883"><ele>301.0</ele><time>2026-04-10T14:29:11Z</time></trkpt><trkpt lat="43.99816637641678" lon="11.21960263466996"><ele>323.0</ele><time>2026-04-10T14:29:12Z</time></trkpt><trkpt lat="43.998408507765696" lon="11.219493121660696"><ele>325.0</ele><time>2026-04-10T14:29:13Z</time></trkpt><trkpt lat="43.998651174620704" lon="11.219384889506225"><ele>327.0</ele><time>2026-04-10T14:29:14Z</time></trkpt><trkpt lat="43.99889157678712" lon="11.219278347097433"><ele>327.0</ele><time>2026-04-10T14:29:15Z</time></trkpt><trkpt lat="43.999132032339986" lon="11.219176127183578"><ele>327.0</ele><time>2026-04-10T14:29:16Z</time></trkpt><trkpt lat="43.99936341960791" lon="11.219077187272712"><ele>329.0</ele><time>2026-04-10T14:29:17Z</time></trkpt><trkpt lat="43.9995833864356" lon="11.218972870838384"><ele>331.0</ele><time>2026-04-10T14:29:18Z</time></trkpt><trkpt lat="43.99980057817491" lon="11.218868103471063"><ele>331.0</ele><time>2026-04-10T14:29:19Z</time></trkpt><trkpt lat="44.00002199434475" lon="11.218768774274057"><ele>331.0</ele><time>2026-04-10T14:29:20Z</time></trkpt><trkpt lat="44.000245080937546" lon="11.218680161981721"><ele>331.0</ele><time>2026-04-10T14:29:21Z</time></trkpt><trkpt lat="44.000472895406524" lon="11.218608223724734"><ele>331.0</ele><time>2026-04-10T14:29:22Z</time></trkpt><trkpt lat="44.00070647204403" lon="11.218551926893884"><ele>334.5</ele><time>2026-04-10T14:29:23Z</time></trkpt><trkpt lat="44.00094076836635" lon="11.218513670604587"><ele>338.0</ele><time>2026-04-10T14:29:24Z</time></trkpt><trkpt lat="44.00117994063662" lon="11.218498867926776"><ele>338.0</ele><time>2026-04-10T14:29:25Z</time></trkpt><trkpt lat="44.001419928571096" lon="11.218503636372748"><ele>338.0</ele><time>2026-04-10T14:29:26Z</time></trkpt><trkpt lat="44.00166275187418" lon="11.218524507132294"><ele>341.5</ele><time>2026-04-10T14:29:27Z</time></trkpt><trkpt lat="44.00190620420573" lon="11.218562516719176"><ele>345.0</ele><time>2026-04-10T14:29:28Z</time></trkpt><trkpt lat="44.00214791498074" lon="11.218617863185573"><ele>345.0</ele><time>2026-04-10T14:29:29Z</time></trkpt><trkpt lat="44.00238565319394" lon="11.218688390196577"><ele>345.0</ele><time>2026-04-10T14:29:30Z</time></trkpt><trkpt lat="44.002621614526234" lon="11.218785333633255"><ele>342.0</ele><time>2026-04-10T14:29:31Z</time></trkpt><trkpt lat="44.00285603044782" lon="11.218894263898866"><ele>339.0</ele><time>2026-04-10T14:29:32Z</time></trkpt><trkpt lat="44.003088223513885" lon="11.21900930835005"><ele>334.5</ele><time>2026-04-10T14:29:33Z</time></trkpt><trkpt lat="44.00332087152549" lon="11.219118430887212"><ele>330.0</ele><time>2026-04-10T14:29:34Z</time></trkpt><trkpt lat="44.00355535052136" lon="11.219217279294867"><ele>330.0</ele><time>2026-04-10T14:29:35Z</time></trkpt><trkpt lat="44.00378515000804" lon="11.219309045866757"><ele>330.0</ele><time>2026-04-10T14:29:36Z</time></trkpt><trkpt lat="44.00400317395259" lon="11.21939824580608"><ele>334.3333333333333</ele><time>2026-04-10T14:29:37Z</time></trkpt><trkpt lat="44.00420668711882" lon="11.219469836864592"><ele>338.66666666666663</ele><time>2026-04-10T14:29:38Z</time></trkpt><trkpt lat="44.00441204075563" lon="11.219523319669289"><ele>343.0</ele><time>2026-04-10T14:29:39Z</time></trkpt><trkpt lat="44.00462371692901" lon="11.219558406337503"><ele>343.0</ele><time>2026-04-10T14:29:40Z</time></trkpt><trkpt lat="44.00484621575444" lon="11.219573298656483"><ele>343.0</ele><time>2026-04-10T14:29:41Z</time></trkpt><trkpt lat="44.00508657423504" lon="11.21957966625204"><ele>345.66666666666663</ele><time>2026-04-10T14:29:42Z</time></trkpt><trkpt lat="44.00529029112823" lon="11.21956071937442"><ele>348.3333333333333</ele><time>2026-04-10T14:29:43Z</time></trkpt><trkpt lat="44.00550343017141" lon="11.219527672739709"><ele>351.0</ele><time>2026-04-10T14:29:44Z</time></trkpt><trkpt lat="44.00571553510501" lon="11.2194718073852"><ele>346.5</ele><time>2026-04-10T14:29:45Z</time></trkpt><trkpt lat="44.005933470705116" lon="11.219394167067097"><ele>342.0</ele><time>2026-04-10T14:29:46Z</time></trkpt><trkpt lat="44.00615419291271" lon="11.219305307407978"><ele>342.0</ele><time>2026-04-10T14:29:47Z</time></trkpt><trkpt lat="44.00637650144506" lon="11.219202156646398"><ele>342.0</ele><time>2026-04-10T14:29:48Z</time></trkpt><trkpt lat="44.00659919430284" lon="11.219082661595555"><ele>348.0</ele><time>2026-04-10T14:29:49.001Z</time></trkpt><trkpt lat="44.00682211986894" lon="11.218960428820685"><ele>354.0</ele><time>2026-04-10T14:29:50.001Z</time></trkpt><trkpt lat="44.00704982456028" lon="11.218843072442"><ele>354.0</ele><time>2026-04-10T14:29:51.001Z</time></trkpt><trkpt lat="44.00727446996412" lon="11.218736670388369"><ele>354.0</ele><time>2026-04-10T14:29:52Z</time></trkpt><trkpt lat="44.007499716266395" lon="11.21865043614464"><ele>351.5</ele><time>2026-04-10T14:29:53Z</time></trkpt><trkpt lat="44.00772960763426" lon="11.218594590800713"><ele>349.0</ele><time>2026-04-10T14:29:54Z</time></trkpt><trkpt lat="44.007948352424705" lon="11.218570956069632"><ele>349.0</ele><time>2026-04-10T14:29:55Z</time></trkpt><trkpt lat="44.00816872522737" lon="11.21857387011145"><ele>349.0</ele><time>2026-04-10T14:29:56Z</time></trkpt><trkpt lat="44.00838983223655" lon="11.21859989211381"><ele>349.0</ele><time>2026-04-10T14:29:57Z</time></trkpt><trkpt lat="44.00861450344175" lon="11.218656498421337"><ele>349.5</ele><time>2026-04-10T14:29:58Z</time></trkpt><trkpt lat="44.00883670536351" lon="11.21874450650962"><ele>350.0</ele><time>2026-04-10T14:29:59Z</time></trkpt><trkpt lat="44.00906093021472" lon="11.21885287586353"><ele>354.0</ele><time>2026-04-10T14:30:00Z</time></trkpt><trkpt lat="44.00928376184328" lon="11.218972545133123"><ele>358.0</ele><time>2026-04-10T14:30:01Z</time></trkpt><trkpt lat="44.00950196713086" lon="11.21912196049674"><ele>346.5</ele><time>2026-04-10T14:30:02Z</time></trkpt><trkpt lat="44.009721639583944" lon="11.21927800585216"><ele>335.0</ele><time>2026-04-10T14:30:03Z</time></trkpt><trkpt lat="44.0099347504168" lon="11.219426422862568"><ele>329.0</ele><time>2026-04-10T14:30:04Z</time></trkpt><trkpt lat="44.01014160722886" lon="11.2195635041596"><ele>323.0</ele><time>2026-04-10T14:30:05Z</time></trkpt><trkpt lat="44.01035040857953" lon="11.219698661759347"><ele>319.5</ele><time>2026-04-10T14:30:06Z</time></trkpt><trkpt lat="44.01056310505711" lon="11.219838918578068"><ele>316.0</ele><time>2026-04-10T14:30:07Z</time></trkpt><trkpt lat="44.01077533626567" lon="11.219984048464612"><ele>324.5</ele><time>2026-04-10T14:30:08Z</time></trkpt><trkpt lat="44.01098871578626" lon="11.220127303539487"><ele>333.0</ele><time>2026-04-10T14:30:09Z</time></trkpt><trkpt lat="44.011202282854775" lon="11.220271165346745"><ele>412.0</ele><time>2026-04-10T14:30:10Z</time></trkpt><trkpt lat="44.0239713129998" lon="11.2219574218388"><ele>409.33333333333337</ele><time>2026-04-10T14:31:11Z</time></trkpt><trkpt lat="44.02416630522545" lon="11.221903273379226"><ele>406.66666666666663</ele><time>2026-04-10T14:31:12Z</time></trkpt><trkpt lat="44.024370650300405" lon="11.221868931148432"><ele>404.0</ele><time>2026-04-10T14:31:13Z</time></trkpt><trkpt lat="44.02458237496306" lon="11.221858196795466"><ele>404.0</ele><time>2026-04-10T14:31:14Z</time></trkpt><trkpt lat="44.02478640772808" lon="11.221863493496647"><ele>404.0</ele><time>2026-04-10T14:31:15Z</time></trkpt><trkpt lat="44.024988938627054" lon="11.22188343526045"><ele>404.0</ele><time>2026-04-10T14:31:16Z</time></trkpt><trkpt lat="44.02519558983627" lon="11.22191958422928"><ele>403.0</ele><time>2026-04-10T14:31:17Z</time></trkpt><trkpt lat="44.02540395835046" lon="11.221979565116914"><ele>402.0</ele><time>2026-04-10T14:31:18Z</time></trkpt><trkpt lat="44.02560975913422" lon="11.2220607805676"><ele>401.0</ele><time>2026-04-10T14:31:19Z</time></trkpt><trkpt lat="44.02581437605063" lon="11.222168292128579"><ele>401.0</ele><time>2026-04-10T14:31:20Z</time></trkpt><trkpt lat="44.02602018209889" lon="11.22229329424238"><ele>401.0</ele><time>2026-04-10T14:31:21Z</time></trkpt><trkpt lat="44.02622132208224" lon="11.222436844275938"><ele>392.5</ele><time>2026-04-10T14:31:22Z</time></trkpt><trkpt lat="44.02641413266134" lon="11.22259793880685"><ele>384.0</ele><time>2026-04-10T14:31:23Z</time></trkpt><trkpt lat="44.026599526501634" lon="11.222776614779852"><ele>384.5</ele><time>2026-04-10T14:31:24Z</time></trkpt><trkpt lat="44.0267817700814" lon="11.222967024128327"><ele>385.0</ele><time>2026-04-10T14:31:25Z</time></trkpt><trkpt lat="44.02696717203967" lon="11.223154306171628"><ele>377.0</ele><time>2026-04-10T14:31:26Z</time></trkpt><trkpt lat="44.027152186723086" lon="11.223338384008281"><ele>369.0</ele><time>2026-04-10T14:31:27Z</time></trkpt><trkpt lat="44.02733943636366" lon="11.2235271452252"><ele>362.0</ele><time>2026-04-10T14:31:28Z</time></trkpt><trkpt lat="44.027527842032214" lon="11.223710843082134"><ele>355.0</ele><time>2026-04-10T14:31:29Z</time></trkpt><trkpt lat="44.02772247313288" lon="11.22389787429243"><ele>348.0</ele><time>2026-04-10T14:31:30Z</time></trkpt><trkpt lat="44.027915812007734" lon="11.224086732071365"><ele>341.0</ele><time>2026-04-10T14:31:31Z</time></trkpt><trkpt lat="44.028108330548044" lon="11.224279369965942"><ele>341.0</ele><time>2026-04-10T14:31:32Z</time></trkpt><trkpt lat="44.028302673303884" lon="11.224469070646768"><ele>341.0</ele><time>2026-04-10T14:31:33Z</time></trkpt><trkpt lat="44.02849501058173" lon="11.224654716418392"><ele>355.33333333333337</ele><time>2026-04-10T14:31:34Z</time></trkpt><trkpt lat="44.02867947060083" lon="11.224835552800721"><ele>369.6666666666667</ele><time>2026-04-10T14:31:35Z</time></trkpt><trkpt lat="44.028854545704114" lon="11.225009366856588"><ele>384.0</ele><time>2026-04-10T14:31:36Z</time></trkpt><trkpt lat="44.02902545957095" lon="11.22516462743718"><ele>392.0</ele><time>2026-04-10T14:31:37Z</time></trkpt><trkpt lat="44.02919890972874" lon="11.225312217148344"><ele>400.0</ele><time>2026-04-10T14:31:38Z</time></trkpt><trkpt lat="44.02938306131515" lon="11.225449967858053"><ele>408.0</ele><time>2026-04-10T14:31:39Z</time></trkpt><trkpt lat="44.029573471383365" lon="11.225572596060477"><ele>408.66666666666663</ele><time>2026-04-10T14:31:40Z</time></trkpt><trkpt lat="44.029765005735214" lon="11.225695786152746"><ele>409.3333333333333</ele><time>2026-04-10T14:31:41Z</time></trkpt><trkpt lat="44.02996453751172" lon="11.225811885318532"><ele>410.0</ele><time>2026-04-10T14:31:42Z</time></trkpt><trkpt lat="44.0301733262588" lon="11.225917932661849"><ele>411.5</ele><time>2026-04-10T14:31:43Z</time></trkpt><trkpt lat="44.0303880419369" lon="11.226007113480854"><ele>413.0</ele><time>2026-04-10T14:31:44Z</time></trkpt><trkpt lat="44.03060830517194" lon="11.226083499542446"><ele>415.5</ele><time>2026-04-10T14:31:45Z</time></trkpt><trkpt lat="44.030831928489754" lon="11.226148531098763"><ele>418.0</ele><time>2026-04-10T14:31:46Z</time></trkpt><trkpt lat="44.03105761007499" lon="11.226202168993717"><ele>418.0</ele><time>2026-04-10T14:31:47Z</time></trkpt><trkpt lat="44.0312828953709" lon="11.226242728807556"><ele>418.0</ele><time>2026-04-10T14:31:48Z</time></trkpt><trkpt lat="44.03150927369343" lon="11.226269000179649"><ele>419.5</ele><time>2026-04-10T14:31:49Z</time></trkpt><trkpt lat="44.03173465376584" lon="11.226277926681627"><ele>421.0</ele><time>2026-04-10T14:31:50Z</time></trkpt><trkpt lat="44.03196619171663" lon="11.22628145282669"><ele>421.0</ele><time>2026-04-10T14:31:51Z</time></trkpt><trkpt lat="44.03219612933536" lon="11.226285303235658"><ele>421.0</ele><time>2026-04-10T14:31:52Z</time></trkpt><trkpt lat="44.03242862104242" lon="11.226293629493945"><ele>419.5</ele><time>2026-04-10T14:31:53Z</time></trkpt><trkpt lat="44.032664084094336" lon="11.226303013355041"><ele>418.0</ele><time>2026-04-10T14:31:54.001Z</time></trkpt><trkpt lat="44.03289909209828" lon="11.226312108214746"><ele>418.0</ele><time>2026-04-10T14:31:55.001Z</time></trkpt><trkpt lat="44.03313515032354" lon="11.226317494623142"><ele>418.0</ele><time>2026-04-10T14:31:56.001Z</time></trkpt><trkpt lat="44.03337238649521" lon="11.22632298813653"><ele>412.5</ele><time>2026-04-10T14:31:57.001Z</time></trkpt><trkpt lat="44.033606208601434" lon="11.226326981718417"><ele>407.0</ele><time>2026-04-10T14:31:57.999Z</time></trkpt><trkpt lat="44.033841770717885" lon="11.22633212402086"><ele>407.0</ele><time>2026-04-10T14:31:58.999Z</time></trkpt><trkpt lat="44.034080872510046" lon="11.226336330299388"><ele>407.0</ele><time>2026-04-10T14:31:59.999Z</time></trkpt><trkpt lat="44.034320462870326" lon="11.226343743803318"><ele>407.5</ele><time>2026-04-10T14:32:00.999Z</time></trkpt><trkpt lat="44.03456046415764" lon="11.226354361994055"><ele>408.0</ele><time>2026-04-10T14:32:01.999Z</time></trkpt><trkpt lat="44.03479926556907" lon="11.226367107347874"><ele>408.0</ele><time>2026-04-10T14:32:02.999Z</time></trkpt><trkpt lat="44.035037793414496" lon="11.226392084186857"><ele>408.0</ele><time>2026-04-10T14:32:03.999Z</time></trkpt><trkpt lat="44.03527679931047" lon="11.226427554464044"><ele>403.5</ele><time>2026-04-10T14:32:04.999Z</time></trkpt><trkpt lat="44.035515633943035" lon="11.226480115467561"><ele>399.0</ele><time>2026-04-10T14:32:05.999Z</time></trkpt><trkpt lat="44.03575259071622" lon="11.226544276439732"><ele>395.0</ele><time>2026-04-10T14:32:06.999Z</time></trkpt><trkpt lat="44.03598882676333" lon="11.226619200411466"><ele>391.0</ele><time>2026-04-10T14:32:07.999Z</time></trkpt><trkpt lat="44.03622876400078" lon="11.226704108173513"><ele>391.0</ele><time>2026-04-10T14:32:08.999Z</time></trkpt><trkpt lat="44.03647035939955" lon="11.226799138150561"><ele>391.0</ele><time>2026-04-10T14:32:09.999Z</time></trkpt><trkpt lat="44.0465261518267" lon="11.239221205387798"><ele>413.0</ele><time>2026-04-10T14:33:11.001Z</time></trkpt><trkpt lat="44.04671860905731" lon="11.239344397921245"><ele>435.0</ele><time>2026-04-10T14:33:12.001Z</time></trkpt><trkpt lat="44.0469165639117" lon="11.2394700396543"><ele>457.0</ele><time>2026-04-10T14:33:13.001Z</time></trkpt><trkpt lat="44.04712624951638" lon="11.239632659939646"><ele>457.0</ele><time>2026-04-10T14:33:14.001Z</time></trkpt><trkpt lat="44.04732733963165" lon="11.239756711858103"><ele>457.0</ele><time>2026-04-10T14:33:15.001Z</time></trkpt><trkpt lat="44.047521491530766" lon="11.239879572404051"><ele>457.0</ele><time>2026-04-10T14:33:16.001Z</time></trkpt><trkpt lat="44.04771874273553" lon="11.24000347090043"><ele>463.33333333333337</ele><time>2026-04-10T14:33:17.001Z</time></trkpt><trkpt lat="44.04791852054311" lon="11.240118404618126"><ele>469.66666666666663</ele><time>2026-04-10T14:33:18.001Z</time></trkpt><trkpt lat="44.04812182137423" lon="11.240230715513714"><ele>476.0</ele><time>2026-04-10T14:33:19.001Z</time></trkpt><trkpt lat="44.04831803923443" lon="11.240335569418026"><ele>476.0</ele><time>2026-04-10T14:33:20.001Z</time></trkpt><trkpt lat="44.04851107734039" lon="11.240438317617098"><ele>476.0</ele><time>2026-04-10T14:33:21.001Z</time></trkpt><trkpt lat="44.04869676759894" lon="11.240542550275977"><ele>476.0</ele><time>2026-04-10T14:33:22.001Z</time></trkpt><trkpt lat="44.04888782451116" lon="11.240652919665147"><ele>472.3333333333333</ele><time>2026-04-10T14:33:23.001Z</time></trkpt><trkpt lat="44.049077826380476" lon="11.24076069815211"><ele>468.66666666666663</ele><time>2026-04-10T14:33:24.001Z</time></trkpt><trkpt lat="44.049268966214505" lon="11.24086883387694"><ele>465.0</ele><time>2026-04-10T14:33:25.001Z</time></trkpt><trkpt lat="44.049458889233186" lon="11.240961312328176"><ele>452.5</ele><time>2026-04-10T14:33:26.001Z</time></trkpt><trkpt lat="44.049701482822506" lon="11.24108273396156"><ele>440.0</ele><time>2026-04-10T14:33:27.001Z</time></trkpt><trkpt lat="44.04990280965363" lon="11.241177463097143"><ele>439.0</ele><time>2026-04-10T14:33:28.001Z</time></trkpt><trkpt lat="44.05011718310875" lon="11.241279594196154"><ele>438.0</ele><time>2026-04-10T14:33:29.001Z</time></trkpt><trkpt lat="44.05032340877652" lon="11.241393806444771"><ele>437.0</ele><time>2026-04-10T14:33:30.001Z</time></trkpt><trkpt lat="44.05055026680861" lon="11.24150815811037"><ele>433.5</ele><time>2026-04-10T14:33:31.001Z</time></trkpt><trkpt lat="44.05080316472397" lon="11.241603979313721"><ele>430.0</ele><time>2026-04-10T14:33:32.001Z</time></trkpt><trkpt lat="44.05103554106831" lon="11.241715971007402"><ele>430.0</ele><time>2026-04-10T14:33:33.001Z</time></trkpt><trkpt lat="44.05127314751858" lon="11.241824736735158"><ele>430.0</ele><time>2026-04-10T14:33:34.001Z</time></trkpt><trkpt lat="44.05151044802691" lon="11.241930844453373"><ele>432.5</ele><time>2026-04-10T14:33:35.001Z</time></trkpt><trkpt lat="44.05174918882592" lon="11.242036304141825"><ele>435.0</ele><time>2026-04-10T14:33:36.001Z</time></trkpt><trkpt lat="44.051986355377444" lon="11.24213925051613"><ele>435.0</ele><time>2026-04-10T14:33:37.001Z</time></trkpt><trkpt lat="44.052224123939155" lon="11.242248607006296"><ele>435.0</ele><time>2026-04-10T14:33:38.001Z</time></trkpt><trkpt lat="44.05245982414764" lon="11.242355392296048"><ele>430.0</ele><time>2026-04-10T14:33:39.001Z</time></trkpt><trkpt lat="44.052694262500836" lon="11.24245749312758"><ele>425.0</ele><time>2026-04-10T14:33:40.001Z</time></trkpt><trkpt lat="44.05292761998656" lon="11.242561140161309"><ele>425.0</ele><time>2026-04-10T14:33:41.001Z</time></trkpt><trkpt lat="44.053160275077644" lon="11.242663872312004"><ele>425.0</ele><time>2026-04-10T14:33:42.001Z</time></trkpt><trkpt lat="44.05339335156104" lon="11.242762386140523"><ele>427.5</ele><time>2026-04-10T14:33:43.001Z</time></trkpt><trkpt lat="44.05362499983696" lon="11.24286231962158"><ele>430.0</ele><time>2026-04-10T14:33:44.001Z</time></trkpt><trkpt lat="44.053856056942465" lon="11.242961473450473"><ele>430.0</ele><time>2026-04-10T14:33:45.001Z</time></trkpt><trkpt lat="44.05408616172471" lon="11.243057336859868"><ele>430.0</ele><time>2026-04-10T14:33:46.001Z</time></trkpt><trkpt lat="44.05431567979514" lon="11.243154237232613"><ele>426.5</ele><time>2026-04-10T14:33:47.001Z</time></trkpt><trkpt lat="44.054544908363646" lon="11.243252932502907"><ele>423.0</ele><time>2026-04-10T14:33:48.001Z</time></trkpt><trkpt lat="44.054772569292126" lon="11.243352188014127"><ele>423.5</ele><time>2026-04-10T14:33:49.001Z</time></trkpt><trkpt lat="44.05499917414565" lon="11.243452828963468"><ele>424.0</ele><time>2026-04-10T14:33:50.001Z</time></trkpt><trkpt lat="44.05522500583465" lon="11.243552956048804"><ele>424.0</ele><time>2026-04-10T14:33:51.001Z</time></trkpt><trkpt lat="44.0554504239402" lon="11.24365156179891"><ele>424.0</ele><time>2026-04-10T14:33:52.001Z</time></trkpt><trkpt lat="44.05567676175545" lon="11.243747206525722"><ele>433.0</ele><time>2026-04-10T14:33:53.001Z</time></trkpt><trkpt lat="44.05590560919258" lon="11.243846159279908"><ele>442.0</ele><time>2026-04-10T14:33:54.001Z</time></trkpt><trkpt lat="44.05613510074041" lon="11.243947017136579"><ele>440.0</ele><time>2026-04-10T14:33:55.001Z</time></trkpt><trkpt lat="44.056364149350465" lon="11.244048062501317"><ele>438.0</ele><time>2026-04-10T14:33:56.001Z</time></trkpt><trkpt lat="44.056593094950784" lon="11.244150461090358"><ele>450.5</ele><time>2026-04-10T14:33:57.001Z</time></trkpt><trkpt lat="44.05682391943617" lon="11.24424973410069"><ele>463.0</ele><time>2026-04-10T14:33:58.001Z</time></trkpt><trkpt lat="44.05705400229997" lon="11.24434656008652"><ele>463.0</ele><time>2026-04-10T14:33:59.001Z</time></trkpt><trkpt lat="44.05728502354448" lon="11.244436984479837"><ele>463.0</ele><time>2026-04-10T14:34:00.001Z</time></trkpt><trkpt lat="44.05751499748091" lon="11.244521674187691"><ele>468.0</ele><time>2026-04-10T14:34:01.001Z</time></trkpt><trkpt lat="44.0577461091886" lon="11.244595887019422"><ele>473.0</ele><time>2026-04-10T14:34:02.001Z</time></trkpt><trkpt lat="44.057979500709585" lon="11.2446694300215"><ele>473.0</ele><time>2026-04-10T14:34:03.001Z</time></trkpt><trkpt lat="44.05822981583548" lon="11.24474970857704"><ele>473.0</ele><time>2026-04-10T14:34:04Z</time></trkpt><trkpt lat="44.058471133402115" lon="11.244812343744275"><ele>464.0</ele><time>2026-04-10T14:34:05Z</time></trkpt><trkpt lat="44.05871628578146" lon="11.244865612749505"><ele>455.0</ele><time>2026-04-10T14:34:06Z</time></trkpt><trkpt lat="44.05896165567623" lon="11.244916077864989"><ele>458.5</ele><time>2026-04-10T14:34:07Z</time></trkpt><trkpt lat="44.05920836429529" lon="11.24495786684254"><ele>462.0</ele><time>2026-04-10T14:34:08Z</time></trkpt><trkpt lat="44.059457905739436" lon="11.244992015839301"><ele>462.0</ele><time>2026-04-10T14:34:09.001Z</time></trkpt><trkpt lat="44.05970788697518" lon="11.24501622675356"><ele>462.0</ele><time>2026-04-10T14:34:10Z</time></trkpt><trkpt lat="44.07417738179657" lon="11.238193496772586"><ele>480.0</ele><time>2026-04-10T14:35:11.001Z</time></trkpt><trkpt lat="44.074404959435164" lon="11.238040126517648"><ele>498.0</ele><time>2026-04-10T14:35:12.001Z</time></trkpt><trkpt lat="44.074631689223665" lon="11.237883446735555"><ele>498.0</ele><time>2026-04-10T14:35:13.001Z</time></trkpt><trkpt lat="44.07485877169765" lon="11.237725138856463"><ele>498.0</ele><time>2026-04-10T14:35:14.001Z</time></trkpt><trkpt lat="44.075086834696066" lon="11.23756618255133"><ele>503.0</ele><time>2026-04-10T14:35:15.001Z</time></trkpt><trkpt lat="44.075314297170834" lon="11.237402122762646"><ele>508.0</ele><time>2026-04-10T14:35:16.001Z</time></trkpt><trkpt lat="44.07553995998371" lon="11.237234976373962"><ele>520.0</ele><time>2026-04-10T14:35:17.001Z</time></trkpt><trkpt lat="44.07583404855898" lon="11.23712366869114"><ele>532.0</ele><time>2026-04-10T14:35:18.001Z</time></trkpt><trkpt lat="44.07606267541353" lon="11.236978262203"><ele>532.0</ele><time>2026-04-10T14:35:19.001Z</time></trkpt><trkpt lat="44.0762970926475" lon="11.236839087754133"><ele>532.0</ele><time>2026-04-10T14:35:20.001Z</time></trkpt><trkpt lat="44.07653776749003" lon="11.236699731415149"><ele>539.5</ele><time>2026-04-10T14:35:21.001Z</time></trkpt><trkpt lat="44.076778492940655" lon="11.236550723359532"><ele>547.0</ele><time>2026-04-10T14:35:22.001Z</time></trkpt><trkpt lat="44.07701878688585" lon="11.236400494098387"><ele>547.0</ele><time>2026-04-10T14:35:23.001Z</time></trkpt><trkpt lat="44.07726348099706" lon="11.23625178248446"><ele>547.0</ele><time>2026-04-10T14:35:24.001Z</time></trkpt><trkpt lat="44.07750859511262" lon="11.236097704765374"><ele>552.0</ele><time>2026-04-10T14:35:25.001Z</time></trkpt><trkpt lat="44.077753484329065" lon="11.235941937674946"><ele>557.0</ele><time>2026-04-10T14:35:26.001Z</time></trkpt><trkpt lat="44.0779998280535" lon="11.235788495940456"><ele>564.0</ele><time>2026-04-10T14:35:27.001Z</time></trkpt><trkpt lat="44.07825157046412" lon="11.235636354799468"><ele>571.0</ele><time>2026-04-10T14:35:28.001Z</time></trkpt><trkpt lat="44.07851005245814" lon="11.235492438299232"><ele>571.0</ele><time>2026-04-10T14:35:29.001Z</time></trkpt><trkpt lat="44.078769916057944" lon="11.235342502269688"><ele>571.0</ele><time>2026-04-10T14:35:30.001Z</time></trkpt><trkpt lat="44.07902927526836" lon="11.23519835880392"><ele>574.5</ele><time>2026-04-10T14:35:31.001Z</time></trkpt><trkpt lat="44.07929486951577" lon="11.235046062759093"><ele>578.0</ele><time>2026-04-10T14:35:32.001Z</time></trkpt><trkpt lat="44.079566859342656" lon="11.234892380647617"><ele>585.0</ele><time>2026-04-10T14:35:33.001Z</time></trkpt><trkpt lat="44.07983393915394" lon="11.2347543837245"><ele>592.0</ele><time>2026-04-10T14:35:34.001Z</time></trkpt><trkpt lat="44.08008896765764" lon="11.234631545782083"><ele>599.5</ele><time>2026-04-10T14:35:35.001Z</time></trkpt><trkpt lat="44.08035801565877" lon="11.234470557753395"><ele>607.0</ele><time>2026-04-10T14:35:36.001Z</time></trkpt><trkpt lat="44.0806413396059" lon="11.234314477094006"><ele>625.0</ele><time>2026-04-10T14:35:37.001Z</time></trkpt><trkpt lat="44.08092656608107" lon="11.234161169428655"><ele>643.0</ele><time>2026-04-10T14:35:38.001Z</time></trkpt><trkpt lat="44.08119356127333" lon="11.234004124174332"><ele>636.5</ele><time>2026-04-10T14:35:39.001Z</time></trkpt><trkpt lat="44.081470067439874" lon="11.233850105726948"><ele>630.0</ele><time>2026-04-10T14:35:40.001Z</time></trkpt><trkpt lat="44.08172804867655" lon="11.23370135645273"><ele>644.5</ele><time>2026-04-10T14:35:41.001Z</time></trkpt><trkpt lat="44.081957780915616" lon="11.233562443261867"><ele>659.0</ele><time>2026-04-10T14:35:42.001Z</time></trkpt><trkpt lat="44.082222159608826" lon="11.233416772544386"><ele>668.0</ele><time>2026-04-10T14:35:43.001Z</time></trkpt><trkpt lat="44.08248289250562" lon="11.233269242560258"><ele>677.0</ele><time>2026-04-10T14:35:44.001Z</time></trkpt><trkpt lat="44.08274791996659" lon="11.233119945615874"><ele>738.0</ele><time>2026-04-10T14:35:45.015Z</time></trkpt><trkpt lat="44.084664910414624" lon="11.232209325638278"><ele>764.0</ele><time>2026-04-10T14:35:48.216Z</time></trkpt><trkpt lat="44.08558837735744" lon="11.231709407114819"><ele>771.0</ele><time>2026-04-10T14:35:49.218Z</time></trkpt><trkpt lat="44.08651321605778" lon="11.231210964685143"><ele>792.0</ele><time>2026-04-10T14:35:50.22Z</time></trkpt><trkpt lat="44.08743533169983" lon="11.23071173053764"><ele>787.0</ele><time>2026-04-10T14:35:51.22Z</time></trkpt><trkpt lat="44.08835857855309" lon="11.230215330663754"><ele>756.0</ele><time>2026-04-10T14:35:52.22Z</time></trkpt><trkpt lat="44.08927724913527" lon="11.229721652816115"><ele>732.0</ele><time>2026-04-10T14:35:53.215Z</time></trkpt><trkpt lat="44.09020086776092" lon="11.229225763751861"><ele>741.0</ele><time>2026-04-10T14:35:54.216Z</time></trkpt><trkpt lat="44.09112492494623" lon="11.228728953773071"><ele>739.0</ele><time>2026-04-10T14:35:55.217Z</time></trkpt><trkpt lat="44.0920497321909" lon="11.228232921050354"><ele>751.0</ele><time>2026-04-10T14:35:56.218Z</time></trkpt><trkpt lat="44.09297356047761" lon="11.227737210916398"><ele>735.0</ele><time>2026-04-10T14:35:57.219Z</time></trkpt><trkpt lat="44.093893635821836" lon="11.227241911191987"><ele>721.0</ele><time>2026-04-10T14:35:58.216Z</time></trkpt><trkpt lat="44.09481905416627" lon="11.226745138752968"><ele>730.0</ele><time>2026-04-10T14:35:59.218Z</time></trkpt><trkpt lat="44.095739721441184" lon="11.226247094212155"><ele>749.0</ele><time>2026-04-10T14:36:00.216Z</time></trkpt><trkpt lat="44.096660391463246" lon="11.225727418265498"><ele>700.0</ele><time>2026-04-10T14:36:01.22Z</time></trkpt><trkpt lat="44.09757275783109" lon="11.225194085187955"><ele>667.0</ele><time>2026-04-10T14:36:02.22Z</time></trkpt><trkpt lat="44.098476725160026" lon="11.224634378695722"><ele>684.0</ele><time>2026-04-10T14:36:03.22Z</time></trkpt><trkpt lat="44.09936886433516" lon="11.224050296195045"><ele>673.0</ele><time>2026-04-10T14:36:04.217Z</time></trkpt><trkpt lat="44.100257422114176" lon="11.223446185440048"><ele>647.0</ele><time>2026-04-10T14:36:05.216Z</time></trkpt><trkpt lat="44.101140728546405" lon="11.222816098541582"><ele>630.0</ele><time>2026-04-10T14:36:06.219Z</time></trkpt><trkpt lat="44.10200764958978" lon="11.22215925714855"><ele>639.0</ele><time>2026-04-10T14:36:07.217Z</time></trkpt><trkpt lat="44.1028712961956" lon="11.221487975384619"><ele>671.0</ele><time>2026-04-10T14:36:08.217Z</time></trkpt><trkpt lat="44.103725658354044" lon="11.220792131678106"><ele>675.0</ele><time>2026-04-10T14:36:09.218Z</time></trkpt><trkpt lat="44.104569020520444" lon="11.220078297228412"><ele>777.0</ele><time>2026-04-10T14:36:10.216Z</time></trkpt><trkpt lat="44.11319386445759" lon="11.21087567903959"><ele>737.0</ele><time>2026-04-10T14:36:21.22Z</time></trkpt><trkpt lat="44.113932047056444" lon="11.20996780333079"><ele>726.0</ele><time>2026-04-10T14:36:22.217Z</time></trkpt><trkpt lat="44.11467607746708" lon="11.209056476956718"><ele>723.0</ele><time>2026-04-10T14:36:23.219Z</time></trkpt><trkpt lat="44.11541770616768" lon="11.208143406315019"><ele>777.0</ele><time>2026-04-10T14:36:24.22Z</time></trkpt><trkpt lat="44.11616150073284" lon="11.207236573782447"><ele>845.0</ele><time>2026-04-10T14:36:25.22Z</time></trkpt><trkpt lat="44.11690379834498" lon="11.206327403927341"><ele>891.0</ele><time>2026-04-10T14:36:26.22Z</time></trkpt><trkpt lat="44.11763620052519" lon="11.205406380093704"><ele>917.0</ele><time>2026-04-10T14:36:27.219Z</time></trkpt><trkpt lat="44.1183831469837" lon="11.204501066930316"><ele>894.0</ele><time>2026-04-10T14:36:28.22Z</time></trkpt><trkpt lat="44.11913318534241" lon="11.20360613407229"><ele>879.0</ele><time>2026-04-10T14:36:29.219Z</time></trkpt><trkpt lat="44.1198779152438" lon="11.202700177018963"><ele>855.0</ele><time>2026-04-10T14:36:30.22Z</time></trkpt><trkpt lat="44.12062944552617" lon="11.201804219281154"><ele>816.0</ele><time>2026-04-10T14:36:31.22Z</time></trkpt><trkpt lat="44.12139382918735" lon="11.200935002719469"><ele>809.0</ele><time>2026-04-10T14:36:32.218Z</time></trkpt><trkpt lat="44.12216848190344" lon="11.20008308491327"><ele>837.0</ele><time>2026-04-10T14:36:33.217Z</time></trkpt><trkpt lat="44.122968233917064" lon="11.199265191078212"><ele>859.0</ele><time>2026-04-10T14:36:34.22Z</time></trkpt><trkpt lat="44.12378569792928" lon="11.198489958443494"><ele>873.0</ele><time>2026-04-10T14:36:35.22Z</time></trkpt><trkpt lat="44.124624775947645" lon="11.197761139532359"><ele>851.0</ele><time>2026-04-10T14:36:36.22Z</time></trkpt><trkpt lat="44.12548204172175" lon="11.197073771757873"><ele>825.0</ele><time>2026-04-10T14:36:37.22Z</time></trkpt><trkpt lat="44.1263543686732" lon="11.196428392618692"><ele>775.0</ele><time>2026-04-10T14:36:38.219Z</time></trkpt><trkpt lat="44.12724904338347" lon="11.195836683322927"><ele>773.0</ele><time>2026-04-10T14:36:39.22Z</time></trkpt><trkpt lat="44.12815584796028" lon="11.195285513518622"><ele>718.0</ele><time>2026-04-10T14:36:40.22Z</time></trkpt><trkpt lat="44.129070725194126" lon="11.194773731844654"><ele>695.0</ele><time>2026-04-10T14:36:41.217Z</time></trkpt><trkpt lat="44.13000481612251" lon="11.19430424972462"><ele>693.0</ele><time>2026-04-10T14:36:42.22Z</time></trkpt><trkpt lat="44.13094805124505" lon="11.193887026997503"><ele>692.0</ele><time>2026-04-10T14:36:43.22Z</time></trkpt><trkpt lat="44.13189742122303" lon="11.19351454154676"><ele>695.0</ele><time>2026-04-10T14:36:44.217Z</time></trkpt><trkpt lat="44.13286228828307" lon="11.193186889441984"><ele>703.0</ele><time>2026-04-10T14:36:45.22Z</time></trkpt><trkpt lat="44.13383193739441" lon="11.192910382786986"><ele>740.0</ele><time>2026-04-10T14:36:46.22Z</time></trkpt><trkpt lat="44.13480901949376" lon="11.192689861237666"><ele>771.0</ele><time>2026-04-10T14:36:47.22Z</time></trkpt><trkpt lat="44.13578929662481" lon="11.192510749536588"><ele>723.0</ele><time>2026-04-10T14:36:48.219Z</time></trkpt><trkpt lat="44.13677327043563" lon="11.192380135591762"><ele>671.0</ele><time>2026-04-10T14:36:49.218Z</time></trkpt><trkpt lat="44.137762538725156" lon="11.192291868868496"><ele>612.0</ele><time>2026-04-10T14:36:50.219Z</time></trkpt><trkpt lat="44.138751063296496" lon="11.192259043379217"><ele>582.0</ele><time>2026-04-10T14:36:51.218Z</time></trkpt><trkpt lat="44.13973997370745" lon="11.192267766153629"><ele>571.0</ele><time>2026-04-10T14:36:52.217Z</time></trkpt><trkpt lat="44.140731863796525" lon="11.192338334809339"><ele>550.0</ele><time>2026-04-10T14:36:53.221Z</time></trkpt><trkpt lat="44.141718245473484" lon="11.192447847121148"><ele>505.0</ele><time>2026-04-10T14:36:54.22Z</time></trkpt><trkpt lat="44.143683879231574" lon="11.192767163218754"><ele>560.0</ele><time>2026-04-10T14:36:56.219Z</time></trkpt><trkpt lat="44.14466230445178" lon="11.192938914921031"><ele>505.0</ele><time>2026-04-10T14:36:57.216Z</time></trkpt><trkpt lat="44.14323833504637" lon="11.192677657429844"><ele>505.0</ele><time>2026-04-10T14:40:45.003Z</time></trkpt><trkpt lat="44.14349850763832" lon="11.192712787167162"><ele>505.0</ele><time>2026-04-10T14:40:46.003Z</time></trkpt><trkpt lat="44.14373761565745" lon="11.192757887101113"><ele>505.0</ele><time>2026-04-10T14:40:47.003Z</time></trkpt><trkpt lat="44.143981724716085" lon="11.192803830117239"><ele>505.0</ele><time>2026-04-10T14:40:48.003Z</time></trkpt><trkpt lat="44.14423051441661" lon="11.192843359773224"><ele>532.5</ele><time>2026-04-10T14:40:49.003Z</time></trkpt><trkpt lat="44.14448149923729" lon="11.192878380204636"><ele>560.0</ele><time>2026-04-10T14:40:50.002Z</time></trkpt><trkpt lat="44.1447376094289" lon="11.192911618961274"><ele>553.5</ele><time>2026-04-10T14:40:51.002Z</time></trkpt><trkpt lat="44.14499234629347" lon="11.192947930613093"><ele>547.0</ele><time>2026-04-10T14:40:52.002Z</time></trkpt><trkpt lat="44.14527209472391" lon="11.192977703061608"><ele>547.0</ele><time>2026-04-10T14:40:53.066Z</time></trkpt><trkpt lat="44.145547035176186" lon="11.192988830236045"><ele>547.0</ele><time>2026-04-10T14:40:54.063Z</time></trkpt><trkpt lat="44.14596316250018" lon="11.193152859288771"><ele>508.5</ele><time>2026-04-10T14:40:56.001Z</time></trkpt><trkpt lat="44.14621422428621" lon="11.193193651288484"><ele>470.0</ele><time>2026-04-10T14:40:57.001Z</time></trkpt><trkpt lat="44.146458542718634" lon="11.193238505889658"><ele>466.0</ele><time>2026-04-10T14:40:58.001Z</time></trkpt><trkpt lat="44.14672601889524" lon="11.193263990969855"><ele>462.0</ele><time>2026-04-10T14:40:59.001Z</time></trkpt><trkpt lat="44.14695966960739" lon="11.19332083796998"><ele>462.0</ele><time>2026-04-10T14:41:00.001Z</time></trkpt><trkpt lat="44.14720101405814" lon="11.19337315917858"><ele>462.0</ele><time>2026-04-10T14:41:01.001Z</time></trkpt><trkpt lat="44.147451587346005" lon="11.193426264547265"><ele>460.0</ele><time>2026-04-10T14:41:02.001Z</time></trkpt><trkpt lat="44.14769783258858" lon="11.193478844780142"><ele>458.0</ele><time>2026-04-10T14:41:03.001Z</time></trkpt><trkpt lat="44.147946310682244" lon="11.193531292288514"><ele>458.0</ele><time>2026-04-10T14:41:04.001Z</time></trkpt><trkpt lat="44.14819546001861" lon="11.193587178779312"><ele>458.0</ele><time>2026-04-10T14:41:05.001Z</time></trkpt><trkpt lat="44.148446313736926" lon="11.19364270404067"><ele>457.5</ele><time>2026-04-10T14:41:06.001Z</time></trkpt><trkpt lat="44.14869511104977" lon="11.193696947931329"><ele>457.0</ele><time>2026-04-10T14:41:07.001Z</time></trkpt><trkpt lat="44.14894045013583" lon="11.193756126323217"><ele>457.0</ele><time>2026-04-10T14:41:08.001Z</time></trkpt><trkpt lat="44.14918555383612" lon="11.19381697551099"><ele>457.0</ele><time>2026-04-10T14:41:09.001Z</time></trkpt><trkpt lat="44.149431393066216" lon="11.19387948342523"><ele>424.0</ele><time>2026-04-10T14:41:10.001Z</time></trkpt><trkpt lat="44.16399948375509" lon="11.19727575531268"><ele>427.5</ele><time>2026-04-10T14:42:11.001Z</time></trkpt><trkpt lat="44.16423006525473" lon="11.197253797576424"><ele>431.0</ele><time>2026-04-10T14:42:12.001Z</time></trkpt><trkpt lat="44.16445945762617" lon="11.197225048412326"><ele>431.0</ele><time>2026-04-10T14:42:13.001Z</time></trkpt><trkpt lat="44.16468585726758" lon="11.197188868641481"><ele>431.0</ele><time>2026-04-10T14:42:14.001Z</time></trkpt><trkpt lat="44.164907864183384" lon="11.197148467707516"><ele>437.3333333333333</ele><time>2026-04-10T14:42:15.001Z</time></trkpt><trkpt lat="44.16512872193016" lon="11.197105272727331"><ele>443.66666666666663</ele><time>2026-04-10T14:42:16.001Z</time></trkpt><trkpt lat="44.165349337185376" lon="11.197057776177914"><ele>450.0</ele><time>2026-04-10T14:42:17.001Z</time></trkpt><trkpt lat="44.16556966256775" lon="11.19700676551748"><ele>450.0</ele><time>2026-04-10T14:42:18.001Z</time></trkpt><trkpt lat="44.16579124308354" lon="11.196950598734945"><ele>450.0</ele><time>2026-04-10T14:42:19.001Z</time></trkpt><trkpt lat="44.16601651155047" lon="11.19688865595526"><ele>450.0</ele><time>2026-04-10T14:42:20.001Z</time></trkpt><trkpt lat="44.16624251956911" lon="11.196819751629116"><ele>450.0</ele><time>2026-04-10T14:42:21.001Z</time></trkpt><trkpt lat="44.16647010811586" lon="11.196742795155226"><ele>449.0</ele><time>2026-04-10T14:42:22.001Z</time></trkpt><trkpt lat="44.16670220562871" lon="11.196660770905849"><ele>448.0</ele><time>2026-04-10T14:42:23.001Z</time></trkpt><trkpt lat="44.16693706984407" lon="11.196574142215177"><ele>450.0</ele><time>2026-04-10T14:42:24.001Z</time></trkpt><trkpt lat="44.16717242151411" lon="11.196477907646752"><ele>452.0</ele><time>2026-04-10T14:42:25.001Z</time></trkpt><trkpt lat="44.16740653248853" lon="11.196383641411597"><ele>458.5</ele><time>2026-04-10T14:42:26.001Z</time></trkpt><trkpt lat="44.167630555675856" lon="11.196290734723336"><ele>465.0</ele><time>2026-04-10T14:42:27.001Z</time></trkpt><trkpt lat="44.16784594110298" lon="11.196196798944067"><ele>465.0</ele><time>2026-04-10T14:42:28.001Z</time></trkpt><trkpt lat="44.16804638537917" lon="11.196096248318009"><ele>465.0</ele><time>2026-04-10T14:42:29.001Z</time></trkpt><trkpt lat="44.16825680501273" lon="11.195999545215628"><ele>465.0</ele><time>2026-04-10T14:42:30.001Z</time></trkpt><trkpt lat="44.168458542971024" lon="11.195896701848367"><ele>467.66666666666663</ele><time>2026-04-10T14:42:31.001Z</time></trkpt><trkpt lat="44.16867073061168" lon="11.19579822144614"><ele>470.3333333333333</ele><time>2026-04-10T14:42:32.001Z</time></trkpt><trkpt lat="44.168883023519925" lon="11.195697240641017"><ele>473.0</ele><time>2026-04-10T14:42:33.001Z</time></trkpt><trkpt lat="44.16909513631342" lon="11.19559711366098"><ele>483.0</ele><time>2026-04-10T14:42:34.001Z</time></trkpt><trkpt lat="44.16943882408258" lon="11.195406155118507"><ele>493.0</ele><time>2026-04-10T14:42:35.001Z</time></trkpt><trkpt lat="44.16966919869368" lon="11.195274814318443"><ele>493.0</ele><time>2026-04-10T14:42:36.001Z</time></trkpt><trkpt lat="44.16990609348305" lon="11.195155294458095"><ele>493.0</ele><time>2026-04-10T14:42:37.001Z</time></trkpt><trkpt lat="44.17014941333589" lon="11.195043731318075"><ele>493.0</ele><time>2026-04-10T14:42:38.001Z</time></trkpt><trkpt lat="44.17039217713274" lon="11.194925416798082"><ele>493.0</ele><time>2026-04-10T14:42:39.001Z</time></trkpt><trkpt lat="44.17064134599876" lon="11.19481681192318"><ele>503.5</ele><time>2026-04-10T14:42:40.001Z</time></trkpt><trkpt lat="44.17090197307932" lon="11.194708924368873"><ele>514.0</ele><time>2026-04-10T14:42:41.001Z</time></trkpt><trkpt lat="44.17116372258102" lon="11.194608404093707"><ele>514.0</ele><time>2026-04-10T14:42:42.001Z</time></trkpt><trkpt lat="44.171426249171795" lon="11.194500828936377"><ele>514.0</ele><time>2026-04-10T14:42:43.001Z</time></trkpt><trkpt lat="44.1716814117072" lon="11.194427179409521"><ele>518.0</ele><time>2026-04-10T14:42:44.001Z</time></trkpt><trkpt lat="44.17194469588297" lon="11.194352414664246"><ele>522.0</ele><time>2026-04-10T14:42:45.001Z</time></trkpt><trkpt lat="44.172224117085904" lon="11.194266782430832"><ele>525.0</ele><time>2026-04-10T14:42:46.001Z</time></trkpt><trkpt lat="44.17250407434484" lon="11.19419951619363"><ele>528.0</ele><time>2026-04-10T14:42:47.001Z</time></trkpt><trkpt lat="44.17280335348442" lon="11.194121522006665"><ele>528.0</ele><time>2026-04-10T14:42:48.001Z</time></trkpt><trkpt lat="44.173127585132605" lon="11.194049390717336"><ele>528.0</ele><time>2026-04-10T14:42:49.001Z</time></trkpt><trkpt lat="44.17344179503692" lon="11.19400105254188"><ele>539.0</ele><time>2026-04-10T14:42:50.001Z</time></trkpt><trkpt lat="44.17376518520088" lon="11.193936111117983"><ele>550.0</ele><time>2026-04-10T14:42:51.001Z</time></trkpt><trkpt lat="44.174091270395984" lon="11.19389692915391"><ele>552.0</ele><time>2026-04-10T14:42:52.001Z</time></trkpt><trkpt lat="44.174424723554814" lon="11.193909800692833"><ele>554.0</ele><time>2026-04-10T14:42:53.001Z</time></trkpt><trkpt lat="44.17475083460221" lon="11.193917305492354"><ele>549.0</ele><time>2026-04-10T14:42:54.001Z</time></trkpt><trkpt lat="44.175081955641176" lon="11.193935270665238"><ele>544.0</ele><time>2026-04-10T14:42:55.001Z</time></trkpt><trkpt lat="44.175397566017196" lon="11.193962892216968"><ele>538.0</ele><time>2026-04-10T14:42:56Z</time></trkpt><trkpt lat="44.17573357338929" lon="11.194005882579898"><ele>532.0</ele><time>2026-04-10T14:42:57Z</time></trkpt><trkpt lat="44.17605478205527" lon="11.194059978417773"><ele>532.0</ele><time>2026-04-10T14:42:58Z</time></trkpt><trkpt lat="44.176377756142436" lon="11.194124263124841"><ele>532.0</ele><time>2026-04-10T14:42:59Z</time></trkpt><trkpt lat="44.17667955994305" lon="11.194196032944564"><ele>528.0</ele><time>2026-04-10T14:43:00Z</time></trkpt><trkpt lat="44.176951564166835" lon="11.194268226108248"><ele>524.0</ele><time>2026-04-10T14:43:01Z</time></trkpt><trkpt lat="44.17720696910073" lon="11.194346155003126"><ele>511.0</ele><time>2026-04-10T14:43:02.018Z</time></trkpt><trkpt lat="44.17913835748274" lon="11.195240492851507"><ele>513.0</ele><time>2026-04-10T14:43:05.222Z</time></trkpt><trkpt lat="44.18006831836748" lon="11.195699202565006"><ele>512.0</ele><time>2026-04-10T14:43:06.219Z</time></trkpt><trkpt lat="44.18099919895082" lon="11.196170891735335"><ele>498.0</ele><time>2026-04-10T14:43:07.22Z</time></trkpt><trkpt lat="44.18192718051973" lon="11.196644433631652"><ele>501.0</ele><time>2026-04-10T14:43:08.218Z</time></trkpt><trkpt lat="44.18286021238323" lon="11.197119339431438"><ele>493.0</ele><time>2026-04-10T14:43:09.222Z</time></trkpt><trkpt lat="44.18378970147533" lon="11.19759262973302"><ele>389.0</ele><time>2026-04-10T14:43:10.222Z</time></trkpt><trkpt lat="44.189213412660564" lon="11.199814048546553"><ele>381.5</ele><time>2026-04-10T14:43:53.001Z</time></trkpt><trkpt lat="44.189419233075526" lon="11.199853800362732"><ele>374.0</ele><time>2026-04-10T14:43:54.001Z</time></trkpt><trkpt lat="44.189746424884596" lon="11.19993382099896"><ele>371.5</ele><time>2026-04-10T14:43:55.001Z</time></trkpt><trkpt lat="44.18999440304077" lon="11.199984249688331"><ele>369.0</ele><time>2026-04-10T14:43:56.001Z</time></trkpt><trkpt lat="44.190239079397536" lon="11.200045815042145"><ele>369.0</ele><time>2026-04-10T14:43:57.001Z</time></trkpt><trkpt lat="44.190486010972144" lon="11.200091384094646"><ele>369.0</ele><time>2026-04-10T14:43:58.001Z</time></trkpt><trkpt lat="44.19073923673221" lon="11.200139572367856"><ele>366.5</ele><time>2026-04-10T14:43:59.001Z</time></trkpt><trkpt lat="44.19099380564019" lon="11.20017973597878"><ele>364.0</ele><time>2026-04-10T14:44:00.001Z</time></trkpt><trkpt lat="44.19124701005729" lon="11.200216990148162"><ele>364.0</ele><time>2026-04-10T14:44:01.001Z</time></trkpt><trkpt lat="44.19150282428043" lon="11.200245605236846"><ele>364.0</ele><time>2026-04-10T14:44:02.001Z</time></trkpt><trkpt lat="44.19174886606873" lon="11.20028122220734"><ele>363.5</ele><time>2026-04-10T14:44:03.001Z</time></trkpt><trkpt lat="44.191999045874184" lon="11.200307842803532"><ele>363.0</ele><time>2026-04-10T14:44:04.001Z</time></trkpt><trkpt lat="44.192249254572225" lon="11.20033700994351"><ele>362.5</ele><time>2026-04-10T14:44:05.001Z</time></trkpt><trkpt lat="44.19249637951019" lon="11.200365694858295"><ele>362.0</ele><time>2026-04-10T14:44:06.001Z</time></trkpt><trkpt lat="44.1927462095917" lon="11.200387900797967"><ele>362.0</ele><time>2026-04-10T14:44:07.001Z</time></trkpt><trkpt lat="44.19299573183541" lon="11.20040665745908"><ele>362.0</ele><time>2026-04-10T14:44:08.001Z</time></trkpt><trkpt lat="44.19324189379838" lon="11.20042542124045"><ele>361.0</ele><time>2026-04-10T14:44:09.001Z</time></trkpt><trkpt lat="44.19348621075238" lon="11.200439421238706"><ele>360.0</ele><time>2026-04-10T14:44:10.001Z</time></trkpt><trkpt lat="44.22848042549548" lon="11.184201646977561"><ele>321.5</ele><time>2026-04-10T14:46:35.001Z</time></trkpt><trkpt lat="44.2287465312191" lon="11.184136658216918"><ele>283.0</ele><time>2026-04-10T14:46:36.001Z</time></trkpt><trkpt lat="44.229050186426214" lon="11.184182271250583"><ele>282.66666666666663</ele><time>2026-04-10T14:46:37.001Z</time></trkpt><trkpt lat="44.2292264086065" lon="11.18409175436971"><ele>282.3333333333333</ele><time>2026-04-10T14:46:38.001Z</time></trkpt><trkpt lat="44.22936223479453" lon="11.184086209094723"><ele>282.0</ele><time>2026-04-10T14:46:39.001Z</time></trkpt><trkpt lat="44.229565503673726" lon="11.184033042888847"><ele>281.3333333333333</ele><time>2026-04-10T14:46:40.001Z</time></trkpt><trkpt lat="44.229730326337716" lon="11.184007874792806"><ele>280.66666666666663</ele><time>2026-04-10T14:46:41Z</time></trkpt><trkpt lat="44.229885208483445" lon="11.183966702347831"><ele>280.0</ele><time>2026-04-10T14:46:42Z</time></trkpt><trkpt lat="44.23005603697117" lon="11.183930378856568"><ele>280.0</ele><time>2026-04-10T14:46:43Z</time></trkpt><trkpt lat="44.23018078071249" lon="11.18388795048269"><ele>280.0</ele><time>2026-04-10T14:46:44Z</time></trkpt><trkpt lat="44.23031496532528" lon="11.183878468839492"><ele>280.0</ele><time>2026-04-10T14:46:45Z</time></trkpt><trkpt lat="44.2304718249199" lon="11.183852773002796"><ele>280.0</ele><time>2026-04-10T14:46:46Z</time></trkpt><trkpt lat="44.23063022759497" lon="11.183835224749448"><ele>280.0</ele><time>2026-04-10T14:46:47Z</time></trkpt><trkpt lat="44.23078876765259" lon="11.183819582638362"><ele>280.0</ele><time>2026-04-10T14:46:48Z</time></trkpt><trkpt lat="44.23093005055449" lon="11.18384406491297"><ele>280.0</ele><time>2026-04-10T14:46:49Z</time></trkpt><trkpt lat="44.23108101429368" lon="11.183873845729277"><ele>280.0</ele><time>2026-04-10T14:46:50Z</time></trkpt><trkpt lat="44.23124729895552" lon="11.183897560600009"><ele>280.0</ele><time>2026-04-10T14:46:51Z</time></trkpt><trkpt lat="44.23140827958567" lon="11.183927028789011"><ele>280.0</ele><time>2026-04-10T14:46:52Z</time></trkpt><trkpt lat="44.23155598799666" lon="11.183954827390897"><ele>279.0</ele><time>2026-04-10T14:46:53Z</time></trkpt><trkpt lat="44.23170143856427" lon="11.183979577352474"><ele>278.0</ele><time>2026-04-10T14:46:54Z</time></trkpt><trkpt lat="44.2319209238497" lon="11.184020069209877"><ele>277.0</ele><time>2026-04-10T14:46:55Z</time></trkpt><trkpt lat="44.23214725801873" lon="11.184066641765279"><ele>276.5</ele><time>2026-04-10T14:46:56Z</time></trkpt><trkpt lat="44.23238100399722" lon="11.184124610615976"><ele>276.0</ele><time>2026-04-10T14:46:57Z</time></trkpt><trkpt lat="44.23337627045369" lon="11.184296953683054"><ele>276.0</ele><time>2026-04-10T14:46:58Z</time></trkpt><trkpt lat="44.233543068434315" lon="11.184349302912059"><ele>276.0</ele><time>2026-04-10T14:46:59Z</time></trkpt><trkpt lat="44.23372739946011" lon="11.18441105182973"><ele>276.0</ele><time>2026-04-10T14:47:00Z</time></trkpt><trkpt lat="44.23390877040975" lon="11.184472553147282"><ele>275.0</ele><time>2026-04-10T14:47:01Z</time></trkpt><trkpt lat="44.23411614053413" lon="11.184546718315687"><ele>274.0</ele><time>2026-04-10T14:47:02Z</time></trkpt><trkpt lat="44.23431572722767" lon="11.184618446269782"><ele>273.0</ele><time>2026-04-10T14:47:03Z</time></trkpt><trkpt lat="44.234484634148096" lon="11.184679858754322"><ele>273.0</ele><time>2026-04-10T14:47:04Z</time></trkpt><trkpt lat="44.23464230341082" lon="11.184737185321932"><ele>273.0</ele><time>2026-04-10T14:47:05Z</time></trkpt><trkpt lat="44.234829134617584" lon="11.184809249775384"><ele>273.0</ele><time>2026-04-10T14:47:06Z</time></trkpt><trkpt lat="44.23499740514729" lon="11.18486824902579"><ele>275.3333333333333</ele><time>2026-04-10T14:47:07Z</time></trkpt><trkpt lat="44.235155011624734" lon="11.184959653496366"><ele>277.66666666666663</ele><time>2026-04-10T14:47:08Z</time></trkpt><trkpt lat="44.23535646355563" lon="11.185109032316115"><ele>280.0</ele><time>2026-04-10T14:47:09Z</time></trkpt><trkpt lat="44.23554599372111" lon="11.185221100510942"><ele>270.0</ele><time>2026-04-10T14:47:10Z</time></trkpt><trkpt lat="44.25856958757823" lon="11.19008192229231"><ele>243.0</ele><time>2026-04-10T14:47:57.219Z</time></trkpt><trkpt lat="44.25930378491605" lon="11.189675185521077"><ele>243.0</ele><time>2026-04-10T14:48:52.001Z</time></trkpt><trkpt lat="44.25953802543174" lon="11.189516412138309"><ele>243.0</ele><time>2026-04-10T14:48:53.001Z</time></trkpt><trkpt lat="44.25976873873152" lon="11.18930608663302"><ele>241.5</ele><time>2026-04-10T14:48:54.001Z</time></trkpt><trkpt lat="44.26001821940864" lon="11.189145269454778"><ele>240.0</ele><time>2026-04-10T14:48:55.001Z</time></trkpt><trkpt lat="44.260263739280404" lon="11.189005607762711"><ele>239.0</ele><time>2026-04-10T14:48:56.001Z</time></trkpt><trkpt lat="44.26049620246515" lon="11.188855961589871"><ele>238.0</ele><time>2026-04-10T14:48:57.001Z</time></trkpt><trkpt lat="44.26072757098089" lon="11.188715624097224"><ele>238.0</ele><time>2026-04-10T14:48:58Z</time></trkpt><trkpt lat="44.26095144842743" lon="11.188585662758655"><ele>238.0</ele><time>2026-04-10T14:48:59Z</time></trkpt><trkpt lat="44.26117916000105" lon="11.18845932802964"><ele>238.0</ele><time>2026-04-10T14:49:00Z</time></trkpt><trkpt lat="44.26140907292142" lon="11.188331691173936"><ele>238.0</ele><time>2026-04-10T14:49:01Z</time></trkpt><trkpt lat="44.26163984709966" lon="11.188208498008471"><ele>237.5</ele><time>2026-04-10T14:49:02Z</time></trkpt><trkpt lat="44.26187429381096" lon="11.188095436703161"><ele>237.0</ele><time>2026-04-10T14:49:03Z</time></trkpt><trkpt lat="44.262108803483535" lon="11.18798320662368"><ele>235.5</ele><time>2026-04-10T14:49:04Z</time></trkpt><trkpt lat="44.26234949465001" lon="11.187881555146783"><ele>234.0</ele><time>2026-04-10T14:49:05Z</time></trkpt><trkpt lat="44.26259120964765" lon="11.187780846481463"><ele>234.0</ele><time>2026-04-10T14:49:06Z</time></trkpt><trkpt lat="44.262838555162055" lon="11.187688187075402"><ele>234.0</ele><time>2026-04-10T14:49:07Z</time></trkpt><trkpt lat="44.26308734628595" lon="11.187608328141511"><ele>233.5</ele><time>2026-04-10T14:49:08Z</time></trkpt><trkpt lat="44.26333801752887" lon="11.187527778641591"><ele>233.0</ele><time>2026-04-10T14:49:09Z</time></trkpt><trkpt lat="44.263592497673976" lon="11.187463261776255"><ele>238.0</ele><time>2026-04-10T14:49:10Z</time></trkpt><trkpt lat="44.276960773622825" lon="11.195884364473686"><ele>238.0</ele><time>2026-04-10T14:50:11Z</time></trkpt><trkpt lat="44.27720656552572" lon="11.19598790107203"><ele>238.0</ele><time>2026-04-10T14:50:12Z</time></trkpt><trkpt lat="44.27744793748777" lon="11.196092605183132"><ele>239.0</ele><time>2026-04-10T14:50:13Z</time></trkpt><trkpt lat="44.27768713882545" lon="11.196201670107559"><ele>240.0</ele><time>2026-04-10T14:50:14Z</time></trkpt><trkpt lat="44.27792499529215" lon="11.196311825137382"><ele>240.5</ele><time>2026-04-10T14:50:15Z</time></trkpt><trkpt lat="44.27816452705555" lon="11.196414896453751"><ele>241.0</ele><time>2026-04-10T14:50:16Z</time></trkpt><trkpt lat="44.27840612857346" lon="11.196521935397476"><ele>234.0</ele><time>2026-04-10T14:50:17Z</time></trkpt><trkpt lat="44.27865067261703" lon="11.196628636806507"><ele>227.0</ele><time>2026-04-10T14:50:18Z</time></trkpt><trkpt lat="44.27889353830961" lon="11.196736065008574"><ele>230.5</ele><time>2026-04-10T14:50:19Z</time></trkpt><trkpt lat="44.27913687633096" lon="11.196846257962001"><ele>234.0</ele><time>2026-04-10T14:50:20Z</time></trkpt><trkpt lat="44.27938154035411" lon="11.19696233298837"><ele>234.0</ele><time>2026-04-10T14:50:21Z</time></trkpt><trkpt lat="44.27962782076232" lon="11.197086083327875"><ele>234.0</ele><time>2026-04-10T14:50:22Z</time></trkpt><trkpt lat="44.279868626251336" lon="11.197213752925288"><ele>230.0</ele><time>2026-04-10T14:50:23Z</time></trkpt><trkpt lat="44.280110779228025" lon="11.197350007322305"><ele>226.0</ele><time>2026-04-10T14:50:24Z</time></trkpt><trkpt lat="44.280349950761305" lon="11.197490944373834"><ele>226.0</ele><time>2026-04-10T14:50:25Z</time></trkpt><trkpt lat="44.280583671629685" lon="11.197636781071528"><ele>226.0</ele><time>2026-04-10T14:50:26Z</time></trkpt><trkpt lat="44.28081678216643" lon="11.197793273053932"><ele>229.5</ele><time>2026-04-10T14:50:27Z</time></trkpt><trkpt lat="44.2810354579018" lon="11.197954268901436"><ele>233.0</ele><time>2026-04-10T14:50:28Z</time></trkpt><trkpt lat="44.28124626375028" lon="11.198123225532017"><ele>235.0</ele><time>2026-04-10T14:50:29Z</time></trkpt><trkpt lat="44.28145108912261" lon="11.19830381598675"><ele>237.0</ele><time>2026-04-10T14:50:30Z</time></trkpt><trkpt lat="44.28165338179767" lon="11.198487225637031"><ele>237.0</ele><time>2026-04-10T14:50:31Z</time></trkpt><trkpt lat="44.28185473602829" lon="11.19867797299369"><ele>237.0</ele><time>2026-04-10T14:50:32Z</time></trkpt><trkpt lat="44.28205962798043" lon="11.19888185810022"><ele>235.0</ele><time>2026-04-10T14:50:33Z</time></trkpt><trkpt lat="44.28226340310844" lon="11.199089960917155"><ele>233.0</ele><time>2026-04-10T14:50:34Z</time></trkpt><trkpt lat="44.28247072754994" lon="11.199277978843407"><ele>233.0</ele><time>2026-04-10T14:50:35Z</time></trkpt><trkpt lat="44.28268142694977" lon="11.19950264593999"><ele>233.0</ele><time>2026-04-10T14:50:36Z</time></trkpt><trkpt lat="44.28288487553739" lon="11.199725757027567"><ele>230.0</ele><time>2026-04-10T14:50:37Z</time></trkpt><trkpt lat="44.28308619690264" lon="11.199953501024375"><ele>227.0</ele><time>2026-04-10T14:50:38Z</time></trkpt><trkpt lat="44.28329521533572" lon="11.200184556143713"><ele>237.0</ele><time>2026-04-10T14:50:39Z</time></trkpt><trkpt lat="44.283494256836235" lon="11.200404903381578"><ele>247.0</ele><time>2026-04-10T14:50:40Z</time></trkpt><trkpt lat="44.28369416827492" lon="11.200626806134002"><ele>246.0</ele><time>2026-04-10T14:50:41Z</time></trkpt><trkpt lat="44.28389568370844" lon="11.200849660266192"><ele>245.0</ele><time>2026-04-10T14:50:42Z</time></trkpt><trkpt lat="44.28409689829071" lon="11.201069939818451"><ele>245.0</ele><time>2026-04-10T14:50:43Z</time></trkpt><trkpt lat="44.28429567455175" lon="11.201295287590005"><ele>245.0</ele><time>2026-04-10T14:50:44Z</time></trkpt><trkpt lat="44.28449455638578" lon="11.201513777956855"><ele>241.0</ele><time>2026-04-10T14:50:45Z</time></trkpt><trkpt lat="44.28468934142949" lon="11.201748124353303"><ele>237.0</ele><time>2026-04-10T14:50:46Z</time></trkpt><trkpt lat="44.28488867138094" lon="11.201973299502086"><ele>237.0</ele><time>2026-04-10T14:50:47Z</time></trkpt><trkpt lat="44.28498101428045" lon="11.202182144102947"><ele>237.0</ele><time>2026-04-10T14:50:48Z</time></trkpt><trkpt lat="44.28515792437668" lon="11.20240525061806"><ele>237.0</ele><time>2026-04-10T14:50:49Z</time></trkpt><trkpt lat="44.285355217210494" lon="11.202608604646862"><ele>235.0</ele><time>2026-04-10T14:50:50Z</time></trkpt><trkpt lat="44.28555366017279" lon="11.20284473750394"><ele>233.0</ele><time>2026-04-10T14:50:51Z</time></trkpt><trkpt lat="44.28575776054836" lon="11.203035785456304"><ele>226.0</ele><time>2026-04-10T14:50:52Z</time></trkpt><trkpt lat="44.28596512405863" lon="11.203240110143462"><ele>219.0</ele><time>2026-04-10T14:50:53Z</time></trkpt><trkpt lat="44.28616655886002" lon="11.20344370587489"><ele>219.0</ele><time>2026-04-10T14:50:54Z</time></trkpt><trkpt lat="44.28636459903107" lon="11.203646179110072"><ele>219.0</ele><time>2026-04-10T14:50:55Z</time></trkpt><trkpt lat="44.28659359734126" lon="11.203847571623745"><ele>218.0</ele><time>2026-04-10T14:50:56Z</time></trkpt><trkpt lat="44.28678204353906" lon="11.204054705989714"><ele>217.0</ele><time>2026-04-10T14:50:57Z</time></trkpt><trkpt lat="44.286965557753796" lon="11.204266690023912"><ele>217.0</ele><time>2026-04-10T14:50:58Z</time></trkpt><trkpt lat="44.28714946103119" lon="11.204485306341871"><ele>217.0</ele><time>2026-04-10T14:50:59Z</time></trkpt><trkpt lat="44.28733510582" lon="11.204710671127401"><ele>218.5</ele><time>2026-04-10T14:51:00Z</time></trkpt><trkpt lat="44.287510300564655" lon="11.20494864642328"><ele>220.0</ele><time>2026-04-10T14:51:01Z</time></trkpt><trkpt lat="44.28767866650521" lon="11.205200776200446"><ele>220.0</ele><time>2026-04-10T14:51:02Z</time></trkpt><trkpt lat="44.2878460939226" lon="11.205459133762776"><ele>220.0</ele><time>2026-04-10T14:51:03Z</time></trkpt><trkpt lat="44.28800718282306" lon="11.205725038798064"><ele>225.5</ele><time>2026-04-10T14:51:04Z</time></trkpt><trkpt lat="44.28815447119342" lon="11.206007871293108"><ele>231.0</ele><time>2026-04-10T14:51:05Z</time></trkpt><trkpt lat="44.288289311039854" lon="11.206301502964218"><ele>222.5</ele><time>2026-04-10T14:51:06Z</time></trkpt><trkpt lat="44.28841894374476" lon="11.2066021543622"><ele>214.0</ele><time>2026-04-10T14:51:07Z</time></trkpt><trkpt lat="44.28853958469266" lon="11.206907501624626"><ele>214.0</ele><time>2026-04-10T14:51:08Z</time></trkpt><trkpt lat="44.288654544627775" lon="11.207214723949399"><ele>214.0</ele><time>2026-04-10T14:51:09Z</time></trkpt><trkpt lat="44.288767164725755" lon="11.207517513328847"><ele>202.0</ele><time>2026-04-10T14:51:10Z</time></trkpt><trkpt lat="44.29608383819589" lon="11.225636439004811"><ele>200.0</ele><time>2026-04-10T14:52:11Z</time></trkpt><trkpt lat="44.2961604936604" lon="11.225967641791751"><ele>198.0</ele><time>2026-04-10T14:52:12Z</time></trkpt><trkpt lat="44.296238424096686" lon="11.226289250161445"><ele>197.5</ele><time>2026-04-10T14:52:13Z</time></trkpt><trkpt lat="44.296316759298904" lon="11.226610283230851"><ele>197.0</ele><time>2026-04-10T14:52:14Z</time></trkpt><trkpt lat="44.29639135820227" lon="11.226932223558983"><ele>201.0</ele><time>2026-04-10T14:52:15Z</time></trkpt><trkpt lat="44.29646205706249" lon="11.227251787090175"><ele>205.0</ele><time>2026-04-10T14:52:16Z</time></trkpt><trkpt lat="44.296533567709545" lon="11.227567144624727"><ele>205.0</ele><time>2026-04-10T14:52:17Z</time></trkpt><trkpt lat="44.29660623502224" lon="11.227881789741556"><ele>205.0</ele><time>2026-04-10T14:52:18Z</time></trkpt><trkpt lat="44.296677559096096" lon="11.228194806260795"><ele>201.0</ele><time>2026-04-10T14:52:19Z</time></trkpt><trkpt lat="44.29675419246691" lon="11.228512190806073"><ele>197.0</ele><time>2026-04-10T14:52:20Z</time></trkpt><trkpt lat="44.29683601411307" lon="11.22882844045296"><ele>195.0</ele><time>2026-04-10T14:52:21Z</time></trkpt><trkpt lat="44.29691012536164" lon="11.229155446047171"><ele>193.0</ele><time>2026-04-10T14:52:22Z</time></trkpt><trkpt lat="44.296982578551244" lon="11.229480369431954"><ele>193.0</ele><time>2026-04-10T14:52:23Z</time></trkpt><trkpt lat="44.297053180514595" lon="11.22980191543311"><ele>193.0</ele><time>2026-04-10T14:52:24Z</time></trkpt><trkpt lat="44.29712895691135" lon="11.23012298048993"><ele>192.0</ele><time>2026-04-10T14:52:25Z</time></trkpt><trkpt lat="44.297199626566105" lon="11.230450161675812"><ele>191.0</ele><time>2026-04-10T14:52:26Z</time></trkpt><trkpt lat="44.297268122187205" lon="11.230776009175472"><ele>198.0</ele><time>2026-04-10T14:52:27Z</time></trkpt><trkpt lat="44.297332953734426" lon="11.23110557849885"><ele>205.0</ele><time>2026-04-10T14:52:28Z</time></trkpt><trkpt lat="44.29739592048036" lon="11.231435681289563"><ele>203.5</ele><time>2026-04-10T14:52:29Z</time></trkpt><trkpt lat="44.297455737829566" lon="11.231770427992345"><ele>202.0</ele><time>2026-04-10T14:52:30Z</time></trkpt><trkpt lat="44.29752276815697" lon="11.232104167979786"><ele>199.5</ele><time>2026-04-10T14:52:31Z</time></trkpt><trkpt lat="44.297585908994115" lon="11.232440317002968"><ele>197.0</ele><time>2026-04-10T14:52:32Z</time></trkpt><trkpt lat="44.29764284294179" lon="11.232779923761287"><ele>197.0</ele><time>2026-04-10T14:52:33Z</time></trkpt><trkpt lat="44.29770206721614" lon="11.233120657199867"><ele>197.0</ele><time>2026-04-10T14:52:34Z</time></trkpt><trkpt lat="44.297756452182554" lon="11.233463835321734"><ele>197.0</ele><time>2026-04-10T14:52:35Z</time></trkpt><trkpt lat="44.297807924890016" lon="11.233807615322252"><ele>197.0</ele><time>2026-04-10T14:52:36Z</time></trkpt><trkpt lat="44.2978614763418" lon="11.234153553500052"><ele>197.0</ele><time>2026-04-10T14:52:37Z</time></trkpt><trkpt lat="44.29791907346656" lon="11.234502374408514"><ele>197.0</ele><time>2026-04-10T14:52:38Z</time></trkpt><trkpt lat="44.29797286110204" lon="11.234852625613948"><ele>197.0</ele><time>2026-04-10T14:52:39Z</time></trkpt><trkpt lat="44.29802275897483" lon="11.23520280326308"><ele>197.0</ele><time>2026-04-10T14:52:40Z</time></trkpt><trkpt lat="44.29807320134329" lon="11.235557862567374"><ele>200.0</ele><time>2026-04-10T14:52:41Z</time></trkpt><trkpt lat="44.29811933369179" lon="11.235911567082931"><ele>203.0</ele><time>2026-04-10T14:52:42Z</time></trkpt><trkpt lat="44.29816396235978" lon="11.236264215834538"><ele>201.0</ele><time>2026-04-10T14:52:43Z</time></trkpt><trkpt lat="44.29821086000255" lon="11.236614981607852"><ele>199.0</ele><time>2026-04-10T14:52:44Z</time></trkpt><trkpt lat="44.298256966409646" lon="11.23696295339149"><ele>199.0</ele><time>2026-04-10T14:52:45Z</time></trkpt><trkpt lat="44.29833859621388" lon="11.237294883793817"><ele>199.0</ele><time>2026-04-10T14:52:46Z</time></trkpt><trkpt lat="44.29842728821865" lon="11.237620452437373"><ele>197.5</ele><time>2026-04-10T14:52:47Z</time></trkpt><trkpt lat="44.29852216576508" lon="11.237939640707662"><ele>196.0</ele><time>2026-04-10T14:52:48Z</time></trkpt><trkpt lat="44.29862125941681" lon="11.238241311834408"><ele>193.0</ele><time>2026-04-10T14:52:49Z</time></trkpt><trkpt lat="44.29873246605429" lon="11.238531692761565"><ele>190.0</ele><time>2026-04-10T14:52:50Z</time></trkpt><trkpt lat="44.29885045284515" lon="11.238818187963487"><ele>197.0</ele><time>2026-04-10T14:52:51Z</time></trkpt><trkpt lat="44.29922666577739" lon="11.23949714728175"><ele>194.0</ele><time>2026-04-10T14:52:52Z</time></trkpt><trkpt lat="44.29939898219273" lon="11.239813293732338"><ele>191.0</ele><time>2026-04-10T14:52:53Z</time></trkpt><trkpt lat="44.29957737081641" lon="11.240124420748595"><ele>193.0</ele><time>2026-04-10T14:52:54Z</time></trkpt><trkpt lat="44.29976622674745" lon="11.24042276355724"><ele>195.0</ele><time>2026-04-10T14:52:55Z</time></trkpt><trkpt lat="44.299966096890834" lon="11.240671516934857"><ele>195.0</ele><time>2026-04-10T14:52:56Z</time></trkpt><trkpt lat="44.30017057176223" lon="11.240941772927219"><ele>195.0</ele><time>2026-04-10T14:52:57Z</time></trkpt><trkpt lat="44.30038423629848" lon="11.241192331973622"><ele>192.5</ele><time>2026-04-10T14:52:58Z</time></trkpt><trkpt lat="44.30060203793854" lon="11.24143279011994"><ele>190.0</ele><time>2026-04-10T14:52:59Z</time></trkpt><trkpt lat="44.30082052787609" lon="11.241653908599908"><ele>190.0</ele><time>2026-04-10T14:53:00Z</time></trkpt><trkpt lat="44.30103118930054" lon="11.241870629010974"><ele>190.0</ele><time>2026-04-10T14:53:01Z</time></trkpt><trkpt lat="44.30124208649294" lon="11.242097525656776"><ele>187.5</ele><time>2026-04-10T14:53:02.001Z</time></trkpt><trkpt lat="44.301459322094324" lon="11.242328551378439"><ele>185.0</ele><time>2026-04-10T14:53:03.001Z</time></trkpt><trkpt lat="44.30168014196521" lon="11.242556594097566"><ele>185.0</ele><time>2026-04-10T14:53:04.001Z</time></trkpt><trkpt lat="44.30190091369996" lon="11.242779406229559"><ele>185.0</ele><time>2026-04-10T14:53:05.001Z</time></trkpt><trkpt lat="44.3021214149751" lon="11.242997404296244"><ele>183.5</ele><time>2026-04-10T14:53:06.001Z</time></trkpt><trkpt lat="44.302342629736636" lon="11.243227837891911"><ele>182.0</ele><time>2026-04-10T14:53:07.001Z</time></trkpt><trkpt lat="44.30257430423599" lon="11.243457917739805"><ele>182.0</ele><time>2026-04-10T14:53:08.001Z</time></trkpt><trkpt lat="44.30280499779199" lon="11.243695161358652"><ele>182.0</ele><time>2026-04-10T14:53:09.001Z</time></trkpt><trkpt lat="44.30302014613274" lon="11.243930489843217"><ele>242.0</ele><time>2026-04-10T14:53:10Z</time></trkpt><trkpt lat="44.315144487265826" lon="11.250871073889002"><ele>242.0</ele><time>2026-04-10T14:54:11Z</time></trkpt><trkpt lat="44.31538967434428" lon="11.250890947507072"><ele>242.0</ele><time>2026-04-10T14:54:12Z</time></trkpt><trkpt lat="44.31563501620871" lon="11.250913535677217"><ele>246.5</ele><time>2026-04-10T14:54:13Z</time></trkpt><trkpt lat="44.31588105136091" lon="11.250937317491138"><ele>251.0</ele><time>2026-04-10T14:54:14Z</time></trkpt><trkpt lat="44.316127509095615" lon="11.250957009270943"><ele>251.0</ele><time>2026-04-10T14:54:15Z</time></trkpt><trkpt lat="44.316368368316674" lon="11.251000935205047"><ele>251.0</ele><time>2026-04-10T14:54:16Z</time></trkpt><trkpt lat="44.316600241496666" lon="11.251054106785931"><ele>251.5</ele><time>2026-04-10T14:54:17Z</time></trkpt><trkpt lat="44.316821476314786" lon="11.251115519186774"><ele>252.0</ele><time>2026-04-10T14:54:18Z</time></trkpt><trkpt lat="44.31705220987817" lon="11.251175267769163"><ele>252.66666666666669</ele><time>2026-04-10T14:54:19Z</time></trkpt><trkpt lat="44.317272680552314" lon="11.251245926824366"><ele>253.33333333333334</ele><time>2026-04-10T14:54:20Z</time></trkpt><trkpt lat="44.3174735047385" lon="11.251333718458763"><ele>254.0</ele><time>2026-04-10T14:54:21Z</time></trkpt><trkpt lat="44.31766328750884" lon="11.251421644485058"><ele>244.33333333333334</ele><time>2026-04-10T14:54:22Z</time></trkpt><trkpt lat="44.31785656787959" lon="11.251516108263505"><ele>234.66666666666669</ele><time>2026-04-10T14:54:23Z</time></trkpt><trkpt lat="44.31805617470147" lon="11.251606788730498"><ele>225.0</ele><time>2026-04-10T14:54:24Z</time></trkpt><trkpt lat="44.31823020472048" lon="11.251711405101828"><ele>225.0</ele><time>2026-04-10T14:54:25Z</time></trkpt><trkpt lat="44.31838261095148" lon="11.251814435353916"><ele>225.0</ele><time>2026-04-10T14:54:26Z</time></trkpt><trkpt lat="44.318571777413986" lon="11.25189235523107"><ele>225.0</ele><time>2026-04-10T14:54:27Z</time></trkpt><trkpt lat="44.31874948066869" lon="11.251990621417411"><ele>221.33333333333331</ele><time>2026-04-10T14:54:28Z</time></trkpt><trkpt lat="44.31892544384737" lon="11.252091951360212"><ele>217.66666666666666</ele><time>2026-04-10T14:54:29Z</time></trkpt><trkpt lat="44.31910662393166" lon="11.252199513034496"><ele>214.0</ele><time>2026-04-10T14:54:30Z</time></trkpt><trkpt lat="44.3192909397172" lon="11.252313476534871"><ele>214.0</ele><time>2026-04-10T14:54:31Z</time></trkpt><trkpt lat="44.319474867834735" lon="11.252431376867708"><ele>214.0</ele><time>2026-04-10T14:54:32Z</time></trkpt><trkpt lat="44.319656465732706" lon="11.252551613325853"><ele>214.0</ele><time>2026-04-10T14:54:33Z</time></trkpt><trkpt lat="44.31980016424266" lon="11.252648590524464"><ele>232.66666666666666</ele><time>2026-04-10T14:54:34Z</time></trkpt><trkpt lat="44.31998053684208" lon="11.25277306404142"><ele>251.33333333333331</ele><time>2026-04-10T14:54:35Z</time></trkpt><trkpt lat="44.32015412764674" lon="11.252894010113398"><ele>270.0</ele><time>2026-04-10T14:54:36Z</time></trkpt><trkpt lat="44.3203047301451" lon="11.252998214362414"><ele>270.0</ele><time>2026-04-10T14:54:37Z</time></trkpt><trkpt lat="44.320478877703245" lon="11.253117829271313"><ele>270.0</ele><time>2026-04-10T14:54:38Z</time></trkpt><trkpt lat="44.32065869284731" lon="11.253241329732578"><ele>270.0</ele><time>2026-04-10T14:54:39Z</time></trkpt><trkpt lat="44.320736854092594" lon="11.25329501248177"><ele>256.5</ele><time>2026-04-10T14:54:40Z</time></trkpt><trkpt lat="44.320878865507105" lon="11.253393055169978"><ele>243.0</ele><time>2026-04-10T14:54:41.021Z</time></trkpt><trkpt lat="44.32273202102381" lon="11.254576649717484"><ele>211.0</ele><time>2026-04-10T14:54:45Z</time></trkpt><trkpt lat="44.322952478286055" lon="11.254714910609717"><ele>179.0</ele><time>2026-04-10T14:54:46Z</time></trkpt><trkpt lat="44.32319726761016" lon="11.254862092617373"><ele>173.0</ele><time>2026-04-10T14:54:47Z</time></trkpt><trkpt lat="44.3234107910691" lon="11.254999581958351"><ele>167.0</ele><time>2026-04-10T14:54:48Z</time></trkpt><trkpt lat="44.32362893076115" lon="11.255124746892665"><ele>167.0</ele><time>2026-04-10T14:54:49Z</time></trkpt><trkpt lat="44.32384962489223" lon="11.255245534380263"><ele>167.0</ele><time>2026-04-10T14:54:50Z</time></trkpt><trkpt lat="44.324075292295596" lon="11.255359891324227"><ele>177.0</ele><time>2026-04-10T14:54:51Z</time></trkpt><trkpt lat="44.324303676877825" lon="11.255472856610858"><ele>187.0</ele><time>2026-04-10T14:54:52Z</time></trkpt><trkpt lat="44.32453368675302" lon="11.255585195167816"><ele>188.5</ele><time>2026-04-10T14:54:53Z</time></trkpt><trkpt lat="44.32476459364121" lon="11.25570028455129"><ele>190.0</ele><time>2026-04-10T14:54:54Z</time></trkpt><trkpt lat="44.324997500150694" lon="11.255807361741015"><ele>190.0</ele><time>2026-04-10T14:54:55Z</time></trkpt><trkpt lat="44.325232966746924" lon="11.255902964920953"><ele>190.0</ele><time>2026-04-10T14:54:56Z</time></trkpt><trkpt lat="44.32546933084028" lon="11.256002734193874"><ele>196.0</ele><time>2026-04-10T14:54:57Z</time></trkpt><trkpt lat="44.325707037107414" lon="11.256103895164637"><ele>202.0</ele><time>2026-04-10T14:54:58Z</time></trkpt><trkpt lat="44.32594509940075" lon="11.25620086104479"><ele>202.0</ele><time>2026-04-10T14:54:59Z</time></trkpt><trkpt lat="44.32618216741348" lon="11.25629912499499"><ele>202.0</ele><time>2026-04-10T14:55:00Z</time></trkpt><trkpt lat="44.32641832913229" lon="11.256398630737378"><ele>205.0</ele><time>2026-04-10T14:55:01Z</time></trkpt><trkpt lat="44.32663986918076" lon="11.25649105570208"><ele>208.0</ele><time>2026-04-10T14:55:02Z</time></trkpt><trkpt lat="44.3268674551785" lon="11.256582906587944"><ele>208.0</ele><time>2026-04-10T14:55:03Z</time></trkpt><trkpt lat="44.32709184468007" lon="11.256670614983426"><ele>208.0</ele><time>2026-04-10T14:55:04Z</time></trkpt><trkpt lat="44.32731335213222" lon="11.256760126938392"><ele>226.0</ele><time>2026-04-10T14:55:05Z</time></trkpt><trkpt lat="44.327530019768005" lon="11.256848811214622"><ele>244.0</ele><time>2026-04-10T14:55:06Z</time></trkpt><trkpt lat="44.32774926923473" lon="11.256942111247428"><ele>244.0</ele><time>2026-04-10T14:55:07Z</time></trkpt><trkpt lat="44.3279672637709" lon="11.2570350724069"><ele>244.0</ele><time>2026-04-10T14:55:08.001Z</time></trkpt><trkpt lat="44.328184572079586" lon="11.257127105607571"><ele>260.5</ele><time>2026-04-10T14:55:09.001Z</time></trkpt><trkpt lat="44.32839868246665" lon="11.25721518463892"><ele>277.0</ele><time>2026-04-10T14:55:10.001Z</time></trkpt><trkpt lat="44.33175556359004" lon="11.259347317254797"><ele>259.0</ele><time>2026-04-10T14:55:21.225Z</time></trkpt><trkpt lat="44.33274898083821" lon="11.260197269171977"><ele>246.0</ele><time>2026-04-10T14:55:22.221Z</time></trkpt><trkpt lat="44.33371170814671" lon="11.261135987788986"><ele>248.0</ele><time>2026-04-10T14:55:23.226Z</time></trkpt><trkpt lat="44.334631415635414" lon="11.262143151705768"><ele>253.0</ele><time>2026-04-10T14:55:24.226Z</time></trkpt><trkpt lat="44.335530534049205" lon="11.26318598880861"><ele>213.0</ele><time>2026-04-10T14:55:25.226Z</time></trkpt><trkpt lat="44.33641978521406" lon="11.264241833982647"><ele>139.0</ele><time>2026-04-10T14:55:26.225Z</time></trkpt><trkpt lat="44.33756147332977" lon="11.26564817280193"><ele>139.0</ele><time>2026-04-10T14:55:54Z</time></trkpt><trkpt lat="44.33775343658899" lon="11.265881573570688"><ele>139.0</ele><time>2026-04-10T14:55:55Z</time></trkpt><trkpt lat="44.337887319111644" lon="11.266064976213181"><ele>139.0</ele><time>2026-04-10T14:55:56Z</time></trkpt><trkpt lat="44.33807637862956" lon="11.266245465229662"><ele>137.33333333333334</ele><time>2026-04-10T14:55:57Z</time></trkpt><trkpt lat="44.33825503046396" lon="11.266420463771635"><ele>135.66666666666666</ele><time>2026-04-10T14:55:58Z</time></trkpt><trkpt lat="44.33843546623165" lon="11.266608497944844"><ele>134.0</ele><time>2026-04-10T14:55:59Z</time></trkpt><trkpt lat="44.33862311820922" lon="11.266786925252797"><ele>134.0</ele><time>2026-04-10T14:56:00Z</time></trkpt><trkpt lat="44.3388215030745" lon="11.266957132917762"><ele>134.0</ele><time>2026-04-10T14:56:01Z</time></trkpt><trkpt lat="44.33902629584213" lon="11.267120524840461"><ele>135.5</ele><time>2026-04-10T14:56:02Z</time></trkpt><trkpt lat="44.33924489928129" lon="11.267275980950583"><ele>137.0</ele><time>2026-04-10T14:56:03Z</time></trkpt><trkpt lat="44.339470518161455" lon="11.267426451045718"><ele>137.0</ele><time>2026-04-10T14:56:04Z</time></trkpt><trkpt lat="44.33970015128712" lon="11.267570515206836"><ele>137.0</ele><time>2026-04-10T14:56:05Z</time></trkpt><trkpt lat="44.33993436203638" lon="11.267708339749134"><ele>136.0</ele><time>2026-04-10T14:56:06Z</time></trkpt><trkpt lat="44.340173760666964" lon="11.267833151075154"><ele>135.0</ele><time>2026-04-10T14:56:07Z</time></trkpt><trkpt lat="44.34041714121712" lon="11.267951949004775"><ele>134.5</ele><time>2026-04-10T14:56:08Z</time></trkpt><trkpt lat="44.340658273653304" lon="11.268061534049828"><ele>134.0</ele><time>2026-04-10T14:56:09Z</time></trkpt><trkpt lat="44.340900312936284" lon="11.26816018615432"><ele>119.0</ele><time>2026-04-10T14:56:10Z</time></trkpt><trkpt lat="44.356307035646736" lon="11.26302594531161"><ele>118.5</ele><time>2026-04-10T14:57:11.001Z</time></trkpt><trkpt lat="44.3565561580038" lon="11.262913534704722"><ele>118.0</ele><time>2026-04-10T14:57:12.001Z</time></trkpt><trkpt lat="44.35680694940746" lon="11.262801274525348"><ele>118.0</ele><time>2026-04-10T14:57:13.001Z</time></trkpt><trkpt lat="44.35705926465228" lon="11.262693509127205"><ele>118.0</ele><time>2026-04-10T14:57:14.001Z</time></trkpt><trkpt lat="44.357309561941555" lon="11.262582421574201"><ele>117.5</ele><time>2026-04-10T14:57:15.001Z</time></trkpt><trkpt lat="44.35755617661714" lon="11.262463221463307"><ele>117.0</ele><time>2026-04-10T14:57:16.001Z</time></trkpt><trkpt lat="44.35780754561508" lon="11.262346438790248"><ele>117.0</ele><time>2026-04-10T14:57:17.001Z</time></trkpt><trkpt lat="44.3580624649013" lon="11.262238402384709"><ele>117.0</ele><time>2026-04-10T14:57:18.001Z</time></trkpt><trkpt lat="44.35831426532984" lon="11.262131290316054"><ele>117.0</ele><time>2026-04-10T14:57:19.001Z</time></trkpt><trkpt lat="44.35856438831848" lon="11.262017651346559"><ele>117.0</ele><time>2026-04-10T14:57:20.001Z</time></trkpt><trkpt lat="44.35881591137675" lon="11.26190669901842"><ele>116.5</ele><time>2026-04-10T14:57:21Z</time></trkpt><trkpt lat="44.359069219511916" lon="11.261793014134504"><ele>116.0</ele><time>2026-04-10T14:57:22Z</time></trkpt><trkpt lat="44.35932280024929" lon="11.261679006063247"><ele>116.0</ele><time>2026-04-10T14:57:23Z</time></trkpt><trkpt lat="44.35957494070553" lon="11.261565630533758"><ele>116.0</ele><time>2026-04-10T14:57:24Z</time></trkpt><trkpt lat="44.359819479128234" lon="11.261455675875988"><ele>117.0</ele><time>2026-04-10T14:57:25Z</time></trkpt><trkpt lat="44.36005475916458" lon="11.261358301078527"><ele>118.0</ele><time>2026-04-10T14:57:26Z</time></trkpt><trkpt lat="44.36028972061555" lon="11.26125790438642"><ele>118.0</ele><time>2026-04-10T14:57:27Z</time></trkpt><trkpt lat="44.360526804081054" lon="11.261153189506176"><ele>118.0</ele><time>2026-04-10T14:57:28Z</time></trkpt><trkpt lat="44.36075592624403" lon="11.261054395165669"><ele>116.5</ele><time>2026-04-10T14:57:29Z</time></trkpt><trkpt lat="44.3609806029987" lon="11.260952576140852"><ele>115.0</ele><time>2026-04-10T14:57:30Z</time></trkpt><trkpt lat="44.3612030090412" lon="11.260855293391193"><ele>114.0</ele><time>2026-04-10T14:57:31Z</time></trkpt><trkpt lat="44.36142452168798" lon="11.260758331856005"><ele>113.0</ele><time>2026-04-10T14:57:32Z</time></trkpt><trkpt lat="44.36164464584681" lon="11.260655867080786"><ele>113.0</ele><time>2026-04-10T14:57:33Z</time></trkpt><trkpt lat="44.361864421526235" lon="11.260556039913448"><ele>113.0</ele><time>2026-04-10T14:57:34Z</time></trkpt><trkpt lat="44.36208450902868" lon="11.260458169061451"><ele>111.5</ele><time>2026-04-10T14:57:35Z</time></trkpt><trkpt lat="44.36230450315944" lon="11.260364024758168"><ele>110.0</ele><time>2026-04-10T14:57:36Z</time></trkpt><trkpt lat="44.36252387203644" lon="11.260265195838493"><ele>110.0</ele><time>2026-04-10T14:57:37Z</time></trkpt><trkpt lat="44.3627399475398" lon="11.26016914376766"><ele>110.0</ele><time>2026-04-10T14:57:38Z</time></trkpt><trkpt lat="44.36295773153096" lon="11.260068536998794"><ele>112.0</ele><time>2026-04-10T14:57:39Z</time></trkpt><trkpt lat="44.36317357746437" lon="11.259971341783034"><ele>114.0</ele><time>2026-04-10T14:57:40Z</time></trkpt><trkpt lat="44.36339063011373" lon="11.259874953998336"><ele>113.5</ele><time>2026-04-10T14:57:41Z</time></trkpt><trkpt lat="44.36360793800891" lon="11.25977844962457"><ele>113.0</ele><time>2026-04-10T14:57:42Z</time></trkpt><trkpt lat="44.36382559659341" lon="11.259679785488565"><ele>112.5</ele><time>2026-04-10T14:57:43Z</time></trkpt><trkpt lat="44.36404334303545" lon="11.259577550896392"><ele>112.0</ele><time>2026-04-10T14:57:44Z</time></trkpt><trkpt lat="44.364262580435245" lon="11.259479996025938"><ele>112.0</ele><time>2026-04-10T14:57:45Z</time></trkpt><trkpt lat="44.364485629069186" lon="11.259383970425917"><ele>112.0</ele><time>2026-04-10T14:57:46Z</time></trkpt><trkpt lat="44.3647077558046" lon="11.259285818274684"><ele>111.5</ele><time>2026-04-10T14:57:47Z</time></trkpt><trkpt lat="44.364932688037264" lon="11.259182344202802"><ele>111.0</ele><time>2026-04-10T14:57:48Z</time></trkpt><trkpt lat="44.36515494332469" lon="11.25909209304976"><ele>111.0</ele><time>2026-04-10T14:57:49Z</time></trkpt><trkpt lat="44.365379985153005" lon="11.25900454047265"><ele>111.0</ele><time>2026-04-10T14:57:50Z</time></trkpt><trkpt lat="44.36560493196081" lon="11.258912373441541"><ele>110.5</ele><time>2026-04-10T14:57:51Z</time></trkpt><trkpt lat="44.365830893878865" lon="11.258821993428544"><ele>110.0</ele><time>2026-04-10T14:57:52Z</time></trkpt><trkpt lat="44.366058995993285" lon="11.258735301656825"><ele>110.0</ele><time>2026-04-10T14:57:53Z</time></trkpt><trkpt lat="44.366289266577574" lon="11.25865247557627"><ele>110.0</ele><time>2026-04-10T14:57:54Z</time></trkpt><trkpt lat="44.36652201403355" lon="11.258573650624703"><ele>110.5</ele><time>2026-04-10T14:57:55Z</time></trkpt><trkpt lat="44.36675727827859" lon="11.258496688119822"><ele>111.0</ele><time>2026-04-10T14:57:56Z</time></trkpt><trkpt lat="44.36699506715766" lon="11.258421863002312"><ele>111.5</ele><time>2026-04-10T14:57:57Z</time></trkpt><trkpt lat="44.3672332383604" lon="11.258349237222172"><ele>112.0</ele><time>2026-04-10T14:57:58Z</time></trkpt><trkpt lat="44.3674742066649" lon="11.258283804884154"><ele>112.0</ele><time>2026-04-10T14:57:59Z</time></trkpt><trkpt lat="44.36771775208749" lon="11.258217739449094"><ele>112.0</ele><time>2026-04-10T14:58:00Z</time></trkpt><trkpt lat="44.367963198308885" lon="11.2581526145817"><ele>111.0</ele><time>2026-04-10T14:58:01Z</time></trkpt><trkpt lat="44.36820961732495" lon="11.25809490822754"><ele>110.0</ele><time>2026-04-10T14:58:02Z</time></trkpt><trkpt lat="44.36846008442348" lon="11.258045624538545"><ele>110.0</ele><time>2026-04-10T14:58:03Z</time></trkpt><trkpt lat="44.36870864505406" lon="11.257998795841518"><ele>110.0</ele><time>2026-04-10T14:58:04Z</time></trkpt><trkpt lat="44.36895537089078" lon="11.257956712433183"><ele>112.0</ele><time>2026-04-10T14:58:05Z</time></trkpt><trkpt lat="44.369200648846224" lon="11.257914747712183"><ele>114.0</ele><time>2026-04-10T14:58:06Z</time></trkpt><trkpt lat="44.36944672634432" lon="11.257878142095723"><ele>117.5</ele><time>2026-04-10T14:58:07Z</time></trkpt><trkpt lat="44.36969316871219" lon="11.257857316623811"><ele>121.0</ele><time>2026-04-10T14:58:08Z</time></trkpt><trkpt lat="44.369938327041986" lon="11.257838695260206"><ele>121.0</ele><time>2026-04-10T14:58:09Z</time></trkpt><trkpt lat="44.37017789491197" lon="11.257818409333336"><ele>121.0</ele><time>2026-04-10T14:58:10Z</time></trkpt><trkpt lat="44.39055261525105" lon="11.259780342076002"><ele>115.5</ele><time>2026-04-10T14:59:36Z</time></trkpt><trkpt lat="44.39083203946704" lon="11.259752233080766"><ele>110.0</ele><time>2026-04-10T14:59:37Z</time></trkpt><trkpt lat="44.39106031456263" lon="11.25971535112292"><ele>110.0</ele><time>2026-04-10T14:59:38Z</time></trkpt><trkpt lat="44.391281939517036" lon="11.25965989457031"><ele>110.0</ele><time>2026-04-10T14:59:39Z</time></trkpt><trkpt lat="44.39150692240208" lon="11.259594905968914"><ele>107.0</ele><time>2026-04-10T14:59:40Z</time></trkpt><trkpt lat="44.391731707368535" lon="11.259543092965053"><ele>104.0</ele><time>2026-04-10T14:59:41Z</time></trkpt><trkpt lat="44.39195304697461" lon="11.259491939371328"><ele>101.5</ele><time>2026-04-10T14:59:42Z</time></trkpt><trkpt lat="44.392175493640956" lon="11.259442324760546"><ele>99.0</ele><time>2026-04-10T14:59:43Z</time></trkpt><trkpt lat="44.39240015542203" lon="11.25939637885201"><ele>99.0</ele><time>2026-04-10T14:59:44Z</time></trkpt><trkpt lat="44.39262753748456" lon="11.259349647692272"><ele>99.0</ele><time>2026-04-10T14:59:45Z</time></trkpt><trkpt lat="44.392852544025715" lon="11.25931659318727"><ele>93.5</ele><time>2026-04-10T14:59:46Z</time></trkpt><trkpt lat="44.393079287832045" lon="11.259287305737537"><ele>88.0</ele><time>2026-04-10T14:59:47Z</time></trkpt><trkpt lat="44.39330856086033" lon="11.25926277277598"><ele>88.0</ele><time>2026-04-10T14:59:48Z</time></trkpt><trkpt lat="44.39353859367343" lon="11.259245962482604"><ele>88.0</ele><time>2026-04-10T14:59:49Z</time></trkpt><trkpt lat="44.393770264763845" lon="11.259235241497041"><ele>87.5</ele><time>2026-04-10T14:59:50Z</time></trkpt><trkpt lat="44.39400242844136" lon="11.259233438841749"><ele>87.0</ele><time>2026-04-10T14:59:51Z</time></trkpt><trkpt lat="44.39423184179493" lon="11.259235889282408"><ele>87.0</ele><time>2026-04-10T14:59:52Z</time></trkpt><trkpt lat="44.39446032273957" lon="11.259243650217623"><ele>87.0</ele><time>2026-04-10T14:59:53Z</time></trkpt><trkpt lat="44.3946881728248" lon="11.259254837431474"><ele>90.0</ele><time>2026-04-10T14:59:54Z</time></trkpt><trkpt lat="44.39491556005242" lon="11.259272488107403"><ele>93.0</ele><time>2026-04-10T14:59:55Z</time></trkpt><trkpt lat="44.39514366970791" lon="11.259297054249382"><ele>93.0</ele><time>2026-04-10T14:59:56Z</time></trkpt><trkpt lat="44.395372975480534" lon="11.25933438108459"><ele>93.0</ele><time>2026-04-10T14:59:57Z</time></trkpt><trkpt lat="44.395602076180495" lon="11.259376788442937"><ele>93.5</ele><time>2026-04-10T14:59:58Z</time></trkpt><trkpt lat="44.395831932133234" lon="11.259418920793479"><ele>94.0</ele><time>2026-04-10T14:59:59Z</time></trkpt><trkpt lat="44.39606404440495" lon="11.259469266433088"><ele>94.0</ele><time>2026-04-10T15:00:00Z</time></trkpt><trkpt lat="44.396294246641375" lon="11.259524085445086"><ele>94.0</ele><time>2026-04-10T15:00:01Z</time></trkpt><trkpt lat="44.396524836987574" lon="11.259588500178435"><ele>92.5</ele><time>2026-04-10T15:00:02Z</time></trkpt><trkpt lat="44.396755266840145" lon="11.259661705198502"><ele>91.0</ele><time>2026-04-10T15:00:03Z</time></trkpt><trkpt lat="44.39698543881055" lon="11.259739691265167"><ele>92.0</ele><time>2026-04-10T15:00:04Z</time></trkpt><trkpt lat="44.39721623979777" lon="11.259821426891067"><ele>93.0</ele><time>2026-04-10T15:00:05Z</time></trkpt><trkpt lat="44.39744565408766" lon="11.259908845791173"><ele>93.0</ele><time>2026-04-10T15:00:06Z</time></trkpt><trkpt lat="44.39767468142637" lon="11.260004916895502"><ele>93.0</ele><time>2026-04-10T15:00:07Z</time></trkpt><trkpt lat="44.397903743640626" lon="11.26011057408904"><ele>95.0</ele><time>2026-04-10T15:00:08Z</time></trkpt><trkpt lat="44.398131154974394" lon="11.260222049090947"><ele>97.0</ele><time>2026-04-10T15:00:09Z</time></trkpt><trkpt lat="44.39835589269472" lon="11.260338023023774"><ele>95.0</ele><time>2026-04-10T15:00:10Z</time></trkpt><trkpt lat="44.41281712447331" lon="11.267285381732231"><ele>95.0</ele><time>2026-04-10T15:01:11Z</time></trkpt><trkpt lat="44.413066584161555" lon="11.267371235722582"><ele>95.0</ele><time>2026-04-10T15:01:12Z</time></trkpt><trkpt lat="44.41331654786741" lon="11.267456987702387"><ele>95.0</ele><time>2026-04-10T15:01:13Z</time></trkpt><trkpt lat="44.413569088653105" lon="11.267541212871485"><ele>95.0</ele><time>2026-04-10T15:01:14Z</time></trkpt><trkpt lat="44.413822341937326" lon="11.267627814331911"><ele>93.5</ele><time>2026-04-10T15:01:15Z</time></trkpt><trkpt lat="44.41407623397566" lon="11.267714269423733"><ele>92.0</ele><time>2026-04-10T15:01:16Z</time></trkpt><trkpt lat="44.41433169011986" lon="11.26780263705646"><ele>92.0</ele><time>2026-04-10T15:01:17Z</time></trkpt><trkpt lat="44.41458849187537" lon="11.26789036408188"><ele>92.0</ele><time>2026-04-10T15:01:18Z</time></trkpt><trkpt lat="44.41484533432002" lon="11.267976860269854"><ele>91.0</ele><time>2026-04-10T15:01:19Z</time></trkpt><trkpt lat="44.415097550069646" lon="11.268063835185554"><ele>90.0</ele><time>2026-04-10T15:01:20Z</time></trkpt><trkpt lat="44.415348712234575" lon="11.268148446495012"><ele>90.5</ele><time>2026-04-10T15:01:21Z</time></trkpt><trkpt lat="44.41559677153107" lon="11.268232868105645"><ele>91.0</ele><time>2026-04-10T15:01:22Z</time></trkpt><trkpt lat="44.41583739032259" lon="11.268317152678094"><ele>91.0</ele><time>2026-04-10T15:01:23Z</time></trkpt><trkpt lat="44.416072665122606" lon="11.268396601737956"><ele>91.0</ele><time>2026-04-10T15:01:24Z</time></trkpt><trkpt lat="44.416303483586056" lon="11.268482803340667"><ele>93.0</ele><time>2026-04-10T15:01:25Z</time></trkpt><trkpt lat="44.41652942962926" lon="11.268574496480511"><ele>95.0</ele><time>2026-04-10T15:01:26Z</time></trkpt><trkpt lat="44.41674802756948" lon="11.268667284424371"><ele>95.0</ele><time>2026-04-10T15:01:27Z</time></trkpt><trkpt lat="44.416962445112915" lon="11.268773702652634"><ele>95.0</ele><time>2026-04-10T15:01:28Z</time></trkpt><trkpt lat="44.41717766274608" lon="11.268884298649857"><ele>93.0</ele><time>2026-04-10T15:01:29Z</time></trkpt><trkpt lat="44.41738886102266" lon="11.268995875189455"><ele>91.0</ele><time>2026-04-10T15:01:30Z</time></trkpt><trkpt lat="44.41759803082959" lon="11.269118854252236"><ele>91.0</ele><time>2026-04-10T15:01:31Z</time></trkpt><trkpt lat="44.41779947426576" lon="11.26923686857038"><ele>91.0</ele><time>2026-04-10T15:01:32Z</time></trkpt><trkpt lat="44.41800943553773" lon="11.2693517745318"><ele>91.0</ele><time>2026-04-10T15:01:33Z</time></trkpt><trkpt lat="44.4182239693636" lon="11.269465992762186"><ele>91.5</ele><time>2026-04-10T15:01:34Z</time></trkpt><trkpt lat="44.4184389381513" lon="11.26958836220312"><ele>92.0</ele><time>2026-04-10T15:01:35Z</time></trkpt><trkpt lat="44.418651475324175" lon="11.26970924461472"><ele>91.33333333333334</ele><time>2026-04-10T15:01:36Z</time></trkpt><trkpt lat="44.41886272976855" lon="11.269826730581574"><ele>90.66666666666667</ele><time>2026-04-10T15:01:37Z</time></trkpt><trkpt lat="44.41906282311789" lon="11.269941922759376"><ele>90.0</ele><time>2026-04-10T15:01:38Z</time></trkpt><trkpt lat="44.419261985684656" lon="11.270053495071473"><ele>90.0</ele><time>2026-04-10T15:01:39Z</time></trkpt><trkpt lat="44.41946426212201" lon="11.27016801919649"><ele>90.0</ele><time>2026-04-10T15:01:40Z</time></trkpt><trkpt lat="44.419667663676506" lon="11.27028389822687"><ele>90.0</ele><time>2026-04-10T15:01:41Z</time></trkpt><trkpt lat="44.41987091818703" lon="11.270401831886915"><ele>89.66666666666667</ele><time>2026-04-10T15:01:42Z</time></trkpt><trkpt lat="44.420067858912006" lon="11.270513771887606"><ele>89.33333333333334</ele><time>2026-04-10T15:01:43Z</time></trkpt><trkpt lat="44.42027370334444" lon="11.270621033538244"><ele>89.0</ele><time>2026-04-10T15:01:44Z</time></trkpt><trkpt lat="44.42048701068592" lon="11.270730372705835"><ele>89.0</ele><time>2026-04-10T15:01:45Z</time></trkpt><trkpt lat="44.42070811888107" lon="11.270842749041096"><ele>89.0</ele><time>2026-04-10T15:01:46Z</time></trkpt><trkpt lat="44.42093273150579" lon="11.27096100141182"><ele>89.0</ele><time>2026-04-10T15:01:47Z</time></trkpt><trkpt lat="44.421163374323484" lon="11.271084373523923"><ele>89.0</ele><time>2026-04-10T15:01:48Z</time></trkpt><trkpt lat="44.42139875696631" lon="11.271215947509877"><ele>89.5</ele><time>2026-04-10T15:01:49Z</time></trkpt><trkpt lat="44.42163349689641" lon="11.27133892321434"><ele>90.0</ele><time>2026-04-10T15:01:50Z</time></trkpt><trkpt lat="44.42187112309814" lon="11.271470726455835"><ele>90.0</ele><time>2026-04-10T15:01:51Z</time></trkpt><trkpt lat="44.422108291156526" lon="11.271606526890338"><ele>90.0</ele><time>2026-04-10T15:01:52Z</time></trkpt><trkpt lat="44.422347959012065" lon="11.271739748847835"><ele>90.0</ele><time>2026-04-10T15:01:53Z</time></trkpt><trkpt lat="44.42258896869836" lon="11.271875077668296"><ele>90.0</ele><time>2026-04-10T15:01:54Z</time></trkpt><trkpt lat="44.42282275369977" lon="11.272009179933415"><ele>89.0</ele><time>2026-04-10T15:01:55Z</time></trkpt><trkpt lat="44.423055991852266" lon="11.27214605660964"><ele>88.0</ele><time>2026-04-10T15:01:56Z</time></trkpt><trkpt lat="44.423290383335775" lon="11.272282874782416"><ele>86.5</ele><time>2026-04-10T15:01:57Z</time></trkpt><trkpt lat="44.42352560706787" lon="11.272417071512518"><ele>85.0</ele><time>2026-04-10T15:01:58Z</time></trkpt><trkpt lat="44.42376339387445" lon="11.272548504286243"><ele>84.5</ele><time>2026-04-10T15:01:59Z</time></trkpt><trkpt lat="44.424001253364054" lon="11.272685466070548"><ele>84.0</ele><time>2026-04-10T15:02:00Z</time></trkpt><trkpt lat="44.42424097896479" lon="11.272822973648971"><ele>84.0</ele><time>2026-04-10T15:02:01Z</time></trkpt><trkpt lat="44.42447564513764" lon="11.272954371559454"><ele>84.0</ele><time>2026-04-10T15:02:02Z</time></trkpt><trkpt lat="44.424708040553845" lon="11.273091959545283"><ele>84.5</ele><time>2026-04-10T15:02:03Z</time></trkpt><trkpt lat="44.4249409548023" lon="11.273224985579306"><ele>85.0</ele><time>2026-04-10T15:02:04Z</time></trkpt><trkpt lat="44.42517103199814" lon="11.27336606533479"><ele>85.0</ele><time>2026-04-10T15:02:05Z</time></trkpt><trkpt lat="44.42540105189787" lon="11.273506595636714"><ele>85.0</ele><time>2026-04-10T15:02:06Z</time></trkpt><trkpt lat="44.425630672965625" lon="11.273643977909673"><ele>85.0</ele><time>2026-04-10T15:02:07Z</time></trkpt><trkpt lat="44.42586044961621" lon="11.273781511063861"><ele>85.0</ele><time>2026-04-10T15:02:08Z</time></trkpt><trkpt lat="44.426092251585665" lon="11.273920835221862"><ele>81.0</ele><time>2026-04-10T15:02:09Z</time></trkpt><trkpt lat="44.42632371733242" lon="11.274062294689697"><ele>77.0</ele><time>2026-04-10T15:02:10Z</time></trkpt><trkpt lat="44.440473811881304" lon="11.278417015095497"><ele>74.0</ele><time>2026-04-10T15:03:11Z</time></trkpt><trkpt lat="44.440711229040076" lon="11.278474190554773"><ele>71.0</ele><time>2026-04-10T15:03:12Z</time></trkpt><trkpt lat="44.44094763882368" lon="11.278529756932304"><ele>71.0</ele><time>2026-04-10T15:03:13Z</time></trkpt><trkpt lat="44.44118233881487" lon="11.278582705281275"><ele>71.0</ele><time>2026-04-10T15:03:14Z</time></trkpt><trkpt lat="44.44141347465974" lon="11.278635893478697"><ele>71.0</ele><time>2026-04-10T15:03:15Z</time></trkpt><trkpt lat="44.44164485109861" lon="11.278688516694723"><ele>71.0</ele><time>2026-04-10T15:03:16Z</time></trkpt><trkpt lat="44.44187487607878" lon="11.278736185931498"><ele>71.0</ele><time>2026-04-10T15:03:17Z</time></trkpt><trkpt lat="44.44210192506534" lon="11.278785488570042"><ele>71.0</ele><time>2026-04-10T15:03:18Z</time></trkpt><trkpt lat="44.44232892817542" lon="11.278842075189846"><ele>71.0</ele><time>2026-04-10T15:03:19Z</time></trkpt><trkpt lat="44.44255843883455" lon="11.278892794807849"><ele>71.0</ele><time>2026-04-10T15:03:20Z</time></trkpt><trkpt lat="44.442786224406234" lon="11.27894413499567"><ele>70.5</ele><time>2026-04-10T15:03:21Z</time></trkpt><trkpt lat="44.44301250594572" lon="11.278996089933555"><ele>70.0</ele><time>2026-04-10T15:03:22Z</time></trkpt><trkpt lat="44.44323616478016" lon="11.279047396967174"><ele>70.0</ele><time>2026-04-10T15:03:23Z</time></trkpt><trkpt lat="44.44345077447241" lon="11.27909723493126"><ele>70.0</ele><time>2026-04-10T15:03:24Z</time></trkpt><trkpt lat="44.44366432480478" lon="11.279146300060916"><ele>70.0</ele><time>2026-04-10T15:03:25Z</time></trkpt><trkpt lat="44.44387859884577" lon="11.279194180537552"><ele>71.0</ele><time>2026-04-10T15:03:26Z</time></trkpt><trkpt lat="44.444091775102386" lon="11.279244288257168"><ele>72.0</ele><time>2026-04-10T15:03:27Z</time></trkpt><trkpt lat="44.44430355902687" lon="11.279296220157738"><ele>73.0</ele><time>2026-04-10T15:03:28Z</time></trkpt><trkpt lat="44.444516173628884" lon="11.279344150670887"><ele>73.33333333333333</ele><time>2026-04-10T15:03:29Z</time></trkpt><trkpt lat="44.44472977414659" lon="11.279390444888046"><ele>73.66666666666667</ele><time>2026-04-10T15:03:30Z</time></trkpt><trkpt lat="44.44494406087402" lon="11.279438289769404"><ele>74.0</ele><time>2026-04-10T15:03:31Z</time></trkpt><trkpt lat="44.44515845757723" lon="11.27948899283053"><ele>74.0</ele><time>2026-04-10T15:03:32Z</time></trkpt><trkpt lat="44.445378067731525" lon="11.27953879609772"><ele>74.0</ele><time>2026-04-10T15:03:33Z</time></trkpt><trkpt lat="44.44560676002822" lon="11.279587307113152"><ele>72.0</ele><time>2026-04-10T15:03:34Z</time></trkpt><trkpt lat="44.44583960311922" lon="11.279637322899319"><ele>70.0</ele><time>2026-04-10T15:03:35Z</time></trkpt><trkpt lat="44.44607649473971" lon="11.279686917580026"><ele>69.0</ele><time>2026-04-10T15:03:36Z</time></trkpt><trkpt lat="44.44631685526383" lon="11.279742245626402"><ele>68.0</ele><time>2026-04-10T15:03:37Z</time></trkpt><trkpt lat="44.44655032628938" lon="11.279794971769906"><ele>67.0</ele><time>2026-04-10T15:03:38Z</time></trkpt><trkpt lat="44.446770338698606" lon="11.279844607260381"><ele>66.0</ele><time>2026-04-10T15:03:39Z</time></trkpt><trkpt lat="44.44699570347663" lon="11.279897700562538"><ele>67.0</ele><time>2026-04-10T15:03:40Z</time></trkpt><trkpt lat="44.447222558599385" lon="11.27994872075259"><ele>68.0</ele><time>2026-04-10T15:03:41Z</time></trkpt><trkpt lat="44.44745039126444" lon="11.279995081662483"><ele>68.0</ele><time>2026-04-10T15:03:42Z</time></trkpt><trkpt lat="44.44768137476094" lon="11.280046476337894"><ele>68.0</ele><time>2026-04-10T15:03:43Z</time></trkpt><trkpt lat="44.447901834404476" lon="11.280097013082088"><ele>68.0</ele><time>2026-04-10T15:03:44Z</time></trkpt><trkpt lat="44.44811947644812" lon="11.280152171169338"><ele>68.0</ele><time>2026-04-10T15:03:45Z</time></trkpt><trkpt lat="44.44834416765013" lon="11.280203420740852"><ele>68.0</ele><time>2026-04-10T15:03:46Z</time></trkpt><trkpt lat="44.44857423224174" lon="11.280250369685847"><ele>67.5</ele><time>2026-04-10T15:03:47Z</time></trkpt><trkpt lat="44.448804021554494" lon="11.280296787882136"><ele>67.0</ele><time>2026-04-10T15:03:48Z</time></trkpt><trkpt lat="44.44903420315687" lon="11.28034675694968"><ele>67.0</ele><time>2026-04-10T15:03:49Z</time></trkpt><trkpt lat="44.44926460611838" lon="11.28040380882223"><ele>67.0</ele><time>2026-04-10T15:03:50Z</time></trkpt><trkpt lat="44.44949655289186" lon="11.280459585182474"><ele>67.0</ele><time>2026-04-10T15:03:51Z</time></trkpt><trkpt lat="44.4497288676488" lon="11.28051423214165"><ele>67.0</ele><time>2026-04-10T15:03:52Z</time></trkpt><trkpt lat="44.44996462258241" lon="11.280559177693217"><ele>67.0</ele><time>2026-04-10T15:03:53Z</time></trkpt><trkpt lat="44.45020243640037" lon="11.280598377274249"><ele>67.0</ele><time>2026-04-10T15:03:54Z</time></trkpt><trkpt lat="44.450442271980144" lon="11.280642504745652"><ele>67.0</ele><time>2026-04-10T15:03:55Z</time></trkpt><trkpt lat="44.45068708906639" lon="11.280690395798807"><ele>67.0</ele><time>2026-04-10T15:03:56Z</time></trkpt><trkpt lat="44.450935688756864" lon="11.280737458539111"><ele>67.0</ele><time>2026-04-10T15:03:57Z</time></trkpt><trkpt lat="44.45118579901692" lon="11.280790023104446"><ele>67.0</ele><time>2026-04-10T15:03:58Z</time></trkpt><trkpt lat="44.45143793037333" lon="11.280851046773023"><ele>67.5</ele><time>2026-04-10T15:03:59Z</time></trkpt><trkpt lat="44.45169025452603" lon="11.280912475111927"><ele>68.0</ele><time>2026-04-10T15:04:00Z</time></trkpt><trkpt lat="44.451946426245435" lon="11.28097038129797"><ele>67.5</ele><time>2026-04-10T15:04:01Z</time></trkpt><trkpt lat="44.4521998335305" lon="11.281026654560645"><ele>67.0</ele><time>2026-04-10T15:04:02Z</time></trkpt><trkpt lat="44.45245327399096" lon="11.28108557609321"><ele>67.0</ele><time>2026-04-10T15:04:03Z</time></trkpt><trkpt lat="44.45270675265438" lon="11.281142734672965"><ele>67.0</ele><time>2026-04-10T15:04:04Z</time></trkpt><trkpt lat="44.45296101032597" lon="11.281192171362433"><ele>67.5</ele><time>2026-04-10T15:04:05Z</time></trkpt><trkpt lat="44.453213549282864" lon="11.281227057699654"><ele>68.0</ele><time>2026-04-10T15:04:06Z</time></trkpt><trkpt lat="44.45346225536956" lon="11.281253647098916"><ele>68.0</ele><time>2026-04-10T15:04:07Z</time></trkpt><trkpt lat="44.453710965719424" lon="11.281262069996814"><ele>68.0</ele><time>2026-04-10T15:04:08Z</time></trkpt><trkpt lat="44.453957825148805" lon="11.281257471071925"><ele>68.5</ele><time>2026-04-10T15:04:09Z</time></trkpt><trkpt lat="44.45420303340936" lon="11.28124012491671"><ele>69.0</ele><time>2026-04-10T15:04:10Z</time></trkpt><trkpt lat="44.46757901337206" lon="11.274534866827556"><ele>72.5</ele><time>2026-04-10T15:05:11Z</time></trkpt><trkpt lat="44.4678187495289" lon="11.27449017807843"><ele>76.0</ele><time>2026-04-10T15:05:12Z</time></trkpt><trkpt lat="44.468057136061155" lon="11.274437715409274"><ele>76.0</ele><time>2026-04-10T15:05:13Z</time></trkpt><trkpt lat="44.468289837716384" lon="11.274371749036455"><ele>76.0</ele><time>2026-04-10T15:05:14Z</time></trkpt><trkpt lat="44.468519406563836" lon="11.274289777206313"><ele>76.0</ele><time>2026-04-10T15:05:15Z</time></trkpt><trkpt lat="44.468743998822625" lon="11.274197435127872"><ele>76.0</ele><time>2026-04-10T15:05:16Z</time></trkpt><trkpt lat="44.46896857704497" lon="11.274096576736657"><ele>77.0</ele><time>2026-04-10T15:05:17Z</time></trkpt><trkpt lat="44.469187527604085" lon="11.273977541914602"><ele>78.0</ele><time>2026-04-10T15:05:18Z</time></trkpt><trkpt lat="44.469401516335616" lon="11.273847035400857"><ele>78.0</ele><time>2026-04-10T15:05:19Z</time></trkpt><trkpt lat="44.46960693773619" lon="11.27370054213506"><ele>78.0</ele><time>2026-04-10T15:05:20Z</time></trkpt><trkpt lat="44.46981187748598" lon="11.273552760762795"><ele>79.0</ele><time>2026-04-10T15:05:21Z</time></trkpt><trkpt lat="44.470025518313385" lon="11.273404749235183"><ele>80.0</ele><time>2026-04-10T15:05:22Z</time></trkpt><trkpt lat="44.47021296065528" lon="11.27322132238866"><ele>80.0</ele><time>2026-04-10T15:05:23Z</time></trkpt><trkpt lat="44.470395923308146" lon="11.273030592560445"><ele>80.0</ele><time>2026-04-10T15:05:24Z</time></trkpt><trkpt lat="44.47057993224912" lon="11.272836472845958"><ele>78.5</ele><time>2026-04-10T15:05:25Z</time></trkpt><trkpt lat="44.47075932221558" lon="11.27263781385177"><ele>77.0</ele><time>2026-04-10T15:05:26Z</time></trkpt><trkpt lat="44.470929403114" lon="11.272434510194955"><ele>78.0</ele><time>2026-04-10T15:05:27Z</time></trkpt><trkpt lat="44.47110487881744" lon="11.272234364831881"><ele>79.0</ele><time>2026-04-10T15:05:28Z</time></trkpt><trkpt lat="44.471279835387485" lon="11.272042650283318"><ele>80.0</ele><time>2026-04-10T15:05:29Z</time></trkpt><trkpt lat="44.471449431004984" lon="11.271842690516982"><ele>81.0</ele><time>2026-04-10T15:05:30Z</time></trkpt><trkpt lat="44.471615905335035" lon="11.271640506732888"><ele>82.0</ele><time>2026-04-10T15:05:31Z</time></trkpt><trkpt lat="44.47177916311806" lon="11.27146295262831"><ele>83.0</ele><time>2026-04-10T15:05:32Z</time></trkpt><trkpt lat="44.47193649657198" lon="11.271284605714879"><ele>83.66666666666667</ele><time>2026-04-10T15:05:33Z</time></trkpt><trkpt lat="44.472102225871275" lon="11.271092588036955"><ele>84.33333333333333</ele><time>2026-04-10T15:05:34Z</time></trkpt><trkpt lat="44.47226892225135" lon="11.27089541134199"><ele>85.0</ele><time>2026-04-10T15:05:35Z</time></trkpt><trkpt lat="44.4724363042037" lon="11.270703583358634"><ele>88.5</ele><time>2026-04-10T15:05:36Z</time></trkpt><trkpt lat="44.4726127043848" lon="11.270500546266128"><ele>92.0</ele><time>2026-04-10T15:05:37Z</time></trkpt><trkpt lat="44.47279420851375" lon="11.270301677157672"><ele>90.5</ele><time>2026-04-10T15:05:38Z</time></trkpt><trkpt lat="44.47297913160241" lon="11.270093175577593"><ele>89.0</ele><time>2026-04-10T15:05:39Z</time></trkpt><trkpt lat="44.4731703917845" lon="11.269895934398075"><ele>96.0</ele><time>2026-04-10T15:05:40Z</time></trkpt><trkpt lat="44.4733698696379" lon="11.269697904242618"><ele>103.0</ele><time>2026-04-10T15:05:41Z</time></trkpt><trkpt lat="44.47357723696382" lon="11.269496507583522"><ele>98.5</ele><time>2026-04-10T15:05:42Z</time></trkpt><trkpt lat="44.47378082468504" lon="11.269303749053813"><ele>94.0</ele><time>2026-04-10T15:05:43Z</time></trkpt><trkpt lat="44.47399403301067" lon="11.269125456229556"><ele>104.0</ele><time>2026-04-10T15:05:44Z</time></trkpt><trkpt lat="44.474197026827085" lon="11.268932417651532"><ele>114.0</ele><time>2026-04-10T15:05:45Z</time></trkpt><trkpt lat="44.47439659186676" lon="11.268745116947247"><ele>114.0</ele><time>2026-04-10T15:05:46Z</time></trkpt><trkpt lat="44.474593706584386" lon="11.268558732287618"><ele>114.0</ele><time>2026-04-10T15:05:47Z</time></trkpt><trkpt lat="44.474789586169" lon="11.268373683616538"><ele>113.0</ele><time>2026-04-10T15:05:48Z</time></trkpt><trkpt lat="44.47498732179358" lon="11.26818778611223"><ele>112.0</ele><time>2026-04-10T15:05:49Z</time></trkpt><trkpt lat="44.475188074841014" lon="11.268000152187867"><ele>112.0</ele><time>2026-04-10T15:05:50Z</time></trkpt><trkpt lat="44.47539104420147" lon="11.267809636307842"><ele>112.0</ele><time>2026-04-10T15:05:51Z</time></trkpt><trkpt lat="44.47559515895715" lon="11.267616053253768"><ele>104.5</ele><time>2026-04-10T15:05:52Z</time></trkpt><trkpt lat="44.47579261024201" lon="11.267426280231971"><ele>97.0</ele><time>2026-04-10T15:05:53Z</time></trkpt><trkpt lat="44.475989387235806" lon="11.26724228391398"><ele>97.0</ele><time>2026-04-10T15:05:54Z</time></trkpt><trkpt lat="44.47618684558947" lon="11.267056658423817"><ele>97.0</ele><time>2026-04-10T15:05:55Z</time></trkpt><trkpt lat="44.476385761360326" lon="11.26687188693021"><ele>90.5</ele><time>2026-04-10T15:05:56Z</time></trkpt><trkpt lat="44.47658394991937" lon="11.26668378593203"><ele>84.0</ele><time>2026-04-10T15:05:57Z</time></trkpt><trkpt lat="44.476782544944854" lon="11.266500724634462"><ele>83.0</ele><time>2026-04-10T15:05:58Z</time></trkpt><trkpt lat="44.476983208285084" lon="11.26631084199481"><ele>82.0</ele><time>2026-04-10T15:05:59Z</time></trkpt><trkpt lat="44.47718137572318" lon="11.266120146953869"><ele>82.0</ele><time>2026-04-10T15:06:00Z</time></trkpt><trkpt lat="44.47738233041529" lon="11.265928189462098"><ele>82.0</ele><time>2026-04-10T15:06:01Z</time></trkpt><trkpt lat="44.477585411169066" lon="11.265736591392935"><ele>82.0</ele><time>2026-04-10T15:06:02Z</time></trkpt><trkpt lat="44.477789320287485" lon="11.265541210283534"><ele>82.0</ele><time>2026-04-10T15:06:03Z</time></trkpt><trkpt lat="44.47799477867551" lon="11.265352013145673"><ele>82.0</ele><time>2026-04-10T15:06:04Z</time></trkpt><trkpt lat="44.478204073406786" lon="11.26515927917649"><ele>82.0</ele><time>2026-04-10T15:06:05Z</time></trkpt><trkpt lat="44.47840939893657" lon="11.264967905671368"><ele>82.5</ele><time>2026-04-10T15:06:06Z</time></trkpt><trkpt lat="44.47862021895357" lon="11.264776344981605"><ele>83.0</ele><time>2026-04-10T15:06:07Z</time></trkpt><trkpt lat="44.4788300023529" lon="11.264581067992538"><ele>81.5</ele><time>2026-04-10T15:06:08Z</time></trkpt><trkpt lat="44.47904128606719" lon="11.264381401886197"><ele>80.0</ele><time>2026-04-10T15:06:09Z</time></trkpt><trkpt lat="44.47925147036689" lon="11.264181530774664"><ele>66.0</ele><time>2026-04-10T15:06:10Z</time></trkpt><trkpt lat="44.48965057888987" lon="11.250142761591029"><ele>66.0</ele><time>2026-04-10T15:07:11Z</time></trkpt><trkpt lat="44.489758286412915" lon="11.249834017545686"><ele>66.0</ele><time>2026-04-10T15:07:12Z</time></trkpt><trkpt lat="44.48986951590166" lon="11.249528419166653"><ele>66.0</ele><time>2026-04-10T15:07:13Z</time></trkpt><trkpt lat="44.48998079692734" lon="11.249220176834065"><ele>66.0</ele><time>2026-04-10T15:07:14Z</time></trkpt><trkpt lat="44.49009419576348" lon="11.248911679311226"><ele>66.5</ele><time>2026-04-10T15:07:15Z</time></trkpt><trkpt lat="44.490203669749825" lon="11.248601739457186"><ele>67.0</ele><time>2026-04-10T15:07:16Z</time></trkpt><trkpt lat="44.49031525981274" lon="11.24829227604684"><ele>65.5</ele><time>2026-04-10T15:07:17Z</time></trkpt><trkpt lat="44.49042901724699" lon="11.247983511156045"><ele>64.0</ele><time>2026-04-10T15:07:18Z</time></trkpt><trkpt lat="44.49053416012288" lon="11.247677414815081"><ele>64.0</ele><time>2026-04-10T15:07:19Z</time></trkpt><trkpt lat="44.49064575023565" lon="11.24737107723475"><ele>64.0</ele><time>2026-04-10T15:07:20Z</time></trkpt><trkpt lat="44.490756137819446" lon="11.247065886212157"><ele>64.5</ele><time>2026-04-10T15:07:21Z</time></trkpt><trkpt lat="44.490868555732675" lon="11.246764944343862"><ele>65.0</ele><time>2026-04-10T15:07:22Z</time></trkpt><trkpt lat="44.490982262901035" lon="11.246464439265841"><ele>66.0</ele><time>2026-04-10T15:07:23Z</time></trkpt><trkpt lat="44.49109084182418" lon="11.246161447807546"><ele>67.0</ele><time>2026-04-10T15:07:24Z</time></trkpt><trkpt lat="44.49120413409338" lon="11.245858221358475"><ele>66.0</ele><time>2026-04-10T15:07:25Z</time></trkpt><trkpt lat="44.49131312892392" lon="11.24555870984533"><ele>65.0</ele><time>2026-04-10T15:07:26Z</time></trkpt><trkpt lat="44.49141952888567" lon="11.245250604974576"><ele>65.0</ele><time>2026-04-10T15:07:27Z</time></trkpt><trkpt lat="44.49153067666978" lon="11.244941435974232"><ele>65.0</ele><time>2026-04-10T15:07:28Z</time></trkpt><trkpt lat="44.49164101624377" lon="11.244628659245897"><ele>64.0</ele><time>2026-04-10T15:07:29Z</time></trkpt><trkpt lat="44.49175579322087" lon="11.244314540035324"><ele>63.0</ele><time>2026-04-10T15:07:30Z</time></trkpt><trkpt lat="44.491863985940554" lon="11.244020326919628"><ele>64.0</ele><time>2026-04-10T15:07:31Z</time></trkpt><trkpt lat="44.491968287343596" lon="11.243737433974898"><ele>65.0</ele><time>2026-04-10T15:07:32Z</time></trkpt><trkpt lat="44.49207270258183" lon="11.243452445961907"><ele>66.0</ele><time>2026-04-10T15:07:33Z</time></trkpt><trkpt lat="44.492177163872164" lon="11.243161929947007"><ele>67.0</ele><time>2026-04-10T15:07:34.001Z</time></trkpt><trkpt lat="44.492278717493754" lon="11.242873495026485"><ele>67.0</ele><time>2026-04-10T15:07:35.001Z</time></trkpt><trkpt lat="44.49237858028736" lon="11.242594703197456"><ele>67.0</ele><time>2026-04-10T15:07:36.001Z</time></trkpt><trkpt lat="44.49248215551614" lon="11.242314259443178"><ele>67.0</ele><time>2026-04-10T15:07:37.001Z</time></trkpt><trkpt lat="44.492584961397895" lon="11.242029304016354"><ele>67.0</ele><time>2026-04-10T15:07:38.001Z</time></trkpt><trkpt lat="44.49268783342013" lon="11.241744556471188"><ele>67.0</ele><time>2026-04-10T15:07:39.001Z</time></trkpt><trkpt lat="44.492792481859404" lon="11.241459585617022"><ele>67.0</ele><time>2026-04-10T15:07:40.001Z</time></trkpt><trkpt lat="44.49289730357845" lon="11.24117540952977"><ele>67.0</ele><time>2026-04-10T15:07:41.001Z</time></trkpt><trkpt lat="44.49299997630088" lon="11.240888366507702"><ele>67.5</ele><time>2026-04-10T15:07:42.001Z</time></trkpt><trkpt lat="44.4931041015235" lon="11.240594785930044"><ele>68.0</ele><time>2026-04-10T15:07:43.001Z</time></trkpt><trkpt lat="44.49320913719427" lon="11.240300737892365"><ele>68.0</ele><time>2026-04-10T15:07:44.001Z</time></trkpt><trkpt lat="44.493315961036046" lon="11.240003967291832"><ele>68.0</ele><time>2026-04-10T15:07:45.001Z</time></trkpt><trkpt lat="44.493423377041125" lon="11.239709029877536"><ele>68.5</ele><time>2026-04-10T15:07:46.001Z</time></trkpt><trkpt lat="44.493531415560284" lon="11.239412505174442"><ele>69.0</ele><time>2026-04-10T15:07:47.001Z</time></trkpt><trkpt lat="44.4936396814882" lon="11.23911439695776"><ele>70.0</ele><time>2026-04-10T15:07:48.001Z</time></trkpt><trkpt lat="44.493747033696565" lon="11.238816952630799"><ele>71.0</ele><time>2026-04-10T15:07:49.001Z</time></trkpt><trkpt lat="44.493855767624325" lon="11.238516922494659"><ele>70.5</ele><time>2026-04-10T15:07:50.001Z</time></trkpt><trkpt lat="44.4939656124125" lon="11.238216466321518"><ele>70.0</ele><time>2026-04-10T15:07:51.001Z</time></trkpt><trkpt lat="44.49407846864671" lon="11.237912733122004"><ele>70.0</ele><time>2026-04-10T15:07:52.001Z</time></trkpt><trkpt lat="44.49418556589123" lon="11.237604852963772"><ele>70.0</ele><time>2026-04-10T15:07:53.001Z</time></trkpt><trkpt lat="44.49429383943199" lon="11.237298093080057"><ele>68.5</ele><time>2026-04-10T15:07:54.001Z</time></trkpt><trkpt lat="44.49440511516972" lon="11.236990886271125"><ele>67.0</ele><time>2026-04-10T15:07:55.001Z</time></trkpt><trkpt lat="44.49451689362217" lon="11.236682585306237"><ele>67.5</ele><time>2026-04-10T15:07:56.001Z</time></trkpt><trkpt lat="44.494629417136615" lon="11.236374054899606"><ele>68.0</ele><time>2026-04-10T15:07:57.001Z</time></trkpt><trkpt lat="44.494741661245705" lon="11.236064340278668"><ele>68.0</ele><time>2026-04-10T15:07:58.001Z</time></trkpt><trkpt lat="44.49484912109984" lon="11.235754990748186"><ele>68.0</ele><time>2026-04-10T15:07:59.001Z</time></trkpt><trkpt lat="44.49495832869241" lon="11.235459274696511"><ele>68.5</ele><time>2026-04-10T15:08:00.001Z</time></trkpt><trkpt lat="44.495066345252795" lon="11.235165070180845"><ele>69.0</ele><time>2026-04-10T15:08:01.001Z</time></trkpt><trkpt lat="44.49517748924795" lon="11.234870736325147"><ele>69.0</ele><time>2026-04-10T15:08:02.001Z</time></trkpt><trkpt lat="44.49528775507323" lon="11.234571847391493"><ele>69.0</ele><time>2026-04-10T15:08:03.001Z</time></trkpt><trkpt lat="44.49539558362875" lon="11.234270991561935"><ele>67.0</ele><time>2026-04-10T15:08:04.001Z</time></trkpt><trkpt lat="44.49550532722049" lon="11.233964914594937"><ele>65.0</ele><time>2026-04-10T15:08:05Z</time></trkpt><trkpt lat="44.495615012803285" lon="11.233658057577472"><ele>65.0</ele><time>2026-04-10T15:08:06Z</time></trkpt><trkpt lat="44.49572459226295" lon="11.233350269351227"><ele>65.0</ele><time>2026-04-10T15:08:07Z</time></trkpt><trkpt lat="44.49583684798132" lon="11.23303896933997"><ele>66.0</ele><time>2026-04-10T15:08:08Z</time></trkpt><trkpt lat="44.49595046785474" lon="11.232729043933483"><ele>67.0</ele><time>2026-04-10T15:08:09Z</time></trkpt><trkpt lat="44.49606125250645" lon="11.23241918014415"><ele>60.0</ele><time>2026-04-10T15:08:10Z</time></trkpt><trkpt lat="44.5025944475339" lon="11.214231250301795"><ele>60.5</ele><time>2026-04-10T15:09:11.001Z</time></trkpt><trkpt lat="44.50271271272843" lon="11.213901684680243"><ele>61.0</ele><time>2026-04-10T15:09:12.001Z</time></trkpt><trkpt lat="44.502830469423174" lon="11.213575562329979"><ele>60.5</ele><time>2026-04-10T15:09:13.001Z</time></trkpt><trkpt lat="44.50294695764661" lon="11.213252585796505"><ele>60.0</ele><time>2026-04-10T15:09:14.001Z</time></trkpt><trkpt lat="44.50306256619" lon="11.212933470981225"><ele>60.0</ele><time>2026-04-10T15:09:15.001Z</time></trkpt><trkpt lat="44.50317592469271" lon="11.212615363895411"><ele>60.0</ele><time>2026-04-10T15:09:16.001Z</time></trkpt><trkpt lat="44.5032882631134" lon="11.21229958720303"><ele>59.5</ele><time>2026-04-10T15:09:17.001Z</time></trkpt><trkpt lat="44.50340487393268" lon="11.211988781761594"><ele>59.0</ele><time>2026-04-10T15:09:18.001Z</time></trkpt><trkpt lat="44.50352058385073" lon="11.211680907331035"><ele>59.0</ele><time>2026-04-10T15:09:19.001Z</time></trkpt><trkpt lat="44.50363398045076" lon="11.211372636569855"><ele>59.0</ele><time>2026-04-10T15:09:20.001Z</time></trkpt><trkpt lat="44.50375078707239" lon="11.211067694888817"><ele>59.0</ele><time>2026-04-10T15:09:21.001Z</time></trkpt><trkpt lat="44.503872657968536" lon="11.210760066954746"><ele>59.0</ele><time>2026-04-10T15:09:22.001Z</time></trkpt><trkpt lat="44.50399535068119" lon="11.2104501822876"><ele>58.5</ele><time>2026-04-10T15:09:23.001Z</time></trkpt><trkpt lat="44.50411174967774" lon="11.210134714903857"><ele>58.0</ele><time>2026-04-10T15:09:24.001Z</time></trkpt><trkpt lat="44.50422506782796" lon="11.209814397008245"><ele>58.0</ele><time>2026-04-10T15:09:25.001Z</time></trkpt><trkpt lat="44.50433816034951" lon="11.209493163793548"><ele>58.0</ele><time>2026-04-10T15:09:26.001Z</time></trkpt><trkpt lat="44.50445247621328" lon="11.209174316664884"><ele>58.0</ele><time>2026-04-10T15:09:27.001Z</time></trkpt><trkpt lat="44.50456629007273" lon="11.208857050866786"><ele>58.0</ele><time>2026-04-10T15:09:28.001Z</time></trkpt><trkpt lat="44.50468105742592" lon="11.208539428465292"><ele>58.0</ele><time>2026-04-10T15:09:29.001Z</time></trkpt><trkpt lat="44.5047934983827" lon="11.208223942200497"><ele>58.0</ele><time>2026-04-10T15:09:30.001Z</time></trkpt><trkpt lat="44.504906626209966" lon="11.20790847554406"><ele>58.0</ele><time>2026-04-10T15:09:31.001Z</time></trkpt><trkpt lat="44.50501948295656" lon="11.207593695928795"><ele>58.0</ele><time>2026-04-10T15:09:32.001Z</time></trkpt><trkpt lat="44.505132504399214" lon="11.207278885501626"><ele>57.0</ele><time>2026-04-10T15:09:33.001Z</time></trkpt><trkpt lat="44.50524659225166" lon="11.2069654242032"><ele>56.0</ele><time>2026-04-10T15:09:34.001Z</time></trkpt><trkpt lat="44.50536485166327" lon="11.206650762623974"><ele>55.5</ele><time>2026-04-10T15:09:35.001Z</time></trkpt><trkpt lat="44.505482476515546" lon="11.206335409984325"><ele>55.0</ele><time>2026-04-10T15:09:36.001Z</time></trkpt><trkpt lat="44.505597969751776" lon="11.206019740278904"><ele>55.0</ele><time>2026-04-10T15:09:37.001Z</time></trkpt><trkpt lat="44.505709540956936" lon="11.205700953457239"><ele>55.0</ele><time>2026-04-10T15:09:38.001Z</time></trkpt><trkpt lat="44.50582266827311" lon="11.20538010118661"><ele>55.0</ele><time>2026-04-10T15:09:39.001Z</time></trkpt><trkpt lat="44.50593718116751" lon="11.20506037632596"><ele>55.0</ele><time>2026-04-10T15:09:40.001Z</time></trkpt><trkpt lat="44.5060530967742" lon="11.204741148452857"><ele>55.0</ele><time>2026-04-10T15:09:41.001Z</time></trkpt><trkpt lat="44.50616822366688" lon="11.204419153419648"><ele>55.0</ele><time>2026-04-10T15:09:42.001Z</time></trkpt><trkpt lat="44.506282874075005" lon="11.204095136055932"><ele>55.0</ele><time>2026-04-10T15:09:43.001Z</time></trkpt><trkpt lat="44.506398438589216" lon="11.203769875962175"><ele>55.0</ele><time>2026-04-10T15:09:44.001Z</time></trkpt><trkpt lat="44.50651511782879" lon="11.203445757805248"><ele>56.0</ele><time>2026-04-10T15:09:45.001Z</time></trkpt><trkpt lat="44.50663255146323" lon="11.203120667131406"><ele>57.0</ele><time>2026-04-10T15:09:46.001Z</time></trkpt><trkpt lat="44.50675002272105" lon="11.202799503250253"><ele>57.0</ele><time>2026-04-10T15:09:47.001Z</time></trkpt><trkpt lat="44.50686699171775" lon="11.202477576912003"><ele>57.0</ele><time>2026-04-10T15:09:48.001Z</time></trkpt><trkpt lat="44.50698448616321" lon="11.202150694895662"><ele>57.0</ele><time>2026-04-10T15:09:49.001Z</time></trkpt><trkpt lat="44.50710196957777" lon="11.201822968505711"><ele>57.0</ele><time>2026-04-10T15:09:50.001Z</time></trkpt><trkpt lat="44.507218792149445" lon="11.20149371151385"><ele>57.0</ele><time>2026-04-10T15:09:51.001Z</time></trkpt><trkpt lat="44.50733695271468" lon="11.2011660845751"><ele>57.0</ele><time>2026-04-10T15:09:52.001Z</time></trkpt><trkpt lat="44.507453362063984" lon="11.200847357789764"><ele>56.5</ele><time>2026-04-10T15:09:53.001Z</time></trkpt><trkpt lat="44.507566995993315" lon="11.2005316133365"><ele>56.0</ele><time>2026-04-10T15:09:54.001Z</time></trkpt><trkpt lat="44.507682449453775" lon="11.200218381681728"><ele>56.0</ele><time>2026-04-10T15:09:55.001Z</time></trkpt><trkpt lat="44.50779642834126" lon="11.199909008712668"><ele>56.0</ele><time>2026-04-10T15:09:56.001Z</time></trkpt><trkpt lat="44.50790850789054" lon="11.199599188852346"><ele>56.0</ele><time>2026-04-10T15:09:57.001Z</time></trkpt><trkpt lat="44.508019772854226" lon="11.199287060220932"><ele>56.0</ele><time>2026-04-10T15:09:58.001Z</time></trkpt><trkpt lat="44.50813122933697" lon="11.198979570061402"><ele>56.5</ele><time>2026-04-10T15:09:59.001Z</time></trkpt><trkpt lat="44.50824510727589" lon="11.198667881629763"><ele>57.0</ele><time>2026-04-10T15:10:00.001Z</time></trkpt><trkpt lat="44.50835737899897" lon="11.198356820582072"><ele>57.0</ele><time>2026-04-10T15:10:01.001Z</time></trkpt><trkpt lat="44.50846807749526" lon="11.198046956698416"><ele>57.0</ele><time>2026-04-10T15:10:02.001Z</time></trkpt><trkpt lat="44.50857658920681" lon="11.197739761447504"><ele>57.0</ele><time>2026-04-10T15:10:03.001Z</time></trkpt><trkpt lat="44.5086868000782" lon="11.197433458782069"><ele>57.0</ele><time>2026-04-10T15:10:04.001Z</time></trkpt><trkpt lat="44.50879466884667" lon="11.197127763667051"><ele>56.5</ele><time>2026-04-10T15:10:05.001Z</time></trkpt><trkpt lat="44.508901312566145" lon="11.196822044642206"><ele>56.0</ele><time>2026-04-10T15:10:06.001Z</time></trkpt><trkpt lat="44.50900996793745" lon="11.19651775645557"><ele>54.5</ele><time>2026-04-10T15:10:07.001Z</time></trkpt><trkpt lat="44.50912075500966" lon="11.196219014838071"><ele>53.0</ele><time>2026-04-10T15:10:08.001Z</time></trkpt><trkpt lat="44.509229061024584" lon="11.195918706639317"><ele>53.5</ele><time>2026-04-10T15:10:09.001Z</time></trkpt><trkpt lat="44.509335335579834" lon="11.195619394270066"><ele>54.0</ele><time>2026-04-10T15:10:10.001Z</time></trkpt><trkpt lat="44.516092162034354" lon="11.176890063738089"><ele>52.0</ele><time>2026-04-10T15:11:11Z</time></trkpt><trkpt lat="44.51621134497882" lon="11.176550123372177"><ele>50.0</ele><time>2026-04-10T15:11:12Z</time></trkpt><trkpt lat="44.516327587531485" lon="11.176222152764542"><ele>50.0</ele><time>2026-04-10T15:11:13Z</time></trkpt><trkpt lat="44.516445149420264" lon="11.175895366488579"><ele>50.0</ele><time>2026-04-10T15:11:14Z</time></trkpt><trkpt lat="44.51656312326118" lon="11.175572467249019"><ele>52.0</ele><time>2026-04-10T15:11:15Z</time></trkpt><trkpt lat="44.51667667481268" lon="11.175260350713712"><ele>54.0</ele><time>2026-04-10T15:11:16Z</time></trkpt><trkpt lat="44.51679011571562" lon="11.174946880724145"><ele>53.0</ele><time>2026-04-10T15:11:17Z</time></trkpt><trkpt lat="44.51690327842694" lon="11.174634624482138"><ele>52.0</ele><time>2026-04-10T15:11:18Z</time></trkpt><trkpt lat="44.51701842995704" lon="11.174325711081977"><ele>52.0</ele><time>2026-04-10T15:11:19Z</time></trkpt><trkpt lat="44.517134402954035" lon="11.174014221485653"><ele>52.0</ele><time>2026-04-10T15:11:20Z</time></trkpt><trkpt lat="44.51724935429153" lon="11.17370223656361"><ele>52.0</ele><time>2026-04-10T15:11:21Z</time></trkpt><trkpt lat="44.517361266628185" lon="11.173384944221437"><ele>52.0</ele><time>2026-04-10T15:11:22Z</time></trkpt><trkpt lat="44.51747581602478" lon="11.173066705182"><ele>51.0</ele><time>2026-04-10T15:11:23Z</time></trkpt><trkpt lat="44.51758989535159" lon="11.172744884720574"><ele>50.0</ele><time>2026-04-10T15:11:24Z</time></trkpt><trkpt lat="44.51770253422962" lon="11.17243274856014"><ele>49.5</ele><time>2026-04-10T15:11:25Z</time></trkpt><trkpt lat="44.51781436623883" lon="11.172123621625948"><ele>49.0</ele><time>2026-04-10T15:11:26Z</time></trkpt><trkpt lat="44.51791868741545" lon="11.171823406241364"><ele>49.0</ele><time>2026-04-10T15:11:27Z</time></trkpt><trkpt lat="44.518022186447745" lon="11.171533500168453"><ele>49.0</ele><time>2026-04-10T15:11:28Z</time></trkpt><trkpt lat="44.51812980802547" lon="11.171240031618659"><ele>49.5</ele><time>2026-04-10T15:11:29Z</time></trkpt><trkpt lat="44.51823720662052" lon="11.170941000597303"><ele>50.0</ele><time>2026-04-10T15:11:30Z</time></trkpt><trkpt lat="44.518343131666946" lon="11.17063961332131"><ele>50.0</ele><time>2026-04-10T15:11:31Z</time></trkpt><trkpt lat="44.51845016983459" lon="11.170337219752705"><ele>50.0</ele><time>2026-04-10T15:11:32Z</time></trkpt><trkpt lat="44.518557537457276" lon="11.170032511667891"><ele>50.5</ele><time>2026-04-10T15:11:33Z</time></trkpt><trkpt lat="44.518663883885516" lon="11.169727531108727"><ele>51.0</ele><time>2026-04-10T15:11:34Z</time></trkpt><trkpt lat="44.51876914032857" lon="11.169420974260168"><ele>51.0</ele><time>2026-04-10T15:11:35Z</time></trkpt><trkpt lat="44.51887493092845" lon="11.16911353442154"><ele>51.0</ele><time>2026-04-10T15:11:36Z</time></trkpt><trkpt lat="44.518982212606176" lon="11.168807134153155"><ele>52.0</ele><time>2026-04-10T15:11:37Z</time></trkpt><trkpt lat="44.519089823569864" lon="11.168500184457562"><ele>53.0</ele><time>2026-04-10T15:11:38Z</time></trkpt><trkpt lat="44.51919991137746" lon="11.168196599272239"><ele>53.0</ele><time>2026-04-10T15:11:39Z</time></trkpt><trkpt lat="44.5193098857664" lon="11.167892671464504"><ele>53.0</ele><time>2026-04-10T15:11:40Z</time></trkpt><trkpt lat="44.519419118534465" lon="11.167585035813898"><ele>52.5</ele><time>2026-04-10T15:11:41Z</time></trkpt><trkpt lat="44.51953137294128" lon="11.1672672868052"><ele>52.0</ele><time>2026-04-10T15:11:42Z</time></trkpt><trkpt lat="44.5196414598496" lon="11.166949439105027"><ele>51.5</ele><time>2026-04-10T15:11:43Z</time></trkpt><trkpt lat="44.51974972464916" lon="11.166629327446268"><ele>51.0</ele><time>2026-04-10T15:11:44Z</time></trkpt><trkpt lat="44.5198584252995" lon="11.166306273243038"><ele>51.0</ele><time>2026-04-10T15:11:45Z</time></trkpt><trkpt lat="44.51996479661314" lon="11.165981125905097"><ele>51.0</ele><time>2026-04-10T15:11:46Z</time></trkpt><trkpt lat="44.520072121545674" lon="11.165654281802494"><ele>51.0</ele><time>2026-04-10T15:11:47Z</time></trkpt><trkpt lat="44.52018028399278" lon="11.165331636857706"><ele>51.0</ele><time>2026-04-10T15:11:48Z</time></trkpt><trkpt lat="44.52029235228782" lon="11.165006251166195"><ele>50.5</ele><time>2026-04-10T15:11:49Z</time></trkpt><trkpt lat="44.520401752190466" lon="11.16468678289807"><ele>50.0</ele><time>2026-04-10T15:11:50Z</time></trkpt><trkpt lat="44.52050891933831" lon="11.164375953884635"><ele>50.0</ele><time>2026-04-10T15:11:51Z</time></trkpt><trkpt lat="44.520615282308206" lon="11.164062255579593"><ele>50.0</ele><time>2026-04-10T15:11:52Z</time></trkpt><trkpt lat="44.520720675523314" lon="11.163745463532988"><ele>49.5</ele><time>2026-04-10T15:11:53Z</time></trkpt><trkpt lat="44.520826587096494" lon="11.163423850624586"><ele>49.0</ele><time>2026-04-10T15:11:54Z</time></trkpt><trkpt lat="44.520935678274114" lon="11.163101557530824"><ele>50.0</ele><time>2026-04-10T15:11:55Z</time></trkpt><trkpt lat="44.521046039822686" lon="11.16277666211811"><ele>51.0</ele><time>2026-04-10T15:11:56Z</time></trkpt><trkpt lat="44.52115772041678" lon="11.162448325394077"><ele>51.0</ele><time>2026-04-10T15:11:57Z</time></trkpt><trkpt lat="44.52126795025673" lon="11.162122523287195"><ele>51.0</ele><time>2026-04-10T15:11:58Z</time></trkpt><trkpt lat="44.52137922856645" lon="11.161796524416626"><ele>52.0</ele><time>2026-04-10T15:11:59Z</time></trkpt><trkpt lat="44.52149209240141" lon="11.161470362774029"><ele>53.0</ele><time>2026-04-10T15:12:00Z</time></trkpt><trkpt lat="44.52160380639276" lon="11.16114257377306"><ele>53.0</ele><time>2026-04-10T15:12:01Z</time></trkpt><trkpt lat="44.52171071495838" lon="11.16081465474022"><ele>53.0</ele><time>2026-04-10T15:12:02Z</time></trkpt><trkpt lat="44.52182112177637" lon="11.16048527745197"><ele>53.0</ele><time>2026-04-10T15:12:03Z</time></trkpt><trkpt lat="44.521932635077526" lon="11.160158973289317"><ele>53.0</ele><time>2026-04-10T15:12:04Z</time></trkpt><trkpt lat="44.5220421021349" lon="11.159846479246369"><ele>52.5</ele><time>2026-04-10T15:12:05Z</time></trkpt><trkpt lat="44.52214704707784" lon="11.159538429241467"><ele>52.0</ele><time>2026-04-10T15:12:06Z</time></trkpt><trkpt lat="44.52225306204513" lon="11.1592263525315"><ele>51.0</ele><time>2026-04-10T15:12:07Z</time></trkpt><trkpt lat="44.522357545882834" lon="11.158911463500148"><ele>50.0</ele><time>2026-04-10T15:12:08Z</time></trkpt><trkpt lat="44.522466289505225" lon="11.158590372002589"><ele>50.0</ele><time>2026-04-10T15:12:09Z</time></trkpt><trkpt lat="44.52257655129217" lon="11.158264241666158"><ele>50.0</ele><time>2026-04-10T15:12:10Z</time></trkpt><trkpt lat="44.52881043666528" lon="11.13991018255469"><ele>51.0</ele><time>2026-04-10T15:13:11.001Z</time></trkpt><trkpt lat="44.52891186229105" lon="11.139595931213814"><ele>52.0</ele><time>2026-04-10T15:13:12.001Z</time></trkpt><trkpt lat="44.52900920509826" lon="11.139278417621206"><ele>52.5</ele><time>2026-04-10T15:13:13.001Z</time></trkpt><trkpt lat="44.529109977047504" lon="11.13896460686289"><ele>53.0</ele><time>2026-04-10T15:13:14.001Z</time></trkpt><trkpt lat="44.52921484006382" lon="11.138643908241463"><ele>53.0</ele><time>2026-04-10T15:13:15.001Z</time></trkpt><trkpt lat="44.52932065204097" lon="11.138325580227864"><ele>53.0</ele><time>2026-04-10T15:13:16.001Z</time></trkpt><trkpt lat="44.529430276334836" lon="11.1380063948405"><ele>54.5</ele><time>2026-04-10T15:13:17.001Z</time></trkpt><trkpt lat="44.52953991972456" lon="11.137688452096908"><ele>56.0</ele><time>2026-04-10T15:13:18.001Z</time></trkpt><trkpt lat="44.52964915137562" lon="11.137369266815158"><ele>56.0</ele><time>2026-04-10T15:13:19.001Z</time></trkpt><trkpt lat="44.52975580113692" lon="11.13704929562262"><ele>56.0</ele><time>2026-04-10T15:13:20.001Z</time></trkpt><trkpt lat="44.52986230432593" lon="11.136728652744413"><ele>55.5</ele><time>2026-04-10T15:13:21.001Z</time></trkpt><trkpt lat="44.52997007092421" lon="11.13640955994978"><ele>55.0</ele><time>2026-04-10T15:13:22.001Z</time></trkpt><trkpt lat="44.53007546171712" lon="11.136092989957666"><ele>55.0</ele><time>2026-04-10T15:13:23.001Z</time></trkpt><trkpt lat="44.53018702565273" lon="11.13577565401107"><ele>55.0</ele><time>2026-04-10T15:13:24.001Z</time></trkpt><trkpt lat="44.530291564430854" lon="11.135458303217828"><ele>54.0</ele><time>2026-04-10T15:13:25.001Z</time></trkpt><trkpt lat="44.53039623989925" lon="11.135142888431453"><ele>53.0</ele><time>2026-04-10T15:13:26.001Z</time></trkpt><trkpt lat="44.53051126420447" lon="11.134833988029138"><ele>53.0</ele><time>2026-04-10T15:13:27.001Z</time></trkpt><trkpt lat="44.530612575877086" lon="11.13451633566272"><ele>53.0</ele><time>2026-04-10T15:13:28.001Z</time></trkpt><trkpt lat="44.53072323485436" lon="11.134207549413707"><ele>54.5</ele><time>2026-04-10T15:13:29.001Z</time></trkpt><trkpt lat="44.530829987042175" lon="11.13389120460467"><ele>56.0</ele><time>2026-04-10T15:13:30.001Z</time></trkpt><trkpt lat="44.53093980690219" lon="11.133577435699504"><ele>56.0</ele><time>2026-04-10T15:13:31.001Z</time></trkpt><trkpt lat="44.53104791054711" lon="11.133259742969631"><ele>56.0</ele><time>2026-04-10T15:13:32.001Z</time></trkpt><trkpt lat="44.53115416607057" lon="11.13294386221768"><ele>54.5</ele><time>2026-04-10T15:13:33.001Z</time></trkpt><trkpt lat="44.53126893641842" lon="11.132628420024467"><ele>53.0</ele><time>2026-04-10T15:13:34.001Z</time></trkpt><trkpt lat="44.53137916957194" lon="11.132312577312602"><ele>53.0</ele><time>2026-04-10T15:13:35.001Z</time></trkpt><trkpt lat="44.53149054162822" lon="11.132000574922083"><ele>53.0</ele><time>2026-04-10T15:13:36.001Z</time></trkpt><trkpt lat="44.53160171296628" lon="11.13168887162888"><ele>54.5</ele><time>2026-04-10T15:13:37.001Z</time></trkpt><trkpt lat="44.5317084444523" lon="11.13137432284881"><ele>56.0</ele><time>2026-04-10T15:13:38.001Z</time></trkpt><trkpt lat="44.53181852321647" lon="11.131060651395755"><ele>56.0</ele><time>2026-04-10T15:13:39.001Z</time></trkpt><trkpt lat="44.531930629369434" lon="11.130744739027753"><ele>56.0</ele><time>2026-04-10T15:13:40.001Z</time></trkpt><trkpt lat="44.5320390077909" lon="11.130428897554653"><ele>55.5</ele><time>2026-04-10T15:13:41.001Z</time></trkpt><trkpt lat="44.53214867133645" lon="11.13011482208149"><ele>55.0</ele><time>2026-04-10T15:13:42.001Z</time></trkpt><trkpt lat="44.53225373588352" lon="11.129798650199417"><ele>54.5</ele><time>2026-04-10T15:13:43.001Z</time></trkpt><trkpt lat="44.5323614217372" lon="11.129479180460114"><ele>54.0</ele><time>2026-04-10T15:13:44.001Z</time></trkpt><trkpt lat="44.532468649834364" lon="11.129167054294975"><ele>55.0</ele><time>2026-04-10T15:13:45.001Z</time></trkpt><trkpt lat="44.53257490447114" lon="11.12885376294339"><ele>56.0</ele><time>2026-04-10T15:13:46.001Z</time></trkpt><trkpt lat="44.53268003966281" lon="11.128538488588944"><ele>56.0</ele><time>2026-04-10T15:13:47.001Z</time></trkpt><trkpt lat="44.53278311337101" lon="11.128228499328305"><ele>56.0</ele><time>2026-04-10T15:13:48.001Z</time></trkpt><trkpt lat="44.532889565461744" lon="11.127914536803488"><ele>55.0</ele><time>2026-04-10T15:13:49.001Z</time></trkpt><trkpt lat="44.532995909036046" lon="11.12760690769075"><ele>54.0</ele><time>2026-04-10T15:13:50.001Z</time></trkpt><trkpt lat="44.53310122011468" lon="11.127298086964087"><ele>54.0</ele><time>2026-04-10T15:13:51.001Z</time></trkpt><trkpt lat="44.53320601198308" lon="11.126987118689518"><ele>54.0</ele><time>2026-04-10T15:13:52.001Z</time></trkpt><trkpt lat="44.533309982814984" lon="11.12667349117299"><ele>54.0</ele><time>2026-04-10T15:13:53.001Z</time></trkpt><trkpt lat="44.53341542020016" lon="11.126359979004317"><ele>54.0</ele><time>2026-04-10T15:13:54.001Z</time></trkpt><trkpt lat="44.53352388023118" lon="11.126049465824908"><ele>54.0</ele><time>2026-04-10T15:13:55.001Z</time></trkpt><trkpt lat="44.533635101086574" lon="11.125740102242606"><ele>54.0</ele><time>2026-04-10T15:13:56.001Z</time></trkpt><trkpt lat="44.53374529454877" lon="11.125430912999239"><ele>54.0</ele><time>2026-04-10T15:13:57.001Z</time></trkpt><trkpt lat="44.533852939745316" lon="11.125116188972699"><ele>54.0</ele><time>2026-04-10T15:13:58.001Z</time></trkpt><trkpt lat="44.53396433712427" lon="11.124804128471462"><ele>54.0</ele><time>2026-04-10T15:13:59.001Z</time></trkpt><trkpt lat="44.53408098638901" lon="11.124494200927504"><ele>54.0</ele><time>2026-04-10T15:14:00.001Z</time></trkpt><trkpt lat="44.534201401648886" lon="11.124181756536927"><ele>55.0</ele><time>2026-04-10T15:14:01.001Z</time></trkpt><trkpt lat="44.534316944641844" lon="11.123866180264233"><ele>56.0</ele><time>2026-04-10T15:14:02.001Z</time></trkpt><trkpt lat="44.53443380746394" lon="11.123550321360451"><ele>56.0</ele><time>2026-04-10T15:14:03.001Z</time></trkpt><trkpt lat="44.53455426064682" lon="11.123232068844347"><ele>56.0</ele><time>2026-04-10T15:14:04.001Z</time></trkpt><trkpt lat="44.5346768101195" lon="11.12291448572939"><ele>56.0</ele><time>2026-04-10T15:14:05.001Z</time></trkpt><trkpt lat="44.53479872139706" lon="11.122599442286095"><ele>56.0</ele><time>2026-04-10T15:14:06.001Z</time></trkpt><trkpt lat="44.53492037009931" lon="11.122286252832097"><ele>56.0</ele><time>2026-04-10T15:14:07.001Z</time></trkpt><trkpt lat="44.5350392096941" lon="11.121981114600803"><ele>56.0</ele><time>2026-04-10T15:14:08.001Z</time></trkpt><trkpt lat="44.53515817470193" lon="11.121681290815491"><ele>55.5</ele><time>2026-04-10T15:14:09.001Z</time></trkpt><trkpt lat="44.53527389817482" lon="11.121380194899887"><ele>55.0</ele><time>2026-04-10T15:14:10.001Z</time></trkpt><trkpt lat="44.542481375980294" lon="11.10256543081599"><ele>54.5</ele><time>2026-04-10T15:15:11Z</time></trkpt><trkpt lat="44.54258958376448" lon="11.102279685288886"><ele>54.0</ele><time>2026-04-10T15:15:12Z</time></trkpt><trkpt lat="44.54270041760287" lon="11.101984745889238"><ele>54.0</ele><time>2026-04-10T15:15:13Z</time></trkpt><trkpt lat="44.54281347860126" lon="11.10169291817414"><ele>54.0</ele><time>2026-04-10T15:15:14Z</time></trkpt><trkpt lat="44.54292714166364" lon="11.101394011745052"><ele>54.5</ele><time>2026-04-10T15:15:15Z</time></trkpt><trkpt lat="44.54304046871545" lon="11.101099106035697"><ele>55.0</ele><time>2026-04-10T15:15:16Z</time></trkpt><trkpt lat="44.54315644159673" lon="11.100799778154832"><ele>54.0</ele><time>2026-04-10T15:15:17.001Z</time></trkpt><trkpt lat="44.543271797062026" lon="11.100500834158575"><ele>53.0</ele><time>2026-04-10T15:15:18.001Z</time></trkpt><trkpt lat="44.54338853839956" lon="11.10019841389778"><ele>53.0</ele><time>2026-04-10T15:15:19.001Z</time></trkpt><trkpt lat="44.54350046410383" lon="11.099894602956335"><ele>53.0</ele><time>2026-04-10T15:15:20.001Z</time></trkpt><trkpt lat="44.54361594479242" lon="11.09957812297612"><ele>53.0</ele><time>2026-04-10T15:15:21.001Z</time></trkpt><trkpt lat="44.54373380018336" lon="11.099290104777609"><ele>53.0</ele><time>2026-04-10T15:15:22.001Z</time></trkpt><trkpt lat="44.54385190942049" lon="11.098985284055878"><ele>52.5</ele><time>2026-04-10T15:15:23.001Z</time></trkpt><trkpt lat="44.543969373619824" lon="11.098681788017569"><ele>52.0</ele><time>2026-04-10T15:15:24.001Z</time></trkpt><trkpt lat="44.54408423676641" lon="11.098375950424764"><ele>52.5</ele><time>2026-04-10T15:15:25.001Z</time></trkpt><trkpt lat="44.54419862600303" lon="11.098071054530372"><ele>53.0</ele><time>2026-04-10T15:15:26.001Z</time></trkpt><trkpt lat="44.54431357952759" lon="11.09776876284667"><ele>53.0</ele><time>2026-04-10T15:15:27.001Z</time></trkpt><trkpt lat="44.544430532324846" lon="11.09746305531576"><ele>53.0</ele><time>2026-04-10T15:15:28.001Z</time></trkpt><trkpt lat="44.54454839440701" lon="11.097155367308554"><ele>54.0</ele><time>2026-04-10T15:15:29.001Z</time></trkpt><trkpt lat="44.544667156976104" lon="11.09684993140296"><ele>55.0</ele><time>2026-04-10T15:15:30.001Z</time></trkpt><trkpt lat="44.54478632938018" lon="11.09654361525653"><ele>56.0</ele><time>2026-04-10T15:15:31.001Z</time></trkpt><trkpt lat="44.54490780011016" lon="11.096234845620334"><ele>57.0</ele><time>2026-04-10T15:15:32.001Z</time></trkpt><trkpt lat="44.54502682070069" lon="11.095925107679635"><ele>56.5</ele><time>2026-04-10T15:15:33.001Z</time></trkpt><trkpt lat="44.54514649467391" lon="11.09561381768642"><ele>56.0</ele><time>2026-04-10T15:15:34.001Z</time></trkpt><trkpt lat="44.54526417213877" lon="11.09530115642709"><ele>55.0</ele><time>2026-04-10T15:15:35.001Z</time></trkpt><trkpt lat="44.545382051419175" lon="11.094988376576223"><ele>54.0</ele><time>2026-04-10T15:15:36.001Z</time></trkpt><trkpt lat="44.54549951601322" lon="11.094677533844276"><ele>54.0</ele><time>2026-04-10T15:15:37.001Z</time></trkpt><trkpt lat="44.54561996666779" lon="11.094373310928907"><ele>54.0</ele><time>2026-04-10T15:15:38.001Z</time></trkpt><trkpt lat="44.545739087182284" lon="11.094065948390798"><ele>54.0</ele><time>2026-04-10T15:15:39.001Z</time></trkpt><trkpt lat="44.54585635674152" lon="11.093758523771143"><ele>54.0</ele><time>2026-04-10T15:15:40.001Z</time></trkpt><trkpt lat="44.54597441412544" lon="11.093451383082694"><ele>53.5</ele><time>2026-04-10T15:15:41.001Z</time></trkpt><trkpt lat="44.54609256282981" lon="11.093145145905819"><ele>53.0</ele><time>2026-04-10T15:15:42.001Z</time></trkpt><trkpt lat="44.54620840020241" lon="11.092837290005416"><ele>53.5</ele><time>2026-04-10T15:15:43.001Z</time></trkpt><trkpt lat="44.54632602478952" lon="11.092528880710018"><ele>54.0</ele><time>2026-04-10T15:15:44.001Z</time></trkpt><trkpt lat="44.54644271547421" lon="11.092221373233734"><ele>54.5</ele><time>2026-04-10T15:15:45.001Z</time></trkpt><trkpt lat="44.54655907497954" lon="11.091915758121349"><ele>55.0</ele><time>2026-04-10T15:15:46.001Z</time></trkpt><trkpt lat="44.546675931321914" lon="11.09160998926289"><ele>55.0</ele><time>2026-04-10T15:15:47.001Z</time></trkpt><trkpt lat="44.54679165636768" lon="11.091305276935591"><ele>55.0</ele><time>2026-04-10T15:15:48.001Z</time></trkpt><trkpt lat="44.5469074328133" lon="11.090999521134682"><ele>54.5</ele><time>2026-04-10T15:15:49.001Z</time></trkpt><trkpt lat="44.54702543389551" lon="11.090693581038016"><ele>54.0</ele><time>2026-04-10T15:15:50.001Z</time></trkpt><trkpt lat="44.54713945764808" lon="11.090388779018605"><ele>54.0</ele><time>2026-04-10T15:15:51.001Z</time></trkpt><trkpt lat="44.54725629205223" lon="11.090083407749827"><ele>54.0</ele><time>2026-04-10T15:15:52.001Z</time></trkpt><trkpt lat="44.54737496624441" lon="11.089772501181647"><ele>54.0</ele><time>2026-04-10T15:15:53.001Z</time></trkpt><trkpt lat="44.54749489220929" lon="11.089458889365234"><ele>54.0</ele><time>2026-04-10T15:15:54.001Z</time></trkpt><trkpt lat="44.5476150085121" lon="11.089146685147108"><ele>53.5</ele><time>2026-04-10T15:15:55.001Z</time></trkpt><trkpt lat="44.54773560205553" lon="11.088830089834778"><ele>53.0</ele><time>2026-04-10T15:15:56.001Z</time></trkpt><trkpt lat="44.54785722656622" lon="11.088515881950302"><ele>52.5</ele><time>2026-04-10T15:15:57.001Z</time></trkpt><trkpt lat="44.54797523826873" lon="11.088200732911519"><ele>52.0</ele><time>2026-04-10T15:15:58.001Z</time></trkpt><trkpt lat="44.548094827381234" lon="11.08788456841519"><ele>52.0</ele><time>2026-04-10T15:15:59.001Z</time></trkpt><trkpt lat="44.54821610880159" lon="11.087568914279792"><ele>52.0</ele><time>2026-04-10T15:16:00.001Z</time></trkpt><trkpt lat="44.54833699569199" lon="11.087255271235497"><ele>53.0</ele><time>2026-04-10T15:16:01.001Z</time></trkpt><trkpt lat="44.548460959195396" lon="11.08694335494074"><ele>54.0</ele><time>2026-04-10T15:16:02.001Z</time></trkpt><trkpt lat="44.54858446240374" lon="11.086629265323719"><ele>53.5</ele><time>2026-04-10T15:16:03.001Z</time></trkpt><trkpt lat="44.54870394871661" lon="11.086315348459461"><ele>53.0</ele><time>2026-04-10T15:16:04.001Z</time></trkpt><trkpt lat="44.54882395803241" lon="11.085997147111227"><ele>52.5</ele><time>2026-04-10T15:16:05.001Z</time></trkpt><trkpt lat="44.54894193738399" lon="11.085682490350466"><ele>52.0</ele><time>2026-04-10T15:16:06.001Z</time></trkpt><trkpt lat="44.549059354334595" lon="11.085369044469855"><ele>52.0</ele><time>2026-04-10T15:16:07.001Z</time></trkpt><trkpt lat="44.549179752813984" lon="11.085057846230072"><ele>52.0</ele><time>2026-04-10T15:16:08.001Z</time></trkpt><trkpt lat="44.54929855445557" lon="11.08474722200082"><ele>52.5</ele><time>2026-04-10T15:16:09.001Z</time></trkpt><trkpt lat="44.54941485859405" lon="11.084436405419641"><ele>53.0</ele><time>2026-04-10T15:16:10.001Z</time></trkpt><trkpt lat="44.55646290075511" lon="11.066043816961551"><ele>51.5</ele><time>2026-04-10T15:17:11Z</time></trkpt><trkpt lat="44.55657764345587" lon="11.065745626120165"><ele>50.0</ele><time>2026-04-10T15:17:12Z</time></trkpt><trkpt lat="44.55669117444999" lon="11.065448051994517"><ele>50.0</ele><time>2026-04-10T15:17:13Z</time></trkpt><trkpt lat="44.55680486364966" lon="11.065152177453198"><ele>50.0</ele><time>2026-04-10T15:17:14Z</time></trkpt><trkpt lat="44.55691817806611" lon="11.064855709026842"><ele>50.0</ele><time>2026-04-10T15:17:15Z</time></trkpt><trkpt lat="44.55703085543374" lon="11.064557056336097"><ele>50.0</ele><time>2026-04-10T15:17:16Z</time></trkpt><trkpt lat="44.55714387733136" lon="11.064260216212844"><ele>50.5</ele><time>2026-04-10T15:17:17Z</time></trkpt><trkpt lat="44.55725862506946" lon="11.063962572319115"><ele>51.0</ele><time>2026-04-10T15:17:18Z</time></trkpt><trkpt lat="44.55737314231876" lon="11.063666877999724"><ele>51.0</ele><time>2026-04-10T15:17:19Z</time></trkpt><trkpt lat="44.55748707952613" lon="11.063369065916943"><ele>51.0</ele><time>2026-04-10T15:17:20Z</time></trkpt><trkpt lat="44.55760195138673" lon="11.063070954199654"><ele>51.0</ele><time>2026-04-10T15:17:21Z</time></trkpt><trkpt lat="44.55771699065669" lon="11.062772522876612"><ele>51.0</ele><time>2026-04-10T15:17:22Z</time></trkpt><trkpt lat="44.55783030118933" lon="11.062475759927162"><ele>51.5</ele><time>2026-04-10T15:17:23Z</time></trkpt><trkpt lat="44.55793991536231" lon="11.062176788817723"><ele>52.0</ele><time>2026-04-10T15:17:24Z</time></trkpt><trkpt lat="44.55805271076264" lon="11.061873932330359"><ele>52.5</ele><time>2026-04-10T15:17:25Z</time></trkpt><trkpt lat="44.558166792730404" lon="11.061574346896675"><ele>53.0</ele><time>2026-04-10T15:17:26Z</time></trkpt><trkpt lat="44.558281924020314" lon="11.061276257265801"><ele>53.0</ele><time>2026-04-10T15:17:27Z</time></trkpt><trkpt lat="44.55839609646071" lon="11.060977497887833"><ele>53.0</ele><time>2026-04-10T15:17:28Z</time></trkpt><trkpt lat="44.55851104822674" lon="11.060677102373596"><ele>53.0</ele><time>2026-04-10T15:17:29Z</time></trkpt><trkpt lat="44.558629114340675" lon="11.06037709196754"><ele>53.0</ele><time>2026-04-10T15:17:30Z</time></trkpt><trkpt lat="44.558746623195795" lon="11.060077494161755"><ele>52.5</ele><time>2026-04-10T15:17:31Z</time></trkpt><trkpt lat="44.558862279628904" lon="11.059776812939104"><ele>52.0</ele><time>2026-04-10T15:17:32Z</time></trkpt><trkpt lat="44.55897850487337" lon="11.059477453563511"><ele>52.0</ele><time>2026-04-10T15:17:33Z</time></trkpt><trkpt lat="44.55909318685491" lon="11.059175196033026"><ele>52.0</ele><time>2026-04-10T15:17:34Z</time></trkpt><trkpt lat="44.55920548357621" lon="11.058878618332077"><ele>51.5</ele><time>2026-04-10T15:17:35Z</time></trkpt><trkpt lat="44.559320360773384" lon="11.058574250586245"><ele>51.0</ele><time>2026-04-10T15:17:36Z</time></trkpt><trkpt lat="44.55943392169247" lon="11.058275695821996"><ele>50.0</ele><time>2026-04-10T15:17:37Z</time></trkpt><trkpt lat="44.559548744348625" lon="11.057977649833944"><ele>49.0</ele><time>2026-04-10T15:17:38Z</time></trkpt><trkpt lat="44.5596621106828" lon="11.05768237516943"><ele>48.5</ele><time>2026-04-10T15:17:39Z</time></trkpt><trkpt lat="44.55977373079735" lon="11.057390715939926"><ele>48.0</ele><time>2026-04-10T15:17:40Z</time></trkpt><trkpt lat="44.55988313529883" lon="11.057098489404268"><ele>48.0</ele><time>2026-04-10T15:17:41Z</time></trkpt><trkpt lat="44.55999230153328" lon="11.056807437165356"><ele>48.0</ele><time>2026-04-10T15:17:42Z</time></trkpt><trkpt lat="44.56010029748758" lon="11.056518510759101"><ele>48.0</ele><time>2026-04-10T15:17:43.001Z</time></trkpt><trkpt lat="44.56020931431579" lon="11.056231669061365"><ele>48.0</ele><time>2026-04-10T15:17:44.001Z</time></trkpt><trkpt lat="44.56031815766935" lon="11.05594535257223"><ele>48.0</ele><time>2026-04-10T15:17:45.001Z</time></trkpt><trkpt lat="44.5604281444978" lon="11.0556587505701"><ele>48.0</ele><time>2026-04-10T15:17:46.001Z</time></trkpt><trkpt lat="44.56053878507506" lon="11.055374410775393"><ele>48.0</ele><time>2026-04-10T15:17:47.001Z</time></trkpt><trkpt lat="44.56064915718841" lon="11.055089302317011"><ele>48.0</ele><time>2026-04-10T15:17:48.001Z</time></trkpt><trkpt lat="44.560758382489254" lon="11.054802117853203"><ele>48.5</ele><time>2026-04-10T15:17:49.001Z</time></trkpt><trkpt lat="44.56086728361712" lon="11.054513996638944"><ele>49.0</ele><time>2026-04-10T15:17:50.001Z</time></trkpt><trkpt lat="44.56097763667366" lon="11.054225510998709"><ele>49.5</ele><time>2026-04-10T15:17:51.001Z</time></trkpt><trkpt lat="44.561088250181065" lon="11.05393767333113"><ele>50.0</ele><time>2026-04-10T15:17:52.001Z</time></trkpt><trkpt lat="44.56119784938455" lon="11.053648609182535"><ele>50.0</ele><time>2026-04-10T15:17:53.001Z</time></trkpt><trkpt lat="44.56130765631796" lon="11.053357186388245"><ele>50.0</ele><time>2026-04-10T15:17:54.001Z</time></trkpt><trkpt lat="44.56141816179358" lon="11.053065939784291"><ele>50.0</ele><time>2026-04-10T15:17:55.001Z</time></trkpt><trkpt lat="44.56152927539441" lon="11.052773726435692"><ele>50.0</ele><time>2026-04-10T15:17:56.001Z</time></trkpt><trkpt lat="44.561640781324485" lon="11.05248080994564"><ele>49.5</ele><time>2026-04-10T15:17:57.001Z</time></trkpt><trkpt lat="44.56175119787038" lon="11.052187823358224"><ele>49.0</ele><time>2026-04-10T15:17:58.001Z</time></trkpt><trkpt lat="44.561865146588104" lon="11.05189504638524"><ele>49.0</ele><time>2026-04-10T15:17:59.001Z</time></trkpt><trkpt lat="44.561979596867324" lon="11.051603161497653"><ele>49.0</ele><time>2026-04-10T15:18:00.001Z</time></trkpt><trkpt lat="44.5620940324321" lon="11.051308405293549"><ele>49.0</ele><time>2026-04-10T15:18:01.001Z</time></trkpt><trkpt lat="44.56220775031052" lon="11.051010448483497"><ele>49.0</ele><time>2026-04-10T15:18:02.001Z</time></trkpt><trkpt lat="44.56231980939393" lon="11.050709718605297"><ele>48.5</ele><time>2026-04-10T15:18:03.001Z</time></trkpt><trkpt lat="44.56243201225199" lon="11.050412726684765"><ele>48.0</ele><time>2026-04-10T15:18:04.001Z</time></trkpt><trkpt lat="44.562544078047665" lon="11.050112325955162"><ele>45.5</ele><time>2026-04-10T15:18:05.001Z</time></trkpt><trkpt lat="44.562656497351284" lon="11.049814449181351"><ele>43.0</ele><time>2026-04-10T15:18:06.001Z</time></trkpt><trkpt lat="44.5627734848087" lon="11.049514230000172"><ele>45.0</ele><time>2026-04-10T15:18:07.001Z</time></trkpt><trkpt lat="44.56289236639077" lon="11.04921511880532"><ele>47.0</ele><time>2026-04-10T15:18:08.001Z</time></trkpt><trkpt lat="44.56301090409965" lon="11.048916405479273"><ele>47.0</ele><time>2026-04-10T15:18:09.001Z</time></trkpt><trkpt lat="44.56312872396292" lon="11.048615173276026"><ele>47.0</ele><time>2026-04-10T15:18:10.001Z</time></trkpt><trkpt lat="44.56819773137881" lon="11.028413721076435"><ele>47.5</ele><time>2026-04-10T15:19:11Z</time></trkpt><trkpt lat="44.568269084071034" lon="11.028068992889057"><ele>48.0</ele><time>2026-04-10T15:19:12Z</time></trkpt><trkpt lat="44.56834142076757" lon="11.027724696999243"><ele>48.0</ele><time>2026-04-10T15:19:13Z</time></trkpt><trkpt lat="44.56841400748767" lon="11.027379128037634"><ele>48.0</ele><time>2026-04-10T15:19:14Z</time></trkpt><trkpt lat="44.568487163043976" lon="11.027032058593322"><ele>48.0</ele><time>2026-04-10T15:19:15Z</time></trkpt><trkpt lat="44.56855852624773" lon="11.026684131969956"><ele>48.0</ele><time>2026-04-10T15:19:16Z</time></trkpt><trkpt lat="44.56862827083296" lon="11.026339756949326"><ele>48.0</ele><time>2026-04-10T15:19:17Z</time></trkpt><trkpt lat="44.568696409964886" lon="11.025994468406271"><ele>48.0</ele><time>2026-04-10T15:19:18Z</time></trkpt><trkpt lat="44.568768879096" lon="11.025645891623975"><ele>47.5</ele><time>2026-04-10T15:19:19Z</time></trkpt><trkpt lat="44.56884117042565" lon="11.025299034541062"><ele>47.0</ele><time>2026-04-10T15:19:20Z</time></trkpt><trkpt lat="44.56891149860356" lon="11.024953477126575"><ele>47.0</ele><time>2026-04-10T15:19:21Z</time></trkpt><trkpt lat="44.56898265281164" lon="11.024606866304952"><ele>47.0</ele><time>2026-04-10T15:19:22Z</time></trkpt><trkpt lat="44.5690552330978" lon="11.024261593295448"><ele>46.0</ele><time>2026-04-10T15:19:23Z</time></trkpt><trkpt lat="44.56912654282387" lon="11.023920602602423"><ele>45.0</ele><time>2026-04-10T15:19:24Z</time></trkpt><trkpt lat="44.56919412863103" lon="11.023584380595773"><ele>45.0</ele><time>2026-04-10T15:19:25Z</time></trkpt><trkpt lat="44.569263454515685" lon="11.023258027370625"><ele>45.0</ele><time>2026-04-10T15:19:26Z</time></trkpt><trkpt lat="44.56933493722914" lon="11.022930886319841"><ele>45.0</ele><time>2026-04-10T15:19:27Z</time></trkpt><trkpt lat="44.56940577188145" lon="11.022600804457602"><ele>45.0</ele><time>2026-04-10T15:19:28Z</time></trkpt><trkpt lat="44.56947333985158" lon="11.022269707356255"><ele>45.0</ele><time>2026-04-10T15:19:29Z</time></trkpt><trkpt lat="44.56954304237164" lon="11.021938524792892"><ele>45.0</ele><time>2026-04-10T15:19:30Z</time></trkpt><trkpt lat="44.569612494002406" lon="11.021605090502614"><ele>45.0</ele><time>2026-04-10T15:19:31Z</time></trkpt><trkpt lat="44.569679065785365" lon="11.021269837871412"><ele>45.0</ele><time>2026-04-10T15:19:32Z</time></trkpt><trkpt lat="44.569746549533136" lon="11.020933771690045"><ele>45.5</ele><time>2026-04-10T15:19:33Z</time></trkpt><trkpt lat="44.569817647876356" lon="11.020595420668565"><ele>46.0</ele><time>2026-04-10T15:19:34Z</time></trkpt><trkpt lat="44.569887100814064" lon="11.020261332481743"><ele>46.5</ele><time>2026-04-10T15:19:35Z</time></trkpt><trkpt lat="44.56995594348228" lon="11.019919379425486"><ele>47.0</ele><time>2026-04-10T15:19:36Z</time></trkpt><trkpt lat="44.57002618695741" lon="11.019575810500505"><ele>47.0</ele><time>2026-04-10T15:19:37Z</time></trkpt><trkpt lat="44.57009794780251" lon="11.01923306826574"><ele>47.0</ele><time>2026-04-10T15:19:38Z</time></trkpt><trkpt lat="44.5701681679507" lon="11.018888630027726"><ele>47.0</ele><time>2026-04-10T15:19:39Z</time></trkpt><trkpt lat="44.57023658806071" lon="11.018544091306588"><ele>47.0</ele><time>2026-04-10T15:19:40Z</time></trkpt><trkpt lat="44.570309521450774" lon="11.018201803771369"><ele>46.5</ele><time>2026-04-10T15:19:41.001Z</time></trkpt><trkpt lat="44.57038422528538" lon="11.017861883747342"><ele>46.0</ele><time>2026-04-10T15:19:42.001Z</time></trkpt><trkpt lat="44.57045890143287" lon="11.01751980087939"><ele>46.5</ele><time>2026-04-10T15:19:43.001Z</time></trkpt><trkpt lat="44.570529880266506" lon="11.017174115646506"><ele>47.0</ele><time>2026-04-10T15:19:44.001Z</time></trkpt><trkpt lat="44.570599369950834" lon="11.016825344989877"><ele>46.5</ele><time>2026-04-10T15:19:45.001Z</time></trkpt><trkpt lat="44.5706697378389" lon="11.016477288523127"><ele>46.0</ele><time>2026-04-10T15:19:46.001Z</time></trkpt><trkpt lat="44.57073813099563" lon="11.016134576411043"><ele>46.5</ele><time>2026-04-10T15:19:47.001Z</time></trkpt><trkpt lat="44.570806635030316" lon="11.015789999234503"><ele>47.0</ele><time>2026-04-10T15:19:48.001Z</time></trkpt><trkpt lat="44.57087612790452" lon="11.01544587423093"><ele>47.0</ele><time>2026-04-10T15:19:49.001Z</time></trkpt><trkpt lat="44.570944957175946" lon="11.015102342232064"><ele>47.0</ele><time>2026-04-10T15:19:50.001Z</time></trkpt><trkpt lat="44.57101663886683" lon="11.014761058384899"><ele>47.0</ele><time>2026-04-10T15:19:51.001Z</time></trkpt><trkpt lat="44.57108879232637" lon="11.01441932376457"><ele>47.0</ele><time>2026-04-10T15:19:52.001Z</time></trkpt><trkpt lat="44.57116060263637" lon="11.014078282921217"><ele>47.5</ele><time>2026-04-10T15:19:53.001Z</time></trkpt><trkpt lat="44.57123207208527" lon="11.013737230455003"><ele>48.0</ele><time>2026-04-10T15:19:54.001Z</time></trkpt><trkpt lat="44.57130130743009" lon="11.013396362406379"><ele>47.0</ele><time>2026-04-10T15:19:55.001Z</time></trkpt><trkpt lat="44.57137046937494" lon="11.013054552752706"><ele>46.0</ele><time>2026-04-10T15:19:56.001Z</time></trkpt><trkpt lat="44.57144086206664" lon="11.012712001244369"><ele>45.5</ele><time>2026-04-10T15:19:57.001Z</time></trkpt><trkpt lat="44.57151155652788" lon="11.012374646082565"><ele>45.0</ele><time>2026-04-10T15:19:58.001Z</time></trkpt><trkpt lat="44.57158114004432" lon="11.012036912542728"><ele>45.0</ele><time>2026-04-10T15:19:59.001Z</time></trkpt><trkpt lat="44.571650828552734" lon="11.01170193006317"><ele>45.0</ele><time>2026-04-10T15:20:00.001Z</time></trkpt><trkpt lat="44.571722286969575" lon="11.011368817184856"><ele>45.5</ele><time>2026-04-10T15:20:01.001Z</time></trkpt><trkpt lat="44.571791357818505" lon="11.011032933070114"><ele>46.0</ele><time>2026-04-10T15:20:02.001Z</time></trkpt><trkpt lat="44.57186021773542" lon="11.010697959053083"><ele>46.5</ele><time>2026-04-10T15:20:03.001Z</time></trkpt><trkpt lat="44.57192734153757" lon="11.010365591768583"><ele>47.0</ele><time>2026-04-10T15:20:04.001Z</time></trkpt><trkpt lat="44.57199537432154" lon="11.01003455067463"><ele>47.5</ele><time>2026-04-10T15:20:05.001Z</time></trkpt><trkpt lat="44.572065502075176" lon="11.009703717234741"><ele>48.0</ele><time>2026-04-10T15:20:06.001Z</time></trkpt><trkpt lat="44.57213484536952" lon="11.00937437642834"><ele>48.0</ele><time>2026-04-10T15:20:07.001Z</time></trkpt><trkpt lat="44.572201950059025" lon="11.00904213358809"><ele>48.0</ele><time>2026-04-10T15:20:08.001Z</time></trkpt><trkpt lat="44.57226885872324" lon="11.008711751735243"><ele>48.0</ele><time>2026-04-10T15:20:09.001Z</time></trkpt><trkpt lat="44.57233654069715" lon="11.008381874002904"><ele>48.0</ele><time>2026-04-10T15:20:10.001Z</time></trkpt><trkpt lat="44.57718648618329" lon="10.987822463892547"><ele>46.0</ele><time>2026-04-10T15:21:11Z</time></trkpt><trkpt lat="44.577270105886946" lon="10.9874973206817"><ele>44.0</ele><time>2026-04-10T15:21:12Z</time></trkpt><trkpt lat="44.57735588134383" lon="10.987171337015232"><ele>44.0</ele><time>2026-04-10T15:21:13Z</time></trkpt><trkpt lat="44.577440896606504" lon="10.986848271307764"><ele>44.0</ele><time>2026-04-10T15:21:14Z</time></trkpt><trkpt lat="44.57752651122057" lon="10.986515037498215"><ele>45.0</ele><time>2026-04-10T15:21:15Z</time></trkpt><trkpt lat="44.577612176336714" lon="10.986183814341397"><ele>46.0</ele><time>2026-04-10T15:21:16Z</time></trkpt><trkpt lat="44.577699123352076" lon="10.985851798351836"><ele>46.5</ele><time>2026-04-10T15:21:17Z</time></trkpt><trkpt lat="44.577788466144156" lon="10.985520669591791"><ele>47.0</ele><time>2026-04-10T15:21:18Z</time></trkpt><trkpt lat="44.57787809236222" lon="10.985187583684382"><ele>48.5</ele><time>2026-04-10T15:21:19Z</time></trkpt><trkpt lat="44.577967037305555" lon="10.984854428312227"><ele>50.0</ele><time>2026-04-10T15:21:20Z</time></trkpt><trkpt lat="44.57805734527425" lon="10.984519454779655"><ele>50.0</ele><time>2026-04-10T15:21:21Z</time></trkpt><trkpt lat="44.57814587537505" lon="10.984184598936233"><ele>50.0</ele><time>2026-04-10T15:21:22Z</time></trkpt><trkpt lat="44.57823230660052" lon="10.983850430426893"><ele>49.5</ele><time>2026-04-10T15:21:23Z</time></trkpt><trkpt lat="44.578318053554355" lon="10.98351630030434"><ele>49.0</ele><time>2026-04-10T15:21:24Z</time></trkpt><trkpt lat="44.57840262628071" lon="10.983183140069242"><ele>49.0</ele><time>2026-04-10T15:21:25Z</time></trkpt><trkpt lat="44.57848990764845" lon="10.982848505623762"><ele>49.0</ele><time>2026-04-10T15:21:26Z</time></trkpt><trkpt lat="44.57857703194973" lon="10.98251699577972"><ele>48.5</ele><time>2026-04-10T15:21:27Z</time></trkpt><trkpt lat="44.5786641227442" lon="10.9821953156949"><ele>48.0</ele><time>2026-04-10T15:21:28Z</time></trkpt><trkpt lat="44.57875113719858" lon="10.981871613180383"><ele>47.5</ele><time>2026-04-10T15:21:29Z</time></trkpt><trkpt lat="44.57883925118956" lon="10.981550575930747"><ele>47.0</ele><time>2026-04-10T15:21:30Z</time></trkpt><trkpt lat="44.578924556436945" lon="10.981229787677874"><ele>47.0</ele><time>2026-04-10T15:21:31Z</time></trkpt><trkpt lat="44.5790074698249" lon="10.980910273423671"><ele>47.0</ele><time>2026-04-10T15:21:32Z</time></trkpt><trkpt lat="44.57909212485278" lon="10.980591648286946"><ele>47.0</ele><time>2026-04-10T15:21:33Z</time></trkpt><trkpt lat="44.579175847798176" lon="10.98027203235456"><ele>47.0</ele><time>2026-04-10T15:21:34Z</time></trkpt><trkpt lat="44.579259806384435" lon="10.979952335008315"><ele>47.0</ele><time>2026-04-10T15:21:35Z</time></trkpt><trkpt lat="44.57934415728056" lon="10.97963239656556"><ele>47.0</ele><time>2026-04-10T15:21:36Z</time></trkpt><trkpt lat="44.579429193772455" lon="10.979309910854182"><ele>47.0</ele><time>2026-04-10T15:21:37Z</time></trkpt><trkpt lat="44.579513886300894" lon="10.978985681285808"><ele>47.0</ele><time>2026-04-10T15:21:38Z</time></trkpt><trkpt lat="44.57959930331428" lon="10.97866064210427"><ele>47.0</ele><time>2026-04-10T15:21:39Z</time></trkpt><trkpt lat="44.5796859077407" lon="10.978333866220568"><ele>47.0</ele><time>2026-04-10T15:21:40Z</time></trkpt><trkpt lat="44.57977321986232" lon="10.978006100511864"><ele>47.0</ele><time>2026-04-10T15:21:41Z</time></trkpt><trkpt lat="44.579857005377484" lon="10.977678245079987"><ele>47.0</ele><time>2026-04-10T15:21:42Z</time></trkpt><trkpt lat="44.579945737547966" lon="10.977345465610732"><ele>46.5</ele><time>2026-04-10T15:21:43Z</time></trkpt><trkpt lat="44.58003356946039" lon="10.977016626373027"><ele>46.0</ele><time>2026-04-10T15:21:44Z</time></trkpt><trkpt lat="44.58011984229996" lon="10.97668390240157"><ele>46.0</ele><time>2026-04-10T15:21:45Z</time></trkpt><trkpt lat="44.58020601735753" lon="10.976349711529712"><ele>46.0</ele><time>2026-04-10T15:21:46Z</time></trkpt><trkpt lat="44.580292429895344" lon="10.976018916149215"><ele>45.0</ele><time>2026-04-10T15:21:47Z</time></trkpt><trkpt lat="44.5803775317588" lon="10.975693381695539"><ele>44.0</ele><time>2026-04-10T15:21:48Z</time></trkpt><trkpt lat="44.58046408172487" lon="10.975364497320326"><ele>44.0</ele><time>2026-04-10T15:21:49Z</time></trkpt><trkpt lat="44.5805523451438" lon="10.975040814727132"><ele>44.0</ele><time>2026-04-10T15:21:50Z</time></trkpt><trkpt lat="44.58063930036797" lon="10.97471624197694"><ele>45.0</ele><time>2026-04-10T15:21:51Z</time></trkpt><trkpt lat="44.58073152202251" lon="10.974394578908987"><ele>46.0</ele><time>2026-04-10T15:21:52Z</time></trkpt><trkpt lat="44.58082619310405" lon="10.974076549511018"><ele>47.5</ele><time>2026-04-10T15:21:53Z</time></trkpt><trkpt lat="44.580918289715875" lon="10.973758211262318"><ele>49.0</ele><time>2026-04-10T15:21:54Z</time></trkpt><trkpt lat="44.581011398052546" lon="10.97343629749124"><ele>48.0</ele><time>2026-04-10T15:21:55Z</time></trkpt><trkpt lat="44.581105336335575" lon="10.97311686167848"><ele>47.0</ele><time>2026-04-10T15:21:56Z</time></trkpt><trkpt lat="44.58120615629107" lon="10.972798655168752"><ele>46.5</ele><time>2026-04-10T15:21:57Z</time></trkpt><trkpt lat="44.58131139460618" lon="10.972484507144932"><ele>46.0</ele><time>2026-04-10T15:21:58Z</time></trkpt><trkpt lat="44.58141987182215" lon="10.972173169289839"><ele>46.0</ele><time>2026-04-10T15:21:59Z</time></trkpt><trkpt lat="44.58153026438905" lon="10.971863103002203"><ele>46.0</ele><time>2026-04-10T15:22:00Z</time></trkpt><trkpt lat="44.58163667850784" lon="10.971549759453996"><ele>47.0</ele><time>2026-04-10T15:22:01Z</time></trkpt><trkpt lat="44.58174233702951" lon="10.97123564717283"><ele>48.0</ele><time>2026-04-10T15:22:02Z</time></trkpt><trkpt lat="44.58185302138834" lon="10.970922511141065"><ele>48.0</ele><time>2026-04-10T15:22:03Z</time></trkpt><trkpt lat="44.581970361691994" lon="10.970609385524812"><ele>48.0</ele><time>2026-04-10T15:22:04Z</time></trkpt><trkpt lat="44.58209021995741" lon="10.970298217951758"><ele>48.5</ele><time>2026-04-10T15:22:05Z</time></trkpt><trkpt lat="44.582210633980736" lon="10.969984755696672"><ele>49.0</ele><time>2026-04-10T15:22:06Z</time></trkpt><trkpt lat="44.58233027068097" lon="10.969669533728649"><ele>49.0</ele><time>2026-04-10T15:22:07Z</time></trkpt><trkpt lat="44.582454753578126" lon="10.96935569674582"><ele>49.0</ele><time>2026-04-10T15:22:08Z</time></trkpt><trkpt lat="44.582585376204" lon="10.969046281432933"><ele>48.0</ele><time>2026-04-10T15:22:09Z</time></trkpt><trkpt lat="44.58271683731356" lon="10.968737265242837"><ele>47.0</ele><time>2026-04-10T15:22:10Z</time></trkpt><trkpt lat="44.590715306446924" lon="10.950032414742227"><ele>45.5</ele><time>2026-04-10T15:23:11Z</time></trkpt><trkpt lat="44.590850714819794" lon="10.949719207496216"><ele>44.0</ele><time>2026-04-10T15:23:12Z</time></trkpt><trkpt lat="44.5909842754542" lon="10.949404131149333"><ele>44.0</ele><time>2026-04-10T15:23:13Z</time></trkpt><trkpt lat="44.59111985390822" lon="10.949085837190005"><ele>44.0</ele><time>2026-04-10T15:23:14Z</time></trkpt><trkpt lat="44.59125588071122" lon="10.948770216397039"><ele>44.0</ele><time>2026-04-10T15:23:15Z</time></trkpt><trkpt lat="44.59138830693108" lon="10.948451265168655"><ele>44.0</ele><time>2026-04-10T15:23:16Z</time></trkpt><trkpt lat="44.59152221771059" lon="10.94813592523829"><ele>43.5</ele><time>2026-04-10T15:23:17Z</time></trkpt><trkpt lat="44.59166126213851" lon="10.947819463643565"><ele>43.0</ele><time>2026-04-10T15:23:18Z</time></trkpt><trkpt lat="44.59180060229044" lon="10.947505902444416"><ele>43.0</ele><time>2026-04-10T15:23:19Z</time></trkpt><trkpt lat="44.591941914856115" lon="10.947190976887242"><ele>43.0</ele><time>2026-04-10T15:23:20Z</time></trkpt><trkpt lat="44.59208130169852" lon="10.946871736834728"><ele>43.0</ele><time>2026-04-10T15:23:21Z</time></trkpt><trkpt lat="44.59221837487865" lon="10.946548797885091"><ele>43.0</ele><time>2026-04-10T15:23:22Z</time></trkpt><trkpt lat="44.59235840452047" lon="10.946224366132885"><ele>43.0</ele><time>2026-04-10T15:23:23Z</time></trkpt><trkpt lat="44.59249340090348" lon="10.945904073938024"><ele>43.0</ele><time>2026-04-10T15:23:24Z</time></trkpt><trkpt lat="44.59262409028375" lon="10.945597943714484"><ele>43.5</ele><time>2026-04-10T15:23:25Z</time></trkpt><trkpt lat="44.59275564970608" lon="10.945288793544329"><ele>44.0</ele><time>2026-04-10T15:23:26Z</time></trkpt><trkpt lat="44.5928850132698" lon="10.944985799128917"><ele>42.5</ele><time>2026-04-10T15:23:27Z</time></trkpt><trkpt lat="44.59301217314034" lon="10.944687379578571"><ele>41.0</ele><time>2026-04-10T15:23:28Z</time></trkpt><trkpt lat="44.59313704104096" lon="10.944392541911904"><ele>41.0</ele><time>2026-04-10T15:23:29Z</time></trkpt><trkpt lat="44.59326146471823" lon="10.944097220700293"><ele>41.0</ele><time>2026-04-10T15:23:30Z</time></trkpt><trkpt lat="44.593385838482135" lon="10.943808796874139"><ele>41.0</ele><time>2026-04-10T15:23:31Z</time></trkpt><trkpt lat="44.593508032667586" lon="10.943527783603363"><ele>41.0</ele><time>2026-04-10T15:23:32Z</time></trkpt><trkpt lat="44.593630123815615" lon="10.943246502868492"><ele>42.0</ele><time>2026-04-10T15:23:33Z</time></trkpt><trkpt lat="44.59375078924543" lon="10.942960821290372"><ele>43.0</ele><time>2026-04-10T15:23:34Z</time></trkpt><trkpt lat="44.593870510374245" lon="10.942669507042117"><ele>42.5</ele><time>2026-04-10T15:23:35Z</time></trkpt><trkpt lat="44.593991016507495" lon="10.942376419969454"><ele>42.0</ele><time>2026-04-10T15:23:36Z</time></trkpt><trkpt lat="44.594113430034746" lon="10.942080826885457"><ele>42.0</ele><time>2026-04-10T15:23:37Z</time></trkpt><trkpt lat="44.594241927776025" lon="10.941785559713008"><ele>42.0</ele><time>2026-04-10T15:23:38Z</time></trkpt><trkpt lat="44.59436999980214" lon="10.941490270078111"><ele>42.0</ele><time>2026-04-10T15:23:39Z</time></trkpt><trkpt lat="44.59449682341597" lon="10.941195838198437"><ele>42.0</ele><time>2026-04-10T15:23:40Z</time></trkpt><trkpt lat="44.59462149003283" lon="10.940906917625195"><ele>40.5</ele><time>2026-04-10T15:23:41Z</time></trkpt><trkpt lat="44.594745794205345" lon="10.940620424888982"><ele>39.0</ele><time>2026-04-10T15:23:42Z</time></trkpt><trkpt lat="44.59486864311659" lon="10.940335032005821"><ele>39.5</ele><time>2026-04-10T15:23:43Z</time></trkpt><trkpt lat="44.59499254173411" lon="10.940046429340725"><ele>40.0</ele><time>2026-04-10T15:23:44Z</time></trkpt><trkpt lat="44.59511607489352" lon="10.939755256081202"><ele>40.0</ele><time>2026-04-10T15:23:45Z</time></trkpt><trkpt lat="44.59523974299437" lon="10.939466852711345"><ele>40.0</ele><time>2026-04-10T15:23:46Z</time></trkpt><trkpt lat="44.595365084995954" lon="10.939172162872726"><ele>40.0</ele><time>2026-04-10T15:23:47Z</time></trkpt><trkpt lat="44.59548939835343" lon="10.938884051922622"><ele>40.0</ele><time>2026-04-10T15:23:48Z</time></trkpt><trkpt lat="44.59561292146789" lon="10.93859362938306"><ele>41.0</ele><time>2026-04-10T15:23:49Z</time></trkpt><trkpt lat="44.59573467024476" lon="10.938302276545631"><ele>42.0</ele><time>2026-04-10T15:23:50Z</time></trkpt><trkpt lat="44.59585761116613" lon="10.938009834074396"><ele>42.0</ele><time>2026-04-10T15:23:51Z</time></trkpt><trkpt lat="44.595981842414176" lon="10.937715639404924"><ele>42.0</ele><time>2026-04-10T15:23:52Z</time></trkpt><trkpt lat="44.59610707202623" lon="10.937419914561419"><ele>43.0</ele><time>2026-04-10T15:23:53Z</time></trkpt><trkpt lat="44.59623197096049" lon="10.93712558043969"><ele>44.0</ele><time>2026-04-10T15:23:54Z</time></trkpt><trkpt lat="44.59636075492007" lon="10.936830427423171"><ele>43.5</ele><time>2026-04-10T15:23:55Z</time></trkpt><trkpt lat="44.59648706610096" lon="10.93653616637039"><ele>43.0</ele><time>2026-04-10T15:23:56Z</time></trkpt><trkpt lat="44.59661366986922" lon="10.936240430143856"><ele>43.0</ele><time>2026-04-10T15:23:57Z</time></trkpt><trkpt lat="44.59674139812025" lon="10.935943454718746"><ele>43.0</ele><time>2026-04-10T15:23:58Z</time></trkpt><trkpt lat="44.596868997492045" lon="10.935646780004253"><ele>43.0</ele><time>2026-04-10T15:23:59Z</time></trkpt><trkpt lat="44.59699699467721" lon="10.935345580286164"><ele>43.0</ele><time>2026-04-10T15:24:00Z</time></trkpt><trkpt lat="44.597126201591195" lon="10.935042795961968"><ele>42.5</ele><time>2026-04-10T15:24:01Z</time></trkpt><trkpt lat="44.59725757515227" lon="10.934739143576378"><ele>42.0</ele><time>2026-04-10T15:24:02Z</time></trkpt><trkpt lat="44.597388409195524" lon="10.934438105690061"><ele>42.5</ele><time>2026-04-10T15:24:03Z</time></trkpt><trkpt lat="44.59752008028965" lon="10.934127904082116"><ele>43.0</ele><time>2026-04-10T15:24:04Z</time></trkpt><trkpt lat="44.597651032579996" lon="10.93382146388961"><ele>43.0</ele><time>2026-04-10T15:24:05Z</time></trkpt><trkpt lat="44.597781641220244" lon="10.933515654209497"><ele>43.0</ele><time>2026-04-10T15:24:06Z</time></trkpt><trkpt lat="44.597914833278715" lon="10.933209620305744"><ele>42.5</ele><time>2026-04-10T15:24:07Z</time></trkpt><trkpt lat="44.59804715348213" lon="10.932906168283047"><ele>42.0</ele><time>2026-04-10T15:24:08Z</time></trkpt><trkpt lat="44.59817811603628" lon="10.932601237457565"><ele>41.0</ele><time>2026-04-10T15:24:09Z</time></trkpt><trkpt lat="44.5983073447284" lon="10.932296197790949"><ele>40.0</ele><time>2026-04-10T15:24:10Z</time></trkpt><trkpt lat="44.605957369459205" lon="10.914374941491618"><ele>40.5</ele><time>2026-04-10T15:25:11Z</time></trkpt><trkpt lat="44.60607908431203" lon="10.914091262215186"><ele>41.0</ele><time>2026-04-10T15:25:12Z</time></trkpt><trkpt lat="44.6061994782893" lon="10.913808032701574"><ele>41.0</ele><time>2026-04-10T15:25:13Z</time></trkpt><trkpt lat="44.606320061295825" lon="10.91352357527487"><ele>41.0</ele><time>2026-04-10T15:25:14Z</time></trkpt><trkpt lat="44.60644071217349" lon="10.91323925127206"><ele>40.0</ele><time>2026-04-10T15:25:15Z</time></trkpt><trkpt lat="44.606560453458236" lon="10.912955067041835"><ele>39.0</ele><time>2026-04-10T15:25:16Z</time></trkpt><trkpt lat="44.606681569503536" lon="10.91267240500245"><ele>39.5</ele><time>2026-04-10T15:25:17Z</time></trkpt><trkpt lat="44.606803018718516" lon="10.912389120485454"><ele>40.0</ele><time>2026-04-10T15:25:18Z</time></trkpt><trkpt lat="44.60692504552403" lon="10.912105799530147"><ele>39.5</ele><time>2026-04-10T15:25:19Z</time></trkpt><trkpt lat="44.60704900974627" lon="10.91182246117957"><ele>39.0</ele><time>2026-04-10T15:25:20Z</time></trkpt><trkpt lat="44.60717224659562" lon="10.911539322519314"><ele>39.0</ele><time>2026-04-10T15:25:21Z</time></trkpt><trkpt lat="44.607295284003584" lon="10.91125541501648"><ele>39.0</ele><time>2026-04-10T15:25:22Z</time></trkpt><trkpt lat="44.60741718896003" lon="10.910969865231415"><ele>39.5</ele><time>2026-04-10T15:25:23Z</time></trkpt><trkpt lat="44.607539061032675" lon="10.910681896574632"><ele>40.0</ele><time>2026-04-10T15:25:24Z</time></trkpt><trkpt lat="44.60765813511199" lon="10.910395617351005"><ele>40.0</ele><time>2026-04-10T15:25:25Z</time></trkpt><trkpt lat="44.60777811236619" lon="10.910110197335513"><ele>40.0</ele><time>2026-04-10T15:25:26Z</time></trkpt><trkpt lat="44.607899709349596" lon="10.909825540191791"><ele>39.5</ele><time>2026-04-10T15:25:27Z</time></trkpt><trkpt lat="44.608022146969844" lon="10.909539082054907"><ele>39.0</ele><time>2026-04-10T15:25:28Z</time></trkpt><trkpt lat="44.60814364266893" lon="10.909254841471588"><ele>39.5</ele><time>2026-04-10T15:25:29Z</time></trkpt><trkpt lat="44.608265112949574" lon="10.908970666528683"><ele>40.0</ele><time>2026-04-10T15:25:30Z</time></trkpt><trkpt lat="44.60838786737323" lon="10.908687571048977"><ele>41.0</ele><time>2026-04-10T15:25:31Z</time></trkpt><trkpt lat="44.608508760921104" lon="10.908405837057387"><ele>42.0</ele><time>2026-04-10T15:25:32Z</time></trkpt><trkpt lat="44.60863094990734" lon="10.908121726634288"><ele>41.5</ele><time>2026-04-10T15:25:33Z</time></trkpt><trkpt lat="44.60875389167434" lon="10.90783649737394"><ele>41.0</ele><time>2026-04-10T15:25:34Z</time></trkpt><trkpt lat="44.608877304515936" lon="10.907547677103228"><ele>41.0</ele><time>2026-04-10T15:25:35Z</time></trkpt><trkpt lat="44.60900188688672" lon="10.907257364829867"><ele>41.0</ele><time>2026-04-10T15:25:36Z</time></trkpt><trkpt lat="44.60912974105389" lon="10.906964204843472"><ele>40.0</ele><time>2026-04-10T15:25:37Z</time></trkpt><trkpt lat="44.60925330627788" lon="10.906678079523433"><ele>39.0</ele><time>2026-04-10T15:25:38Z</time></trkpt><trkpt lat="44.60937391942032" lon="10.906391551755696"><ele>39.0</ele><time>2026-04-10T15:25:39Z</time></trkpt><trkpt lat="44.609493667452945" lon="10.90610353723025"><ele>39.0</ele><time>2026-04-10T15:25:40Z</time></trkpt><trkpt lat="44.609614791358275" lon="10.905817047106092"><ele>40.0</ele><time>2026-04-10T15:25:41Z</time></trkpt><trkpt lat="44.609735786651626" lon="10.905530960727368"><ele>41.0</ele><time>2026-04-10T15:25:42Z</time></trkpt><trkpt lat="44.60985893975146" lon="10.9052438037972"><ele>41.0</ele><time>2026-04-10T15:25:43Z</time></trkpt><trkpt lat="44.60998259922187" lon="10.904957322966743"><ele>41.0</ele><time>2026-04-10T15:25:44Z</time></trkpt><trkpt lat="44.610103108347936" lon="10.904671607363438"><ele>41.0</ele><time>2026-04-10T15:25:45Z</time></trkpt><trkpt lat="44.610223746477715" lon="10.904384810910537"><ele>41.0</ele><time>2026-04-10T15:25:46Z</time></trkpt><trkpt lat="44.61034478172982" lon="10.90409895143005"><ele>41.0</ele><time>2026-04-10T15:25:47Z</time></trkpt><trkpt lat="44.61046483890464" lon="10.903816042748119"><ele>41.0</ele><time>2026-04-10T15:25:48Z</time></trkpt><trkpt lat="44.61058538915968" lon="10.903533413425546"><ele>41.5</ele><time>2026-04-10T15:25:49Z</time></trkpt><trkpt lat="44.61070760264298" lon="10.903252745265053"><ele>42.0</ele><time>2026-04-10T15:25:50Z</time></trkpt><trkpt lat="44.61083038580067" lon="10.902972059086768"><ele>42.0</ele><time>2026-04-10T15:25:51Z</time></trkpt><trkpt lat="44.61095225019248" lon="10.902689913665514"><ele>42.0</ele><time>2026-04-10T15:25:52Z</time></trkpt><trkpt lat="44.61107453906319" lon="10.902407159870158"><ele>41.0</ele><time>2026-04-10T15:25:53Z</time></trkpt><trkpt lat="44.611196099330364" lon="10.902124245320069"><ele>40.0</ele><time>2026-04-10T15:25:54Z</time></trkpt><trkpt lat="44.61131656926278" lon="10.901841002474209"><ele>41.5</ele><time>2026-04-10T15:25:55Z</time></trkpt><trkpt lat="44.61143725951709" lon="10.90155750605"><ele>43.0</ele><time>2026-04-10T15:25:56Z</time></trkpt><trkpt lat="44.61155723776939" lon="10.901271505910055"><ele>43.0</ele><time>2026-04-10T15:25:57Z</time></trkpt><trkpt lat="44.6116794528052" lon="10.900983850844204"><ele>43.0</ele><time>2026-04-10T15:25:58Z</time></trkpt><trkpt lat="44.611802289161325" lon="10.900701144188567"><ele>43.0</ele><time>2026-04-10T15:25:59Z</time></trkpt><trkpt lat="44.61192385536511" lon="10.900415118850946"><ele>43.0</ele><time>2026-04-10T15:26:00Z</time></trkpt><trkpt lat="44.61204552177762" lon="10.900129040733077"><ele>43.0</ele><time>2026-04-10T15:26:01Z</time></trkpt><trkpt lat="44.61216810798548" lon="10.899841707389724"><ele>43.0</ele><time>2026-04-10T15:26:02Z</time></trkpt><trkpt lat="44.61229042586964" lon="10.899554862045603"><ele>43.0</ele><time>2026-04-10T15:26:03Z</time></trkpt><trkpt lat="44.61241222703589" lon="10.89926861547791"><ele>43.0</ele><time>2026-04-10T15:26:04Z</time></trkpt><trkpt lat="44.61253607758417" lon="10.898984208895245"><ele>43.5</ele><time>2026-04-10T15:26:05Z</time></trkpt><trkpt lat="44.61265818125663" lon="10.898697858844312"><ele>44.0</ele><time>2026-04-10T15:26:06Z</time></trkpt><trkpt lat="44.61277887882661" lon="10.898412700332782"><ele>44.0</ele><time>2026-04-10T15:26:07Z</time></trkpt><trkpt lat="44.61290187819242" lon="10.898129004523346"><ele>44.0</ele><time>2026-04-10T15:26:08Z</time></trkpt><trkpt lat="44.61302444739691" lon="10.897844626194487"><ele>44.0</ele><time>2026-04-10T15:26:09Z</time></trkpt><trkpt lat="44.613146568893825" lon="10.897557532601851"><ele>44.0</ele><time>2026-04-10T15:26:10Z</time></trkpt><trkpt lat="44.62255271035485" lon="10.882311622476987"><ele>44.5</ele><time>2026-04-10T15:27:11Z</time></trkpt><trkpt lat="44.62278140943132" lon="10.882171902425506"><ele>45.0</ele><time>2026-04-10T15:27:12Z</time></trkpt><trkpt lat="44.62300796993485" lon="10.882027322382958"><ele>44.0</ele><time>2026-04-10T15:27:13Z</time></trkpt><trkpt lat="44.62323820642951" lon="10.881886068637685"><ele>43.0</ele><time>2026-04-10T15:27:14Z</time></trkpt><trkpt lat="44.62347012993485" lon="10.881747373946723"><ele>43.0</ele><time>2026-04-10T15:27:15Z</time></trkpt><trkpt lat="44.62370038438292" lon="10.881607236894034"><ele>43.0</ele><time>2026-04-10T15:27:16Z</time></trkpt><trkpt lat="44.62392886512173" lon="10.881465157218745"><ele>43.0</ele><time>2026-04-10T15:27:17Z</time></trkpt><trkpt lat="44.62415792651544" lon="10.881323669261684"><ele>43.0</ele><time>2026-04-10T15:27:18Z</time></trkpt><trkpt lat="44.62438671604698" lon="10.881185521007653"><ele>43.0</ele><time>2026-04-10T15:27:19Z</time></trkpt><trkpt lat="44.62461134029886" lon="10.881051073885615"><ele>43.0</ele><time>2026-04-10T15:27:20Z</time></trkpt><trkpt lat="44.624833688190705" lon="10.880918661433949"><ele>43.0</ele><time>2026-04-10T15:27:21Z</time></trkpt><trkpt lat="44.62505296241736" lon="10.880781264959895"><ele>43.0</ele><time>2026-04-10T15:27:22Z</time></trkpt><trkpt lat="44.625269550935684" lon="10.880645651403642"><ele>43.5</ele><time>2026-04-10T15:27:23Z</time></trkpt><trkpt lat="44.62548544109835" lon="10.880516226659612"><ele>44.0</ele><time>2026-04-10T15:27:24Z</time></trkpt><trkpt lat="44.62569889639407" lon="10.88038565906121"><ele>44.0</ele><time>2026-04-10T15:27:25Z</time></trkpt><trkpt lat="44.625911729760894" lon="10.880254634550607"><ele>44.0</ele><time>2026-04-10T15:27:26Z</time></trkpt><trkpt lat="44.62612663724734" lon="10.880123064455653"><ele>43.5</ele><time>2026-04-10T15:27:27Z</time></trkpt><trkpt lat="44.62634125711364" lon="10.879995898685399"><ele>43.0</ele><time>2026-04-10T15:27:28Z</time></trkpt><trkpt lat="44.62655726376625" lon="10.879869071483316"><ele>43.0</ele><time>2026-04-10T15:27:29Z</time></trkpt><trkpt lat="44.626771071711225" lon="10.879737886047993"><ele>43.0</ele><time>2026-04-10T15:27:30Z</time></trkpt><trkpt lat="44.62698721845124" lon="10.879606709962893"><ele>43.0</ele><time>2026-04-10T15:27:31Z</time></trkpt><trkpt lat="44.62720326968275" lon="10.879476594004135"><ele>43.0</ele><time>2026-04-10T15:27:32Z</time></trkpt><trkpt lat="44.62741929519092" lon="10.879344657145435"><ele>43.0</ele><time>2026-04-10T15:27:33Z</time></trkpt><trkpt lat="44.62763815815064" lon="10.879212515976729"><ele>43.0</ele><time>2026-04-10T15:27:34Z</time></trkpt><trkpt lat="44.62785852501929" lon="10.879080232971384"><ele>44.0</ele><time>2026-04-10T15:27:35Z</time></trkpt><trkpt lat="44.62807800612845" lon="10.878944837549465"><ele>45.0</ele><time>2026-04-10T15:27:36Z</time></trkpt><trkpt lat="44.62829692132793" lon="10.878808274710426"><ele>45.0</ele><time>2026-04-10T15:27:37Z</time></trkpt><trkpt lat="44.62851774339516" lon="10.878671808123743"><ele>45.0</ele><time>2026-04-10T15:27:38Z</time></trkpt><trkpt lat="44.62874069945271" lon="10.878533657681265"><ele>46.0</ele><time>2026-04-10T15:27:39Z</time></trkpt><trkpt lat="44.628965743022064" lon="10.878394422367755"><ele>47.0</ele><time>2026-04-10T15:27:40Z</time></trkpt><trkpt lat="44.62919012295395" lon="10.878256698546675"><ele>47.0</ele><time>2026-04-10T15:27:41Z</time></trkpt><trkpt lat="44.62941557243751" lon="10.878117354338794"><ele>47.0</ele><time>2026-04-10T15:27:42Z</time></trkpt><trkpt lat="44.629637034577755" lon="10.877980180946079"><ele>43.5</ele><time>2026-04-10T15:27:43Z</time></trkpt><trkpt lat="44.629853636086104" lon="10.877845847422098"><ele>40.0</ele><time>2026-04-10T15:27:44Z</time></trkpt><trkpt lat="44.63006961292932" lon="10.877712672915932"><ele>40.0</ele><time>2026-04-10T15:27:45Z</time></trkpt><trkpt lat="44.63028613504748" lon="10.877579737253905"><ele>40.0</ele><time>2026-04-10T15:27:46Z</time></trkpt><trkpt lat="44.630503487340825" lon="10.877451312881544"><ele>40.0</ele><time>2026-04-10T15:27:47Z</time></trkpt><trkpt lat="44.63072117690019" lon="10.8773218071813"><ele>40.0</ele><time>2026-04-10T15:27:48Z</time></trkpt><trkpt lat="44.63093915919836" lon="10.877190252089525"><ele>40.5</ele><time>2026-04-10T15:27:49Z</time></trkpt><trkpt lat="44.63115911131498" lon="10.877054074224509"><ele>41.0</ele><time>2026-04-10T15:27:50Z</time></trkpt><trkpt lat="44.63137898473887" lon="10.876916095028447"><ele>41.0</ele><time>2026-04-10T15:27:51Z</time></trkpt><trkpt lat="44.63160129527157" lon="10.876781652783174"><ele>41.0</ele><time>2026-04-10T15:27:52Z</time></trkpt><trkpt lat="44.631824040228175" lon="10.876648008511062"><ele>41.5</ele><time>2026-04-10T15:27:53Z</time></trkpt><trkpt lat="44.63204461870712" lon="10.876508154215283"><ele>42.0</ele><time>2026-04-10T15:27:54Z</time></trkpt><trkpt lat="44.63249156906999" lon="10.876227806544668"><ele>42.0</ele><time>2026-04-10T15:27:56Z</time></trkpt><trkpt lat="44.63270655368083" lon="10.876096486965203"><ele>42.0</ele><time>2026-04-10T15:27:57Z</time></trkpt><trkpt lat="44.632922312081455" lon="10.875964519286397"><ele>41.0</ele><time>2026-04-10T15:27:58Z</time></trkpt><trkpt lat="44.63313886763327" lon="10.875832737520314"><ele>40.0</ele><time>2026-04-10T15:27:59Z</time></trkpt><trkpt lat="44.633352684755366" lon="10.875703101691391"><ele>40.0</ele><time>2026-04-10T15:28:00Z</time></trkpt><trkpt lat="44.63356179877004" lon="10.875575710904748"><ele>40.0</ele><time>2026-04-10T15:28:01Z</time></trkpt><trkpt lat="44.633767670777274" lon="10.87545047405323"><ele>40.0</ele><time>2026-04-10T15:28:02Z</time></trkpt><trkpt lat="44.633976824037745" lon="10.875320312553884"><ele>40.0</ele><time>2026-04-10T15:28:03Z</time></trkpt><trkpt lat="44.6341910559217" lon="10.875188530564337"><ele>40.0</ele><time>2026-04-10T15:28:04Z</time></trkpt><trkpt lat="44.63440865874779" lon="10.875055583291033"><ele>40.0</ele><time>2026-04-10T15:28:05Z</time></trkpt><trkpt lat="44.63462663149836" lon="10.874926849819106"><ele>41.0</ele><time>2026-04-10T15:28:06Z</time></trkpt><trkpt lat="44.63483669651791" lon="10.874803746780115"><ele>42.0</ele><time>2026-04-10T15:28:07Z</time></trkpt><trkpt lat="44.635039898409566" lon="10.874674557037096"><ele>42.0</ele><time>2026-04-10T15:28:08Z</time></trkpt><trkpt lat="44.635243984162706" lon="10.874544036568137"><ele>42.0</ele><time>2026-04-10T15:28:09Z</time></trkpt><trkpt lat="44.63544691518881" lon="10.874418308711293"><ele>42.0</ele><time>2026-04-10T15:28:10Z</time></trkpt><trkpt lat="44.64849823282465" lon="10.866437202032648"><ele>42.0</ele><time>2026-04-10T15:29:11Z</time></trkpt><trkpt lat="44.64869847407843" lon="10.86631438625207"><ele>42.0</ele><time>2026-04-10T15:29:12Z</time></trkpt><trkpt lat="44.64890355471556" lon="10.866186247441705"><ele>42.0</ele><time>2026-04-10T15:29:13Z</time></trkpt><trkpt lat="44.64911027679816" lon="10.866053883742754"><ele>42.0</ele><time>2026-04-10T15:29:14Z</time></trkpt><trkpt lat="44.64931814779555" lon="10.865920741264597"><ele>42.0</ele><time>2026-04-10T15:29:15Z</time></trkpt><trkpt lat="44.64952219378134" lon="10.865792350829963"><ele>41.0</ele><time>2026-04-10T15:29:16Z</time></trkpt><trkpt lat="44.64972099324193" lon="10.865672604816556"><ele>40.0</ele><time>2026-04-10T15:29:17Z</time></trkpt><trkpt lat="44.649922090360285" lon="10.865550746370161"><ele>39.0</ele><time>2026-04-10T15:29:18Z</time></trkpt><trkpt lat="44.650124225624005" lon="10.865428687223787"><ele>38.0</ele><time>2026-04-10T15:29:19Z</time></trkpt><trkpt lat="44.650321675101985" lon="10.86530570826844"><ele>37.0</ele><time>2026-04-10T15:29:20Z</time></trkpt><trkpt lat="44.6505263447292" lon="10.865183168934664"><ele>36.0</ele><time>2026-04-10T15:29:21Z</time></trkpt><trkpt lat="44.650726445716764" lon="10.865062505997809"><ele>35.333333333333336</ele><time>2026-04-10T15:29:22Z</time></trkpt><trkpt lat="44.650924290620715" lon="10.864940078850335"><ele>34.66666666666667</ele><time>2026-04-10T15:29:23Z</time></trkpt><trkpt lat="44.6511200762863" lon="10.864818907318893"><ele>34.0</ele><time>2026-04-10T15:29:24Z</time></trkpt><trkpt lat="44.651313357697006" lon="10.864693718699545"><ele>34.0</ele><time>2026-04-10T15:29:25Z</time></trkpt><trkpt lat="44.65150978071156" lon="10.86457158870538"><ele>34.0</ele><time>2026-04-10T15:29:26Z</time></trkpt><trkpt lat="44.65170916691042" lon="10.864451894171419"><ele>34.0</ele><time>2026-04-10T15:29:27Z</time></trkpt><trkpt lat="44.65191063614553" lon="10.864325557517294"><ele>35.0</ele><time>2026-04-10T15:29:28Z</time></trkpt><trkpt lat="44.65211871143089" lon="10.864197631823135"><ele>36.0</ele><time>2026-04-10T15:29:29Z</time></trkpt><trkpt lat="44.65232974488497" lon="10.864068934842626"><ele>36.0</ele><time>2026-04-10T15:29:30Z</time></trkpt><trkpt lat="44.65253997722319" lon="10.863944063153562"><ele>36.0</ele><time>2026-04-10T15:29:31Z</time></trkpt><trkpt lat="44.652751223597555" lon="10.863818055276672"><ele>37.0</ele><time>2026-04-10T15:29:32Z</time></trkpt><trkpt lat="44.65294638454071" lon="10.86369117750462"><ele>38.0</ele><time>2026-04-10T15:29:33Z</time></trkpt><trkpt lat="44.65314158076397" lon="10.86357018266892"><ele>39.0</ele><time>2026-04-10T15:29:34Z</time></trkpt><trkpt lat="44.65333088378108" lon="10.86345501582337"><ele>39.333333333333336</ele><time>2026-04-10T15:29:35Z</time></trkpt><trkpt lat="44.65352330199292" lon="10.863335697696384"><ele>39.66666666666667</ele><time>2026-04-10T15:29:36Z</time></trkpt><trkpt lat="44.65371564818579" lon="10.863221112669653"><ele>40.0</ele><time>2026-04-10T15:29:37Z</time></trkpt><trkpt lat="44.65391462178231" lon="10.86310710117203"><ele>40.0</ele><time>2026-04-10T15:29:38Z</time></trkpt><trkpt lat="44.65411293824242" lon="10.862982991554393"><ele>40.0</ele><time>2026-04-10T15:29:39Z</time></trkpt><trkpt lat="44.6543187608697" lon="10.86286064002667"><ele>40.0</ele><time>2026-04-10T15:29:40Z</time></trkpt><trkpt lat="44.654517453682" lon="10.86273963857163"><ele>39.66666666666667</ele><time>2026-04-10T15:29:41Z</time></trkpt><trkpt lat="44.654718775009705" lon="10.862612789718547"><ele>39.333333333333336</ele><time>2026-04-10T15:29:42Z</time></trkpt><trkpt lat="44.654914829848174" lon="10.862489917452885"><ele>39.0</ele><time>2026-04-10T15:29:43Z</time></trkpt><trkpt lat="44.65510300950807" lon="10.862376032515405"><ele>39.333333333333336</ele><time>2026-04-10T15:29:44Z</time></trkpt><trkpt lat="44.65528802305276" lon="10.862259915701442"><ele>39.66666666666667</ele><time>2026-04-10T15:29:45Z</time></trkpt><trkpt lat="44.655473707817876" lon="10.862146403752494"><ele>40.0</ele><time>2026-04-10T15:29:46Z</time></trkpt><trkpt lat="44.655659631574" lon="10.862034932213502"><ele>40.0</ele><time>2026-04-10T15:29:47Z</time></trkpt><trkpt lat="44.65584676271237" lon="10.861918769539315"><ele>40.0</ele><time>2026-04-10T15:29:48Z</time></trkpt><trkpt lat="44.65603978935288" lon="10.861800548212903"><ele>40.0</ele><time>2026-04-10T15:29:49Z</time></trkpt><trkpt lat="44.656239682257585" lon="10.861675913795024"><ele>39.5</ele><time>2026-04-10T15:29:50Z</time></trkpt><trkpt lat="44.656443849829884" lon="10.861552638306309"><ele>39.0</ele><time>2026-04-10T15:29:51Z</time></trkpt><trkpt lat="44.656650778380794" lon="10.861419263201867"><ele>39.0</ele><time>2026-04-10T15:29:52Z</time></trkpt><trkpt lat="44.65686069730084" lon="10.861291424528009"><ele>39.0</ele><time>2026-04-10T15:29:53Z</time></trkpt><trkpt lat="44.65707218759234" lon="10.86116079220211"><ele>39.0</ele><time>2026-04-10T15:29:54Z</time></trkpt><trkpt lat="44.657285663036376" lon="10.861033423533703"><ele>39.0</ele><time>2026-04-10T15:29:55Z</time></trkpt><trkpt lat="44.657495151031085" lon="10.860902027535374"><ele>39.0</ele><time>2026-04-10T15:29:56Z</time></trkpt><trkpt lat="44.65770841033747" lon="10.860774412081504"><ele>39.0</ele><time>2026-04-10T15:29:57Z</time></trkpt><trkpt lat="44.65791656406334" lon="10.860648106992393"><ele>38.5</ele><time>2026-04-10T15:29:58Z</time></trkpt><trkpt lat="44.65812591587017" lon="10.860513910883947"><ele>38.0</ele><time>2026-04-10T15:29:59Z</time></trkpt><trkpt lat="44.65833862170115" lon="10.860375585090996"><ele>38.0</ele><time>2026-04-10T15:30:00Z</time></trkpt><trkpt lat="44.658555111368486" lon="10.860240938770236"><ele>38.0</ele><time>2026-04-10T15:30:01Z</time></trkpt><trkpt lat="44.6587764618998" lon="10.860099561689584"><ele>38.0</ele><time>2026-04-10T15:30:02Z</time></trkpt><trkpt lat="44.658993272116064" lon="10.859954517200833"><ele>38.0</ele><time>2026-04-10T15:30:03Z</time></trkpt><trkpt lat="44.659208229169685" lon="10.859806777831427"><ele>38.0</ele><time>2026-04-10T15:30:04Z</time></trkpt><trkpt lat="44.65941889487068" lon="10.859650256323606"><ele>38.0</ele><time>2026-04-10T15:30:05Z</time></trkpt><trkpt lat="44.65962277443536" lon="10.859487129244709"><ele>37.5</ele><time>2026-04-10T15:30:06Z</time></trkpt><trkpt lat="44.65982544179178" lon="10.859322473068517"><ele>37.0</ele><time>2026-04-10T15:30:07Z</time></trkpt><trkpt lat="44.66002523763231" lon="10.859158987977263"><ele>38.0</ele><time>2026-04-10T15:30:08Z</time></trkpt><trkpt lat="44.66021612789312" lon="10.858990504771379"><ele>39.0</ele><time>2026-04-10T15:30:09Z</time></trkpt><trkpt lat="44.66040953003835" lon="10.858820239245095"><ele>41.0</ele><time>2026-04-10T15:30:10Z</time></trkpt><trkpt lat="44.66816218977449" lon="10.843109364305807"><ele>41.0</ele><time>2026-04-10T15:31:11Z</time></trkpt><trkpt lat="44.668263209107224" lon="10.842810534752438"><ele>41.0</ele><time>2026-04-10T15:31:12Z</time></trkpt><trkpt lat="44.66836536256999" lon="10.842510806970465"><ele>41.0</ele><time>2026-04-10T15:31:13Z</time></trkpt><trkpt lat="44.66847021907337" lon="10.84220994335573"><ele>41.0</ele><time>2026-04-10T15:31:14Z</time></trkpt><trkpt lat="44.66857110627404" lon="10.841909438853708"><ele>41.0</ele><time>2026-04-10T15:31:15Z</time></trkpt><trkpt lat="44.668674558831285" lon="10.841612511470297"><ele>41.0</ele><time>2026-04-10T15:31:16Z</time></trkpt><trkpt lat="44.66877887000455" lon="10.841314624790545"><ele>41.0</ele><time>2026-04-10T15:31:17Z</time></trkpt><trkpt lat="44.668884189909285" lon="10.841013490644634"><ele>41.0</ele><time>2026-04-10T15:31:18Z</time></trkpt><trkpt lat="44.66898950830091" lon="10.840713454148426"><ele>40.0</ele><time>2026-04-10T15:31:19Z</time></trkpt><trkpt lat="44.669095398828155" lon="10.840413058290512"><ele>39.0</ele><time>2026-04-10T15:31:20Z</time></trkpt><trkpt lat="44.6692004277551" lon="10.840111044976052"><ele>38.0</ele><time>2026-04-10T15:31:21Z</time></trkpt><trkpt lat="44.66930398729121" lon="10.839808370013474"><ele>37.0</ele><time>2026-04-10T15:31:22Z</time></trkpt><trkpt lat="44.669408455074226" lon="10.839505278412116"><ele>38.0</ele><time>2026-04-10T15:31:23Z</time></trkpt><trkpt lat="44.66951472145824" lon="10.839201889292347"><ele>39.0</ele><time>2026-04-10T15:31:24Z</time></trkpt><trkpt lat="44.66962157323291" lon="10.83889594796237"><ele>39.0</ele><time>2026-04-10T15:31:25Z</time></trkpt><trkpt lat="44.66972506594604" lon="10.838591257045318"><ele>39.0</ele><time>2026-04-10T15:31:26Z</time></trkpt><trkpt lat="44.6698272846074" lon="10.838286710485631"><ele>40.0</ele><time>2026-04-10T15:31:27Z</time></trkpt><trkpt lat="44.66993308231359" lon="10.83797970423271"><ele>41.0</ele><time>2026-04-10T15:31:28Z</time></trkpt><trkpt lat="44.67004049305545" lon="10.837670346346004"><ele>40.5</ele><time>2026-04-10T15:31:29Z</time></trkpt><trkpt lat="44.67014324029291" lon="10.837361542435614"><ele>40.0</ele><time>2026-04-10T15:31:30Z</time></trkpt><trkpt lat="44.670249319493536" lon="10.837061746948434"><ele>40.0</ele><time>2026-04-10T15:31:31Z</time></trkpt><trkpt lat="44.670356470773484" lon="10.836760853124751"><ele>40.0</ele><time>2026-04-10T15:31:32Z</time></trkpt><trkpt lat="44.67046150507997" lon="10.836457624573153"><ele>40.0</ele><time>2026-04-10T15:31:33Z</time></trkpt><trkpt lat="44.670564928145424" lon="10.836150640203561"><ele>40.0</ele><time>2026-04-10T15:31:34Z</time></trkpt><trkpt lat="44.67066759649668" lon="10.835843964613153"><ele>40.0</ele><time>2026-04-10T15:31:35Z</time></trkpt><trkpt lat="44.67077219863215" lon="10.83554469284445"><ele>40.0</ele><time>2026-04-10T15:31:36Z</time></trkpt><trkpt lat="44.670874556290386" lon="10.835244294266381"><ele>39.5</ele><time>2026-04-10T15:31:37Z</time></trkpt><trkpt lat="44.670977682843684" lon="10.834944658663373"><ele>39.0</ele><time>2026-04-10T15:31:38Z</time></trkpt><trkpt lat="44.671082377555805" lon="10.834642800703241"><ele>38.0</ele><time>2026-04-10T15:31:39Z</time></trkpt><trkpt lat="44.67118811136115" lon="10.834338257079331"><ele>37.0</ele><time>2026-04-10T15:31:40Z</time></trkpt><trkpt lat="44.67129361205949" lon="10.834034548384725"><ele>37.0</ele><time>2026-04-10T15:31:41Z</time></trkpt><trkpt lat="44.6713973337692" lon="10.833731360228095"><ele>37.0</ele><time>2026-04-10T15:31:42Z</time></trkpt><trkpt lat="44.671502129077375" lon="10.833428941502307"><ele>38.5</ele><time>2026-04-10T15:31:43Z</time></trkpt><trkpt lat="44.67160673261091" lon="10.833126371897364"><ele>40.0</ele><time>2026-04-10T15:31:44Z</time></trkpt><trkpt lat="44.67171373407335" lon="10.832821653004046"><ele>39.5</ele><time>2026-04-10T15:31:45Z</time></trkpt><trkpt lat="44.671821030608186" lon="10.832516242259715"><ele>39.0</ele><time>2026-04-10T15:31:46Z</time></trkpt><trkpt lat="44.671922801683564" lon="10.832207718535582"><ele>40.5</ele><time>2026-04-10T15:31:47Z</time></trkpt><trkpt lat="44.67202684455749" lon="10.83190140629168"><ele>42.0</ele><time>2026-04-10T15:31:48Z</time></trkpt><trkpt lat="44.67213509778039" lon="10.831599370424458"><ele>42.5</ele><time>2026-04-10T15:31:49Z</time></trkpt><trkpt lat="44.672243729877216" lon="10.831291555810042"><ele>43.0</ele><time>2026-04-10T15:31:50Z</time></trkpt><trkpt lat="44.67234921211489" lon="10.830985272155091"><ele>43.0</ele><time>2026-04-10T15:31:51Z</time></trkpt><trkpt lat="44.672454976963266" lon="10.830677541418005"><ele>43.0</ele><time>2026-04-10T15:31:52Z</time></trkpt><trkpt lat="44.67256115793355" lon="10.830370212579409"><ele>43.5</ele><time>2026-04-10T15:31:53Z</time></trkpt><trkpt lat="44.67266790308052" lon="10.830062420842424"><ele>44.0</ele><time>2026-04-10T15:31:54Z</time></trkpt><trkpt lat="44.672775029466145" lon="10.829755936279172"><ele>44.5</ele><time>2026-04-10T15:31:55Z</time></trkpt><trkpt lat="44.672884955347385" lon="10.82944959557929"><ele>45.0</ele><time>2026-04-10T15:31:56Z</time></trkpt><trkpt lat="44.6729919428422" lon="10.829139787583708"><ele>45.0</ele><time>2026-04-10T15:31:57Z</time></trkpt><trkpt lat="44.673095330187884" lon="10.82883200203697"><ele>45.0</ele><time>2026-04-10T15:31:58Z</time></trkpt><trkpt lat="44.67320356742052" lon="10.828526885418636"><ele>44.5</ele><time>2026-04-10T15:31:59Z</time></trkpt><trkpt lat="44.67331470635738" lon="10.82821936046073"><ele>44.0</ele><time>2026-04-10T15:32:00Z</time></trkpt><trkpt lat="44.673425124401064" lon="10.82790759947613"><ele>44.0</ele><time>2026-04-10T15:32:01Z</time></trkpt><trkpt lat="44.67353480084175" lon="10.827591682606016"><ele>44.0</ele><time>2026-04-10T15:32:02Z</time></trkpt><trkpt lat="44.6736436066227" lon="10.827276180459625"><ele>44.0</ele><time>2026-04-10T15:32:03Z</time></trkpt><trkpt lat="44.67375359477538" lon="10.826961693225314"><ele>44.0</ele><time>2026-04-10T15:32:04Z</time></trkpt><trkpt lat="44.67386288291198" lon="10.82664508643397"><ele>44.0</ele><time>2026-04-10T15:32:05Z</time></trkpt><trkpt lat="44.67397128048526" lon="10.826327858835569"><ele>44.0</ele><time>2026-04-10T15:32:06Z</time></trkpt><trkpt lat="44.674081496878166" lon="10.826011688515566"><ele>43.5</ele><time>2026-04-10T15:32:07Z</time></trkpt><trkpt lat="44.6741921082823" lon="10.825694047202791"><ele>43.0</ele><time>2026-04-10T15:32:08Z</time></trkpt><trkpt lat="44.67430164955994" lon="10.825374981521266"><ele>43.0</ele><time>2026-04-10T15:32:09Z</time></trkpt><trkpt lat="44.674411003789075" lon="10.825054732161323"><ele>43.0</ele><time>2026-04-10T15:32:10Z</time></trkpt><trkpt lat="44.681063846245245" lon="10.805928464121928"><ele>43.5</ele><time>2026-04-10T15:33:11Z</time></trkpt><trkpt lat="44.681171356515414" lon="10.805617522440292"><ele>44.0</ele><time>2026-04-10T15:33:12Z</time></trkpt><trkpt lat="44.68127838010249" lon="10.805307567360142"><ele>43.0</ele><time>2026-04-10T15:33:13Z</time></trkpt><trkpt lat="44.68138529175921" lon="10.804995932035943"><ele>42.0</ele><time>2026-04-10T15:33:14Z</time></trkpt><trkpt lat="44.68149476082399" lon="10.804683928124707"><ele>42.0</ele><time>2026-04-10T15:33:15Z</time></trkpt><trkpt lat="44.68160277476156" lon="10.804373302041082"><ele>42.0</ele><time>2026-04-10T15:33:16Z</time></trkpt><trkpt lat="44.68170849795759" lon="10.80406005201944"><ele>42.0</ele><time>2026-04-10T15:33:17Z</time></trkpt><trkpt lat="44.681815880783134" lon="10.80374857757368"><ele>42.0</ele><time>2026-04-10T15:33:18Z</time></trkpt><trkpt lat="44.68192265181133" lon="10.803436929325748"><ele>42.5</ele><time>2026-04-10T15:33:19Z</time></trkpt><trkpt lat="44.68203140842568" lon="10.803122430393048"><ele>43.0</ele><time>2026-04-10T15:33:20Z</time></trkpt><trkpt lat="44.68214194749477" lon="10.80280707687745"><ele>42.5</ele><time>2026-04-10T15:33:21Z</time></trkpt><trkpt lat="44.68225211554865" lon="10.802489233731029"><ele>42.0</ele><time>2026-04-10T15:33:22Z</time></trkpt><trkpt lat="44.6823639339506" lon="10.802169810842427"><ele>42.0</ele><time>2026-04-10T15:33:23Z</time></trkpt><trkpt lat="44.682473669190806" lon="10.801848116988666"><ele>42.0</ele><time>2026-04-10T15:33:24Z</time></trkpt><trkpt lat="44.68258289969254" lon="10.801528207357519"><ele>42.0</ele><time>2026-04-10T15:33:25Z</time></trkpt><trkpt lat="44.68269242341191" lon="10.80121040456942"><ele>42.0</ele><time>2026-04-10T15:33:26Z</time></trkpt><trkpt lat="44.68280275109247" lon="10.800896240701967"><ele>42.0</ele><time>2026-04-10T15:33:27Z</time></trkpt><trkpt lat="44.682914538060054" lon="10.800576430366553"><ele>42.0</ele><time>2026-04-10T15:33:28Z</time></trkpt><trkpt lat="44.68302688830429" lon="10.80025933444902"><ele>43.5</ele><time>2026-04-10T15:33:29Z</time></trkpt><trkpt lat="44.6831361632647" lon="10.79993944898882"><ele>45.0</ele><time>2026-04-10T15:33:30Z</time></trkpt><trkpt lat="44.68324480395649" lon="10.799617859299216"><ele>44.0</ele><time>2026-04-10T15:33:31Z</time></trkpt><trkpt lat="44.68335621882891" lon="10.799296020977977"><ele>43.0</ele><time>2026-04-10T15:33:32Z</time></trkpt><trkpt lat="44.68346693944726" lon="10.79897326340703"><ele>43.0</ele><time>2026-04-10T15:33:33Z</time></trkpt><trkpt lat="44.6835792243352" lon="10.798651643871734"><ele>43.0</ele><time>2026-04-10T15:33:34Z</time></trkpt><trkpt lat="44.68369164630076" lon="10.79832777751055"><ele>42.0</ele><time>2026-04-10T15:33:35Z</time></trkpt><trkpt lat="44.68380276037406" lon="10.79800546297886"><ele>41.0</ele><time>2026-04-10T15:33:36Z</time></trkpt><trkpt lat="44.68391420933677" lon="10.79768433875617"><ele>41.5</ele><time>2026-04-10T15:33:37Z</time></trkpt><trkpt lat="44.684026352102414" lon="10.797361590337605"><ele>42.0</ele><time>2026-04-10T15:33:38Z</time></trkpt><trkpt lat="44.68413821925725" lon="10.797040537091748"><ele>41.5</ele><time>2026-04-10T15:33:39Z</time></trkpt><trkpt lat="44.68425147725506" lon="10.796719482227182"><ele>41.0</ele><time>2026-04-10T15:33:40Z</time></trkpt><trkpt lat="44.68436391943178" lon="10.796397081466496"><ele>41.0</ele><time>2026-04-10T15:33:41Z</time></trkpt><trkpt lat="44.68447625215733" lon="10.796076194225847"><ele>41.0</ele><time>2026-04-10T15:33:42Z</time></trkpt><trkpt lat="44.68458905229643" lon="10.7957517458989"><ele>41.0</ele><time>2026-04-10T15:33:43Z</time></trkpt><trkpt lat="44.68470282101979" lon="10.795426254206824"><ele>41.0</ele><time>2026-04-10T15:33:44Z</time></trkpt><trkpt lat="44.684818241146075" lon="10.79510225106051"><ele>41.0</ele><time>2026-04-10T15:33:45Z</time></trkpt><trkpt lat="44.6849327103045" lon="10.794777370915906"><ele>41.0</ele><time>2026-04-10T15:33:46Z</time></trkpt><trkpt lat="44.68504703923011" lon="10.79444796358063"><ele>41.0</ele><time>2026-04-10T15:33:47Z</time></trkpt><trkpt lat="44.68516066820874" lon="10.794118967825854"><ele>41.0</ele><time>2026-04-10T15:33:48Z</time></trkpt><trkpt lat="44.68527276206768" lon="10.793788923755143"><ele>40.0</ele><time>2026-04-10T15:33:49Z</time></trkpt><trkpt lat="44.685384220639435" lon="10.793459161028519"><ele>39.0</ele><time>2026-04-10T15:33:50Z</time></trkpt><trkpt lat="44.68549831384311" lon="10.793130857073162"><ele>39.0</ele><time>2026-04-10T15:33:51Z</time></trkpt><trkpt lat="44.68561622136071" lon="10.792804025713021"><ele>39.0</ele><time>2026-04-10T15:33:52Z</time></trkpt><trkpt lat="44.68572455000895" lon="10.792482111489758"><ele>39.5</ele><time>2026-04-10T15:33:53Z</time></trkpt><trkpt lat="44.68583550800626" lon="10.79216632272357"><ele>40.0</ele><time>2026-04-10T15:33:54Z</time></trkpt><trkpt lat="44.685946000113084" lon="10.791851869059522"><ele>40.0</ele><time>2026-04-10T15:33:55Z</time></trkpt><trkpt lat="44.68605832699537" lon="10.791540809158164"><ele>40.0</ele><time>2026-04-10T15:33:56Z</time></trkpt><trkpt lat="44.686171331630575" lon="10.791232105953878"><ele>41.0</ele><time>2026-04-10T15:33:57Z</time></trkpt><trkpt lat="44.68627897007226" lon="10.790922768915514"><ele>42.0</ele><time>2026-04-10T15:33:58Z</time></trkpt><trkpt lat="44.68638308130216" lon="10.79061001598811"><ele>42.0</ele><time>2026-04-10T15:33:59Z</time></trkpt><trkpt lat="44.68649288826487" lon="10.790299797461767"><ele>42.0</ele><time>2026-04-10T15:34:00Z</time></trkpt><trkpt lat="44.68660113760069" lon="10.78998697913089"><ele>42.0</ele><time>2026-04-10T15:34:01Z</time></trkpt><trkpt lat="44.68670671291555" lon="10.789669738490753"><ele>42.0</ele><time>2026-04-10T15:34:02Z</time></trkpt><trkpt lat="44.6868143551845" lon="10.789354022938376"><ele>42.5</ele><time>2026-04-10T15:34:03Z</time></trkpt><trkpt lat="44.68692315104144" lon="10.789039001061761"><ele>43.0</ele><time>2026-04-10T15:34:04Z</time></trkpt><trkpt lat="44.68703187995107" lon="10.788722987015369"><ele>42.0</ele><time>2026-04-10T15:34:05Z</time></trkpt><trkpt lat="44.68714021160967" lon="10.788405984200649"><ele>41.0</ele><time>2026-04-10T15:34:06Z</time></trkpt><trkpt lat="44.68724894447228" lon="10.7880875678626"><ele>41.0</ele><time>2026-04-10T15:34:07Z</time></trkpt><trkpt lat="44.68735944595809" lon="10.78776613755714"><ele>41.0</ele><time>2026-04-10T15:34:08Z</time></trkpt><trkpt lat="44.687473300901885" lon="10.787441851263399"><ele>41.0</ele><time>2026-04-10T15:34:09Z</time></trkpt><trkpt lat="44.68758700285748" lon="10.787114308057847"><ele>41.0</ele><time>2026-04-10T15:34:10Z</time></trkpt><trkpt lat="44.694340796708744" lon="10.767649336539776"><ele>40.5</ele><time>2026-04-10T15:35:11Z</time></trkpt><trkpt lat="44.69445485947626" lon="10.767321278381726"><ele>40.0</ele><time>2026-04-10T15:35:12Z</time></trkpt><trkpt lat="44.69456909431139" lon="10.766992574046505"><ele>40.5</ele><time>2026-04-10T15:35:13Z</time></trkpt><trkpt lat="44.694681195269446" lon="10.766661639515823"><ele>41.0</ele><time>2026-04-10T15:35:14Z</time></trkpt><trkpt lat="44.6947935652332" lon="10.76632922973018"><ele>40.5</ele><time>2026-04-10T15:35:15Z</time></trkpt><trkpt lat="44.694909859524834" lon="10.765994119817394"><ele>40.0</ele><time>2026-04-10T15:35:16Z</time></trkpt><trkpt lat="44.6950275370911" lon="10.765660593426452"><ele>40.0</ele><time>2026-04-10T15:35:17Z</time></trkpt><trkpt lat="44.69514524569001" lon="10.765325639377217"><ele>40.0</ele><time>2026-04-10T15:35:18Z</time></trkpt><trkpt lat="44.695263684601244" lon="10.764989024163322"><ele>40.0</ele><time>2026-04-10T15:35:19Z</time></trkpt><trkpt lat="44.69537961715699" lon="10.764650445182967"><ele>40.0</ele><time>2026-04-10T15:35:20Z</time></trkpt><trkpt lat="44.69549693860343" lon="10.76431353432244"><ele>40.0</ele><time>2026-04-10T15:35:21Z</time></trkpt><trkpt lat="44.69561426340829" lon="10.763976072978203"><ele>40.0</ele><time>2026-04-10T15:35:22Z</time></trkpt><trkpt lat="44.69572884510966" lon="10.763640852053827"><ele>41.0</ele><time>2026-04-10T15:35:23Z</time></trkpt><trkpt lat="44.695845019249646" lon="10.763307669832407"><ele>42.0</ele><time>2026-04-10T15:35:24Z</time></trkpt><trkpt lat="44.69596147791442" lon="10.76297555960979"><ele>41.5</ele><time>2026-04-10T15:35:25Z</time></trkpt><trkpt lat="44.69608049396441" lon="10.762644747841573"><ele>41.0</ele><time>2026-04-10T15:35:26Z</time></trkpt><trkpt lat="44.69619824319757" lon="10.762316697807007"><ele>41.0</ele><time>2026-04-10T15:35:27Z</time></trkpt><trkpt lat="44.69630868911516" lon="10.762000630675823"><ele>41.0</ele><time>2026-04-10T15:35:28Z</time></trkpt><trkpt lat="44.696418293597326" lon="10.761681699647447"><ele>40.0</ele><time>2026-04-10T15:35:29Z</time></trkpt><trkpt lat="44.6965283115489" lon="10.761366030639389"><ele>39.0</ele><time>2026-04-10T15:35:30Z</time></trkpt><trkpt lat="44.696636366458634" lon="10.761051175324477"><ele>39.5</ele><time>2026-04-10T15:35:31Z</time></trkpt><trkpt lat="44.696741398471794" lon="10.760735564303062"><ele>40.0</ele><time>2026-04-10T15:35:32Z</time></trkpt><trkpt lat="44.69684865245938" lon="10.760418696584237"><ele>40.5</ele><time>2026-04-10T15:35:33Z</time></trkpt><trkpt lat="44.69695917492628" lon="10.7601025056809"><ele>41.0</ele><time>2026-04-10T15:35:34Z</time></trkpt><trkpt lat="44.69706811230134" lon="10.759788018978249"><ele>41.0</ele><time>2026-04-10T15:35:35Z</time></trkpt><trkpt lat="44.69717704034006" lon="10.759471855873183"><ele>41.0</ele><time>2026-04-10T15:35:36Z</time></trkpt><trkpt lat="44.69729027016509" lon="10.759157460786106"><ele>40.0</ele><time>2026-04-10T15:35:37Z</time></trkpt><trkpt lat="44.69740339204795" lon="10.758843406233135"><ele>39.0</ele><time>2026-04-10T15:35:38Z</time></trkpt><trkpt lat="44.697516955642804" lon="10.75852639918909"><ele>38.5</ele><time>2026-04-10T15:35:39Z</time></trkpt><trkpt lat="44.69762764008286" lon="10.758206185342473"><ele>38.0</ele><time>2026-04-10T15:35:40Z</time></trkpt><trkpt lat="44.69773898839358" lon="10.757885392071216"><ele>37.5</ele><time>2026-04-10T15:35:41Z</time></trkpt><trkpt lat="44.6978476584902" lon="10.757562093609737"><ele>37.0</ele><time>2026-04-10T15:35:42Z</time></trkpt><trkpt lat="44.69795735943629" lon="10.757239093230897"><ele>37.0</ele><time>2026-04-10T15:35:43Z</time></trkpt><trkpt lat="44.69806770523883" lon="10.756913118551644"><ele>37.0</ele><time>2026-04-10T15:35:44Z</time></trkpt><trkpt lat="44.69818014157809" lon="10.75658636160726"><ele>37.5</ele><time>2026-04-10T15:35:45Z</time></trkpt><trkpt lat="44.698293938400184" lon="10.756261057766427"><ele>38.0</ele><time>2026-04-10T15:35:46Z</time></trkpt><trkpt lat="44.69840622416666" lon="10.755935139979735"><ele>38.0</ele><time>2026-04-10T15:35:47Z</time></trkpt><trkpt lat="44.698516870777844" lon="10.755607705868474"><ele>38.0</ele><time>2026-04-10T15:35:48Z</time></trkpt><trkpt lat="44.698626962889676" lon="10.755280060814114"><ele>38.5</ele><time>2026-04-10T15:35:49Z</time></trkpt><trkpt lat="44.69873793075683" lon="10.754954718144177"><ele>39.0</ele><time>2026-04-10T15:35:50Z</time></trkpt><trkpt lat="44.69884845444863" lon="10.754632126320375"><ele>39.0</ele><time>2026-04-10T15:35:51Z</time></trkpt><trkpt lat="44.69895780989315" lon="10.754312048344373"><ele>39.0</ele><time>2026-04-10T15:35:52Z</time></trkpt><trkpt lat="44.69906867833331" lon="10.753991571586523"><ele>39.0</ele><time>2026-04-10T15:35:53Z</time></trkpt><trkpt lat="44.69917739570282" lon="10.753670341602483"><ele>39.0</ele><time>2026-04-10T15:35:54Z</time></trkpt><trkpt lat="44.69928841122952" lon="10.753349958369176"><ele>39.0</ele><time>2026-04-10T15:35:55Z</time></trkpt><trkpt lat="44.699401186012786" lon="10.75302924668981"><ele>39.0</ele><time>2026-04-10T15:35:56Z</time></trkpt><trkpt lat="44.69951320246543" lon="10.752707690422676"><ele>39.0</ele><time>2026-04-10T15:35:57Z</time></trkpt><trkpt lat="44.69962394294756" lon="10.752386862600442"><ele>39.0</ele><time>2026-04-10T15:35:58Z</time></trkpt><trkpt lat="44.69973626639252" lon="10.752064359035723"><ele>39.0</ele><time>2026-04-10T15:35:59Z</time></trkpt><trkpt lat="44.699849778891796" lon="10.751739833063557"><ele>39.0</ele><time>2026-04-10T15:36:00Z</time></trkpt><trkpt lat="44.69996434206023" lon="10.751415299326636"><ele>39.0</ele><time>2026-04-10T15:36:01Z</time></trkpt><trkpt lat="44.70007800006256" lon="10.751089512132793"><ele>39.0</ele><time>2026-04-10T15:36:02Z</time></trkpt><trkpt lat="44.7001910762447" lon="10.750764359073072"><ele>38.5</ele><time>2026-04-10T15:36:03Z</time></trkpt><trkpt lat="44.70030264829923" lon="10.750440587892603"><ele>38.0</ele><time>2026-04-10T15:36:04Z</time></trkpt><trkpt lat="44.70041362749954" lon="10.750118026894702"><ele>38.0</ele><time>2026-04-10T15:36:05Z</time></trkpt><trkpt lat="44.700524046937296" lon="10.74979416743065"><ele>38.0</ele><time>2026-04-10T15:36:06Z</time></trkpt><trkpt lat="44.700635041282766" lon="10.74947354326554"><ele>37.5</ele><time>2026-04-10T15:36:07Z</time></trkpt><trkpt lat="44.70074752954171" lon="10.749151689710157"><ele>37.0</ele><time>2026-04-10T15:36:08Z</time></trkpt><trkpt lat="44.700857047009166" lon="10.74882684417607"><ele>37.5</ele><time>2026-04-10T15:36:09Z</time></trkpt><trkpt lat="44.70097005213501" lon="10.748502300279387"><ele>38.0</ele><time>2026-04-10T15:36:10Z</time></trkpt><trkpt lat="44.707357948342924" lon="10.730031732872437"><ele>38.5</ele><time>2026-04-10T15:37:11Z</time></trkpt><trkpt lat="44.70746099824093" lon="10.729737880660604"><ele>39.0</ele><time>2026-04-10T15:37:12Z</time></trkpt><trkpt lat="44.70756734860646" lon="10.729445126142705"><ele>39.0</ele><time>2026-04-10T15:37:13Z</time></trkpt><trkpt lat="44.70766863671056" lon="10.729151814223338"><ele>39.0</ele><time>2026-04-10T15:37:14Z</time></trkpt><trkpt lat="44.707767428943505" lon="10.728856476164317"><ele>39.0</ele><time>2026-04-10T15:37:15Z</time></trkpt><trkpt lat="44.70786884413607" lon="10.72855978836342"><ele>39.0</ele><time>2026-04-10T15:37:16Z</time></trkpt><trkpt lat="44.70796921962079" lon="10.728261607567934"><ele>39.0</ele><time>2026-04-10T15:37:17Z</time></trkpt><trkpt lat="44.708066112414656" lon="10.727970774911556"><ele>39.0</ele><time>2026-04-10T15:37:18Z</time></trkpt><trkpt lat="44.70816722170444" lon="10.727692780070608"><ele>39.5</ele><time>2026-04-10T15:37:19Z</time></trkpt><trkpt lat="44.70826721716594" lon="10.727409557420533"><ele>40.0</ele><time>2026-04-10T15:37:20Z</time></trkpt><trkpt lat="44.70836575623239" lon="10.727124184163895"><ele>40.0</ele><time>2026-04-10T15:37:21Z</time></trkpt><trkpt lat="44.70846348046398" lon="10.726838477518505"><ele>40.0</ele><time>2026-04-10T15:37:22Z</time></trkpt><trkpt lat="44.70856132638065" lon="10.726553487539611"><ele>40.0</ele><time>2026-04-10T15:37:23Z</time></trkpt><trkpt lat="44.70865420349224" lon="10.72628065251876"><ele>40.0</ele><time>2026-04-10T15:37:24Z</time></trkpt><trkpt lat="44.70874433679558" lon="10.72600651651376"><ele>40.0</ele><time>2026-04-10T15:37:25Z</time></trkpt><trkpt lat="44.70883451001824" lon="10.725729864935062"><ele>40.0</ele><time>2026-04-10T15:37:26Z</time></trkpt><trkpt lat="44.70892233420079" lon="10.72545110384974"><ele>40.0</ele><time>2026-04-10T15:37:27Z</time></trkpt><trkpt lat="44.7090113862327" lon="10.725170092123996"><ele>40.0</ele><time>2026-04-10T15:37:28Z</time></trkpt><trkpt lat="44.709100107848" lon="10.724876745725098"><ele>40.0</ele><time>2026-04-10T15:37:29Z</time></trkpt><trkpt lat="44.709190133850335" lon="10.724580163873147"><ele>40.0</ele><time>2026-04-10T15:37:30Z</time></trkpt><trkpt lat="44.70927600971816" lon="10.724277391285902"><ele>40.0</ele><time>2026-04-10T15:37:31Z</time></trkpt><trkpt lat="44.70936346270015" lon="10.723975209403745"><ele>40.0</ele><time>2026-04-10T15:37:32Z</time></trkpt><trkpt lat="44.709449502204215" lon="10.723678872941175"><ele>40.333333333333336</ele><time>2026-04-10T15:37:33Z</time></trkpt><trkpt lat="44.70953079809945" lon="10.723389795302992"><ele>40.666666666666664</ele><time>2026-04-10T15:37:34Z</time></trkpt><trkpt lat="44.70961267610337" lon="10.723099515674136"><ele>41.0</ele><time>2026-04-10T15:37:35Z</time></trkpt><trkpt lat="44.70969271092283" lon="10.722806063332609"><ele>41.0</ele><time>2026-04-10T15:37:36Z</time></trkpt><trkpt lat="44.7097725468052" lon="10.722514337729741"><ele>41.0</ele><time>2026-04-10T15:37:37Z</time></trkpt><trkpt lat="44.709850426480145" lon="10.722218268528863"><ele>41.0</ele><time>2026-04-10T15:37:38Z</time></trkpt><trkpt lat="44.709930742280385" lon="10.721916642409772"><ele>40.33333333333333</ele><time>2026-04-10T15:37:39Z</time></trkpt><trkpt lat="44.71000345631747" lon="10.721618629309988"><ele>39.666666666666664</ele><time>2026-04-10T15:37:40Z</time></trkpt><trkpt lat="44.71007923548419" lon="10.721320585762818"><ele>39.0</ele><time>2026-04-10T15:37:41Z</time></trkpt><trkpt lat="44.71015022495377" lon="10.721019094346332"><ele>38.0</ele><time>2026-04-10T15:37:42Z</time></trkpt><trkpt lat="44.71022326601692" lon="10.720716207386731"><ele>37.0</ele><time>2026-04-10T15:37:43Z</time></trkpt><trkpt lat="44.71029248968941" lon="10.720406175109032"><ele>37.0</ele><time>2026-04-10T15:37:44Z</time></trkpt><trkpt lat="44.71036216899858" lon="10.72009512971695"><ele>37.0</ele><time>2026-04-10T15:37:45Z</time></trkpt><trkpt lat="44.710432541936434" lon="10.71978106296972"><ele>37.0</ele><time>2026-04-10T15:37:46Z</time></trkpt><trkpt lat="44.710502390175044" lon="10.719466471805768"><ele>37.0</ele><time>2026-04-10T15:37:47Z</time></trkpt><trkpt lat="44.71056690728411" lon="10.71914690394726"><ele>37.5</ele><time>2026-04-10T15:37:48Z</time></trkpt><trkpt lat="44.71063236354388" lon="10.718824090429964"><ele>38.0</ele><time>2026-04-10T15:37:49Z</time></trkpt><trkpt lat="44.71069832547297" lon="10.718502125501141"><ele>38.0</ele><time>2026-04-10T15:37:50Z</time></trkpt><trkpt lat="44.71076674924499" lon="10.718176709908997"><ele>38.0</ele><time>2026-04-10T15:37:51Z</time></trkpt><trkpt lat="44.71083631400489" lon="10.717854603813723"><ele>38.0</ele><time>2026-04-10T15:37:52Z</time></trkpt><trkpt lat="44.710903955643566" lon="10.717531640239365"><ele>38.0</ele><time>2026-04-10T15:37:53Z</time></trkpt><trkpt lat="44.71097107572935" lon="10.717207778758725"><ele>38.0</ele><time>2026-04-10T15:37:54Z</time></trkpt><trkpt lat="44.711035056656186" lon="10.716881016540752"><ele>38.0</ele><time>2026-04-10T15:37:55Z</time></trkpt><trkpt lat="44.7111029737467" lon="10.716555252726316"><ele>38.5</ele><time>2026-04-10T15:37:56Z</time></trkpt><trkpt lat="44.71117092715771" lon="10.716228067070864"><ele>39.0</ele><time>2026-04-10T15:37:57Z</time></trkpt><trkpt lat="44.71123407424037" lon="10.715903688134583"><ele>39.0</ele><time>2026-04-10T15:37:58Z</time></trkpt><trkpt lat="44.711298606612445" lon="10.7155666492064"><ele>39.0</ele><time>2026-04-10T15:37:59Z</time></trkpt><trkpt lat="44.711367661797475" lon="10.715237128074344"><ele>39.0</ele><time>2026-04-10T15:38:00Z</time></trkpt><trkpt lat="44.71143610627466" lon="10.714902403480759"><ele>39.0</ele><time>2026-04-10T15:38:01Z</time></trkpt><trkpt lat="44.71150366881428" lon="10.714571129558538"><ele>39.5</ele><time>2026-04-10T15:38:02Z</time></trkpt><trkpt lat="44.711571967288265" lon="10.714239481122124"><ele>40.0</ele><time>2026-04-10T15:38:03Z</time></trkpt><trkpt lat="44.71163914081206" lon="10.713906541999782"><ele>40.0</ele><time>2026-04-10T15:38:04Z</time></trkpt><trkpt lat="44.71170644231446" lon="10.713572266040961"><ele>40.0</ele><time>2026-04-10T15:38:05Z</time></trkpt><trkpt lat="44.71177480939374" lon="10.713238109610725"><ele>40.0</ele><time>2026-04-10T15:38:06Z</time></trkpt><trkpt lat="44.71184395144817" lon="10.712910223662142"><ele>40.0</ele><time>2026-04-10T15:38:07Z</time></trkpt><trkpt lat="44.7119135943236" lon="10.712584708940017"><ele>39.5</ele><time>2026-04-10T15:38:08Z</time></trkpt><trkpt lat="44.71198290002421" lon="10.712258426111719"><ele>39.0</ele><time>2026-04-10T15:38:09Z</time></trkpt><trkpt lat="44.71204780040139" lon="10.711930982096385"><ele>37.0</ele><time>2026-04-10T15:38:10Z</time></trkpt><trkpt lat="44.716243081579826" lon="10.691421326430289"><ele>37.0</ele><time>2026-04-10T15:39:11Z</time></trkpt><trkpt lat="44.716316097444384" lon="10.69107984955513"><ele>37.0</ele><time>2026-04-10T15:39:12Z</time></trkpt><trkpt lat="44.71638720780686" lon="10.69073594824677"><ele>37.0</ele><time>2026-04-10T15:39:13Z</time></trkpt><trkpt lat="44.71645552865738" lon="10.690390821332697"><ele>37.0</ele><time>2026-04-10T15:39:14Z</time></trkpt><trkpt lat="44.716524773309516" lon="10.690046753003564"><ele>37.5</ele><time>2026-04-10T15:39:15Z</time></trkpt><trkpt lat="44.71659735969732" lon="10.689703530555029"><ele>38.0</ele><time>2026-04-10T15:39:16Z</time></trkpt><trkpt lat="44.71666987490686" lon="10.689359045566928"><ele>38.5</ele><time>2026-04-10T15:39:17Z</time></trkpt><trkpt lat="44.71674401648422" lon="10.689012539249058"><ele>39.0</ele><time>2026-04-10T15:39:18Z</time></trkpt><trkpt lat="44.71681858039325" lon="10.688667912283707"><ele>39.0</ele><time>2026-04-10T15:39:19Z</time></trkpt><trkpt lat="44.716890961827495" lon="10.688320387386483"><ele>39.0</ele><time>2026-04-10T15:39:20Z</time></trkpt><trkpt lat="44.716958532126775" lon="10.687971389020372"><ele>38.0</ele><time>2026-04-10T15:39:21Z</time></trkpt><trkpt lat="44.71702834476929" lon="10.687622385337114"><ele>37.0</ele><time>2026-04-10T15:39:22Z</time></trkpt><trkpt lat="44.71709837748221" lon="10.687271287170173"><ele>37.0</ele><time>2026-04-10T15:39:23Z</time></trkpt><trkpt lat="44.71716831444158" lon="10.686919418353213"><ele>37.0</ele><time>2026-04-10T15:39:24Z</time></trkpt><trkpt lat="44.71723861409905" lon="10.686565635413452"><ele>37.0</ele><time>2026-04-10T15:39:25Z</time></trkpt><trkpt lat="44.717309979659724" lon="10.686210500102034"><ele>37.0</ele><time>2026-04-10T15:39:26Z</time></trkpt><trkpt lat="44.717381153095324" lon="10.685854247513003"><ele>36.5</ele><time>2026-04-10T15:39:27Z</time></trkpt><trkpt lat="44.7174535253667" lon="10.685495680623234"><ele>36.0</ele><time>2026-04-10T15:39:28Z</time></trkpt><trkpt lat="44.71752476707121" lon="10.68513693966823"><ele>37.5</ele><time>2026-04-10T15:39:29Z</time></trkpt><trkpt lat="44.71759840408167" lon="10.684783820228485"><ele>39.0</ele><time>2026-04-10T15:39:30Z</time></trkpt><trkpt lat="44.717671238365554" lon="10.684436662672129"><ele>38.0</ele><time>2026-04-10T15:39:31Z</time></trkpt><trkpt lat="44.71774278142117" lon="10.684093017086077"><ele>37.0</ele><time>2026-04-10T15:39:32Z</time></trkpt><trkpt lat="44.71781264835006" lon="10.683752074504895"><ele>37.5</ele><time>2026-04-10T15:39:33Z</time></trkpt><trkpt lat="44.717882301385046" lon="10.683411694915147"><ele>38.0</ele><time>2026-04-10T15:39:34Z</time></trkpt><trkpt lat="44.71795229153136" lon="10.68307266159638"><ele>37.5</ele><time>2026-04-10T15:39:35Z</time></trkpt><trkpt lat="44.718023090036255" lon="10.682735978198808"><ele>37.0</ele><time>2026-04-10T15:39:36Z</time></trkpt><trkpt lat="44.71809232695459" lon="10.682399400390908"><ele>37.0</ele><time>2026-04-10T15:39:37Z</time></trkpt><trkpt lat="44.71815777476058" lon="10.682065638289208"><ele>37.0</ele><time>2026-04-10T15:39:38Z</time></trkpt><trkpt lat="44.71822615398311" lon="10.681732838579196"><ele>37.5</ele><time>2026-04-10T15:39:39Z</time></trkpt><trkpt lat="44.718295511856795" lon="10.681399259896487"><ele>38.0</ele><time>2026-04-10T15:39:40Z</time></trkpt><trkpt lat="44.718364990630754" lon="10.681065854386711"><ele>39.5</ele><time>2026-04-10T15:39:41Z</time></trkpt><trkpt lat="44.718434808693694" lon="10.680731174103558"><ele>41.0</ele><time>2026-04-10T15:39:42Z</time></trkpt><trkpt lat="44.7185031433127" lon="10.68039342675392"><ele>39.0</ele><time>2026-04-10T15:39:43Z</time></trkpt><trkpt lat="44.718570500506544" lon="10.6800557851348"><ele>37.0</ele><time>2026-04-10T15:39:44Z</time></trkpt><trkpt lat="44.71863824408078" lon="10.679720837531539"><ele>38.0</ele><time>2026-04-10T15:39:45Z</time></trkpt><trkpt lat="44.71870647683355" lon="10.67938628616325"><ele>39.0</ele><time>2026-04-10T15:39:46Z</time></trkpt><trkpt lat="44.71877352719102" lon="10.679055943670614"><ele>39.0</ele><time>2026-04-10T15:39:47Z</time></trkpt><trkpt lat="44.718840667232094" lon="10.67872632995098"><ele>39.0</ele><time>2026-04-10T15:39:48Z</time></trkpt><trkpt lat="44.71890765548648" lon="10.67839849023141"><ele>39.0</ele><time>2026-04-10T15:39:49Z</time></trkpt><trkpt lat="44.71897647029399" lon="10.678073913249726"><ele>39.0</ele><time>2026-04-10T15:39:50Z</time></trkpt><trkpt lat="44.719047232620056" lon="10.677750713048926"><ele>39.0</ele><time>2026-04-10T15:39:51Z</time></trkpt><trkpt lat="44.7191135579821" lon="10.677426972923167"><ele>39.0</ele><time>2026-04-10T15:39:52Z</time></trkpt><trkpt lat="44.71917859252856" lon="10.677100405648408"><ele>39.5</ele><time>2026-04-10T15:39:53Z</time></trkpt><trkpt lat="44.719243916120234" lon="10.676773544366961"><ele>40.0</ele><time>2026-04-10T15:39:54Z</time></trkpt><trkpt lat="44.71931030627816" lon="10.676449070021858"><ele>40.0</ele><time>2026-04-10T15:39:55Z</time></trkpt><trkpt lat="44.71937654211436" lon="10.676123879158007"><ele>40.0</ele><time>2026-04-10T15:39:56Z</time></trkpt><trkpt lat="44.71944280604825" lon="10.675799803291847"><ele>38.5</ele><time>2026-04-10T15:39:57Z</time></trkpt><trkpt lat="44.71950872475617" lon="10.675473980580591"><ele>37.0</ele><time>2026-04-10T15:39:58Z</time></trkpt><trkpt lat="44.719575002832606" lon="10.675146825146257"><ele>37.0</ele><time>2026-04-10T15:39:59Z</time></trkpt><trkpt lat="44.71964249215418" lon="10.674817554412376"><ele>37.0</ele><time>2026-04-10T15:40:00Z</time></trkpt><trkpt lat="44.71971338820362" lon="10.674488764712653"><ele>38.0</ele><time>2026-04-10T15:40:01Z</time></trkpt><trkpt lat="44.71978247161944" lon="10.674159267369603"><ele>39.0</ele><time>2026-04-10T15:40:02Z</time></trkpt><trkpt lat="44.71984955959035" lon="10.673827108504065"><ele>38.5</ele><time>2026-04-10T15:40:03Z</time></trkpt><trkpt lat="44.71991843645441" lon="10.673494204160349"><ele>38.0</ele><time>2026-04-10T15:40:04Z</time></trkpt><trkpt lat="44.71998819550059" lon="10.673159495183357"><ele>38.0</ele><time>2026-04-10T15:40:05Z</time></trkpt><trkpt lat="44.72005739917156" lon="10.672821785344622"><ele>38.0</ele><time>2026-04-10T15:40:06Z</time></trkpt><trkpt lat="44.72012707597509" lon="10.672482316666242"><ele>37.0</ele><time>2026-04-10T15:40:07Z</time></trkpt><trkpt lat="44.72019565293416" lon="10.67214265763277"><ele>36.0</ele><time>2026-04-10T15:40:08Z</time></trkpt><trkpt lat="44.72026532998828" lon="10.671802322443277"><ele>36.0</ele><time>2026-04-10T15:40:09Z</time></trkpt><trkpt lat="44.72033643857413" lon="10.671463657329426"><ele>36.0</ele><time>2026-04-10T15:40:10Z</time></trkpt><trkpt lat="44.724463804488366" lon="10.651250041386646"><ele>35.5</ele><time>2026-04-10T15:41:11Z</time></trkpt><trkpt lat="44.724533995757575" lon="10.650901866479156"><ele>35.0</ele><time>2026-04-10T15:41:12Z</time></trkpt><trkpt lat="44.724605164101874" lon="10.650549919490272"><ele>36.0</ele><time>2026-04-10T15:41:13Z</time></trkpt><trkpt lat="44.72467872849927" lon="10.650202045077881"><ele>37.0</ele><time>2026-04-10T15:41:14Z</time></trkpt><trkpt lat="44.72475099706359" lon="10.649852735462083"><ele>37.0</ele><time>2026-04-10T15:41:15Z</time></trkpt><trkpt lat="44.7248217134495" lon="10.649504149621523"><ele>37.0</ele><time>2026-04-10T15:41:16Z</time></trkpt><trkpt lat="44.724892023812075" lon="10.649157893458838"><ele>36.5</ele><time>2026-04-10T15:41:17Z</time></trkpt><trkpt lat="44.72495957254113" lon="10.648813368948534"><ele>36.0</ele><time>2026-04-10T15:41:18Z</time></trkpt><trkpt lat="44.725028975233556" lon="10.648465877030958"><ele>37.5</ele><time>2026-04-10T15:41:19Z</time></trkpt><trkpt lat="44.72510098093376" lon="10.648120271982071"><ele>39.0</ele><time>2026-04-10T15:41:20Z</time></trkpt><trkpt lat="44.72517222498478" lon="10.647772616707389"><ele>42.5</ele><time>2026-04-10T15:41:21Z</time></trkpt><trkpt lat="44.725244021993156" lon="10.64742956129835"><ele>46.0</ele><time>2026-04-10T15:41:22Z</time></trkpt><trkpt lat="44.72531611203099" lon="10.6470880098985"><ele>44.0</ele><time>2026-04-10T15:41:23Z</time></trkpt><trkpt lat="44.72538952904083" lon="10.64674470937758"><ele>42.0</ele><time>2026-04-10T15:41:24Z</time></trkpt><trkpt lat="44.72546016452117" lon="10.64640286324314"><ele>40.5</ele><time>2026-04-10T15:41:25Z</time></trkpt><trkpt lat="44.725526696156514" lon="10.646057565965856"><ele>39.0</ele><time>2026-04-10T15:41:26Z</time></trkpt><trkpt lat="44.72559443907917" lon="10.645718502610201"><ele>39.0</ele><time>2026-04-10T15:41:27Z</time></trkpt><trkpt lat="44.72566202523055" lon="10.645377533031448"><ele>39.0</ele><time>2026-04-10T15:41:28Z</time></trkpt><trkpt lat="44.725730404509505" lon="10.645035670757716"><ele>38.0</ele><time>2026-04-10T15:41:29Z</time></trkpt><trkpt lat="44.7258074763269" lon="10.644695120954442"><ele>37.0</ele><time>2026-04-10T15:41:30Z</time></trkpt><trkpt lat="44.725884941870405" lon="10.644352670316032"><ele>36.5</ele><time>2026-04-10T15:41:31Z</time></trkpt><trkpt lat="44.72595959404272" lon="10.644005430544528"><ele>36.0</ele><time>2026-04-10T15:41:32Z</time></trkpt><trkpt lat="44.72602799042528" lon="10.643657347334633"><ele>36.0</ele><time>2026-04-10T15:41:33Z</time></trkpt><trkpt lat="44.72609639702789" lon="10.643307268482998"><ele>36.0</ele><time>2026-04-10T15:41:34Z</time></trkpt><trkpt lat="44.72616384372341" lon="10.642957472196457"><ele>36.0</ele><time>2026-04-10T15:41:35Z</time></trkpt><trkpt lat="44.726235399554916" lon="10.642609964974005"><ele>36.0</ele><time>2026-04-10T15:41:36Z</time></trkpt><trkpt lat="44.726307001355266" lon="10.642265137291052"><ele>35.5</ele><time>2026-04-10T15:41:36.999Z</time></trkpt><trkpt lat="44.7263787759862" lon="10.641933947091083"><ele>35.0</ele><time>2026-04-10T15:41:37.999Z</time></trkpt><trkpt lat="44.72644934957148" lon="10.641608131427304"><ele>35.0</ele><time>2026-04-10T15:41:38.999Z</time></trkpt><trkpt lat="44.72651416935072" lon="10.641232504594075"><ele>35.0</ele><time>2026-04-10T15:41:39.999Z</time></trkpt><trkpt lat="44.72658418088036" lon="10.640884666794808"><ele>35.5</ele><time>2026-04-10T15:41:40.999Z</time></trkpt><trkpt lat="44.726653571503405" lon="10.640544793398929"><ele>36.0</ele><time>2026-04-10T15:41:41.999Z</time></trkpt><trkpt lat="44.72672560288171" lon="10.640203107581657"><ele>36.5</ele><time>2026-04-10T15:41:42.999Z</time></trkpt><trkpt lat="44.7267995144476" lon="10.639857579177566"><ele>37.0</ele><time>2026-04-10T15:41:43.999Z</time></trkpt><trkpt lat="44.72687075838373" lon="10.639513266731011"><ele>35.5</ele><time>2026-04-10T15:41:44.999Z</time></trkpt><trkpt lat="44.72694092607548" lon="10.639165270072612"><ele>34.0</ele><time>2026-04-10T15:41:45.999Z</time></trkpt><trkpt lat="44.727010454960975" lon="10.638820033489019"><ele>35.0</ele><time>2026-04-10T15:41:46.999Z</time></trkpt><trkpt lat="44.7270813928654" lon="10.63847654118071"><ele>36.0</ele><time>2026-04-10T15:41:47.999Z</time></trkpt><trkpt lat="44.72714527054829" lon="10.638132937480261"><ele>36.5</ele><time>2026-04-10T15:41:48.999Z</time></trkpt><trkpt lat="44.7272168941745" lon="10.637792149678594"><ele>37.0</ele><time>2026-04-10T15:41:49.999Z</time></trkpt><trkpt lat="44.727291805352245" lon="10.637449028504145"><ele>37.0</ele><time>2026-04-10T15:41:50.999Z</time></trkpt><trkpt lat="44.727360582299866" lon="10.637107695969336"><ele>37.0</ele><time>2026-04-10T15:41:51.999Z</time></trkpt><trkpt lat="44.72743960950349" lon="10.636766137369202"><ele>37.5</ele><time>2026-04-10T15:41:52.999Z</time></trkpt><trkpt lat="44.72750973631069" lon="10.636421085792168"><ele>38.0</ele><time>2026-04-10T15:41:54Z</time></trkpt><trkpt lat="44.72757413755147" lon="10.636072420282343"><ele>37.0</ele><time>2026-04-10T15:41:55Z</time></trkpt><trkpt lat="44.72764607582009" lon="10.635724009090035"><ele>36.0</ele><time>2026-04-10T15:41:56Z</time></trkpt><trkpt lat="44.7277191407304" lon="10.635384209498316"><ele>35.5</ele><time>2026-04-10T15:41:57Z</time></trkpt><trkpt lat="44.72778769659205" lon="10.635046074694687"><ele>35.0</ele><time>2026-04-10T15:41:58Z</time></trkpt><trkpt lat="44.72785990087643" lon="10.634712645797755"><ele>35.0</ele><time>2026-04-10T15:41:59Z</time></trkpt><trkpt lat="44.72793603889816" lon="10.63437691114488"><ele>35.0</ele><time>2026-04-10T15:42:00Z</time></trkpt><trkpt lat="44.72800476016196" lon="10.634047932249139"><ele>35.0</ele><time>2026-04-10T15:42:01Z</time></trkpt><trkpt lat="44.72807984971024" lon="10.63370922976536"><ele>35.0</ele><time>2026-04-10T15:42:02Z</time></trkpt><trkpt lat="44.72815639448998" lon="10.633381816610717"><ele>35.5</ele><time>2026-04-10T15:42:03Z</time></trkpt><trkpt lat="44.728231963811936" lon="10.633050542249123"><ele>36.0</ele><time>2026-04-10T15:42:04Z</time></trkpt><trkpt lat="44.728309468135386" lon="10.632717393033717"><ele>36.5</ele><time>2026-04-10T15:42:05Z</time></trkpt><trkpt lat="44.72838872011918" lon="10.632384993962226"><ele>37.0</ele><time>2026-04-10T15:42:06Z</time></trkpt><trkpt lat="44.72846795835061" lon="10.632051521784417"><ele>37.5</ele><time>2026-04-10T15:42:07Z</time></trkpt><trkpt lat="44.7285436736618" lon="10.631716724231358"><ele>38.0</ele><time>2026-04-10T15:42:08Z</time></trkpt><trkpt lat="44.728619015251205" lon="10.631380211087638"><ele>37.0</ele><time>2026-04-10T15:42:09Z</time></trkpt><trkpt lat="44.72869995110614" lon="10.63104395052214"><ele>36.0</ele><time>2026-04-10T15:42:10Z</time></trkpt><trkpt lat="44.73348554880841" lon="10.610809250870231"><ele>40.0</ele><time>2026-04-10T15:43:11.001Z</time></trkpt><trkpt lat="44.733564666114894" lon="10.610492584940186"><ele>44.0</ele><time>2026-04-10T15:43:12.001Z</time></trkpt><trkpt lat="44.7336417870471" lon="10.61017281780384"><ele>44.0</ele><time>2026-04-10T15:43:13.001Z</time></trkpt><trkpt lat="44.73371510876706" lon="10.609856354727377"><ele>44.0</ele><time>2026-04-10T15:43:14.001Z</time></trkpt><trkpt lat="44.73378937821242" lon="10.609534560790467"><ele>45.0</ele><time>2026-04-10T15:43:15.001Z</time></trkpt><trkpt lat="44.73386571487752" lon="10.609211625216224"><ele>46.0</ele><time>2026-04-10T15:43:16.001Z</time></trkpt><trkpt lat="44.733943509473676" lon="10.60888948366954"><ele>44.5</ele><time>2026-04-10T15:43:17.001Z</time></trkpt><trkpt lat="44.734016683265295" lon="10.60856594936657"><ele>43.0</ele><time>2026-04-10T15:43:18.001Z</time></trkpt><trkpt lat="44.734091743992344" lon="10.608242911943634"><ele>43.0</ele><time>2026-04-10T15:43:19.001Z</time></trkpt><trkpt lat="44.73416840889461" lon="10.607920539015488"><ele>43.0</ele><time>2026-04-10T15:43:20.001Z</time></trkpt><trkpt lat="44.73424648239289" lon="10.60760050342196"><ele>41.0</ele><time>2026-04-10T15:43:21.001Z</time></trkpt><trkpt lat="44.734325271974036" lon="10.607277290039102"><ele>39.0</ele><time>2026-04-10T15:43:22.001Z</time></trkpt><trkpt lat="44.73440215557876" lon="10.60695228843648"><ele>39.0</ele><time>2026-04-10T15:43:23.001Z</time></trkpt><trkpt lat="44.73448160275041" lon="10.606624567142209"><ele>39.0</ele><time>2026-04-10T15:43:24.001Z</time></trkpt><trkpt lat="44.73456330503071" lon="10.606295408245003"><ele>39.0</ele><time>2026-04-10T15:43:25.001Z</time></trkpt><trkpt lat="44.73463835973707" lon="10.60597140725104"><ele>39.0</ele><time>2026-04-10T15:43:26.001Z</time></trkpt><trkpt lat="44.734712781017684" lon="10.60565888914312"><ele>39.0</ele><time>2026-04-10T15:43:27.001Z</time></trkpt><trkpt lat="44.73478711418506" lon="10.605341677506349"><ele>39.0</ele><time>2026-04-10T15:43:28.001Z</time></trkpt><trkpt lat="44.734865035692195" lon="10.60502421751305"><ele>38.0</ele><time>2026-04-10T15:43:29.001Z</time></trkpt><trkpt lat="44.73494206773668" lon="10.604703773687746"><ele>37.0</ele><time>2026-04-10T15:43:30.001Z</time></trkpt><trkpt lat="44.73501591881471" lon="10.604381430859911"><ele>37.0</ele><time>2026-04-10T15:43:31.001Z</time></trkpt><trkpt lat="44.735088553115986" lon="10.60405754644767"><ele>37.0</ele><time>2026-04-10T15:43:32.001Z</time></trkpt><trkpt lat="44.7351628906122" lon="10.603734714993347"><ele>39.0</ele><time>2026-04-10T15:43:33.001Z</time></trkpt><trkpt lat="44.735238003227465" lon="10.603412202383536"><ele>41.0</ele><time>2026-04-10T15:43:34.001Z</time></trkpt><trkpt lat="44.73531400205371" lon="10.603089983413252"><ele>40.5</ele><time>2026-04-10T15:43:35.001Z</time></trkpt><trkpt lat="44.735390180047006" lon="10.602764306625518"><ele>40.0</ele><time>2026-04-10T15:43:36.001Z</time></trkpt><trkpt lat="44.73546618765043" lon="10.602438710018614"><ele>40.0</ele><time>2026-04-10T15:43:37.001Z</time></trkpt><trkpt lat="44.7355402107107" lon="10.6021179688313"><ele>40.0</ele><time>2026-04-10T15:43:38.001Z</time></trkpt><trkpt lat="44.735615564412555" lon="10.601798669502536"><ele>40.0</ele><time>2026-04-10T15:43:39.001Z</time></trkpt><trkpt lat="44.7356907640517" lon="10.601479418855734"><ele>40.0</ele><time>2026-04-10T15:43:40.001Z</time></trkpt><trkpt lat="44.735767937165654" lon="10.601161194750025"><ele>40.0</ele><time>2026-04-10T15:43:41.001Z</time></trkpt><trkpt lat="44.73584334031269" lon="10.600842351604268"><ele>40.0</ele><time>2026-04-10T15:43:42.001Z</time></trkpt><trkpt lat="44.73591805967226" lon="10.600523252028557"><ele>39.0</ele><time>2026-04-10T15:43:43Z</time></trkpt><trkpt lat="44.73599483724367" lon="10.600206415112542"><ele>38.0</ele><time>2026-04-10T15:43:44Z</time></trkpt><trkpt lat="44.73606972578603" lon="10.599885207139868"><ele>37.5</ele><time>2026-04-10T15:43:45Z</time></trkpt><trkpt lat="44.7361421898652" lon="10.599562375576962"><ele>37.0</ele><time>2026-04-10T15:43:46Z</time></trkpt><trkpt lat="44.73621601008222" lon="10.599237598485042"><ele>38.0</ele><time>2026-04-10T15:43:47Z</time></trkpt><trkpt lat="44.736290979998074" lon="10.598913885236502"><ele>39.0</ele><time>2026-04-10T15:43:48Z</time></trkpt><trkpt lat="44.736367460613884" lon="10.59859446422537"><ele>39.0</ele><time>2026-04-10T15:43:49Z</time></trkpt><trkpt lat="44.736449240320994" lon="10.59826931676091"><ele>39.0</ele><time>2026-04-10T15:43:50Z</time></trkpt><trkpt lat="44.73652688517557" lon="10.59794630049256"><ele>38.5</ele><time>2026-04-10T15:43:51Z</time></trkpt><trkpt lat="44.73660193011432" lon="10.597621550324796"><ele>38.0</ele><time>2026-04-10T15:43:52Z</time></trkpt><trkpt lat="44.73667907424247" lon="10.59730577724742"><ele>38.0</ele><time>2026-04-10T15:43:53Z</time></trkpt><trkpt lat="44.73675743168081" lon="10.596991325105616"><ele>38.0</ele><time>2026-04-10T15:43:54Z</time></trkpt><trkpt lat="44.736836772442906" lon="10.596679797102267"><ele>37.5</ele><time>2026-04-10T15:43:55Z</time></trkpt><trkpt lat="44.7369199218731" lon="10.596367940571593"><ele>37.0</ele><time>2026-04-10T15:43:56Z</time></trkpt><trkpt lat="44.73699940278118" lon="10.59605650626962"><ele>37.0</ele><time>2026-04-10T15:43:57Z</time></trkpt><trkpt lat="44.737079066771834" lon="10.59574707582009"><ele>37.0</ele><time>2026-04-10T15:43:58Z</time></trkpt><trkpt lat="44.73715904464395" lon="10.59543742652322"><ele>36.5</ele><time>2026-04-10T15:43:59Z</time></trkpt><trkpt lat="44.73723116734949" lon="10.595122492712745"><ele>36.0</ele><time>2026-04-10T15:44:00Z</time></trkpt><trkpt lat="44.737306781971604" lon="10.59480595658212"><ele>35.5</ele><time>2026-04-10T15:44:01Z</time></trkpt><trkpt lat="44.737379974698584" lon="10.594487418090338"><ele>35.0</ele><time>2026-04-10T15:44:02Z</time></trkpt><trkpt lat="44.737452942108085" lon="10.594170263911643"><ele>35.0</ele><time>2026-04-10T15:44:03Z</time></trkpt><trkpt lat="44.73752243569954" lon="10.593865339450652"><ele>35.0</ele><time>2026-04-10T15:44:04Z</time></trkpt><trkpt lat="44.737592019932514" lon="10.593567265722509"><ele>36.5</ele><time>2026-04-10T15:44:05Z</time></trkpt><trkpt lat="44.737665181539704" lon="10.593264038505605"><ele>38.0</ele><time>2026-04-10T15:44:06Z</time></trkpt><trkpt lat="44.737738973326984" lon="10.592951154340925"><ele>36.5</ele><time>2026-04-10T15:44:07Z</time></trkpt><trkpt lat="44.73781213084293" lon="10.59263080663953"><ele>35.0</ele><time>2026-04-10T15:44:08Z</time></trkpt><trkpt lat="44.73788908630947" lon="10.592310960931382"><ele>35.5</ele><time>2026-04-10T15:44:09.001Z</time></trkpt><trkpt lat="44.737964596433734" lon="10.591996857141439"><ele>36.0</ele><time>2026-04-10T15:44:10.001Z</time></trkpt><trkpt lat="44.742039979241056" lon="10.576216308500225"><ele>35.8</ele><time>2026-04-10T15:45:11.001Z</time></trkpt><trkpt lat="44.74207561464453" lon="10.576087407663543"><ele>35.6</ele><time>2026-04-10T15:45:12.001Z</time></trkpt><trkpt lat="44.742112854707884" lon="10.575962292116108"><ele>35.4</ele><time>2026-04-10T15:45:13.001Z</time></trkpt><trkpt lat="44.742154758324425" lon="10.575837029980695"><ele>35.2</ele><time>2026-04-10T15:45:14.001Z</time></trkpt><trkpt lat="44.742200786537836" lon="10.575721636123115"><ele>35.0</ele><time>2026-04-10T15:45:15.001Z</time></trkpt><trkpt lat="44.7422505367729" lon="10.575635572527721"><ele>35.0</ele><time>2026-04-10T15:45:16.001Z</time></trkpt><trkpt lat="44.742301260808475" lon="10.57557777202856"><ele>35.0</ele><time>2026-04-10T15:45:17.001Z</time></trkpt><trkpt lat="44.74239249455939" lon="10.575533861466566"><ele>35.0</ele><time>2026-04-10T15:45:19.001Z</time></trkpt><trkpt lat="44.7424923786091" lon="10.575525373104881"><ele>35.0</ele><time>2026-04-10T15:45:21.001Z</time></trkpt><trkpt lat="44.74253097189495" lon="10.575429066956362"><ele>35.0</ele><time>2026-04-10T15:45:23.001Z</time></trkpt><trkpt lat="44.742605473321234" lon="10.575266883070762"><ele>34.83333333333333</ele><time>2026-04-10T15:45:25.001Z</time></trkpt><trkpt lat="44.74263503984466" lon="10.57516210567239"><ele>34.666666666666664</ele><time>2026-04-10T15:45:26.001Z</time></trkpt><trkpt lat="44.74266029700722" lon="10.575071511810672"><ele>34.5</ele><time>2026-04-10T15:45:27.001Z</time></trkpt><trkpt lat="44.74269379839897" lon="10.574979136557166"><ele>34.333333333333336</ele><time>2026-04-10T15:45:28.001Z</time></trkpt><trkpt lat="44.74272803941638" lon="10.574896726265221"><ele>34.16666666666667</ele><time>2026-04-10T15:45:29.001Z</time></trkpt><trkpt lat="44.74274760545489" lon="10.574788145025677"><ele>34.0</ele><time>2026-04-10T15:45:31.001Z</time></trkpt><trkpt lat="44.74264243610373" lon="10.574663174355738"><ele>34.0</ele><time>2026-04-10T15:45:36.001Z</time></trkpt><trkpt lat="44.742618397346575" lon="10.574555999007359"><ele>34.0</ele><time>2026-04-10T15:45:39.001Z</time></trkpt><trkpt lat="44.742591096199156" lon="10.575211162232115"><ele>34.0</ele><time>2026-04-10T15:49:21.001Z</time></trkpt><trkpt lat="44.742594351327156" lon="10.574416546862508"><ele>34.0</ele><time>2026-04-10T15:52:11Z</time></trkpt><trkpt lat="44.742593007750564" lon="10.574517284673835"><ele>34.0</ele><time>2026-04-10T15:52:21Z</time></trkpt><trkpt lat="44.74262155488393" lon="10.57460447718635"><ele>34.0</ele><time>2026-04-10T15:52:27Z</time></trkpt><trkpt lat="44.74260251631104" lon="10.574461809513299"><ele>34.0</ele><time>2026-04-10T16:06:59Z</time></trkpt><trkpt lat="44.748286146972795" lon="10.561583186504567"><ele>34.333333333333336</ele><time>2026-04-10T16:09:11Z</time></trkpt><trkpt lat="44.74841483646613" lon="10.561326463460306"><ele>34.666666666666664</ele><time>2026-04-10T16:09:12Z</time></trkpt><trkpt lat="44.748539999734675" lon="10.561066652436379"><ele>35.0</ele><time>2026-04-10T16:09:13Z</time></trkpt><trkpt lat="44.74866343568169" lon="10.560805520602367"><ele>35.0</ele><time>2026-04-10T16:09:14Z</time></trkpt><trkpt lat="44.748787832054276" lon="10.560543426514894"><ele>35.0</ele><time>2026-04-10T16:09:15Z</time></trkpt><trkpt lat="44.748913229225394" lon="10.560283933396907"><ele>35.0</ele><time>2026-04-10T16:09:16Z</time></trkpt><trkpt lat="44.74903292453095" lon="10.560027571551196"><ele>35.0</ele><time>2026-04-10T16:09:17Z</time></trkpt><trkpt lat="44.74915171318755" lon="10.559770030884135"><ele>35.0</ele><time>2026-04-10T16:09:18Z</time></trkpt><trkpt lat="44.74927512208889" lon="10.55951159300364"><ele>35.0</ele><time>2026-04-10T16:09:19Z</time></trkpt><trkpt lat="44.74939950349547" lon="10.559247064362662"><ele>33.5</ele><time>2026-04-10T16:09:20Z</time></trkpt><trkpt lat="44.749525011142396" lon="10.558981828558608"><ele>32.0</ele><time>2026-04-10T16:09:21Z</time></trkpt><trkpt lat="44.749651550547355" lon="10.558715075672032"><ele>33.0</ele><time>2026-04-10T16:09:22Z</time></trkpt><trkpt lat="44.74977974299427" lon="10.558446347380272"><ele>34.0</ele><time>2026-04-10T16:09:23Z</time></trkpt><trkpt lat="44.74991127761664" lon="10.558176697066285"><ele>34.0</ele><time>2026-04-10T16:09:24Z</time></trkpt><trkpt lat="44.750044323968886" lon="10.557902809382135"><ele>34.0</ele><time>2026-04-10T16:09:25Z</time></trkpt><trkpt lat="44.75017918025545" lon="10.55762256965161"><ele>33.0</ele><time>2026-04-10T16:09:26Z</time></trkpt><trkpt lat="44.75031340794134" lon="10.557339424908792"><ele>32.0</ele><time>2026-04-10T16:09:27Z</time></trkpt><trkpt lat="44.750442873199724" lon="10.557066747297954"><ele>33.0</ele><time>2026-04-10T16:09:28Z</time></trkpt><trkpt lat="44.750568666968235" lon="10.556798229962782"><ele>34.0</ele><time>2026-04-10T16:09:29Z</time></trkpt><trkpt lat="44.75069592681727" lon="10.556526355451041"><ele>34.0</ele><time>2026-04-10T16:09:30Z</time></trkpt><trkpt lat="44.750825707365415" lon="10.556251052196853"><ele>34.0</ele><time>2026-04-10T16:09:31Z</time></trkpt><trkpt lat="44.750955447294004" lon="10.555973830282502"><ele>32.5</ele><time>2026-04-10T16:09:32Z</time></trkpt><trkpt lat="44.75108478861321" lon="10.555695945070713"><ele>31.0</ele><time>2026-04-10T16:09:33Z</time></trkpt><trkpt lat="44.751209611675286" lon="10.55541598357862"><ele>31.5</ele><time>2026-04-10T16:09:34Z</time></trkpt><trkpt lat="44.75133951295567" lon="10.555138377771991"><ele>32.0</ele><time>2026-04-10T16:09:35Z</time></trkpt><trkpt lat="44.75147125787308" lon="10.554861888551144"><ele>32.0</ele><time>2026-04-10T16:09:36Z</time></trkpt><trkpt lat="44.75160130200791" lon="10.554587735509386"><ele>32.0</ele><time>2026-04-10T16:09:37Z</time></trkpt><trkpt lat="44.7517274006519" lon="10.554315746244981"><ele>32.5</ele><time>2026-04-10T16:09:38Z</time></trkpt><trkpt lat="44.75185728152706" lon="10.554048623818629"><ele>33.0</ele><time>2026-04-10T16:09:39Z</time></trkpt><trkpt lat="44.7519887840106" lon="10.553783432407931"><ele>32.0</ele><time>2026-04-10T16:09:40Z</time></trkpt><trkpt lat="44.75212027655281" lon="10.553515561052158"><ele>31.0</ele><time>2026-04-10T16:09:41Z</time></trkpt><trkpt lat="44.75225161274783" lon="10.55324573958576"><ele>31.0</ele><time>2026-04-10T16:09:42Z</time></trkpt><trkpt lat="44.752382686735984" lon="10.55297155199924"><ele>31.0</ele><time>2026-04-10T16:09:43Z</time></trkpt><trkpt lat="44.75251334493652" lon="10.55269384263377"><ele>31.0</ele><time>2026-04-10T16:09:44Z</time></trkpt><trkpt lat="44.75264311238891" lon="10.552415666812381"><ele>31.0</ele><time>2026-04-10T16:09:45Z</time></trkpt><trkpt lat="44.752770999225945" lon="10.552136910782366"><ele>31.5</ele><time>2026-04-10T16:09:46Z</time></trkpt><trkpt lat="44.75289855041182" lon="10.551863790671085"><ele>32.0</ele><time>2026-04-10T16:09:47Z</time></trkpt><trkpt lat="44.75302678125739" lon="10.551591607791094"><ele>32.0</ele><time>2026-04-10T16:09:48Z</time></trkpt><trkpt lat="44.75315555613614" lon="10.55132085872683"><ele>32.0</ele><time>2026-04-10T16:09:49Z</time></trkpt><trkpt lat="44.75328309770624" lon="10.551051899968714"><ele>32.0</ele><time>2026-04-10T16:09:50Z</time></trkpt><trkpt lat="44.75341288711185" lon="10.550780423385941"><ele>32.0</ele><time>2026-04-10T16:09:51Z</time></trkpt><trkpt lat="44.75354327324868" lon="10.550507829110938"><ele>32.5</ele><time>2026-04-10T16:09:52Z</time></trkpt><trkpt lat="44.75367533335741" lon="10.550237583735395"><ele>33.0</ele><time>2026-04-10T16:09:53Z</time></trkpt><trkpt lat="44.75380767427528" lon="10.54996930555801"><ele>33.0</ele><time>2026-04-10T16:09:54Z</time></trkpt><trkpt lat="44.75393962790415" lon="10.549700130453036"><ele>33.0</ele><time>2026-04-10T16:09:55Z</time></trkpt><trkpt lat="44.754065600909904" lon="10.54943088972127"><ele>32.5</ele><time>2026-04-10T16:09:56Z</time></trkpt><trkpt lat="44.754191229391154" lon="10.549161671065551"><ele>32.0</ele><time>2026-04-10T16:09:57Z</time></trkpt><trkpt lat="44.75431577791857" lon="10.548890772466397"><ele>32.0</ele><time>2026-04-10T16:09:58Z</time></trkpt><trkpt lat="44.754439641913336" lon="10.548621211759846"><ele>32.0</ele><time>2026-04-10T16:09:59Z</time></trkpt><trkpt lat="44.75456610544624" lon="10.548354678613116"><ele>32.0</ele><time>2026-04-10T16:10:00Z</time></trkpt><trkpt lat="44.75469377350309" lon="10.548090186387132"><ele>32.0</ele><time>2026-04-10T16:10:01Z</time></trkpt><trkpt lat="44.75482378032472" lon="10.547824766925656"><ele>32.5</ele><time>2026-04-10T16:10:02Z</time></trkpt><trkpt lat="44.754951983052095" lon="10.547556254397431"><ele>33.0</ele><time>2026-04-10T16:10:03Z</time></trkpt><trkpt lat="44.755077785753286" lon="10.547290519610947"><ele>33.0</ele><time>2026-04-10T16:10:04Z</time></trkpt><trkpt lat="44.75520228909506" lon="10.547022308808499"><ele>33.0</ele><time>2026-04-10T16:10:05Z</time></trkpt><trkpt lat="44.75532472531051" lon="10.54675572508733"><ele>33.0</ele><time>2026-04-10T16:10:06Z</time></trkpt><trkpt lat="44.75544840982701" lon="10.546490678986876"><ele>33.0</ele><time>2026-04-10T16:10:07Z</time></trkpt><trkpt lat="44.7555727147891" lon="10.546230306853868"><ele>33.0</ele><time>2026-04-10T16:10:08Z</time></trkpt><trkpt lat="44.75569412905896" lon="10.545974831546305"><ele>33.0</ele><time>2026-04-10T16:10:09Z</time></trkpt><trkpt lat="44.75581103953096" lon="10.545714520266213"><ele>33.0</ele><time>2026-04-10T16:10:10Z</time></trkpt><trkpt lat="44.763346467802215" lon="10.529774324740302"><ele>33.0</ele><time>2026-04-10T16:11:11Z</time></trkpt><trkpt lat="44.76348390413871" lon="10.529488143743261"><ele>33.0</ele><time>2026-04-10T16:11:12Z</time></trkpt><trkpt lat="44.763612340430505" lon="10.529210921049147"><ele>32.5</ele><time>2026-04-10T16:11:13Z</time></trkpt><trkpt lat="44.76373238059452" lon="10.528935127963438"><ele>32.0</ele><time>2026-04-10T16:11:14Z</time></trkpt><trkpt lat="44.76385846670659" lon="10.528666265273152"><ele>32.0</ele><time>2026-04-10T16:11:15Z</time></trkpt><trkpt lat="44.76398129228243" lon="10.52839676545452"><ele>32.0</ele><time>2026-04-10T16:11:16Z</time></trkpt><trkpt lat="44.76410251609641" lon="10.528127699504761"><ele>32.0</ele><time>2026-04-10T16:11:17Z</time></trkpt><trkpt lat="44.76422696417074" lon="10.527852905662975"><ele>32.0</ele><time>2026-04-10T16:11:18Z</time></trkpt><trkpt lat="44.76435905115345" lon="10.527576690453195"><ele>32.0</ele><time>2026-04-10T16:11:19Z</time></trkpt><trkpt lat="44.764495268073745" lon="10.527300460598994"><ele>32.0</ele><time>2026-04-10T16:11:20Z</time></trkpt><trkpt lat="44.764632521075654" lon="10.52702573931151"><ele>32.0</ele><time>2026-04-10T16:11:21Z</time></trkpt><trkpt lat="44.764771031769584" lon="10.526746432528995"><ele>32.0</ele><time>2026-04-10T16:11:22Z</time></trkpt><trkpt lat="44.764912979638765" lon="10.52647007748338"><ele>32.0</ele><time>2026-04-10T16:11:23Z</time></trkpt><trkpt lat="44.76505029584714" lon="10.526184304766991"><ele>32.0</ele><time>2026-04-10T16:11:24Z</time></trkpt><trkpt lat="44.765186651258" lon="10.525886884187186"><ele>31.5</ele><time>2026-04-10T16:11:25Z</time></trkpt><trkpt lat="44.765324682600344" lon="10.52559196259999"><ele>31.0</ele><time>2026-04-10T16:11:26Z</time></trkpt><trkpt lat="44.76546627780313" lon="10.525299783237758"><ele>31.0</ele><time>2026-04-10T16:11:27Z</time></trkpt><trkpt lat="44.76560718937805" lon="10.525006908351667"><ele>31.0</ele><time>2026-04-10T16:11:28Z</time></trkpt><trkpt lat="44.76574293341238" lon="10.52471609549743"><ele>30.5</ele><time>2026-04-10T16:11:29Z</time></trkpt><trkpt lat="44.7658838104843" lon="10.524433370335995"><ele>30.0</ele><time>2026-04-10T16:11:30Z</time></trkpt><trkpt lat="44.766019108191365" lon="10.524147773607265"><ele>30.0</ele><time>2026-04-10T16:11:31Z</time></trkpt><trkpt lat="44.76615325831166" lon="10.523864539039048"><ele>30.0</ele><time>2026-04-10T16:11:32Z</time></trkpt><trkpt lat="44.76628673769318" lon="10.52358088579065"><ele>30.0</ele><time>2026-04-10T16:11:33Z</time></trkpt><trkpt lat="44.76642224188156" lon="10.523289320236058"><ele>30.0</ele><time>2026-04-10T16:11:34Z</time></trkpt><trkpt lat="44.76655890390388" lon="10.522997244476173"><ele>31.0</ele><time>2026-04-10T16:11:35Z</time></trkpt><trkpt lat="44.76669690433912" lon="10.522704923709336"><ele>32.0</ele><time>2026-04-10T16:11:36Z</time></trkpt><trkpt lat="44.76683569947972" lon="10.52241493012251"><ele>32.5</ele><time>2026-04-10T16:11:37Z</time></trkpt><trkpt lat="44.76697534237355" lon="10.522128308265588"><ele>33.0</ele><time>2026-04-10T16:11:38Z</time></trkpt><trkpt lat="44.767114344566494" lon="10.52184072935056"><ele>33.0</ele><time>2026-04-10T16:11:39Z</time></trkpt><trkpt lat="44.767251796666216" lon="10.521552955551998"><ele>33.0</ele><time>2026-04-10T16:11:40Z</time></trkpt><trkpt lat="44.76738814440293" lon="10.521264726981297"><ele>33.0</ele><time>2026-04-10T16:11:41Z</time></trkpt><trkpt lat="44.76752540863988" lon="10.520974768414826"><ele>33.0</ele><time>2026-04-10T16:11:42Z</time></trkpt><trkpt lat="44.76766252248673" lon="10.520685929958946"><ele>36.0</ele><time>2026-04-10T16:11:43Z</time></trkpt><trkpt lat="44.76779844132852" lon="10.520398483969862"><ele>39.0</ele><time>2026-04-10T16:11:44Z</time></trkpt><trkpt lat="44.76793222456228" lon="10.520110750434702"><ele>39.0</ele><time>2026-04-10T16:11:45Z</time></trkpt><trkpt lat="44.76806648086282" lon="10.519819945768967"><ele>39.0</ele><time>2026-04-10T16:11:46Z</time></trkpt><trkpt lat="44.76820658185766" lon="10.519529310776244"><ele>38.5</ele><time>2026-04-10T16:11:47Z</time></trkpt><trkpt lat="44.76834759005431" lon="10.519237853752283"><ele>38.0</ele><time>2026-04-10T16:11:48Z</time></trkpt><trkpt lat="44.76848608358385" lon="10.518946364191402"><ele>37.0</ele><time>2026-04-10T16:11:49Z</time></trkpt><trkpt lat="44.76862482928947" lon="10.518654618106806"><ele>36.0</ele><time>2026-04-10T16:11:50Z</time></trkpt><trkpt lat="44.76876267265506" lon="10.518360314530218"><ele>36.0</ele><time>2026-04-10T16:11:51Z</time></trkpt><trkpt lat="44.76890101435855" lon="10.518062961283851"><ele>36.0</ele><time>2026-04-10T16:11:52Z</time></trkpt><trkpt lat="44.76904149052886" lon="10.51776806061032"><ele>36.0</ele><time>2026-04-10T16:11:53Z</time></trkpt><trkpt lat="44.76918247459408" lon="10.517472311197608"><ele>36.0</ele><time>2026-04-10T16:11:54Z</time></trkpt><trkpt lat="44.76932411426607" lon="10.517177030253809"><ele>34.5</ele><time>2026-04-10T16:11:55Z</time></trkpt><trkpt lat="44.769464669575186" lon="10.516881737700016"><ele>33.0</ele><time>2026-04-10T16:11:56Z</time></trkpt><trkpt lat="44.769600859670405" lon="10.516593447454396"><ele>33.0</ele><time>2026-04-10T16:11:57Z</time></trkpt><trkpt lat="44.76973608733722" lon="10.516307930136584"><ele>33.0</ele><time>2026-04-10T16:11:58Z</time></trkpt><trkpt lat="44.76987031211943" lon="10.516028648362772"><ele>35.0</ele><time>2026-04-10T16:11:59Z</time></trkpt><trkpt lat="44.770002751012235" lon="10.51574874077493"><ele>37.0</ele><time>2026-04-10T16:12:00Z</time></trkpt><trkpt lat="44.770136856582795" lon="10.515470920602239"><ele>37.0</ele><time>2026-04-10T16:12:01Z</time></trkpt><trkpt lat="44.770270375760994" lon="10.515188049038416"><ele>37.0</ele><time>2026-04-10T16:12:02Z</time></trkpt><trkpt lat="44.77040468652384" lon="10.514901980450487"><ele>37.0</ele><time>2026-04-10T16:12:03Z</time></trkpt><trkpt lat="44.77053926200548" lon="10.514613963441894"><ele>37.0</ele><time>2026-04-10T16:12:04Z</time></trkpt><trkpt lat="44.77067662498125" lon="10.514324282123898"><ele>38.0</ele><time>2026-04-10T16:12:05Z</time></trkpt><trkpt lat="44.770814999375744" lon="10.514031216194436"><ele>39.0</ele><time>2026-04-10T16:12:06Z</time></trkpt><trkpt lat="44.770953210633486" lon="10.513737035875893"><ele>39.0</ele><time>2026-04-10T16:12:07Z</time></trkpt><trkpt lat="44.771091293863876" lon="10.513445865678243"><ele>39.0</ele><time>2026-04-10T16:12:08Z</time></trkpt><trkpt lat="44.7712308320449" lon="10.513154251106013"><ele>38.5</ele><time>2026-04-10T16:12:09Z</time></trkpt><trkpt lat="44.77137107221181" lon="10.512860927574923"><ele>38.0</ele><time>2026-04-10T16:12:10Z</time></trkpt><trkpt lat="44.77964145885247" lon="10.495343484432354"><ele>38.0</ele><time>2026-04-10T16:13:11Z</time></trkpt><trkpt lat="44.77977207751459" lon="10.49497447954795"><ele>38.0</ele><time>2026-04-10T16:13:12Z</time></trkpt><trkpt lat="44.77991560423496" lon="10.494728433996624"><ele>38.0</ele><time>2026-04-10T16:13:13Z</time></trkpt><trkpt lat="44.780060352908016" lon="10.494460138923964"><ele>38.0</ele><time>2026-04-10T16:13:14Z</time></trkpt><trkpt lat="44.78019488897457" lon="10.494159698980937"><ele>38.0</ele><time>2026-04-10T16:13:15Z</time></trkpt><trkpt lat="44.78033369179213" lon="10.493857812152422"><ele>38.0</ele><time>2026-04-10T16:13:16Z</time></trkpt><trkpt lat="44.7804726082498" lon="10.493576794287385"><ele>38.5</ele><time>2026-04-10T16:13:17Z</time></trkpt><trkpt lat="44.78061288863752" lon="10.49328131873264"><ele>39.0</ele><time>2026-04-10T16:13:18Z</time></trkpt><trkpt lat="44.78075560229899" lon="10.492985106429607"><ele>39.0</ele><time>2026-04-10T16:13:19Z</time></trkpt><trkpt lat="44.78089170221325" lon="10.492690524904672"><ele>39.0</ele><time>2026-04-10T16:13:20Z</time></trkpt><trkpt lat="44.78103041750963" lon="10.492395864975471"><ele>38.5</ele><time>2026-04-10T16:13:21Z</time></trkpt><trkpt lat="44.78117000126379" lon="10.492098887637408"><ele>38.0</ele><time>2026-04-10T16:13:22Z</time></trkpt><trkpt lat="44.78130983871288" lon="10.49180261972161"><ele>38.0</ele><time>2026-04-10T16:13:23Z</time></trkpt><trkpt lat="44.78145091736323" lon="10.491504470508358"><ele>38.0</ele><time>2026-04-10T16:13:24Z</time></trkpt><trkpt lat="44.78159084642681" lon="10.491214144895169"><ele>38.0</ele><time>2026-04-10T16:13:25Z</time></trkpt><trkpt lat="44.781731935807066" lon="10.4909212019271"><ele>38.0</ele><time>2026-04-10T16:13:26Z</time></trkpt><trkpt lat="44.78187354435861" lon="10.490620394083464"><ele>37.5</ele><time>2026-04-10T16:13:27Z</time></trkpt><trkpt lat="44.78200934563993" lon="10.490326442760898"><ele>37.0</ele><time>2026-04-10T16:13:28Z</time></trkpt><trkpt lat="44.78214637713117" lon="10.490028751915125"><ele>37.0</ele><time>2026-04-10T16:13:29Z</time></trkpt><trkpt lat="44.78228937916711" lon="10.489735176335282"><ele>37.0</ele><time>2026-04-10T16:13:30Z</time></trkpt><trkpt lat="44.78243137375055" lon="10.489441723810165"><ele>37.5</ele><time>2026-04-10T16:13:31Z</time></trkpt><trkpt lat="44.78257857055688" lon="10.48914842853768"><ele>38.0</ele><time>2026-04-10T16:13:32Z</time></trkpt><trkpt lat="44.78271027202331" lon="10.488860191569108"><ele>37.0</ele><time>2026-04-10T16:13:33Z</time></trkpt><trkpt lat="44.78286142870387" lon="10.488557138187998"><ele>36.0</ele><time>2026-04-10T16:13:34Z</time></trkpt><trkpt lat="44.78300555350133" lon="10.488257751139143"><ele>36.0</ele><time>2026-04-10T16:13:35Z</time></trkpt><trkpt lat="44.783142956642216" lon="10.487955789731876"><ele>36.0</ele><time>2026-04-10T16:13:36Z</time></trkpt><trkpt lat="44.78327896837108" lon="10.487655549229398"><ele>36.5</ele><time>2026-04-10T16:13:37Z</time></trkpt><trkpt lat="44.783416344309586" lon="10.48735691719321"><ele>37.0</ele><time>2026-04-10T16:13:38Z</time></trkpt><trkpt lat="44.783553900311325" lon="10.487057968886885"><ele>38.0</ele><time>2026-04-10T16:13:39Z</time></trkpt><trkpt lat="44.78369347953282" lon="10.486762936848395"><ele>39.0</ele><time>2026-04-10T16:13:40Z</time></trkpt><trkpt lat="44.78383157677704" lon="10.486466140155157"><ele>39.5</ele><time>2026-04-10T16:13:41Z</time></trkpt><trkpt lat="44.78396826260601" lon="10.486167121213674"><ele>40.0</ele><time>2026-04-10T16:13:42Z</time></trkpt><trkpt lat="44.78410544794893" lon="10.485871198276312"><ele>40.0</ele><time>2026-04-10T16:13:43Z</time></trkpt><trkpt lat="44.784245424277806" lon="10.485573284390751"><ele>40.0</ele><time>2026-04-10T16:13:44Z</time></trkpt><trkpt lat="44.78438580842994" lon="10.485276943692664"><ele>39.0</ele><time>2026-04-10T16:13:45Z</time></trkpt><trkpt lat="44.78452694967983" lon="10.484981666157289"><ele>38.0</ele><time>2026-04-10T16:13:46Z</time></trkpt><trkpt lat="44.78466580867534" lon="10.484684978918809"><ele>39.0</ele><time>2026-04-10T16:13:47Z</time></trkpt><trkpt lat="44.78480597803607" lon="10.484387671415073"><ele>40.0</ele><time>2026-04-10T16:13:48Z</time></trkpt><trkpt lat="44.78494542280975" lon="10.484093217482993"><ele>40.0</ele><time>2026-04-10T16:13:49Z</time></trkpt><trkpt lat="44.78508406575072" lon="10.483798985479032"><ele>40.0</ele><time>2026-04-10T16:13:50Z</time></trkpt><trkpt lat="44.78522279155181" lon="10.483505384223074"><ele>40.0</ele><time>2026-04-10T16:13:51Z</time></trkpt><trkpt lat="44.78536068849702" lon="10.483211531161567"><ele>40.0</ele><time>2026-04-10T16:13:52Z</time></trkpt><trkpt lat="44.785500550115884" lon="10.482912600298244"><ele>39.5</ele><time>2026-04-10T16:13:53Z</time></trkpt><trkpt lat="44.785641351322326" lon="10.482619115076387"><ele>39.0</ele><time>2026-04-10T16:13:54Z</time></trkpt><trkpt lat="44.78578190219202" lon="10.482322885479363"><ele>39.0</ele><time>2026-04-10T16:13:55Z</time></trkpt><trkpt lat="44.78592084638993" lon="10.482026897367291"><ele>39.0</ele><time>2026-04-10T16:13:56Z</time></trkpt><trkpt lat="44.78606222300652" lon="10.481729849289172"><ele>39.0</ele><time>2026-04-10T16:13:57Z</time></trkpt><trkpt lat="44.78620388497172" lon="10.481431007086053"><ele>39.0</ele><time>2026-04-10T16:13:58Z</time></trkpt><trkpt lat="44.78634428613621" lon="10.481134035379474"><ele>40.0</ele><time>2026-04-10T16:13:59Z</time></trkpt><trkpt lat="44.78648535265856" lon="10.480833334000566"><ele>41.0</ele><time>2026-04-10T16:14:00Z</time></trkpt><trkpt lat="44.7866247257332" lon="10.480533239714301"><ele>41.5</ele><time>2026-04-10T16:14:01Z</time></trkpt><trkpt lat="44.78676519454464" lon="10.48023335825623"><ele>42.0</ele><time>2026-04-10T16:14:02Z</time></trkpt><trkpt lat="44.78690539084847" lon="10.47993470558607"><ele>40.5</ele><time>2026-04-10T16:14:03Z</time></trkpt><trkpt lat="44.78704497966206" lon="10.479637200466023"><ele>39.0</ele><time>2026-04-10T16:14:04Z</time></trkpt><trkpt lat="44.78718804031387" lon="10.479341876532848"><ele>39.0</ele><time>2026-04-10T16:14:05Z</time></trkpt><trkpt lat="44.78733076967537" lon="10.479049002657138"><ele>39.0</ele><time>2026-04-10T16:14:06Z</time></trkpt><trkpt lat="44.78747181669502" lon="10.478756258782223"><ele>39.0</ele><time>2026-04-10T16:14:07Z</time></trkpt><trkpt lat="44.78761067215196" lon="10.478462929631679"><ele>39.0</ele><time>2026-04-10T16:14:08Z</time></trkpt><trkpt lat="44.787749697070545" lon="10.47816853814153"><ele>39.0</ele><time>2026-04-10T16:14:09Z</time></trkpt><trkpt lat="44.78788401646953" lon="10.477868633400117"><ele>39.0</ele><time>2026-04-10T16:14:10Z</time></trkpt><trkpt lat="44.796094432702155" lon="10.46040009189516"><ele>40.5</ele><time>2026-04-10T16:15:11Z</time></trkpt><trkpt lat="44.79621772505292" lon="10.460129039874957"><ele>42.0</ele><time>2026-04-10T16:15:12Z</time></trkpt><trkpt lat="44.796340609288" lon="10.459860156578314"><ele>41.0</ele><time>2026-04-10T16:15:13Z</time></trkpt><trkpt lat="44.79646803162413" lon="10.459584806219041"><ele>40.0</ele><time>2026-04-10T16:15:14Z</time></trkpt><trkpt lat="44.796596500974715" lon="10.459311182454215"><ele>40.0</ele><time>2026-04-10T16:15:15Z</time></trkpt><trkpt lat="44.7967163350326" lon="10.459039519075699"><ele>40.0</ele><time>2026-04-10T16:15:16Z</time></trkpt><trkpt lat="44.79683726289004" lon="10.458768120045194"><ele>40.0</ele><time>2026-04-10T16:15:17Z</time></trkpt><trkpt lat="44.79695812351336" lon="10.458484879215643"><ele>40.0</ele><time>2026-04-10T16:15:18Z</time></trkpt><trkpt lat="44.797080580917886" lon="10.458204372846838"><ele>41.0</ele><time>2026-04-10T16:15:19Z</time></trkpt><trkpt lat="44.797208416067114" lon="10.457919937308686"><ele>42.0</ele><time>2026-04-10T16:15:20Z</time></trkpt><trkpt lat="44.79733294868975" lon="10.457639536924201"><ele>42.0</ele><time>2026-04-10T16:15:21Z</time></trkpt><trkpt lat="44.79745981505444" lon="10.45735075835747"><ele>42.0</ele><time>2026-04-10T16:15:22Z</time></trkpt><trkpt lat="44.797584802645375" lon="10.457059566521236"><ele>40.5</ele><time>2026-04-10T16:15:23Z</time></trkpt><trkpt lat="44.7977106773876" lon="10.456769452653209"><ele>39.0</ele><time>2026-04-10T16:15:24Z</time></trkpt><trkpt lat="44.79783517524969" lon="10.456470987491048"><ele>39.5</ele><time>2026-04-10T16:15:25Z</time></trkpt><trkpt lat="44.79795784338153" lon="10.456175881329967"><ele>40.0</ele><time>2026-04-10T16:15:26Z</time></trkpt><trkpt lat="44.79808251898355" lon="10.455881181732726"><ele>40.0</ele><time>2026-04-10T16:15:27Z</time></trkpt><trkpt lat="44.79820589483114" lon="10.45558352092853"><ele>40.0</ele><time>2026-04-10T16:15:28Z</time></trkpt><trkpt lat="44.798329545194875" lon="10.455284977480236"><ele>40.0</ele><time>2026-04-10T16:15:29Z</time></trkpt><trkpt lat="44.7984533055077" lon="10.45498566419024"><ele>40.0</ele><time>2026-04-10T16:15:30Z</time></trkpt><trkpt lat="44.79857835084611" lon="10.454684930399477"><ele>41.0</ele><time>2026-04-10T16:15:31Z</time></trkpt><trkpt lat="44.79870314689456" lon="10.454382469877215"><ele>42.0</ele><time>2026-04-10T16:15:32Z</time></trkpt><trkpt lat="44.79882804838517" lon="10.45408141579855"><ele>41.0</ele><time>2026-04-10T16:15:33Z</time></trkpt><trkpt lat="44.798954265086095" lon="10.453780327879372"><ele>40.0</ele><time>2026-04-10T16:15:34Z</time></trkpt><trkpt lat="44.799075099471075" lon="10.453471626457969"><ele>40.0</ele><time>2026-04-10T16:15:35Z</time></trkpt><trkpt lat="44.79919895165764" lon="10.453168570947753"><ele>40.0</ele><time>2026-04-10T16:15:36Z</time></trkpt><trkpt lat="44.799323389433056" lon="10.452861849143162"><ele>40.5</ele><time>2026-04-10T16:15:37Z</time></trkpt><trkpt lat="44.79944453607879" lon="10.452554510517848"><ele>41.0</ele><time>2026-04-10T16:15:38Z</time></trkpt><trkpt lat="44.79956349517288" lon="10.452240563375891"><ele>40.5</ele><time>2026-04-10T16:15:39Z</time></trkpt><trkpt lat="44.799683985992985" lon="10.451928235714286"><ele>40.0</ele><time>2026-04-10T16:15:40Z</time></trkpt><trkpt lat="44.799804191137724" lon="10.451620484446593"><ele>40.0</ele><time>2026-04-10T16:15:41Z</time></trkpt><trkpt lat="44.79992454854043" lon="10.451314059025856"><ele>40.0</ele><time>2026-04-10T16:15:42Z</time></trkpt><trkpt lat="44.800045968832215" lon="10.45100754276578"><ele>39.5</ele><time>2026-04-10T16:15:43Z</time></trkpt><trkpt lat="44.800162143566475" lon="10.450695273018352"><ele>39.0</ele><time>2026-04-10T16:15:44Z</time></trkpt><trkpt lat="44.800281200866785" lon="10.450387147268705"><ele>39.0</ele><time>2026-04-10T16:15:45Z</time></trkpt><trkpt lat="44.80039605930758" lon="10.450072935177607"><ele>39.0</ele><time>2026-04-10T16:15:46Z</time></trkpt><trkpt lat="44.80051279253873" lon="10.44975710659078"><ele>39.5</ele><time>2026-04-10T16:15:47Z</time></trkpt><trkpt lat="44.8006248399377" lon="10.449445062627062"><ele>40.0</ele><time>2026-04-10T16:15:48Z</time></trkpt><trkpt lat="44.800742856454775" lon="10.449127960175538"><ele>40.0</ele><time>2026-04-10T16:15:49Z</time></trkpt><trkpt lat="44.80085772768616" lon="10.448813244189994"><ele>40.0</ele><time>2026-04-10T16:15:50Z</time></trkpt><trkpt lat="44.80097400604388" lon="10.448494034554724"><ele>40.0</ele><time>2026-04-10T16:15:51Z</time></trkpt><trkpt lat="44.801091791949254" lon="10.448176320288642"><ele>40.0</ele><time>2026-04-10T16:15:52Z</time></trkpt><trkpt lat="44.80121425255089" lon="10.447857524528407"><ele>39.5</ele><time>2026-04-10T16:15:53Z</time></trkpt><trkpt lat="44.80133151983434" lon="10.447533777665354"><ele>39.0</ele><time>2026-04-10T16:15:54Z</time></trkpt><trkpt lat="44.8014494528496" lon="10.44721483327398"><ele>38.5</ele><time>2026-04-10T16:15:55Z</time></trkpt><trkpt lat="44.80157189602838" lon="10.446899715540809"><ele>38.0</ele><time>2026-04-10T16:15:56Z</time></trkpt><trkpt lat="44.8016876428094" lon="10.446575147155684"><ele>37.0</ele><time>2026-04-10T16:15:57Z</time></trkpt><trkpt lat="44.80180960484943" lon="10.446251559290452"><ele>36.0</ele><time>2026-04-10T16:15:58Z</time></trkpt><trkpt lat="44.80192613253439" lon="10.44593467749578"><ele>36.0</ele><time>2026-04-10T16:15:59Z</time></trkpt><trkpt lat="44.802046239688956" lon="10.445615178426829"><ele>36.0</ele><time>2026-04-10T16:16:00Z</time></trkpt><trkpt lat="44.80216751878838" lon="10.445296929663195"><ele>36.0</ele><time>2026-04-10T16:16:01Z</time></trkpt><trkpt lat="44.802288601736436" lon="10.444975761635607"><ele>36.0</ele><time>2026-04-10T16:16:02Z</time></trkpt><trkpt lat="44.802407511956496" lon="10.444659374980025"><ele>36.0</ele><time>2026-04-10T16:16:03Z</time></trkpt><trkpt lat="44.802532742660645" lon="10.444334517587851"><ele>36.0</ele><time>2026-04-10T16:16:04Z</time></trkpt><trkpt lat="44.802650531374006" lon="10.444016694380803"><ele>36.0</ele><time>2026-04-10T16:16:05Z</time></trkpt><trkpt lat="44.802768547972995" lon="10.443694314655042"><ele>36.0</ele><time>2026-04-10T16:16:06Z</time></trkpt><trkpt lat="44.80288659483872" lon="10.443373471817857"><ele>36.0</ele><time>2026-04-10T16:16:07Z</time></trkpt><trkpt lat="44.8030025222551" lon="10.443050436331148"><ele>36.0</ele><time>2026-04-10T16:16:08Z</time></trkpt><trkpt lat="44.80312187204351" lon="10.442731789744274"><ele>36.5</ele><time>2026-04-10T16:16:09Z</time></trkpt><trkpt lat="44.80324471120726" lon="10.442408244681538"><ele>37.0</ele><time>2026-04-10T16:16:10Z</time></trkpt><trkpt lat="44.81033050182334" lon="10.423342678773482"><ele>36.0</ele><time>2026-04-10T16:17:11Z</time></trkpt><trkpt lat="44.81044350524522" lon="10.42303955252399"><ele>35.0</ele><time>2026-04-10T16:17:12Z</time></trkpt><trkpt lat="44.81055438196649" lon="10.422737962368592"><ele>35.0</ele><time>2026-04-10T16:17:13Z</time></trkpt><trkpt lat="44.810667192271374" lon="10.422434661148353"><ele>35.0</ele><time>2026-04-10T16:17:14Z</time></trkpt><trkpt lat="44.810777486529496" lon="10.422135335562508"><ele>35.5</ele><time>2026-04-10T16:17:15Z</time></trkpt><trkpt lat="44.810889529125824" lon="10.421831353823107"><ele>36.0</ele><time>2026-04-10T16:17:16Z</time></trkpt><trkpt lat="44.810998191493006" lon="10.421535916531619"><ele>37.0</ele><time>2026-04-10T16:17:17Z</time></trkpt><trkpt lat="44.811109196893774" lon="10.421236353017358"><ele>38.0</ele><time>2026-04-10T16:17:18Z</time></trkpt><trkpt lat="44.81121885591292" lon="10.420935706330885"><ele>38.0</ele><time>2026-04-10T16:17:19Z</time></trkpt><trkpt lat="44.81132828118235" lon="10.42063820275421"><ele>38.0</ele><time>2026-04-10T16:17:20Z</time></trkpt><trkpt lat="44.81143953644757" lon="10.42033559506953"><ele>37.5</ele><time>2026-04-10T16:17:21Z</time></trkpt><trkpt lat="44.81154833324408" lon="10.420038711654147"><ele>37.0</ele><time>2026-04-10T16:17:22Z</time></trkpt><trkpt lat="44.81165996487898" lon="10.419743284039326"><ele>37.0</ele><time>2026-04-10T16:17:23Z</time></trkpt><trkpt lat="44.811772373157915" lon="10.41944385390399"><ele>37.0</ele><time>2026-04-10T16:17:24Z</time></trkpt><trkpt lat="44.81188738747152" lon="10.419144031534419"><ele>37.0</ele><time>2026-04-10T16:17:25Z</time></trkpt><trkpt lat="44.811993560340085" lon="10.418850891740762"><ele>37.0</ele><time>2026-04-10T16:17:26Z</time></trkpt><trkpt lat="44.81210668435031" lon="10.418547252869846"><ele>36.5</ele><time>2026-04-10T16:17:27Z</time></trkpt><trkpt lat="44.812217016994225" lon="10.41824679954318"><ele>36.0</ele><time>2026-04-10T16:17:28Z</time></trkpt><trkpt lat="44.81232789429415" lon="10.41794859613614"><ele>35.5</ele><time>2026-04-10T16:17:29Z</time></trkpt><trkpt lat="44.812443199018134" lon="10.417645847152887"><ele>35.0</ele><time>2026-04-10T16:17:30Z</time></trkpt><trkpt lat="44.81255778440578" lon="10.417348189366454"><ele>35.5</ele><time>2026-04-10T16:17:31Z</time></trkpt><trkpt lat="44.81267645216495" lon="10.417048467477263"><ele>36.0</ele><time>2026-04-10T16:17:32Z</time></trkpt><trkpt lat="44.81279544778728" lon="10.416747729467591"><ele>36.0</ele><time>2026-04-10T16:17:33Z</time></trkpt><trkpt lat="44.812911046173625" lon="10.416450674126464"><ele>36.0</ele><time>2026-04-10T16:17:34Z</time></trkpt><trkpt lat="44.813025116095" lon="10.416153334514444"><ele>37.0</ele><time>2026-04-10T16:17:35Z</time></trkpt><trkpt lat="44.81313686583895" lon="10.415850028430215"><ele>38.0</ele><time>2026-04-10T16:17:36Z</time></trkpt><trkpt lat="44.81324775502817" lon="10.415549450177915"><ele>38.0</ele><time>2026-04-10T16:17:37Z</time></trkpt><trkpt lat="44.81336065745234" lon="10.41524452572597"><ele>38.0</ele><time>2026-04-10T16:17:38Z</time></trkpt><trkpt lat="44.81347040094239" lon="10.414945178017598"><ele>37.0</ele><time>2026-04-10T16:17:39Z</time></trkpt><trkpt lat="44.813582615281675" lon="10.414644430323422"><ele>36.0</ele><time>2026-04-10T16:17:40Z</time></trkpt><trkpt lat="44.81369459267178" lon="10.414342675204804"><ele>36.0</ele><time>2026-04-10T16:17:41Z</time></trkpt><trkpt lat="44.81380605965327" lon="10.414040635494661"><ele>36.0</ele><time>2026-04-10T16:17:42Z</time></trkpt><trkpt lat="44.81391488104185" lon="10.413743625480944"><ele>37.0</ele><time>2026-04-10T16:17:43Z</time></trkpt><trkpt lat="44.814026829718856" lon="10.413443924623197"><ele>38.0</ele><time>2026-04-10T16:17:44Z</time></trkpt><trkpt lat="44.81413681839934" lon="10.41314530640286"><ele>38.0</ele><time>2026-04-10T16:17:45Z</time></trkpt><trkpt lat="44.81424805732069" lon="10.412849769233201"><ele>38.0</ele><time>2026-04-10T16:17:46Z</time></trkpt><trkpt lat="44.8143599844317" lon="10.41255293521521"><ele>37.0</ele><time>2026-04-10T16:17:47Z</time></trkpt><trkpt lat="44.814474456927904" lon="10.41224905782403"><ele>36.0</ele><time>2026-04-10T16:17:48Z</time></trkpt><trkpt lat="44.81458468424174" lon="10.411952048353962"><ele>36.0</ele><time>2026-04-10T16:17:49Z</time></trkpt><trkpt lat="44.81469441510676" lon="10.411658946615997"><ele>36.0</ele><time>2026-04-10T16:17:50Z</time></trkpt><trkpt lat="44.81480448414312" lon="10.411359485178666"><ele>36.5</ele><time>2026-04-10T16:17:51Z</time></trkpt><trkpt lat="44.814911840622344" lon="10.411063826869775"><ele>37.0</ele><time>2026-04-10T16:17:52Z</time></trkpt><trkpt lat="44.81502171156707" lon="10.410762685281027"><ele>37.5</ele><time>2026-04-10T16:17:53Z</time></trkpt><trkpt lat="44.815130223447625" lon="10.410465350044637"><ele>38.0</ele><time>2026-04-10T16:17:54Z</time></trkpt><trkpt lat="44.815233620433325" lon="10.410174339616066"><ele>37.0</ele><time>2026-04-10T16:17:55Z</time></trkpt><trkpt lat="44.81534282442663" lon="10.40990771624498"><ele>36.0</ele><time>2026-04-10T16:17:56.001Z</time></trkpt><trkpt lat="44.815447875293856" lon="10.409632739924382"><ele>35.0</ele><time>2026-04-10T16:17:57.001Z</time></trkpt><trkpt lat="44.81555232929104" lon="10.40935291319503"><ele>35.0</ele><time>2026-04-10T16:17:58.001Z</time></trkpt><trkpt lat="44.815656090888666" lon="10.409064014772905"><ele>35.0</ele><time>2026-04-10T16:17:59.001Z</time></trkpt><trkpt lat="44.8157624054831" lon="10.40877586663016"><ele>36.0</ele><time>2026-04-10T16:18:00.001Z</time></trkpt><trkpt lat="44.815869804491044" lon="10.40848217489359"><ele>37.0</ele><time>2026-04-10T16:18:01.001Z</time></trkpt><trkpt lat="44.81597971854889" lon="10.408189349254176"><ele>35.5</ele><time>2026-04-10T16:18:02.001Z</time></trkpt><trkpt lat="44.816099223832815" lon="10.40789047476842"><ele>34.0</ele><time>2026-04-10T16:18:03.001Z</time></trkpt><trkpt lat="44.816205431420705" lon="10.407591386182002"><ele>34.0</ele><time>2026-04-10T16:18:04.001Z</time></trkpt><trkpt lat="44.816321068913055" lon="10.407292473181158"><ele>34.0</ele><time>2026-04-10T16:18:05.001Z</time></trkpt><trkpt lat="44.81643762639191" lon="10.406992770705122"><ele>34.5</ele><time>2026-04-10T16:18:06.001Z</time></trkpt><trkpt lat="44.81655044004341" lon="10.406686529076946"><ele>35.0</ele><time>2026-04-10T16:18:07.001Z</time></trkpt><trkpt lat="44.81666296243623" lon="10.406378076002824"><ele>35.0</ele><time>2026-04-10T16:18:08.001Z</time></trkpt><trkpt lat="44.816775693638306" lon="10.406067239859578"><ele>35.0</ele><time>2026-04-10T16:18:09.001Z</time></trkpt><trkpt lat="44.816889748814674" lon="10.405759586343573"><ele>38.0</ele><time>2026-04-10T16:18:10.001Z</time></trkpt><trkpt lat="44.82358967624199" lon="10.387696308220587"><ele>38.0</ele><time>2026-04-10T16:19:11.001Z</time></trkpt><trkpt lat="44.823690461118915" lon="10.387422430512531"><ele>38.0</ele><time>2026-04-10T16:19:12.001Z</time></trkpt><trkpt lat="44.82379289768962" lon="10.387137063500937"><ele>38.0</ele><time>2026-04-10T16:19:13.001Z</time></trkpt><trkpt lat="44.823899774010435" lon="10.386845875706053"><ele>38.666666666666664</ele><time>2026-04-10T16:19:14.001Z</time></trkpt><trkpt lat="44.824004925311115" lon="10.386563725626749"><ele>39.333333333333336</ele><time>2026-04-10T16:19:15.001Z</time></trkpt><trkpt lat="44.82410295230878" lon="10.386299807513023"><ele>40.0</ele><time>2026-04-10T16:19:16.001Z</time></trkpt><trkpt lat="44.82419695770717" lon="10.386044758025717"><ele>40.0</ele><time>2026-04-10T16:19:17.001Z</time></trkpt><trkpt lat="44.824292436256535" lon="10.385788147859767"><ele>40.0</ele><time>2026-04-10T16:19:18.001Z</time></trkpt><trkpt lat="44.824388472861415" lon="10.385531425556852"><ele>40.0</ele><time>2026-04-10T16:19:19.001Z</time></trkpt><trkpt lat="44.82448341998586" lon="10.385274667403213"><ele>40.333333333333336</ele><time>2026-04-10T16:19:20.001Z</time></trkpt><trkpt lat="44.82457861476975" lon="10.385014009468973"><ele>40.666666666666664</ele><time>2026-04-10T16:19:21.001Z</time></trkpt><trkpt lat="44.82467411169773" lon="10.384754008403018"><ele>41.0</ele><time>2026-04-10T16:19:22.001Z</time></trkpt><trkpt lat="44.824772198754516" lon="10.38448997581699"><ele>41.0</ele><time>2026-04-10T16:19:23.001Z</time></trkpt><trkpt lat="44.8248743631876" lon="10.38422459759231"><ele>41.0</ele><time>2026-04-10T16:19:24.001Z</time></trkpt><trkpt lat="44.82497918399415" lon="10.38395706082966"><ele>41.0</ele><time>2026-04-10T16:19:25.001Z</time></trkpt><trkpt lat="44.82508739444374" lon="10.383689185611187"><ele>40.33333333333333</ele><time>2026-04-10T16:19:26.001Z</time></trkpt><trkpt lat="44.82519275208376" lon="10.383423509483288"><ele>39.666666666666664</ele><time>2026-04-10T16:19:27.001Z</time></trkpt><trkpt lat="44.8252948643029" lon="10.383165939201147"><ele>39.0</ele><time>2026-04-10T16:19:28.001Z</time></trkpt><trkpt lat="44.825395315394964" lon="10.382905544743915"><ele>39.0</ele><time>2026-04-10T16:19:29.001Z</time></trkpt><trkpt lat="44.82547607209574" lon="10.38263656893108"><ele>39.0</ele><time>2026-04-10T16:19:30.001Z</time></trkpt><trkpt lat="44.825567809828584" lon="10.38238409234816"><ele>39.0</ele><time>2026-04-10T16:19:31.001Z</time></trkpt><trkpt lat="44.825659074924424" lon="10.382132916018497"><ele>38.666666666666664</ele><time>2026-04-10T16:19:32.001Z</time></trkpt><trkpt lat="44.825742636210556" lon="10.381909185926581"><ele>38.33333333333333</ele><time>2026-04-10T16:19:33.001Z</time></trkpt><trkpt lat="44.82581510755827" lon="10.381712977702213"><ele>38.0</ele><time>2026-04-10T16:19:34.001Z</time></trkpt><trkpt lat="44.82593245494336" lon="10.381537671723114"><ele>38.0</ele><time>2026-04-10T16:19:35.001Z</time></trkpt><trkpt lat="44.8260325534498" lon="10.381346568569452"><ele>38.0</ele><time>2026-04-10T16:19:36.001Z</time></trkpt><trkpt lat="44.82614547849634" lon="10.381170028109446"><ele>38.0</ele><time>2026-04-10T16:19:37.001Z</time></trkpt><trkpt lat="44.82626495907344" lon="10.381008585519497"><ele>38.0</ele><time>2026-04-10T16:19:38.001Z</time></trkpt><trkpt lat="44.8263622676351" lon="10.380852298393615"><ele>38.0</ele><time>2026-04-10T16:19:39.001Z</time></trkpt><trkpt lat="44.82644026479204" lon="10.380684763512367"><ele>38.0</ele><time>2026-04-10T16:19:40.001Z</time></trkpt><trkpt lat="44.826508232557714" lon="10.38048766868752"><ele>38.0</ele><time>2026-04-10T16:19:41.001Z</time></trkpt><trkpt lat="44.82657583548449" lon="10.380294319396084"><ele>38.25</ele><time>2026-04-10T16:19:42.001Z</time></trkpt><trkpt lat="44.826634351888714" lon="10.380121483732273"><ele>38.5</ele><time>2026-04-10T16:19:43.001Z</time></trkpt><trkpt lat="44.826696620435946" lon="10.379954953044988"><ele>38.75</ele><time>2026-04-10T16:19:44.001Z</time></trkpt><trkpt lat="44.82674968931011" lon="10.379796577170573"><ele>39.0</ele><time>2026-04-10T16:19:45.001Z</time></trkpt><trkpt lat="44.82680741184577" lon="10.379635153141145"><ele>38.75</ele><time>2026-04-10T16:19:46.001Z</time></trkpt><trkpt lat="44.826875380846076" lon="10.379468725571156"><ele>38.5</ele><time>2026-04-10T16:19:47.001Z</time></trkpt><trkpt lat="44.826943818068834" lon="10.37930368981625"><ele>38.25</ele><time>2026-04-10T16:19:48.001Z</time></trkpt><trkpt lat="44.82700732527637" lon="10.379154954694512"><ele>38.0</ele><time>2026-04-10T16:19:49.001Z</time></trkpt><trkpt lat="44.82706277901908" lon="10.37902304983999"><ele>38.0</ele><time>2026-04-10T16:19:50.001Z</time></trkpt><trkpt lat="44.82710698104681" lon="10.378912296627304"><ele>38.0</ele><time>2026-04-10T16:19:51.001Z</time></trkpt><trkpt lat="44.827151283922" lon="10.378820885354092"><ele>38.0</ele><time>2026-04-10T16:19:52.001Z</time></trkpt><trkpt lat="44.82720397181909" lon="10.37874946911615"><ele>38.0</ele><time>2026-04-10T16:19:53.001Z</time></trkpt><trkpt lat="44.8272661202807" lon="10.378682684724751"><ele>38.0</ele><time>2026-04-10T16:19:54.001Z</time></trkpt><trkpt lat="44.827327610892596" lon="10.378604738814518"><ele>38.0</ele><time>2026-04-10T16:19:55.001Z</time></trkpt><trkpt lat="44.82738013638316" lon="10.37851792589847"><ele>38.0</ele><time>2026-04-10T16:19:56.001Z</time></trkpt><trkpt lat="44.827418032834814" lon="10.378434150051396"><ele>38.0</ele><time>2026-04-10T16:19:57.001Z</time></trkpt><trkpt lat="44.82745970830102" lon="10.378297156834359"><ele>38.0</ele><time>2026-04-10T16:19:59.001Z</time></trkpt><trkpt lat="44.8278107446841" lon="10.37650565350922"><ele>37.75</ele><time>2026-04-10T16:31:11Z</time></trkpt><trkpt lat="44.82783982957985" lon="10.376340864086849"><ele>37.5</ele><time>2026-04-10T16:31:12Z</time></trkpt><trkpt lat="44.82785116013155" lon="10.376154943034681"><ele>37.25</ele><time>2026-04-10T16:31:13Z</time></trkpt><trkpt lat="44.82793184789713" lon="10.37596744832383"><ele>37.0</ele><time>2026-04-10T16:31:14Z</time></trkpt><trkpt lat="44.82800672957891" lon="10.375779438429596"><ele>37.0</ele><time>2026-04-10T16:31:15Z</time></trkpt><trkpt lat="44.82808588160278" lon="10.375565043915136"><ele>37.0</ele><time>2026-04-10T16:31:16Z</time></trkpt><trkpt lat="44.8281754778443" lon="10.375306519844784"><ele>37.0</ele><time>2026-04-10T16:31:17Z</time></trkpt><trkpt lat="44.828257342985395" lon="10.375062671928323"><ele>37.0</ele><time>2026-04-10T16:31:18Z</time></trkpt><trkpt lat="44.82835985614038" lon="10.37480931223692"><ele>37.0</ele><time>2026-04-10T16:31:19Z</time></trkpt><trkpt lat="44.82845548005694" lon="10.374540263352259"><ele>37.0</ele><time>2026-04-10T16:31:20Z</time></trkpt><trkpt lat="44.82855903831737" lon="10.374255127648551"><ele>36.66666666666667</ele><time>2026-04-10T16:31:21Z</time></trkpt><trkpt lat="44.82865882551468" lon="10.37398710171762"><ele>36.333333333333336</ele><time>2026-04-10T16:31:22Z</time></trkpt><trkpt lat="44.828760144107825" lon="10.373709601983983"><ele>36.0</ele><time>2026-04-10T16:31:23Z</time></trkpt><trkpt lat="44.82886649150637" lon="10.3734258325798"><ele>36.0</ele><time>2026-04-10T16:31:24Z</time></trkpt><trkpt lat="44.82897270880475" lon="10.373135167763184"><ele>36.0</ele><time>2026-04-10T16:31:25Z</time></trkpt><trkpt lat="44.829078116664604" lon="10.372840029466222"><ele>36.0</ele><time>2026-04-10T16:31:26Z</time></trkpt><trkpt lat="44.82918833630375" lon="10.372542976156033"><ele>36.0</ele><time>2026-04-10T16:31:27Z</time></trkpt><trkpt lat="44.82929770165003" lon="10.372241440827148"><ele>34.0</ele><time>2026-04-10T16:31:28Z</time></trkpt><trkpt lat="44.82940964415317" lon="10.371939464690755"><ele>32.0</ele><time>2026-04-10T16:31:29Z</time></trkpt><trkpt lat="44.82952401525878" lon="10.371635980797954"><ele>35.0</ele><time>2026-04-10T16:31:30Z</time></trkpt><trkpt lat="44.82963768219467" lon="10.37133015203753"><ele>38.0</ele><time>2026-04-10T16:31:31Z</time></trkpt><trkpt lat="44.82975050474646" lon="10.371026285300978"><ele>38.0</ele><time>2026-04-10T16:31:32Z</time></trkpt><trkpt lat="44.82986282710781" lon="10.370720941537568"><ele>38.0</ele><time>2026-04-10T16:31:33Z</time></trkpt><trkpt lat="44.82997325043997" lon="10.370416042294812"><ele>37.0</ele><time>2026-04-10T16:31:34Z</time></trkpt><trkpt lat="44.83008329931928" lon="10.370114526310648"><ele>36.0</ele><time>2026-04-10T16:31:35Z</time></trkpt><trkpt lat="44.83018944304302" lon="10.369830921923597"><ele>36.666666666666664</ele><time>2026-04-10T16:31:36Z</time></trkpt><trkpt lat="44.83029126910668" lon="10.369551597681106"><ele>37.33333333333333</ele><time>2026-04-10T16:31:37Z</time></trkpt><trkpt lat="44.83039636550575" lon="10.369271125951286"><ele>38.0</ele><time>2026-04-10T16:31:38Z</time></trkpt><trkpt lat="44.83050004697598" lon="10.368991445726504"><ele>38.0</ele><time>2026-04-10T16:31:39Z</time></trkpt><trkpt lat="44.830604875333606" lon="10.368713384164018"><ele>38.0</ele><time>2026-04-10T16:31:40Z</time></trkpt><trkpt lat="44.83070780588161" lon="10.368438084578681"><ele>38.0</ele><time>2026-04-10T16:31:41Z</time></trkpt><trkpt lat="44.83081228534862" lon="10.368153082182475"><ele>37.0</ele><time>2026-04-10T16:31:42Z</time></trkpt><trkpt lat="44.83092172426873" lon="10.367864813872734"><ele>36.0</ele><time>2026-04-10T16:31:43Z</time></trkpt><trkpt lat="44.83102735399186" lon="10.367582364909687"><ele>35.0</ele><time>2026-04-10T16:31:44Z</time></trkpt><trkpt lat="44.831135688529024" lon="10.367287928441643"><ele>34.0</ele><time>2026-04-10T16:31:45Z</time></trkpt><trkpt lat="44.8312428123623" lon="10.366988546098337"><ele>34.0</ele><time>2026-04-10T16:31:46Z</time></trkpt><trkpt lat="44.83135391352595" lon="10.36669118631999"><ele>34.0</ele><time>2026-04-10T16:31:47.001Z</time></trkpt><trkpt lat="44.83146725930706" lon="10.366390191813291"><ele>33.0</ele><time>2026-04-10T16:31:48.001Z</time></trkpt><trkpt lat="44.83157924301365" lon="10.366081912465798"><ele>32.0</ele><time>2026-04-10T16:31:49.001Z</time></trkpt><trkpt lat="44.831690876136015" lon="10.365773248890832"><ele>34.0</ele><time>2026-04-10T16:31:50.001Z</time></trkpt><trkpt lat="44.83180664842144" lon="10.365464676337819"><ele>36.0</ele><time>2026-04-10T16:31:51.001Z</time></trkpt><trkpt lat="44.83192093038692" lon="10.36515488557426"><ele>36.0</ele><time>2026-04-10T16:31:52.001Z</time></trkpt><trkpt lat="44.832040758335786" lon="10.364841938677774"><ele>36.0</ele><time>2026-04-10T16:31:53.001Z</time></trkpt><trkpt lat="44.83215623159306" lon="10.364527321072273"><ele>35.0</ele><time>2026-04-10T16:31:54.001Z</time></trkpt><trkpt lat="44.832275873479276" lon="10.364212056791478"><ele>34.0</ele><time>2026-04-10T16:31:55.001Z</time></trkpt><trkpt lat="44.83239310655004" lon="10.363893214741363"><ele>34.0</ele><time>2026-04-10T16:31:56.001Z</time></trkpt><trkpt lat="44.832511415565044" lon="10.363573445195422"><ele>34.0</ele><time>2026-04-10T16:31:57Z</time></trkpt><trkpt lat="44.832629749234776" lon="10.363255441207466"><ele>34.5</ele><time>2026-04-10T16:31:58Z</time></trkpt><trkpt lat="44.83274894422374" lon="10.36293600747152"><ele>35.0</ele><time>2026-04-10T16:31:59Z</time></trkpt><trkpt lat="44.832869592477444" lon="10.362617305924328"><ele>35.0</ele><time>2026-04-10T16:32:00Z</time></trkpt><trkpt lat="44.832988398966855" lon="10.362298721625075"><ele>35.0</ele><time>2026-04-10T16:32:01Z</time></trkpt><trkpt lat="44.83310739741274" lon="10.361981024433428"><ele>34.5</ele><time>2026-04-10T16:32:02Z</time></trkpt><trkpt lat="44.83322405827951" lon="10.361665088091458"><ele>34.0</ele><time>2026-04-10T16:32:03Z</time></trkpt><trkpt lat="44.83333951713801" lon="10.361350774108228"><ele>35.5</ele><time>2026-04-10T16:32:04Z</time></trkpt><trkpt lat="44.83345299209947" lon="10.361035935977192"><ele>37.0</ele><time>2026-04-10T16:32:05Z</time></trkpt><trkpt lat="44.833568336940445" lon="10.360722364497148"><ele>38.0</ele><time>2026-04-10T16:32:06Z</time></trkpt><trkpt lat="44.83368447837071" lon="10.360412836043277"><ele>39.0</ele><time>2026-04-10T16:32:07Z</time></trkpt><trkpt lat="44.83380214621863" lon="10.360104911449245"><ele>39.0</ele><time>2026-04-10T16:32:08Z</time></trkpt><trkpt lat="44.83391892833031" lon="10.35979555492228"><ele>39.0</ele><time>2026-04-10T16:32:09Z</time></trkpt><trkpt lat="44.834037372555365" lon="10.35948695305712"><ele>41.0</ele><time>2026-04-10T16:32:10Z</time></trkpt><trkpt lat="44.83991160278062" lon="10.339255108384956"><ele>41.0</ele><time>2026-04-10T16:33:11Z</time></trkpt><trkpt lat="44.839986216443414" lon="10.338922848740793"><ele>41.0</ele><time>2026-04-10T16:33:12Z</time></trkpt><trkpt lat="44.84007188729589" lon="10.338586941059198"><ele>39.5</ele><time>2026-04-10T16:33:13Z</time></trkpt><trkpt lat="44.8401488358497" lon="10.338252438916287"><ele>38.0</ele><time>2026-04-10T16:33:14Z</time></trkpt><trkpt lat="44.84022717904117" lon="10.33791672009312"><ele>38.0</ele><time>2026-04-10T16:33:15Z</time></trkpt><trkpt lat="44.84030758745337" lon="10.337583442646183"><ele>38.0</ele><time>2026-04-10T16:33:16Z</time></trkpt><trkpt lat="44.84038786875405" lon="10.337250850796412"><ele>38.0</ele><time>2026-04-10T16:33:17Z</time></trkpt><trkpt lat="44.84047103007157" lon="10.336925030339113"><ele>38.0</ele><time>2026-04-10T16:33:18Z</time></trkpt><trkpt lat="44.840553468033264" lon="10.336591960125876"><ele>37.5</ele><time>2026-04-10T16:33:19Z</time></trkpt><trkpt lat="44.84062918764626" lon="10.3362623868439"><ele>37.0</ele><time>2026-04-10T16:33:20Z</time></trkpt><trkpt lat="44.84071270620388" lon="10.335931883268888"><ele>37.0</ele><time>2026-04-10T16:33:21Z</time></trkpt><trkpt lat="44.84079090393426" lon="10.335597699525358"><ele>37.0</ele><time>2026-04-10T16:33:22Z</time></trkpt><trkpt lat="44.84086708059207" lon="10.335270715422888"><ele>37.0</ele><time>2026-04-10T16:33:23Z</time></trkpt><trkpt lat="44.8409509519872" lon="10.334936653462385"><ele>37.0</ele><time>2026-04-10T16:33:24Z</time></trkpt><trkpt lat="44.84102626437661" lon="10.334607316344107"><ele>38.0</ele><time>2026-04-10T16:33:25Z</time></trkpt><trkpt lat="44.84110870373729" lon="10.334277660476177"><ele>39.0</ele><time>2026-04-10T16:33:26Z</time></trkpt><trkpt lat="44.84118816533133" lon="10.333945160893807"><ele>39.5</ele><time>2026-04-10T16:33:27Z</time></trkpt><trkpt lat="44.84126586900061" lon="10.333609773598605"><ele>40.0</ele><time>2026-04-10T16:33:28Z</time></trkpt><trkpt lat="44.84134560248444" lon="10.333274161205516"><ele>39.0</ele><time>2026-04-10T16:33:29Z</time></trkpt><trkpt lat="44.841429872940374" lon="10.332944088125316"><ele>38.0</ele><time>2026-04-10T16:33:30Z</time></trkpt><trkpt lat="44.841507979920735" lon="10.332610322653018"><ele>38.0</ele><time>2026-04-10T16:33:31Z</time></trkpt><trkpt lat="44.841590429209056" lon="10.332273933413274"><ele>38.0</ele><time>2026-04-10T16:33:32Z</time></trkpt><trkpt lat="44.8416775824729" lon="10.33194647244438"><ele>38.0</ele><time>2026-04-10T16:33:33Z</time></trkpt><trkpt lat="44.8417603792224" lon="10.331615900470352"><ele>38.0</ele><time>2026-04-10T16:33:34Z</time></trkpt><trkpt lat="44.84183786511012" lon="10.331280868931296"><ele>38.0</ele><time>2026-04-10T16:33:35Z</time></trkpt><trkpt lat="44.84191716183182" lon="10.330946492624017"><ele>38.0</ele><time>2026-04-10T16:33:36Z</time></trkpt><trkpt lat="44.84199728235029" lon="10.330611189152917"><ele>37.5</ele><time>2026-04-10T16:33:37Z</time></trkpt><trkpt lat="44.842076662615845" lon="10.330277964882471"><ele>37.0</ele><time>2026-04-10T16:33:38Z</time></trkpt><trkpt lat="44.84215831357595" lon="10.329943764910363"><ele>37.5</ele><time>2026-04-10T16:33:39Z</time></trkpt><trkpt lat="44.84224039793188" lon="10.329612403061828"><ele>38.0</ele><time>2026-04-10T16:33:40Z</time></trkpt><trkpt lat="44.84231713134168" lon="10.329282461135415"><ele>38.0</ele><time>2026-04-10T16:33:41Z</time></trkpt><trkpt lat="44.8423953394549" lon="10.328950345553523"><ele>38.0</ele><time>2026-04-10T16:33:42Z</time></trkpt><trkpt lat="44.842476981397944" lon="10.328620421574607"><ele>39.0</ele><time>2026-04-10T16:33:43Z</time></trkpt><trkpt lat="44.84255130382951" lon="10.328301815875003"><ele>40.0</ele><time>2026-04-10T16:33:44Z</time></trkpt><trkpt lat="44.842627293810295" lon="10.327991640845422"><ele>39.5</ele><time>2026-04-10T16:33:45Z</time></trkpt><trkpt lat="44.84270172177612" lon="10.327684879767338"><ele>39.0</ele><time>2026-04-10T16:33:46Z</time></trkpt><trkpt lat="44.84277146905011" lon="10.327381191022171"><ele>39.0</ele><time>2026-04-10T16:33:47Z</time></trkpt><trkpt lat="44.84284446863503" lon="10.327076071236382"><ele>39.0</ele><time>2026-04-10T16:33:48Z</time></trkpt><trkpt lat="44.84291870435013" lon="10.326767863498986"><ele>39.0</ele><time>2026-04-10T16:33:49Z</time></trkpt><trkpt lat="44.84299191861231" lon="10.326445584965276"><ele>39.0</ele><time>2026-04-10T16:33:50Z</time></trkpt><trkpt lat="44.84306632557486" lon="10.326111277153732"><ele>39.0</ele><time>2026-04-10T16:33:51Z</time></trkpt><trkpt lat="44.84314059300155" lon="10.32577128115223"><ele>39.0</ele><time>2026-04-10T16:33:52Z</time></trkpt><trkpt lat="44.84321597599328" lon="10.325435825270427"><ele>39.0</ele><time>2026-04-10T16:33:53Z</time></trkpt><trkpt lat="44.84329220316615" lon="10.325088695521497"><ele>39.0</ele><time>2026-04-10T16:33:54Z</time></trkpt><trkpt lat="44.84337160714923" lon="10.324748105179404"><ele>39.0</ele><time>2026-04-10T16:33:55Z</time></trkpt><trkpt lat="44.843453714845694" lon="10.32440193400265"><ele>39.0</ele><time>2026-04-10T16:33:56Z</time></trkpt><trkpt lat="44.84354164695762" lon="10.324057038004305"><ele>40.0</ele><time>2026-04-10T16:33:57Z</time></trkpt><trkpt lat="44.84362675309465" lon="10.323715302747912"><ele>41.0</ele><time>2026-04-10T16:33:58Z</time></trkpt><trkpt lat="44.8437068725216" lon="10.323373512746729"><ele>42.0</ele><time>2026-04-10T16:33:59Z</time></trkpt><trkpt lat="44.843792675082895" lon="10.323035187768136"><ele>43.0</ele><time>2026-04-10T16:34:00Z</time></trkpt><trkpt lat="44.843876584082956" lon="10.322686540043618"><ele>43.0</ele><time>2026-04-10T16:34:01Z</time></trkpt><trkpt lat="44.84395948606278" lon="10.322338073017198"><ele>43.0</ele><time>2026-04-10T16:34:02Z</time></trkpt><trkpt lat="44.84404038304305" lon="10.321997119757757"><ele>42.0</ele><time>2026-04-10T16:34:03Z</time></trkpt><trkpt lat="44.844120175638295" lon="10.321654408329563"><ele>41.0</ele><time>2026-04-10T16:34:04Z</time></trkpt><trkpt lat="44.84419620657152" lon="10.321310350815333"><ele>41.0</ele><time>2026-04-10T16:34:05Z</time></trkpt><trkpt lat="44.84427301372243" lon="10.320968248458094"><ele>41.0</ele><time>2026-04-10T16:34:06Z</time></trkpt><trkpt lat="44.844354542453175" lon="10.320635473475239"><ele>40.5</ele><time>2026-04-10T16:34:07Z</time></trkpt><trkpt lat="44.84443608962935" lon="10.320302783778578"><ele>40.0</ele><time>2026-04-10T16:34:08Z</time></trkpt><trkpt lat="44.84451616656512" lon="10.319974486490077"><ele>40.0</ele><time>2026-04-10T16:34:09Z</time></trkpt><trkpt lat="44.84459621070646" lon="10.3196505383451"><ele>40.0</ele><time>2026-04-10T16:34:10Z</time></trkpt><trkpt lat="44.849540255985275" lon="10.299059130479426"><ele>39.5</ele><time>2026-04-10T16:35:11Z</time></trkpt><trkpt lat="44.84962430705171" lon="10.298738741034997"><ele>39.0</ele><time>2026-04-10T16:35:12Z</time></trkpt><trkpt lat="44.84969919627142" lon="10.298415983560023"><ele>39.0</ele><time>2026-04-10T16:35:13Z</time></trkpt><trkpt lat="44.84977250200285" lon="10.298099663131191"><ele>39.0</ele><time>2026-04-10T16:35:14Z</time></trkpt><trkpt lat="44.8498459628802" lon="10.297777149022469"><ele>38.5</ele><time>2026-04-10T16:35:15Z</time></trkpt><trkpt lat="44.849925120243036" lon="10.297458617895929"><ele>38.0</ele><time>2026-04-10T16:35:16Z</time></trkpt><trkpt lat="44.85000107574179" lon="10.297142760071043"><ele>37.5</ele><time>2026-04-10T16:35:17Z</time></trkpt><trkpt lat="44.850078221393936" lon="10.296823254717719"><ele>37.0</ele><time>2026-04-10T16:35:18Z</time></trkpt><trkpt lat="44.85015724614467" lon="10.296507224455329"><ele>38.0</ele><time>2026-04-10T16:35:19Z</time></trkpt><trkpt lat="44.85023270089218" lon="10.296186431601729"><ele>39.0</ele><time>2026-04-10T16:35:20Z</time></trkpt><trkpt lat="44.850309540917756" lon="10.29587004986236"><ele>38.5</ele><time>2026-04-10T16:35:21Z</time></trkpt><trkpt lat="44.85038717917829" lon="10.295555311981017"><ele>38.0</ele><time>2026-04-10T16:35:22Z</time></trkpt><trkpt lat="44.85046072520378" lon="10.295237182432322"><ele>38.0</ele><time>2026-04-10T16:35:23Z</time></trkpt><trkpt lat="44.85053537709446" lon="10.294921515508422"><ele>38.0</ele><time>2026-04-10T16:35:24Z</time></trkpt><trkpt lat="44.850610529597375" lon="10.294597603850015"><ele>38.0</ele><time>2026-04-10T16:35:25Z</time></trkpt><trkpt lat="44.85069102253981" lon="10.294279412146059"><ele>38.0</ele><time>2026-04-10T16:35:26Z</time></trkpt><trkpt lat="44.850770931560945" lon="10.293954169457148"><ele>37.5</ele><time>2026-04-10T16:35:27Z</time></trkpt><trkpt lat="44.850853401422434" lon="10.293633339595958"><ele>37.0</ele><time>2026-04-10T16:35:28Z</time></trkpt><trkpt lat="44.85093585342601" lon="10.29330590580581"><ele>37.0</ele><time>2026-04-10T16:35:29Z</time></trkpt><trkpt lat="44.851022658677515" lon="10.292979604510533"><ele>37.0</ele><time>2026-04-10T16:35:30Z</time></trkpt><trkpt lat="44.85111281375557" lon="10.292650056409594"><ele>37.0</ele><time>2026-04-10T16:35:31Z</time></trkpt><trkpt lat="44.85119776362521" lon="10.292322029749082"><ele>37.0</ele><time>2026-04-10T16:35:32Z</time></trkpt><trkpt lat="44.85127933104481" lon="10.291991821601762"><ele>36.5</ele><time>2026-04-10T16:35:33Z</time></trkpt><trkpt lat="44.851357466510066" lon="10.291660503470672"><ele>36.0</ele><time>2026-04-10T16:35:34Z</time></trkpt><trkpt lat="44.85143847860553" lon="10.291338115336798"><ele>35.5</ele><time>2026-04-10T16:35:35Z</time></trkpt><trkpt lat="44.85151478534513" lon="10.291013687977705"><ele>35.0</ele><time>2026-04-10T16:35:36Z</time></trkpt><trkpt lat="44.85158959398256" lon="10.290694941737023"><ele>36.0</ele><time>2026-04-10T16:35:37Z</time></trkpt><trkpt lat="44.851666307277725" lon="10.290366696248574"><ele>37.0</ele><time>2026-04-10T16:35:38Z</time></trkpt><trkpt lat="44.851739954018484" lon="10.29004894079074"><ele>37.0</ele><time>2026-04-10T16:35:39Z</time></trkpt><trkpt lat="44.8518166335268" lon="10.28972530801489"><ele>37.0</ele><time>2026-04-10T16:35:40Z</time></trkpt><trkpt lat="44.851896218399595" lon="10.289398807029633"><ele>37.0</ele><time>2026-04-10T16:35:41Z</time></trkpt><trkpt lat="44.85197456290105" lon="10.289068597009209"><ele>37.0</ele><time>2026-04-10T16:35:42Z</time></trkpt><trkpt lat="44.852051710303996" lon="10.28874006668797"><ele>36.0</ele><time>2026-04-10T16:35:43Z</time></trkpt><trkpt lat="44.85213471378146" lon="10.288405210016476"><ele>35.0</ele><time>2026-04-10T16:35:44Z</time></trkpt><trkpt lat="44.85221550142254" lon="10.288072641475372"><ele>34.5</ele><time>2026-04-10T16:35:45Z</time></trkpt><trkpt lat="44.85229349546931" lon="10.287739072120822"><ele>34.0</ele><time>2026-04-10T16:35:46Z</time></trkpt><trkpt lat="44.852372839743616" lon="10.28740129568503"><ele>33.5</ele><time>2026-04-10T16:35:47Z</time></trkpt><trkpt lat="44.85245357495161" lon="10.28706335771761"><ele>33.0</ele><time>2026-04-10T16:35:48Z</time></trkpt><trkpt lat="44.85253732842553" lon="10.286727174959912"><ele>33.0</ele><time>2026-04-10T16:35:49Z</time></trkpt><trkpt lat="44.85261874705372" lon="10.286391736870108"><ele>33.0</ele><time>2026-04-10T16:35:50Z</time></trkpt><trkpt lat="44.852703955515196" lon="10.286047227412817"><ele>33.0</ele><time>2026-04-10T16:35:51Z</time></trkpt><trkpt lat="44.852786498099334" lon="10.2857055422676"><ele>33.0</ele><time>2026-04-10T16:35:52Z</time></trkpt><trkpt lat="44.85286824956932" lon="10.285364890936071"><ele>35.0</ele><time>2026-04-10T16:35:53Z</time></trkpt><trkpt lat="44.852948779029866" lon="10.28501446933862"><ele>37.0</ele><time>2026-04-10T16:35:54Z</time></trkpt><trkpt lat="44.85303020883684" lon="10.28467598546855"><ele>38.5</ele><time>2026-04-10T16:35:55Z</time></trkpt><trkpt lat="44.85311312785763" lon="10.284329987145071"><ele>40.0</ele><time>2026-04-10T16:35:56Z</time></trkpt><trkpt lat="44.85320567213085" lon="10.283994432861178"><ele>38.5</ele><time>2026-04-10T16:35:57Z</time></trkpt><trkpt lat="44.85327837847475" lon="10.283647734791215"><ele>37.0</ele><time>2026-04-10T16:35:58Z</time></trkpt><trkpt lat="44.853361652883514" lon="10.283296712969122"><ele>37.5</ele><time>2026-04-10T16:35:59Z</time></trkpt><trkpt lat="44.853443517947625" lon="10.282955955868118"><ele>38.0</ele><time>2026-04-10T16:36:00Z</time></trkpt><trkpt lat="44.85352755551138" lon="10.282615666790877"><ele>37.5</ele><time>2026-04-10T16:36:01Z</time></trkpt><trkpt lat="44.85360026531427" lon="10.28228537607245"><ele>37.0</ele><time>2026-04-10T16:36:02Z</time></trkpt><trkpt lat="44.85368690185311" lon="10.281958406738147"><ele>37.0</ele><time>2026-04-10T16:36:03Z</time></trkpt><trkpt lat="44.85376347311337" lon="10.281633985381102"><ele>37.0</ele><time>2026-04-10T16:36:04Z</time></trkpt><trkpt lat="44.85384208992285" lon="10.281303201281688"><ele>36.5</ele><time>2026-04-10T16:36:05Z</time></trkpt><trkpt lat="44.853919855280814" lon="10.280975075723997"><ele>36.0</ele><time>2026-04-10T16:36:06Z</time></trkpt><trkpt lat="44.853999844476675" lon="10.28064587350271"><ele>36.0</ele><time>2026-04-10T16:36:07Z</time></trkpt><trkpt lat="44.85407074721546" lon="10.280333487888678"><ele>36.0</ele><time>2026-04-10T16:36:08Z</time></trkpt><trkpt lat="44.85413777432155" lon="10.280020519501264"><ele>36.5</ele><time>2026-04-10T16:36:09Z</time></trkpt><trkpt lat="44.854209225457936" lon="10.27969924050704"><ele>37.0</ele><time>2026-04-10T16:36:10Z</time></trkpt><trkpt lat="44.85901403411121" lon="10.259524906543577"><ele>38.5</ele><time>2026-04-10T16:37:11Z</time></trkpt><trkpt lat="44.85909338449989" lon="10.259183785277404"><ele>40.0</ele><time>2026-04-10T16:37:12Z</time></trkpt><trkpt lat="44.859172549650026" lon="10.258843256447353"><ele>40.0</ele><time>2026-04-10T16:37:13Z</time></trkpt><trkpt lat="44.85925721551738" lon="10.25850459522611"><ele>40.0</ele><time>2026-04-10T16:37:14Z</time></trkpt><trkpt lat="44.85933723803286" lon="10.258168987529135"><ele>41.0</ele><time>2026-04-10T16:37:15Z</time></trkpt><trkpt lat="44.859419389938175" lon="10.257832208778478"><ele>42.0</ele><time>2026-04-10T16:37:16Z</time></trkpt><trkpt lat="44.85949555412064" lon="10.257497811944548"><ele>42.0</ele><time>2026-04-10T16:37:17Z</time></trkpt><trkpt lat="44.85957575930317" lon="10.257165593508521"><ele>42.0</ele><time>2026-04-10T16:37:18Z</time></trkpt><trkpt lat="44.85965639750862" lon="10.256834934667282"><ele>42.0</ele><time>2026-04-10T16:37:19Z</time></trkpt><trkpt lat="44.85973210549465" lon="10.256502617682642"><ele>42.0</ele><time>2026-04-10T16:37:20Z</time></trkpt><trkpt lat="44.859815031822" lon="10.256172376269967"><ele>42.0</ele><time>2026-04-10T16:37:21Z</time></trkpt><trkpt lat="44.859891179121796" lon="10.25583928547968"><ele>42.0</ele><time>2026-04-10T16:37:22Z</time></trkpt><trkpt lat="44.85997372256192" lon="10.255509695825465"><ele>42.0</ele><time>2026-04-10T16:37:23Z</time></trkpt><trkpt lat="44.86005439053523" lon="10.255171625652993"><ele>42.0</ele><time>2026-04-10T16:37:24Z</time></trkpt><trkpt lat="44.860130754421704" lon="10.254848987172954"><ele>41.5</ele><time>2026-04-10T16:37:25Z</time></trkpt><trkpt lat="44.86021252244766" lon="10.254519533664672"><ele>41.0</ele><time>2026-04-10T16:37:26Z</time></trkpt><trkpt lat="44.8602865036584" lon="10.254183630639483"><ele>41.0</ele><time>2026-04-10T16:37:27Z</time></trkpt><trkpt lat="44.860367566373604" lon="10.253851859811405"><ele>41.0</ele><time>2026-04-10T16:37:28Z</time></trkpt><trkpt lat="44.86044467404016" lon="10.253522851232335"><ele>41.0</ele><time>2026-04-10T16:37:29Z</time></trkpt><trkpt lat="44.860526037555125" lon="10.253190278661798"><ele>41.0</ele><time>2026-04-10T16:37:30Z</time></trkpt><trkpt lat="44.86060807986163" lon="10.252858254321945"><ele>41.0</ele><time>2026-04-10T16:37:31Z</time></trkpt><trkpt lat="44.86068342025434" lon="10.252529711984312"><ele>41.0</ele><time>2026-04-10T16:37:32Z</time></trkpt><trkpt lat="44.86076213743791" lon="10.252198038467075"><ele>41.0</ele><time>2026-04-10T16:37:33Z</time></trkpt><trkpt lat="44.860838610030804" lon="10.251869664252936"><ele>41.0</ele><time>2026-04-10T16:37:34Z</time></trkpt><trkpt lat="44.86091615303191" lon="10.25153964419569"><ele>40.5</ele><time>2026-04-10T16:37:35Z</time></trkpt><trkpt lat="44.86099755018447" lon="10.251207960633163"><ele>40.0</ele><time>2026-04-10T16:37:36Z</time></trkpt><trkpt lat="44.86107375696687" lon="10.250882661133907"><ele>41.0</ele><time>2026-04-10T16:37:37Z</time></trkpt><trkpt lat="44.861149302182234" lon="10.250556547743148"><ele>42.0</ele><time>2026-04-10T16:37:38Z</time></trkpt><trkpt lat="44.86122785106097" lon="10.250226805390147"><ele>42.0</ele><time>2026-04-10T16:37:39Z</time></trkpt><trkpt lat="44.86130858218515" lon="10.249898365825297"><ele>42.0</ele><time>2026-04-10T16:37:40Z</time></trkpt><trkpt lat="44.861383480643056" lon="10.249563919419371"><ele>43.5</ele><time>2026-04-10T16:37:41Z</time></trkpt><trkpt lat="44.861459282400354" lon="10.249234604434351"><ele>45.0</ele><time>2026-04-10T16:37:42Z</time></trkpt><trkpt lat="44.86154174639415" lon="10.248902414142385"><ele>45.0</ele><time>2026-04-10T16:37:43Z</time></trkpt><trkpt lat="44.861616380205305" lon="10.248567634147479"><ele>45.0</ele><time>2026-04-10T16:37:44Z</time></trkpt><trkpt lat="44.86169603233408" lon="10.248232918344454"><ele>45.0</ele><time>2026-04-10T16:37:45Z</time></trkpt><trkpt lat="44.861779401166686" lon="10.24789449561999"><ele>45.0</ele><time>2026-04-10T16:37:46Z</time></trkpt><trkpt lat="44.86185871388728" lon="10.247555468422018"><ele>44.5</ele><time>2026-04-10T16:37:47Z</time></trkpt><trkpt lat="44.8619392716426" lon="10.24721578774295"><ele>44.0</ele><time>2026-04-10T16:37:48Z</time></trkpt><trkpt lat="44.862018937146686" lon="10.246875157591859"><ele>44.0</ele><time>2026-04-10T16:37:49Z</time></trkpt><trkpt lat="44.86209857335737" lon="10.246537191692745"><ele>44.0</ele><time>2026-04-10T16:37:50Z</time></trkpt><trkpt lat="44.86218241220144" lon="10.24620114094563"><ele>44.0</ele><time>2026-04-10T16:37:51Z</time></trkpt><trkpt lat="44.86226193447466" lon="10.245865084771154"><ele>44.0</ele><time>2026-04-10T16:37:52Z</time></trkpt><trkpt lat="44.862339709702226" lon="10.24553340474915"><ele>44.5</ele><time>2026-04-10T16:37:53Z</time></trkpt><trkpt lat="44.862422293290535" lon="10.245195270872"><ele>45.0</ele><time>2026-04-10T16:37:54Z</time></trkpt><trkpt lat="44.86250914961118" lon="10.24486178862378"><ele>44.0</ele><time>2026-04-10T16:37:55Z</time></trkpt><trkpt lat="44.862593139900106" lon="10.244529320149582"><ele>43.0</ele><time>2026-04-10T16:37:56Z</time></trkpt><trkpt lat="44.8626720802122" lon="10.24419463814903"><ele>41.5</ele><time>2026-04-10T16:37:57Z</time></trkpt><trkpt lat="44.8627538471324" lon="10.243851599368467"><ele>40.0</ele><time>2026-04-10T16:37:58Z</time></trkpt><trkpt lat="44.862833696363815" lon="10.243519211074169"><ele>40.0</ele><time>2026-04-10T16:37:59Z</time></trkpt><trkpt lat="44.86291555295349" lon="10.243177889169129"><ele>40.0</ele><time>2026-04-10T16:38:00Z</time></trkpt><trkpt lat="44.86299552805453" lon="10.242843623148794"><ele>40.5</ele><time>2026-04-10T16:38:01Z</time></trkpt><trkpt lat="44.86307707718502" lon="10.242505558591919"><ele>41.0</ele><time>2026-04-10T16:38:02Z</time></trkpt><trkpt lat="44.86315646223541" lon="10.242170462054792"><ele>41.0</ele><time>2026-04-10T16:38:03Z</time></trkpt><trkpt lat="44.863236703024434" lon="10.241836698682215"><ele>41.0</ele><time>2026-04-10T16:38:04Z</time></trkpt><trkpt lat="44.86331618827751" lon="10.241496991113626"><ele>41.5</ele><time>2026-04-10T16:38:05Z</time></trkpt><trkpt lat="44.86339646144569" lon="10.241166106758557"><ele>42.0</ele><time>2026-04-10T16:38:06Z</time></trkpt><trkpt lat="44.86347474432951" lon="10.24083047890235"><ele>43.5</ele><time>2026-04-10T16:38:07Z</time></trkpt><trkpt lat="44.86355342070513" lon="10.240497991272317"><ele>45.0</ele><time>2026-04-10T16:38:08Z</time></trkpt><trkpt lat="44.86362857338364" lon="10.240161069499818"><ele>45.0</ele><time>2026-04-10T16:38:09Z</time></trkpt><trkpt lat="44.86370253207618" lon="10.239836316586784"><ele>45.0</ele><time>2026-04-10T16:38:10Z</time></trkpt><trkpt lat="44.86826133203494" lon="10.219648791419944"><ele>44.0</ele><time>2026-04-10T16:39:10.999Z</time></trkpt><trkpt lat="44.86831736245651" lon="10.219310615194068"><ele>43.0</ele><time>2026-04-10T16:39:11.999Z</time></trkpt><trkpt lat="44.86837251102333" lon="10.21897274290221"><ele>43.0</ele><time>2026-04-10T16:39:12.999Z</time></trkpt><trkpt lat="44.86842884476674" lon="10.218634912627314"><ele>43.0</ele><time>2026-04-10T16:39:13.999Z</time></trkpt><trkpt lat="44.86848775273165" lon="10.218296539481683"><ele>43.5</ele><time>2026-04-10T16:39:14.999Z</time></trkpt><trkpt lat="44.86854726604105" lon="10.217957914953613"><ele>44.0</ele><time>2026-04-10T16:39:15.999Z</time></trkpt><trkpt lat="44.86860806549639" lon="10.2176189221648"><ele>43.5</ele><time>2026-04-10T16:39:16.999Z</time></trkpt><trkpt lat="44.86866902484475" lon="10.217281324028628"><ele>43.0</ele><time>2026-04-10T16:39:17.999Z</time></trkpt><trkpt lat="44.86873652407226" lon="10.216944467623739"><ele>43.0</ele><time>2026-04-10T16:39:18.999Z</time></trkpt><trkpt lat="44.868772750839" lon="10.216601710882399"><ele>43.0</ele><time>2026-04-10T16:39:19.999Z</time></trkpt><trkpt lat="44.86880229597028" lon="10.216259270997472"><ele>43.0</ele><time>2026-04-10T16:39:20.999Z</time></trkpt><trkpt lat="44.86889558019147" lon="10.215927073452647"><ele>43.0</ele><time>2026-04-10T16:39:21.999Z</time></trkpt><trkpt lat="44.86895494525759" lon="10.215587197109896"><ele>43.5</ele><time>2026-04-10T16:39:22.999Z</time></trkpt><trkpt lat="44.869010960126495" lon="10.215247449782627"><ele>44.0</ele><time>2026-04-10T16:39:23.999Z</time></trkpt><trkpt lat="44.869066088583814" lon="10.214907717340203"><ele>45.0</ele><time>2026-04-10T16:39:24.999Z</time></trkpt><trkpt lat="44.869120095993125" lon="10.214565773964974"><ele>46.0</ele><time>2026-04-10T16:39:25.999Z</time></trkpt><trkpt lat="44.86917642810858" lon="10.214228554068837"><ele>46.0</ele><time>2026-04-10T16:39:26.999Z</time></trkpt><trkpt lat="44.8692328528429" lon="10.213885108451677"><ele>46.0</ele><time>2026-04-10T16:39:27.999Z</time></trkpt><trkpt lat="44.86929115704522" lon="10.213542032734734"><ele>46.0</ele><time>2026-04-10T16:39:28.999Z</time></trkpt><trkpt lat="44.86935353250596" lon="10.213198338219327"><ele>46.0</ele><time>2026-04-10T16:39:29.999Z</time></trkpt><trkpt lat="44.86941215878851" lon="10.212844231766699"><ele>45.5</ele><time>2026-04-10T16:39:30.999Z</time></trkpt><trkpt lat="44.86946917813917" lon="10.212508672356913"><ele>45.0</ele><time>2026-04-10T16:39:31.999Z</time></trkpt><trkpt lat="44.86953210833429" lon="10.212169698136034"><ele>45.0</ele><time>2026-04-10T16:39:32.999Z</time></trkpt><trkpt lat="44.86959368534158" lon="10.211823788997775"><ele>45.0</ele><time>2026-04-10T16:39:33.999Z</time></trkpt><trkpt lat="44.86964963679449" lon="10.211479277239935"><ele>44.5</ele><time>2026-04-10T16:39:34.999Z</time></trkpt><trkpt lat="44.869708259609546" lon="10.211136505012052"><ele>44.0</ele><time>2026-04-10T16:39:35.999Z</time></trkpt><trkpt lat="44.869766780344825" lon="10.21078981608231"><ele>44.5</ele><time>2026-04-10T16:39:36.999Z</time></trkpt><trkpt lat="44.86982335639154" lon="10.210444493394872"><ele>45.0</ele><time>2026-04-10T16:39:37.999Z</time></trkpt><trkpt lat="44.869881840781005" lon="10.210096122483195"><ele>45.0</ele><time>2026-04-10T16:39:38.999Z</time></trkpt><trkpt lat="44.869939393911814" lon="10.209748291614998"><ele>45.0</ele><time>2026-04-10T16:39:39.999Z</time></trkpt><trkpt lat="44.870000498382176" lon="10.209399786382425"><ele>45.0</ele><time>2026-04-10T16:39:40.999Z</time></trkpt><trkpt lat="44.87005977788511" lon="10.209051649273427"><ele>45.0</ele><time>2026-04-10T16:39:41.999Z</time></trkpt><trkpt lat="44.870120279463094" lon="10.208705502902806"><ele>45.0</ele><time>2026-04-10T16:39:42.999Z</time></trkpt><trkpt lat="44.870181104353584" lon="10.20835478123167"><ele>45.0</ele><time>2026-04-10T16:39:43.999Z</time></trkpt><trkpt lat="44.870238447446276" lon="10.208007449353644"><ele>45.0</ele><time>2026-04-10T16:39:44.999Z</time></trkpt><trkpt lat="44.8702977116135" lon="10.207657435774097"><ele>45.0</ele><time>2026-04-10T16:39:45.999Z</time></trkpt><trkpt lat="44.870355512712386" lon="10.207308539441204"><ele>45.5</ele><time>2026-04-10T16:39:46.999Z</time></trkpt><trkpt lat="44.870415707688224" lon="10.206961755837852"><ele>46.0</ele><time>2026-04-10T16:39:47.999Z</time></trkpt><trkpt lat="44.870475249367225" lon="10.206612428720788"><ele>44.5</ele><time>2026-04-10T16:39:48.999Z</time></trkpt><trkpt lat="44.870537103967834" lon="10.206262635576095"><ele>43.0</ele><time>2026-04-10T16:39:49.999Z</time></trkpt><trkpt lat="44.870592110798015" lon="10.20591475475677"><ele>43.0</ele><time>2026-04-10T16:39:50.999Z</time></trkpt><trkpt lat="44.87065326582989" lon="10.205569984236078"><ele>43.0</ele><time>2026-04-10T16:39:51.999Z</time></trkpt><trkpt lat="44.87070932103572" lon="10.20522256832494"><ele>43.0</ele><time>2026-04-10T16:39:52.999Z</time></trkpt><trkpt lat="44.87076870338194" lon="10.204883746850237"><ele>43.0</ele><time>2026-04-10T16:39:53.999Z</time></trkpt><trkpt lat="44.8708213090622" lon="10.204542995946412"><ele>43.5</ele><time>2026-04-10T16:39:54.999Z</time></trkpt><trkpt lat="44.87088028665615" lon="10.204205509563735"><ele>44.0</ele><time>2026-04-10T16:39:55.999Z</time></trkpt><trkpt lat="44.87093830973651" lon="10.203868244064209"><ele>44.0</ele><time>2026-04-10T16:39:56.999Z</time></trkpt><trkpt lat="44.87099536775605" lon="10.203530158344606"><ele>44.0</ele><time>2026-04-10T16:39:57.999Z</time></trkpt><trkpt lat="44.87104983572628" lon="10.20319200516983"><ele>44.5</ele><time>2026-04-10T16:39:58.999Z</time></trkpt><trkpt lat="44.87110836112869" lon="10.202852437786964"><ele>45.0</ele><time>2026-04-10T16:39:59.999Z</time></trkpt><trkpt lat="44.87117063795949" lon="10.202510347319256"><ele>44.5</ele><time>2026-04-10T16:40:00.999Z</time></trkpt><trkpt lat="44.871231470443355" lon="10.202169554307018"><ele>44.0</ele><time>2026-04-10T16:40:01.999Z</time></trkpt><trkpt lat="44.87129069689656" lon="10.201825475806094"><ele>44.5</ele><time>2026-04-10T16:40:02.999Z</time></trkpt><trkpt lat="44.87135166896929" lon="10.201480819432238"><ele>45.0</ele><time>2026-04-10T16:40:03.999Z</time></trkpt><trkpt lat="44.87140821684582" lon="10.201132841950256"><ele>45.0</ele><time>2026-04-10T16:40:04.999Z</time></trkpt><trkpt lat="44.871466174531726" lon="10.200787063331692"><ele>45.0</ele><time>2026-04-10T16:40:05.999Z</time></trkpt><trkpt lat="44.87151959300671" lon="10.200434380581745"><ele>45.0</ele><time>2026-04-10T16:40:06.999Z</time></trkpt><trkpt lat="44.87157796398361" lon="10.20009094161502"><ele>45.0</ele><time>2026-04-10T16:40:07.999Z</time></trkpt><trkpt lat="44.8716376450304" lon="10.199737399323801"><ele>45.0</ele><time>2026-04-10T16:40:08.999Z</time></trkpt><trkpt lat="44.87169606958848" lon="10.199387982250917"><ele>45.0</ele><time>2026-04-10T16:40:09.999Z</time></trkpt><trkpt lat="44.875208044662166" lon="10.178663168053614"><ele>44.5</ele><time>2026-04-10T16:41:11Z</time></trkpt><trkpt lat="44.87526505715236" lon="10.17832770242587"><ele>44.0</ele><time>2026-04-10T16:41:12Z</time></trkpt><trkpt lat="44.875320587189606" lon="10.177993799176994"><ele>44.0</ele><time>2026-04-10T16:41:13Z</time></trkpt><trkpt lat="44.875377286662975" lon="10.177659501849897"><ele>44.0</ele><time>2026-04-10T16:41:14Z</time></trkpt><trkpt lat="44.875433894857416" lon="10.177324387983674"><ele>44.0</ele><time>2026-04-10T16:41:15Z</time></trkpt><trkpt lat="44.87549177386096" lon="10.176990133748102"><ele>44.0</ele><time>2026-04-10T16:41:16Z</time></trkpt><trkpt lat="44.87554870448345" lon="10.176658958269487"><ele>45.0</ele><time>2026-04-10T16:41:17Z</time></trkpt><trkpt lat="44.87560700054742" lon="10.176327909026396"><ele>46.0</ele><time>2026-04-10T16:41:18Z</time></trkpt><trkpt lat="44.87566303440447" lon="10.17599246783873"><ele>45.5</ele><time>2026-04-10T16:41:19Z</time></trkpt><trkpt lat="44.87571886548578" lon="10.175659206772629"><ele>45.0</ele><time>2026-04-10T16:41:20Z</time></trkpt><trkpt lat="44.87577415307725" lon="10.17532480948828"><ele>45.0</ele><time>2026-04-10T16:41:21Z</time></trkpt><trkpt lat="44.87582955567089" lon="10.174988204254978"><ele>45.0</ele><time>2026-04-10T16:41:22Z</time></trkpt><trkpt lat="44.875886787064736" lon="10.174652955169508"><ele>45.0</ele><time>2026-04-10T16:41:23Z</time></trkpt><trkpt lat="44.8759446815703" lon="10.174318359381216"><ele>45.0</ele><time>2026-04-10T16:41:24Z</time></trkpt><trkpt lat="44.875998166884486" lon="10.173982899759869"><ele>46.5</ele><time>2026-04-10T16:41:25Z</time></trkpt><trkpt lat="44.87605344430741" lon="10.173643929152398"><ele>48.0</ele><time>2026-04-10T16:41:26Z</time></trkpt><trkpt lat="44.876107653662324" lon="10.173305157280325"><ele>48.0</ele><time>2026-04-10T16:41:27Z</time></trkpt><trkpt lat="44.87616661272961" lon="10.172968896306926"><ele>48.0</ele><time>2026-04-10T16:41:28Z</time></trkpt><trkpt lat="44.87622958404826" lon="10.172634530126107"><ele>47.5</ele><time>2026-04-10T16:41:29Z</time></trkpt><trkpt lat="44.8762865152024" lon="10.172300878802071"><ele>47.0</ele><time>2026-04-10T16:41:30Z</time></trkpt><trkpt lat="44.87635341431573" lon="10.171965607947607"><ele>47.0</ele><time>2026-04-10T16:41:31Z</time></trkpt><trkpt lat="44.87640196960512" lon="10.171634083147998"><ele>47.0</ele><time>2026-04-10T16:41:32Z</time></trkpt><trkpt lat="44.876459695123785" lon="10.17129993158721"><ele>46.5</ele><time>2026-04-10T16:41:33Z</time></trkpt><trkpt lat="44.876517060432626" lon="10.170970760117761"><ele>46.0</ele><time>2026-04-10T16:41:34Z</time></trkpt><trkpt lat="44.87657311216681" lon="10.170638833586437"><ele>47.5</ele><time>2026-04-10T16:41:35Z</time></trkpt><trkpt lat="44.87662629353095" lon="10.170307610546569"><ele>49.0</ele><time>2026-04-10T16:41:36Z</time></trkpt><trkpt lat="44.87668152823952" lon="10.169977671580535"><ele>49.5</ele><time>2026-04-10T16:41:37Z</time></trkpt><trkpt lat="44.87674088331738" lon="10.169648196715533"><ele>50.0</ele><time>2026-04-10T16:41:38Z</time></trkpt><trkpt lat="44.876799511676744" lon="10.169319529607499"><ele>50.5</ele><time>2026-04-10T16:41:39Z</time></trkpt><trkpt lat="44.876858457406406" lon="10.16898922723041"><ele>51.0</ele><time>2026-04-10T16:41:40Z</time></trkpt><trkpt lat="44.87691386371398" lon="10.168659968051978"><ele>51.0</ele><time>2026-04-10T16:41:41Z</time></trkpt><trkpt lat="44.87696930343275" lon="10.168326576339416"><ele>51.0</ele><time>2026-04-10T16:41:42Z</time></trkpt><trkpt lat="44.877024006169854" lon="10.167994719352066"><ele>49.0</ele><time>2026-04-10T16:41:43Z</time></trkpt><trkpt lat="44.8770771038502" lon="10.167662726662186"><ele>47.0</ele><time>2026-04-10T16:41:44Z</time></trkpt><trkpt lat="44.877132308906006" lon="10.167332231408293"><ele>46.5</ele><time>2026-04-10T16:41:45Z</time></trkpt><trkpt lat="44.87718706673688" lon="10.16699917332026"><ele>46.0</ele><time>2026-04-10T16:41:46Z</time></trkpt><trkpt lat="44.877242361265544" lon="10.1666651999393"><ele>46.0</ele><time>2026-04-10T16:41:47Z</time></trkpt><trkpt lat="44.87729733510473" lon="10.166329151255253"><ele>46.0</ele><time>2026-04-10T16:41:48Z</time></trkpt><trkpt lat="44.87735180729189" lon="10.165995467963004"><ele>46.0</ele><time>2026-04-10T16:41:49Z</time></trkpt><trkpt lat="44.8774073345964" lon="10.16565993694035"><ele>46.0</ele><time>2026-04-10T16:41:50Z</time></trkpt><trkpt lat="44.877459520741134" lon="10.165323630029798"><ele>46.0</ele><time>2026-04-10T16:41:51Z</time></trkpt><trkpt lat="44.877516724265746" lon="10.164988497823694"><ele>46.0</ele><time>2026-04-10T16:41:52Z</time></trkpt><trkpt lat="44.87757505124889" lon="10.164653676705228"><ele>45.5</ele><time>2026-04-10T16:41:53Z</time></trkpt><trkpt lat="44.87763806188546" lon="10.164316644383726"><ele>45.0</ele><time>2026-04-10T16:41:54Z</time></trkpt><trkpt lat="44.877696085468436" lon="10.163980351467414"><ele>46.0</ele><time>2026-04-10T16:41:55Z</time></trkpt><trkpt lat="44.87775407297588" lon="10.163643210206708"><ele>47.0</ele><time>2026-04-10T16:41:56Z</time></trkpt><trkpt lat="44.87781009604014" lon="10.163307049291586"><ele>47.5</ele><time>2026-04-10T16:41:57Z</time></trkpt><trkpt lat="44.87786399495572" lon="10.16297104128876"><ele>48.0</ele><time>2026-04-10T16:41:58Z</time></trkpt><trkpt lat="44.877919807093775" lon="10.16263393595017"><ele>47.0</ele><time>2026-04-10T16:41:59Z</time></trkpt><trkpt lat="44.877974703236866" lon="10.162305091664155"><ele>46.0</ele><time>2026-04-10T16:42:00Z</time></trkpt><trkpt lat="44.87802711170939" lon="10.161979256645658"><ele>46.0</ele><time>2026-04-10T16:42:01Z</time></trkpt><trkpt lat="44.87808360776426" lon="10.161651846679103"><ele>46.0</ele><time>2026-04-10T16:42:02Z</time></trkpt><trkpt lat="44.87814001273274" lon="10.161328680286072"><ele>46.0</ele><time>2026-04-10T16:42:03Z</time></trkpt><trkpt lat="44.87819848591609" lon="10.161007754667427"><ele>46.0</ele><time>2026-04-10T16:42:04Z</time></trkpt><trkpt lat="44.8782603276143" lon="10.1606924073062"><ele>46.0</ele><time>2026-04-10T16:42:05Z</time></trkpt><trkpt lat="44.87830910209221" lon="10.160365036723121"><ele>46.0</ele><time>2026-04-10T16:42:06Z</time></trkpt><trkpt lat="44.87836585322592" lon="10.160047126987367"><ele>46.0</ele><time>2026-04-10T16:42:07Z</time></trkpt><trkpt lat="44.87841427473977" lon="10.159716566963779"><ele>46.0</ele><time>2026-04-10T16:42:08Z</time></trkpt><trkpt lat="44.8784647013262" lon="10.159387535422988"><ele>46.0</ele><time>2026-04-10T16:42:09Z</time></trkpt><trkpt lat="44.87851562330048" lon="10.159063771348425"><ele>46.0</ele><time>2026-04-10T16:42:10Z</time></trkpt><trkpt lat="44.881655884425314" lon="10.140042124962324"><ele>47.0</ele><time>2026-04-10T16:43:11Z</time></trkpt><trkpt lat="44.88170143116207" lon="10.139734214533483"><ele>48.0</ele><time>2026-04-10T16:43:12Z</time></trkpt><trkpt lat="44.88174905832416" lon="10.139426788636166"><ele>49.0</ele><time>2026-04-10T16:43:13Z</time></trkpt><trkpt lat="44.881795682511175" lon="10.139117095088489"><ele>49.5</ele><time>2026-04-10T16:43:14Z</time></trkpt><trkpt lat="44.88184336890405" lon="10.13880310627851"><ele>50.0</ele><time>2026-04-10T16:43:15Z</time></trkpt><trkpt lat="44.881891657109946" lon="10.138487160030612"><ele>49.5</ele><time>2026-04-10T16:43:16Z</time></trkpt><trkpt lat="44.88194178999304" lon="10.13817084219687"><ele>49.0</ele><time>2026-04-10T16:43:17Z</time></trkpt><trkpt lat="44.8819896525243" lon="10.13785320284862"><ele>49.0</ele><time>2026-04-10T16:43:18Z</time></trkpt><trkpt lat="44.882036047399026" lon="10.137542142609083"><ele>49.0</ele><time>2026-04-10T16:43:19Z</time></trkpt><trkpt lat="44.88208390068262" lon="10.137232509777668"><ele>49.5</ele><time>2026-04-10T16:43:20Z</time></trkpt><trkpt lat="44.88213247019517" lon="10.136919110230282"><ele>50.0</ele><time>2026-04-10T16:43:21Z</time></trkpt><trkpt lat="44.8821794057692" lon="10.136602096999473"><ele>50.5</ele><time>2026-04-10T16:43:22Z</time></trkpt><trkpt lat="44.88222299163011" lon="10.13628515173175"><ele>51.0</ele><time>2026-04-10T16:43:23Z</time></trkpt><trkpt lat="44.882273527884855" lon="10.135966265378249"><ele>50.5</ele><time>2026-04-10T16:43:24Z</time></trkpt><trkpt lat="44.88232177755112" lon="10.135646486705872"><ele>50.0</ele><time>2026-04-10T16:43:25Z</time></trkpt><trkpt lat="44.88236932161226" lon="10.135323604279076"><ele>50.0</ele><time>2026-04-10T16:43:26Z</time></trkpt><trkpt lat="44.882419476587756" lon="10.135002669269678"><ele>50.0</ele><time>2026-04-10T16:43:27Z</time></trkpt><trkpt lat="44.882467064368306" lon="10.13468484780181"><ele>50.5</ele><time>2026-04-10T16:43:28Z</time></trkpt><trkpt lat="44.882512741627906" lon="10.134369995766896"><ele>51.0</ele><time>2026-04-10T16:43:29Z</time></trkpt><trkpt lat="44.88256313925732" lon="10.134057334558474"><ele>51.0</ele><time>2026-04-10T16:43:30Z</time></trkpt><trkpt lat="44.8826112403319" lon="10.133743014909502"><ele>51.0</ele><time>2026-04-10T16:43:31Z</time></trkpt><trkpt lat="44.882661847841625" lon="10.133423784221362"><ele>51.5</ele><time>2026-04-10T16:43:32Z</time></trkpt><trkpt lat="44.88271145486084" lon="10.133103602806207"><ele>52.0</ele><time>2026-04-10T16:43:33Z</time></trkpt><trkpt lat="44.88275346187641" lon="10.132797474718524"><ele>52.0</ele><time>2026-04-10T16:43:34Z</time></trkpt><trkpt lat="44.88280618774426" lon="10.132497995044755"><ele>52.0</ele><time>2026-04-10T16:43:35Z</time></trkpt><trkpt lat="44.88285649441048" lon="10.132186245804894"><ele>52.0</ele><time>2026-04-10T16:43:36Z</time></trkpt><trkpt lat="44.88291210308818" lon="10.131868378728413"><ele>50.5</ele><time>2026-04-10T16:43:37Z</time></trkpt><trkpt lat="44.882950473343406" lon="10.131551816830155"><ele>49.0</ele><time>2026-04-10T16:43:38Z</time></trkpt><trkpt lat="44.88299661516797" lon="10.131236837444801"><ele>49.0</ele><time>2026-04-10T16:43:39Z</time></trkpt><trkpt lat="44.88304283921862" lon="10.130929187493255"><ele>49.0</ele><time>2026-04-10T16:43:40Z</time></trkpt><trkpt lat="44.883087399491046" lon="10.130625170957217"><ele>49.0</ele><time>2026-04-10T16:43:41Z</time></trkpt><trkpt lat="44.88313664101216" lon="10.130325157371633"><ele>48.666666666666664</ele><time>2026-04-10T16:43:42Z</time></trkpt><trkpt lat="44.88318247621155" lon="10.130026058658837"><ele>48.33333333333333</ele><time>2026-04-10T16:43:43Z</time></trkpt><trkpt lat="44.88322805224271" lon="10.129728692467781"><ele>48.0</ele><time>2026-04-10T16:43:44Z</time></trkpt><trkpt lat="44.88327540840186" lon="10.129432606612253"><ele>48.66666666666667</ele><time>2026-04-10T16:43:45Z</time></trkpt><trkpt lat="44.88332270688732" lon="10.12912901487107"><ele>49.333333333333336</ele><time>2026-04-10T16:43:46Z</time></trkpt><trkpt lat="44.88336818383473" lon="10.128823416873"><ele>50.0</ele><time>2026-04-10T16:43:47Z</time></trkpt><trkpt lat="44.88341362964343" lon="10.128518629529403"><ele>51.0</ele><time>2026-04-10T16:43:48Z</time></trkpt><trkpt lat="44.883462154777135" lon="10.128208202378342"><ele>52.0</ele><time>2026-04-10T16:43:49Z</time></trkpt><trkpt lat="44.88350682756716" lon="10.127895973318243"><ele>52.0</ele><time>2026-04-10T16:43:50Z</time></trkpt><trkpt lat="44.883549717930144" lon="10.12758211035568"><ele>52.0</ele><time>2026-04-10T16:43:51Z</time></trkpt><trkpt lat="44.88359740801558" lon="10.127264656067833"><ele>52.0</ele><time>2026-04-10T16:43:52Z</time></trkpt><trkpt lat="44.88364885120066" lon="10.126946359122865"><ele>52.0</ele><time>2026-04-10T16:43:53Z</time></trkpt><trkpt lat="44.883698079999135" lon="10.126631768795015"><ele>52.0</ele><time>2026-04-10T16:43:54Z</time></trkpt><trkpt lat="44.88374841314575" lon="10.126319119173864"><ele>52.0</ele><time>2026-04-10T16:43:55Z</time></trkpt><trkpt lat="44.8837953403749" lon="10.1260064826056"><ele>52.5</ele><time>2026-04-10T16:43:56Z</time></trkpt><trkpt lat="44.88384407697922" lon="10.125695113489053"><ele>53.0</ele><time>2026-04-10T16:43:57Z</time></trkpt><trkpt lat="44.88388999867143" lon="10.125386163082585"><ele>53.0</ele><time>2026-04-10T16:43:58Z</time></trkpt><trkpt lat="44.88393653124608" lon="10.125070708632775"><ele>53.0</ele><time>2026-04-10T16:43:59Z</time></trkpt><trkpt lat="44.88398576364931" lon="10.124756050071513"><ele>53.0</ele><time>2026-04-10T16:44:00Z</time></trkpt><trkpt lat="44.88403346081826" lon="10.12443573732935"><ele>53.0</ele><time>2026-04-10T16:44:01Z</time></trkpt><trkpt lat="44.88407672014021" lon="10.124123777154756"><ele>52.5</ele><time>2026-04-10T16:44:02Z</time></trkpt><trkpt lat="44.884123542497235" lon="10.123807935927653"><ele>52.0</ele><time>2026-04-10T16:44:03Z</time></trkpt><trkpt lat="44.88417548167638" lon="10.123485908096056"><ele>53.0</ele><time>2026-04-10T16:44:04Z</time></trkpt><trkpt lat="44.884226217172255" lon="10.123163162659944"><ele>54.0</ele><time>2026-04-10T16:44:05Z</time></trkpt><trkpt lat="44.88427383642487" lon="10.12283971641631"><ele>54.0</ele><time>2026-04-10T16:44:06Z</time></trkpt><trkpt lat="44.88432291110648" lon="10.122532043688548"><ele>54.0</ele><time>2026-04-10T16:44:07Z</time></trkpt><trkpt lat="44.884371869396" lon="10.12221683458332"><ele>54.5</ele><time>2026-04-10T16:44:08Z</time></trkpt><trkpt lat="44.88441747459484" lon="10.1218973262217"><ele>55.0</ele><time>2026-04-10T16:44:09Z</time></trkpt><trkpt lat="44.88446624093084" lon="10.1215753457643"><ele>54.0</ele><time>2026-04-10T16:44:10Z</time></trkpt><trkpt lat="44.88771711002303" lon="10.100434924510797"><ele>54.0</ele><time>2026-04-10T16:45:11Z</time></trkpt><trkpt lat="44.8877709684608" lon="10.100074542067423"><ele>54.0</ele><time>2026-04-10T16:45:12Z</time></trkpt><trkpt lat="44.88782730657364" lon="10.09971685690857"><ele>54.5</ele><time>2026-04-10T16:45:13Z</time></trkpt><trkpt lat="44.88788381448618" lon="10.099357177686386"><ele>55.0</ele><time>2026-04-10T16:45:14Z</time></trkpt><trkpt lat="44.88793764002741" lon="10.098996064348349"><ele>55.0</ele><time>2026-04-10T16:45:15Z</time></trkpt><trkpt lat="44.88799032114303" lon="10.098634203659289"><ele>55.0</ele><time>2026-04-10T16:45:16Z</time></trkpt><trkpt lat="44.88804660574314" lon="10.098268228417439"><ele>55.0</ele><time>2026-04-10T16:45:17Z</time></trkpt><trkpt lat="44.88809953335332" lon="10.097906731326246"><ele>55.0</ele><time>2026-04-10T16:45:18Z</time></trkpt><trkpt lat="44.888152028573046" lon="10.097544339979475"><ele>55.0</ele><time>2026-04-10T16:45:19Z</time></trkpt><trkpt lat="44.888205670061666" lon="10.097176760916415"><ele>55.0</ele><time>2026-04-10T16:45:20Z</time></trkpt><trkpt lat="44.888262169378564" lon="10.096815265325711"><ele>54.5</ele><time>2026-04-10T16:45:21Z</time></trkpt><trkpt lat="44.888314256452446" lon="10.096450951081707"><ele>54.0</ele><time>2026-04-10T16:45:22Z</time></trkpt><trkpt lat="44.88836936482184" lon="10.096087898757048"><ele>54.5</ele><time>2026-04-10T16:45:23Z</time></trkpt><trkpt lat="44.888426817871775" lon="10.095735591120484"><ele>55.0</ele><time>2026-04-10T16:45:24Z</time></trkpt><trkpt lat="44.888474919501974" lon="10.095385348341438"><ele>55.0</ele><time>2026-04-10T16:45:25Z</time></trkpt><trkpt lat="44.8885324072174" lon="10.095029434158446"><ele>55.0</ele><time>2026-04-10T16:45:26Z</time></trkpt><trkpt lat="44.888587379841304" lon="10.094678237119355"><ele>54.5</ele><time>2026-04-10T16:45:27Z</time></trkpt><trkpt lat="44.88864278364891" lon="10.094319627787485"><ele>54.0</ele><time>2026-04-10T16:45:28Z</time></trkpt><trkpt lat="44.888695768658756" lon="10.09396425651477"><ele>55.0</ele><time>2026-04-10T16:45:29Z</time></trkpt><trkpt lat="44.88875085024135" lon="10.093609842925614"><ele>56.0</ele><time>2026-04-10T16:45:30Z</time></trkpt><trkpt lat="44.8888010695697" lon="10.093256029980692"><ele>56.0</ele><time>2026-04-10T16:45:31Z</time></trkpt><trkpt lat="44.888858654219455" lon="10.09289770225677"><ele>56.0</ele><time>2026-04-10T16:45:32Z</time></trkpt><trkpt lat="44.88891462605862" lon="10.092539727220919"><ele>56.0</ele><time>2026-04-10T16:45:33Z</time></trkpt><trkpt lat="44.88896719307859" lon="10.092182062768442"><ele>56.0</ele><time>2026-04-10T16:45:34Z</time></trkpt><trkpt lat="44.88902071953679" lon="10.091825779475156"><ele>56.5</ele><time>2026-04-10T16:45:35Z</time></trkpt><trkpt lat="44.889076260442195" lon="10.091470039689236"><ele>57.0</ele><time>2026-04-10T16:45:36Z</time></trkpt><trkpt lat="44.889131945426435" lon="10.091113668191268"><ele>57.0</ele><time>2026-04-10T16:45:37Z</time></trkpt><trkpt lat="44.889186256971726" lon="10.090760340415573"><ele>57.0</ele><time>2026-04-10T16:45:38Z</time></trkpt><trkpt lat="44.88923969924588" lon="10.090411894840756"><ele>56.5</ele><time>2026-04-10T16:45:39Z</time></trkpt><trkpt lat="44.88929023400764" lon="10.090064522708973"><ele>56.0</ele><time>2026-04-10T16:45:40Z</time></trkpt><trkpt lat="44.88934852836244" lon="10.089726545588725"><ele>56.0</ele><time>2026-04-10T16:45:41Z</time></trkpt><trkpt lat="44.88939908511924" lon="10.089385258328512"><ele>56.0</ele><time>2026-04-10T16:45:42Z</time></trkpt><trkpt lat="44.88944887621834" lon="10.089051357657654"><ele>57.0</ele><time>2026-04-10T16:45:43Z</time></trkpt><trkpt lat="44.88949733947314" lon="10.088723843394513"><ele>58.0</ele><time>2026-04-10T16:45:44Z</time></trkpt><trkpt lat="44.88954675655918" lon="10.08840819218395"><ele>58.0</ele><time>2026-04-10T16:45:45Z</time></trkpt><trkpt lat="44.88958442157642" lon="10.08809373495932"><ele>58.0</ele><time>2026-04-10T16:45:46Z</time></trkpt><trkpt lat="44.88963187538911" lon="10.087783444204092"><ele>58.0</ele><time>2026-04-10T16:45:47Z</time></trkpt><trkpt lat="44.8896802446898" lon="10.087474052013267"><ele>58.0</ele><time>2026-04-10T16:45:48Z</time></trkpt><trkpt lat="44.889727752508236" lon="10.087166917959067"><ele>58.0</ele><time>2026-04-10T16:45:49Z</time></trkpt><trkpt lat="44.889772178233066" lon="10.086865683534786"><ele>57.33333333333333</ele><time>2026-04-10T16:45:50Z</time></trkpt><trkpt lat="44.88981920030033" lon="10.086557444453643"><ele>56.66666666666667</ele><time>2026-04-10T16:45:51Z</time></trkpt><trkpt lat="44.88986820138285" lon="10.086250127687203"><ele>56.0</ele><time>2026-04-10T16:45:52Z</time></trkpt><trkpt lat="44.88991632291229" lon="10.085938158895514"><ele>57.0</ele><time>2026-04-10T16:45:53Z</time></trkpt><trkpt lat="44.88996518048312" lon="10.085622289275296"><ele>58.0</ele><time>2026-04-10T16:45:54Z</time></trkpt><trkpt lat="44.8900141172847" lon="10.085307163963138"><ele>58.0</ele><time>2026-04-10T16:45:55Z</time></trkpt><trkpt lat="44.89006321879879" lon="10.084986089239386"><ele>58.0</ele><time>2026-04-10T16:45:56Z</time></trkpt><trkpt lat="44.890112711494005" lon="10.0846643540449"><ele>58.0</ele><time>2026-04-10T16:45:57Z</time></trkpt><trkpt lat="44.890163639147815" lon="10.084352805213715"><ele>58.0</ele><time>2026-04-10T16:45:58Z</time></trkpt><trkpt lat="44.89020857137235" lon="10.084047814803766"><ele>58.0</ele><time>2026-04-10T16:45:59Z</time></trkpt><trkpt lat="44.8902546033162" lon="10.083740614277835"><ele>58.0</ele><time>2026-04-10T16:46:00Z</time></trkpt><trkpt lat="44.89029955745329" lon="10.083432710276684"><ele>58.0</ele><time>2026-04-10T16:46:01Z</time></trkpt><trkpt lat="44.89034626738748" lon="10.083119316805432"><ele>57.0</ele><time>2026-04-10T16:46:02Z</time></trkpt><trkpt lat="44.89039162209248" lon="10.082802489887442"><ele>56.0</ele><time>2026-04-10T16:46:03Z</time></trkpt><trkpt lat="44.890439443284606" lon="10.082486289256423"><ele>56.0</ele><time>2026-04-10T16:46:04Z</time></trkpt><trkpt lat="44.89049067028077" lon="10.08217337680982"><ele>56.0</ele><time>2026-04-10T16:46:05Z</time></trkpt><trkpt lat="44.89053525158694" lon="10.081866172030248"><ele>56.333333333333336</ele><time>2026-04-10T16:46:06Z</time></trkpt><trkpt lat="44.89058254126164" lon="10.081565017341859"><ele>56.66666666666667</ele><time>2026-04-10T16:46:07Z</time></trkpt><trkpt lat="44.89062972187866" lon="10.081272994054771"><ele>57.0</ele><time>2026-04-10T16:46:08Z</time></trkpt><trkpt lat="44.89067337183781" lon="10.08097665758956"><ele>56.5</ele><time>2026-04-10T16:46:09Z</time></trkpt><trkpt lat="44.89071995028087" lon="10.080684280484014"><ele>56.0</ele><time>2026-04-10T16:46:10Z</time></trkpt><trkpt lat="44.893389407954025" lon="10.062899672650376"><ele>56.5</ele><time>2026-04-10T16:47:11Z</time></trkpt><trkpt lat="44.893441969355585" lon="10.062566976900827"><ele>57.0</ele><time>2026-04-10T16:47:12Z</time></trkpt><trkpt lat="44.89349671079781" lon="10.062234027389122"><ele>58.0</ele><time>2026-04-10T16:47:13Z</time></trkpt><trkpt lat="44.89354353809273" lon="10.061909216180391"><ele>59.0</ele><time>2026-04-10T16:47:14Z</time></trkpt><trkpt lat="44.89359940148429" lon="10.06157849431358"><ele>59.0</ele><time>2026-04-10T16:47:15Z</time></trkpt><trkpt lat="44.89365914890782" lon="10.06125273976992"><ele>59.0</ele><time>2026-04-10T16:47:16Z</time></trkpt><trkpt lat="44.89371665766568" lon="10.06092432204657"><ele>58.0</ele><time>2026-04-10T16:47:17Z</time></trkpt><trkpt lat="44.893773478134456" lon="10.060605116017268"><ele>57.0</ele><time>2026-04-10T16:47:18Z</time></trkpt><trkpt lat="44.89382226425951" lon="10.060281572369718"><ele>57.0</ele><time>2026-04-10T16:47:19Z</time></trkpt><trkpt lat="44.8938735408007" lon="10.059961638264548"><ele>57.0</ele><time>2026-04-10T16:47:20Z</time></trkpt><trkpt lat="44.89392371830392" lon="10.059641578610906"><ele>57.0</ele><time>2026-04-10T16:47:21Z</time></trkpt><trkpt lat="44.89397408679491" lon="10.059323744401492"><ele>57.0</ele><time>2026-04-10T16:47:22Z</time></trkpt><trkpt lat="44.894020856704245" lon="10.058992885272042"><ele>57.5</ele><time>2026-04-10T16:47:23Z</time></trkpt><trkpt lat="44.8940690753064" lon="10.058670534712066"><ele>58.0</ele><time>2026-04-10T16:47:24Z</time></trkpt><trkpt lat="44.89411348489187" lon="10.05834980347178"><ele>59.0</ele><time>2026-04-10T16:47:25Z</time></trkpt><trkpt lat="44.89415957556577" lon="10.05803572377197"><ele>60.0</ele><time>2026-04-10T16:47:26Z</time></trkpt><trkpt lat="44.89420801680504" lon="10.05771583389343"><ele>60.5</ele><time>2026-04-10T16:47:27Z</time></trkpt><trkpt lat="44.89425622491513" lon="10.057399621818268"><ele>61.0</ele><time>2026-04-10T16:47:28Z</time></trkpt><trkpt lat="44.89430447256234" lon="10.057076332949478"><ele>61.0</ele><time>2026-04-10T16:47:29Z</time></trkpt><trkpt lat="44.89435359630623" lon="10.056763092673897"><ele>61.0</ele><time>2026-04-10T16:47:30Z</time></trkpt><trkpt lat="44.89440121049631" lon="10.056451389421385"><ele>59.5</ele><time>2026-04-10T16:47:31Z</time></trkpt><trkpt lat="44.894447941901745" lon="10.05613851113534"><ele>58.0</ele><time>2026-04-10T16:47:32Z</time></trkpt><trkpt lat="44.89449922468661" lon="10.05581482289817"><ele>59.0</ele><time>2026-04-10T16:47:33Z</time></trkpt><trkpt lat="44.89454399561901" lon="10.055490885567757"><ele>60.0</ele><time>2026-04-10T16:47:34Z</time></trkpt><trkpt lat="44.89459455208634" lon="10.055170674467348"><ele>60.0</ele><time>2026-04-10T16:47:35Z</time></trkpt><trkpt lat="44.89464599906836" lon="10.054854703303615"><ele>60.0</ele><time>2026-04-10T16:47:36Z</time></trkpt><trkpt lat="44.89469944178087" lon="10.054537421342808"><ele>60.0</ele><time>2026-04-10T16:47:37Z</time></trkpt><trkpt lat="44.89475498456033" lon="10.054219469588531"><ele>60.0</ele><time>2026-04-10T16:47:38Z</time></trkpt><trkpt lat="44.894820007601844" lon="10.053905049557219"><ele>59.5</ele><time>2026-04-10T16:47:39Z</time></trkpt><trkpt lat="44.894890660655875" lon="10.053582724397359"><ele>59.0</ele><time>2026-04-10T16:47:40Z</time></trkpt><trkpt lat="44.89496159795659" lon="10.053267916989103"><ele>59.0</ele><time>2026-04-10T16:47:41Z</time></trkpt><trkpt lat="44.89503641288881" lon="10.052943296041894"><ele>59.0</ele><time>2026-04-10T16:47:42Z</time></trkpt><trkpt lat="44.8951151733416" lon="10.052617069260402"><ele>58.5</ele><time>2026-04-10T16:47:43Z</time></trkpt><trkpt lat="44.895190704560335" lon="10.052294620501485"><ele>58.0</ele><time>2026-04-10T16:47:44Z</time></trkpt><trkpt lat="44.89527799443075" lon="10.051973592506561"><ele>58.0</ele><time>2026-04-10T16:47:45Z</time></trkpt><trkpt lat="44.8953687260621" lon="10.051657712440909"><ele>58.0</ele><time>2026-04-10T16:47:46Z</time></trkpt><trkpt lat="44.89546168112984" lon="10.051340653410886"><ele>59.5</ele><time>2026-04-10T16:47:47Z</time></trkpt><trkpt lat="44.895551401834815" lon="10.051020161443928"><ele>61.0</ele><time>2026-04-10T16:47:48Z</time></trkpt><trkpt lat="44.895648399105085" lon="10.050714980042168"><ele>61.5</ele><time>2026-04-10T16:47:49Z</time></trkpt><trkpt lat="44.89574733303133" lon="10.05040894489749"><ele>62.0</ele><time>2026-04-10T16:47:50Z</time></trkpt><trkpt lat="44.895845088845604" lon="10.050105243685513"><ele>61.0</ele><time>2026-04-10T16:47:51Z</time></trkpt><trkpt lat="44.89594635309732" lon="10.04979902264236"><ele>60.0</ele><time>2026-04-10T16:47:52Z</time></trkpt><trkpt lat="44.89605692561288" lon="10.049496496880527"><ele>60.0</ele><time>2026-04-10T16:47:53Z</time></trkpt><trkpt lat="44.896163748308894" lon="10.049192288021095"><ele>60.0</ele><time>2026-04-10T16:47:54Z</time></trkpt><trkpt lat="44.89628103669961" lon="10.048891997074954"><ele>61.0</ele><time>2026-04-10T16:47:55Z</time></trkpt><trkpt lat="44.896402561494675" lon="10.048597921266452"><ele>62.0</ele><time>2026-04-10T16:47:56Z</time></trkpt><trkpt lat="44.89651722253558" lon="10.04829668370563"><ele>60.5</ele><time>2026-04-10T16:47:57Z</time></trkpt><trkpt lat="44.89663791233406" lon="10.047993990909886"><ele>59.0</ele><time>2026-04-10T16:47:58Z</time></trkpt><trkpt lat="44.89676562196734" lon="10.04770199746685"><ele>59.5</ele><time>2026-04-10T16:47:59Z</time></trkpt><trkpt lat="44.89689304178202" lon="10.047407699177079"><ele>60.0</ele><time>2026-04-10T16:48:00Z</time></trkpt><trkpt lat="44.89702688276234" lon="10.047112188583865"><ele>60.0</ele><time>2026-04-10T16:48:01Z</time></trkpt><trkpt lat="44.89716930582171" lon="10.046829478343183"><ele>60.0</ele><time>2026-04-10T16:48:02Z</time></trkpt><trkpt lat="44.89730909977636" lon="10.046540964123306"><ele>60.0</ele><time>2026-04-10T16:48:03Z</time></trkpt><trkpt lat="44.89744562442166" lon="10.046245599496553"><ele>60.0</ele><time>2026-04-10T16:48:04Z</time></trkpt><trkpt lat="44.89758230807904" lon="10.04596103745853"><ele>60.0</ele><time>2026-04-10T16:48:05Z</time></trkpt><trkpt lat="44.8977233744942" lon="10.045681121242879"><ele>60.0</ele><time>2026-04-10T16:48:06Z</time></trkpt><trkpt lat="44.897861358833715" lon="10.04539205500202"><ele>60.0</ele><time>2026-04-10T16:48:07Z</time></trkpt><trkpt lat="44.8979962780389" lon="10.045095617367549"><ele>60.0</ele><time>2026-04-10T16:48:08Z</time></trkpt><trkpt lat="44.89812945806218" lon="10.044821785010502"><ele>60.5</ele><time>2026-04-10T16:48:09Z</time></trkpt><trkpt lat="44.89825905069774" lon="10.044555227764135"><ele>61.0</ele><time>2026-04-10T16:48:10Z</time></trkpt><trkpt lat="44.906872006282434" lon="10.026850050346667"><ele>59.0</ele><time>2026-04-10T16:49:11Z</time></trkpt><trkpt lat="44.90701920306222" lon="10.02653586350244"><ele>57.0</ele><time>2026-04-10T16:49:12Z</time></trkpt><trkpt lat="44.907168594626064" lon="10.026226616440626"><ele>57.0</ele><time>2026-04-10T16:49:13Z</time></trkpt><trkpt lat="44.907319524405494" lon="10.025917163872164"><ele>57.0</ele><time>2026-04-10T16:49:14Z</time></trkpt><trkpt lat="44.907472306079946" lon="10.025608257521995"><ele>55.5</ele><time>2026-04-10T16:49:15Z</time></trkpt><trkpt lat="44.90762016503871" lon="10.025297582313373"><ele>54.0</ele><time>2026-04-10T16:49:16Z</time></trkpt><trkpt lat="44.907768740916275" lon="10.024992291434465"><ele>54.5</ele><time>2026-04-10T16:49:17Z</time></trkpt><trkpt lat="44.90791882836225" lon="10.024688040018326"><ele>55.0</ele><time>2026-04-10T16:49:18Z</time></trkpt><trkpt lat="44.90806492617949" lon="10.024391843365876"><ele>55.5</ele><time>2026-04-10T16:49:19Z</time></trkpt><trkpt lat="44.90821201829598" lon="10.024098095786366"><ele>56.0</ele><time>2026-04-10T16:49:20Z</time></trkpt><trkpt lat="44.90835863180959" lon="10.023804212168878"><ele>56.0</ele><time>2026-04-10T16:49:21Z</time></trkpt><trkpt lat="44.90850717461948" lon="10.023514953075338"><ele>56.0</ele><time>2026-04-10T16:49:22Z</time></trkpt><trkpt lat="44.90866051676626" lon="10.023224052067583"><ele>57.0</ele><time>2026-04-10T16:49:23Z</time></trkpt><trkpt lat="44.90882086315177" lon="10.0229242051112"><ele>58.0</ele><time>2026-04-10T16:49:24Z</time></trkpt><trkpt lat="44.90897588443349" lon="10.022622071253103"><ele>57.5</ele><time>2026-04-10T16:49:25Z</time></trkpt><trkpt lat="44.90912865219612" lon="10.022318253153118"><ele>57.0</ele><time>2026-04-10T16:49:26Z</time></trkpt><trkpt lat="44.90926731162036" lon="10.02202507492679"><ele>56.5</ele><time>2026-04-10T16:49:27Z</time></trkpt><trkpt lat="44.9094043868074" lon="10.02173743425159"><ele>56.0</ele><time>2026-04-10T16:49:28Z</time></trkpt><trkpt lat="44.90954297613109" lon="10.021453953710756"><ele>56.0</ele><time>2026-04-10T16:49:29Z</time></trkpt><trkpt lat="44.909683371063835" lon="10.021172696391877"><ele>56.0</ele><time>2026-04-10T16:49:30Z</time></trkpt><trkpt lat="44.9098205968123" lon="10.020889949798223"><ele>56.5</ele><time>2026-04-10T16:49:31Z</time></trkpt><trkpt lat="44.90995552626616" lon="10.020606157875864"><ele>57.0</ele><time>2026-04-10T16:49:32Z</time></trkpt><trkpt lat="44.910091291379466" lon="10.020321905661875"><ele>56.0</ele><time>2026-04-10T16:49:33Z</time></trkpt><trkpt lat="44.910228681295614" lon="10.020037703285457"><ele>55.0</ele><time>2026-04-10T16:49:34Z</time></trkpt><trkpt lat="44.91036633022786" lon="10.019752737786806"><ele>55.0</ele><time>2026-04-10T16:49:35Z</time></trkpt><trkpt lat="44.91050346952251" lon="10.019464784050728"><ele>55.0</ele><time>2026-04-10T16:49:36Z</time></trkpt><trkpt lat="44.91064157517861" lon="10.01917880372808"><ele>55.5</ele><time>2026-04-10T16:49:37Z</time></trkpt><trkpt lat="44.910781009870924" lon="10.018890661248701"><ele>56.0</ele><time>2026-04-10T16:49:38Z</time></trkpt><trkpt lat="44.910923079654324" lon="10.01860120276245"><ele>55.0</ele><time>2026-04-10T16:49:39Z</time></trkpt><trkpt lat="44.91106436157025" lon="10.018310192568496"><ele>54.0</ele><time>2026-04-10T16:49:40Z</time></trkpt><trkpt lat="44.91120564057261" lon="10.018021368311128"><ele>54.0</ele><time>2026-04-10T16:49:41Z</time></trkpt><trkpt lat="44.91134793650092" lon="10.017731490303328"><ele>54.0</ele><time>2026-04-10T16:49:42Z</time></trkpt><trkpt lat="44.91149007450847" lon="10.017440969040745"><ele>54.5</ele><time>2026-04-10T16:49:43Z</time></trkpt><trkpt lat="44.911632205327685" lon="10.017152410734417"><ele>55.0</ele><time>2026-04-10T16:49:44Z</time></trkpt><trkpt lat="44.91177397129289" lon="10.016861901787744"><ele>55.0</ele><time>2026-04-10T16:49:45Z</time></trkpt><trkpt lat="44.9119145028943" lon="10.016567114072455"><ele>55.0</ele><time>2026-04-10T16:49:46Z</time></trkpt><trkpt lat="44.912058346682194" lon="10.016270031408665"><ele>55.0</ele><time>2026-04-10T16:49:47Z</time></trkpt><trkpt lat="44.91220394207156" lon="10.015972635115167"><ele>55.0</ele><time>2026-04-10T16:49:48Z</time></trkpt><trkpt lat="44.9123516699879" lon="10.015661765036784"><ele>55.5</ele><time>2026-04-10T16:49:49Z</time></trkpt><trkpt lat="44.91249789220923" lon="10.015367597321477"><ele>56.0</ele><time>2026-04-10T16:49:50Z</time></trkpt><trkpt lat="44.91264547592274" lon="10.01506710621794"><ele>55.0</ele><time>2026-04-10T16:49:51Z</time></trkpt><trkpt lat="44.9127961663773" lon="10.014764821299746"><ele>54.0</ele><time>2026-04-10T16:49:52Z</time></trkpt><trkpt lat="44.91294773602756" lon="10.014460792603902"><ele>54.0</ele><time>2026-04-10T16:49:53Z</time></trkpt><trkpt lat="44.913097643638295" lon="10.014156744915883"><ele>54.0</ele><time>2026-04-10T16:49:54Z</time></trkpt><trkpt lat="44.91324557396511" lon="10.013848553227398"><ele>55.0</ele><time>2026-04-10T16:49:55Z</time></trkpt><trkpt lat="44.913387650856244" lon="10.013550912999271"><ele>56.0</ele><time>2026-04-10T16:49:56Z</time></trkpt><trkpt lat="44.91353256394241" lon="10.013249521240708"><ele>56.0</ele><time>2026-04-10T16:49:57Z</time></trkpt><trkpt lat="44.91368011588254" lon="10.012947845110478"><ele>56.0</ele><time>2026-04-10T16:49:58Z</time></trkpt><trkpt lat="44.913822382109664" lon="10.012657845314592"><ele>56.5</ele><time>2026-04-10T16:49:59Z</time></trkpt><trkpt lat="44.913964806759665" lon="10.01236618099268"><ele>57.0</ele><time>2026-04-10T16:50:00Z</time></trkpt><trkpt lat="44.91410456917489" lon="10.012078599960232"><ele>56.0</ele><time>2026-04-10T16:50:01Z</time></trkpt><trkpt lat="44.914243476202536" lon="10.011797098546182"><ele>55.0</ele><time>2026-04-10T16:50:02Z</time></trkpt><trkpt lat="44.914381035921856" lon="10.011510849306159"><ele>55.0</ele><time>2026-04-10T16:50:03Z</time></trkpt><trkpt lat="44.91451984667346" lon="10.01122593072801"><ele>55.0</ele><time>2026-04-10T16:50:04Z</time></trkpt><trkpt lat="44.914661273929006" lon="10.010941773516773"><ele>54.5</ele><time>2026-04-10T16:50:05Z</time></trkpt><trkpt lat="44.91480440369908" lon="10.010654379715746"><ele>54.0</ele><time>2026-04-10T16:50:06Z</time></trkpt><trkpt lat="44.91494586011661" lon="10.01036547663705"><ele>54.0</ele><time>2026-04-10T16:50:07Z</time></trkpt><trkpt lat="44.91508543039767" lon="10.010072824092278"><ele>54.0</ele><time>2026-04-10T16:50:08Z</time></trkpt><trkpt lat="44.915224757258265" lon="10.009776595068153"><ele>54.0</ele><time>2026-04-10T16:50:09Z</time></trkpt><trkpt lat="44.9153661685814" lon="10.009480405878193"><ele>54.0</ele><time>2026-04-10T16:50:10Z</time></trkpt><trkpt lat="44.92373089884023" lon="9.992342798216338"><ele>52.5</ele><time>2026-04-10T16:51:11Z</time></trkpt><trkpt lat="44.92385924571332" lon="9.992076966077837"><ele>51.0</ele><time>2026-04-10T16:51:12Z</time></trkpt><trkpt lat="44.92398534987119" lon="9.991811888396347"><ele>51.0</ele><time>2026-04-10T16:51:13Z</time></trkpt><trkpt lat="44.924114373879775" lon="9.991542987811972"><ele>51.0</ele><time>2026-04-10T16:51:14Z</time></trkpt><trkpt lat="44.92424897426412" lon="9.991263145291772"><ele>51.0</ele><time>2026-04-10T16:51:15Z</time></trkpt><trkpt lat="44.92438295738984" lon="9.990971168345098"><ele>51.0</ele><time>2026-04-10T16:51:16Z</time></trkpt><trkpt lat="44.92451699149922" lon="9.990674503285888"><ele>51.0</ele><time>2026-04-10T16:51:17Z</time></trkpt><trkpt lat="44.924653709431446" lon="9.990373774510187"><ele>51.0</ele><time>2026-04-10T16:51:18Z</time></trkpt><trkpt lat="44.92479550347099" lon="9.990066449771385"><ele>51.5</ele><time>2026-04-10T16:51:19Z</time></trkpt><trkpt lat="44.92493885640706" lon="9.989763240724127"><ele>52.0</ele><time>2026-04-10T16:51:20Z</time></trkpt><trkpt lat="44.92508169168093" lon="9.989470246127805"><ele>52.0</ele><time>2026-04-10T16:51:21Z</time></trkpt><trkpt lat="44.9252229962678" lon="9.989183051974493"><ele>52.0</ele><time>2026-04-10T16:51:22Z</time></trkpt><trkpt lat="44.9253645373439" lon="9.988894527778678"><ele>52.5</ele><time>2026-04-10T16:51:23Z</time></trkpt><trkpt lat="44.92550923861585" lon="9.988609717720289"><ele>53.0</ele><time>2026-04-10T16:51:24Z</time></trkpt><trkpt lat="44.92564566698198" lon="9.988326299784502"><ele>52.0</ele><time>2026-04-10T16:51:25Z</time></trkpt><trkpt lat="44.92578364893256" lon="9.98803966339798"><ele>51.0</ele><time>2026-04-10T16:51:26Z</time></trkpt><trkpt lat="44.925913970961105" lon="9.987763270701409"><ele>50.0</ele><time>2026-04-10T16:51:27Z</time></trkpt><trkpt lat="44.92605213473166" lon="9.98747973062189"><ele>49.0</ele><time>2026-04-10T16:51:28Z</time></trkpt><trkpt lat="44.926188742855295" lon="9.987207295314958"><ele>49.0</ele><time>2026-04-10T16:51:29Z</time></trkpt><trkpt lat="44.92632644536254" lon="9.98693434210923"><ele>49.0</ele><time>2026-04-10T16:51:30Z</time></trkpt><trkpt lat="44.926463129748775" lon="9.986655278388886"><ele>49.0</ele><time>2026-04-10T16:51:31Z</time></trkpt><trkpt lat="44.92660279343052" lon="9.986375105413552"><ele>49.0</ele><time>2026-04-10T16:51:32Z</time></trkpt><trkpt lat="44.92674327435858" lon="9.98609316017615"><ele>49.0</ele><time>2026-04-10T16:51:33Z</time></trkpt><trkpt lat="44.926883120037985" lon="9.985807924873384"><ele>49.0</ele><time>2026-04-10T16:51:34Z</time></trkpt><trkpt lat="44.92702353861566" lon="9.985522968050887"><ele>49.0</ele><time>2026-04-10T16:51:35Z</time></trkpt><trkpt lat="44.927162626181996" lon="9.985232771948388"><ele>49.0</ele><time>2026-04-10T16:51:36Z</time></trkpt><trkpt lat="44.92730194110485" lon="9.984940879247825"><ele>49.0</ele><time>2026-04-10T16:51:37Z</time></trkpt><trkpt lat="44.927441111389854" lon="9.984650558075057"><ele>49.0</ele><time>2026-04-10T16:51:38Z</time></trkpt><trkpt lat="44.92758068229842" lon="9.984358550193978"><ele>49.0</ele><time>2026-04-10T16:51:39Z</time></trkpt><trkpt lat="44.92772151489794" lon="9.984065357592293"><ele>49.0</ele><time>2026-04-10T16:51:40Z</time></trkpt><trkpt lat="44.927862941623964" lon="9.98377677717083"><ele>49.0</ele><time>2026-04-10T16:51:41Z</time></trkpt><trkpt lat="44.928006213485666" lon="9.983486051570413"><ele>49.0</ele><time>2026-04-10T16:51:42Z</time></trkpt><trkpt lat="44.92814940318146" lon="9.983196538040538"><ele>49.0</ele><time>2026-04-10T16:51:43Z</time></trkpt><trkpt lat="44.928291166733835" lon="9.982904640983165"><ele>49.0</ele><time>2026-04-10T16:51:44Z</time></trkpt><trkpt lat="44.928432570662046" lon="9.982613426267957"><ele>49.0</ele><time>2026-04-10T16:51:45Z</time></trkpt><trkpt lat="44.928574447124106" lon="9.982320056468915"><ele>49.0</ele><time>2026-04-10T16:51:46Z</time></trkpt><trkpt lat="44.92871565922316" lon="9.982026437258805"><ele>49.0</ele><time>2026-04-10T16:51:47Z</time></trkpt><trkpt lat="44.92885956730162" lon="9.981729270396972"><ele>49.0</ele><time>2026-04-10T16:51:48Z</time></trkpt><trkpt lat="44.929005081683115" lon="9.981428479144414"><ele>49.0</ele><time>2026-04-10T16:51:49Z</time></trkpt><trkpt lat="44.92915077503101" lon="9.981125558218514"><ele>49.0</ele><time>2026-04-10T16:51:50Z</time></trkpt><trkpt lat="44.92930011209387" lon="9.980822283214616"><ele>49.5</ele><time>2026-04-10T16:51:51Z</time></trkpt><trkpt lat="44.92944737196865" lon="9.980517368944845"><ele>50.0</ele><time>2026-04-10T16:51:52Z</time></trkpt><trkpt lat="44.929592417077494" lon="9.980221698923426"><ele>50.5</ele><time>2026-04-10T16:51:53Z</time></trkpt><trkpt lat="44.929732397519345" lon="9.979939139877738"><ele>51.0</ele><time>2026-04-10T16:51:54Z</time></trkpt><trkpt lat="44.929869623971776" lon="9.979650613031222"><ele>51.0</ele><time>2026-04-10T16:51:55Z</time></trkpt><trkpt lat="44.93001065789867" lon="9.979371939470406"><ele>51.0</ele><time>2026-04-10T16:51:56Z</time></trkpt><trkpt lat="44.93015169243324" lon="9.97909347036383"><ele>50.0</ele><time>2026-04-10T16:51:57Z</time></trkpt><trkpt lat="44.93029132899354" lon="9.978806434572487"><ele>49.0</ele><time>2026-04-10T16:51:58Z</time></trkpt><trkpt lat="44.93042943380297" lon="9.978518983299452"><ele>49.5</ele><time>2026-04-10T16:51:59Z</time></trkpt><trkpt lat="44.93056897025727" lon="9.978233276062463"><ele>50.0</ele><time>2026-04-10T16:52:00Z</time></trkpt><trkpt lat="44.93070996854353" lon="9.977945500755725"><ele>50.0</ele><time>2026-04-10T16:52:01Z</time></trkpt><trkpt lat="44.930852051330504" lon="9.977657929239026"><ele>50.0</ele><time>2026-04-10T16:52:02Z</time></trkpt><trkpt lat="44.93099405243173" lon="9.97736858963815"><ele>49.5</ele><time>2026-04-10T16:52:03Z</time></trkpt><trkpt lat="44.9311358884847" lon="9.977075656569928"><ele>49.0</ele><time>2026-04-10T16:52:04Z</time></trkpt><trkpt lat="44.93127599726594" lon="9.976780743732618"><ele>49.0</ele><time>2026-04-10T16:52:05Z</time></trkpt><trkpt lat="44.93142118608756" lon="9.976491264523508"><ele>49.0</ele><time>2026-04-10T16:52:06Z</time></trkpt><trkpt lat="44.931570236483594" lon="9.976196316918829"><ele>49.0</ele><time>2026-04-10T16:52:07Z</time></trkpt><trkpt lat="44.931707640572654" lon="9.9758988091212"><ele>49.0</ele><time>2026-04-10T16:52:08Z</time></trkpt><trkpt lat="44.93184553965231" lon="9.975610946695614"><ele>49.0</ele><time>2026-04-10T16:52:09Z</time></trkpt><trkpt lat="44.93198310885138" lon="9.975324648000166"><ele>49.0</ele><time>2026-04-10T16:52:10Z</time></trkpt><trkpt lat="44.94041024238613" lon="9.957774713645144"><ele>50.0</ele><time>2026-04-10T16:53:11Z</time></trkpt><trkpt lat="44.94053302689304" lon="9.95748153311152"><ele>51.0</ele><time>2026-04-10T16:53:12.001Z</time></trkpt><trkpt lat="44.94065892746506" lon="9.957191387406173"><ele>51.0</ele><time>2026-04-10T16:53:13.001Z</time></trkpt><trkpt lat="44.940784743495186" lon="9.956899020974541"><ele>51.0</ele><time>2026-04-10T16:53:14.001Z</time></trkpt><trkpt lat="44.9409113447632" lon="9.956605743200447"><ele>51.0</ele><time>2026-04-10T16:53:15.001Z</time></trkpt><trkpt lat="44.94103200803664" lon="9.95631392867675"><ele>51.0</ele><time>2026-04-10T16:53:16.001Z</time></trkpt><trkpt lat="44.94115609733299" lon="9.956024996833733"><ele>51.5</ele><time>2026-04-10T16:53:17.001Z</time></trkpt><trkpt lat="44.941278646507186" lon="9.95572805285563"><ele>52.0</ele><time>2026-04-10T16:53:18.001Z</time></trkpt><trkpt lat="44.94140249447327" lon="9.95543957239933"><ele>52.0</ele><time>2026-04-10T16:53:19.001Z</time></trkpt><trkpt lat="44.94152892487391" lon="9.955145858866336"><ele>52.0</ele><time>2026-04-10T16:53:20.001Z</time></trkpt><trkpt lat="44.9416577696077" lon="9.954852463052006"><ele>52.5</ele><time>2026-04-10T16:53:21.001Z</time></trkpt><trkpt lat="44.94178269526346" lon="9.954561665200385"><ele>53.0</ele><time>2026-04-10T16:53:22.001Z</time></trkpt><trkpt lat="44.941904021020584" lon="9.954264206165048"><ele>52.5</ele><time>2026-04-10T16:53:23.001Z</time></trkpt><trkpt lat="44.94202756559041" lon="9.953969426371108"><ele>52.0</ele><time>2026-04-10T16:53:24.001Z</time></trkpt><trkpt lat="44.942151654763805" lon="9.953676022321876"><ele>52.0</ele><time>2026-04-10T16:53:25.001Z</time></trkpt><trkpt lat="44.94228292454328" lon="9.953381345878258"><ele>52.0</ele><time>2026-04-10T16:53:26.001Z</time></trkpt><trkpt lat="44.942409212393116" lon="9.953090136597048"><ele>52.0</ele><time>2026-04-10T16:53:27.001Z</time></trkpt><trkpt lat="44.942532501234204" lon="9.952792239323953"><ele>52.0</ele><time>2026-04-10T16:53:28.001Z</time></trkpt><trkpt lat="44.94265503495075" lon="9.952499184097938"><ele>52.0</ele><time>2026-04-10T16:53:29.001Z</time></trkpt><trkpt lat="44.942780980559085" lon="9.95220562211471"><ele>52.0</ele><time>2026-04-10T16:53:30.001Z</time></trkpt><trkpt lat="44.94290715663353" lon="9.951912104539382"><ele>52.0</ele><time>2026-04-10T16:53:31.001Z</time></trkpt><trkpt lat="44.943032557996496" lon="9.951615928724815"><ele>52.0</ele><time>2026-04-10T16:53:32.001Z</time></trkpt><trkpt lat="44.943160741246636" lon="9.951322127894713"><ele>52.0</ele><time>2026-04-10T16:53:33.001Z</time></trkpt><trkpt lat="44.94329186831665" lon="9.951027183585259"><ele>52.0</ele><time>2026-04-10T16:53:34.001Z</time></trkpt><trkpt lat="44.94342205654417" lon="9.950734556630975"><ele>51.5</ele><time>2026-04-10T16:53:35.001Z</time></trkpt><trkpt lat="44.943546694998055" lon="9.950436119224147"><ele>51.0</ele><time>2026-04-10T16:53:36.001Z</time></trkpt><trkpt lat="44.943671085872374" lon="9.950135174774296"><ele>51.5</ele><time>2026-04-10T16:53:37.001Z</time></trkpt><trkpt lat="44.943787906166726" lon="9.949845623818822"><ele>52.0</ele><time>2026-04-10T16:53:38.001Z</time></trkpt><trkpt lat="44.943908918660256" lon="9.949555968157956"><ele>52.0</ele><time>2026-04-10T16:53:39.001Z</time></trkpt><trkpt lat="44.94403331463808" lon="9.949264679443564"><ele>52.0</ele><time>2026-04-10T16:53:40.001Z</time></trkpt><trkpt lat="44.944158772853946" lon="9.948973528556031"><ele>53.0</ele><time>2026-04-10T16:53:41.001Z</time></trkpt><trkpt lat="44.94428589940741" lon="9.948680549910092"><ele>54.0</ele><time>2026-04-10T16:53:42.001Z</time></trkpt><trkpt lat="44.94440780412996" lon="9.948399600571383"><ele>54.33333333333333</ele><time>2026-04-10T16:53:43.001Z</time></trkpt><trkpt lat="44.94452626612258" lon="9.94812577109831"><ele>54.666666666666664</ele><time>2026-04-10T16:53:44.001Z</time></trkpt><trkpt lat="44.94464447804254" lon="9.947861766830982"><ele>55.0</ele><time>2026-04-10T16:53:45.001Z</time></trkpt><trkpt lat="44.944760335235394" lon="9.947580569733981"><ele>55.0</ele><time>2026-04-10T16:53:46.001Z</time></trkpt><trkpt lat="44.944876293640895" lon="9.947300335755006"><ele>55.0</ele><time>2026-04-10T16:53:47.001Z</time></trkpt><trkpt lat="44.94499069945972" lon="9.947028432856522"><ele>54.5</ele><time>2026-04-10T16:53:48.001Z</time></trkpt><trkpt lat="44.94510685501345" lon="9.946756010686041"><ele>54.0</ele><time>2026-04-10T16:53:49.001Z</time></trkpt><trkpt lat="44.94522557990525" lon="9.94648209818222"><ele>54.0</ele><time>2026-04-10T16:53:50.001Z</time></trkpt><trkpt lat="44.94534206750495" lon="9.946207379058988"><ele>54.0</ele><time>2026-04-10T16:53:51.001Z</time></trkpt><trkpt lat="44.94546196591073" lon="9.945935899993366"><ele>53.66666666666667</ele><time>2026-04-10T16:53:52.001Z</time></trkpt><trkpt lat="44.94557506375147" lon="9.945673871893423"><ele>53.333333333333336</ele><time>2026-04-10T16:53:53.001Z</time></trkpt><trkpt lat="44.94568305962831" lon="9.945415572387272"><ele>53.0</ele><time>2026-04-10T16:53:54.001Z</time></trkpt><trkpt lat="44.94578938323903" lon="9.945169188594186"><ele>53.333333333333336</ele><time>2026-04-10T16:53:55.001Z</time></trkpt><trkpt lat="44.945897658965045" lon="9.94491250852652"><ele>53.66666666666667</ele><time>2026-04-10T16:53:56.001Z</time></trkpt><trkpt lat="44.94600813132249" lon="9.944645478673754"><ele>54.0</ele><time>2026-04-10T16:53:57.001Z</time></trkpt><trkpt lat="44.946122357093486" lon="9.944373439336058"><ele>53.5</ele><time>2026-04-10T16:53:58.001Z</time></trkpt><trkpt lat="44.94623817706815" lon="9.944092422143559"><ele>53.0</ele><time>2026-04-10T16:53:59.001Z</time></trkpt><trkpt lat="44.94635859496737" lon="9.943814663121481"><ele>53.0</ele><time>2026-04-10T16:54:00.001Z</time></trkpt><trkpt lat="44.94647443980981" lon="9.9435421742783"><ele>53.0</ele><time>2026-04-10T16:54:01.001Z</time></trkpt><trkpt lat="44.946595758452744" lon="9.943273062898033"><ele>53.5</ele><time>2026-04-10T16:54:02.001Z</time></trkpt><trkpt lat="44.94671305436309" lon="9.942999871578015"><ele>54.0</ele><time>2026-04-10T16:54:03.001Z</time></trkpt><trkpt lat="44.94682818302929" lon="9.942727530124008"><ele>53.5</ele><time>2026-04-10T16:54:04.001Z</time></trkpt><trkpt lat="44.946945835946224" lon="9.94245012241877"><ele>53.0</ele><time>2026-04-10T16:54:05.001Z</time></trkpt><trkpt lat="44.947062646282504" lon="9.942171532409128"><ele>53.0</ele><time>2026-04-10T16:54:06.001Z</time></trkpt><trkpt lat="44.94717872951696" lon="9.941891780435435"><ele>53.0</ele><time>2026-04-10T16:54:07.001Z</time></trkpt><trkpt lat="44.9472971429007" lon="9.941616513707089"><ele>54.5</ele><time>2026-04-10T16:54:08.001Z</time></trkpt><trkpt lat="44.94741160299704" lon="9.941339275409279"><ele>56.0</ele><time>2026-04-10T16:54:09.001Z</time></trkpt><trkpt lat="44.947531008860786" lon="9.941065202829552"><ele>61.0</ele><time>2026-04-10T16:54:10.001Z</time></trkpt><trkpt lat="44.95449950061011" lon="9.924730077908285"><ele>61.0</ele><time>2026-04-10T16:55:11Z</time></trkpt><trkpt lat="44.95460959212819" lon="9.924468202919611"><ele>61.0</ele><time>2026-04-10T16:55:12Z</time></trkpt><trkpt lat="44.95471946892212" lon="9.924210573542762"><ele>61.0</ele><time>2026-04-10T16:55:13Z</time></trkpt><trkpt lat="44.95483414667067" lon="9.923945575185357"><ele>61.666666666666664</ele><time>2026-04-10T16:55:14Z</time></trkpt><trkpt lat="44.954948188066965" lon="9.923679341072658"><ele>62.33333333333333</ele><time>2026-04-10T16:55:15Z</time></trkpt><trkpt lat="44.955063826872056" lon="9.923409860745474"><ele>63.0</ele><time>2026-04-10T16:55:16Z</time></trkpt><trkpt lat="44.955176389354875" lon="9.923141709897884"><ele>63.33333333333333</ele><time>2026-04-10T16:55:17Z</time></trkpt><trkpt lat="44.95528883027455" lon="9.922877844377357"><ele>63.666666666666664</ele><time>2026-04-10T16:55:18Z</time></trkpt><trkpt lat="44.95539639868683" lon="9.922608158447423"><ele>64.0</ele><time>2026-04-10T16:55:19Z</time></trkpt><trkpt lat="44.955510432129884" lon="9.922339321580482"><ele>64.33333333333333</ele><time>2026-04-10T16:55:20Z</time></trkpt><trkpt lat="44.955624467979526" lon="9.922077165120191"><ele>64.66666666666667</ele><time>2026-04-10T16:55:21Z</time></trkpt><trkpt lat="44.955735300713506" lon="9.92181399246226"><ele>65.0</ele><time>2026-04-10T16:55:22Z</time></trkpt><trkpt lat="44.955849552620734" lon="9.92155064498324"><ele>64.66666666666667</ele><time>2026-04-10T16:55:23Z</time></trkpt><trkpt lat="44.955962821035186" lon="9.921281768146976"><ele>64.33333333333333</ele><time>2026-04-10T16:55:24Z</time></trkpt><trkpt lat="44.95607721765969" lon="9.921013933334324"><ele>64.0</ele><time>2026-04-10T16:55:25.001Z</time></trkpt><trkpt lat="44.956191483271716" lon="9.920741068704045"><ele>63.0</ele><time>2026-04-10T16:55:26.001Z</time></trkpt><trkpt lat="44.956310927036846" lon="9.920468295759635"><ele>62.0</ele><time>2026-04-10T16:55:27.001Z</time></trkpt><trkpt lat="44.956432584145546" lon="9.920188134996026"><ele>62.5</ele><time>2026-04-10T16:55:28.001Z</time></trkpt><trkpt lat="44.95654947035046" lon="9.919907923747894"><ele>63.0</ele><time>2026-04-10T16:55:29.001Z</time></trkpt><trkpt lat="44.956676948384015" lon="9.91962462010808"><ele>62.0</ele><time>2026-04-10T16:55:30.001Z</time></trkpt><trkpt lat="44.95679842593975" lon="9.919336953782663"><ele>61.0</ele><time>2026-04-10T16:55:31.001Z</time></trkpt><trkpt lat="44.9569219661727" lon="9.919043742606432"><ele>61.0</ele><time>2026-04-10T16:55:32.001Z</time></trkpt><trkpt lat="44.95704842205404" lon="9.918756468429546"><ele>61.0</ele><time>2026-04-10T16:55:33.001Z</time></trkpt><trkpt lat="44.957176948183125" lon="9.918461735611961"><ele>62.5</ele><time>2026-04-10T16:55:34.001Z</time></trkpt><trkpt lat="44.95729925211149" lon="9.918158990973417"><ele>64.0</ele><time>2026-04-10T16:55:35.001Z</time></trkpt><trkpt lat="44.957427658699594" lon="9.917868521011634"><ele>63.0</ele><time>2026-04-10T16:55:36.001Z</time></trkpt><trkpt lat="44.957554809610414" lon="9.917570882855058"><ele>62.0</ele><time>2026-04-10T16:55:37.001Z</time></trkpt><trkpt lat="44.95768135339913" lon="9.917269309289969"><ele>60.5</ele><time>2026-04-10T16:55:38.001Z</time></trkpt><trkpt lat="44.957805817492634" lon="9.916969574420252"><ele>59.0</ele><time>2026-04-10T16:55:39.001Z</time></trkpt><trkpt lat="44.95793213796342" lon="9.91666931907606"><ele>58.5</ele><time>2026-04-10T16:55:40.001Z</time></trkpt><trkpt lat="44.95806238248224" lon="9.916370736553143"><ele>58.0</ele><time>2026-04-10T16:55:41.001Z</time></trkpt><trkpt lat="44.95819127535007" lon="9.916070641258438"><ele>59.0</ele><time>2026-04-10T16:55:42.001Z</time></trkpt><trkpt lat="44.95831503050789" lon="9.915780403264769"><ele>60.0</ele><time>2026-04-10T16:55:43.001Z</time></trkpt><trkpt lat="44.95843884847367" lon="9.915491333547958"><ele>60.0</ele><time>2026-04-10T16:55:44.001Z</time></trkpt><trkpt lat="44.95856136985109" lon="9.915204362343982"><ele>60.0</ele><time>2026-04-10T16:55:45.001Z</time></trkpt><trkpt lat="44.95868294491065" lon="9.914915694147252"><ele>60.5</ele><time>2026-04-10T16:55:46.001Z</time></trkpt><trkpt lat="44.95880305913756" lon="9.914626763654136"><ele>61.0</ele><time>2026-04-10T16:55:47.001Z</time></trkpt><trkpt lat="44.95892367679871" lon="9.914337514341879"><ele>61.5</ele><time>2026-04-10T16:55:48.001Z</time></trkpt><trkpt lat="44.959044489466855" lon="9.914047869496414"><ele>62.0</ele><time>2026-04-10T16:55:49.001Z</time></trkpt><trkpt lat="44.95916801377738" lon="9.913757663569468"><ele>61.0</ele><time>2026-04-10T16:55:50.001Z</time></trkpt><trkpt lat="44.95929373452833" lon="9.913466684771626"><ele>60.0</ele><time>2026-04-10T16:55:51.001Z</time></trkpt><trkpt lat="44.95941498233984" lon="9.91317160473469"><ele>58.0</ele><time>2026-04-10T16:55:52.001Z</time></trkpt><trkpt lat="44.95954410080527" lon="9.912881024737128"><ele>56.0</ele><time>2026-04-10T16:55:53.001Z</time></trkpt><trkpt lat="44.959670183935714" lon="9.912583859666842"><ele>56.0</ele><time>2026-04-10T16:55:54.001Z</time></trkpt><trkpt lat="44.959794764932596" lon="9.912287738757769"><ele>56.0</ele><time>2026-04-10T16:55:55.001Z</time></trkpt><trkpt lat="44.95992310836299" lon="9.91198537066919"><ele>57.0</ele><time>2026-04-10T16:55:56.001Z</time></trkpt><trkpt lat="44.96005279000988" lon="9.911691190173208"><ele>58.0</ele><time>2026-04-10T16:55:57.001Z</time></trkpt><trkpt lat="44.96018087314631" lon="9.911392742092403"><ele>58.0</ele><time>2026-04-10T16:55:58.001Z</time></trkpt><trkpt lat="44.9603155965349" lon="9.911093521942636"><ele>58.0</ele><time>2026-04-10T16:55:59.001Z</time></trkpt><trkpt lat="44.96044443127533" lon="9.910789236528037"><ele>59.5</ele><time>2026-04-10T16:56:00.001Z</time></trkpt><trkpt lat="44.96057682767186" lon="9.910486412549341"><ele>61.0</ele><time>2026-04-10T16:56:01.001Z</time></trkpt><trkpt lat="44.96071011703931" lon="9.910185679505627"><ele>61.0</ele><time>2026-04-10T16:56:02.001Z</time></trkpt><trkpt lat="44.96084025537956" lon="9.909876832137897"><ele>61.0</ele><time>2026-04-10T16:56:03.001Z</time></trkpt><trkpt lat="44.960969161870985" lon="9.909568879452966"><ele>61.5</ele><time>2026-04-10T16:56:04.001Z</time></trkpt><trkpt lat="44.96110889815559" lon="9.90925908162805"><ele>62.0</ele><time>2026-04-10T16:56:05.001Z</time></trkpt><trkpt lat="44.96123507467671" lon="9.90894491810847"><ele>62.5</ele><time>2026-04-10T16:56:06.001Z</time></trkpt><trkpt lat="44.9613625195911" lon="9.908635619741341"><ele>63.0</ele><time>2026-04-10T16:56:07.001Z</time></trkpt><trkpt lat="44.96149515685829" lon="9.908337928844134"><ele>63.0</ele><time>2026-04-10T16:56:08.001Z</time></trkpt><trkpt lat="44.96162584917366" lon="9.908018604809945"><ele>63.0</ele><time>2026-04-10T16:56:09.001Z</time></trkpt><trkpt lat="44.961749309417456" lon="9.907701828165996"><ele>56.0</ele><time>2026-04-10T16:56:10.001Z</time></trkpt><trkpt lat="44.96967307611483" lon="9.889091315013069"><ele>56.0</ele><time>2026-04-10T16:57:11Z</time></trkpt><trkpt lat="44.969805331209876" lon="9.888775574609612"><ele>56.0</ele><time>2026-04-10T16:57:12Z</time></trkpt><trkpt lat="44.96993897187672" lon="9.888458040953559"><ele>56.0</ele><time>2026-04-10T16:57:13Z</time></trkpt><trkpt lat="44.97007158114817" lon="9.888141792259827"><ele>56.0</ele><time>2026-04-10T16:57:14Z</time></trkpt><trkpt lat="44.970205888769414" lon="9.887826566339152"><ele>57.0</ele><time>2026-04-10T16:57:15Z</time></trkpt><trkpt lat="44.97034238322194" lon="9.887511181873318"><ele>58.0</ele><time>2026-04-10T16:57:16Z</time></trkpt><trkpt lat="44.970478462706346" lon="9.887197135515184"><ele>58.0</ele><time>2026-04-10T16:57:17Z</time></trkpt><trkpt lat="44.9706165534534" lon="9.886882876117745"><ele>58.0</ele><time>2026-04-10T16:57:18Z</time></trkpt><trkpt lat="44.97075237335661" lon="9.886565277726415"><ele>58.0</ele><time>2026-04-10T16:57:19Z</time></trkpt><trkpt lat="44.97088743254205" lon="9.88624626213802"><ele>58.0</ele><time>2026-04-10T16:57:20Z</time></trkpt><trkpt lat="44.97102061572077" lon="9.885929555099418"><ele>58.0</ele><time>2026-04-10T16:57:21Z</time></trkpt><trkpt lat="44.97115351747603" lon="9.885610740670787"><ele>58.0</ele><time>2026-04-10T16:57:22Z</time></trkpt><trkpt lat="44.971286762971005" lon="9.885288460370505"><ele>56.5</ele><time>2026-04-10T16:57:23Z</time></trkpt><trkpt lat="44.971418695304486" lon="9.884968130485351"><ele>55.0</ele><time>2026-04-10T16:57:24Z</time></trkpt><trkpt lat="44.971552834766115" lon="9.884651915960564"><ele>55.0</ele><time>2026-04-10T16:57:25Z</time></trkpt><trkpt lat="44.97168818508233" lon="9.88433531026082"><ele>55.0</ele><time>2026-04-10T16:57:26Z</time></trkpt><trkpt lat="44.97182260104641" lon="9.884018176239524"><ele>55.5</ele><time>2026-04-10T16:57:27Z</time></trkpt><trkpt lat="44.971958835726404" lon="9.883700388023712"><ele>56.0</ele><time>2026-04-10T16:57:28Z</time></trkpt><trkpt lat="44.97209579424641" lon="9.883387016558132"><ele>56.5</ele><time>2026-04-10T16:57:29Z</time></trkpt><trkpt lat="44.972228891421324" lon="9.883069705230387"><ele>57.0</ele><time>2026-04-10T16:57:30Z</time></trkpt><trkpt lat="44.972362454598105" lon="9.882754290506673"><ele>57.0</ele><time>2026-04-10T16:57:31Z</time></trkpt><trkpt lat="44.972497484999614" lon="9.882440649938102"><ele>57.0</ele><time>2026-04-10T16:57:32Z</time></trkpt><trkpt lat="44.9726322632007" lon="9.88212655216057"><ele>57.5</ele><time>2026-04-10T16:57:33Z</time></trkpt><trkpt lat="44.97276619856039" lon="9.881810109619778"><ele>58.0</ele><time>2026-04-10T16:57:34Z</time></trkpt><trkpt lat="44.972898701915554" lon="9.88149471506147"><ele>57.0</ele><time>2026-04-10T16:57:35Z</time></trkpt><trkpt lat="44.97303185810856" lon="9.881181203057077"><ele>56.0</ele><time>2026-04-10T16:57:36Z</time></trkpt><trkpt lat="44.97316414560983" lon="9.880865299145364"><ele>55.5</ele><time>2026-04-10T16:57:37Z</time></trkpt><trkpt lat="44.97329765258097" lon="9.880550012167118"><ele>55.0</ele><time>2026-04-10T16:57:38Z</time></trkpt><trkpt lat="44.97343369098807" lon="9.880236841117224"><ele>55.5</ele><time>2026-04-10T16:57:39Z</time></trkpt><trkpt lat="44.973569371666876" lon="9.879922946302132"><ele>56.0</ele><time>2026-04-10T16:57:40Z</time></trkpt><trkpt lat="44.97370312406461" lon="9.879611114240138"><ele>56.0</ele><time>2026-04-10T16:57:41Z</time></trkpt><trkpt lat="44.97383900901329" lon="9.879298907931343"><ele>56.0</ele><time>2026-04-10T16:57:42Z</time></trkpt><trkpt lat="44.97396373689142" lon="9.878992792904638"><ele>56.5</ele><time>2026-04-10T16:57:43Z</time></trkpt><trkpt lat="44.97409129939852" lon="9.878699203235401"><ele>57.0</ele><time>2026-04-10T16:57:44Z</time></trkpt><trkpt lat="44.97422312780414" lon="9.878393969610624"><ele>57.0</ele><time>2026-04-10T16:57:45Z</time></trkpt><trkpt lat="44.974355211606735" lon="9.8780868190994"><ele>57.0</ele><time>2026-04-10T16:57:46Z</time></trkpt><trkpt lat="44.974483767916546" lon="9.877785079558029"><ele>57.0</ele><time>2026-04-10T16:57:47Z</time></trkpt><trkpt lat="44.97461556882645" lon="9.877480794358961"><ele>57.0</ele><time>2026-04-10T16:57:48Z</time></trkpt><trkpt lat="44.974743303287354" lon="9.87717254988735"><ele>57.0</ele><time>2026-04-10T16:57:49Z</time></trkpt><trkpt lat="44.97487278886242" lon="9.876861398363518"><ele>57.0</ele><time>2026-04-10T16:57:50Z</time></trkpt><trkpt lat="44.975004105679226" lon="9.87655090588977"><ele>57.5</ele><time>2026-04-10T16:57:51Z</time></trkpt><trkpt lat="44.97513734723272" lon="9.876236616989084"><ele>58.0</ele><time>2026-04-10T16:57:52Z</time></trkpt><trkpt lat="44.975270821631646" lon="9.87592188053577"><ele>58.0</ele><time>2026-04-10T16:57:53Z</time></trkpt><trkpt lat="44.97540536952738" lon="9.875605620524354"><ele>58.0</ele><time>2026-04-10T16:57:54Z</time></trkpt><trkpt lat="44.975540730420704" lon="9.875286341696171"><ele>58.5</ele><time>2026-04-10T16:57:55Z</time></trkpt><trkpt lat="44.975681233436525" lon="9.874968408486787"><ele>59.0</ele><time>2026-04-10T16:57:56Z</time></trkpt><trkpt lat="44.97581901186405" lon="9.874645768389499"><ele>57.5</ele><time>2026-04-10T16:57:57Z</time></trkpt><trkpt lat="44.97595895165857" lon="9.874322338413172"><ele>56.0</ele><time>2026-04-10T16:57:58Z</time></trkpt><trkpt lat="44.976096884801294" lon="9.873999141026987"><ele>56.0</ele><time>2026-04-10T16:57:59Z</time></trkpt><trkpt lat="44.976238593722826" lon="9.873676304068898"><ele>56.0</ele><time>2026-04-10T16:58:00.001Z</time></trkpt><trkpt lat="44.97637338665993" lon="9.873361236853277"><ele>57.5</ele><time>2026-04-10T16:58:01.001Z</time></trkpt><trkpt lat="44.97650543979404" lon="9.873043221931729"><ele>59.0</ele><time>2026-04-10T16:58:02.001Z</time></trkpt><trkpt lat="44.97663728817333" lon="9.872729776760279"><ele>58.0</ele><time>2026-04-10T16:58:03.001Z</time></trkpt><trkpt lat="44.976770002727314" lon="9.872417364234279"><ele>57.0</ele><time>2026-04-10T16:58:04.001Z</time></trkpt><trkpt lat="44.976902560397484" lon="9.872106313952088"><ele>57.0</ele><time>2026-04-10T16:58:05.001Z</time></trkpt><trkpt lat="44.97703656600259" lon="9.871797373447746"><ele>57.0</ele><time>2026-04-10T16:58:06.001Z</time></trkpt><trkpt lat="44.97716473693811" lon="9.871493176677179"><ele>57.5</ele><time>2026-04-10T16:58:07.001Z</time></trkpt><trkpt lat="44.977291618996176" lon="9.871193917634026"><ele>58.0</ele><time>2026-04-10T16:58:08.001Z</time></trkpt><trkpt lat="44.97742493806627" lon="9.870894128478797"><ele>57.0</ele><time>2026-04-10T16:58:09.001Z</time></trkpt><trkpt lat="44.977550560011466" lon="9.870591406740843"><ele>56.0</ele><time>2026-04-10T16:58:10.001Z</time></trkpt><trkpt lat="44.9853048150927" lon="9.852391522876667"><ele>56.0</ele><time>2026-04-10T16:59:11.001Z</time></trkpt><trkpt lat="44.98543232804717" lon="9.852099467050007"><ele>56.0</ele><time>2026-04-10T16:59:12.001Z</time></trkpt><trkpt lat="44.98555827563283" lon="9.85180546130434"><ele>56.0</ele><time>2026-04-10T16:59:13.001Z</time></trkpt><trkpt lat="44.985675474729064" lon="9.85150826092028"><ele>56.0</ele><time>2026-04-10T16:59:14.001Z</time></trkpt><trkpt lat="44.98580277148399" lon="9.85121354620022"><ele>55.5</ele><time>2026-04-10T16:59:15Z</time></trkpt><trkpt lat="44.985931551205496" lon="9.850916745492624"><ele>55.0</ele><time>2026-04-10T16:59:16Z</time></trkpt><trkpt lat="44.986059738193376" lon="9.850619120454889"><ele>55.0</ele><time>2026-04-10T16:59:17Z</time></trkpt><trkpt lat="44.98618756821709" lon="9.850318924133601"><ele>55.0</ele><time>2026-04-10T16:59:18Z</time></trkpt><trkpt lat="44.98631420442885" lon="9.850018556499398"><ele>58.0</ele><time>2026-04-10T16:59:19Z</time></trkpt><trkpt lat="44.98644380658211" lon="9.849716486334689"><ele>61.0</ele><time>2026-04-10T16:59:20Z</time></trkpt><trkpt lat="44.98657200078209" lon="9.84941845789902"><ele>58.5</ele><time>2026-04-10T16:59:21Z</time></trkpt><trkpt lat="44.98669273268902" lon="9.849121043651799"><ele>56.0</ele><time>2026-04-10T16:59:22Z</time></trkpt><trkpt lat="44.98681081347233" lon="9.848831089727886"><ele>56.0</ele><time>2026-04-10T16:59:23Z</time></trkpt><trkpt lat="44.986933375359975" lon="9.848538012715236"><ele>56.0</ele><time>2026-04-10T16:59:24Z</time></trkpt><trkpt lat="44.98705655413504" lon="9.848247975823066"><ele>56.0</ele><time>2026-04-10T16:59:25Z</time></trkpt><trkpt lat="44.98718025817136" lon="9.847960855943363"><ele>56.0</ele><time>2026-04-10T16:59:26Z</time></trkpt><trkpt lat="44.98730328207884" lon="9.847672998955852"><ele>56.0</ele><time>2026-04-10T16:59:27Z</time></trkpt><trkpt lat="44.98742656761199" lon="9.847385095582853"><ele>56.0</ele><time>2026-04-10T16:59:28Z</time></trkpt><trkpt lat="44.98754847161583" lon="9.847094172094165"><ele>55.5</ele><time>2026-04-10T16:59:29Z</time></trkpt><trkpt lat="44.987670322635246" lon="9.846800279733174"><ele>55.0</ele><time>2026-04-10T16:59:30Z</time></trkpt><trkpt lat="44.987789390954504" lon="9.846494872744637"><ele>56.0</ele><time>2026-04-10T16:59:31Z</time></trkpt><trkpt lat="44.98790614714718" lon="9.846196029701874"><ele>57.0</ele><time>2026-04-10T16:59:32Z</time></trkpt><trkpt lat="44.98802832833224" lon="9.845895310094672"><ele>57.5</ele><time>2026-04-10T16:59:33Z</time></trkpt><trkpt lat="44.9881485209496" lon="9.84559213466361"><ele>58.0</ele><time>2026-04-10T16:59:34Z</time></trkpt><trkpt lat="44.98827044252555" lon="9.845283636027501"><ele>56.0</ele><time>2026-04-10T16:59:35Z</time></trkpt><trkpt lat="44.98839321791718" lon="9.844979581253456"><ele>54.0</ele><time>2026-04-10T16:59:36Z</time></trkpt><trkpt lat="44.988516055789106" lon="9.84466757951774"><ele>54.0</ele><time>2026-04-10T16:59:37Z</time></trkpt><trkpt lat="44.98863913958796" lon="9.844353121595239"><ele>54.0</ele><time>2026-04-10T16:59:38Z</time></trkpt><trkpt lat="44.98876168358912" lon="9.844042652951405"><ele>55.5</ele><time>2026-04-10T16:59:39Z</time></trkpt><trkpt lat="44.988884214279544" lon="9.843724725439191"><ele>57.0</ele><time>2026-04-10T16:59:40Z</time></trkpt><trkpt lat="44.989005775663664" lon="9.843407018617185"><ele>57.5</ele><time>2026-04-10T16:59:41Z</time></trkpt><trkpt lat="44.98913047224523" lon="9.84308807374318"><ele>58.0</ele><time>2026-04-10T16:59:42Z</time></trkpt><trkpt lat="44.98925417486861" lon="9.84276796189927"><ele>57.0</ele><time>2026-04-10T16:59:43Z</time></trkpt><trkpt lat="44.989377976162665" lon="9.842444371057773"><ele>56.0</ele><time>2026-04-10T16:59:44Z</time></trkpt><trkpt lat="44.98950012595258" lon="9.842118915838919"><ele>56.5</ele><time>2026-04-10T16:59:45Z</time></trkpt><trkpt lat="44.989624983712055" lon="9.841795286059515"><ele>57.0</ele><time>2026-04-10T16:59:46Z</time></trkpt><trkpt lat="44.989750782795866" lon="9.84146760591003"><ele>57.0</ele><time>2026-04-10T16:59:47Z</time></trkpt><trkpt lat="44.98987989320589" lon="9.841143290813656"><ele>57.0</ele><time>2026-04-10T16:59:48Z</time></trkpt><trkpt lat="44.99000237128122" lon="9.840821336921213"><ele>56.5</ele><time>2026-04-10T16:59:49Z</time></trkpt><trkpt lat="44.99012461297001" lon="9.840501831245131"><ele>56.0</ele><time>2026-04-10T16:59:50Z</time></trkpt><trkpt lat="44.9902457186471" lon="9.840192970774343"><ele>56.5</ele><time>2026-04-10T16:59:51Z</time></trkpt><trkpt lat="44.990366743026975" lon="9.83988891756354"><ele>57.0</ele><time>2026-04-10T16:59:52Z</time></trkpt><trkpt lat="44.99048546884356" lon="9.839586319750822"><ele>56.5</ele><time>2026-04-10T16:59:53Z</time></trkpt><trkpt lat="44.99059941649939" lon="9.839284999583816"><ele>56.0</ele><time>2026-04-10T16:59:54Z</time></trkpt><trkpt lat="44.99071787052604" lon="9.838985969413988"><ele>56.0</ele><time>2026-04-10T16:59:55Z</time></trkpt><trkpt lat="44.99083272107465" lon="9.838688003812758"><ele>56.0</ele><time>2026-04-10T16:59:56Z</time></trkpt><trkpt lat="44.99094575403671" lon="9.838391148517253"><ele>56.0</ele><time>2026-04-10T16:59:57Z</time></trkpt><trkpt lat="44.99106355878893" lon="9.838087357291553"><ele>56.0</ele><time>2026-04-10T16:59:58Z</time></trkpt><trkpt lat="44.9911763047181" lon="9.837773598401322"><ele>56.5</ele><time>2026-04-10T16:59:59Z</time></trkpt><trkpt lat="44.99129927442719" lon="9.837481602685296"><ele>57.0</ele><time>2026-04-10T17:00:00Z</time></trkpt><trkpt lat="44.991414091915274" lon="9.83717641381072"><ele>57.0</ele><time>2026-04-10T17:00:01Z</time></trkpt><trkpt lat="44.99153353256057" lon="9.836873307626284"><ele>57.0</ele><time>2026-04-10T17:00:02Z</time></trkpt><trkpt lat="44.99165356106604" lon="9.836571990474356"><ele>56.5</ele><time>2026-04-10T17:00:03Z</time></trkpt><trkpt lat="44.99177267694092" lon="9.83626968999907"><ele>56.0</ele><time>2026-04-10T17:00:04Z</time></trkpt><trkpt lat="44.9918914770619" lon="9.835966935965098"><ele>56.0</ele><time>2026-04-10T17:00:05Z</time></trkpt><trkpt lat="44.99200856857561" lon="9.835662349217166"><ele>56.0</ele><time>2026-04-10T17:00:06Z</time></trkpt><trkpt lat="44.992122476346914" lon="9.835359343204052"><ele>56.0</ele><time>2026-04-10T17:00:07Z</time></trkpt><trkpt lat="44.992235715297625" lon="9.835049791020198"><ele>56.0</ele><time>2026-04-10T17:00:08Z</time></trkpt><trkpt lat="44.99235100888585" lon="9.8347461887134"><ele>56.0</ele><time>2026-04-10T17:00:09Z</time></trkpt><trkpt lat="44.99247111966735" lon="9.834444128889153"><ele>56.0</ele><time>2026-04-10T17:00:10Z</time></trkpt><trkpt lat="44.99976083390999" lon="9.815709374348744"><ele>56.5</ele><time>2026-04-10T17:01:11.001Z</time></trkpt><trkpt lat="44.9998785803799" lon="9.815397128199903"><ele>57.0</ele><time>2026-04-10T17:01:12.001Z</time></trkpt><trkpt lat="44.999998782726216" lon="9.81508561696534"><ele>57.5</ele><time>2026-04-10T17:01:13.001Z</time></trkpt><trkpt lat="45.00011865744258" lon="9.814776483731482"><ele>58.0</ele><time>2026-04-10T17:01:14.001Z</time></trkpt><trkpt lat="45.00024102505507" lon="9.814469055070738"><ele>58.0</ele><time>2026-04-10T17:01:15.001Z</time></trkpt><trkpt lat="45.00036245915075" lon="9.814164397758352"><ele>58.0</ele><time>2026-04-10T17:01:16.001Z</time></trkpt><trkpt lat="45.00048580214591" lon="9.813853110507894"><ele>58.0</ele><time>2026-04-10T17:01:17.001Z</time></trkpt><trkpt lat="45.000605208713864" lon="9.813540011682893"><ele>58.0</ele><time>2026-04-10T17:01:18.001Z</time></trkpt><trkpt lat="45.00072795504521" lon="9.813224733945715"><ele>56.5</ele><time>2026-04-10T17:01:19.001Z</time></trkpt><trkpt lat="45.00084967733771" lon="9.812907133315253"><ele>55.0</ele><time>2026-04-10T17:01:20.001Z</time></trkpt><trkpt lat="45.00097084420165" lon="9.812589296120162"><ele>55.0</ele><time>2026-04-10T17:01:21Z</time></trkpt><trkpt lat="45.00109233154612" lon="9.812269539637"><ele>55.0</ele><time>2026-04-10T17:01:22Z</time></trkpt><trkpt lat="45.00121676777845" lon="9.811950386192033"><ele>55.5</ele><time>2026-04-10T17:01:23Z</time></trkpt><trkpt lat="45.00134327418486" lon="9.811629193990033"><ele>56.0</ele><time>2026-04-10T17:01:24Z</time></trkpt><trkpt lat="45.001467661834994" lon="9.811306478790284"><ele>56.0</ele><time>2026-04-10T17:01:25Z</time></trkpt><trkpt lat="45.001591714808924" lon="9.810982787166356"><ele>56.0</ele><time>2026-04-10T17:01:26Z</time></trkpt><trkpt lat="45.00171714041897" lon="9.81065926474374"><ele>55.5</ele><time>2026-04-10T17:01:27Z</time></trkpt><trkpt lat="45.001841145650154" lon="9.810342810689272"><ele>55.0</ele><time>2026-04-10T17:01:28Z</time></trkpt><trkpt lat="45.00196217402934" lon="9.810033013694188"><ele>55.0</ele><time>2026-04-10T17:01:29Z</time></trkpt><trkpt lat="45.002083120660416" lon="9.809722755631327"><ele>55.0</ele><time>2026-04-10T17:01:30Z</time></trkpt><trkpt lat="45.00220255298634" lon="9.809413372271091"><ele>55.5</ele><time>2026-04-10T17:01:31Z</time></trkpt><trkpt lat="45.00232104300181" lon="9.809103802296974"><ele>56.0</ele><time>2026-04-10T17:01:32Z</time></trkpt><trkpt lat="45.00244002478683" lon="9.808795526748192"><ele>57.0</ele><time>2026-04-10T17:01:33Z</time></trkpt><trkpt lat="45.00256098011033" lon="9.808487443832627"><ele>58.0</ele><time>2026-04-10T17:01:34Z</time></trkpt><trkpt lat="45.0026809979221" lon="9.808180794124999"><ele>58.0</ele><time>2026-04-10T17:01:35Z</time></trkpt><trkpt lat="45.00280173507351" lon="9.80787128136914"><ele>58.0</ele><time>2026-04-10T17:01:36Z</time></trkpt><trkpt lat="45.00292436740857" lon="9.80755835928821"><ele>57.0</ele><time>2026-04-10T17:01:37Z</time></trkpt><trkpt lat="45.00304621601099" lon="9.807244830256078"><ele>56.0</ele><time>2026-04-10T17:01:38Z</time></trkpt><trkpt lat="45.00316658936911" lon="9.80693254659365"><ele>55.5</ele><time>2026-04-10T17:01:39Z</time></trkpt><trkpt lat="45.003285770810805" lon="9.806616837863974"><ele>55.0</ele><time>2026-04-10T17:01:40Z</time></trkpt><trkpt lat="45.00340696192458" lon="9.80630097438311"><ele>55.0</ele><time>2026-04-10T17:01:41Z</time></trkpt><trkpt lat="45.003527369625445" lon="9.805988181029358"><ele>55.0</ele><time>2026-04-10T17:01:42Z</time></trkpt><trkpt lat="45.003646696291746" lon="9.805679715353577"><ele>55.0</ele><time>2026-04-10T17:01:43Z</time></trkpt><trkpt lat="45.0037664617788" lon="9.805373226381016"><ele>55.0</ele><time>2026-04-10T17:01:44Z</time></trkpt><trkpt lat="45.00388648118117" lon="9.805067688805952"><ele>55.5</ele><time>2026-04-10T17:01:45Z</time></trkpt><trkpt lat="45.004007130593465" lon="9.80476380359602"><ele>56.0</ele><time>2026-04-10T17:01:46Z</time></trkpt><trkpt lat="45.00412635106279" lon="9.80445848124348"><ele>56.0</ele><time>2026-04-10T17:01:47Z</time></trkpt><trkpt lat="45.00424762649095" lon="9.804153336214828"><ele>56.0</ele><time>2026-04-10T17:01:48Z</time></trkpt><trkpt lat="45.00436622444131" lon="9.803847814716248"><ele>56.0</ele><time>2026-04-10T17:01:49Z</time></trkpt><trkpt lat="45.004483188134834" lon="9.80354007160205"><ele>56.0</ele><time>2026-04-10T17:01:50Z</time></trkpt><trkpt lat="45.004602796370506" lon="9.803233205054617"><ele>56.5</ele><time>2026-04-10T17:01:51Z</time></trkpt><trkpt lat="45.00472499063583" lon="9.802925740757058"><ele>57.0</ele><time>2026-04-10T17:01:52Z</time></trkpt><trkpt lat="45.004849809262005" lon="9.80262041010295"><ele>58.0</ele><time>2026-04-10T17:01:53Z</time></trkpt><trkpt lat="45.00496749995685" lon="9.802315951183736"><ele>59.0</ele><time>2026-04-10T17:01:54Z</time></trkpt><trkpt lat="45.00508461179362" lon="9.802002821880135"><ele>58.5</ele><time>2026-04-10T17:01:55Z</time></trkpt><trkpt lat="45.005204902705046" lon="9.801690543036267"><ele>58.0</ele><time>2026-04-10T17:01:56Z</time></trkpt><trkpt lat="45.00532885580947" lon="9.801376864791347"><ele>58.0</ele><time>2026-04-10T17:01:57Z</time></trkpt><trkpt lat="45.005454281642145" lon="9.801064628336983"><ele>58.0</ele><time>2026-04-10T17:01:58Z</time></trkpt><trkpt lat="45.005581415461485" lon="9.800751417575158"><ele>59.0</ele><time>2026-04-10T17:01:59Z</time></trkpt><trkpt lat="45.005709538027816" lon="9.800444861305765"><ele>60.0</ele><time>2026-04-10T17:02:00Z</time></trkpt><trkpt lat="45.00584156330196" lon="9.800136041340574"><ele>60.0</ele><time>2026-04-10T17:02:01Z</time></trkpt><trkpt lat="45.00597371751159" lon="9.799829688396466"><ele>60.0</ele><time>2026-04-10T17:02:02Z</time></trkpt><trkpt lat="45.00610525860926" lon="9.799524752323684"><ele>60.0</ele><time>2026-04-10T17:02:03Z</time></trkpt><trkpt lat="45.00623837856802" lon="9.799220903285484"><ele>60.0</ele><time>2026-04-10T17:02:04Z</time></trkpt><trkpt lat="45.006371856619715" lon="9.798915422120688"><ele>60.0</ele><time>2026-04-10T17:02:05Z</time></trkpt><trkpt lat="45.00650567953647" lon="9.798609272326255"><ele>60.0</ele><time>2026-04-10T17:02:06Z</time></trkpt><trkpt lat="45.006643402322844" lon="9.798306152480189"><ele>58.5</ele><time>2026-04-10T17:02:07Z</time></trkpt><trkpt lat="45.00678211395911" lon="9.79801257162433"><ele>57.0</ele><time>2026-04-10T17:02:08Z</time></trkpt><trkpt lat="45.00691673726927" lon="9.797721510544568"><ele>57.0</ele><time>2026-04-10T17:02:09Z</time></trkpt><trkpt lat="45.007055364336026" lon="9.797429416144883"><ele>57.0</ele><time>2026-04-10T17:02:10Z</time></trkpt><trkpt lat="45.01797965303648" lon="9.781495006308027"><ele>57.0</ele><time>2026-04-10T17:03:11Z</time></trkpt><trkpt lat="45.01818594487308" lon="9.781284458247226"><ele>57.0</ele><time>2026-04-10T17:03:12Z</time></trkpt><trkpt lat="45.01839514819344" lon="9.78107527523948"><ele>57.0</ele><time>2026-04-10T17:03:13Z</time></trkpt><trkpt lat="45.01861017377212" lon="9.780868256643759"><ele>57.0</ele><time>2026-04-10T17:03:14Z</time></trkpt><trkpt lat="45.01882718840815" lon="9.78066263532764"><ele>57.0</ele><time>2026-04-10T17:03:15.001Z</time></trkpt><trkpt lat="45.01904249436908" lon="9.78045115094775"><ele>57.0</ele><time>2026-04-10T17:03:16.001Z</time></trkpt><trkpt lat="45.01925408749163" lon="9.780235756900934"><ele>57.0</ele><time>2026-04-10T17:03:17.001Z</time></trkpt><trkpt lat="45.01946532038439" lon="9.780022915401124"><ele>57.0</ele><time>2026-04-10T17:03:18.001Z</time></trkpt><trkpt lat="45.0196768003153" lon="9.779814928545415"><ele>57.0</ele><time>2026-04-10T17:03:19.001Z</time></trkpt><trkpt lat="45.019887799037946" lon="9.779608972525715"><ele>57.0</ele><time>2026-04-10T17:03:20.001Z</time></trkpt><trkpt lat="45.02009652287341" lon="9.779402680545843"><ele>58.0</ele><time>2026-04-10T17:03:21.001Z</time></trkpt><trkpt lat="45.02030276044123" lon="9.779198898628822"><ele>59.0</ele><time>2026-04-10T17:03:22.001Z</time></trkpt><trkpt lat="45.02051123934758" lon="9.7789953908494"><ele>59.0</ele><time>2026-04-10T17:03:23.001Z</time></trkpt><trkpt lat="45.020717929738105" lon="9.778789661206137"><ele>59.0</ele><time>2026-04-10T17:03:24.001Z</time></trkpt><trkpt lat="45.02092393810899" lon="9.77858157883344"><ele>58.5</ele><time>2026-04-10T17:03:25.001Z</time></trkpt><trkpt lat="45.021130694203116" lon="9.778382560884333"><ele>58.0</ele><time>2026-04-10T17:03:26.001Z</time></trkpt><trkpt lat="45.02133773883892" lon="9.778181001765702"><ele>58.0</ele><time>2026-04-10T17:03:27Z</time></trkpt><trkpt lat="45.02154212340599" lon="9.777976424545642"><ele>58.0</ele><time>2026-04-10T17:03:28Z</time></trkpt><trkpt lat="45.02174968444096" lon="9.777777116063698"><ele>57.5</ele><time>2026-04-10T17:03:29Z</time></trkpt><trkpt lat="45.02195573249429" lon="9.777574594415299"><ele>57.0</ele><time>2026-04-10T17:03:30Z</time></trkpt><trkpt lat="45.02216187123721" lon="9.777369252390436"><ele>57.0</ele><time>2026-04-10T17:03:31Z</time></trkpt><trkpt lat="45.02236823557233" lon="9.777165682588835"><ele>57.0</ele><time>2026-04-10T17:03:32Z</time></trkpt><trkpt lat="45.022574271357485" lon="9.776963514105038"><ele>57.0</ele><time>2026-04-10T17:03:33Z</time></trkpt><trkpt lat="45.02278008716941" lon="9.776763322476368"><ele>57.0</ele><time>2026-04-10T17:03:34Z</time></trkpt><trkpt lat="45.0229846176646" lon="9.776558646048972"><ele>57.0</ele><time>2026-04-10T17:03:35Z</time></trkpt><trkpt lat="45.02318969853245" lon="9.776353266276944"><ele>57.0</ele><time>2026-04-10T17:03:36Z</time></trkpt><trkpt lat="45.02339522385563" lon="9.776152582474795"><ele>55.5</ele><time>2026-04-10T17:03:37Z</time></trkpt><trkpt lat="45.02360051770149" lon="9.775950257132559"><ele>54.0</ele><time>2026-04-10T17:03:38Z</time></trkpt><trkpt lat="45.02380620909058" lon="9.775746452917602"><ele>54.0</ele><time>2026-04-10T17:03:39Z</time></trkpt><trkpt lat="45.0240132729985" lon="9.775540427878429"><ele>54.0</ele><time>2026-04-10T17:03:40Z</time></trkpt><trkpt lat="45.02421703832145" lon="9.775332690497198"><ele>54.5</ele><time>2026-04-10T17:03:41Z</time></trkpt><trkpt lat="45.02442192702254" lon="9.77512730262239"><ele>55.0</ele><time>2026-04-10T17:03:42Z</time></trkpt><trkpt lat="45.02463002515316" lon="9.774925451841936"><ele>55.0</ele><time>2026-04-10T17:03:43Z</time></trkpt><trkpt lat="45.02483889214135" lon="9.77472420022413"><ele>55.0</ele><time>2026-04-10T17:03:44Z</time></trkpt><trkpt lat="45.02504598649764" lon="9.774520867586503"><ele>55.0</ele><time>2026-04-10T17:03:45Z</time></trkpt><trkpt lat="45.025252441211684" lon="9.774316637463944"><ele>55.0</ele><time>2026-04-10T17:03:46Z</time></trkpt><trkpt lat="45.025460873901295" lon="9.77411320795994"><ele>55.0</ele><time>2026-04-10T17:03:47Z</time></trkpt><trkpt lat="45.025668387910976" lon="9.773907348513196"><ele>55.0</ele><time>2026-04-10T17:03:48Z</time></trkpt><trkpt lat="45.02587735448176" lon="9.773701764337204"><ele>53.5</ele><time>2026-04-10T17:03:49Z</time></trkpt><trkpt lat="45.02608576801567" lon="9.773497036490696"><ele>52.0</ele><time>2026-04-10T17:03:50Z</time></trkpt><trkpt lat="45.02629653258526" lon="9.773295742835785"><ele>52.0</ele><time>2026-04-10T17:03:51Z</time></trkpt><trkpt lat="45.02650447413789" lon="9.773093202538943"><ele>52.0</ele><time>2026-04-10T17:03:52Z</time></trkpt><trkpt lat="45.02670859390222" lon="9.772888066361164"><ele>53.0</ele><time>2026-04-10T17:03:53Z</time></trkpt><trkpt lat="45.02691172920746" lon="9.772683864035187"><ele>54.0</ele><time>2026-04-10T17:03:54Z</time></trkpt><trkpt lat="45.02711827990612" lon="9.772482794512209"><ele>54.0</ele><time>2026-04-10T17:03:55Z</time></trkpt><trkpt lat="45.027326551969395" lon="9.772282316162855"><ele>54.0</ele><time>2026-04-10T17:03:56Z</time></trkpt><trkpt lat="45.027533150156245" lon="9.772075356349154"><ele>53.5</ele><time>2026-04-10T17:03:57Z</time></trkpt><trkpt lat="45.02773950664001" lon="9.77186731248858"><ele>53.0</ele><time>2026-04-10T17:03:58Z</time></trkpt><trkpt lat="45.0279493522222" lon="9.771663427669127"><ele>53.0</ele><time>2026-04-10T17:03:59Z</time></trkpt><trkpt lat="45.02815901714367" lon="9.771460070422417"><ele>53.0</ele><time>2026-04-10T17:04:00Z</time></trkpt><trkpt lat="45.02837013131513" lon="9.771254486939641"><ele>54.0</ele><time>2026-04-10T17:04:01Z</time></trkpt><trkpt lat="45.02858069566853" lon="9.77104839947722"><ele>55.0</ele><time>2026-04-10T17:04:02Z</time></trkpt><trkpt lat="45.02878998109783" lon="9.770843638379105"><ele>55.0</ele><time>2026-04-10T17:04:03Z</time></trkpt><trkpt lat="45.02899650999724" lon="9.770635586033583"><ele>55.0</ele><time>2026-04-10T17:04:04Z</time></trkpt><trkpt lat="45.02920044129729" lon="9.770429487360413"><ele>54.5</ele><time>2026-04-10T17:04:05Z</time></trkpt><trkpt lat="45.02940211082668" lon="9.770230032821358"><ele>54.0</ele><time>2026-04-10T17:04:06Z</time></trkpt><trkpt lat="45.02960194224294" lon="9.770034806510257"><ele>54.0</ele><time>2026-04-10T17:04:07Z</time></trkpt><trkpt lat="45.02980260606907" lon="9.769843567817516"><ele>54.0</ele><time>2026-04-10T17:04:08Z</time></trkpt><trkpt lat="45.02999956613453" lon="9.769656357613892"><ele>53.5</ele><time>2026-04-10T17:04:09Z</time></trkpt><trkpt lat="45.0301949763017" lon="9.769476676737332"><ele>53.0</ele><time>2026-04-10T17:04:10Z</time></trkpt><trkpt lat="45.04227797886455" lon="9.757522078931803"><ele>49.5</ele><time>2026-04-10T17:05:11Z</time></trkpt><trkpt lat="45.0424759620114" lon="9.757323554501813"><ele>46.0</ele><time>2026-04-10T17:05:12Z</time></trkpt><trkpt lat="45.04267522308877" lon="9.75712858640831"><ele>46.0</ele><time>2026-04-10T17:05:13Z</time></trkpt><trkpt lat="45.04287677298897" lon="9.756933974546842"><ele>46.0</ele><time>2026-04-10T17:05:14Z</time></trkpt><trkpt lat="45.04307404145874" lon="9.756736216209385"><ele>45.5</ele><time>2026-04-10T17:05:15Z</time></trkpt><trkpt lat="45.043273097652076" lon="9.756534760963495"><ele>45.0</ele><time>2026-04-10T17:05:16Z</time></trkpt><trkpt lat="45.04347252211382" lon="9.756334593400346"><ele>45.0</ele><time>2026-04-10T17:05:17Z</time></trkpt><trkpt lat="45.04367428296899" lon="9.756137193622346"><ele>45.0</ele><time>2026-04-10T17:05:18Z</time></trkpt><trkpt lat="45.04387868226318" lon="9.75593731158143"><ele>45.0</ele><time>2026-04-10T17:05:19Z</time></trkpt><trkpt lat="45.04408264054449" lon="9.755729667285937"><ele>45.0</ele><time>2026-04-10T17:05:20Z</time></trkpt><trkpt lat="45.04428561691546" lon="9.755514904523242"><ele>45.0</ele><time>2026-04-10T17:05:21Z</time></trkpt><trkpt lat="45.04449160879123" lon="9.755299302589005"><ele>45.0</ele><time>2026-04-10T17:05:22Z</time></trkpt><trkpt lat="45.04469731815665" lon="9.755085342401468"><ele>45.5</ele><time>2026-04-10T17:05:23Z</time></trkpt><trkpt lat="45.04491219679697" lon="9.754873497872694"><ele>46.0</ele><time>2026-04-10T17:05:24Z</time></trkpt><trkpt lat="45.04512249123368" lon="9.754665371036909"><ele>46.0</ele><time>2026-04-10T17:05:25Z</time></trkpt><trkpt lat="45.04533502751921" lon="9.754457537213346"><ele>46.0</ele><time>2026-04-10T17:05:26Z</time></trkpt><trkpt lat="45.045547944522625" lon="9.75424824033272"><ele>45.5</ele><time>2026-04-10T17:05:27Z</time></trkpt><trkpt lat="45.04576056901559" lon="9.75403392031888"><ele>45.0</ele><time>2026-04-10T17:05:28Z</time></trkpt><trkpt lat="45.0459740157621" lon="9.753818429787938"><ele>45.0</ele><time>2026-04-10T17:05:29Z</time></trkpt><trkpt lat="45.04618655427971" lon="9.753603560774625"><ele>45.0</ele><time>2026-04-10T17:05:30Z</time></trkpt><trkpt lat="45.04640174102109" lon="9.753393307566961"><ele>45.0</ele><time>2026-04-10T17:05:31Z</time></trkpt><trkpt lat="45.04661956271923" lon="9.753187215347651"><ele>45.0</ele><time>2026-04-10T17:05:32Z</time></trkpt><trkpt lat="45.04683930333873" lon="9.752981151914236"><ele>45.0</ele><time>2026-04-10T17:05:33Z</time></trkpt><trkpt lat="45.047053790156845" lon="9.752769728443138"><ele>45.0</ele><time>2026-04-10T17:05:34Z</time></trkpt><trkpt lat="45.047263276107664" lon="9.75256438993574"><ele>45.5</ele><time>2026-04-10T17:05:35Z</time></trkpt><trkpt lat="45.04747101401193" lon="9.752357020459867"><ele>46.0</ele><time>2026-04-10T17:05:36Z</time></trkpt><trkpt lat="45.0476828763461" lon="9.752145307126623"><ele>46.0</ele><time>2026-04-10T17:05:37Z</time></trkpt><trkpt lat="45.04789535779706" lon="9.751931020393245"><ele>46.0</ele><time>2026-04-10T17:05:38Z</time></trkpt><trkpt lat="45.04810741850797" lon="9.751718936111999"><ele>47.0</ele><time>2026-04-10T17:05:39Z</time></trkpt><trkpt lat="45.04831221582004" lon="9.751519253557893"><ele>48.0</ele><time>2026-04-10T17:05:40Z</time></trkpt><trkpt lat="45.04851808547365" lon="9.751314645738619"><ele>48.0</ele><time>2026-04-10T17:05:41Z</time></trkpt><trkpt lat="45.04873238763524" lon="9.751104585139554"><ele>48.0</ele><time>2026-04-10T17:05:42Z</time></trkpt><trkpt lat="45.048947517018256" lon="9.750890741632407"><ele>46.5</ele><time>2026-04-10T17:05:43Z</time></trkpt><trkpt lat="45.049164557241795" lon="9.75067503976194"><ele>45.0</ele><time>2026-04-10T17:05:44Z</time></trkpt><trkpt lat="45.04937657646834" lon="9.750466517268709"><ele>45.0</ele><time>2026-04-10T17:05:45Z</time></trkpt><trkpt lat="45.04958545845609" lon="9.750267770030392"><ele>45.0</ele><time>2026-04-10T17:05:46Z</time></trkpt><trkpt lat="45.04979391353063" lon="9.750066855144572"><ele>45.5</ele><time>2026-04-10T17:05:47Z</time></trkpt><trkpt lat="45.050000778529856" lon="9.749859977770203"><ele>46.0</ele><time>2026-04-10T17:05:48Z</time></trkpt><trkpt lat="45.050209025574844" lon="9.749651640536584"><ele>46.0</ele><time>2026-04-10T17:05:49Z</time></trkpt><trkpt lat="45.050417002355395" lon="9.749445218787425"><ele>46.0</ele><time>2026-04-10T17:05:50Z</time></trkpt><trkpt lat="45.05062508189904" lon="9.749238892282508"><ele>46.5</ele><time>2026-04-10T17:05:51Z</time></trkpt><trkpt lat="45.050837539592216" lon="9.749029261727888"><ele>47.0</ele><time>2026-04-10T17:05:52Z</time></trkpt><trkpt lat="45.05105148838506" lon="9.74881647757853"><ele>47.0</ele><time>2026-04-10T17:05:53Z</time></trkpt><trkpt lat="45.05126975403945" lon="9.74860107217315"><ele>47.0</ele><time>2026-04-10T17:05:54Z</time></trkpt><trkpt lat="45.0514895918071" lon="9.748387022905916"><ele>47.0</ele><time>2026-04-10T17:05:55Z</time></trkpt><trkpt lat="45.05170919453391" lon="9.74816839166929"><ele>47.0</ele><time>2026-04-10T17:05:56Z</time></trkpt><trkpt lat="45.05192843006203" lon="9.747952966655278"><ele>47.0</ele><time>2026-04-10T17:05:57Z</time></trkpt><trkpt lat="45.05214754511673" lon="9.747738871288298"><ele>47.0</ele><time>2026-04-10T17:05:58Z</time></trkpt><trkpt lat="45.052375971031196" lon="9.747528486705143"><ele>47.5</ele><time>2026-04-10T17:05:59Z</time></trkpt><trkpt lat="45.0525901462422" lon="9.747310702817066"><ele>48.0</ele><time>2026-04-10T17:06:00Z</time></trkpt><trkpt lat="45.052805960012606" lon="9.747094758950164"><ele>48.0</ele><time>2026-04-10T17:06:01Z</time></trkpt><trkpt lat="45.053019219723474" lon="9.746880982247188"><ele>48.0</ele><time>2026-04-10T17:06:02Z</time></trkpt><trkpt lat="45.053227325193745" lon="9.746672340121725"><ele>47.5</ele><time>2026-04-10T17:06:03Z</time></trkpt><trkpt lat="45.0534301646975" lon="9.746476567461384"><ele>47.0</ele><time>2026-04-10T17:06:04Z</time></trkpt><trkpt lat="45.05363503868738" lon="9.746274714067193"><ele>47.0</ele><time>2026-04-10T17:06:05Z</time></trkpt><trkpt lat="45.05384132422998" lon="9.746077439832282"><ele>47.0</ele><time>2026-04-10T17:06:06Z</time></trkpt><trkpt lat="45.054039528443255" lon="9.745877072831295"><ele>46.5</ele><time>2026-04-10T17:06:07Z</time></trkpt><trkpt lat="45.05423596027007" lon="9.745674509752789"><ele>46.0</ele><time>2026-04-10T17:06:08Z</time></trkpt><trkpt lat="45.0544361606041" lon="9.745476649741404"><ele>46.0</ele><time>2026-04-10T17:06:09Z</time></trkpt><trkpt lat="45.054641595842085" lon="9.74527632325318"><ele>46.0</ele><time>2026-04-10T17:06:10Z</time></trkpt><trkpt lat="45.067066304698805" lon="9.73312877013957"><ele>44.5</ele><time>2026-04-10T17:07:11Z</time></trkpt><trkpt lat="45.06727635612109" lon="9.732921986684312"><ele>43.0</ele><time>2026-04-10T17:07:12Z</time></trkpt><trkpt lat="45.06748827567155" lon="9.73271593488685"><ele>47.0</ele><time>2026-04-10T17:07:13Z</time></trkpt><trkpt lat="45.06770173235084" lon="9.732506852651841"><ele>51.0</ele><time>2026-04-10T17:07:14Z</time></trkpt><trkpt lat="45.06791481446462" lon="9.732295351428958"><ele>51.0</ele><time>2026-04-10T17:07:15Z</time></trkpt><trkpt lat="45.06812871417474" lon="9.732082773330154"><ele>51.0</ele><time>2026-04-10T17:07:16Z</time></trkpt><trkpt lat="45.06834098484701" lon="9.731870340120553"><ele>49.5</ele><time>2026-04-10T17:07:17Z</time></trkpt><trkpt lat="45.068556492803516" lon="9.731659002370762"><ele>48.0</ele><time>2026-04-10T17:07:18Z</time></trkpt><trkpt lat="45.06877335247614" lon="9.73144465404635"><ele>48.0</ele><time>2026-04-10T17:07:19Z</time></trkpt><trkpt lat="45.06899080285465" lon="9.731228564707756"><ele>48.0</ele><time>2026-04-10T17:07:20Z</time></trkpt><trkpt lat="45.06920395936738" lon="9.731015842506553"><ele>48.0</ele><time>2026-04-10T17:07:21Z</time></trkpt><trkpt lat="45.06941338596209" lon="9.730801939851967"><ele>48.0</ele><time>2026-04-10T17:07:22Z</time></trkpt><trkpt lat="45.069622388057" lon="9.730593736664426"><ele>48.0</ele><time>2026-04-10T17:07:23Z</time></trkpt><trkpt lat="45.069837490464394" lon="9.730382510442983"><ele>48.0</ele><time>2026-04-10T17:07:24Z</time></trkpt><trkpt lat="45.070050170812706" lon="9.730172899967204"><ele>47.5</ele><time>2026-04-10T17:07:25Z</time></trkpt><trkpt lat="45.07026469529149" lon="9.72996043127735"><ele>47.0</ele><time>2026-04-10T17:07:26Z</time></trkpt><trkpt lat="45.07048103192759" lon="9.729749262753725"><ele>47.0</ele><time>2026-04-10T17:07:27Z</time></trkpt><trkpt lat="45.07069759054534" lon="9.729537623507873"><ele>47.0</ele><time>2026-04-10T17:07:28Z</time></trkpt><trkpt lat="45.07091485101504" lon="9.729322849135098"><ele>48.0</ele><time>2026-04-10T17:07:29Z</time></trkpt><trkpt lat="45.07113249048905" lon="9.729106791030457"><ele>49.0</ele><time>2026-04-10T17:07:30Z</time></trkpt><trkpt lat="45.07135071547715" lon="9.72889002892045"><ele>49.0</ele><time>2026-04-10T17:07:31Z</time></trkpt><trkpt lat="45.07156977641157" lon="9.72867211365811"><ele>49.0</ele><time>2026-04-10T17:07:32Z</time></trkpt><trkpt lat="45.07178610816699" lon="9.728453581321885"><ele>49.5</ele><time>2026-04-10T17:07:33Z</time></trkpt><trkpt lat="45.07200094508369" lon="9.728236027754404"><ele>50.0</ele><time>2026-04-10T17:07:34Z</time></trkpt><trkpt lat="45.07221506949704" lon="9.72801920241698"><ele>50.0</ele><time>2026-04-10T17:07:35Z</time></trkpt><trkpt lat="45.072421051691634" lon="9.727808234878527"><ele>50.0</ele><time>2026-04-10T17:07:36Z</time></trkpt><trkpt lat="45.0726177191106" lon="9.727603323794334"><ele>49.5</ele><time>2026-04-10T17:07:37Z</time></trkpt><trkpt lat="45.07281294049137" lon="9.727395483188666"><ele>49.0</ele><time>2026-04-10T17:07:38Z</time></trkpt><trkpt lat="45.073007813494144" lon="9.727190010838369"><ele>49.0</ele><time>2026-04-10T17:07:39Z</time></trkpt><trkpt lat="45.07320292498162" lon="9.726987485390616"><ele>49.0</ele><time>2026-04-10T17:07:40Z</time></trkpt><trkpt lat="45.073397251875974" lon="9.72679042210233"><ele>48.0</ele><time>2026-04-10T17:07:41Z</time></trkpt><trkpt lat="45.07359148110949" lon="9.72659768506235"><ele>47.0</ele><time>2026-04-10T17:07:42Z</time></trkpt><trkpt lat="45.07378232638652" lon="9.726414328972195"><ele>47.0</ele><time>2026-04-10T17:07:43Z</time></trkpt><trkpt lat="45.07397176594764" lon="9.726230165114513"><ele>47.0</ele><time>2026-04-10T17:07:44Z</time></trkpt><trkpt lat="45.07416076737179" lon="9.726044159585191"><ele>48.0</ele><time>2026-04-10T17:07:45Z</time></trkpt><trkpt lat="45.07434853216759" lon="9.725855875842024"><ele>49.0</ele><time>2026-04-10T17:07:46Z</time></trkpt><trkpt lat="45.074536440462005" lon="9.725664457834561"><ele>49.0</ele><time>2026-04-10T17:07:47Z</time></trkpt><trkpt lat="45.07472254827916" lon="9.725479464004282"><ele>49.0</ele><time>2026-04-10T17:07:48Z</time></trkpt><trkpt lat="45.07490897510221" lon="9.725294119031421"><ele>48.5</ele><time>2026-04-10T17:07:49Z</time></trkpt><trkpt lat="45.07509650619088" lon="9.725108640949559"><ele>48.0</ele><time>2026-04-10T17:07:50Z</time></trkpt><trkpt lat="45.07528338974417" lon="9.72492497019487"><ele>48.0</ele><time>2026-04-10T17:07:51Z</time></trkpt><trkpt lat="45.07547049756154" lon="9.724740245927224"><ele>48.0</ele><time>2026-04-10T17:07:52Z</time></trkpt><trkpt lat="45.07565644120127" lon="9.72455390558625"><ele>47.5</ele><time>2026-04-10T17:07:53Z</time></trkpt><trkpt lat="45.075843139785114" lon="9.724366455287639"><ele>47.0</ele><time>2026-04-10T17:07:54Z</time></trkpt><trkpt lat="45.076033826863195" lon="9.724177820770999"><ele>47.0</ele><time>2026-04-10T17:07:55Z</time></trkpt><trkpt lat="45.07622762466509" lon="9.723988009287549"><ele>47.0</ele><time>2026-04-10T17:07:56Z</time></trkpt><trkpt lat="45.07642171297434" lon="9.723799543354538"><ele>46.666666666666664</ele><time>2026-04-10T17:07:57Z</time></trkpt><trkpt lat="45.07660487741629" lon="9.723621067447315"><ele>46.333333333333336</ele><time>2026-04-10T17:07:58Z</time></trkpt><trkpt lat="45.07678818683998" lon="9.7234373974339"><ele>46.0</ele><time>2026-04-10T17:07:59Z</time></trkpt><trkpt lat="45.07697772169502" lon="9.723250208769219"><ele>46.0</ele><time>2026-04-10T17:08:00Z</time></trkpt><trkpt lat="45.077171633668804" lon="9.723057055474042"><ele>46.0</ele><time>2026-04-10T17:08:01Z</time></trkpt><trkpt lat="45.07736747976962" lon="9.722863352829515"><ele>46.5</ele><time>2026-04-10T17:08:02Z</time></trkpt><trkpt lat="45.077566205379426" lon="9.72266583798912"><ele>47.0</ele><time>2026-04-10T17:08:03Z</time></trkpt><trkpt lat="45.077761956233275" lon="9.722469938554164"><ele>47.0</ele><time>2026-04-10T17:08:04Z</time></trkpt><trkpt lat="45.07796122178877" lon="9.722270639654974"><ele>47.0</ele><time>2026-04-10T17:08:05Z</time></trkpt><trkpt lat="45.07815974937678" lon="9.722071795220119"><ele>47.0</ele><time>2026-04-10T17:08:06Z</time></trkpt><trkpt lat="45.078349160432026" lon="9.721875788210339"><ele>47.0</ele><time>2026-04-10T17:08:07Z</time></trkpt><trkpt lat="45.07853808531428" lon="9.721677521166342"><ele>47.0</ele><time>2026-04-10T17:08:08Z</time></trkpt><trkpt lat="45.07873026796519" lon="9.721480579893209"><ele>47.0</ele><time>2026-04-10T17:08:09Z</time></trkpt><trkpt lat="45.07892445508009" lon="9.721278204591822"><ele>43.0</ele><time>2026-04-10T17:08:10Z</time></trkpt><trkpt lat="45.09108288441272" lon="9.7081993645101"><ele>43.0</ele><time>2026-04-10T17:09:11Z</time></trkpt><trkpt lat="45.091268718160464" lon="9.707992395470164"><ele>43.0</ele><time>2026-04-10T17:09:12Z</time></trkpt><trkpt lat="45.0914578001874" lon="9.707787145506433"><ele>45.0</ele><time>2026-04-10T17:09:13Z</time></trkpt><trkpt lat="45.09164683373728" lon="9.707585168913571"><ele>47.0</ele><time>2026-04-10T17:09:14Z</time></trkpt><trkpt lat="45.09183924111145" lon="9.707377012349605"><ele>47.0</ele><time>2026-04-10T17:09:15Z</time></trkpt><trkpt lat="45.09202992237995" lon="9.70716831785611"><ele>47.0</ele><time>2026-04-10T17:09:16Z</time></trkpt><trkpt lat="45.092223029649745" lon="9.706957843874001"><ele>46.5</ele><time>2026-04-10T17:09:17Z</time></trkpt><trkpt lat="45.092411139468304" lon="9.706733723929144"><ele>46.0</ele><time>2026-04-10T17:09:18Z</time></trkpt><trkpt lat="45.09259796622352" lon="9.70650663346358"><ele>45.0</ele><time>2026-04-10T17:09:19Z</time></trkpt><trkpt lat="45.092804424371046" lon="9.70633084559918"><ele>44.0</ele><time>2026-04-10T17:09:20Z</time></trkpt><trkpt lat="45.09299975030083" lon="9.706125657675896"><ele>44.0</ele><time>2026-04-10T17:09:21Z</time></trkpt><trkpt lat="45.09319518852363" lon="9.705919581409184"><ele>44.0</ele><time>2026-04-10T17:09:22Z</time></trkpt><trkpt lat="45.0934025152144" lon="9.70574933283546"><ele>44.0</ele><time>2026-04-10T17:09:23Z</time></trkpt><trkpt lat="45.09359073049491" lon="9.705508118333622"><ele>44.0</ele><time>2026-04-10T17:09:24Z</time></trkpt><trkpt lat="45.09378559080689" lon="9.705297359032235"><ele>44.0</ele><time>2026-04-10T17:09:25Z</time></trkpt><trkpt lat="45.09398331499698" lon="9.705087496454757"><ele>44.0</ele><time>2026-04-10T17:09:26Z</time></trkpt><trkpt lat="45.09417589875152" lon="9.704872267877914"><ele>44.0</ele><time>2026-04-10T17:09:27Z</time></trkpt><trkpt lat="45.094368040321136" lon="9.70466520201714"><ele>44.0</ele><time>2026-04-10T17:09:28Z</time></trkpt><trkpt lat="45.09456209850138" lon="9.704451368247394"><ele>44.5</ele><time>2026-04-10T17:09:29Z</time></trkpt><trkpt lat="45.094760282838855" lon="9.704243455026727"><ele>45.0</ele><time>2026-04-10T17:09:30Z</time></trkpt><trkpt lat="45.094958700699465" lon="9.704029249472654"><ele>45.0</ele><time>2026-04-10T17:09:31Z</time></trkpt><trkpt lat="45.095162210755305" lon="9.703811896103675"><ele>45.0</ele><time>2026-04-10T17:09:32Z</time></trkpt><trkpt lat="45.09536581767678" lon="9.703594653545958"><ele>44.5</ele><time>2026-04-10T17:09:33Z</time></trkpt><trkpt lat="45.09556787318674" lon="9.703375035494478"><ele>44.0</ele><time>2026-04-10T17:09:34Z</time></trkpt><trkpt lat="45.095767399734754" lon="9.70315631607431"><ele>44.0</ele><time>2026-04-10T17:09:35Z</time></trkpt><trkpt lat="45.095969583736725" lon="9.702932638509912"><ele>44.0</ele><time>2026-04-10T17:09:36Z</time></trkpt><trkpt lat="45.096171811145005" lon="9.702715387798076"><ele>44.0</ele><time>2026-04-10T17:09:37Z</time></trkpt><trkpt lat="45.09637550794883" lon="9.702491119351158"><ele>44.0</ele><time>2026-04-10T17:09:38Z</time></trkpt><trkpt lat="45.09658279755485" lon="9.702272733619363"><ele>44.5</ele><time>2026-04-10T17:09:39Z</time></trkpt><trkpt lat="45.096789709412775" lon="9.70206121640172"><ele>45.0</ele><time>2026-04-10T17:09:40Z</time></trkpt><trkpt lat="45.097000943417" lon="9.701838105109681"><ele>45.0</ele><time>2026-04-10T17:09:41Z</time></trkpt><trkpt lat="45.09720140641489" lon="9.701623543889365"><ele>45.0</ele><time>2026-04-10T17:09:42Z</time></trkpt><trkpt lat="45.09740855972133" lon="9.70140033530277"><ele>45.0</ele><time>2026-04-10T17:09:43Z</time></trkpt><trkpt lat="45.09761354455897" lon="9.701173326601909"><ele>45.0</ele><time>2026-04-10T17:09:44Z</time></trkpt><trkpt lat="45.09782127784899" lon="9.70095228153378"><ele>44.0</ele><time>2026-04-10T17:09:45Z</time></trkpt><trkpt lat="45.09802613958113" lon="9.70072898514318"><ele>43.0</ele><time>2026-04-10T17:09:46Z</time></trkpt><trkpt lat="45.098233898029626" lon="9.700502007505811"><ele>43.0</ele><time>2026-04-10T17:09:47Z</time></trkpt><trkpt lat="45.098437172486214" lon="9.700279401168016"><ele>43.0</ele><time>2026-04-10T17:09:48Z</time></trkpt><trkpt lat="45.09864210343669" lon="9.700057862621607"><ele>43.0</ele><time>2026-04-10T17:09:49Z</time></trkpt><trkpt lat="45.098845195119175" lon="9.699831505303546"><ele>43.0</ele><time>2026-04-10T17:09:50Z</time></trkpt><trkpt lat="45.09904792630373" lon="9.699626588301728"><ele>44.0</ele><time>2026-04-10T17:09:51Z</time></trkpt><trkpt lat="45.099253243526164" lon="9.699405713359795"><ele>45.0</ele><time>2026-04-10T17:09:52Z</time></trkpt><trkpt lat="45.09945736080275" lon="9.699183162767634"><ele>45.0</ele><time>2026-04-10T17:09:53Z</time></trkpt><trkpt lat="45.09966660679893" lon="9.698962693609667"><ele>45.0</ele><time>2026-04-10T17:09:54Z</time></trkpt><trkpt lat="45.09987426594363" lon="9.698738651245277"><ele>46.5</ele><time>2026-04-10T17:09:55Z</time></trkpt><trkpt lat="45.10008287526748" lon="9.698515600119773"><ele>48.0</ele><time>2026-04-10T17:09:56Z</time></trkpt><trkpt lat="45.100289210307196" lon="9.69829396568619"><ele>48.0</ele><time>2026-04-10T17:09:57Z</time></trkpt><trkpt lat="45.10049650201829" lon="9.698074734475997"><ele>48.0</ele><time>2026-04-10T17:09:58Z</time></trkpt><trkpt lat="45.10070627710597" lon="9.697846231897698"><ele>47.0</ele><time>2026-04-10T17:09:59Z</time></trkpt><trkpt lat="45.10091743959683" lon="9.697612939558889"><ele>46.0</ele><time>2026-04-10T17:10:00Z</time></trkpt><trkpt lat="45.10111814869588" lon="9.697403000586087"><ele>46.0</ele><time>2026-04-10T17:10:01Z</time></trkpt><trkpt lat="45.10132999086187" lon="9.697172059905565"><ele>46.0</ele><time>2026-04-10T17:10:02Z</time></trkpt><trkpt lat="45.10153241546709" lon="9.696947960414782"><ele>45.0</ele><time>2026-04-10T17:10:03Z</time></trkpt><trkpt lat="45.10173698360735" lon="9.696726174954847"><ele>44.0</ele><time>2026-04-10T17:10:04Z</time></trkpt><trkpt lat="45.101943559693666" lon="9.696507266516722"><ele>44.0</ele><time>2026-04-10T17:10:05Z</time></trkpt><trkpt lat="45.102147677182934" lon="9.69628370647196"><ele>44.0</ele><time>2026-04-10T17:10:06Z</time></trkpt><trkpt lat="45.102352768417326" lon="9.696060350361964"><ele>44.5</ele><time>2026-04-10T17:10:07Z</time></trkpt><trkpt lat="45.10255544410891" lon="9.695854241452938"><ele>45.0</ele><time>2026-04-10T17:10:08Z</time></trkpt><trkpt lat="45.1027601182853" lon="9.695619429518729"><ele>45.0</ele><time>2026-04-10T17:10:09Z</time></trkpt><trkpt lat="45.102963715472164" lon="9.69540530622663"><ele>45.0</ele><time>2026-04-10T17:10:10Z</time></trkpt><trkpt lat="45.11480264180431" lon="9.681108690294977"><ele>45.0</ele><time>2026-04-10T17:11:11Z</time></trkpt><trkpt lat="45.11496159451645" lon="9.680882599184276"><ele>45.0</ele><time>2026-04-10T17:11:12Z</time></trkpt><trkpt lat="45.11511989228272" lon="9.68065573946496"><ele>45.0</ele><time>2026-04-10T17:11:13Z</time></trkpt><trkpt lat="45.115276059935574" lon="9.68043118610655"><ele>45.0</ele><time>2026-04-10T17:11:14Z</time></trkpt><trkpt lat="45.115438482841206" lon="9.680199677530936"><ele>45.0</ele><time>2026-04-10T17:11:15Z</time></trkpt><trkpt lat="45.115601278367876" lon="9.679966176375633"><ele>45.0</ele><time>2026-04-10T17:11:16Z</time></trkpt><trkpt lat="45.115760018541245" lon="9.679743425814303"><ele>45.0</ele><time>2026-04-10T17:11:17Z</time></trkpt><trkpt lat="45.115921351950554" lon="9.679509751239241"><ele>45.0</ele><time>2026-04-10T17:11:18Z</time></trkpt><trkpt lat="45.116087300204924" lon="9.679267779499916"><ele>45.0</ele><time>2026-04-10T17:11:19Z</time></trkpt><trkpt lat="45.11625550975521" lon="9.679023779337157"><ele>45.0</ele><time>2026-04-10T17:11:20Z</time></trkpt><trkpt lat="45.116424018302666" lon="9.678782772782348"><ele>44.5</ele><time>2026-04-10T17:11:21Z</time></trkpt><trkpt lat="45.11659501370194" lon="9.678536483046157"><ele>44.0</ele><time>2026-04-10T17:11:22Z</time></trkpt><trkpt lat="45.11676374666543" lon="9.67829296803007"><ele>44.0</ele><time>2026-04-10T17:11:23Z</time></trkpt><trkpt lat="45.11693351919627" lon="9.678051079894791"><ele>44.0</ele><time>2026-04-10T17:11:24Z</time></trkpt><trkpt lat="45.11709850750567" lon="9.677814018700738"><ele>44.0</ele><time>2026-04-10T17:11:25Z</time></trkpt><trkpt lat="45.11726676344969" lon="9.67757470574782"><ele>44.0</ele><time>2026-04-10T17:11:26Z</time></trkpt><trkpt lat="45.11742953894916" lon="9.677334386562814"><ele>44.0</ele><time>2026-04-10T17:11:27Z</time></trkpt><trkpt lat="45.11759524500459" lon="9.677096432835743"><ele>44.0</ele><time>2026-04-10T17:11:28Z</time></trkpt><trkpt lat="45.117762739027334" lon="9.676858292429209"><ele>45.5</ele><time>2026-04-10T17:11:29Z</time></trkpt><trkpt lat="45.11793650335688" lon="9.67659851007884"><ele>47.0</ele><time>2026-04-10T17:11:30Z</time></trkpt><trkpt lat="45.118091617292365" lon="9.676369254310407"><ele>46.5</ele><time>2026-04-10T17:11:31Z</time></trkpt><trkpt lat="45.11825001784337" lon="9.676133319300572"><ele>46.0</ele><time>2026-04-10T17:11:32Z</time></trkpt><trkpt lat="45.11840893598887" lon="9.675900478605154"><ele>45.5</ele><time>2026-04-10T17:11:33Z</time></trkpt><trkpt lat="45.118573900046655" lon="9.675666759603294"><ele>45.0</ele><time>2026-04-10T17:11:34Z</time></trkpt><trkpt lat="45.118743275666034" lon="9.675433623090493"><ele>45.0</ele><time>2026-04-10T17:11:35Z</time></trkpt><trkpt lat="45.118906377388285" lon="9.675203200382528"><ele>45.0</ele><time>2026-04-10T17:11:36Z</time></trkpt><trkpt lat="45.11906982254107" lon="9.674971956706626"><ele>44.0</ele><time>2026-04-10T17:11:37Z</time></trkpt><trkpt lat="45.119232841074655" lon="9.674734569325317"><ele>43.0</ele><time>2026-04-10T17:11:38Z</time></trkpt><trkpt lat="45.11939926857236" lon="9.674492433232967"><ele>43.5</ele><time>2026-04-10T17:11:39Z</time></trkpt><trkpt lat="45.119569640072804" lon="9.674250105101262"><ele>44.0</ele><time>2026-04-10T17:11:40Z</time></trkpt><trkpt lat="45.11974116544892" lon="9.674003517455269"><ele>44.5</ele><time>2026-04-10T17:11:41Z</time></trkpt><trkpt lat="45.11991255796523" lon="9.673754975691898"><ele>45.0</ele><time>2026-04-10T17:11:42Z</time></trkpt><trkpt lat="45.120085917248865" lon="9.67350787908139"><ele>46.0</ele><time>2026-04-10T17:11:43Z</time></trkpt><trkpt lat="45.12025646064934" lon="9.673256657909992"><ele>47.0</ele><time>2026-04-10T17:11:44Z</time></trkpt><trkpt lat="45.120429679982855" lon="9.673000669916902"><ele>47.0</ele><time>2026-04-10T17:11:45Z</time></trkpt><trkpt lat="45.12060446227568" lon="9.672742767003891"><ele>47.0</ele><time>2026-04-10T17:11:46Z</time></trkpt><trkpt lat="45.12078496846318" lon="9.672482619984873"><ele>46.5</ele><time>2026-04-10T17:11:47Z</time></trkpt><trkpt lat="45.120965153087205" lon="9.672227912267537"><ele>46.0</ele><time>2026-04-10T17:11:48Z</time></trkpt><trkpt lat="45.12114505994593" lon="9.67197349986897"><ele>46.0</ele><time>2026-04-10T17:11:49Z</time></trkpt><trkpt lat="45.12132808430481" lon="9.671719852438134"><ele>46.0</ele><time>2026-04-10T17:11:50Z</time></trkpt><trkpt lat="45.12150739865676" lon="9.671462381431535"><ele>45.5</ele><time>2026-04-10T17:11:51Z</time></trkpt><trkpt lat="45.12168846361682" lon="9.67120374649093"><ele>45.0</ele><time>2026-04-10T17:11:52Z</time></trkpt><trkpt lat="45.12186913170353" lon="9.670939199444957"><ele>45.0</ele><time>2026-04-10T17:11:53Z</time></trkpt><trkpt lat="45.12204931997586" lon="9.670675652657922"><ele>45.0</ele><time>2026-04-10T17:11:54Z</time></trkpt><trkpt lat="45.12223092149285" lon="9.670411991405595"><ele>44.5</ele><time>2026-04-10T17:11:55Z</time></trkpt><trkpt lat="45.12241359809584" lon="9.670150490553583"><ele>44.0</ele><time>2026-04-10T17:11:56Z</time></trkpt><trkpt lat="45.122597880080825" lon="9.669885222893441"><ele>44.0</ele><time>2026-04-10T17:11:57Z</time></trkpt><trkpt lat="45.12277557547504" lon="9.669620241952565"><ele>44.0</ele><time>2026-04-10T17:11:58Z</time></trkpt><trkpt lat="45.12295897405075" lon="9.669352659025032"><ele>44.0</ele><time>2026-04-10T17:11:59Z</time></trkpt><trkpt lat="45.123141635318845" lon="9.66908725657651"><ele>44.0</ele><time>2026-04-10T17:12:00Z</time></trkpt><trkpt lat="45.12332138946362" lon="9.668826155745647"><ele>44.5</ele><time>2026-04-10T17:12:01Z</time></trkpt><trkpt lat="45.12350409615523" lon="9.668563749678249"><ele>45.0</ele><time>2026-04-10T17:12:02Z</time></trkpt><trkpt lat="45.123684381566996" lon="9.668303123167483"><ele>45.0</ele><time>2026-04-10T17:12:03Z</time></trkpt><trkpt lat="45.123864491638194" lon="9.668046207440504"><ele>45.0</ele><time>2026-04-10T17:12:04Z</time></trkpt><trkpt lat="45.124046310887294" lon="9.667788668096767"><ele>44.5</ele><time>2026-04-10T17:12:05Z</time></trkpt><trkpt lat="45.12422986918705" lon="9.66753239393257"><ele>44.0</ele><time>2026-04-10T17:12:06Z</time></trkpt><trkpt lat="45.12440959655547" lon="9.667276366935221"><ele>44.0</ele><time>2026-04-10T17:12:07Z</time></trkpt><trkpt lat="45.12458756119737" lon="9.667017049211935"><ele>44.0</ele><time>2026-04-10T17:12:08Z</time></trkpt><trkpt lat="45.124762757718585" lon="9.666758642331676"><ele>45.0</ele><time>2026-04-10T17:12:09Z</time></trkpt><trkpt lat="45.124940310230095" lon="9.66650276599003"><ele>46.0</ele><time>2026-04-10T17:12:10Z</time></trkpt><trkpt lat="45.134470659139495" lon="9.649220490409608"><ele>46.0</ele><time>2026-04-10T17:13:11Z</time></trkpt><trkpt lat="45.134617002652845" lon="9.648927604592568"><ele>46.0</ele><time>2026-04-10T17:13:12Z</time></trkpt><trkpt lat="45.13476610417507" lon="9.648637692356862"><ele>46.5</ele><time>2026-04-10T17:13:13Z</time></trkpt><trkpt lat="45.134917194891095" lon="9.648347535124191"><ele>47.0</ele><time>2026-04-10T17:13:14Z</time></trkpt><trkpt lat="45.13506633010446" lon="9.648053213039933"><ele>47.5</ele><time>2026-04-10T17:13:15Z</time></trkpt><trkpt lat="45.13521496012687" lon="9.647758563982789"><ele>48.0</ele><time>2026-04-10T17:13:16Z</time></trkpt><trkpt lat="45.13536527317958" lon="9.64746715024218"><ele>48.0</ele><time>2026-04-10T17:13:17Z</time></trkpt><trkpt lat="45.135516981350314" lon="9.647177383954599"><ele>48.0</ele><time>2026-04-10T17:13:18Z</time></trkpt><trkpt lat="45.13566995475148" lon="9.646888250857442"><ele>47.0</ele><time>2026-04-10T17:13:19Z</time></trkpt><trkpt lat="45.13582069027919" lon="9.64659730713956"><ele>46.0</ele><time>2026-04-10T17:13:20Z</time></trkpt><trkpt lat="45.13597104726961" lon="9.6463021756993"><ele>46.0</ele><time>2026-04-10T17:13:21Z</time></trkpt><trkpt lat="45.13612291475059" lon="9.64600496200344"><ele>46.0</ele><time>2026-04-10T17:13:22Z</time></trkpt><trkpt lat="45.13627365662276" lon="9.64570919130855"><ele>46.0</ele><time>2026-04-10T17:13:23Z</time></trkpt><trkpt lat="45.13642499482937" lon="9.645413130291947"><ele>46.0</ele><time>2026-04-10T17:13:24Z</time></trkpt><trkpt lat="45.13657794471211" lon="9.645113749767404"><ele>47.0</ele><time>2026-04-10T17:13:25Z</time></trkpt><trkpt lat="45.13672852124105" lon="9.644816142851033"><ele>48.0</ele><time>2026-04-10T17:13:26Z</time></trkpt><trkpt lat="45.136878733051546" lon="9.644518406762538"><ele>48.0</ele><time>2026-04-10T17:13:27Z</time></trkpt><trkpt lat="45.13703011074735" lon="9.644221772759463"><ele>48.0</ele><time>2026-04-10T17:13:28Z</time></trkpt><trkpt lat="45.13718200640656" lon="9.643926275134028"><ele>48.0</ele><time>2026-04-10T17:13:29Z</time></trkpt><trkpt lat="45.1373350976167" lon="9.643627821903003"><ele>48.0</ele><time>2026-04-10T17:13:30Z</time></trkpt><trkpt lat="45.1374881736296" lon="9.643328776560974"><ele>48.0</ele><time>2026-04-10T17:13:31Z</time></trkpt><trkpt lat="45.137641531803645" lon="9.643031506706686"><ele>48.0</ele><time>2026-04-10T17:13:32Z</time></trkpt><trkpt lat="45.13779422892284" lon="9.642733759418606"><ele>49.5</ele><time>2026-04-10T17:13:33Z</time></trkpt><trkpt lat="45.13794799063767" lon="9.64243203652369"><ele>51.0</ele><time>2026-04-10T17:13:34Z</time></trkpt><trkpt lat="45.13810130057792" lon="9.642130857600463"><ele>50.5</ele><time>2026-04-10T17:13:35Z</time></trkpt><trkpt lat="45.138257184540265" lon="9.641836398821976"><ele>50.0</ele><time>2026-04-10T17:13:36Z</time></trkpt><trkpt lat="45.138411027505995" lon="9.641539208260893"><ele>50.0</ele><time>2026-04-10T17:13:37Z</time></trkpt><trkpt lat="45.13856400730428" lon="9.641240598382238"><ele>50.0</ele><time>2026-04-10T17:13:38Z</time></trkpt><trkpt lat="45.13871645420783" lon="9.640940617050909"><ele>49.5</ele><time>2026-04-10T17:13:39Z</time></trkpt><trkpt lat="45.13886937583109" lon="9.640639912191022"><ele>49.0</ele><time>2026-04-10T17:13:40Z</time></trkpt><trkpt lat="45.139022578503315" lon="9.640338313305673"><ele>49.0</ele><time>2026-04-10T17:13:41Z</time></trkpt><trkpt lat="45.139174430341555" lon="9.640035841038863"><ele>49.0</ele><time>2026-04-10T17:13:42Z</time></trkpt><trkpt lat="45.13932583348649" lon="9.639735458284374"><ele>48.5</ele><time>2026-04-10T17:13:43Z</time></trkpt><trkpt lat="45.139478409992606" lon="9.639437217799825"><ele>48.0</ele><time>2026-04-10T17:13:44Z</time></trkpt><trkpt lat="45.1396315320366" lon="9.639137563399498"><ele>48.0</ele><time>2026-04-10T17:13:45Z</time></trkpt><trkpt lat="45.13978376695781" lon="9.638841508367149"><ele>48.0</ele><time>2026-04-10T17:13:46Z</time></trkpt><trkpt lat="45.13993589472709" lon="9.638539544583546"><ele>48.5</ele><time>2026-04-10T17:13:47Z</time></trkpt><trkpt lat="45.14008807530637" lon="9.63824585264318"><ele>49.0</ele><time>2026-04-10T17:13:48Z</time></trkpt><trkpt lat="45.14024052990315" lon="9.63795477166428"><ele>48.5</ele><time>2026-04-10T17:13:49Z</time></trkpt><trkpt lat="45.14039322270654" lon="9.637663211631407"><ele>48.0</ele><time>2026-04-10T17:13:50Z</time></trkpt><trkpt lat="45.140548111079205" lon="9.637373371788797"><ele>48.0</ele><time>2026-04-10T17:13:51Z</time></trkpt><trkpt lat="45.1407038966315" lon="9.63708494439892"><ele>48.0</ele><time>2026-04-10T17:13:52Z</time></trkpt><trkpt lat="45.14086167362389" lon="9.636797974971458"><ele>48.0</ele><time>2026-04-10T17:13:53Z</time></trkpt><trkpt lat="45.14102426596821" lon="9.636513628212082"><ele>48.0</ele><time>2026-04-10T17:13:54Z</time></trkpt><trkpt lat="45.14118800316229" lon="9.63623999299058"><ele>48.5</ele><time>2026-04-10T17:13:55Z</time></trkpt><trkpt lat="45.14135632567676" lon="9.635970423531074"><ele>49.0</ele><time>2026-04-10T17:13:56Z</time></trkpt><trkpt lat="45.1415269340148" lon="9.635707032859564"><ele>48.5</ele><time>2026-04-10T17:13:57Z</time></trkpt><trkpt lat="45.14170450743619" lon="9.635450528531042"><ele>48.0</ele><time>2026-04-10T17:13:58Z</time></trkpt><trkpt lat="45.14187748812842" lon="9.635189905718988"><ele>49.5</ele><time>2026-04-10T17:13:59Z</time></trkpt><trkpt lat="45.14205108289487" lon="9.634930724298867"><ele>51.0</ele><time>2026-04-10T17:14:00Z</time></trkpt><trkpt lat="45.142229374387355" lon="9.634679282415071"><ele>53.0</ele><time>2026-04-10T17:14:01Z</time></trkpt><trkpt lat="45.14240816605127" lon="9.634429213486865"><ele>55.0</ele><time>2026-04-10T17:14:02Z</time></trkpt><trkpt lat="45.142584561599826" lon="9.634178868031277"><ele>55.0</ele><time>2026-04-10T17:14:03Z</time></trkpt><trkpt lat="45.14276078030241" lon="9.633933376724032"><ele>55.0</ele><time>2026-04-10T17:14:04Z</time></trkpt><trkpt lat="45.14293390746004" lon="9.63368608157066"><ele>55.0</ele><time>2026-04-10T17:14:05Z</time></trkpt><trkpt lat="45.14310771275206" lon="9.633439413662984"><ele>55.0</ele><time>2026-04-10T17:14:06Z</time></trkpt><trkpt lat="45.14328391309886" lon="9.633200275561801"><ele>55.0</ele><time>2026-04-10T17:14:07Z</time></trkpt><trkpt lat="45.14346234550131" lon="9.63295889205228"><ele>55.0</ele><time>2026-04-10T17:14:08Z</time></trkpt><trkpt lat="45.14364016673243" lon="9.632710483531394"><ele>56.0</ele><time>2026-04-10T17:14:09Z</time></trkpt><trkpt lat="45.14381608601448" lon="9.632458185639425"><ele>57.0</ele><time>2026-04-10T17:14:10Z</time></trkpt><trkpt lat="45.15456943435518" lon="9.617426506576951"><ele>58.0</ele><time>2026-04-10T17:15:11Z</time></trkpt><trkpt lat="45.15473883109357" lon="9.617187920029185"><ele>59.0</ele><time>2026-04-10T17:15:12Z</time></trkpt><trkpt lat="45.15491389967667" lon="9.616945838266533"><ele>59.0</ele><time>2026-04-10T17:15:13Z</time></trkpt><trkpt lat="45.1550899060938" lon="9.616703706704573"><ele>59.0</ele><time>2026-04-10T17:15:14Z</time></trkpt><trkpt lat="45.15526568889578" lon="9.616460187158916"><ele>59.0</ele><time>2026-04-10T17:15:15Z</time></trkpt><trkpt lat="45.15543983244403" lon="9.616222086134469"><ele>59.0</ele><time>2026-04-10T17:15:16Z</time></trkpt><trkpt lat="45.15561545535806" lon="9.61597790177996"><ele>59.5</ele><time>2026-04-10T17:15:17Z</time></trkpt><trkpt lat="45.15578898566686" lon="9.615731450623187"><ele>60.0</ele><time>2026-04-10T17:15:18Z</time></trkpt><trkpt lat="45.15596463395725" lon="9.6154864286613"><ele>60.5</ele><time>2026-04-10T17:15:19Z</time></trkpt><trkpt lat="45.15613985929708" lon="9.61524070869135"><ele>61.0</ele><time>2026-04-10T17:15:20Z</time></trkpt><trkpt lat="45.15631511899102" lon="9.61499060088606"><ele>61.0</ele><time>2026-04-10T17:15:21Z</time></trkpt><trkpt lat="45.15649351710086" lon="9.614745464496728"><ele>61.0</ele><time>2026-04-10T17:15:22Z</time></trkpt><trkpt lat="45.156669029296104" lon="9.614494227633951"><ele>60.0</ele><time>2026-04-10T17:15:23Z</time></trkpt><trkpt lat="45.15684547119473" lon="9.614246326910857"><ele>59.0</ele><time>2026-04-10T17:15:24Z</time></trkpt><trkpt lat="45.15702489281449" lon="9.613998798067614"><ele>59.0</ele><time>2026-04-10T17:15:25Z</time></trkpt><trkpt lat="45.157204081802604" lon="9.61374990217651"><ele>59.0</ele><time>2026-04-10T17:15:26Z</time></trkpt><trkpt lat="45.15738132802945" lon="9.61350046493499"><ele>59.5</ele><time>2026-04-10T17:15:27Z</time></trkpt><trkpt lat="45.15756041226334" lon="9.613244268888707"><ele>60.0</ele><time>2026-04-10T17:15:28Z</time></trkpt><trkpt lat="45.15774230173673" lon="9.612993223545557"><ele>60.0</ele><time>2026-04-10T17:15:29Z</time></trkpt><trkpt lat="45.157921544668426" lon="9.612747890621913"><ele>60.0</ele><time>2026-04-10T17:15:30Z</time></trkpt><trkpt lat="45.158105907727965" lon="9.612501141261998"><ele>60.0</ele><time>2026-04-10T17:15:31Z</time></trkpt><trkpt lat="45.15829081938296" lon="9.61224860997853"><ele>60.0</ele><time>2026-04-10T17:15:32Z</time></trkpt><trkpt lat="45.15847717552117" lon="9.611990611827155"><ele>60.0</ele><time>2026-04-10T17:15:33Z</time></trkpt><trkpt lat="45.15866228968007" lon="9.61173262050804"><ele>60.0</ele><time>2026-04-10T17:15:34Z</time></trkpt><trkpt lat="45.15884342523068" lon="9.611481402684092"><ele>60.0</ele><time>2026-04-10T17:15:35Z</time></trkpt><trkpt lat="45.159016223515955" lon="9.611231594544847"><ele>60.0</ele><time>2026-04-10T17:15:36Z</time></trkpt><trkpt lat="45.15919172092438" lon="9.61098571873891"><ele>60.5</ele><time>2026-04-10T17:15:37Z</time></trkpt><trkpt lat="45.159364241161796" lon="9.610740920299136"><ele>61.0</ele><time>2026-04-10T17:15:38Z</time></trkpt><trkpt lat="45.15953829487807" lon="9.610496480453993"><ele>61.0</ele><time>2026-04-10T17:15:39Z</time></trkpt><trkpt lat="45.159709096567745" lon="9.61025142071259"><ele>61.0</ele><time>2026-04-10T17:15:40Z</time></trkpt><trkpt lat="45.15988302744241" lon="9.610007603437886"><ele>60.5</ele><time>2026-04-10T17:15:41Z</time></trkpt><trkpt lat="45.160057429945965" lon="9.609763266647741"><ele>60.0</ele><time>2026-04-10T17:15:42Z</time></trkpt><trkpt lat="45.16023205436346" lon="9.60951945610384"><ele>61.0</ele><time>2026-04-10T17:15:43Z</time></trkpt><trkpt lat="45.160405880745856" lon="9.609277791666925"><ele>62.0</ele><time>2026-04-10T17:15:44Z</time></trkpt><trkpt lat="45.16058226965257" lon="9.609038373706603"><ele>62.0</ele><time>2026-04-10T17:15:45Z</time></trkpt><trkpt lat="45.160754109851226" lon="9.608795790411307"><ele>62.0</ele><time>2026-04-10T17:15:46Z</time></trkpt><trkpt lat="45.160925294089495" lon="9.608554553334315"><ele>62.0</ele><time>2026-04-10T17:15:47Z</time></trkpt><trkpt lat="45.16109505810997" lon="9.60831075331736"><ele>62.0</ele><time>2026-04-10T17:15:48Z</time></trkpt><trkpt lat="45.161264979758975" lon="9.608068596942243"><ele>62.0</ele><time>2026-04-10T17:15:49Z</time></trkpt><trkpt lat="45.161437593586356" lon="9.607827566549744"><ele>62.0</ele><time>2026-04-10T17:15:50Z</time></trkpt><trkpt lat="45.161609602992094" lon="9.607587917558767"><ele>62.0</ele><time>2026-04-10T17:15:51Z</time></trkpt><trkpt lat="45.161783693021626" lon="9.607350276416103"><ele>62.0</ele><time>2026-04-10T17:15:52Z</time></trkpt><trkpt lat="45.16195519280999" lon="9.607111148666611"><ele>62.5</ele><time>2026-04-10T17:15:53Z</time></trkpt><trkpt lat="45.16212490597964" lon="9.606871029515435"><ele>63.0</ele><time>2026-04-10T17:15:54Z</time></trkpt><trkpt lat="45.16229625649909" lon="9.606634989007455"><ele>62.5</ele><time>2026-04-10T17:15:55Z</time></trkpt><trkpt lat="45.16245921247374" lon="9.606389600614259"><ele>62.0</ele><time>2026-04-10T17:15:56Z</time></trkpt><trkpt lat="45.162617925259084" lon="9.606140681560879"><ele>61.5</ele><time>2026-04-10T17:15:57Z</time></trkpt><trkpt lat="45.16280808286822" lon="9.605928399712187"><ele>61.0</ele><time>2026-04-10T17:15:58Z</time></trkpt><trkpt lat="45.16297583380054" lon="9.605690140186342"><ele>61.0</ele><time>2026-04-10T17:15:59Z</time></trkpt><trkpt lat="45.163138883273966" lon="9.605449322696497"><ele>61.0</ele><time>2026-04-10T17:16:00Z</time></trkpt><trkpt lat="45.16330787736916" lon="9.605208881951194"><ele>63.0</ele><time>2026-04-10T17:16:01Z</time></trkpt><trkpt lat="45.163478163826724" lon="9.60497632753779"><ele>65.0</ele><time>2026-04-10T17:16:02Z</time></trkpt><trkpt lat="45.16365263227346" lon="9.60474390908387"><ele>65.0</ele><time>2026-04-10T17:16:03Z</time></trkpt><trkpt lat="45.16382377800505" lon="9.604506435246227"><ele>65.0</ele><time>2026-04-10T17:16:04Z</time></trkpt><trkpt lat="45.163995648282715" lon="9.60427492914763"><ele>63.0</ele><time>2026-04-10T17:16:05Z</time></trkpt><trkpt lat="45.16415340886123" lon="9.604054954519281"><ele>61.0</ele><time>2026-04-10T17:16:06Z</time></trkpt><trkpt lat="45.16431073355971" lon="9.603818267583241"><ele>61.0</ele><time>2026-04-10T17:16:07Z</time></trkpt><trkpt lat="45.164475380982886" lon="9.603592241213692"><ele>61.0</ele><time>2026-04-10T17:16:08Z</time></trkpt><trkpt lat="45.16463652779247" lon="9.60337167660974"><ele>61.0</ele><time>2026-04-10T17:16:09Z</time></trkpt><trkpt lat="45.16480603874946" lon="9.603127027615445"><ele>61.0</ele><time>2026-04-10T17:16:10Z</time></trkpt><trkpt lat="45.17492241104298" lon="9.587545356448969"><ele>62.0</ele><time>2026-04-10T17:17:11Z</time></trkpt><trkpt lat="45.17509735597524" lon="9.587266482473463"><ele>63.0</ele><time>2026-04-10T17:17:12Z</time></trkpt><trkpt lat="45.17526707658968" lon="9.586998231350062"><ele>63.5</ele><time>2026-04-10T17:17:13Z</time></trkpt><trkpt lat="45.1754350836925" lon="9.586734113127525"><ele>64.0</ele><time>2026-04-10T17:17:14Z</time></trkpt><trkpt lat="45.17560619890279" lon="9.586469850461315"><ele>64.0</ele><time>2026-04-10T17:17:15Z</time></trkpt><trkpt lat="45.175780877321614" lon="9.58620358410164"><ele>64.0</ele><time>2026-04-10T17:17:16Z</time></trkpt><trkpt lat="45.17595372332822" lon="9.585935381506111"><ele>64.0</ele><time>2026-04-10T17:17:17Z</time></trkpt><trkpt lat="45.17612718729365" lon="9.585664414674104"><ele>64.0</ele><time>2026-04-10T17:17:18Z</time></trkpt><trkpt lat="45.17629661995548" lon="9.585393656242529"><ele>64.0</ele><time>2026-04-10T17:17:19Z</time></trkpt><trkpt lat="45.17646128459787" lon="9.585129737003871"><ele>64.0</ele><time>2026-04-10T17:17:20Z</time></trkpt><trkpt lat="45.17662677849428" lon="9.58486699116169"><ele>63.5</ele><time>2026-04-10T17:17:21Z</time></trkpt><trkpt lat="45.176797957816156" lon="9.584608427583658"><ele>63.0</ele><time>2026-04-10T17:17:22Z</time></trkpt><trkpt lat="45.176967892321485" lon="9.58435092068944"><ele>63.0</ele><time>2026-04-10T17:17:23Z</time></trkpt><trkpt lat="45.17713477530274" lon="9.584090374571502"><ele>63.0</ele><time>2026-04-10T17:17:24Z</time></trkpt><trkpt lat="45.17729978997802" lon="9.583830249332301"><ele>64.5</ele><time>2026-04-10T17:17:25Z</time></trkpt><trkpt lat="45.17746214332559" lon="9.583566319510457"><ele>66.0</ele><time>2026-04-10T17:17:26Z</time></trkpt><trkpt lat="45.17762527608284" lon="9.583300305023542"><ele>66.0</ele><time>2026-04-10T17:17:27Z</time></trkpt><trkpt lat="45.177791234085745" lon="9.58303408992703"><ele>66.0</ele><time>2026-04-10T17:17:28Z</time></trkpt><trkpt lat="45.177958487157674" lon="9.58276969268653"><ele>66.0</ele><time>2026-04-10T17:17:29Z</time></trkpt><trkpt lat="45.17812976409328" lon="9.58250300835755"><ele>66.0</ele><time>2026-04-10T17:17:30Z</time></trkpt><trkpt lat="45.178302232351804" lon="9.58224130509339"><ele>64.5</ele><time>2026-04-10T17:17:31Z</time></trkpt><trkpt lat="45.17847393933042" lon="9.581977838289303"><ele>63.0</ele><time>2026-04-10T17:17:32Z</time></trkpt><trkpt lat="45.178648703853376" lon="9.58171308303602"><ele>63.0</ele><time>2026-04-10T17:17:33Z</time></trkpt><trkpt lat="45.17881694582607" lon="9.581440309382339"><ele>63.0</ele><time>2026-04-10T17:17:34Z</time></trkpt><trkpt lat="45.17898897214575" lon="9.581170519122512"><ele>62.5</ele><time>2026-04-10T17:17:35Z</time></trkpt><trkpt lat="45.17916323748456" lon="9.580908012411967"><ele>62.0</ele><time>2026-04-10T17:17:36Z</time></trkpt><trkpt lat="45.179334753603534" lon="9.580636744047752"><ele>62.0</ele><time>2026-04-10T17:17:37Z</time></trkpt><trkpt lat="45.17950643831588" lon="9.580362102644642"><ele>62.0</ele><time>2026-04-10T17:17:38Z</time></trkpt><trkpt lat="45.17968151483172" lon="9.580096253313798"><ele>62.5</ele><time>2026-04-10T17:17:39Z</time></trkpt><trkpt lat="45.17985432490264" lon="9.579823327058948"><ele>63.0</ele><time>2026-04-10T17:17:40Z</time></trkpt><trkpt lat="45.18002624240325" lon="9.579551707324795"><ele>64.0</ele><time>2026-04-10T17:17:41Z</time></trkpt><trkpt lat="45.18020234125998" lon="9.579283625305976"><ele>65.0</ele><time>2026-04-10T17:17:42Z</time></trkpt><trkpt lat="45.18037446477504" lon="9.579012083819597"><ele>65.0</ele><time>2026-04-10T17:17:43Z</time></trkpt><trkpt lat="45.18054607608585" lon="9.578742016918932"><ele>65.0</ele><time>2026-04-10T17:17:44Z</time></trkpt><trkpt lat="45.180721030946685" lon="9.578470726191686"><ele>63.5</ele><time>2026-04-10T17:17:45Z</time></trkpt><trkpt lat="45.180894416889025" lon="9.578200397255616"><ele>62.0</ele><time>2026-04-10T17:17:46Z</time></trkpt><trkpt lat="45.18106999578908" lon="9.577929124934228"><ele>62.5</ele><time>2026-04-10T17:17:47Z</time></trkpt><trkpt lat="45.18124513367122" lon="9.57765327640064"><ele>63.0</ele><time>2026-04-10T17:17:48Z</time></trkpt><trkpt lat="45.18142064779689" lon="9.57738011090295"><ele>63.0</ele><time>2026-04-10T17:17:49Z</time></trkpt><trkpt lat="45.18159512194967" lon="9.57710402277251"><ele>63.0</ele><time>2026-04-10T17:17:50Z</time></trkpt><trkpt lat="45.18176667725837" lon="9.576830909078202"><ele>63.0</ele><time>2026-04-10T17:17:51Z</time></trkpt><trkpt lat="45.18193677122198" lon="9.576561355631954"><ele>63.0</ele><time>2026-04-10T17:17:52Z</time></trkpt><trkpt lat="45.1821049900256" lon="9.576294847749697"><ele>62.5</ele><time>2026-04-10T17:17:53Z</time></trkpt><trkpt lat="45.182275298054385" lon="9.576027771659351"><ele>62.0</ele><time>2026-04-10T17:17:54Z</time></trkpt><trkpt lat="45.1824480446622" lon="9.575759226205015"><ele>62.0</ele><time>2026-04-10T17:17:55Z</time></trkpt><trkpt lat="45.182619822216516" lon="9.575487664162694"><ele>62.0</ele><time>2026-04-10T17:17:56Z</time></trkpt><trkpt lat="45.18279156302594" lon="9.575212901790888"><ele>62.0</ele><time>2026-04-10T17:17:57Z</time></trkpt><trkpt lat="45.18296433048621" lon="9.574937338232635"><ele>62.0</ele><time>2026-04-10T17:17:58Z</time></trkpt><trkpt lat="45.183136316696654" lon="9.57466597855734"><ele>62.0</ele><time>2026-04-10T17:17:59Z</time></trkpt><trkpt lat="45.18330321082049" lon="9.574402183909948"><ele>62.0</ele><time>2026-04-10T17:18:00Z</time></trkpt><trkpt lat="45.18347030612967" lon="9.574143384372658"><ele>62.0</ele><time>2026-04-10T17:18:01Z</time></trkpt><trkpt lat="45.18363701101879" lon="9.5738831003732"><ele>62.0</ele><time>2026-04-10T17:18:02Z</time></trkpt><trkpt lat="45.18380542467596" lon="9.573624000767701"><ele>62.0</ele><time>2026-04-10T17:18:03Z</time></trkpt><trkpt lat="45.18397490806442" lon="9.573366886431414"><ele>62.0</ele><time>2026-04-10T17:18:04Z</time></trkpt><trkpt lat="45.184144164313594" lon="9.573100783984248"><ele>62.0</ele><time>2026-04-10T17:18:05Z</time></trkpt><trkpt lat="45.18431145091468" lon="9.572834948927811"><ele>62.0</ele><time>2026-04-10T17:18:06Z</time></trkpt><trkpt lat="45.18447995176253" lon="9.572575636449251"><ele>62.0</ele><time>2026-04-10T17:18:07Z</time></trkpt><trkpt lat="45.1846376658113" lon="9.57232612741709"><ele>62.0</ele><time>2026-04-10T17:18:08Z</time></trkpt><trkpt lat="45.18479092818697" lon="9.572087209917331"><ele>62.0</ele><time>2026-04-10T17:18:09Z</time></trkpt><trkpt lat="45.18494698238147" lon="9.571849494866909"><ele>62.0</ele><time>2026-04-10T17:18:10Z</time></trkpt><trkpt lat="45.195065682280486" lon="9.556664924678607"><ele>62.0</ele><time>2026-04-10T17:19:11Z</time></trkpt><trkpt lat="45.19523788515894" lon="9.556439832447806"><ele>62.0</ele><time>2026-04-10T17:19:12Z</time></trkpt><trkpt lat="45.19540936003433" lon="9.556216913804498"><ele>61.5</ele><time>2026-04-10T17:19:13Z</time></trkpt><trkpt lat="45.19558093829653" lon="9.555994756110449"><ele>61.0</ele><time>2026-04-10T17:19:14Z</time></trkpt><trkpt lat="45.195752330162485" lon="9.555773794671564"><ele>61.0</ele><time>2026-04-10T17:19:15Z</time></trkpt><trkpt lat="45.19591986107771" lon="9.555553417283125"><ele>61.0</ele><time>2026-04-10T17:19:16Z</time></trkpt><trkpt lat="45.19608873275671" lon="9.555332503766596"><ele>62.0</ele><time>2026-04-10T17:19:17Z</time></trkpt><trkpt lat="45.19626030204976" lon="9.555100764273945"><ele>63.0</ele><time>2026-04-10T17:19:18Z</time></trkpt><trkpt lat="45.19643191012827" lon="9.554865904131164"><ele>63.0</ele><time>2026-04-10T17:19:19Z</time></trkpt><trkpt lat="45.19660243683142" lon="9.55464080141557"><ele>63.0</ele><time>2026-04-10T17:19:20Z</time></trkpt><trkpt lat="45.19677956137387" lon="9.554414344022723"><ele>63.0</ele><time>2026-04-10T17:19:21Z</time></trkpt><trkpt lat="45.19695785732071" lon="9.55418229940802"><ele>63.0</ele><time>2026-04-10T17:19:22Z</time></trkpt><trkpt lat="45.19713494718545" lon="9.553942006994708"><ele>62.5</ele><time>2026-04-10T17:19:23Z</time></trkpt><trkpt lat="45.19731349567724" lon="9.553699088573877"><ele>62.0</ele><time>2026-04-10T17:19:24Z</time></trkpt><trkpt lat="45.19749739326454" lon="9.553454957553447"><ele>62.0</ele><time>2026-04-10T17:19:25Z</time></trkpt><trkpt lat="45.19768624731257" lon="9.55320998555"><ele>62.0</ele><time>2026-04-10T17:19:26Z</time></trkpt><trkpt lat="45.19787748234295" lon="9.552963100628212"><ele>62.0</ele><time>2026-04-10T17:19:27Z</time></trkpt><trkpt lat="45.198067092593064" lon="9.552713192648406"><ele>62.0</ele><time>2026-04-10T17:19:28Z</time></trkpt><trkpt lat="45.19826039332833" lon="9.552462466998742"><ele>63.5</ele><time>2026-04-10T17:19:29Z</time></trkpt><trkpt lat="45.19845666167538" lon="9.552210308668151"><ele>65.0</ele><time>2026-04-10T17:19:30Z</time></trkpt><trkpt lat="45.1986538315222" lon="9.551954713880262"><ele>65.0</ele><time>2026-04-10T17:19:31Z</time></trkpt><trkpt lat="45.19885012414223" lon="9.551695667280217"><ele>65.0</ele><time>2026-04-10T17:19:32Z</time></trkpt><trkpt lat="45.199048544639965" lon="9.551431206599535"><ele>63.5</ele><time>2026-04-10T17:19:33Z</time></trkpt><trkpt lat="45.199246069669506" lon="9.551174648414781"><ele>62.0</ele><time>2026-04-10T17:19:34Z</time></trkpt><trkpt lat="45.199434938587366" lon="9.55092493853951"><ele>62.0</ele><time>2026-04-10T17:19:35Z</time></trkpt><trkpt lat="45.199623562018495" lon="9.550680650147278"><ele>62.0</ele><time>2026-04-10T17:19:36Z</time></trkpt><trkpt lat="45.199814570217555" lon="9.550435727292271"><ele>62.0</ele><time>2026-04-10T17:19:37Z</time></trkpt><trkpt lat="45.200003609317875" lon="9.550190202477943"><ele>62.0</ele><time>2026-04-10T17:19:38Z</time></trkpt><trkpt lat="45.20018962559106" lon="9.549943916748695"><ele>62.0</ele><time>2026-04-10T17:19:39Z</time></trkpt><trkpt lat="45.20037808523226" lon="9.549694492745255"><ele>62.0</ele><time>2026-04-10T17:19:40Z</time></trkpt><trkpt lat="45.2005690096443" lon="9.549444561518523"><ele>62.5</ele><time>2026-04-10T17:19:41Z</time></trkpt><trkpt lat="45.200759725462085" lon="9.549191959465496"><ele>63.0</ele><time>2026-04-10T17:19:42Z</time></trkpt><trkpt lat="45.20094388282613" lon="9.54895049677321"><ele>63.0</ele><time>2026-04-10T17:19:43Z</time></trkpt><trkpt lat="45.20112496298877" lon="9.548710911947435"><ele>63.0</ele><time>2026-04-10T17:19:44Z</time></trkpt><trkpt lat="45.201306633807235" lon="9.548470153771206"><ele>63.0</ele><time>2026-04-10T17:19:45Z</time></trkpt><trkpt lat="45.20148849433401" lon="9.548228105055413"><ele>63.0</ele><time>2026-04-10T17:19:46Z</time></trkpt><trkpt lat="45.20167296223675" lon="9.54798439527956"><ele>62.5</ele><time>2026-04-10T17:19:47Z</time></trkpt><trkpt lat="45.20186038495209" lon="9.54773910347106"><ele>62.0</ele><time>2026-04-10T17:19:48Z</time></trkpt><trkpt lat="45.202042996773294" lon="9.547502437141356"><ele>62.0</ele><time>2026-04-10T17:19:49Z</time></trkpt><trkpt lat="45.2022264508332" lon="9.547260839294946"><ele>62.0</ele><time>2026-04-10T17:19:50Z</time></trkpt><trkpt lat="45.202411222898" lon="9.54701817605704"><ele>63.0</ele><time>2026-04-10T17:19:51Z</time></trkpt><trkpt lat="45.202595029724755" lon="9.546773568197464"><ele>64.0</ele><time>2026-04-10T17:19:52Z</time></trkpt><trkpt lat="45.20277831461094" lon="9.546528331965204"><ele>64.0</ele><time>2026-04-10T17:19:53Z</time></trkpt><trkpt lat="45.20295553123641" lon="9.546291854858326"><ele>64.0</ele><time>2026-04-10T17:19:54Z</time></trkpt><trkpt lat="45.203132982573905" lon="9.546058833467596"><ele>64.0</ele><time>2026-04-10T17:19:55Z</time></trkpt><trkpt lat="45.20331267908079" lon="9.545828560927765"><ele>64.0</ele><time>2026-04-10T17:19:56Z</time></trkpt><trkpt lat="45.20349302346198" lon="9.545594584699291"><ele>63.5</ele><time>2026-04-10T17:19:57Z</time></trkpt><trkpt lat="45.203672065259916" lon="9.545359256538612"><ele>63.0</ele><time>2026-04-10T17:19:58Z</time></trkpt><trkpt lat="45.203853001040315" lon="9.545124258186657"><ele>62.5</ele><time>2026-04-10T17:19:59Z</time></trkpt><trkpt lat="45.20403354539356" lon="9.544886773393634"><ele>62.0</ele><time>2026-04-10T17:20:00Z</time></trkpt><trkpt lat="45.2042077092173" lon="9.544655943251431"><ele>62.0</ele><time>2026-04-10T17:20:01Z</time></trkpt><trkpt lat="45.2043807066246" lon="9.5444282502064"><ele>62.0</ele><time>2026-04-10T17:20:02Z</time></trkpt><trkpt lat="45.20455443118557" lon="9.544200267201234"><ele>62.0</ele><time>2026-04-10T17:20:03Z</time></trkpt><trkpt lat="45.204729504898474" lon="9.543969240663415"><ele>62.0</ele><time>2026-04-10T17:20:04Z</time></trkpt><trkpt lat="45.204904370727526" lon="9.543739221727714"><ele>62.5</ele><time>2026-04-10T17:20:05Z</time></trkpt><trkpt lat="45.20507838007049" lon="9.543513752506328"><ele>63.0</ele><time>2026-04-10T17:20:06Z</time></trkpt><trkpt lat="45.20525329467805" lon="9.543291387634119"><ele>63.0</ele><time>2026-04-10T17:20:07Z</time></trkpt><trkpt lat="45.20542615093697" lon="9.54306467734968"><ele>63.0</ele><time>2026-04-10T17:20:08Z</time></trkpt><trkpt lat="45.20559792864753" lon="9.542838045037708"><ele>64.0</ele><time>2026-04-10T17:20:09Z</time></trkpt><trkpt lat="45.20577047296484" lon="9.542606807208394"><ele>65.0</ele><time>2026-04-10T17:20:10Z</time></trkpt><trkpt lat="45.21679464152293" lon="9.52810492955834"><ele>65.0</ele><time>2026-04-10T17:21:11Z</time></trkpt><trkpt lat="45.21698222484638" lon="9.527861737383837"><ele>65.0</ele><time>2026-04-10T17:21:12Z</time></trkpt><trkpt lat="45.21716282789642" lon="9.527619021259682"><ele>65.0</ele><time>2026-04-10T17:21:13Z</time></trkpt><trkpt lat="45.21734227865091" lon="9.527377698478913"><ele>65.0</ele><time>2026-04-10T17:21:14Z</time></trkpt><trkpt lat="45.21753197317837" lon="9.527136992308256"><ele>65.0</ele><time>2026-04-10T17:21:15Z</time></trkpt><trkpt lat="45.217717653394004" lon="9.526892740292567"><ele>65.0</ele><time>2026-04-10T17:21:16Z</time></trkpt><trkpt lat="45.2179050192837" lon="9.52665129582241"><ele>65.0</ele><time>2026-04-10T17:21:17Z</time></trkpt><trkpt lat="45.218088281157335" lon="9.526402881136882"><ele>65.0</ele><time>2026-04-10T17:21:18Z</time></trkpt><trkpt lat="45.21827821861099" lon="9.526152701479807"><ele>65.5</ele><time>2026-04-10T17:21:19Z</time></trkpt><trkpt lat="45.2184631417962" lon="9.525907436151153"><ele>66.0</ele><time>2026-04-10T17:21:20Z</time></trkpt><trkpt lat="45.21864744423119" lon="9.525654587161078"><ele>66.0</ele><time>2026-04-10T17:21:21Z</time></trkpt><trkpt lat="45.21884038335098" lon="9.525409605705942"><ele>66.0</ele><time>2026-04-10T17:21:22Z</time></trkpt><trkpt lat="45.219032560977965" lon="9.525172184040407"><ele>65.5</ele><time>2026-04-10T17:21:23Z</time></trkpt><trkpt lat="45.21922680701288" lon="9.524927858421076"><ele>65.0</ele><time>2026-04-10T17:21:24Z</time></trkpt><trkpt lat="45.21941366455926" lon="9.52467402988085"><ele>65.0</ele><time>2026-04-10T17:21:25Z</time></trkpt><trkpt lat="45.21959591946615" lon="9.524426472244476"><ele>65.0</ele><time>2026-04-10T17:21:26Z</time></trkpt><trkpt lat="45.21978054416007" lon="9.5241860625233"><ele>65.0</ele><time>2026-04-10T17:21:27Z</time></trkpt><trkpt lat="45.21996160960257" lon="9.523947943537337"><ele>65.0</ele><time>2026-04-10T17:21:28Z</time></trkpt><trkpt lat="45.22014159323257" lon="9.523712913375569"><ele>65.5</ele><time>2026-04-10T17:21:29Z</time></trkpt><trkpt lat="45.22032382463281" lon="9.523475771647261"><ele>66.0</ele><time>2026-04-10T17:21:30Z</time></trkpt><trkpt lat="45.22050446279543" lon="9.523244002887635"><ele>66.0</ele><time>2026-04-10T17:21:31Z</time></trkpt><trkpt lat="45.22068110552083" lon="9.523012300098477"><ele>66.0</ele><time>2026-04-10T17:21:32Z</time></trkpt><trkpt lat="45.220857652266886" lon="9.522776353603787"><ele>66.0</ele><time>2026-04-10T17:21:33Z</time></trkpt><trkpt lat="45.221033387547" lon="9.522541961821444"><ele>66.0</ele><time>2026-04-10T17:21:34Z</time></trkpt><trkpt lat="45.221208774733256" lon="9.522309352712755"><ele>66.0</ele><time>2026-04-10T17:21:35Z</time></trkpt><trkpt lat="45.221384015412845" lon="9.52207663909513"><ele>66.0</ele><time>2026-04-10T17:21:36Z</time></trkpt><trkpt lat="45.22155738218356" lon="9.521844715229296"><ele>66.5</ele><time>2026-04-10T17:21:37Z</time></trkpt><trkpt lat="45.221734612438055" lon="9.521617407792201"><ele>67.0</ele><time>2026-04-10T17:21:38Z</time></trkpt><trkpt lat="45.22190805255205" lon="9.52138534403823"><ele>67.0</ele><time>2026-04-10T17:21:39Z</time></trkpt><trkpt lat="45.22208461139454" lon="9.52115900536576"><ele>67.0</ele><time>2026-04-10T17:21:40Z</time></trkpt><trkpt lat="45.222254464284504" lon="9.520931274812982"><ele>66.5</ele><time>2026-04-10T17:21:41Z</time></trkpt><trkpt lat="45.222425434561515" lon="9.520703263300817"><ele>66.0</ele><time>2026-04-10T17:21:42Z</time></trkpt><trkpt lat="45.222598462002885" lon="9.520475245232317"><ele>65.5</ele><time>2026-04-10T17:21:43Z</time></trkpt><trkpt lat="45.222772311618954" lon="9.520246845351368"><ele>65.0</ele><time>2026-04-10T17:21:44Z</time></trkpt><trkpt lat="45.22294705794849" lon="9.520018333037266"><ele>65.0</ele><time>2026-04-10T17:21:45Z</time></trkpt><trkpt lat="45.22312228168564" lon="9.519785154817509"><ele>65.0</ele><time>2026-04-10T17:21:46Z</time></trkpt><trkpt lat="45.223298818920675" lon="9.51955329664498"><ele>66.0</ele><time>2026-04-10T17:21:47Z</time></trkpt><trkpt lat="45.22347875090493" lon="9.519321327638439"><ele>67.0</ele><time>2026-04-10T17:21:48Z</time></trkpt><trkpt lat="45.223657877795546" lon="9.519086720815928"><ele>67.0</ele><time>2026-04-10T17:21:49Z</time></trkpt><trkpt lat="45.22383665399845" lon="9.518848662364181"><ele>67.0</ele><time>2026-04-10T17:21:50Z</time></trkpt><trkpt lat="45.22401587512589" lon="9.518610135930567"><ele>67.5</ele><time>2026-04-10T17:21:51Z</time></trkpt><trkpt lat="45.22419780491326" lon="9.518370309144574"><ele>68.0</ele><time>2026-04-10T17:21:52Z</time></trkpt><trkpt lat="45.224378188745945" lon="9.518130334066738"><ele>66.5</ele><time>2026-04-10T17:21:53Z</time></trkpt><trkpt lat="45.224565130169026" lon="9.517892528300358"><ele>65.0</ele><time>2026-04-10T17:21:54Z</time></trkpt><trkpt lat="45.22474619182253" lon="9.51765199289518"><ele>65.0</ele><time>2026-04-10T17:21:55Z</time></trkpt><trkpt lat="45.22493256146142" lon="9.517410141784762"><ele>65.0</ele><time>2026-04-10T17:21:56Z</time></trkpt><trkpt lat="45.225115269479595" lon="9.517166146619326"><ele>65.5</ele><time>2026-04-10T17:21:57Z</time></trkpt><trkpt lat="45.22530228972501" lon="9.5169264326817"><ele>66.0</ele><time>2026-04-10T17:21:58Z</time></trkpt><trkpt lat="45.22548374449777" lon="9.516681291168329"><ele>65.5</ele><time>2026-04-10T17:21:59Z</time></trkpt><trkpt lat="45.225667986135015" lon="9.51644366331571"><ele>65.0</ele><time>2026-04-10T17:22:00Z</time></trkpt><trkpt lat="45.22585049174037" lon="9.516207755462908"><ele>66.0</ele><time>2026-04-10T17:22:01Z</time></trkpt><trkpt lat="45.2260306001997" lon="9.515965561682007"><ele>67.0</ele><time>2026-04-10T17:22:02Z</time></trkpt><trkpt lat="45.22620902792089" lon="9.515727542807499"><ele>67.0</ele><time>2026-04-10T17:22:03Z</time></trkpt><trkpt lat="45.226390416162936" lon="9.515492063574957"><ele>67.0</ele><time>2026-04-10T17:22:04Z</time></trkpt><trkpt lat="45.22657015304447" lon="9.515257501125925"><ele>66.5</ele><time>2026-04-10T17:22:05Z</time></trkpt><trkpt lat="45.22674746531964" lon="9.515023805580558"><ele>66.0</ele><time>2026-04-10T17:22:06Z</time></trkpt><trkpt lat="45.22692661242036" lon="9.514791397885801"><ele>66.5</ele><time>2026-04-10T17:22:07Z</time></trkpt><trkpt lat="45.22710581865007" lon="9.514560316797228"><ele>67.0</ele><time>2026-04-10T17:22:08Z</time></trkpt><trkpt lat="45.22728264878301" lon="9.51433459713482"><ele>66.5</ele><time>2026-04-10T17:22:09Z</time></trkpt><trkpt lat="45.227459686148705" lon="9.514105344658633"><ele>66.0</ele><time>2026-04-10T17:22:10Z</time></trkpt><trkpt lat="45.23902682796147" lon="9.498881927117006"><ele>68.0</ele><time>2026-04-10T17:23:11Z</time></trkpt><trkpt lat="45.239213119172206" lon="9.498637872834323"><ele>70.0</ele><time>2026-04-10T17:23:12Z</time></trkpt><trkpt lat="45.239400238212866" lon="9.498391119582708"><ele>70.0</ele><time>2026-04-10T17:23:13Z</time></trkpt><trkpt lat="45.23958700746861" lon="9.49814421971955"><ele>70.0</ele><time>2026-04-10T17:23:14Z</time></trkpt><trkpt lat="45.239780919713155" lon="9.497893986807195"><ele>70.0</ele><time>2026-04-10T17:23:15Z</time></trkpt><trkpt lat="45.23997078699066" lon="9.497640936589388"><ele>70.0</ele><time>2026-04-10T17:23:16Z</time></trkpt><trkpt lat="45.24016006295561" lon="9.497393591778094"><ele>70.0</ele><time>2026-04-10T17:23:17Z</time></trkpt><trkpt lat="45.24034720164067" lon="9.49714064181282"><ele>70.0</ele><time>2026-04-10T17:23:18Z</time></trkpt><trkpt lat="45.24053557966941" lon="9.496891369339757"><ele>69.0</ele><time>2026-04-10T17:23:19Z</time></trkpt><trkpt lat="45.24072368989675" lon="9.49665005582462"><ele>68.0</ele><time>2026-04-10T17:23:20Z</time></trkpt><trkpt lat="45.24091325364641" lon="9.496403038277196"><ele>68.5</ele><time>2026-04-10T17:23:21Z</time></trkpt><trkpt lat="45.24110712395168" lon="9.496159514065612"><ele>69.0</ele><time>2026-04-10T17:23:22Z</time></trkpt><trkpt lat="45.24130065819455" lon="9.495912268464746"><ele>69.0</ele><time>2026-04-10T17:23:23Z</time></trkpt><trkpt lat="45.24149172300577" lon="9.495658761619195"><ele>69.0</ele><time>2026-04-10T17:23:24Z</time></trkpt><trkpt lat="45.241680155711535" lon="9.49540127131983"><ele>69.0</ele><time>2026-04-10T17:23:25Z</time></trkpt><trkpt lat="45.241865428972964" lon="9.495154110093255"><ele>69.0</ele><time>2026-04-10T17:23:26Z</time></trkpt><trkpt lat="45.2420478324717" lon="9.49491062646567"><ele>69.0</ele><time>2026-04-10T17:23:27Z</time></trkpt><trkpt lat="45.242228128081045" lon="9.494669412973009"><ele>69.0</ele><time>2026-04-10T17:23:28Z</time></trkpt><trkpt lat="45.24240853084339" lon="9.494431370838486"><ele>69.0</ele><time>2026-04-10T17:23:29Z</time></trkpt><trkpt lat="45.24259269501284" lon="9.494201085891183"><ele>69.0</ele><time>2026-04-10T17:23:30Z</time></trkpt><trkpt lat="45.242773194477394" lon="9.493965737098103"><ele>69.5</ele><time>2026-04-10T17:23:31Z</time></trkpt><trkpt lat="45.24295317655082" lon="9.493729954147929"><ele>70.0</ele><time>2026-04-10T17:23:32Z</time></trkpt><trkpt lat="45.243131348734636" lon="9.493492669363441"><ele>70.0</ele><time>2026-04-10T17:23:33Z</time></trkpt><trkpt lat="45.243310926788084" lon="9.49325307036322"><ele>70.0</ele><time>2026-04-10T17:23:34Z</time></trkpt><trkpt lat="45.24349281963928" lon="9.493018629112708"><ele>71.0</ele><time>2026-04-10T17:23:35Z</time></trkpt><trkpt lat="45.24367693515429" lon="9.492777288526998"><ele>72.0</ele><time>2026-04-10T17:23:36Z</time></trkpt><trkpt lat="45.24386011929633" lon="9.492533854443707"><ele>71.5</ele><time>2026-04-10T17:23:37Z</time></trkpt><trkpt lat="45.24404874465303" lon="9.492288435007797"><ele>71.0</ele><time>2026-04-10T17:23:38Z</time></trkpt><trkpt lat="45.24423507827287" lon="9.4920443391265"><ele>70.5</ele><time>2026-04-10T17:23:39Z</time></trkpt><trkpt lat="45.24442238765244" lon="9.491795732290406"><ele>70.0</ele><time>2026-04-10T17:23:40Z</time></trkpt><trkpt lat="45.24461086991612" lon="9.491548569318189"><ele>70.5</ele><time>2026-04-10T17:23:41Z</time></trkpt><trkpt lat="45.24480064692943" lon="9.491298870322822"><ele>71.0</ele><time>2026-04-10T17:23:42Z</time></trkpt><trkpt lat="45.244987769490145" lon="9.491045796922657"><ele>70.0</ele><time>2026-04-10T17:23:43Z</time></trkpt><trkpt lat="45.2451768158128" lon="9.49078702987806"><ele>69.0</ele><time>2026-04-10T17:23:44Z</time></trkpt><trkpt lat="45.2453689888723" lon="9.49053236026298"><ele>69.5</ele><time>2026-04-10T17:23:45Z</time></trkpt><trkpt lat="45.24556378834877" lon="9.490278475199627"><ele>70.0</ele><time>2026-04-10T17:23:46Z</time></trkpt><trkpt lat="45.245761126265286" lon="9.490025423789145"><ele>70.0</ele><time>2026-04-10T17:23:47Z</time></trkpt><trkpt lat="45.24595818948398" lon="9.489772331498774"><ele>70.0</ele><time>2026-04-10T17:23:48Z</time></trkpt><trkpt lat="45.24615102338225" lon="9.489517353739673"><ele>70.5</ele><time>2026-04-10T17:23:49Z</time></trkpt><trkpt lat="45.24634458151207" lon="9.489263921617114"><ele>71.0</ele><time>2026-04-10T17:23:50Z</time></trkpt><trkpt lat="45.24653624972081" lon="9.48900939040676"><ele>71.5</ele><time>2026-04-10T17:23:51Z</time></trkpt><trkpt lat="45.24672518076797" lon="9.488760714131297"><ele>72.0</ele><time>2026-04-10T17:23:52Z</time></trkpt><trkpt lat="45.24691498314627" lon="9.488512061193497"><ele>72.0</ele><time>2026-04-10T17:23:53Z</time></trkpt><trkpt lat="45.24710260113874" lon="9.488262828659913"><ele>72.0</ele><time>2026-04-10T17:23:54Z</time></trkpt><trkpt lat="45.24729191150703" lon="9.488017746644104"><ele>71.0</ele><time>2026-04-10T17:23:55Z</time></trkpt><trkpt lat="45.24747949150898" lon="9.48777282775221"><ele>70.0</ele><time>2026-04-10T17:23:56Z</time></trkpt><trkpt lat="45.24766313158662" lon="9.487530720862686"><ele>70.0</ele><time>2026-04-10T17:23:57Z</time></trkpt><trkpt lat="45.2478430898431" lon="9.487294030810501"><ele>70.0</ele><time>2026-04-10T17:23:58Z</time></trkpt><trkpt lat="45.248022468218366" lon="9.487059716867828"><ele>69.5</ele><time>2026-04-10T17:23:59Z</time></trkpt><trkpt lat="45.24820252435104" lon="9.486823200703009"><ele>69.0</ele><time>2026-04-10T17:24:00Z</time></trkpt><trkpt lat="45.24838313544851" lon="9.48658800718736"><ele>69.0</ele><time>2026-04-10T17:24:01Z</time></trkpt><trkpt lat="45.24856409716586" lon="9.486354916356294"><ele>69.0</ele><time>2026-04-10T17:24:02Z</time></trkpt><trkpt lat="45.248743835263916" lon="9.486123816701115"><ele>69.0</ele><time>2026-04-10T17:24:03Z</time></trkpt><trkpt lat="45.24892389072666" lon="9.485889864757429"><ele>69.0</ele><time>2026-04-10T17:24:04Z</time></trkpt><trkpt lat="45.2491054100759" lon="9.485646435634704"><ele>69.0</ele><time>2026-04-10T17:24:05Z</time></trkpt><trkpt lat="45.2492828867771" lon="9.485397585774086"><ele>69.0</ele><time>2026-04-10T17:24:06Z</time></trkpt><trkpt lat="45.249460748717624" lon="9.485162697520657"><ele>69.0</ele><time>2026-04-10T17:24:07Z</time></trkpt><trkpt lat="45.24963996497445" lon="9.484923144256605"><ele>69.0</ele><time>2026-04-10T17:24:08Z</time></trkpt><trkpt lat="45.24982327094843" lon="9.484681854052125"><ele>69.5</ele><time>2026-04-10T17:24:09Z</time></trkpt><trkpt lat="45.25000721523155" lon="9.484444323023606"><ele>70.0</ele><time>2026-04-10T17:24:10Z</time></trkpt><trkpt lat="45.261057912218384" lon="9.469914632093559"><ele>70.5</ele><time>2026-04-10T17:25:11Z</time></trkpt><trkpt lat="45.26123658413672" lon="9.46967798171566"><ele>71.0</ele><time>2026-04-10T17:25:12Z</time></trkpt><trkpt lat="45.261412988519155" lon="9.46944145973759"><ele>71.5</ele><time>2026-04-10T17:25:13Z</time></trkpt><trkpt lat="45.261590082348796" lon="9.469204590026324"><ele>72.0</ele><time>2026-04-10T17:25:14Z</time></trkpt><trkpt lat="45.2617665637938" lon="9.468969492331759"><ele>72.5</ele><time>2026-04-10T17:25:15Z</time></trkpt><trkpt lat="45.26194502484143" lon="9.468738649556789"><ele>73.0</ele><time>2026-04-10T17:25:16Z</time></trkpt><trkpt lat="45.26212350594106" lon="9.468511209635208"><ele>73.0</ele><time>2026-04-10T17:25:17Z</time></trkpt><trkpt lat="45.26230356618618" lon="9.468279187935268"><ele>73.0</ele><time>2026-04-10T17:25:18Z</time></trkpt><trkpt lat="45.26248044138774" lon="9.468044701524956"><ele>73.0</ele><time>2026-04-10T17:25:19Z</time></trkpt><trkpt lat="45.26265784245508" lon="9.467806861815841"><ele>73.0</ele><time>2026-04-10T17:25:20Z</time></trkpt><trkpt lat="45.26283635545773" lon="9.467571245305637"><ele>73.0</ele><time>2026-04-10T17:25:21Z</time></trkpt><trkpt lat="45.2630153778137" lon="9.46733734851388"><ele>73.0</ele><time>2026-04-10T17:25:22Z</time></trkpt><trkpt lat="45.26319693560563" lon="9.467105433968392"><ele>74.0</ele><time>2026-04-10T17:25:23Z</time></trkpt><trkpt lat="45.26337859414147" lon="9.466867867232619"><ele>75.0</ele><time>2026-04-10T17:25:24Z</time></trkpt><trkpt lat="45.26355772116705" lon="9.466628655861633"><ele>75.0</ele><time>2026-04-10T17:25:25Z</time></trkpt><trkpt lat="45.263737802544036" lon="9.466392313099687"><ele>75.0</ele><time>2026-04-10T17:25:26Z</time></trkpt><trkpt lat="45.26392012519778" lon="9.466147650502394"><ele>73.5</ele><time>2026-04-10T17:25:27Z</time></trkpt><trkpt lat="45.264106890641955" lon="9.465912164647584"><ele>72.0</ele><time>2026-04-10T17:25:28Z</time></trkpt><trkpt lat="45.26428349838711" lon="9.465676751661736"><ele>72.0</ele><time>2026-04-10T17:25:29Z</time></trkpt><trkpt lat="45.264461544663085" lon="9.465433349495598"><ele>72.0</ele><time>2026-04-10T17:25:30Z</time></trkpt><trkpt lat="45.26464553946459" lon="9.46519523415443"><ele>71.5</ele><time>2026-04-10T17:25:31Z</time></trkpt><trkpt lat="45.2648297703478" lon="9.464953148592675"><ele>71.0</ele><time>2026-04-10T17:25:32Z</time></trkpt><trkpt lat="45.265009824628464" lon="9.464703285900747"><ele>72.0</ele><time>2026-04-10T17:25:33Z</time></trkpt><trkpt lat="45.265197104968045" lon="9.464458117237335"><ele>73.0</ele><time>2026-04-10T17:25:34Z</time></trkpt><trkpt lat="45.26538282429516" lon="9.464213923252649"><ele>73.0</ele><time>2026-04-10T17:25:35Z</time></trkpt><trkpt lat="45.265570403854966" lon="9.463967141712764"><ele>73.0</ele><time>2026-04-10T17:25:36Z</time></trkpt><trkpt lat="45.26575863813555" lon="9.463722078510699"><ele>72.5</ele><time>2026-04-10T17:25:37Z</time></trkpt><trkpt lat="45.26594413978244" lon="9.463473798354489"><ele>72.0</ele><time>2026-04-10T17:25:38Z</time></trkpt><trkpt lat="45.2661336194175" lon="9.463227699476477"><ele>72.0</ele><time>2026-04-10T17:25:39Z</time></trkpt><trkpt lat="45.266318989159444" lon="9.462980500021425"><ele>72.0</ele><time>2026-04-10T17:25:40Z</time></trkpt><trkpt lat="45.266508591264696" lon="9.462731477766201"><ele>72.5</ele><time>2026-04-10T17:25:41Z</time></trkpt><trkpt lat="45.2666972442934" lon="9.462482100715409"><ele>73.0</ele><time>2026-04-10T17:25:42Z</time></trkpt><trkpt lat="45.26688349124051" lon="9.462234382818211"><ele>73.0</ele><time>2026-04-10T17:25:43Z</time></trkpt><trkpt lat="45.26707121823721" lon="9.46198802972692"><ele>73.0</ele><time>2026-04-10T17:25:44Z</time></trkpt><trkpt lat="45.26725942912498" lon="9.461748857020464"><ele>73.0</ele><time>2026-04-10T17:25:45Z</time></trkpt><trkpt lat="45.26744503276385" lon="9.46150020081607"><ele>73.0</ele><time>2026-04-10T17:25:46Z</time></trkpt><trkpt lat="45.26762900243768" lon="9.461253187165104"><ele>73.0</ele><time>2026-04-10T17:25:47Z</time></trkpt><trkpt lat="45.2678147353909" lon="9.461009002345094"><ele>73.0</ele><time>2026-04-10T17:25:48Z</time></trkpt><trkpt lat="45.26799808640973" lon="9.460763649372089"><ele>72.5</ele><time>2026-04-10T17:25:49Z</time></trkpt><trkpt lat="45.26818175593728" lon="9.460516715912087"><ele>72.0</ele><time>2026-04-10T17:25:50Z</time></trkpt><trkpt lat="45.26836596358034" lon="9.460270235550025"><ele>73.0</ele><time>2026-04-10T17:25:51Z</time></trkpt><trkpt lat="45.26854873391089" lon="9.460022945585479"><ele>74.0</ele><time>2026-04-10T17:25:52Z</time></trkpt><trkpt lat="45.268733821011836" lon="9.459770254008296"><ele>74.0</ele><time>2026-04-10T17:25:53Z</time></trkpt><trkpt lat="45.26891147167319" lon="9.459517547859495"><ele>74.0</ele><time>2026-04-10T17:25:54Z</time></trkpt><trkpt lat="45.269093494146496" lon="9.459262009785686"><ele>73.5</ele><time>2026-04-10T17:25:55Z</time></trkpt><trkpt lat="45.26927755742753" lon="9.459007544092747"><ele>73.0</ele><time>2026-04-10T17:25:56Z</time></trkpt><trkpt lat="45.26945599411619" lon="9.458750810589569"><ele>73.0</ele><time>2026-04-10T17:25:57Z</time></trkpt><trkpt lat="45.269634140140965" lon="9.458491399051349"><ele>73.0</ele><time>2026-04-10T17:25:58Z</time></trkpt><trkpt lat="45.26981315798045" lon="9.458238967706002"><ele>72.5</ele><time>2026-04-10T17:25:59Z</time></trkpt><trkpt lat="45.26999358354883" lon="9.457985656280472"><ele>72.0</ele><time>2026-04-10T17:26:00Z</time></trkpt><trkpt lat="45.27017191098099" lon="9.457732091143633"><ele>73.5</ele><time>2026-04-10T17:26:01Z</time></trkpt><trkpt lat="45.270347898724715" lon="9.457477303470075"><ele>75.0</ele><time>2026-04-10T17:26:02Z</time></trkpt><trkpt lat="45.27052238940591" lon="9.457221879785028"><ele>74.0</ele><time>2026-04-10T17:26:03Z</time></trkpt><trkpt lat="45.27069801419971" lon="9.456966435592268"><ele>73.0</ele><time>2026-04-10T17:26:04Z</time></trkpt><trkpt lat="45.2708715240164" lon="9.45670931430615"><ele>73.0</ele><time>2026-04-10T17:26:05Z</time></trkpt><trkpt lat="45.27104701426683" lon="9.456453856577065"><ele>73.0</ele><time>2026-04-10T17:26:06Z</time></trkpt><trkpt lat="45.271218196021444" lon="9.456198773625024"><ele>73.0</ele><time>2026-04-10T17:26:07Z</time></trkpt><trkpt lat="45.27138816044178" lon="9.455944317058574"><ele>73.0</ele><time>2026-04-10T17:26:08Z</time></trkpt><trkpt lat="45.27155454481607" lon="9.455695308660681"><ele>73.0</ele><time>2026-04-10T17:26:09Z</time></trkpt><trkpt lat="45.27172163394245" lon="9.455447874957922"><ele>73.0</ele><time>2026-04-10T17:26:10Z</time></trkpt><trkpt lat="45.281892880223104" lon="9.438721616451998"><ele>73.0</ele><time>2026-04-10T17:27:11Z</time></trkpt><trkpt lat="45.282049536673775" lon="9.43845624906812"><ele>73.0</ele><time>2026-04-10T17:27:12Z</time></trkpt><trkpt lat="45.282205022036784" lon="9.43819110519588"><ele>73.5</ele><time>2026-04-10T17:27:13Z</time></trkpt><trkpt lat="45.282362066089625" lon="9.437926232520596"><ele>74.0</ele><time>2026-04-10T17:27:14Z</time></trkpt><trkpt lat="45.282525465855755" lon="9.437656325528831"><ele>74.0</ele><time>2026-04-10T17:27:15Z</time></trkpt><trkpt lat="45.28269232789009" lon="9.437385412255372"><ele>74.0</ele><time>2026-04-10T17:27:16Z</time></trkpt><trkpt lat="45.282861664749746" lon="9.437109012184058"><ele>74.0</ele><time>2026-04-10T17:27:17Z</time></trkpt><trkpt lat="45.28303316190857" lon="9.436830453286323"><ele>74.0</ele><time>2026-04-10T17:27:18Z</time></trkpt><trkpt lat="45.28319874762518" lon="9.436553598065903"><ele>74.5</ele><time>2026-04-10T17:27:19Z</time></trkpt><trkpt lat="45.28336183802281" lon="9.436277581183115"><ele>75.0</ele><time>2026-04-10T17:27:20Z</time></trkpt><trkpt lat="45.28352356471899" lon="9.436000056058743"><ele>75.0</ele><time>2026-04-10T17:27:21Z</time></trkpt><trkpt lat="45.28368463943857" lon="9.435724058856716"><ele>75.0</ele><time>2026-04-10T17:27:22Z</time></trkpt><trkpt lat="45.2838508410371" lon="9.435449529852209"><ele>74.5</ele><time>2026-04-10T17:27:23Z</time></trkpt><trkpt lat="45.28401467331922" lon="9.435183311483755"><ele>74.0</ele><time>2026-04-10T17:27:24Z</time></trkpt><trkpt lat="45.28417572864404" lon="9.434916798176673"><ele>74.0</ele><time>2026-04-10T17:27:25Z</time></trkpt><trkpt lat="45.284335641041686" lon="9.434649828881685"><ele>74.0</ele><time>2026-04-10T17:27:26Z</time></trkpt><trkpt lat="45.28449731245844" lon="9.434383091360713"><ele>74.0</ele><time>2026-04-10T17:27:27Z</time></trkpt><trkpt lat="45.28465752935894" lon="9.434114449865934"><ele>74.0</ele><time>2026-04-10T17:27:28Z</time></trkpt><trkpt lat="45.28481473820997" lon="9.433843346019069"><ele>75.0</ele><time>2026-04-10T17:27:29Z</time></trkpt><trkpt lat="45.2849763413353" lon="9.43357422518769"><ele>76.0</ele><time>2026-04-10T17:27:30Z</time></trkpt><trkpt lat="45.2851431431844" lon="9.43330115288005"><ele>76.0</ele><time>2026-04-10T17:27:31Z</time></trkpt><trkpt lat="45.285310863687855" lon="9.433021832472672"><ele>76.0</ele><time>2026-04-10T17:27:32Z</time></trkpt><trkpt lat="45.28548170946693" lon="9.432742010908502"><ele>76.0</ele><time>2026-04-10T17:27:33Z</time></trkpt><trkpt lat="45.28565280808409" lon="9.432459640730114"><ele>76.0</ele><time>2026-04-10T17:27:34Z</time></trkpt><trkpt lat="45.285825834325344" lon="9.432175349527778"><ele>75.5</ele><time>2026-04-10T17:27:35Z</time></trkpt><trkpt lat="45.28599997426377" lon="9.431889109601599"><ele>75.0</ele><time>2026-04-10T17:27:36Z</time></trkpt><trkpt lat="45.28617155050959" lon="9.4316026062713"><ele>75.0</ele><time>2026-04-10T17:27:37Z</time></trkpt><trkpt lat="45.28633827459934" lon="9.431320206678894"><ele>75.0</ele><time>2026-04-10T17:27:38Z</time></trkpt><trkpt lat="45.286497876499766" lon="9.431043244970816"><ele>74.5</ele><time>2026-04-10T17:27:39Z</time></trkpt><trkpt lat="45.28665535082586" lon="9.430759272703908"><ele>74.0</ele><time>2026-04-10T17:27:40Z</time></trkpt><trkpt lat="45.2868111779396" lon="9.430471271462574"><ele>75.5</ele><time>2026-04-10T17:27:41Z</time></trkpt><trkpt lat="45.286965338043565" lon="9.430184390371837"><ele>77.0</ele><time>2026-04-10T17:27:42Z</time></trkpt><trkpt lat="45.28712360118127" lon="9.429899639621555"><ele>78.5</ele><time>2026-04-10T17:27:43Z</time></trkpt><trkpt lat="45.28728500412685" lon="9.429614533928671"><ele>80.0</ele><time>2026-04-10T17:27:44Z</time></trkpt><trkpt lat="45.28744905045326" lon="9.429328368924148"><ele>80.0</ele><time>2026-04-10T17:27:45Z</time></trkpt><trkpt lat="45.28761197820826" lon="9.429040819219995"><ele>80.0</ele><time>2026-04-10T17:27:46Z</time></trkpt><trkpt lat="45.28777441727093" lon="9.428752301064787"><ele>79.0</ele><time>2026-04-10T17:27:47Z</time></trkpt><trkpt lat="45.287936463737516" lon="9.428461408772002"><ele>78.0</ele><time>2026-04-10T17:27:48Z</time></trkpt><trkpt lat="45.28809916718173" lon="9.42817072593685"><ele>77.5</ele><time>2026-04-10T17:27:49Z</time></trkpt><trkpt lat="45.28826154779616" lon="9.42787623050788"><ele>77.0</ele><time>2026-04-10T17:27:50Z</time></trkpt><trkpt lat="45.288422815584255" lon="9.427580075720549"><ele>77.0</ele><time>2026-04-10T17:27:51Z</time></trkpt><trkpt lat="45.28858654383039" lon="9.427287312535109"><ele>77.0</ele><time>2026-04-10T17:27:52Z</time></trkpt><trkpt lat="45.28875228070349" lon="9.426994072172205"><ele>77.0</ele><time>2026-04-10T17:27:53Z</time></trkpt><trkpt lat="45.28891919586943" lon="9.426701640705685"><ele>77.0</ele><time>2026-04-10T17:27:54Z</time></trkpt><trkpt lat="45.28908644403777" lon="9.42640632844567"><ele>77.0</ele><time>2026-04-10T17:27:55Z</time></trkpt><trkpt lat="45.289255077922014" lon="9.426110821757511"><ele>77.0</ele><time>2026-04-10T17:27:56Z</time></trkpt><trkpt lat="45.289422977885444" lon="9.425813013261505"><ele>77.0</ele><time>2026-04-10T17:27:57Z</time></trkpt><trkpt lat="45.28958919624165" lon="9.425514029376755"><ele>77.0</ele><time>2026-04-10T17:27:58Z</time></trkpt><trkpt lat="45.2897560068661" lon="9.425213836825819"><ele>76.5</ele><time>2026-04-10T17:27:59Z</time></trkpt><trkpt lat="45.28992223685491" lon="9.424912662025989"><ele>76.0</ele><time>2026-04-10T17:28:00Z</time></trkpt><trkpt lat="45.290088283498086" lon="9.424611980586615"><ele>76.0</ele><time>2026-04-10T17:28:01Z</time></trkpt><trkpt lat="45.2902542607033" lon="9.424311900902053"><ele>76.0</ele><time>2026-04-10T17:28:02Z</time></trkpt><trkpt lat="45.29042225080391" lon="9.424013672689592"><ele>76.0</ele><time>2026-04-10T17:28:03Z</time></trkpt><trkpt lat="45.290592090829236" lon="9.423716282103744"><ele>76.0</ele><time>2026-04-10T17:28:04Z</time></trkpt><trkpt lat="45.29076221485537" lon="9.42341632165589"><ele>76.0</ele><time>2026-04-10T17:28:05Z</time></trkpt><trkpt lat="45.29093083879498" lon="9.42311676314271"><ele>76.0</ele><time>2026-04-10T17:28:06Z</time></trkpt><trkpt lat="45.29109954690646" lon="9.422816570911575"><ele>76.0</ele><time>2026-04-10T17:28:07Z</time></trkpt><trkpt lat="45.29126659813353" lon="9.422513515971444"><ele>76.0</ele><time>2026-04-10T17:28:08Z</time></trkpt><trkpt lat="45.29143266474312" lon="9.422209059402523"><ele>76.0</ele><time>2026-04-10T17:28:09Z</time></trkpt><trkpt lat="45.2915979184583" lon="9.4219060810133"><ele>76.0</ele><time>2026-04-10T17:28:10Z</time></trkpt><trkpt lat="45.302532474102335" lon="9.404876616848247"><ele>77.5</ele><time>2026-04-10T17:29:11.001Z</time></trkpt><trkpt lat="45.30271063048286" lon="9.404626165856106"><ele>79.0</ele><time>2026-04-10T17:29:12.001Z</time></trkpt><trkpt lat="45.30289004901415" lon="9.404374478596255"><ele>79.0</ele><time>2026-04-10T17:29:13.001Z</time></trkpt><trkpt lat="45.303066643448076" lon="9.404123667962192"><ele>79.0</ele><time>2026-04-10T17:29:14.001Z</time></trkpt><trkpt lat="45.303242786305226" lon="9.403874797440928"><ele>79.0</ele><time>2026-04-10T17:29:15.001Z</time></trkpt><trkpt lat="45.30342024818407" lon="9.403626256541786"><ele>79.0</ele><time>2026-04-10T17:29:16.001Z</time></trkpt><trkpt lat="45.30359946540269" lon="9.403380526574614"><ele>79.0</ele><time>2026-04-10T17:29:17.001Z</time></trkpt><trkpt lat="45.30377788905751" lon="9.403130667284517"><ele>79.0</ele><time>2026-04-10T17:29:18.001Z</time></trkpt><trkpt lat="45.303955614147384" lon="9.402880729556866"><ele>79.0</ele><time>2026-04-10T17:29:19.001Z</time></trkpt><trkpt lat="45.30412907578577" lon="9.402631097668289"><ele>79.0</ele><time>2026-04-10T17:29:20.001Z</time></trkpt><trkpt lat="45.30430817829886" lon="9.402370861865258"><ele>80.0</ele><time>2026-04-10T17:29:21.001Z</time></trkpt><trkpt lat="45.30448265527385" lon="9.402106317852885"><ele>81.0</ele><time>2026-04-10T17:29:22.001Z</time></trkpt><trkpt lat="45.30465751516521" lon="9.401840010016135"><ele>81.0</ele><time>2026-04-10T17:29:23.001Z</time></trkpt><trkpt lat="45.30483453963153" lon="9.401573795036569"><ele>81.0</ele><time>2026-04-10T17:29:24.001Z</time></trkpt><trkpt lat="45.30501120378825" lon="9.401307154173438"><ele>81.0</ele><time>2026-04-10T17:29:25.001Z</time></trkpt><trkpt lat="45.30519393358194" lon="9.401038090798506"><ele>81.0</ele><time>2026-04-10T17:29:26.001Z</time></trkpt><trkpt lat="45.305370074560166" lon="9.400768873744582"><ele>81.0</ele><time>2026-04-10T17:29:27.001Z</time></trkpt><trkpt lat="45.30554062380083" lon="9.40050212800299"><ele>81.0</ele><time>2026-04-10T17:29:28.001Z</time></trkpt><trkpt lat="45.3057140509208" lon="9.400228095863842"><ele>81.0</ele><time>2026-04-10T17:29:29.001Z</time></trkpt><trkpt lat="45.30589263988083" lon="9.399956039864653"><ele>81.0</ele><time>2026-04-10T17:29:30.001Z</time></trkpt><trkpt lat="45.30607114343093" lon="9.399688872577707"><ele>81.0</ele><time>2026-04-10T17:29:31.001Z</time></trkpt><trkpt lat="45.30624910669715" lon="9.399421376949435"><ele>81.0</ele><time>2026-04-10T17:29:32.001Z</time></trkpt><trkpt lat="45.306426613994205" lon="9.399153140879474"><ele>81.5</ele><time>2026-04-10T17:29:33.001Z</time></trkpt><trkpt lat="45.306602572263" lon="9.398881441576291"><ele>82.0</ele><time>2026-04-10T17:29:34.001Z</time></trkpt><trkpt lat="45.3067819762824" lon="9.398606525388923"><ele>82.0</ele><time>2026-04-10T17:29:35.001Z</time></trkpt><trkpt lat="45.30696155623401" lon="9.398332739514283"><ele>82.0</ele><time>2026-04-10T17:29:36.001Z</time></trkpt><trkpt lat="45.30714160297967" lon="9.39805834529779"><ele>81.0</ele><time>2026-04-10T17:29:37.001Z</time></trkpt><trkpt lat="45.30731718606451" lon="9.397781174091273"><ele>80.0</ele><time>2026-04-10T17:29:38.001Z</time></trkpt><trkpt lat="45.30749351858558" lon="9.39750619756211"><ele>80.0</ele><time>2026-04-10T17:29:39.001Z</time></trkpt><trkpt lat="45.30767109699382" lon="9.397233971497085"><ele>80.0</ele><time>2026-04-10T17:29:40.001Z</time></trkpt><trkpt lat="45.307848860737536" lon="9.396971043031357"><ele>80.0</ele><time>2026-04-10T17:29:41.001Z</time></trkpt><trkpt lat="45.30802717533251" lon="9.396706887945317"><ele>80.0</ele><time>2026-04-10T17:29:42.001Z</time></trkpt><trkpt lat="45.30820529188392" lon="9.396440766478133"><ele>80.5</ele><time>2026-04-10T17:29:43.001Z</time></trkpt><trkpt lat="45.30838137138289" lon="9.396175920195352"><ele>81.0</ele><time>2026-04-10T17:29:44.001Z</time></trkpt><trkpt lat="45.3085622905976" lon="9.395915615877124"><ele>81.0</ele><time>2026-04-10T17:29:45.001Z</time></trkpt><trkpt lat="45.30874088396675" lon="9.395654929672382"><ele>81.0</ele><time>2026-04-10T17:29:46.001Z</time></trkpt><trkpt lat="45.30891816446957" lon="9.395393449657982"><ele>80.5</ele><time>2026-04-10T17:29:47.001Z</time></trkpt><trkpt lat="45.30909269396169" lon="9.39513284292926"><ele>80.0</ele><time>2026-04-10T17:29:48.001Z</time></trkpt><trkpt lat="45.30926078481112" lon="9.394878703786627"><ele>80.5</ele><time>2026-04-10T17:29:49.001Z</time></trkpt><trkpt lat="45.30942894098562" lon="9.39461735436566"><ele>81.0</ele><time>2026-04-10T17:29:50.001Z</time></trkpt><trkpt lat="45.309598007918936" lon="9.394355928585844"><ele>81.0</ele><time>2026-04-10T17:29:51.001Z</time></trkpt><trkpt lat="45.30976631218843" lon="9.394099054071601"><ele>81.0</ele><time>2026-04-10T17:29:52.001Z</time></trkpt><trkpt lat="45.309933073468756" lon="9.393845128502399"><ele>81.0</ele><time>2026-04-10T17:29:53.001Z</time></trkpt><trkpt lat="45.310093478214654" lon="9.393600155400442"><ele>81.0</ele><time>2026-04-10T17:29:54.001Z</time></trkpt><trkpt lat="45.31025520766847" lon="9.393351286717404"><ele>81.0</ele><time>2026-04-10T17:29:55.001Z</time></trkpt><trkpt lat="45.31041829196583" lon="9.393103719880335"><ele>81.0</ele><time>2026-04-10T17:29:56.001Z</time></trkpt><trkpt lat="45.31057918040642" lon="9.392858970143015"><ele>81.0</ele><time>2026-04-10T17:29:57.001Z</time></trkpt><trkpt lat="45.31073899217746" lon="9.39261807364412"><ele>81.0</ele><time>2026-04-10T17:29:58.001Z</time></trkpt><trkpt lat="45.310901429233894" lon="9.392374331674837"><ele>80.5</ele><time>2026-04-10T17:29:59.001Z</time></trkpt><trkpt lat="45.31106198094915" lon="9.392128505718363"><ele>80.0</ele><time>2026-04-10T17:30:00.001Z</time></trkpt><trkpt lat="45.3112138418908" lon="9.391891663632002"><ele>80.0</ele><time>2026-04-10T17:30:01.001Z</time></trkpt><trkpt lat="45.311363488239216" lon="9.391653721858106"><ele>80.0</ele><time>2026-04-10T17:30:02.001Z</time></trkpt><trkpt lat="45.311515286973936" lon="9.39141665566362"><ele>80.0</ele><time>2026-04-10T17:30:03.001Z</time></trkpt><trkpt lat="45.311665837050576" lon="9.391184600251199"><ele>80.0</ele><time>2026-04-10T17:30:04.001Z</time></trkpt><trkpt lat="45.311821255956005" lon="9.390948930001867"><ele>80.0</ele><time>2026-04-10T17:30:05.001Z</time></trkpt><trkpt lat="45.311979220317184" lon="9.390707449288925"><ele>80.0</ele><time>2026-04-10T17:30:06.001Z</time></trkpt><trkpt lat="45.31213929697463" lon="9.390463877189068"><ele>80.0</ele><time>2026-04-10T17:30:07.001Z</time></trkpt><trkpt lat="45.31230316647259" lon="9.39021459690609"><ele>80.0</ele><time>2026-04-10T17:30:08.001Z</time></trkpt><trkpt lat="45.31246875250357" lon="9.38995885315002"><ele>80.0</ele><time>2026-04-10T17:30:09.001Z</time></trkpt><trkpt lat="45.31263541624556" lon="9.389698594074968"><ele>84.0</ele><time>2026-04-10T17:30:10.001Z</time></trkpt><trkpt lat="45.32127167185738" lon="9.377222300411404"><ele>84.2</ele><time>2026-04-10T17:31:11Z</time></trkpt><trkpt lat="45.32135665405909" lon="9.377164977415008"><ele>84.4</ele><time>2026-04-10T17:31:13Z</time></trkpt><trkpt lat="45.32141674159361" lon="9.377048936877323"><ele>84.6</ele><time>2026-04-10T17:31:15Z</time></trkpt><trkpt lat="45.32148951672528" lon="9.37692139658357"><ele>84.8</ele><time>2026-04-10T17:31:17Z</time></trkpt><trkpt lat="45.321540991140346" lon="9.376818907378272"><ele>85.0</ele><time>2026-04-10T17:31:19Z</time></trkpt><trkpt lat="45.321585876715105" lon="9.376729540041767"><ele>85.0</ele><time>2026-04-10T17:31:21Z</time></trkpt><trkpt lat="45.324206426007585" lon="9.371983958310743"><ele>85.0</ele><time>2026-04-10T17:35:11Z</time></trkpt><trkpt lat="45.32436584386229" lon="9.371737676386076"><ele>85.0</ele><time>2026-04-10T17:35:12Z</time></trkpt><trkpt lat="45.32452517895286" lon="9.371494446805473"><ele>84.5</ele><time>2026-04-10T17:35:13Z</time></trkpt><trkpt lat="45.324679666318794" lon="9.37125186827697"><ele>84.0</ele><time>2026-04-10T17:35:14Z</time></trkpt><trkpt lat="45.32483922447195" lon="9.371002827536094"><ele>83.0</ele><time>2026-04-10T17:35:15Z</time></trkpt><trkpt lat="45.32500070656939" lon="9.370751691763317"><ele>82.0</ele><time>2026-04-10T17:35:16Z</time></trkpt><trkpt lat="45.32516040606612" lon="9.370501925838475"><ele>82.0</ele><time>2026-04-10T17:35:17Z</time></trkpt><trkpt lat="45.32532154713942" lon="9.37025311758806"><ele>82.0</ele><time>2026-04-10T17:35:18Z</time></trkpt><trkpt lat="45.32548487658436" lon="9.37000794360422"><ele>82.0</ele><time>2026-04-10T17:35:19Z</time></trkpt><trkpt lat="45.325648926473725" lon="9.369761074002035"><ele>82.0</ele><time>2026-04-10T17:35:20Z</time></trkpt><trkpt lat="45.32581163802932" lon="9.36951181160991"><ele>82.5</ele><time>2026-04-10T17:35:21Z</time></trkpt><trkpt lat="45.32597285870492" lon="9.369258438683932"><ele>83.0</ele><time>2026-04-10T17:35:22Z</time></trkpt><trkpt lat="45.32613456162472" lon="9.369010639763767"><ele>83.0</ele><time>2026-04-10T17:35:23Z</time></trkpt><trkpt lat="45.32629666761826" lon="9.368765823399308"><ele>83.0</ele><time>2026-04-10T17:35:24Z</time></trkpt><trkpt lat="45.32645842278929" lon="9.368517164609171"><ele>83.0</ele><time>2026-04-10T17:35:25Z</time></trkpt><trkpt lat="45.32662080061114" lon="9.368268978736445"><ele>83.0</ele><time>2026-04-10T17:35:26Z</time></trkpt><trkpt lat="45.32678487617803" lon="9.368019073340905"><ele>83.0</ele><time>2026-04-10T17:35:27Z</time></trkpt><trkpt lat="45.3269490809414" lon="9.367765216311364"><ele>83.0</ele><time>2026-04-10T17:35:28Z</time></trkpt><trkpt lat="45.32711604307451" lon="9.367511255096572"><ele>83.0</ele><time>2026-04-10T17:35:29Z</time></trkpt><trkpt lat="45.3272840897811" lon="9.36725731602785"><ele>83.0</ele><time>2026-04-10T17:35:30Z</time></trkpt><trkpt lat="45.32744955446634" lon="9.366999385999529"><ele>83.0</ele><time>2026-04-10T17:35:31Z</time></trkpt><trkpt lat="45.3276139848545" lon="9.366741049859126"><ele>83.0</ele><time>2026-04-10T17:35:32Z</time></trkpt><trkpt lat="45.32778257240734" lon="9.366485608341275"><ele>83.0</ele><time>2026-04-10T17:35:33Z</time></trkpt><trkpt lat="45.327951222001715" lon="9.366228755986723"><ele>83.0</ele><time>2026-04-10T17:35:34Z</time></trkpt><trkpt lat="45.32812067970482" lon="9.365972197649585"><ele>83.0</ele><time>2026-04-10T17:35:35Z</time></trkpt><trkpt lat="45.32828887692835" lon="9.365712752075074"><ele>83.0</ele><time>2026-04-10T17:35:36Z</time></trkpt><trkpt lat="45.328455681167085" lon="9.365455364502704"><ele>83.0</ele><time>2026-04-10T17:35:37Z</time></trkpt><trkpt lat="45.32862366528509" lon="9.365199713476692"><ele>83.0</ele><time>2026-04-10T17:35:38Z</time></trkpt><trkpt lat="45.32879068302613" lon="9.3649425651851"><ele>84.0</ele><time>2026-04-10T17:35:39Z</time></trkpt><trkpt lat="45.32895389940279" lon="9.364684395840497"><ele>85.0</ele><time>2026-04-10T17:35:40Z</time></trkpt><trkpt lat="45.32911876868056" lon="9.36442862847555"><ele>85.0</ele><time>2026-04-10T17:35:41Z</time></trkpt><trkpt lat="45.32928190774299" lon="9.364180496619605"><ele>85.0</ele><time>2026-04-10T17:35:42Z</time></trkpt><trkpt lat="45.329440787628975" lon="9.363936782532706"><ele>85.0</ele><time>2026-04-10T17:35:43Z</time></trkpt><trkpt lat="45.32959986198493" lon="9.36369174325573"><ele>85.0</ele><time>2026-04-10T17:35:44Z</time></trkpt><trkpt lat="45.329759175336164" lon="9.363450096234914"><ele>85.0</ele><time>2026-04-10T17:35:45Z</time></trkpt><trkpt lat="45.32991894094457" lon="9.363204654776748"><ele>85.0</ele><time>2026-04-10T17:35:46Z</time></trkpt><trkpt lat="45.33007961947675" lon="9.362958306197415"><ele>85.5</ele><time>2026-04-10T17:35:47Z</time></trkpt><trkpt lat="45.330240017884044" lon="9.362711222299543"><ele>86.0</ele><time>2026-04-10T17:35:48Z</time></trkpt><trkpt lat="45.33039810807301" lon="9.362461961373459"><ele>86.0</ele><time>2026-04-10T17:35:49Z</time></trkpt><trkpt lat="45.33055583588815" lon="9.362209902409209"><ele>86.0</ele><time>2026-04-10T17:35:50Z</time></trkpt><trkpt lat="45.33071113650641" lon="9.36195716671159"><ele>86.0</ele><time>2026-04-10T17:35:51Z</time></trkpt><trkpt lat="45.330864983816916" lon="9.361702966661076"><ele>86.0</ele><time>2026-04-10T17:35:52Z</time></trkpt><trkpt lat="45.33101747985562" lon="9.361446656651474"><ele>86.0</ele><time>2026-04-10T17:35:53Z</time></trkpt><trkpt lat="45.33117041668009" lon="9.361186180449252"><ele>86.0</ele><time>2026-04-10T17:35:54Z</time></trkpt><trkpt lat="45.331319222983126" lon="9.360920993311971"><ele>85.5</ele><time>2026-04-10T17:35:55Z</time></trkpt><trkpt lat="45.331465764220646" lon="9.360656180956203"><ele>85.0</ele><time>2026-04-10T17:35:56Z</time></trkpt><trkpt lat="45.33161306913787" lon="9.360388125732424"><ele>84.0</ele><time>2026-04-10T17:35:57Z</time></trkpt><trkpt lat="45.33175775920903" lon="9.360116834624243"><ele>83.0</ele><time>2026-04-10T17:35:58Z</time></trkpt><trkpt lat="45.33189708259114" lon="9.359843594415654"><ele>83.5</ele><time>2026-04-10T17:35:59Z</time></trkpt><trkpt lat="45.33203312012543" lon="9.359568584490145"><ele>84.0</ele><time>2026-04-10T17:36:00Z</time></trkpt><trkpt lat="45.33216904700875" lon="9.359289962665034"><ele>84.0</ele><time>2026-04-10T17:36:01Z</time></trkpt><trkpt lat="45.33230625129546" lon="9.359013955582634"><ele>84.0</ele><time>2026-04-10T17:36:02Z</time></trkpt><trkpt lat="45.332444826731766" lon="9.358735644871311"><ele>84.5</ele><time>2026-04-10T17:36:03Z</time></trkpt><trkpt lat="45.33258365916957" lon="9.358448517770707"><ele>85.0</ele><time>2026-04-10T17:36:04Z</time></trkpt><trkpt lat="45.33271804431746" lon="9.358151999767463"><ele>83.5</ele><time>2026-04-10T17:36:05Z</time></trkpt><trkpt lat="45.332851380083866" lon="9.357845442840906"><ele>82.0</ele><time>2026-04-10T17:36:06Z</time></trkpt><trkpt lat="45.332981910853825" lon="9.357532127630789"><ele>82.0</ele><time>2026-04-10T17:36:07Z</time></trkpt><trkpt lat="45.3331136024505" lon="9.357216081183998"><ele>82.0</ele><time>2026-04-10T17:36:08Z</time></trkpt><trkpt lat="45.33324375286381" lon="9.356896755780875"><ele>81.0</ele><time>2026-04-10T17:36:09Z</time></trkpt><trkpt lat="45.333373552332745" lon="9.356572047291596"><ele>80.0</ele><time>2026-04-10T17:36:10Z</time></trkpt><trkpt lat="45.33747657671259" lon="9.335972021756819"><ele>81.5</ele><time>2026-04-10T17:37:11Z</time></trkpt><trkpt lat="45.337529342146965" lon="9.335642831693136"><ele>83.0</ele><time>2026-04-10T17:37:12Z</time></trkpt><trkpt lat="45.33758125457568" lon="9.335313482128822"><ele>83.0</ele><time>2026-04-10T17:37:13Z</time></trkpt><trkpt lat="45.33763234790704" lon="9.334981162057664"><ele>83.0</ele><time>2026-04-10T17:37:14Z</time></trkpt><trkpt lat="45.337681943430916" lon="9.334648536659524"><ele>83.5</ele><time>2026-04-10T17:37:15Z</time></trkpt><trkpt lat="45.33773400316371" lon="9.334316345090084"><ele>84.0</ele><time>2026-04-10T17:37:16Z</time></trkpt><trkpt lat="45.33778493226378" lon="9.333986494669123"><ele>84.0</ele><time>2026-04-10T17:37:17Z</time></trkpt><trkpt lat="45.33783555299157" lon="9.3336583725784"><ele>84.0</ele><time>2026-04-10T17:37:18Z</time></trkpt><trkpt lat="45.33788703255864" lon="9.333334579504236"><ele>83.5</ele><time>2026-04-10T17:37:19Z</time></trkpt><trkpt lat="45.337937550669665" lon="9.333013889546816"><ele>83.0</ele><time>2026-04-10T17:37:20Z</time></trkpt><trkpt lat="45.337989389861995" lon="9.332693197653649"><ele>83.0</ele><time>2026-04-10T17:37:21Z</time></trkpt><trkpt lat="45.338039443746325" lon="9.332367445040367"><ele>83.0</ele><time>2026-04-10T17:37:22Z</time></trkpt><trkpt lat="45.33808772764943" lon="9.332039672524573"><ele>84.5</ele><time>2026-04-10T17:37:23Z</time></trkpt><trkpt lat="45.33813679831481" lon="9.33171037181738"><ele>86.0</ele><time>2026-04-10T17:37:24Z</time></trkpt><trkpt lat="45.338185431714756" lon="9.33137641776692"><ele>86.5</ele><time>2026-04-10T17:37:25Z</time></trkpt><trkpt lat="45.33823296255784" lon="9.331044887881118"><ele>87.0</ele><time>2026-04-10T17:37:26Z</time></trkpt><trkpt lat="45.338287907875525" lon="9.33071545539483"><ele>87.0</ele><time>2026-04-10T17:37:27Z</time></trkpt><trkpt lat="45.33835774506601" lon="9.330401924234728"><ele>87.0</ele><time>2026-04-10T17:37:28Z</time></trkpt><trkpt lat="45.33842854196292" lon="9.33008497269144"><ele>87.0</ele><time>2026-04-10T17:37:29Z</time></trkpt><trkpt lat="45.33848097806916" lon="9.329735525860993"><ele>87.0</ele><time>2026-04-10T17:37:30Z</time></trkpt><trkpt lat="45.33854819712202" lon="9.32940843230122"><ele>87.5</ele><time>2026-04-10T17:37:31Z</time></trkpt><trkpt lat="45.33861635316714" lon="9.329085848076396"><ele>88.0</ele><time>2026-04-10T17:37:32Z</time></trkpt><trkpt lat="45.338684544172715" lon="9.328759372301286"><ele>87.0</ele><time>2026-04-10T17:37:33Z</time></trkpt><trkpt lat="45.33875690628183" lon="9.328436245561372"><ele>86.0</ele><time>2026-04-10T17:37:34Z</time></trkpt><trkpt lat="45.33883455933943" lon="9.328120618746807"><ele>86.0</ele><time>2026-04-10T17:37:35Z</time></trkpt><trkpt lat="45.338914145106955" lon="9.327805030603903"><ele>86.0</ele><time>2026-04-10T17:37:36Z</time></trkpt><trkpt lat="45.33899713933044" lon="9.327488475830876"><ele>86.0</ele><time>2026-04-10T17:37:37Z</time></trkpt><trkpt lat="45.3390773358582" lon="9.327168661895888"><ele>86.0</ele><time>2026-04-10T17:37:38Z</time></trkpt><trkpt lat="45.339169471184775" lon="9.326846441257953"><ele>86.0</ele><time>2026-04-10T17:37:39Z</time></trkpt><trkpt lat="45.33925925278648" lon="9.32651249304791"><ele>86.0</ele><time>2026-04-10T17:37:40Z</time></trkpt><trkpt lat="45.339348791323204" lon="9.32620295861255"><ele>87.0</ele><time>2026-04-10T17:37:41Z</time></trkpt><trkpt lat="45.3394403990406" lon="9.325891619867692"><ele>88.0</ele><time>2026-04-10T17:37:42Z</time></trkpt><trkpt lat="45.33953578639574" lon="9.32558087538208"><ele>88.0</ele><time>2026-04-10T17:37:43Z</time></trkpt><trkpt lat="45.33962955022867" lon="9.325277393828154"><ele>88.0</ele><time>2026-04-10T17:37:44Z</time></trkpt><trkpt lat="45.339732908210046" lon="9.324974328049965"><ele>88.5</ele><time>2026-04-10T17:37:45Z</time></trkpt><trkpt lat="45.33983615916661" lon="9.324668009212989"><ele>89.0</ele><time>2026-04-10T17:37:46Z</time></trkpt><trkpt lat="45.33994388109628" lon="9.32436035788118"><ele>89.0</ele><time>2026-04-10T17:37:47Z</time></trkpt><trkpt lat="45.34004680979926" lon="9.324065734485009"><ele>89.0</ele><time>2026-04-10T17:37:48Z</time></trkpt><trkpt lat="45.34015519813854" lon="9.323769336210413"><ele>88.5</ele><time>2026-04-10T17:37:49Z</time></trkpt><trkpt lat="45.34026744554012" lon="9.323472588697957"><ele>88.0</ele><time>2026-04-10T17:37:50Z</time></trkpt><trkpt lat="45.3403804402171" lon="9.323176609858578"><ele>88.0</ele><time>2026-04-10T17:37:51Z</time></trkpt><trkpt lat="45.340499227795135" lon="9.322879003092034"><ele>88.0</ele><time>2026-04-10T17:37:52Z</time></trkpt><trkpt lat="45.34061897196632" lon="9.322581472125586"><ele>88.5</ele><time>2026-04-10T17:37:53Z</time></trkpt><trkpt lat="45.34074226722941" lon="9.322285436627602"><ele>89.0</ele><time>2026-04-10T17:37:54Z</time></trkpt><trkpt lat="45.340870332718765" lon="9.321991739082904"><ele>89.5</ele><time>2026-04-10T17:37:55Z</time></trkpt><trkpt lat="45.340999253947516" lon="9.321704008177308"><ele>90.0</ele><time>2026-04-10T17:37:56Z</time></trkpt><trkpt lat="45.341133017805994" lon="9.321408464706979"><ele>90.5</ele><time>2026-04-10T17:37:57Z</time></trkpt><trkpt lat="45.34126434482333" lon="9.321116063092854"><ele>91.0</ele><time>2026-04-10T17:37:58Z</time></trkpt><trkpt lat="45.34139730258682" lon="9.320831337888926"><ele>90.0</ele><time>2026-04-10T17:37:59Z</time></trkpt><trkpt lat="45.341532646247764" lon="9.3205582271502"><ele>89.0</ele><time>2026-04-10T17:38:00Z</time></trkpt><trkpt lat="45.34167077662897" lon="9.320284433607613"><ele>89.0</ele><time>2026-04-10T17:38:01Z</time></trkpt><trkpt lat="45.34181286180344" lon="9.32000919588974"><ele>89.0</ele><time>2026-04-10T17:38:02Z</time></trkpt><trkpt lat="45.34195609648901" lon="9.31973064330971"><ele>89.0</ele><time>2026-04-10T17:38:03Z</time></trkpt><trkpt lat="45.34210305956849" lon="9.319451333290521"><ele>89.0</ele><time>2026-04-10T17:38:04Z</time></trkpt><trkpt lat="45.342246404244335" lon="9.319187774238541"><ele>88.5</ele><time>2026-04-10T17:38:05Z</time></trkpt><trkpt lat="45.3423955396872" lon="9.3189277246003"><ele>88.0</ele><time>2026-04-10T17:38:06Z</time></trkpt><trkpt lat="45.34254905474921" lon="9.318665637018647"><ele>89.5</ele><time>2026-04-10T17:38:07Z</time></trkpt><trkpt lat="45.34270285791299" lon="9.31840050785124"><ele>91.0</ele><time>2026-04-10T17:38:08Z</time></trkpt><trkpt lat="45.34285587370855" lon="9.318140959950345"><ele>92.0</ele><time>2026-04-10T17:38:09Z</time></trkpt><trkpt lat="45.34300791962714" lon="9.317891993963752"><ele>93.0</ele><time>2026-04-10T17:38:10Z</time></trkpt><trkpt lat="45.34937711854954" lon="9.310031090597382"><ele>93.0</ele><time>2026-04-10T17:39:11Z</time></trkpt><trkpt lat="45.34942895050333" lon="9.309968807097608"><ele>93.0</ele><time>2026-04-10T17:39:53Z</time></trkpt><trkpt lat="45.349625985654164" lon="9.309723082332752"><ele>93.0</ele><time>2026-04-10T17:41:11.001Z</time></trkpt><trkpt lat="45.34971575026609" lon="9.309608483722094"><ele>92.4</ele><time>2026-04-10T17:41:50Z</time></trkpt><trkpt lat="45.34978055547952" lon="9.309523612366503"><ele>91.80000000000001</ele><time>2026-04-10T17:41:51Z</time></trkpt><trkpt lat="45.3498496765801" lon="9.309434228200228"><ele>91.2</ele><time>2026-04-10T17:41:52Z</time></trkpt><trkpt lat="45.34993518585407" lon="9.309321374337998"><ele>90.6</ele><time>2026-04-10T17:41:53Z</time></trkpt><trkpt lat="45.350028190658584" lon="9.309199056480132"><ele>90.0</ele><time>2026-04-10T17:41:54Z</time></trkpt><trkpt lat="45.35011588942732" lon="9.309084904070055"><ele>90.0</ele><time>2026-04-10T17:41:55Z</time></trkpt><trkpt lat="45.35020579534859" lon="9.308965407683765"><ele>90.0</ele><time>2026-04-10T17:41:56Z</time></trkpt><trkpt lat="45.350295425461425" lon="9.308817382271618"><ele>90.0</ele><time>2026-04-10T17:41:57Z</time></trkpt><trkpt lat="45.35040244094526" lon="9.308689436168486"><ele>90.0</ele><time>2026-04-10T17:41:58Z</time></trkpt><trkpt lat="45.350519736519146" lon="9.308551944143462"><ele>90.33333333333333</ele><time>2026-04-10T17:41:59Z</time></trkpt><trkpt lat="45.3506433349927" lon="9.308405149983235"><ele>90.66666666666666</ele><time>2026-04-10T17:42:00Z</time></trkpt><trkpt lat="45.35077214207769" lon="9.308253253894724"><ele>91.0</ele><time>2026-04-10T17:42:01Z</time></trkpt><trkpt lat="45.35090711531693" lon="9.308094714769652"><ele>90.66666666666666</ele><time>2026-04-10T17:42:02Z</time></trkpt><trkpt lat="45.351042433397964" lon="9.30793499247262"><ele>90.33333333333333</ele><time>2026-04-10T17:42:03Z</time></trkpt><trkpt lat="45.35118614007568" lon="9.307763372991642"><ele>90.0</ele><time>2026-04-10T17:42:04Z</time></trkpt><trkpt lat="45.35133186019861" lon="9.30759130126935"><ele>90.0</ele><time>2026-04-10T17:42:05Z</time></trkpt><trkpt lat="45.351479410083606" lon="9.307416282332309"><ele>90.0</ele><time>2026-04-10T17:42:06Z</time></trkpt><trkpt lat="45.351632058629775" lon="9.307243768625202"><ele>90.0</ele><time>2026-04-10T17:42:07Z</time></trkpt><trkpt lat="45.35178638028486" lon="9.307067847828275"><ele>90.0</ele><time>2026-04-10T17:42:08Z</time></trkpt><trkpt lat="45.351941964411445" lon="9.306889769360913"><ele>90.0</ele><time>2026-04-10T17:42:09Z</time></trkpt><trkpt lat="45.35209483743769" lon="9.306711481663628"><ele>90.0</ele><time>2026-04-10T17:42:10Z</time></trkpt><trkpt lat="45.362404450835704" lon="9.294615764122108"><ele>90.5</ele><time>2026-04-10T17:43:11Z</time></trkpt><trkpt lat="45.36258941707871" lon="9.294394156602248"><ele>91.0</ele><time>2026-04-10T17:43:12Z</time></trkpt><trkpt lat="45.36277372641675" lon="9.294174577702652"><ele>91.0</ele><time>2026-04-10T17:43:13Z</time></trkpt><trkpt lat="45.36296212918621" lon="9.293955275087075"><ele>91.0</ele><time>2026-04-10T17:43:14Z</time></trkpt><trkpt lat="45.36315274470823" lon="9.293736446692684"><ele>91.5</ele><time>2026-04-10T17:43:15Z</time></trkpt><trkpt lat="45.36334469429693" lon="9.293515153903513"><ele>92.0</ele><time>2026-04-10T17:43:16Z</time></trkpt><trkpt lat="45.36353574696957" lon="9.293292562930732"><ele>92.0</ele><time>2026-04-10T17:43:17Z</time></trkpt><trkpt lat="45.36372277481102" lon="9.293071795335953"><ele>92.0</ele><time>2026-04-10T17:43:18Z</time></trkpt><trkpt lat="45.36391038740145" lon="9.292848140535526"><ele>91.5</ele><time>2026-04-10T17:43:19Z</time></trkpt><trkpt lat="45.36409981436814" lon="9.292625044344385"><ele>91.0</ele><time>2026-04-10T17:43:20Z</time></trkpt><trkpt lat="45.36429042705878" lon="9.292400045462822"><ele>92.0</ele><time>2026-04-10T17:43:21Z</time></trkpt><trkpt lat="45.364485229488984" lon="9.292174061489295"><ele>93.0</ele><time>2026-04-10T17:43:22Z</time></trkpt><trkpt lat="45.36467881648891" lon="9.291948570184976"><ele>92.0</ele><time>2026-04-10T17:43:23Z</time></trkpt><trkpt lat="45.36487015117734" lon="9.291725526096183"><ele>91.0</ele><time>2026-04-10T17:43:24Z</time></trkpt><trkpt lat="45.36506083631947" lon="9.291501169037485"><ele>92.0</ele><time>2026-04-10T17:43:25Z</time></trkpt><trkpt lat="45.36525452366213" lon="9.291279048344158"><ele>93.0</ele><time>2026-04-10T17:43:26Z</time></trkpt><trkpt lat="45.36544787916065" lon="9.291056125946573"><ele>92.5</ele><time>2026-04-10T17:43:27Z</time></trkpt><trkpt lat="45.36564191688411" lon="9.290833193443067"><ele>92.0</ele><time>2026-04-10T17:43:28Z</time></trkpt><trkpt lat="45.365838691973416" lon="9.290610587031669"><ele>92.5</ele><time>2026-04-10T17:43:29Z</time></trkpt><trkpt lat="45.3660371603108" lon="9.290392816795153"><ele>93.0</ele><time>2026-04-10T17:43:30Z</time></trkpt><trkpt lat="45.36623465954327" lon="9.290173326344101"><ele>92.5</ele><time>2026-04-10T17:43:31Z</time></trkpt><trkpt lat="45.3664314891414" lon="9.289953659971156"><ele>92.0</ele><time>2026-04-10T17:43:32Z</time></trkpt><trkpt lat="45.36662510147151" lon="9.289729134658975"><ele>92.0</ele><time>2026-04-10T17:43:33Z</time></trkpt><trkpt lat="45.36682276188016" lon="9.289501254623884"><ele>92.0</ele><time>2026-04-10T17:43:34Z</time></trkpt><trkpt lat="45.36701999781619" lon="9.289272879488811"><ele>92.0</ele><time>2026-04-10T17:43:35Z</time></trkpt><trkpt lat="45.36720894879422" lon="9.289054064688004"><ele>92.0</ele><time>2026-04-10T17:43:36Z</time></trkpt><trkpt lat="45.367398335332176" lon="9.28884874596423"><ele>92.0</ele><time>2026-04-10T17:43:37Z</time></trkpt><trkpt lat="45.36758149253164" lon="9.288638951091858"><ele>92.0</ele><time>2026-04-10T17:43:38Z</time></trkpt><trkpt lat="45.36776096971712" lon="9.288424100241352"><ele>92.0</ele><time>2026-04-10T17:43:39Z</time></trkpt><trkpt lat="45.367942941105774" lon="9.288203695977286"><ele>92.0</ele><time>2026-04-10T17:43:40Z</time></trkpt><trkpt lat="45.36812630024201" lon="9.28797892040101"><ele>92.5</ele><time>2026-04-10T17:43:41Z</time></trkpt><trkpt lat="45.36831400082254" lon="9.287755521471018"><ele>93.0</ele><time>2026-04-10T17:43:42Z</time></trkpt><trkpt lat="45.36850061868113" lon="9.287531564653579"><ele>93.0</ele><time>2026-04-10T17:43:43Z</time></trkpt><trkpt lat="45.36868744714345" lon="9.287312137992199"><ele>93.0</ele><time>2026-04-10T17:43:44Z</time></trkpt><trkpt lat="45.36887268111988" lon="9.287098137859125"><ele>93.0</ele><time>2026-04-10T17:43:45Z</time></trkpt><trkpt lat="45.36905691738014" lon="9.286889984818385"><ele>93.0</ele><time>2026-04-10T17:43:46Z</time></trkpt><trkpt lat="45.36923899500991" lon="9.28667858289688"><ele>93.0</ele><time>2026-04-10T17:43:47Z</time></trkpt><trkpt lat="45.36942061454471" lon="9.286463377944749"><ele>93.0</ele><time>2026-04-10T17:43:48Z</time></trkpt><trkpt lat="45.36960507604822" lon="9.286248512760961"><ele>93.0</ele><time>2026-04-10T17:43:49Z</time></trkpt><trkpt lat="45.36979400267016" lon="9.286035415367278"><ele>93.0</ele><time>2026-04-10T17:43:50Z</time></trkpt><trkpt lat="45.369976600247064" lon="9.28581562983499"><ele>93.0</ele><time>2026-04-10T17:43:51Z</time></trkpt><trkpt lat="45.37015788649577" lon="9.285596092204136"><ele>93.0</ele><time>2026-04-10T17:43:52Z</time></trkpt><trkpt lat="45.37034420150189" lon="9.28537946893112"><ele>92.5</ele><time>2026-04-10T17:43:53Z</time></trkpt><trkpt lat="45.370525540769435" lon="9.285161158254395"><ele>92.0</ele><time>2026-04-10T17:43:54Z</time></trkpt><trkpt lat="45.37070349121919" lon="9.28495247734386"><ele>92.5</ele><time>2026-04-10T17:43:55Z</time></trkpt><trkpt lat="45.37088187188772" lon="9.284742264352996"><ele>93.0</ele><time>2026-04-10T17:43:56Z</time></trkpt><trkpt lat="45.37106146828629" lon="9.284533394152815"><ele>93.0</ele><time>2026-04-10T17:43:57Z</time></trkpt><trkpt lat="45.37124586406665" lon="9.284321684353603"><ele>93.0</ele><time>2026-04-10T17:43:58Z</time></trkpt><trkpt lat="45.371428951873966" lon="9.28410683916713"><ele>93.5</ele><time>2026-04-10T17:43:59Z</time></trkpt><trkpt lat="45.371615230026656" lon="9.283892909688767"><ele>94.0</ele><time>2026-04-10T17:44:00Z</time></trkpt><trkpt lat="45.3718004911146" lon="9.283679981985735"><ele>94.0</ele><time>2026-04-10T17:44:01Z</time></trkpt><trkpt lat="45.371984743032314" lon="9.283465765859969"><ele>94.0</ele><time>2026-04-10T17:44:02Z</time></trkpt><trkpt lat="45.37216654907358" lon="9.283249882247432"><ele>93.5</ele><time>2026-04-10T17:44:03Z</time></trkpt><trkpt lat="45.37234521830006" lon="9.283032025569108"><ele>93.0</ele><time>2026-04-10T17:44:04Z</time></trkpt><trkpt lat="45.37252682335352" lon="9.282821815655161"><ele>93.0</ele><time>2026-04-10T17:44:05Z</time></trkpt><trkpt lat="45.37270848141915" lon="9.282614255772163"><ele>93.0</ele><time>2026-04-10T17:44:06Z</time></trkpt><trkpt lat="45.3728883770438" lon="9.282403098416301"><ele>93.0</ele><time>2026-04-10T17:44:07Z</time></trkpt><trkpt lat="45.37307081336888" lon="9.282196726453027"><ele>93.0</ele><time>2026-04-10T17:44:08Z</time></trkpt><trkpt lat="45.37325605845276" lon="9.281995965903914"><ele>93.0</ele><time>2026-04-10T17:44:09Z</time></trkpt><trkpt lat="45.37344014079896" lon="9.28178931777798"><ele>93.0</ele><time>2026-04-10T17:44:10Z</time></trkpt><trkpt lat="45.38043126652342" lon="9.268759895397997"><ele>95.5</ele><time>2026-04-10T17:45:11Z</time></trkpt><trkpt lat="45.38059142536884" lon="9.268508179760358"><ele>98.0</ele><time>2026-04-10T17:45:12Z</time></trkpt><trkpt lat="45.38075094676295" lon="9.268253540880183"><ele>97.5</ele><time>2026-04-10T17:45:13Z</time></trkpt><trkpt lat="45.38091041403627" lon="9.268002954296701"><ele>97.0</ele><time>2026-04-10T17:45:14Z</time></trkpt><trkpt lat="45.38106583758129" lon="9.267751873752097"><ele>97.0</ele><time>2026-04-10T17:45:15Z</time></trkpt><trkpt lat="45.38121104699379" lon="9.2675000947968"><ele>97.0</ele><time>2026-04-10T17:45:16Z</time></trkpt><trkpt lat="45.38134754178301" lon="9.26724620209107"><ele>97.0</ele><time>2026-04-10T17:45:17Z</time></trkpt><trkpt lat="45.381475798953495" lon="9.26698921134279"><ele>97.0</ele><time>2026-04-10T17:45:18Z</time></trkpt><trkpt lat="45.38159835571571" lon="9.266720712422511"><ele>97.0</ele><time>2026-04-10T17:45:19Z</time></trkpt><trkpt lat="45.381712412359896" lon="9.266449225592646"><ele>98.0</ele><time>2026-04-10T17:45:20Z</time></trkpt><trkpt lat="45.38181638469227" lon="9.26616631959888"><ele>99.0</ele><time>2026-04-10T17:45:21Z</time></trkpt><trkpt lat="45.38190894722605" lon="9.265877603944793"><ele>100.0</ele><time>2026-04-10T17:45:22Z</time></trkpt><trkpt lat="45.38199052635898" lon="9.265582713089724"><ele>100.0</ele><time>2026-04-10T17:45:23Z</time></trkpt><trkpt lat="45.382063308933304" lon="9.26528403288923"><ele>100.0</ele><time>2026-04-10T17:45:24Z</time></trkpt><trkpt lat="45.382124589898226" lon="9.26498530395121"><ele>100.0</ele><time>2026-04-10T17:45:25Z</time></trkpt><trkpt lat="45.38216993091484" lon="9.264687142271487"><ele>99.0</ele><time>2026-04-10T17:45:26Z</time></trkpt><trkpt lat="45.382208217793846" lon="9.264386887924225"><ele>98.0</ele><time>2026-04-10T17:45:27Z</time></trkpt><trkpt lat="45.382247715596336" lon="9.264072082391069"><ele>97.0</ele><time>2026-04-10T17:45:28Z</time></trkpt><trkpt lat="45.38227668965311" lon="9.26375329156825"><ele>97.0</ele><time>2026-04-10T17:45:29Z</time></trkpt><trkpt lat="45.38229955357147" lon="9.263426989860434"><ele>97.0</ele><time>2026-04-10T17:45:30Z</time></trkpt><trkpt lat="45.38231996605823" lon="9.263093459093781"><ele>97.5</ele><time>2026-04-10T17:45:31Z</time></trkpt><trkpt lat="45.382340681888294" lon="9.262756060649574"><ele>98.0</ele><time>2026-04-10T17:45:32Z</time></trkpt><trkpt lat="45.38236107472606" lon="9.262411997355828"><ele>98.5</ele><time>2026-04-10T17:45:33Z</time></trkpt><trkpt lat="45.38238082488636" lon="9.262068608621432"><ele>99.0</ele><time>2026-04-10T17:45:34Z</time></trkpt><trkpt lat="45.38239965105635" lon="9.2617253356035"><ele>98.0</ele><time>2026-04-10T17:45:35Z</time></trkpt><trkpt lat="45.38242079050963" lon="9.26138126986128"><ele>97.0</ele><time>2026-04-10T17:45:36Z</time></trkpt><trkpt lat="45.38244218095391" lon="9.261036173569646"><ele>97.0</ele><time>2026-04-10T17:45:37Z</time></trkpt><trkpt lat="45.382459942623434" lon="9.260694542985968"><ele>97.0</ele><time>2026-04-10T17:45:38Z</time></trkpt><trkpt lat="45.382480003471464" lon="9.26035381499253"><ele>97.0</ele><time>2026-04-10T17:45:39Z</time></trkpt><trkpt lat="45.38250139721986" lon="9.260009940926036"><ele>97.0</ele><time>2026-04-10T17:45:40Z</time></trkpt><trkpt lat="45.38251905405894" lon="9.25966545615321"><ele>97.5</ele><time>2026-04-10T17:45:41Z</time></trkpt><trkpt lat="45.382538344059576" lon="9.259321945455145"><ele>98.0</ele><time>2026-04-10T17:45:42Z</time></trkpt><trkpt lat="45.382560246519716" lon="9.258978302401554"><ele>98.5</ele><time>2026-04-10T17:45:43Z</time></trkpt><trkpt lat="45.382580800581664" lon="9.258638093232731"><ele>99.0</ele><time>2026-04-10T17:45:44Z</time></trkpt><trkpt lat="45.38260314388033" lon="9.258296440341983"><ele>98.5</ele><time>2026-04-10T17:45:45Z</time></trkpt><trkpt lat="45.38262428521199" lon="9.257952895165511"><ele>98.0</ele><time>2026-04-10T17:45:46Z</time></trkpt><trkpt lat="45.38264529763703" lon="9.257609640750033"><ele>97.5</ele><time>2026-04-10T17:45:47Z</time></trkpt><trkpt lat="45.38266548458722" lon="9.257265922478856"><ele>97.0</ele><time>2026-04-10T17:45:48Z</time></trkpt><trkpt lat="45.38268475346396" lon="9.256921296494678"><ele>97.0</ele><time>2026-04-10T17:45:49Z</time></trkpt><trkpt lat="45.38270523716577" lon="9.256576390863845"><ele>97.0</ele><time>2026-04-10T17:45:50Z</time></trkpt><trkpt lat="45.38272671309184" lon="9.25622689739257"><ele>97.0</ele><time>2026-04-10T17:45:51Z</time></trkpt><trkpt lat="45.38274690259515" lon="9.255874639823807"><ele>97.0</ele><time>2026-04-10T17:45:52Z</time></trkpt><trkpt lat="45.38276961639183" lon="9.255521847280084"><ele>97.5</ele><time>2026-04-10T17:45:53Z</time></trkpt><trkpt lat="45.382791071114085" lon="9.255163120159363"><ele>98.0</ele><time>2026-04-10T17:45:54Z</time></trkpt><trkpt lat="45.38281255835662" lon="9.25480181376503"><ele>98.0</ele><time>2026-04-10T17:45:55Z</time></trkpt><trkpt lat="45.382839044480065" lon="9.254439932280908"><ele>98.0</ele><time>2026-04-10T17:45:56Z</time></trkpt><trkpt lat="45.38286669153379" lon="9.254078439877915"><ele>98.0</ele><time>2026-04-10T17:45:57Z</time></trkpt><trkpt lat="45.38289517659318" lon="9.253713792381552"><ele>98.0</ele><time>2026-04-10T17:45:58Z</time></trkpt><trkpt lat="45.382924062823434" lon="9.253350982641388"><ele>99.0</ele><time>2026-04-10T17:45:59Z</time></trkpt><trkpt lat="45.3829496129746" lon="9.252997713668277"><ele>100.0</ele><time>2026-04-10T17:46:00Z</time></trkpt><trkpt lat="45.38297406837701" lon="9.252649628940313"><ele>100.0</ele><time>2026-04-10T17:46:01Z</time></trkpt><trkpt lat="45.38299798389468" lon="9.252301183888472"><ele>100.0</ele><time>2026-04-10T17:46:02Z</time></trkpt><trkpt lat="45.383021923428025" lon="9.251952935365967"><ele>100.0</ele><time>2026-04-10T17:46:03Z</time></trkpt><trkpt lat="45.38304205746887" lon="9.251607099937802"><ele>100.0</ele><time>2026-04-10T17:46:04Z</time></trkpt><trkpt lat="45.383059888206596" lon="9.251261028395096"><ele>100.0</ele><time>2026-04-10T17:46:05Z</time></trkpt><trkpt lat="45.38307939314168" lon="9.250918452770968"><ele>100.0</ele><time>2026-04-10T17:46:06Z</time></trkpt><trkpt lat="45.38310000886983" lon="9.250570917887327"><ele>99.5</ele><time>2026-04-10T17:46:07Z</time></trkpt><trkpt lat="45.38311906539506" lon="9.250223859380512"><ele>99.0</ele><time>2026-04-10T17:46:08Z</time></trkpt><trkpt lat="45.38313959326499" lon="9.249874381457493"><ele>98.5</ele><time>2026-04-10T17:46:09Z</time></trkpt><trkpt lat="45.383160162819074" lon="9.24952129858226"><ele>98.0</ele><time>2026-04-10T17:46:10Z</time></trkpt><trkpt lat="45.386650680970185" lon="9.228605383120472"><ele>98.5</ele><time>2026-04-10T17:47:11Z</time></trkpt><trkpt lat="45.38673356667319" lon="9.228264288811728"><ele>99.0</ele><time>2026-04-10T17:47:12Z</time></trkpt><trkpt lat="45.38681659604845" lon="9.227925335155376"><ele>99.0</ele><time>2026-04-10T17:47:13Z</time></trkpt><trkpt lat="45.3869008529637" lon="9.227585693408493"><ele>99.0</ele><time>2026-04-10T17:47:14Z</time></trkpt><trkpt lat="45.38698438447424" lon="9.22724742305654"><ele>99.0</ele><time>2026-04-10T17:47:15Z</time></trkpt><trkpt lat="45.387070881023725" lon="9.226919331220435"><ele>99.0</ele><time>2026-04-10T17:47:16Z</time></trkpt><trkpt lat="45.38715188138672" lon="9.226584879384937"><ele>100.0</ele><time>2026-04-10T17:47:17Z</time></trkpt><trkpt lat="45.38723364791023" lon="9.226243454100475"><ele>101.0</ele><time>2026-04-10T17:47:18Z</time></trkpt><trkpt lat="45.38731741894291" lon="9.225902362720888"><ele>101.5</ele><time>2026-04-10T17:47:19Z</time></trkpt><trkpt lat="45.387396468794236" lon="9.225571908962314"><ele>102.0</ele><time>2026-04-10T17:47:20Z</time></trkpt><trkpt lat="45.3874807467698" lon="9.225240782603489"><ele>102.0</ele><time>2026-04-10T17:47:21Z</time></trkpt><trkpt lat="45.38756564827543" lon="9.224908621848938"><ele>102.0</ele><time>2026-04-10T17:47:22Z</time></trkpt><trkpt lat="45.38764784787717" lon="9.224573123417091"><ele>100.5</ele><time>2026-04-10T17:47:23Z</time></trkpt><trkpt lat="45.38773106433634" lon="9.224238070227491"><ele>99.0</ele><time>2026-04-10T17:47:24Z</time></trkpt><trkpt lat="45.387815466678454" lon="9.22390049804894"><ele>99.0</ele><time>2026-04-10T17:47:25Z</time></trkpt><trkpt lat="45.38790059715771" lon="9.223557924478989"><ele>99.0</ele><time>2026-04-10T17:47:26Z</time></trkpt><trkpt lat="45.387987199653686" lon="9.223217070881933"><ele>100.0</ele><time>2026-04-10T17:47:27Z</time></trkpt><trkpt lat="45.38807016753786" lon="9.222874015364408"><ele>101.0</ele><time>2026-04-10T17:47:28Z</time></trkpt><trkpt lat="45.38815036316753" lon="9.222526950086872"><ele>100.5</ele><time>2026-04-10T17:47:29Z</time></trkpt><trkpt lat="45.38823321627415" lon="9.222191093766074"><ele>100.0</ele><time>2026-04-10T17:47:30Z</time></trkpt><trkpt lat="45.38831577658463" lon="9.221861526834116"><ele>100.0</ele><time>2026-04-10T17:47:31Z</time></trkpt><trkpt lat="45.38839872679781" lon="9.221530673642501"><ele>100.0</ele><time>2026-04-10T17:47:32Z</time></trkpt><trkpt lat="45.38848082622932" lon="9.221200395788541"><ele>100.0</ele><time>2026-04-10T17:47:33Z</time></trkpt><trkpt lat="45.38856302626317" lon="9.220871564051224"><ele>100.0</ele><time>2026-04-10T17:47:34Z</time></trkpt><trkpt lat="45.38864081872345" lon="9.220557729931006"><ele>100.0</ele><time>2026-04-10T17:47:35Z</time></trkpt><trkpt lat="45.38871591075704" lon="9.22024147905126"><ele>100.0</ele><time>2026-04-10T17:47:36Z</time></trkpt><trkpt lat="45.38879601139259" lon="9.219920749320496"><ele>102.0</ele><time>2026-04-10T17:47:37Z</time></trkpt><trkpt lat="45.38887581119863" lon="9.219597331752976"><ele>104.0</ele><time>2026-04-10T17:47:38Z</time></trkpt><trkpt lat="45.38895671825305" lon="9.219271668900081"><ele>103.0</ele><time>2026-04-10T17:47:39Z</time></trkpt><trkpt lat="45.38903725246044" lon="9.218946564615031"><ele>102.0</ele><time>2026-04-10T17:47:40Z</time></trkpt><trkpt lat="45.38911848963853" lon="9.218623302710435"><ele>102.0</ele><time>2026-04-10T17:47:41Z</time></trkpt><trkpt lat="45.389197980645804" lon="9.218310062200553"><ele>102.0</ele><time>2026-04-10T17:47:42Z</time></trkpt><trkpt lat="45.38927211387143" lon="9.218008759085876"><ele>102.0</ele><time>2026-04-10T17:47:43Z</time></trkpt><trkpt lat="45.389345715757734" lon="9.21770042527735"><ele>102.0</ele><time>2026-04-10T17:47:44Z</time></trkpt><trkpt lat="45.38942051463962" lon="9.217381754441313"><ele>100.5</ele><time>2026-04-10T17:47:45Z</time></trkpt><trkpt lat="45.38949358869995" lon="9.217059050924854"><ele>99.0</ele><time>2026-04-10T17:47:46Z</time></trkpt><trkpt lat="45.38956780806462" lon="9.216728249537185"><ele>99.0</ele><time>2026-04-10T17:47:47Z</time></trkpt><trkpt lat="45.38964205119316" lon="9.216392452728408"><ele>99.0</ele><time>2026-04-10T17:47:48Z</time></trkpt><trkpt lat="45.389714790034624" lon="9.216054021206848"><ele>101.0</ele><time>2026-04-10T17:47:49Z</time></trkpt><trkpt lat="45.389787559835455" lon="9.21571195219292"><ele>103.0</ele><time>2026-04-10T17:47:50Z</time></trkpt><trkpt lat="45.38986026785586" lon="9.215364995813031"><ele>103.0</ele><time>2026-04-10T17:47:51Z</time></trkpt><trkpt lat="45.38993226284819" lon="9.21501625791673"><ele>103.0</ele><time>2026-04-10T17:47:52Z</time></trkpt><trkpt lat="45.38999953011062" lon="9.21467882547728"><ele>104.5</ele><time>2026-04-10T17:47:53Z</time></trkpt><trkpt lat="45.390061992741344" lon="9.214356998878358"><ele>106.0</ele><time>2026-04-10T17:47:54Z</time></trkpt><trkpt lat="45.39012297128785" lon="9.214037145191943"><ele>105.5</ele><time>2026-04-10T17:47:55Z</time></trkpt><trkpt lat="45.39018380474188" lon="9.21371975591328"><ele>105.0</ele><time>2026-04-10T17:47:56Z</time></trkpt><trkpt lat="45.390243278119804" lon="9.213401444367433"><ele>105.0</ele><time>2026-04-10T17:47:57Z</time></trkpt><trkpt lat="45.390299267486164" lon="9.213078821222426"><ele>105.0</ele><time>2026-04-10T17:47:58Z</time></trkpt><trkpt lat="45.39035122900382" lon="9.212759191096156"><ele>105.0</ele><time>2026-04-10T17:47:59Z</time></trkpt><trkpt lat="45.39040235647638" lon="9.21243315640297"><ele>105.0</ele><time>2026-04-10T17:48:00Z</time></trkpt><trkpt lat="45.39045412626001" lon="9.212102678168618"><ele>104.5</ele><time>2026-04-10T17:48:01Z</time></trkpt><trkpt lat="45.39050685290827" lon="9.2117728641054"><ele>104.0</ele><time>2026-04-10T17:48:02Z</time></trkpt><trkpt lat="45.3905641655053" lon="9.211433677123186"><ele>104.0</ele><time>2026-04-10T17:48:03Z</time></trkpt><trkpt lat="45.39061899928203" lon="9.211093126789873"><ele>104.0</ele><time>2026-04-10T17:48:04Z</time></trkpt><trkpt lat="45.390672261859386" lon="9.210754809933814"><ele>104.5</ele><time>2026-04-10T17:48:05Z</time></trkpt><trkpt lat="45.390721796408904" lon="9.210415473750427"><ele>105.0</ele><time>2026-04-10T17:48:06Z</time></trkpt><trkpt lat="45.39076955939049" lon="9.210084366156456"><ele>104.5</ele><time>2026-04-10T17:48:07Z</time></trkpt><trkpt lat="45.39081437911642" lon="9.209745932004902"><ele>104.0</ele><time>2026-04-10T17:48:08Z</time></trkpt><trkpt lat="45.39085741837897" lon="9.209403943655776"><ele>104.0</ele><time>2026-04-10T17:48:09Z</time></trkpt><trkpt lat="45.39089792712916" lon="9.20905674582884"><ele>104.0</ele><time>2026-04-10T17:48:10Z</time></trkpt><trkpt lat="45.39066221466894" lon="9.187958830076607"><ele>103.0</ele><time>2026-04-10T17:49:11Z</time></trkpt><trkpt lat="45.39059878898572" lon="9.187613683225553"><ele>102.0</ele><time>2026-04-10T17:49:12Z</time></trkpt><trkpt lat="45.390534493790824" lon="9.187275786334116"><ele>100.5</ele><time>2026-04-10T17:49:13Z</time></trkpt><trkpt lat="45.39046573621287" lon="9.18693903423085"><ele>99.0</ele><time>2026-04-10T17:49:14Z</time></trkpt><trkpt lat="45.39039449073702" lon="9.186600998114818"><ele>100.0</ele><time>2026-04-10T17:49:15Z</time></trkpt><trkpt lat="45.390321795592385" lon="9.186262062488945"><ele>101.0</ele><time>2026-04-10T17:49:16Z</time></trkpt><trkpt lat="45.39024881595642" lon="9.185927203884695"><ele>100.5</ele><time>2026-04-10T17:49:17Z</time></trkpt><trkpt lat="45.390175664987616" lon="9.185596310235258"><ele>100.0</ele><time>2026-04-10T17:49:18Z</time></trkpt><trkpt lat="45.390101768237066" lon="9.185266261970202"><ele>100.0</ele><time>2026-04-10T17:49:19Z</time></trkpt><trkpt lat="45.390025067561126" lon="9.184933362656974"><ele>100.0</ele><time>2026-04-10T17:49:20Z</time></trkpt><trkpt lat="45.389944591946644" lon="9.18459803985251"><ele>100.5</ele><time>2026-04-10T17:49:21Z</time></trkpt><trkpt lat="45.389862069422634" lon="9.184265404367867"><ele>101.0</ele><time>2026-04-10T17:49:22Z</time></trkpt><trkpt lat="45.389777547045185" lon="9.183934628800023"><ele>101.5</ele><time>2026-04-10T17:49:23Z</time></trkpt><trkpt lat="45.38968728097359" lon="9.183605336739527"><ele>102.0</ele><time>2026-04-10T17:49:24Z</time></trkpt><trkpt lat="45.389597556181165" lon="9.183274246389082"><ele>102.5</ele><time>2026-04-10T17:49:25Z</time></trkpt><trkpt lat="45.38950710753226" lon="9.182944851817089"><ele>103.0</ele><time>2026-04-10T17:49:26Z</time></trkpt><trkpt lat="45.38941501411333" lon="9.182618431604771"><ele>103.5</ele><time>2026-04-10T17:49:27Z</time></trkpt><trkpt lat="45.389319415134125" lon="9.182292938652676"><ele>104.0</ele><time>2026-04-10T17:49:28Z</time></trkpt><trkpt lat="45.38922476534084" lon="9.181962799807913"><ele>104.0</ele><time>2026-04-10T17:49:29Z</time></trkpt><trkpt lat="45.38913142592397" lon="9.181639517954629"><ele>104.0</ele><time>2026-04-10T17:49:30Z</time></trkpt><trkpt lat="45.38903031324544" lon="9.18130713012704"><ele>103.5</ele><time>2026-04-10T17:49:31Z</time></trkpt><trkpt lat="45.388931591215425" lon="9.180996022810591"><ele>103.0</ele><time>2026-04-10T17:49:32Z</time></trkpt><trkpt lat="45.388828531659115" lon="9.180688046415405"><ele>102.0</ele><time>2026-04-10T17:49:33Z</time></trkpt><trkpt lat="45.38872550687764" lon="9.180386322880855"><ele>101.0</ele><time>2026-04-10T17:49:34Z</time></trkpt><trkpt lat="45.388622200415334" lon="9.180084194218729"><ele>101.5</ele><time>2026-04-10T17:49:35Z</time></trkpt><trkpt lat="45.388518646615225" lon="9.179783660689221"><ele>102.0</ele><time>2026-04-10T17:49:36Z</time></trkpt><trkpt lat="45.38841233394208" lon="9.17948321223367"><ele>102.0</ele><time>2026-04-10T17:49:37Z</time></trkpt><trkpt lat="45.388304361168494" lon="9.179179796582796"><ele>102.0</ele><time>2026-04-10T17:49:38Z</time></trkpt><trkpt lat="45.38819260383425" lon="9.178875716729067"><ele>102.5</ele><time>2026-04-10T17:49:39Z</time></trkpt><trkpt lat="45.38808140160152" lon="9.178571636910561"><ele>103.0</ele><time>2026-04-10T17:49:40Z</time></trkpt><trkpt lat="45.38796574563755" lon="9.178264160061397"><ele>103.0</ele><time>2026-04-10T17:49:41Z</time></trkpt><trkpt lat="45.38784586725744" lon="9.177958864971346"><ele>103.0</ele><time>2026-04-10T17:49:42Z</time></trkpt><trkpt lat="45.38772639799449" lon="9.17765108074966"><ele>103.5</ele><time>2026-04-10T17:49:43Z</time></trkpt><trkpt lat="45.387604576354356" lon="9.177346324009868"><ele>104.0</ele><time>2026-04-10T17:49:44Z</time></trkpt><trkpt lat="45.38748404368797" lon="9.177043169918914"><ele>104.0</ele><time>2026-04-10T17:49:45Z</time></trkpt><trkpt lat="45.387364105510265" lon="9.17674585302814"><ele>104.0</ele><time>2026-04-10T17:49:46Z</time></trkpt><trkpt lat="45.38724771313871" lon="9.176445472439072"><ele>102.5</ele><time>2026-04-10T17:49:47Z</time></trkpt><trkpt lat="45.387132814346415" lon="9.176138274041117"><ele>101.0</ele><time>2026-04-10T17:49:48Z</time></trkpt><trkpt lat="45.38702271373449" lon="9.1758263199568"><ele>100.5</ele><time>2026-04-10T17:49:49Z</time></trkpt><trkpt lat="45.38692335502458" lon="9.17550501361134"><ele>100.0</ele><time>2026-04-10T17:49:50Z</time></trkpt><trkpt lat="45.38683310727596" lon="9.175176976788762"><ele>100.5</ele><time>2026-04-10T17:49:51Z</time></trkpt><trkpt lat="45.38674877130056" lon="9.17484349939576"><ele>101.0</ele><time>2026-04-10T17:49:52Z</time></trkpt><trkpt lat="45.386666357143" lon="9.174511492929737"><ele>101.0</ele><time>2026-04-10T17:49:53Z</time></trkpt><trkpt lat="45.3865879787553" lon="9.174176072004157"><ele>101.0</ele><time>2026-04-10T17:49:54Z</time></trkpt><trkpt lat="45.38652102857721" lon="9.173836438464347"><ele>101.0</ele><time>2026-04-10T17:49:55Z</time></trkpt><trkpt lat="45.386460873422536" lon="9.173489923638837"><ele>101.0</ele><time>2026-04-10T17:49:56Z</time></trkpt><trkpt lat="45.38640703556327" lon="9.17314082869319"><ele>101.0</ele><time>2026-04-10T17:49:57Z</time></trkpt><trkpt lat="45.38635813351651" lon="9.172792542846198"><ele>101.0</ele><time>2026-04-10T17:49:58Z</time></trkpt><trkpt lat="45.386316206261135" lon="9.172437485555792"><ele>101.0</ele><time>2026-04-10T17:49:59Z</time></trkpt><trkpt lat="45.38628247161788" lon="9.172081930145627"><ele>101.0</ele><time>2026-04-10T17:50:00Z</time></trkpt><trkpt lat="45.38625693697867" lon="9.171726582266217"><ele>102.5</ele><time>2026-04-10T17:50:01Z</time></trkpt><trkpt lat="45.38623804771171" lon="9.171373361881708"><ele>104.0</ele><time>2026-04-10T17:50:02Z</time></trkpt><trkpt lat="45.38622588534595" lon="9.1710217169494"><ele>105.0</ele><time>2026-04-10T17:50:03Z</time></trkpt><trkpt lat="45.3862239399834" lon="9.170670631972387"><ele>106.0</ele><time>2026-04-10T17:50:04Z</time></trkpt><trkpt lat="45.38622570759726" lon="9.170325761300552"><ele>106.0</ele><time>2026-04-10T17:50:05Z</time></trkpt><trkpt lat="45.38623629905407" lon="9.16998604717753"><ele>106.0</ele><time>2026-04-10T17:50:06Z</time></trkpt><trkpt lat="45.38625197704101" lon="9.169648444370706"><ele>105.0</ele><time>2026-04-10T17:50:07Z</time></trkpt><trkpt lat="45.386269420943876" lon="9.169304013517818"><ele>104.0</ele><time>2026-04-10T17:50:08Z</time></trkpt><trkpt lat="45.38629275794337" lon="9.168964134892079"><ele>105.0</ele><time>2026-04-10T17:50:09Z</time></trkpt><trkpt lat="45.386326145118176" lon="9.16862845073498"><ele>106.0</ele><time>2026-04-10T17:50:10Z</time></trkpt><trkpt lat="45.3927094373878" lon="9.149124821570092"><ele>108.0</ele><time>2026-04-10T17:51:11Z</time></trkpt><trkpt lat="45.39281933718898" lon="9.148818466984453"><ele>110.0</ele><time>2026-04-10T17:51:12Z</time></trkpt><trkpt lat="45.39292734449073" lon="9.14851393617652"><ele>108.5</ele><time>2026-04-10T17:51:13Z</time></trkpt><trkpt lat="45.39303377994474" lon="9.148209841494086"><ele>107.0</ele><time>2026-04-10T17:51:14Z</time></trkpt><trkpt lat="45.39314005798051" lon="9.147904568246119"><ele>107.0</ele><time>2026-04-10T17:51:15Z</time></trkpt><trkpt lat="45.39324843202935" lon="9.147593775001164"><ele>107.0</ele><time>2026-04-10T17:51:16Z</time></trkpt><trkpt lat="45.39335910508258" lon="9.147281809234912"><ele>107.5</ele><time>2026-04-10T17:51:17Z</time></trkpt><trkpt lat="45.393471320522345" lon="9.146967421278173"><ele>108.0</ele><time>2026-04-10T17:51:18Z</time></trkpt><trkpt lat="45.39358485532634" lon="9.146652925734177"><ele>106.5</ele><time>2026-04-10T17:51:19Z</time></trkpt><trkpt lat="45.393692580800085" lon="9.146342011106205"><ele>105.0</ele><time>2026-04-10T17:51:20Z</time></trkpt><trkpt lat="45.393805744914786" lon="9.146031408090403"><ele>105.0</ele><time>2026-04-10T17:51:21Z</time></trkpt><trkpt lat="45.3939153488017" lon="9.145712650069452"><ele>105.0</ele><time>2026-04-10T17:51:22Z</time></trkpt><trkpt lat="45.39402575813271" lon="9.145390129855242"><ele>105.0</ele><time>2026-04-10T17:51:23Z</time></trkpt><trkpt lat="45.39413939954297" lon="9.145070352685838"><ele>105.0</ele><time>2026-04-10T17:51:24Z</time></trkpt><trkpt lat="45.39425591452031" lon="9.144751839419197"><ele>106.0</ele><time>2026-04-10T17:51:25Z</time></trkpt><trkpt lat="45.39436918360214" lon="9.144433262004739"><ele>107.0</ele><time>2026-04-10T17:51:26Z</time></trkpt><trkpt lat="45.39447927761408" lon="9.14411546705312"><ele>107.0</ele><time>2026-04-10T17:51:27Z</time></trkpt><trkpt lat="45.39458964271128" lon="9.14380210110104"><ele>107.0</ele><time>2026-04-10T17:51:28Z</time></trkpt><trkpt lat="45.39469760393821" lon="9.143490614232602"><ele>106.5</ele><time>2026-04-10T17:51:29Z</time></trkpt><trkpt lat="45.39481745168283" lon="9.14319215866666"><ele>106.0</ele><time>2026-04-10T17:51:30Z</time></trkpt><trkpt lat="45.39492462382713" lon="9.142883220043272"><ele>106.0</ele><time>2026-04-10T17:51:31Z</time></trkpt><trkpt lat="45.39503270447702" lon="9.142569221691081"><ele>106.0</ele><time>2026-04-10T17:51:32Z</time></trkpt><trkpt lat="45.39514249224401" lon="9.142232919660273"><ele>105.5</ele><time>2026-04-10T17:51:33Z</time></trkpt><trkpt lat="45.395251214326564" lon="9.141934305283952"><ele>105.0</ele><time>2026-04-10T17:51:34Z</time></trkpt><trkpt lat="45.39535918531271" lon="9.141630428192887"><ele>105.0</ele><time>2026-04-10T17:51:35Z</time></trkpt><trkpt lat="45.39547135153495" lon="9.141320166891907"><ele>105.0</ele><time>2026-04-10T17:51:36Z</time></trkpt><trkpt lat="45.3955815825681" lon="9.141008208426419"><ele>108.0</ele><time>2026-04-10T17:51:37Z</time></trkpt><trkpt lat="45.3956929869484" lon="9.140693388006238"><ele>111.0</ele><time>2026-04-10T17:51:38Z</time></trkpt><trkpt lat="45.39580432950443" lon="9.140373788872752"><ele>111.0</ele><time>2026-04-10T17:51:39Z</time></trkpt><trkpt lat="45.39591503244869" lon="9.140056992133093"><ele>111.0</ele><time>2026-04-10T17:51:40Z</time></trkpt><trkpt lat="45.39602997134735" lon="9.139742888112682"><ele>108.5</ele><time>2026-04-10T17:51:41Z</time></trkpt><trkpt lat="45.39614467580536" lon="9.139418135170494"><ele>106.0</ele><time>2026-04-10T17:51:42Z</time></trkpt><trkpt lat="45.39625633417733" lon="9.139092519691534"><ele>106.0</ele><time>2026-04-10T17:51:43Z</time></trkpt><trkpt lat="45.3963680550909" lon="9.138779474140843"><ele>106.0</ele><time>2026-04-10T17:51:44Z</time></trkpt><trkpt lat="45.3964749578096" lon="9.138461967090647"><ele>105.0</ele><time>2026-04-10T17:51:45Z</time></trkpt><trkpt lat="45.396580362406134" lon="9.138139092153896"><ele>104.0</ele><time>2026-04-10T17:51:46Z</time></trkpt><trkpt lat="45.39669008720756" lon="9.137830000826073"><ele>104.0</ele><time>2026-04-10T17:51:47Z</time></trkpt><trkpt lat="45.39679559235101" lon="9.137509335463601"><ele>104.0</ele><time>2026-04-10T17:51:48Z</time></trkpt><trkpt lat="45.39689417637938" lon="9.137194158242766"><ele>103.0</ele><time>2026-04-10T17:51:49Z</time></trkpt><trkpt lat="45.396988581836986" lon="9.136874138855712"><ele>102.0</ele><time>2026-04-10T17:51:50Z</time></trkpt><trkpt lat="45.397082143392026" lon="9.136551102789355"><ele>102.0</ele><time>2026-04-10T17:51:51Z</time></trkpt><trkpt lat="45.39716641255737" lon="9.136233069312988"><ele>102.0</ele><time>2026-04-10T17:51:52Z</time></trkpt><trkpt lat="45.397259690616394" lon="9.135915297273847"><ele>103.5</ele><time>2026-04-10T17:51:53Z</time></trkpt><trkpt lat="45.397347219306184" lon="9.13558764984182"><ele>105.0</ele><time>2026-04-10T17:51:54Z</time></trkpt><trkpt lat="45.39743004524176" lon="9.135264859184444"><ele>105.0</ele><time>2026-04-10T17:51:55Z</time></trkpt><trkpt lat="45.39750369754461" lon="9.134934995522448"><ele>105.0</ele><time>2026-04-10T17:51:56Z</time></trkpt><trkpt lat="45.397578285641224" lon="9.134607399448257"><ele>105.0</ele><time>2026-04-10T17:51:57Z</time></trkpt><trkpt lat="45.397652889868944" lon="9.134276832790123"><ele>105.0</ele><time>2026-04-10T17:51:58Z</time></trkpt><trkpt lat="45.397724934800536" lon="9.133949624377022"><ele>106.0</ele><time>2026-04-10T17:51:59Z</time></trkpt><trkpt lat="45.397797366386584" lon="9.133616311845746"><ele>107.0</ele><time>2026-04-10T17:52:00Z</time></trkpt><trkpt lat="45.39787046082643" lon="9.133284248508533"><ele>107.0</ele><time>2026-04-10T17:52:01Z</time></trkpt><trkpt lat="45.397942548671374" lon="9.132951273779526"><ele>107.0</ele><time>2026-04-10T17:52:02Z</time></trkpt><trkpt lat="45.398016176508555" lon="9.132607492777888"><ele>107.0</ele><time>2026-04-10T17:52:03Z</time></trkpt><trkpt lat="45.398086098142485" lon="9.132264364344666"><ele>107.0</ele><time>2026-04-10T17:52:04Z</time></trkpt><trkpt lat="45.3981539040113" lon="9.131918348028416"><ele>107.0</ele><time>2026-04-10T17:52:05Z</time></trkpt><trkpt lat="45.398227565919946" lon="9.13157961245881"><ele>107.0</ele><time>2026-04-10T17:52:06Z</time></trkpt><trkpt lat="45.398302232984925" lon="9.131233657954528"><ele>107.5</ele><time>2026-04-10T17:52:07Z</time></trkpt><trkpt lat="45.39838494563221" lon="9.130898624508783"><ele>108.0</ele><time>2026-04-10T17:52:08Z</time></trkpt><trkpt lat="45.398470667329875" lon="9.130564193484394"><ele>108.5</ele><time>2026-04-10T17:52:09Z</time></trkpt><trkpt lat="45.398562457658635" lon="9.130222197552301"><ele>109.0</ele><time>2026-04-10T17:52:10Z</time></trkpt><trkpt lat="45.40674535496456" lon="9.113407407202581"><ele>110.5</ele><time>2026-04-10T17:53:11Z</time></trkpt><trkpt lat="45.40689380027682" lon="9.113144778289865"><ele>112.0</ele><time>2026-04-10T17:53:12Z</time></trkpt><trkpt lat="45.40703784812645" lon="9.112892896012735"><ele>111.5</ele><time>2026-04-10T17:53:13Z</time></trkpt><trkpt lat="45.40718052738415" lon="9.112642183707223"><ele>111.0</ele><time>2026-04-10T17:53:14Z</time></trkpt><trkpt lat="45.40733102056499" lon="9.112370140674608"><ele>110.33333333333334</ele><time>2026-04-10T17:53:15Z</time></trkpt><trkpt lat="45.4074693682679" lon="9.112127577632272"><ele>109.66666666666667</ele><time>2026-04-10T17:53:16Z</time></trkpt><trkpt lat="45.40761542009547" lon="9.1118758730903"><ele>109.0</ele><time>2026-04-10T17:53:17Z</time></trkpt><trkpt lat="45.40775636746828" lon="9.11162867166069"><ele>109.0</ele><time>2026-04-10T17:53:18Z</time></trkpt><trkpt lat="45.40789541699822" lon="9.11138478977537"><ele>109.0</ele><time>2026-04-10T17:53:19Z</time></trkpt><trkpt lat="45.408038342637475" lon="9.111135930843545"><ele>109.0</ele><time>2026-04-10T17:53:20Z</time></trkpt><trkpt lat="45.40818114259214" lon="9.110881311458034"><ele>109.0</ele><time>2026-04-10T17:53:21Z</time></trkpt><trkpt lat="45.40832840525635" lon="9.110626353592085"><ele>109.0</ele><time>2026-04-10T17:53:22Z</time></trkpt><trkpt lat="45.408476309007725" lon="9.11036412499887"><ele>109.0</ele><time>2026-04-10T17:53:23Z</time></trkpt><trkpt lat="45.408620170327666" lon="9.11011350046701"><ele>109.0</ele><time>2026-04-10T17:53:24Z</time></trkpt><trkpt lat="45.40876125560467" lon="9.10986793370705"><ele>108.5</ele><time>2026-04-10T17:53:25Z</time></trkpt><trkpt lat="45.40890248562277" lon="9.10961278075918"><ele>108.0</ele><time>2026-04-10T17:53:26Z</time></trkpt><trkpt lat="45.409042865026365" lon="9.109343768537778"><ele>108.0</ele><time>2026-04-10T17:53:27Z</time></trkpt><trkpt lat="45.40918618061912" lon="9.109077669575719"><ele>108.0</ele><time>2026-04-10T17:53:28Z</time></trkpt><trkpt lat="45.40933908513963" lon="9.108799181971328"><ele>108.5</ele><time>2026-04-10T17:53:29Z</time></trkpt><trkpt lat="45.409494835857025" lon="9.108522035708095"><ele>109.0</ele><time>2026-04-10T17:53:30Z</time></trkpt><trkpt lat="45.40965084365165" lon="9.108248597204456"><ele>109.5</ele><time>2026-04-10T17:53:31Z</time></trkpt><trkpt lat="45.40980286316143" lon="9.107977188495425"><ele>110.0</ele><time>2026-04-10T17:53:32Z</time></trkpt><trkpt lat="45.409951188937086" lon="9.107702334519871"><ele>110.0</ele><time>2026-04-10T17:53:33Z</time></trkpt><trkpt lat="45.41009387978404" lon="9.107419131510264"><ele>110.0</ele><time>2026-04-10T17:53:34Z</time></trkpt><trkpt lat="45.41023326122196" lon="9.10713690454496"><ele>110.0</ele><time>2026-04-10T17:53:35Z</time></trkpt><trkpt lat="45.41037096809473" lon="9.106845540594081"><ele>110.0</ele><time>2026-04-10T17:53:36Z</time></trkpt><trkpt lat="45.41050627251592" lon="9.106553178419063"><ele>110.0</ele><time>2026-04-10T17:53:37Z</time></trkpt><trkpt lat="45.41063961864791" lon="9.106257069721979"><ele>110.0</ele><time>2026-04-10T17:53:38Z</time></trkpt><trkpt lat="45.41076853227944" lon="9.105955098230663"><ele>109.5</ele><time>2026-04-10T17:53:39Z</time></trkpt><trkpt lat="45.41089491952172" lon="9.105651359866263"><ele>109.0</ele><time>2026-04-10T17:53:40Z</time></trkpt><trkpt lat="45.4110161546696" lon="9.105343575424964"><ele>109.0</ele><time>2026-04-10T17:53:41Z</time></trkpt><trkpt lat="45.411139581525404" lon="9.10503499949164"><ele>109.0</ele><time>2026-04-10T17:53:42Z</time></trkpt><trkpt lat="45.41125635896073" lon="9.104726341592421"><ele>109.0</ele><time>2026-04-10T17:53:43Z</time></trkpt><trkpt lat="45.41136843038147" lon="9.104408865855696"><ele>109.0</ele><time>2026-04-10T17:53:44Z</time></trkpt><trkpt lat="45.411477687492145" lon="9.104087354709243"><ele>109.5</ele><time>2026-04-10T17:53:45Z</time></trkpt><trkpt lat="45.411580742271376" lon="9.103763270382665"><ele>110.0</ele><time>2026-04-10T17:53:46Z</time></trkpt><trkpt lat="45.41167911536424" lon="9.103440285084243"><ele>110.0</ele><time>2026-04-10T17:53:47Z</time></trkpt><trkpt lat="45.41177027582158" lon="9.103113808006631"><ele>110.0</ele><time>2026-04-10T17:53:48Z</time></trkpt><trkpt lat="45.41186445491156" lon="9.1027860256641"><ele>110.0</ele><time>2026-04-10T17:53:49Z</time></trkpt><trkpt lat="45.41195987848034" lon="9.102455979847804"><ele>110.0</ele><time>2026-04-10T17:53:50Z</time></trkpt><trkpt lat="45.412052416946906" lon="9.102122477021194"><ele>110.5</ele><time>2026-04-10T17:53:51Z</time></trkpt><trkpt lat="45.4121485738074" lon="9.1017911435573"><ele>111.0</ele><time>2026-04-10T17:53:52Z</time></trkpt><trkpt lat="45.412243955980806" lon="9.101461919951428"><ele>111.0</ele><time>2026-04-10T17:53:53Z</time></trkpt><trkpt lat="45.412340104734035" lon="9.101131317082938"><ele>111.0</ele><time>2026-04-10T17:53:54Z</time></trkpt><trkpt lat="45.41243578437687" lon="9.100802695344493"><ele>110.0</ele><time>2026-04-10T17:53:55Z</time></trkpt><trkpt lat="45.4125342927196" lon="9.100473443590733"><ele>109.0</ele><time>2026-04-10T17:53:56Z</time></trkpt><trkpt lat="45.412627179510245" lon="9.100144855161565"><ele>110.0</ele><time>2026-04-10T17:53:57Z</time></trkpt><trkpt lat="45.41272283102245" lon="9.09981346828349"><ele>111.0</ele><time>2026-04-10T17:53:58Z</time></trkpt><trkpt lat="45.41281706716804" lon="9.09947775923502"><ele>111.0</ele><time>2026-04-10T17:53:59Z</time></trkpt><trkpt lat="45.41290995356969" lon="9.099144560563328"><ele>111.0</ele><time>2026-04-10T17:54:00Z</time></trkpt><trkpt lat="45.4130042022374" lon="9.098811208248739"><ele>111.5</ele><time>2026-04-10T17:54:01Z</time></trkpt><trkpt lat="45.41309873133881" lon="9.098474471677287"><ele>112.0</ele><time>2026-04-10T17:54:02Z</time></trkpt><trkpt lat="45.41319222537091" lon="9.098137358936444"><ele>112.0</ele><time>2026-04-10T17:54:03Z</time></trkpt><trkpt lat="45.413290145053175" lon="9.097806849983508"><ele>112.0</ele><time>2026-04-10T17:54:04Z</time></trkpt><trkpt lat="45.41338788413218" lon="9.097468069195404"><ele>112.0</ele><time>2026-04-10T17:54:05Z</time></trkpt><trkpt lat="45.41348551141061" lon="9.0971314158719"><ele>112.0</ele><time>2026-04-10T17:54:06Z</time></trkpt><trkpt lat="45.41358290439963" lon="9.09679320995008"><ele>112.0</ele><time>2026-04-10T17:54:07Z</time></trkpt><trkpt lat="45.41367821628919" lon="9.09645877440922"><ele>112.0</ele><time>2026-04-10T17:54:08Z</time></trkpt><trkpt lat="45.413773295968326" lon="9.09612871979363"><ele>111.5</ele><time>2026-04-10T17:54:09Z</time></trkpt><trkpt lat="45.41386722852342" lon="9.09579199688154"><ele>111.0</ele><time>2026-04-10T17:54:10Z</time></trkpt><trkpt lat="45.423017912675284" lon="9.079839165159676"><ele>112.0</ele><time>2026-04-10T17:55:11Z</time></trkpt><trkpt lat="45.42323447734404" lon="9.079703557451925"><ele>113.0</ele><time>2026-04-10T17:55:12Z</time></trkpt><trkpt lat="45.42345245858008" lon="9.079567645269792"><ele>113.0</ele><time>2026-04-10T17:55:13Z</time></trkpt><trkpt lat="45.423671510344754" lon="9.079432615410514"><ele>113.0</ele><time>2026-04-10T17:55:14Z</time></trkpt><trkpt lat="45.42389053129287" lon="9.079296428112494"><ele>114.0</ele><time>2026-04-10T17:55:15Z</time></trkpt><trkpt lat="45.424109401441825" lon="9.079158664825174"><ele>115.0</ele><time>2026-04-10T17:55:16Z</time></trkpt><trkpt lat="45.4243199841443" lon="9.079029000492808"><ele>115.0</ele><time>2026-04-10T17:55:17Z</time></trkpt><trkpt lat="45.42453084456232" lon="9.078897219737991"><ele>115.0</ele><time>2026-04-10T17:55:18Z</time></trkpt><trkpt lat="45.424742195372545" lon="9.078765268456888"><ele>117.0</ele><time>2026-04-10T17:55:19Z</time></trkpt><trkpt lat="45.42495029005221" lon="9.078633641092575"><ele>119.0</ele><time>2026-04-10T17:55:20Z</time></trkpt><trkpt lat="45.42516024313159" lon="9.078500850027984"><ele>119.0</ele><time>2026-04-10T17:55:21Z</time></trkpt><trkpt lat="45.42536855002915" lon="9.078369216139965"><ele>119.0</ele><time>2026-04-10T17:55:22Z</time></trkpt><trkpt lat="45.42557161982846" lon="9.078244729108073"><ele>119.0</ele><time>2026-04-10T17:55:23Z</time></trkpt><trkpt lat="45.4257737775168" lon="9.078120464939955"><ele>118.66666666666666</ele><time>2026-04-10T17:55:24Z</time></trkpt><trkpt lat="45.42597429594443" lon="9.07800059952939"><ele>118.33333333333334</ele><time>2026-04-10T17:55:25Z</time></trkpt><trkpt lat="45.426172310062974" lon="9.077879475302495"><ele>118.0</ele><time>2026-04-10T17:55:26Z</time></trkpt><trkpt lat="45.4263700593308" lon="9.077760013023381"><ele>118.33333333333334</ele><time>2026-04-10T17:55:27Z</time></trkpt><trkpt lat="45.42656558601822" lon="9.077638208145558"><ele>118.66666666666666</ele><time>2026-04-10T17:55:28Z</time></trkpt><trkpt lat="45.42676138348218" lon="9.077514193676404"><ele>119.0</ele><time>2026-04-10T17:55:29Z</time></trkpt><trkpt lat="45.42695494144627" lon="9.077393838761305"><ele>119.0</ele><time>2026-04-10T17:55:30Z</time></trkpt><trkpt lat="45.427145988972356" lon="9.077276979060526"><ele>119.0</ele><time>2026-04-10T17:55:31Z</time></trkpt><trkpt lat="45.4273339192087" lon="9.0771623701879"><ele>119.0</ele><time>2026-04-10T17:55:32Z</time></trkpt><trkpt lat="45.42751737021403" lon="9.077048466424301"><ele>119.0</ele><time>2026-04-10T17:55:33Z</time></trkpt><trkpt lat="45.42769605899762" lon="9.07693755911204"><ele>119.0</ele><time>2026-04-10T17:55:34Z</time></trkpt><trkpt lat="45.4278702879612" lon="9.076829507822618"><ele>119.0</ele><time>2026-04-10T17:55:35Z</time></trkpt><trkpt lat="45.42804557652884" lon="9.076722469100387"><ele>119.33333333333333</ele><time>2026-04-10T17:55:36Z</time></trkpt><trkpt lat="45.42821858335853" lon="9.076616949559048"><ele>119.66666666666666</ele><time>2026-04-10T17:55:37Z</time></trkpt><trkpt lat="45.428393349512085" lon="9.076509770105355"><ele>120.0</ele><time>2026-04-10T17:55:38Z</time></trkpt><trkpt lat="45.42856800309365" lon="9.076400564895048"><ele>119.33333333333334</ele><time>2026-04-10T17:55:39Z</time></trkpt><trkpt lat="45.428742510713455" lon="9.07629413735609"><ele>118.66666666666667</ele><time>2026-04-10T17:55:40Z</time></trkpt><trkpt lat="45.42891885278" lon="9.076189136010818"><ele>118.0</ele><time>2026-04-10T17:55:41Z</time></trkpt><trkpt lat="45.42909974841314" lon="9.07608291223222"><ele>118.0</ele><time>2026-04-10T17:55:42Z</time></trkpt><trkpt lat="45.429284478877136" lon="9.075983356496911"><ele>118.0</ele><time>2026-04-10T17:55:43Z</time></trkpt><trkpt lat="45.429468378764334" lon="9.075886017683365"><ele>118.0</ele><time>2026-04-10T17:55:44Z</time></trkpt><trkpt lat="45.42964686533566" lon="9.075796536506555"><ele>117.66666666666667</ele><time>2026-04-10T17:55:45Z</time></trkpt><trkpt lat="45.429829529036745" lon="9.075708437000097"><ele>117.33333333333334</ele><time>2026-04-10T17:55:46Z</time></trkpt><trkpt lat="45.4300206584842" lon="9.075621492106553"><ele>117.0</ele><time>2026-04-10T17:55:47Z</time></trkpt><trkpt lat="45.430215530811516" lon="9.075534543459442"><ele>117.0</ele><time>2026-04-10T17:55:48Z</time></trkpt><trkpt lat="45.43041480273678" lon="9.075445447286778"><ele>117.0</ele><time>2026-04-10T17:55:49Z</time></trkpt><trkpt lat="45.430609499718614" lon="9.07536494177233"><ele>117.0</ele><time>2026-04-10T17:55:50Z</time></trkpt><trkpt lat="45.430802529121266" lon="9.075288310818861"><ele>116.66666666666666</ele><time>2026-04-10T17:55:51Z</time></trkpt><trkpt lat="45.43100286176684" lon="9.075216295057238"><ele>116.33333333333333</ele><time>2026-04-10T17:55:52Z</time></trkpt><trkpt lat="45.43120305430578" lon="9.075151499617425"><ele>116.0</ele><time>2026-04-10T17:55:53Z</time></trkpt><trkpt lat="45.431409770550246" lon="9.075091813018961"><ele>115.33333333333333</ele><time>2026-04-10T17:55:54Z</time></trkpt><trkpt lat="45.4316202148054" lon="9.07503742931589"><ele>114.66666666666666</ele><time>2026-04-10T17:55:55Z</time></trkpt><trkpt lat="45.43182446255957" lon="9.074986684438713"><ele>114.0</ele><time>2026-04-10T17:55:56Z</time></trkpt><trkpt lat="45.43202550430185" lon="9.074944111635732"><ele>114.0</ele><time>2026-04-10T17:55:57Z</time></trkpt><trkpt lat="45.43221844530769" lon="9.074907437817558"><ele>114.0</ele><time>2026-04-10T17:55:58Z</time></trkpt><trkpt lat="45.43240103536166" lon="9.074870065138708"><ele>114.0</ele><time>2026-04-10T17:55:59Z</time></trkpt><trkpt lat="45.4325927000689" lon="9.074828355755091"><ele>114.0</ele><time>2026-04-10T17:56:00Z</time></trkpt><trkpt lat="45.43277721895448" lon="9.07479163294586"><ele>114.0</ele><time>2026-04-10T17:56:01Z</time></trkpt><trkpt lat="45.432963880343245" lon="9.074761265213013"><ele>114.0</ele><time>2026-04-10T17:56:02Z</time></trkpt><trkpt lat="45.43315151374973" lon="9.074734362396075"><ele>115.33333333333334</ele><time>2026-04-10T17:56:03Z</time></trkpt><trkpt lat="45.43334137570398" lon="9.074710651016732"><ele>116.66666666666667</ele><time>2026-04-10T17:56:04Z</time></trkpt><trkpt lat="45.43352965727986" lon="9.074686029198546"><ele>118.0</ele><time>2026-04-10T17:56:05Z</time></trkpt><trkpt lat="45.43371943157116" lon="9.074664210736527"><ele>117.66666666666667</ele><time>2026-04-10T17:56:06Z</time></trkpt><trkpt lat="45.43390622948269" lon="9.074641249623314"><ele>117.33333333333334</ele><time>2026-04-10T17:56:07Z</time></trkpt><trkpt lat="45.434099963102575" lon="9.0746125433445"><ele>117.0</ele><time>2026-04-10T17:56:08Z</time></trkpt><trkpt lat="45.43430078025526" lon="9.074575693889393"><ele>117.0</ele><time>2026-04-10T17:56:09Z</time></trkpt><trkpt lat="45.43450197142686" lon="9.074541585448811"><ele>117.0</ele><time>2026-04-10T17:56:10Z</time></trkpt><trkpt lat="45.44547300127867" lon="9.074769837162432"><ele>117.83333333333333</ele><time>2026-04-10T17:57:11Z</time></trkpt><trkpt lat="45.44554968771357" lon="9.074819297715555"><ele>118.66666666666666</ele><time>2026-04-10T17:57:13Z</time></trkpt><trkpt lat="45.44563180985412" lon="9.074831196217469"><ele>119.5</ele><time>2026-04-10T17:57:48Z</time></trkpt><trkpt lat="45.44570967221876" lon="9.07480951194196"><ele>120.33333333333333</ele><time>2026-04-10T17:57:50Z</time></trkpt><trkpt lat="45.4457791185691" lon="9.074783005854124"><ele>121.16666666666666</ele><time>2026-04-10T17:57:51Z</time></trkpt><trkpt lat="45.44585458640897" lon="9.0747540215098"><ele>122.0</ele><time>2026-04-10T17:57:52Z</time></trkpt><trkpt lat="45.44593890519995" lon="9.07473680166076"><ele>121.99999999999999</ele><time>2026-04-10T17:57:53Z</time></trkpt><trkpt lat="45.44601738427524" lon="9.074736594543033"><ele>122.0</ele><time>2026-04-10T17:57:54Z</time></trkpt><trkpt lat="45.44608199235415" lon="9.074752521621381"><ele>122.0</ele><time>2026-04-10T17:57:55Z</time></trkpt><trkpt lat="45.44619483039978" lon="9.074763596033263"><ele>122.0</ele><time>2026-04-10T17:57:57Z</time></trkpt><trkpt lat="45.44631376567378" lon="9.074785431661182"><ele>121.99999999999999</ele><time>2026-04-10T17:57:59Z</time></trkpt><trkpt lat="45.446382534258454" lon="9.0747982456343"><ele>122.0</ele><time>2026-04-10T17:58:00Z</time></trkpt><trkpt lat="45.4464621074168" lon="9.074815226863734"><ele>121.8</ele><time>2026-04-10T17:58:01Z</time></trkpt><trkpt lat="45.44655160738803" lon="9.074828389208369"><ele>121.6</ele><time>2026-04-10T17:58:02Z</time></trkpt><trkpt lat="45.446642626559544" lon="9.074838534016953"><ele>121.39999999999999</ele><time>2026-04-10T17:58:03Z</time></trkpt><trkpt lat="45.44672463779253" lon="9.074852676613862"><ele>121.19999999999999</ele><time>2026-04-10T17:58:04Z</time></trkpt><trkpt lat="45.44681826431646" lon="9.074872664301687"><ele>121.0</ele><time>2026-04-10T17:58:05Z</time></trkpt><trkpt lat="45.44691826936832" lon="9.07489895878404"><ele>121.0</ele><time>2026-04-10T17:58:06Z</time></trkpt><trkpt lat="45.44703286366296" lon="9.074926814765949"><ele>121.0</ele><time>2026-04-10T17:58:07Z</time></trkpt><trkpt lat="45.44716336395177" lon="9.074960284089855"><ele>121.0</ele><time>2026-04-10T17:58:08Z</time></trkpt><trkpt lat="45.44729481360402" lon="9.074990915893183"><ele>121.0</ele><time>2026-04-10T17:58:09Z</time></trkpt><trkpt lat="45.447427736753866" lon="9.07502388255653"><ele>127.0</ele><time>2026-04-10T17:58:10Z</time></trkpt><trkpt lat="45.4593708315418" lon="9.077255604990919"><ele>127.0</ele><time>2026-04-10T17:59:11Z</time></trkpt><trkpt lat="45.45954639197104" lon="9.077208859244964"><ele>127.0</ele><time>2026-04-10T17:59:12Z</time></trkpt><trkpt lat="45.45972917377742" lon="9.077159325733822"><ele>127.0</ele><time>2026-04-10T17:59:13Z</time></trkpt><trkpt lat="45.45990777609879" lon="9.077107463457704"><ele>127.0</ele><time>2026-04-10T17:59:14Z</time></trkpt><trkpt lat="45.460088110082964" lon="9.07705547278488"><ele>127.0</ele><time>2026-04-10T17:59:15Z</time></trkpt><trkpt lat="45.46026820063446" lon="9.077007038818131"><ele>127.0</ele><time>2026-04-10T17:59:16Z</time></trkpt><trkpt lat="45.460453782580366" lon="9.076958214234285"><ele>127.66666666666667</ele><time>2026-04-10T17:59:17Z</time></trkpt><trkpt lat="45.46063390263257" lon="9.076910377342164"><ele>128.33333333333334</ele><time>2026-04-10T17:59:18Z</time></trkpt><trkpt lat="45.46081031136984" lon="9.076862209203249"><ele>129.0</ele><time>2026-04-10T17:59:19Z</time></trkpt><trkpt lat="45.460986992002525" lon="9.076815427123739"><ele>129.0</ele><time>2026-04-10T17:59:20Z</time></trkpt><trkpt lat="45.46115526376415" lon="9.076766288355167"><ele>129.0</ele><time>2026-04-10T17:59:21Z</time></trkpt><trkpt lat="45.46132439212656" lon="9.076719058610953"><ele>129.0</ele><time>2026-04-10T17:59:22Z</time></trkpt><trkpt lat="45.4614962146022" lon="9.076674531751243"><ele>128.33333333333334</ele><time>2026-04-10T17:59:23Z</time></trkpt><trkpt lat="45.46167061130461" lon="9.076629629436683"><ele>127.66666666666667</ele><time>2026-04-10T17:59:24Z</time></trkpt><trkpt lat="45.46184613595805" lon="9.076585986181833"><ele>127.0</ele><time>2026-04-10T17:59:25Z</time></trkpt><trkpt lat="45.462021076783365" lon="9.07653963474262"><ele>127.0</ele><time>2026-04-10T17:59:26Z</time></trkpt><trkpt lat="45.462199029155194" lon="9.076494184231114"><ele>127.0</ele><time>2026-04-10T17:59:27Z</time></trkpt><trkpt lat="45.462380279335115" lon="9.076443184332161"><ele>127.0</ele><time>2026-04-10T17:59:28Z</time></trkpt><trkpt lat="45.46257016988908" lon="9.076389005002211"><ele>127.0</ele><time>2026-04-10T17:59:29Z</time></trkpt><trkpt lat="45.46276912282286" lon="9.07633596816536"><ele>127.0</ele><time>2026-04-10T17:59:30Z</time></trkpt><trkpt lat="45.46297035394376" lon="9.07629207463118"><ele>127.0</ele><time>2026-04-10T17:59:31Z</time></trkpt><trkpt lat="45.46318109494606" lon="9.076261447141064"><ele>127.66666666666667</ele><time>2026-04-10T17:59:32Z</time></trkpt><trkpt lat="45.463396247999675" lon="9.076240775007227"><ele>128.33333333333334</ele><time>2026-04-10T17:59:33Z</time></trkpt><trkpt lat="45.4636157963713" lon="9.076229884919915"><ele>129.0</ele><time>2026-04-10T17:59:34Z</time></trkpt><trkpt lat="45.46384122297047" lon="9.07622701791428"><ele>129.33333333333334</ele><time>2026-04-10T17:59:35Z</time></trkpt><trkpt lat="45.46406190020877" lon="9.076233654969503"><ele>129.66666666666669</ele><time>2026-04-10T17:59:36Z</time></trkpt><trkpt lat="45.464280606049506" lon="9.076252984109727"><ele>130.0</ele><time>2026-04-10T17:59:37Z</time></trkpt><trkpt lat="45.464498760666324" lon="9.076278705474682"><ele>130.0</ele><time>2026-04-10T17:59:38Z</time></trkpt><trkpt lat="45.4647166902272" lon="9.07631715375678"><ele>130.0</ele><time>2026-04-10T17:59:39Z</time></trkpt><trkpt lat="45.46493471942782" lon="9.076367146167396"><ele>130.0</ele><time>2026-04-10T17:59:40Z</time></trkpt><trkpt lat="45.465152634431306" lon="9.07642612376336"><ele>130.0</ele><time>2026-04-10T17:59:41Z</time></trkpt><trkpt lat="45.465374320956506" lon="9.076494928697182"><ele>130.0</ele><time>2026-04-10T17:59:42Z</time></trkpt><trkpt lat="45.46559286116126" lon="9.076574040541518"><ele>129.0</ele><time>2026-04-10T17:59:43Z</time></trkpt><trkpt lat="45.46580631220062" lon="9.076661041115479"><ele>128.0</ele><time>2026-04-10T17:59:44Z</time></trkpt><trkpt lat="45.466017846427924" lon="9.076753694959665"><ele>127.0</ele><time>2026-04-10T17:59:45Z</time></trkpt><trkpt lat="45.46623436818441" lon="9.076853326951015"><ele>127.5</ele><time>2026-04-10T17:59:46Z</time></trkpt><trkpt lat="45.46645409754186" lon="9.076956202534092"><ele>128.0</ele><time>2026-04-10T17:59:47Z</time></trkpt><trkpt lat="45.4666775192925" lon="9.077071425698358"><ele>128.0</ele><time>2026-04-10T17:59:48Z</time></trkpt><trkpt lat="45.46690696537076" lon="9.07719410379495"><ele>128.0</ele><time>2026-04-10T17:59:49Z</time></trkpt><trkpt lat="45.46713846713575" lon="9.077321663244017"><ele>128.5</ele><time>2026-04-10T17:59:50Z</time></trkpt><trkpt lat="45.467362887655945" lon="9.077446473795465"><ele>129.0</ele><time>2026-04-10T17:59:51Z</time></trkpt><trkpt lat="45.46759990567398" lon="9.07758533918563"><ele>129.0</ele><time>2026-04-10T17:59:52Z</time></trkpt><trkpt lat="45.4678365722969" lon="9.077719143508363"><ele>129.0</ele><time>2026-04-10T17:59:53Z</time></trkpt><trkpt lat="45.46807790957175" lon="9.077856060715934"><ele>128.0</ele><time>2026-04-10T17:59:54Z</time></trkpt><trkpt lat="45.46831340016376" lon="9.077990999252659"><ele>127.0</ele><time>2026-04-10T17:59:55Z</time></trkpt><trkpt lat="45.4685419564908" lon="9.07811986398067"><ele>127.0</ele><time>2026-04-10T17:59:56Z</time></trkpt><trkpt lat="45.468774773727766" lon="9.078256332964623"><ele>127.0</ele><time>2026-04-10T17:59:57Z</time></trkpt><trkpt lat="45.46900962488455" lon="9.078394013504512"><ele>128.5</ele><time>2026-04-10T17:59:58Z</time></trkpt><trkpt lat="45.469245673974285" lon="9.078531572189926"><ele>130.0</ele><time>2026-04-10T17:59:59Z</time></trkpt><trkpt lat="45.46947413566048" lon="9.078665737187624"><ele>129.0</ele><time>2026-04-10T18:00:00Z</time></trkpt><trkpt lat="45.4697018026262" lon="9.078794223425833"><ele>128.0</ele><time>2026-04-10T18:00:01Z</time></trkpt><trkpt lat="45.469930040450265" lon="9.078926972947585"><ele>128.0</ele><time>2026-04-10T18:00:02Z</time></trkpt><trkpt lat="45.47016916677086" lon="9.07904341801874"><ele>128.0</ele><time>2026-04-10T18:00:03Z</time></trkpt><trkpt lat="45.470393440760105" lon="9.079173457966919"><ele>128.0</ele><time>2026-04-10T18:00:04Z</time></trkpt><trkpt lat="45.470614222176586" lon="9.079297888174551"><ele>128.0</ele><time>2026-04-10T18:00:05Z</time></trkpt><trkpt lat="45.470842554753396" lon="9.079410253177121"><ele>128.0</ele><time>2026-04-10T18:00:06Z</time></trkpt><trkpt lat="45.471057114875656" lon="9.079508937311505"><ele>128.0</ele><time>2026-04-10T18:00:07Z</time></trkpt><trkpt lat="45.47128020845312" lon="9.079584590809889"><ele>128.0</ele><time>2026-04-10T18:00:08Z</time></trkpt><trkpt lat="45.47151352692044" lon="9.079655309064211"><ele>128.0</ele><time>2026-04-10T18:00:09Z</time></trkpt><trkpt lat="45.471735383183905" lon="9.079700389396178"><ele>131.0</ele><time>2026-04-10T18:00:10Z</time></trkpt><trkpt lat="45.48317364514317" lon="9.07109023278345"><ele>131.0</ele><time>2026-04-10T18:01:11Z</time></trkpt><trkpt lat="45.483364076798736" lon="9.070902554598936"><ele>131.0</ele><time>2026-04-10T18:01:12Z</time></trkpt><trkpt lat="45.48355002519805" lon="9.070721663478764"><ele>130.0</ele><time>2026-04-10T18:01:13Z</time></trkpt><trkpt lat="45.483745302715995" lon="9.07053495194012"><ele>129.0</ele><time>2026-04-10T18:01:14Z</time></trkpt><trkpt lat="45.48393831366389" lon="9.07034818398844"><ele>129.0</ele><time>2026-04-10T18:01:15Z</time></trkpt><trkpt lat="45.484131704530824" lon="9.0701640962693"><ele>129.0</ele><time>2026-04-10T18:01:16Z</time></trkpt><trkpt lat="45.48432275886894" lon="9.069980196858475"><ele>129.66666666666666</ele><time>2026-04-10T18:01:17Z</time></trkpt><trkpt lat="45.48450950234265" lon="9.06980015826476"><ele>130.33333333333331</ele><time>2026-04-10T18:01:18Z</time></trkpt><trkpt lat="45.48468931009779" lon="9.06963015458596"><ele>131.0</ele><time>2026-04-10T18:01:19Z</time></trkpt><trkpt lat="45.48485710438629" lon="9.069471598728153"><ele>131.66666666666666</ele><time>2026-04-10T18:01:20Z</time></trkpt><trkpt lat="45.48501974163358" lon="9.069319942058717"><ele>132.33333333333334</ele><time>2026-04-10T18:01:21Z</time></trkpt><trkpt lat="45.485146670567936" lon="9.069204787023347"><ele>133.0</ele><time>2026-04-10T18:01:22Z</time></trkpt><trkpt lat="45.485234279603944" lon="9.06911983527708"><ele>132.8</ele><time>2026-04-10T18:01:23Z</time></trkpt><trkpt lat="45.48532395742166" lon="9.069049066106784"><ele>132.60000000000002</ele><time>2026-04-10T18:01:24Z</time></trkpt><trkpt lat="45.48541928583308" lon="9.068970899390456"><ele>132.39999999999998</ele><time>2026-04-10T18:01:25Z</time></trkpt><trkpt lat="45.485508448654514" lon="9.06888784238823"><ele>132.2</ele><time>2026-04-10T18:01:26Z</time></trkpt><trkpt lat="45.48560883810265" lon="9.06880114814224"><ele>132.0</ele><time>2026-04-10T18:01:27Z</time></trkpt><trkpt lat="45.48571326666888" lon="9.068712630588962"><ele>132.0</ele><time>2026-04-10T18:01:28Z</time></trkpt><trkpt lat="45.48581933135886" lon="9.068625393861087"><ele>132.0</ele><time>2026-04-10T18:01:29Z</time></trkpt><trkpt lat="45.48592777494298" lon="9.06853721888742"><ele>132.0</ele><time>2026-04-10T18:01:30Z</time></trkpt><trkpt lat="45.48603547963276" lon="9.068454724661798"><ele>132.0</ele><time>2026-04-10T18:01:31Z</time></trkpt><trkpt lat="45.4861432814427" lon="9.068373352210012"><ele>132.0</ele><time>2026-04-10T18:01:32Z</time></trkpt><trkpt lat="45.48625369049133" lon="9.068288363502925"><ele>132.0</ele><time>2026-04-10T18:01:33Z</time></trkpt><trkpt lat="45.48637661472588" lon="9.0681994572677"><ele>132.0</ele><time>2026-04-10T18:01:34Z</time></trkpt><trkpt lat="45.48650693862529" lon="9.068104327387626"><ele>132.0</ele><time>2026-04-10T18:01:35Z</time></trkpt><trkpt lat="45.48664073281667" lon="9.068011425906947"><ele>132.66666666666666</ele><time>2026-04-10T18:01:36Z</time></trkpt><trkpt lat="45.48678248587327" lon="9.067920649064607"><ele>133.33333333333331</ele><time>2026-04-10T18:01:37Z</time></trkpt><trkpt lat="45.486923668862936" lon="9.067828834975737"><ele>134.0</ele><time>2026-04-10T18:01:38Z</time></trkpt><trkpt lat="45.487076415370574" lon="9.067733285079072"><ele>134.66666666666666</ele><time>2026-04-10T18:01:39Z</time></trkpt><trkpt lat="45.48723973391181" lon="9.067632211918468"><ele>135.33333333333334</ele><time>2026-04-10T18:01:40Z</time></trkpt><trkpt lat="45.487405924917724" lon="9.067535540687043"><ele>136.0</ele><time>2026-04-10T18:01:41Z</time></trkpt><trkpt lat="45.48757423530106" lon="9.067446371641848"><ele>136.0</ele><time>2026-04-10T18:01:42Z</time></trkpt><trkpt lat="45.487747152545374" lon="9.067358480378191"><ele>136.0</ele><time>2026-04-10T18:01:43Z</time></trkpt><trkpt lat="45.487922183539276" lon="9.067278898112097"><ele>136.0</ele><time>2026-04-10T18:01:44Z</time></trkpt><trkpt lat="45.48809294129517" lon="9.067201746681816"><ele>136.0</ele><time>2026-04-10T18:01:45Z</time></trkpt><trkpt lat="45.488261165367526" lon="9.067135520622179"><ele>136.0</ele><time>2026-04-10T18:01:46Z</time></trkpt><trkpt lat="45.488429923522645" lon="9.067074068776675"><ele>136.0</ele><time>2026-04-10T18:01:47Z</time></trkpt><trkpt lat="45.48858460069694" lon="9.067021568567707"><ele>136.0</ele><time>2026-04-10T18:01:48Z</time></trkpt><trkpt lat="45.48874152046646" lon="9.066963770452745"><ele>136.0</ele><time>2026-04-10T18:01:49Z</time></trkpt><trkpt lat="45.488902245539215" lon="9.06691411726683"><ele>136.0</ele><time>2026-04-10T18:01:50Z</time></trkpt><trkpt lat="45.48906642263012" lon="9.06686656840173"><ele>136.0</ele><time>2026-04-10T18:01:51Z</time></trkpt><trkpt lat="45.489238997348025" lon="9.06681596031204"><ele>136.0</ele><time>2026-04-10T18:01:52Z</time></trkpt><trkpt lat="45.48941521194041" lon="9.066775296291533"><ele>136.0</ele><time>2026-04-10T18:01:53Z</time></trkpt><trkpt lat="45.48959790564216" lon="9.066737938097868"><ele>136.0</ele><time>2026-04-10T18:01:54Z</time></trkpt><trkpt lat="45.48977092172167" lon="9.066703459536292"><ele>136.0</ele><time>2026-04-10T18:01:55Z</time></trkpt><trkpt lat="45.489939774817124" lon="9.066674781834488"><ele>136.0</ele><time>2026-04-10T18:01:56Z</time></trkpt><trkpt lat="45.490114011303916" lon="9.066649334825739"><ele>136.0</ele><time>2026-04-10T18:01:57Z</time></trkpt><trkpt lat="45.49030298715298" lon="9.066623905360688"><ele>136.0</ele><time>2026-04-10T18:01:58Z</time></trkpt><trkpt lat="45.49049668841994" lon="9.066601064589232"><ele>136.0</ele><time>2026-04-10T18:01:59Z</time></trkpt><trkpt lat="45.490695879021864" lon="9.066587745297559"><ele>135.33333333333334</ele><time>2026-04-10T18:02:00Z</time></trkpt><trkpt lat="45.49088958003767" lon="9.066575331324502"><ele>134.66666666666666</ele><time>2026-04-10T18:02:01Z</time></trkpt><trkpt lat="45.49109707103902" lon="9.066571477964146"><ele>134.0</ele><time>2026-04-10T18:02:02Z</time></trkpt><trkpt lat="45.49130352804164" lon="9.06657186068266"><ele>134.0</ele><time>2026-04-10T18:02:03Z</time></trkpt><trkpt lat="45.49149741215733" lon="9.066575000126782"><ele>134.0</ele><time>2026-04-10T18:02:04Z</time></trkpt><trkpt lat="45.49168117975834" lon="9.066581116865613"><ele>134.0</ele><time>2026-04-10T18:02:05Z</time></trkpt><trkpt lat="45.49186234896309" lon="9.066586383174304"><ele>134.0</ele><time>2026-04-10T18:02:06Z</time></trkpt><trkpt lat="45.49205800093017" lon="9.066597958617168"><ele>134.0</ele><time>2026-04-10T18:02:07Z</time></trkpt><trkpt lat="45.49225464895888" lon="9.066607673078654"><ele>134.0</ele><time>2026-04-10T18:02:08Z</time></trkpt><trkpt lat="45.49244641705127" lon="9.06661896946587"><ele>134.0</ele><time>2026-04-10T18:02:09Z</time></trkpt><trkpt lat="45.492630740066375" lon="9.06662722958163"><ele>134.0</ele><time>2026-04-10T18:02:10Z</time></trkpt><trkpt lat="45.50550498455194" lon="9.064934497980197"><ele>137.33333333333331</ele><time>2026-04-10T18:03:11Z</time></trkpt><trkpt lat="45.50572001197403" lon="9.064852077977116"><ele>140.66666666666666</ele><time>2026-04-10T18:03:12Z</time></trkpt><trkpt lat="45.505938187965384" lon="9.06476831068763"><ele>144.0</ele><time>2026-04-10T18:03:13Z</time></trkpt><trkpt lat="45.506161909097976" lon="9.064684196458"><ele>143.0</ele><time>2026-04-10T18:03:14Z</time></trkpt><trkpt lat="45.50639157476974" lon="9.064597699536407"><ele>142.0</ele><time>2026-04-10T18:03:15Z</time></trkpt><trkpt lat="45.50662374315857" lon="9.064507749942273"><ele>142.0</ele><time>2026-04-10T18:03:16.001Z</time></trkpt><trkpt lat="45.506848827019674" lon="9.064415417997916"><ele>142.0</ele><time>2026-04-10T18:03:17.001Z</time></trkpt><trkpt lat="45.50707371437259" lon="9.064319993961016"><ele>143.5</ele><time>2026-04-10T18:03:18.001Z</time></trkpt><trkpt lat="45.507291112643436" lon="9.064223453242725"><ele>145.0</ele><time>2026-04-10T18:03:19.001Z</time></trkpt><trkpt lat="45.50750658162992" lon="9.06412187365533"><ele>145.33333333333334</ele><time>2026-04-10T18:03:20.001Z</time></trkpt><trkpt lat="45.50771261519524" lon="9.064009635258055"><ele>145.66666666666666</ele><time>2026-04-10T18:03:21.001Z</time></trkpt><trkpt lat="45.50790769326704" lon="9.06388091487007"><ele>146.0</ele><time>2026-04-10T18:03:22.001Z</time></trkpt><trkpt lat="45.50810184976312" lon="9.063731328576742"><ele>146.0</ele><time>2026-04-10T18:03:23.001Z</time></trkpt><trkpt lat="45.508298453455964" lon="9.063565333867171"><ele>146.0</ele><time>2026-04-10T18:03:24.001Z</time></trkpt><trkpt lat="45.508493731906285" lon="9.063389615381556"><ele>146.5</ele><time>2026-04-10T18:03:25.001Z</time></trkpt><trkpt lat="45.508681970577605" lon="9.063206226324908"><ele>147.0</ele><time>2026-04-10T18:03:26.001Z</time></trkpt><trkpt lat="45.50887236509381" lon="9.063012782402929"><ele>147.0</ele><time>2026-04-10T18:03:27.001Z</time></trkpt><trkpt lat="45.5090532902965" lon="9.062815701858344"><ele>147.0</ele><time>2026-04-10T18:03:28.001Z</time></trkpt><trkpt lat="45.509217162217944" lon="9.062614417351107"><ele>147.0</ele><time>2026-04-10T18:03:29.001Z</time></trkpt><trkpt lat="45.509377448725736" lon="9.062392801568697"><ele>147.0</ele><time>2026-04-10T18:03:30.001Z</time></trkpt><trkpt lat="45.509540768934485" lon="9.062159572367863"><ele>147.0</ele><time>2026-04-10T18:03:31.001Z</time></trkpt><trkpt lat="45.5097055662789" lon="9.06192299036625"><ele>147.0</ele><time>2026-04-10T18:03:32.001Z</time></trkpt><trkpt lat="45.509873212011634" lon="9.061682333729575"><ele>147.0</ele><time>2026-04-10T18:03:33.001Z</time></trkpt><trkpt lat="45.510042506246215" lon="9.061440809419503"><ele>147.0</ele><time>2026-04-10T18:03:34.001Z</time></trkpt><trkpt lat="45.51021920063" lon="9.061208490942072"><ele>147.0</ele><time>2026-04-10T18:03:35.001Z</time></trkpt><trkpt lat="45.510403059208066" lon="9.060997116692153"><ele>146.0</ele><time>2026-04-10T18:03:36.001Z</time></trkpt><trkpt lat="45.51059489984316" lon="9.060794021407277"><ele>145.0</ele><time>2026-04-10T18:03:37.001Z</time></trkpt><trkpt lat="45.51079252730781" lon="9.060602723535588"><ele>145.0</ele><time>2026-04-10T18:03:38.001Z</time></trkpt><trkpt lat="45.510995288329894" lon="9.060430189362698"><ele>145.0</ele><time>2026-04-10T18:03:39.001Z</time></trkpt><trkpt lat="45.511205396422106" lon="9.060278120064336"><ele>145.0</ele><time>2026-04-10T18:03:40.001Z</time></trkpt><trkpt lat="45.51142154742893" lon="9.060143663732221"><ele>145.0</ele><time>2026-04-10T18:03:41.001Z</time></trkpt><trkpt lat="45.51164230670546" lon="9.060013674472655"><ele>145.0</ele><time>2026-04-10T18:03:42.001Z</time></trkpt><trkpt lat="45.511867077380536" lon="9.059909871802656"><ele>145.0</ele><time>2026-04-10T18:03:43.001Z</time></trkpt><trkpt lat="45.51208945112077" lon="9.059821975406978"><ele>145.0</ele><time>2026-04-10T18:03:44.001Z</time></trkpt><trkpt lat="45.51231367736928" lon="9.059742736407951"><ele>145.0</ele><time>2026-04-10T18:03:45.001Z</time></trkpt><trkpt lat="45.51254356357188" lon="9.05967605691854"><ele>145.0</ele><time>2026-04-10T18:03:46.001Z</time></trkpt><trkpt lat="45.51277464281043" lon="9.05962861615644"><ele>145.0</ele><time>2026-04-10T18:03:47.001Z</time></trkpt><trkpt lat="45.51300653449274" lon="9.059601966796412"><ele>145.5</ele><time>2026-04-10T18:03:48.001Z</time></trkpt><trkpt lat="45.51324334385816" lon="9.059595371910742"><ele>146.0</ele><time>2026-04-10T18:03:49.001Z</time></trkpt><trkpt lat="45.513481566616136" lon="9.059598673840418"><ele>146.0</ele><time>2026-04-10T18:03:50.001Z</time></trkpt><trkpt lat="45.513718301284925" lon="9.059616016822346"><ele>146.0</ele><time>2026-04-10T18:03:51.001Z</time></trkpt><trkpt lat="45.513956737949854" lon="9.059659719967726"><ele>146.5</ele><time>2026-04-10T18:03:52.001Z</time></trkpt><trkpt lat="45.51419092875737" lon="9.059717438266935"><ele>147.0</ele><time>2026-04-10T18:03:53.001Z</time></trkpt><trkpt lat="45.51441810675525" lon="9.05978517354984"><ele>147.0</ele><time>2026-04-10T18:03:54.001Z</time></trkpt><trkpt lat="45.51463586844605" lon="9.059852010389116"><ele>147.0</ele><time>2026-04-10T18:03:55.001Z</time></trkpt><trkpt lat="45.514859157258854" lon="9.059921221922004"><ele>148.0</ele><time>2026-04-10T18:03:56.001Z</time></trkpt><trkpt lat="45.515084622974115" lon="9.059982783414663"><ele>149.0</ele><time>2026-04-10T18:03:57.001Z</time></trkpt><trkpt lat="45.51529981939972" lon="9.060026191920306"><ele>150.0</ele><time>2026-04-10T18:03:58.001Z</time></trkpt><trkpt lat="45.515521172832685" lon="9.060061734463822"><ele>150.0</ele><time>2026-04-10T18:03:59.001Z</time></trkpt><trkpt lat="45.515742060794686" lon="9.06009025021936"><ele>150.0</ele><time>2026-04-10T18:04:00.001Z</time></trkpt><trkpt lat="45.515961192959445" lon="9.060114460677179"><ele>150.0</ele><time>2026-04-10T18:04:01.001Z</time></trkpt><trkpt lat="45.516177743456694" lon="9.060118418703185"><ele>149.66666666666666</ele><time>2026-04-10T18:04:02.001Z</time></trkpt><trkpt lat="45.516394833057866" lon="9.0601076413017"><ele>149.33333333333331</ele><time>2026-04-10T18:04:03.001Z</time></trkpt><trkpt lat="45.516612268735585" lon="9.060083901016647"><ele>149.0</ele><time>2026-04-10T18:04:04.001Z</time></trkpt><trkpt lat="45.51683328585142" lon="9.060050553444071"><ele>149.0</ele><time>2026-04-10T18:04:05.001Z</time></trkpt><trkpt lat="45.517037465278705" lon="9.060006920262689"><ele>149.0</ele><time>2026-04-10T18:04:06.001Z</time></trkpt><trkpt lat="45.51723560562249" lon="9.059957735920795"><ele>149.0</ele><time>2026-04-10T18:04:07.001Z</time></trkpt><trkpt lat="45.51743471589361" lon="9.059893243200523"><ele>148.0</ele><time>2026-04-10T18:04:08.001Z</time></trkpt><trkpt lat="45.517638053653414" lon="9.059806405732491"><ele>147.0</ele><time>2026-04-10T18:04:09.001Z</time></trkpt><trkpt lat="45.51784805206564" lon="9.059711914568426"><ele>146.0</ele><time>2026-04-10T18:04:10.001Z</time></trkpt><trkpt lat="45.53252513951745" lon="9.060601334699276"><ele>151.0</ele><time>2026-04-10T18:05:11.001Z</time></trkpt><trkpt lat="45.5327536041818" lon="9.060574356408686"><ele>156.0</ele><time>2026-04-10T18:05:12.001Z</time></trkpt><trkpt lat="45.53297920442502" lon="9.060535265376341"><ele>156.0</ele><time>2026-04-10T18:05:13.001Z</time></trkpt><trkpt lat="45.53320865800865" lon="9.060485722476493"><ele>156.0</ele><time>2026-04-10T18:05:14.001Z</time></trkpt><trkpt lat="45.533442701465155" lon="9.060429909053362"><ele>156.0</ele><time>2026-04-10T18:05:15.001Z</time></trkpt><trkpt lat="45.53367797006647" lon="9.060366908733995"><ele>156.0</ele><time>2026-04-10T18:05:16.001Z</time></trkpt><trkpt lat="45.53391530588175" lon="9.060302273631569"><ele>155.5</ele><time>2026-04-10T18:05:17.001Z</time></trkpt><trkpt lat="45.53414854827329" lon="9.060231952391522"><ele>155.0</ele><time>2026-04-10T18:05:18.001Z</time></trkpt><trkpt lat="45.53437853154568" lon="9.060151859122314"><ele>154.5</ele><time>2026-04-10T18:05:19.001Z</time></trkpt><trkpt lat="45.53461079140013" lon="9.060057677280376"><ele>154.0</ele><time>2026-04-10T18:05:20.001Z</time></trkpt><trkpt lat="45.53484139463974" lon="9.059954763403697"><ele>154.0</ele><time>2026-04-10T18:05:21.001Z</time></trkpt><trkpt lat="45.53506996450108" lon="9.059844708140782"><ele>154.0</ele><time>2026-04-10T18:05:22.001Z</time></trkpt><trkpt lat="45.53529803161078" lon="9.059730851428355"><ele>155.5</ele><time>2026-04-10T18:05:23.001Z</time></trkpt><trkpt lat="45.53552196119647" lon="9.05961648142567"><ele>157.0</ele><time>2026-04-10T18:05:24.001Z</time></trkpt><trkpt lat="45.53574436150686" lon="9.059503572037944"><ele>157.0</ele><time>2026-04-10T18:05:25.001Z</time></trkpt><trkpt lat="45.53596678981187" lon="9.059395301319412"><ele>157.0</ele><time>2026-04-10T18:05:26.001Z</time></trkpt><trkpt lat="45.53618758005328" lon="9.059288737783106"><ele>157.0</ele><time>2026-04-10T18:05:27.001Z</time></trkpt><trkpt lat="45.53640896758629" lon="9.059191627547001"><ele>157.0</ele><time>2026-04-10T18:05:28.001Z</time></trkpt><trkpt lat="45.53662970333883" lon="9.059107974747423"><ele>156.66666666666669</ele><time>2026-04-10T18:05:29.001Z</time></trkpt><trkpt lat="45.53684563990416" lon="9.059032097221694"><ele>156.33333333333334</ele><time>2026-04-10T18:05:30.001Z</time></trkpt><trkpt lat="45.53705116986102" lon="9.058965189592948"><ele>156.0</ele><time>2026-04-10T18:05:31.001Z</time></trkpt><trkpt lat="45.53724919878498" lon="9.058906144489141"><ele>156.0</ele><time>2026-04-10T18:05:32.001Z</time></trkpt><trkpt lat="45.5374535566664" lon="9.05884380851746"><ele>156.0</ele><time>2026-04-10T18:05:33.001Z</time></trkpt><trkpt lat="45.537667724573105" lon="9.058794686955208"><ele>156.0</ele><time>2026-04-10T18:05:34.001Z</time></trkpt><trkpt lat="45.53787563588368" lon="9.05876036674274"><ele>156.33333333333334</ele><time>2026-04-10T18:05:35.001Z</time></trkpt><trkpt lat="45.53807073280089" lon="9.05874392396272"><ele>156.66666666666669</ele><time>2026-04-10T18:05:36.001Z</time></trkpt><trkpt lat="45.53825546069393" lon="9.058739190917917"><ele>157.0</ele><time>2026-04-10T18:05:37.001Z</time></trkpt><trkpt lat="45.53843819464826" lon="9.058740174192993"><ele>157.0</ele><time>2026-04-10T18:05:38.001Z</time></trkpt><trkpt lat="45.538619004690574" lon="9.058746822411642"><ele>157.0</ele><time>2026-04-10T18:05:39.001Z</time></trkpt><trkpt lat="45.53880037270497" lon="9.058764325752524"><ele>157.0</ele><time>2026-04-10T18:05:40.001Z</time></trkpt><trkpt lat="45.53897884418268" lon="9.058788735526244"><ele>157.0</ele><time>2026-04-10T18:05:41.001Z</time></trkpt><trkpt lat="45.5391673473759" lon="9.058815831525196"><ele>157.0</ele><time>2026-04-10T18:05:42.001Z</time></trkpt><trkpt lat="45.539353314806384" lon="9.058844902811865"><ele>157.0</ele><time>2026-04-10T18:05:43.001Z</time></trkpt><trkpt lat="45.53952569925808" lon="9.058872830595124"><ele>157.75</ele><time>2026-04-10T18:05:44.001Z</time></trkpt><trkpt lat="45.539680381761514" lon="9.058899743563716"><ele>158.5</ele><time>2026-04-10T18:05:45.001Z</time></trkpt><trkpt lat="45.53981879908921" lon="9.058923885306607"><ele>159.25</ele><time>2026-04-10T18:05:46.001Z</time></trkpt><trkpt lat="45.53994493691023" lon="9.058944650127655"><ele>160.0</ele><time>2026-04-10T18:05:47.001Z</time></trkpt><trkpt lat="45.540062224899195" lon="9.058968359418058"><ele>160.0</ele><time>2026-04-10T18:05:48.001Z</time></trkpt><trkpt lat="45.54016894419476" lon="9.059001321147525"><ele>160.0</ele><time>2026-04-10T18:05:49.001Z</time></trkpt><trkpt lat="45.54026185381895" lon="9.05902931397146"><ele>160.0</ele><time>2026-04-10T18:05:50.001Z</time></trkpt><trkpt lat="45.54034954385584" lon="9.059048214327833"><ele>160.0</ele><time>2026-04-10T18:05:51.001Z</time></trkpt><trkpt lat="45.54042917189147" lon="9.059068310554645"><ele>160.0</ele><time>2026-04-10T18:05:52.001Z</time></trkpt><trkpt lat="45.540491742526214" lon="9.059088513461306"><ele>160.0</ele><time>2026-04-10T18:05:53.001Z</time></trkpt><trkpt lat="45.54055820361229" lon="9.0590942901825"><ele>160.16666666666669</ele><time>2026-04-10T18:05:54.001Z</time></trkpt><trkpt lat="45.540624056923264" lon="9.059106311598025"><ele>160.33333333333334</ele><time>2026-04-10T18:05:55.001Z</time></trkpt><trkpt lat="45.540697320129595" lon="9.059119693655905"><ele>160.5</ele><time>2026-04-10T18:05:56.001Z</time></trkpt><trkpt lat="45.54076339595413" lon="9.059131755677962"><ele>160.66666666666666</ele><time>2026-04-10T18:05:57.001Z</time></trkpt><trkpt lat="45.54087623773775" lon="9.059151162467465"><ele>160.83333333333331</ele><time>2026-04-10T18:05:59.001Z</time></trkpt><trkpt lat="45.54095118330396" lon="9.059163727642394"><ele>161.0</ele><time>2026-04-10T18:06:01.001Z</time></trkpt><trkpt lat="45.54725595262023" lon="9.061884976822597"><ele>161.0</ele><time>2026-04-10T18:07:11Z</time></trkpt><trkpt lat="45.547421748760264" lon="9.061996284353079"><ele>161.0</ele><time>2026-04-10T18:07:12Z</time></trkpt><trkpt lat="45.54758656456942" lon="9.062100532883873"><ele>161.0</ele><time>2026-04-10T18:07:13Z</time></trkpt><trkpt lat="45.54773460999942" lon="9.062187475184412"><ele>161.0</ele><time>2026-04-10T18:07:14Z</time></trkpt><trkpt lat="45.54786210085542" lon="9.062249615747296"><ele>161.0</ele><time>2026-04-10T18:07:15Z</time></trkpt><trkpt lat="45.54799529142722" lon="9.06227170489235"><ele>161.0</ele><time>2026-04-10T18:07:16Z</time></trkpt><trkpt lat="45.54812333714857" lon="9.062277203594087"><ele>161.0</ele><time>2026-04-10T18:07:17Z</time></trkpt><trkpt lat="45.54824133334106" lon="9.062255243587526"><ele>161.25</ele><time>2026-04-10T18:07:18Z</time></trkpt><trkpt lat="45.548362369431075" lon="9.062198587108297"><ele>161.5</ele><time>2026-04-10T18:07:19Z</time></trkpt><trkpt lat="45.54848813985056" lon="9.062106138307964"><ele>161.75</ele><time>2026-04-10T18:07:20Z</time></trkpt><trkpt lat="45.54861418128555" lon="9.061986055421793"><ele>162.0</ele><time>2026-04-10T18:07:21Z</time></trkpt><trkpt lat="45.54873290790316" lon="9.061829930073287"><ele>162.0</ele><time>2026-04-10T18:07:22Z</time></trkpt><trkpt lat="45.54885122755945" lon="9.061642424303848"><ele>162.0</ele><time>2026-04-10T18:07:23Z</time></trkpt><trkpt lat="45.5489563441133" lon="9.061445108283493"><ele>162.0</ele><time>2026-04-10T18:07:24Z</time></trkpt><trkpt lat="45.54905459541071" lon="9.061232763566847"><ele>162.0</ele><time>2026-04-10T18:07:25Z</time></trkpt><trkpt lat="45.54914766788517" lon="9.061019756899293"><ele>162.0</ele><time>2026-04-10T18:07:26Z</time></trkpt><trkpt lat="45.549231175397566" lon="9.060801740891753"><ele>162.0</ele><time>2026-04-10T18:07:27Z</time></trkpt><trkpt lat="45.54930676486115" lon="9.060580679312025"><ele>161.66666666666666</ele><time>2026-04-10T18:07:28Z</time></trkpt><trkpt lat="45.549369415983215" lon="9.060361150227843"><ele>161.33333333333331</ele><time>2026-04-10T18:07:29Z</time></trkpt><trkpt lat="45.549420473946796" lon="9.060147894589635"><ele>161.0</ele><time>2026-04-10T18:07:30Z</time></trkpt><trkpt lat="45.549464251784215" lon="9.059935327653644"><ele>161.33333333333331</ele><time>2026-04-10T18:07:31Z</time></trkpt><trkpt lat="45.5495071535477" lon="9.059709404638093"><ele>161.66666666666666</ele><time>2026-04-10T18:07:32Z</time></trkpt><trkpt lat="45.54954707947018" lon="9.059478747054051"><ele>162.0</ele><time>2026-04-10T18:07:33Z</time></trkpt><trkpt lat="45.54958618254546" lon="9.059238714075244"><ele>163.0</ele><time>2026-04-10T18:07:34Z</time></trkpt><trkpt lat="45.54962249540458" lon="9.058993054273563"><ele>164.0</ele><time>2026-04-10T18:07:35Z</time></trkpt><trkpt lat="45.549658693213566" lon="9.058744639340576"><ele>165.0</ele><time>2026-04-10T18:07:36Z</time></trkpt><trkpt lat="45.549697802445976" lon="9.05849151029016"><ele>166.0</ele><time>2026-04-10T18:07:37Z</time></trkpt><trkpt lat="45.54975282154659" lon="9.058260067707796"><ele>167.0</ele><time>2026-04-10T18:07:38Z</time></trkpt><trkpt lat="45.54981484730586" lon="9.0580395663417"><ele>168.0</ele><time>2026-04-10T18:07:39Z</time></trkpt><trkpt lat="45.549881037805044" lon="9.057816248729482"><ele>168.0</ele><time>2026-04-10T18:07:40.001Z</time></trkpt><trkpt lat="45.54995577035562" lon="9.05760172776156"><ele>168.0</ele><time>2026-04-10T18:07:41.001Z</time></trkpt><trkpt lat="45.550040477168764" lon="9.057390360620714"><ele>168.0</ele><time>2026-04-10T18:07:42.001Z</time></trkpt><trkpt lat="45.55014005870518" lon="9.057182675642519"><ele>167.33333333333334</ele><time>2026-04-10T18:07:43.001Z</time></trkpt><trkpt lat="45.55024532026832" lon="9.056972604584848"><ele>166.66666666666669</ele><time>2026-04-10T18:07:44.001Z</time></trkpt><trkpt lat="45.55031367756542" lon="9.056713461053468"><ele>166.0</ele><time>2026-04-10T18:07:45.001Z</time></trkpt><trkpt lat="45.55043090708574" lon="9.056501944077386"><ele>166.0</ele><time>2026-04-10T18:07:46.001Z</time></trkpt><trkpt lat="45.5505548421281" lon="9.056288584968971"><ele>166.0</ele><time>2026-04-10T18:07:47.001Z</time></trkpt><trkpt lat="45.550682132152446" lon="9.05607902744855"><ele>166.0</ele><time>2026-04-10T18:07:48.001Z</time></trkpt><trkpt lat="45.550821123378846" lon="9.055875365248179"><ele>165.66666666666669</ele><time>2026-04-10T18:07:49.001Z</time></trkpt><trkpt lat="45.55094420113476" lon="9.05564725819081"><ele>165.33333333333334</ele><time>2026-04-10T18:07:50.001Z</time></trkpt><trkpt lat="45.551068546468116" lon="9.055415546174038"><ele>165.0</ele><time>2026-04-10T18:07:51.001Z</time></trkpt><trkpt lat="45.55118852874892" lon="9.055190868699926"><ele>164.0</ele><time>2026-04-10T18:07:52.001Z</time></trkpt><trkpt lat="45.551308358052204" lon="9.054962620306647"><ele>163.0</ele><time>2026-04-10T18:07:53.001Z</time></trkpt><trkpt lat="45.55142822577901" lon="9.054736037634438"><ele>162.0</ele><time>2026-04-10T18:07:54.001Z</time></trkpt><trkpt lat="45.55155320091908" lon="9.054495861601122"><ele>162.0</ele><time>2026-04-10T18:07:55.001Z</time></trkpt><trkpt lat="45.55168386430517" lon="9.054250137345315"><ele>162.0</ele><time>2026-04-10T18:07:56.001Z</time></trkpt><trkpt lat="45.55181367912957" lon="9.054011584890489"><ele>162.0</ele><time>2026-04-10T18:07:57.001Z</time></trkpt><trkpt lat="45.551943414275556" lon="9.053770278690074"><ele>163.0</ele><time>2026-04-10T18:07:58.001Z</time></trkpt><trkpt lat="45.55206678473914" lon="9.053539612549471"><ele>164.0</ele><time>2026-04-10T18:07:59.001Z</time></trkpt><trkpt lat="45.55218992014839" lon="9.05330839699804"><ele>165.0</ele><time>2026-04-10T18:08:00.001Z</time></trkpt><trkpt lat="45.552313781161615" lon="9.053076373545885"><ele>165.0</ele><time>2026-04-10T18:08:01.001Z</time></trkpt><trkpt lat="45.55243979554322" lon="9.052839674387888"><ele>165.0</ele><time>2026-04-10T18:08:02.001Z</time></trkpt><trkpt lat="45.55256088347851" lon="9.052603527589188"><ele>165.0</ele><time>2026-04-10T18:08:03.001Z</time></trkpt><trkpt lat="45.552678836483786" lon="9.052367823283262"><ele>165.0</ele><time>2026-04-10T18:08:04.001Z</time></trkpt><trkpt lat="45.55279960378155" lon="9.052129321187076"><ele>165.0</ele><time>2026-04-10T18:08:05.001Z</time></trkpt><trkpt lat="45.55292382255591" lon="9.051880712208199"><ele>165.0</ele><time>2026-04-10T18:08:06.001Z</time></trkpt><trkpt lat="45.553048948427886" lon="9.051623336787"><ele>165.0</ele><time>2026-04-10T18:08:07.001Z</time></trkpt><trkpt lat="45.553179390489746" lon="9.051364644075914"><ele>165.0</ele><time>2026-04-10T18:08:08.001Z</time></trkpt><trkpt lat="45.55330971441272" lon="9.051104161461422"><ele>165.0</ele><time>2026-04-10T18:08:09.001Z</time></trkpt><trkpt lat="45.55343709223794" lon="9.050849282883604"><ele>171.0</ele><time>2026-04-10T18:08:10.001Z</time></trkpt><trkpt lat="45.561842915131045" lon="9.034947623258445"><ele>171.0</ele><time>2026-04-10T18:09:11Z</time></trkpt><trkpt lat="45.56197769307217" lon="9.034685097405308"><ele>171.0</ele><time>2026-04-10T18:09:12Z</time></trkpt><trkpt lat="45.562112679803434" lon="9.034420255282571"><ele>171.0</ele><time>2026-04-10T18:09:13Z</time></trkpt><trkpt lat="45.56224502632525" lon="9.034161736190473"><ele>171.0</ele><time>2026-04-10T18:09:14Z</time></trkpt><trkpt lat="45.56238161575763" lon="9.03390174752217"><ele>171.0</ele><time>2026-04-10T18:09:15Z</time></trkpt><trkpt lat="45.562515624169436" lon="9.033639283350217"><ele>171.0</ele><time>2026-04-10T18:09:16Z</time></trkpt><trkpt lat="45.56265157848604" lon="9.033375032843864"><ele>171.5</ele><time>2026-04-10T18:09:17Z</time></trkpt><trkpt lat="45.56278916292736" lon="9.033110120847683"><ele>172.0</ele><time>2026-04-10T18:09:18Z</time></trkpt><trkpt lat="45.56292700419184" lon="9.032843389455667"><ele>172.5</ele><time>2026-04-10T18:09:19Z</time></trkpt><trkpt lat="45.563065873220204" lon="9.03258174932226"><ele>173.0</ele><time>2026-04-10T18:09:20Z</time></trkpt><trkpt lat="45.56320271333872" lon="9.032321465476615"><ele>173.0</ele><time>2026-04-10T18:09:21Z</time></trkpt><trkpt lat="45.56333938306022" lon="9.032062128408231"><ele>173.0</ele><time>2026-04-10T18:09:22Z</time></trkpt><trkpt lat="45.56347601082336" lon="9.031804813588288"><ele>173.5</ele><time>2026-04-10T18:09:23Z</time></trkpt><trkpt lat="45.56361436105358" lon="9.031550248298506"><ele>174.0</ele><time>2026-04-10T18:09:24Z</time></trkpt><trkpt lat="45.563751899594976" lon="9.031294580980065"><ele>173.5</ele><time>2026-04-10T18:09:25Z</time></trkpt><trkpt lat="45.56389063002455" lon="9.031040075533921"><ele>173.0</ele><time>2026-04-10T18:09:26Z</time></trkpt><trkpt lat="45.56403102405806" lon="9.030781980750273"><ele>173.0</ele><time>2026-04-10T18:09:27Z</time></trkpt><trkpt lat="45.564170704594424" lon="9.030524898133589"><ele>173.0</ele><time>2026-04-10T18:09:28Z</time></trkpt><trkpt lat="45.564307648836376" lon="9.030273628679863"><ele>173.0</ele><time>2026-04-10T18:09:29Z</time></trkpt><trkpt lat="45.5644453162627" lon="9.03001692945837"><ele>173.0</ele><time>2026-04-10T18:09:30Z</time></trkpt><trkpt lat="45.564582604620675" lon="9.029757908316062"><ele>174.0</ele><time>2026-04-10T18:09:31Z</time></trkpt><trkpt lat="45.56472152298326" lon="9.02949602374931"><ele>175.0</ele><time>2026-04-10T18:09:32Z</time></trkpt><trkpt lat="45.5648594953424" lon="9.029232771448193"><ele>175.0</ele><time>2026-04-10T18:09:33Z</time></trkpt><trkpt lat="45.56500037126182" lon="9.028967073180649"><ele>175.0</ele><time>2026-04-10T18:09:34Z</time></trkpt><trkpt lat="45.565137997824536" lon="9.028707545455832"><ele>175.0</ele><time>2026-04-10T18:09:35Z</time></trkpt><trkpt lat="45.56527699047721" lon="9.02845251515605"><ele>175.0</ele><time>2026-04-10T18:09:36Z</time></trkpt><trkpt lat="45.565413775433925" lon="9.028199068564213"><ele>174.66666666666669</ele><time>2026-04-10T18:09:37Z</time></trkpt><trkpt lat="45.56554434270506" lon="9.02795731044248"><ele>174.33333333333334</ele><time>2026-04-10T18:09:38Z</time></trkpt><trkpt lat="45.565672067840694" lon="9.027714124997853"><ele>174.0</ele><time>2026-04-10T18:09:39Z</time></trkpt><trkpt lat="45.565804874916466" lon="9.027464226034946"><ele>174.0</ele><time>2026-04-10T18:09:40Z</time></trkpt><trkpt lat="45.5659357200319" lon="9.027213296194097"><ele>174.0</ele><time>2026-04-10T18:09:41Z</time></trkpt><trkpt lat="45.566065650406806" lon="9.026969159453033"><ele>174.0</ele><time>2026-04-10T18:09:42Z</time></trkpt><trkpt lat="45.56619379684042" lon="9.026727475077173"><ele>174.33333333333334</ele><time>2026-04-10T18:09:43Z</time></trkpt><trkpt lat="45.56632705853006" lon="9.026480368013662"><ele>174.66666666666669</ele><time>2026-04-10T18:09:44Z</time></trkpt><trkpt lat="45.5664621352664" lon="9.026229731215292"><ele>175.0</ele><time>2026-04-10T18:09:45Z</time></trkpt><trkpt lat="45.56659939568008" lon="9.025977181052514"><ele>175.5</ele><time>2026-04-10T18:09:46Z</time></trkpt><trkpt lat="45.5667362318963" lon="9.025720290339018"><ele>176.0</ele><time>2026-04-10T18:09:47Z</time></trkpt><trkpt lat="45.566872996248364" lon="9.025455277980495"><ele>176.0</ele><time>2026-04-10T18:09:48Z</time></trkpt><trkpt lat="45.56700786836884" lon="9.025197084391461"><ele>176.0</ele><time>2026-04-10T18:09:49Z</time></trkpt><trkpt lat="45.56714287665542" lon="9.024933583400989"><ele>176.0</ele><time>2026-04-10T18:09:50Z</time></trkpt><trkpt lat="45.56727833386675" lon="9.024665525643904"><ele>176.0</ele><time>2026-04-10T18:09:51Z</time></trkpt><trkpt lat="45.567412952013335" lon="9.024396548592216"><ele>176.33333333333331</ele><time>2026-04-10T18:09:52Z</time></trkpt><trkpt lat="45.56754589941255" lon="9.024138063859755"><ele>176.66666666666666</ele><time>2026-04-10T18:09:53Z</time></trkpt><trkpt lat="45.56767837820968" lon="9.023880499465758"><ele>177.0</ele><time>2026-04-10T18:09:54Z</time></trkpt><trkpt lat="45.56781623080469" lon="9.023619091008053"><ele>177.0</ele><time>2026-04-10T18:09:55Z</time></trkpt><trkpt lat="45.567953609909445" lon="9.023361758799814"><ele>177.0</ele><time>2026-04-10T18:09:56Z</time></trkpt><trkpt lat="45.56808824769811" lon="9.023101124227237"><ele>177.0</ele><time>2026-04-10T18:09:57Z</time></trkpt><trkpt lat="45.56822454870291" lon="9.022832892354687"><ele>177.0</ele><time>2026-04-10T18:09:58Z</time></trkpt><trkpt lat="45.568356844817906" lon="9.022570315343343"><ele>177.33333333333334</ele><time>2026-04-10T18:09:59Z</time></trkpt><trkpt lat="45.56848680777221" lon="9.022315259966302"><ele>177.66666666666669</ele><time>2026-04-10T18:10:00Z</time></trkpt><trkpt lat="45.56861793314048" lon="9.022058264562528"><ele>178.0</ele><time>2026-04-10T18:10:01Z</time></trkpt><trkpt lat="45.56875145201731" lon="9.021800594978332"><ele>179.0</ele><time>2026-04-10T18:10:02Z</time></trkpt><trkpt lat="45.56888644019202" lon="9.021544283917919"><ele>180.0</ele><time>2026-04-10T18:10:03Z</time></trkpt><trkpt lat="45.569022175509424" lon="9.021293297712946"><ele>181.0</ele><time>2026-04-10T18:10:04Z</time></trkpt><trkpt lat="45.569160411501166" lon="9.021040880042165"><ele>180.5</ele><time>2026-04-10T18:10:05Z</time></trkpt><trkpt lat="45.56930238856441" lon="9.020778227355027"><ele>180.0</ele><time>2026-04-10T18:10:06Z</time></trkpt><trkpt lat="45.5694456283723" lon="9.020509889322458"><ele>180.0</ele><time>2026-04-10T18:10:07Z</time></trkpt><trkpt lat="45.56959012235419" lon="9.02024387373014"><ele>180.0</ele><time>2026-04-10T18:10:08Z</time></trkpt><trkpt lat="45.56973424714926" lon="9.019987357501114"><ele>180.0</ele><time>2026-04-10T18:10:09Z</time></trkpt><trkpt lat="45.56987793825618" lon="9.019726801243836"><ele>180.0</ele><time>2026-04-10T18:10:10Z</time></trkpt><trkpt lat="45.57842687495849" lon="9.003860196436827"><ele>181.33333333333334</ele><time>2026-04-10T18:11:11Z</time></trkpt><trkpt lat="45.57854014958888" lon="9.003606049948369"><ele>182.66666666666669</ele><time>2026-04-10T18:11:12Z</time></trkpt><trkpt lat="45.578651125098" lon="9.00336093846098"><ele>184.0</ele><time>2026-04-10T18:11:13Z</time></trkpt><trkpt lat="45.57875641990034" lon="9.00312443242956"><ele>184.66666666666669</ele><time>2026-04-10T18:11:14Z</time></trkpt><trkpt lat="45.57886489698756" lon="9.002892273288431"><ele>185.33333333333334</ele><time>2026-04-10T18:11:15Z</time></trkpt><trkpt lat="45.57897248354246" lon="9.002661092595286"><ele>186.0</ele><time>2026-04-10T18:11:16Z</time></trkpt><trkpt lat="45.57907707591958" lon="9.002425393838758"><ele>186.0</ele><time>2026-04-10T18:11:17Z</time></trkpt><trkpt lat="45.57918759171708" lon="9.002174780877725"><ele>186.0</ele><time>2026-04-10T18:11:18Z</time></trkpt><trkpt lat="45.579299125542114" lon="9.00191005196594"><ele>186.0</ele><time>2026-04-10T18:11:19Z</time></trkpt><trkpt lat="45.57942022326804" lon="9.001639211374714"><ele>189.5</ele><time>2026-04-10T18:11:20Z</time></trkpt><trkpt lat="45.57954272499601" lon="9.00135815051989"><ele>193.0</ele><time>2026-04-10T18:11:21Z</time></trkpt><trkpt lat="45.579667768379416" lon="9.001076485642203"><ele>191.5</ele><time>2026-04-10T18:11:22Z</time></trkpt><trkpt lat="45.57978811138805" lon="9.00080112636563"><ele>190.0</ele><time>2026-04-10T18:11:23Z</time></trkpt><trkpt lat="45.579910777876954" lon="9.000522857653358"><ele>190.0</ele><time>2026-04-10T18:11:24Z</time></trkpt><trkpt lat="45.58002967674724" lon="9.000240774186361"><ele>190.0</ele><time>2026-04-10T18:11:25Z</time></trkpt><trkpt lat="45.58014547022823" lon="8.999953972660643"><ele>190.0</ele><time>2026-04-10T18:11:26Z</time></trkpt><trkpt lat="45.580259534306386" lon="8.999676351745391"><ele>190.0</ele><time>2026-04-10T18:11:27Z</time></trkpt><trkpt lat="45.58037257616781" lon="8.999397892560136"><ele>192.0</ele><time>2026-04-10T18:11:28Z</time></trkpt><trkpt lat="45.58048824590103" lon="8.999118069251619"><ele>194.0</ele><time>2026-04-10T18:11:29Z</time></trkpt><trkpt lat="45.580603517785896" lon="8.998840944764863"><ele>194.0</ele><time>2026-04-10T18:11:30Z</time></trkpt><trkpt lat="45.58071632454117" lon="8.998566778417713"><ele>194.0</ele><time>2026-04-10T18:11:31Z</time></trkpt><trkpt lat="45.58083065891899" lon="8.998293046867722"><ele>194.0</ele><time>2026-04-10T18:11:32Z</time></trkpt><trkpt lat="45.58094679559205" lon="8.998021479171998"><ele>193.0</ele><time>2026-04-10T18:11:33Z</time></trkpt><trkpt lat="45.58106220163246" lon="8.997743753492587"><ele>192.0</ele><time>2026-04-10T18:11:34Z</time></trkpt><trkpt lat="45.581177664812294" lon="8.997464138077907"><ele>193.33333333333331</ele><time>2026-04-10T18:11:35Z</time></trkpt><trkpt lat="45.58129355651575" lon="8.99718788424834"><ele>194.66666666666666</ele><time>2026-04-10T18:11:36Z</time></trkpt><trkpt lat="45.58140665891167" lon="8.996917800184375"><ele>196.0</ele><time>2026-04-10T18:11:37Z</time></trkpt><trkpt lat="45.581519007041685" lon="8.996650781589382"><ele>193.0</ele><time>2026-04-10T18:11:38Z</time></trkpt><trkpt lat="45.58163037113346" lon="8.996382529107729"><ele>190.0</ele><time>2026-04-10T18:11:39Z</time></trkpt><trkpt lat="45.581744941313055" lon="8.996111376666418"><ele>187.0</ele><time>2026-04-10T18:11:40Z</time></trkpt><trkpt lat="45.58186120143053" lon="8.99583781535064"><ele>187.0</ele><time>2026-04-10T18:11:41Z</time></trkpt><trkpt lat="45.58198084880669" lon="8.995564676097334"><ele>187.0</ele><time>2026-04-10T18:11:42Z</time></trkpt><trkpt lat="45.58209661341552" lon="8.995290376683778"><ele>187.0</ele><time>2026-04-10T18:11:43Z</time></trkpt><trkpt lat="45.58221692229421" lon="8.995013002934888"><ele>187.0</ele><time>2026-04-10T18:11:44Z</time></trkpt><trkpt lat="45.58233379355123" lon="8.994732272628402"><ele>186.0</ele><time>2026-04-10T18:11:45Z</time></trkpt><trkpt lat="45.58245314132371" lon="8.994454006487302"><ele>185.0</ele><time>2026-04-10T18:11:46Z</time></trkpt><trkpt lat="45.58256981798343" lon="8.994172659249962"><ele>186.0</ele><time>2026-04-10T18:11:47Z</time></trkpt><trkpt lat="45.58268569431289" lon="8.993892119301194"><ele>187.0</ele><time>2026-04-10T18:11:48Z</time></trkpt><trkpt lat="45.582805673266506" lon="8.993612814402079"><ele>189.0</ele><time>2026-04-10T18:11:49Z</time></trkpt><trkpt lat="45.58292297369621" lon="8.993331115920455"><ele>191.0</ele><time>2026-04-10T18:11:50Z</time></trkpt><trkpt lat="45.583042055176946" lon="8.993051489901966"><ele>191.0</ele><time>2026-04-10T18:11:51Z</time></trkpt><trkpt lat="45.583157988578925" lon="8.992774984835068"><ele>191.0</ele><time>2026-04-10T18:11:52Z</time></trkpt><trkpt lat="45.58327559160437" lon="8.992495808140195"><ele>191.5</ele><time>2026-04-10T18:11:53Z</time></trkpt><trkpt lat="45.58339355584885" lon="8.992219640128472"><ele>192.0</ele><time>2026-04-10T18:11:54Z</time></trkpt><trkpt lat="45.583516005406956" lon="8.991941928895102"><ele>192.0</ele><time>2026-04-10T18:11:55Z</time></trkpt><trkpt lat="45.58363066577998" lon="8.991663849896625"><ele>192.0</ele><time>2026-04-10T18:11:56Z</time></trkpt><trkpt lat="45.583750445044984" lon="8.991380263053985"><ele>193.0</ele><time>2026-04-10T18:11:57Z</time></trkpt><trkpt lat="45.583868195698656" lon="8.991097790813111"><ele>194.0</ele><time>2026-04-10T18:11:58Z</time></trkpt><trkpt lat="45.58398638098453" lon="8.990815941368153"><ele>194.0</ele><time>2026-04-10T18:11:59Z</time></trkpt><trkpt lat="45.5841037959512" lon="8.990535118519736"><ele>194.0</ele><time>2026-04-10T18:12:00Z</time></trkpt><trkpt lat="45.58422178946402" lon="8.99025396253968"><ele>194.0</ele><time>2026-04-10T18:12:01Z</time></trkpt><trkpt lat="45.584338697101195" lon="8.989975914866605"><ele>194.0</ele><time>2026-04-10T18:12:02Z</time></trkpt><trkpt lat="45.58445509009457" lon="8.989695230896215"><ele>194.0</ele><time>2026-04-10T18:12:03Z</time></trkpt><trkpt lat="45.58457231989944" lon="8.989414116715215"><ele>194.0</ele><time>2026-04-10T18:12:04Z</time></trkpt><trkpt lat="45.584688821462414" lon="8.98913597757386"><ele>194.0</ele><time>2026-04-10T18:12:05Z</time></trkpt><trkpt lat="45.584807295897285" lon="8.988857059605985"><ele>194.0</ele><time>2026-04-10T18:12:06Z</time></trkpt><trkpt lat="45.58492439333465" lon="8.98858152314804"><ele>193.5</ele><time>2026-04-10T18:12:07Z</time></trkpt><trkpt lat="45.58504621931533" lon="8.988302960245912"><ele>193.0</ele><time>2026-04-10T18:12:08Z</time></trkpt><trkpt lat="45.58516751957279" lon="8.988025406879231"><ele>193.0</ele><time>2026-04-10T18:12:09Z</time></trkpt><trkpt lat="45.58528229648456" lon="8.98774337918389"><ele>193.0</ele><time>2026-04-10T18:12:10Z</time></trkpt><trkpt lat="45.58985872058868" lon="8.976947748314677"><ele>204.0</ele><time>2026-04-10T18:13:12Z</time></trkpt><trkpt lat="45.59361283968948" lon="8.967836619499426"><ele>204.0</ele><time>2026-04-10T18:16:11Z</time></trkpt><trkpt lat="45.593729411576945" lon="8.967560683293824"><ele>204.0</ele><time>2026-04-10T18:16:12Z</time></trkpt><trkpt lat="45.593842514145855" lon="8.967292081869752"><ele>204.0</ele><time>2026-04-10T18:16:13Z</time></trkpt><trkpt lat="45.593952593545445" lon="8.96702598253223"><ele>204.0</ele><time>2026-04-10T18:16:14Z</time></trkpt><trkpt lat="45.59406077657649" lon="8.966760761612274"><ele>204.0</ele><time>2026-04-10T18:16:15Z</time></trkpt><trkpt lat="45.59416864449826" lon="8.966501281503414"><ele>204.0</ele><time>2026-04-10T18:16:16Z</time></trkpt><trkpt lat="45.59427388765782" lon="8.96625196180909"><ele>204.33333333333331</ele><time>2026-04-10T18:16:17Z</time></trkpt><trkpt lat="45.59437557278089" lon="8.966011741189853"><ele>204.66666666666666</ele><time>2026-04-10T18:16:18Z</time></trkpt><trkpt lat="45.594477267595366" lon="8.96576705403093"><ele>205.0</ele><time>2026-04-10T18:16:19Z</time></trkpt><trkpt lat="45.594576958819175" lon="8.965524795953494"><ele>205.0</ele><time>2026-04-10T18:16:20Z</time></trkpt><trkpt lat="45.59468101375983" lon="8.965281355312515"><ele>205.0</ele><time>2026-04-10T18:16:21Z</time></trkpt><trkpt lat="45.59478814297367" lon="8.965035801486861"><ele>205.0</ele><time>2026-04-10T18:16:22Z</time></trkpt><trkpt lat="45.594891912708405" lon="8.964788219032274"><ele>205.0</ele><time>2026-04-10T18:16:23Z</time></trkpt><trkpt lat="45.59499574347116" lon="8.96454556610808"><ele>205.0</ele><time>2026-04-10T18:16:24Z</time></trkpt><trkpt lat="45.595097976969456" lon="8.964301858548039"><ele>205.0</ele><time>2026-04-10T18:16:25Z</time></trkpt><trkpt lat="45.595203203688044" lon="8.964053950869934"><ele>204.66666666666666</ele><time>2026-04-10T18:16:26Z</time></trkpt><trkpt lat="45.595309477434085" lon="8.963799605163942"><ele>204.33333333333331</ele><time>2026-04-10T18:16:27Z</time></trkpt><trkpt lat="45.59541466034458" lon="8.963545813590466"><ele>204.0</ele><time>2026-04-10T18:16:28Z</time></trkpt><trkpt lat="45.59552111981193" lon="8.963283393671238"><ele>204.33333333333331</ele><time>2026-04-10T18:16:29Z</time></trkpt><trkpt lat="45.59563034251169" lon="8.963015709085427"><ele>204.66666666666666</ele><time>2026-04-10T18:16:30Z</time></trkpt><trkpt lat="45.595741338000934" lon="8.962741755332988"><ele>205.0</ele><time>2026-04-10T18:16:31Z</time></trkpt><trkpt lat="45.59585161698831" lon="8.962472843516899"><ele>205.0</ele><time>2026-04-10T18:16:32Z</time></trkpt><trkpt lat="45.59595815313047" lon="8.962206572759426"><ele>205.0</ele><time>2026-04-10T18:16:33Z</time></trkpt><trkpt lat="45.59606616656724" lon="8.96193464011072"><ele>205.0</ele><time>2026-04-10T18:16:34Z</time></trkpt><trkpt lat="45.59617581999179" lon="8.961658646372532"><ele>205.66666666666666</ele><time>2026-04-10T18:16:35Z</time></trkpt><trkpt lat="45.59628646267039" lon="8.961392635483618"><ele>206.33333333333331</ele><time>2026-04-10T18:16:36Z</time></trkpt><trkpt lat="45.596392145847" lon="8.96113746594034"><ele>207.0</ele><time>2026-04-10T18:16:37Z</time></trkpt><trkpt lat="45.59649359220141" lon="8.960892249458668"><ele>207.0</ele><time>2026-04-10T18:16:38Z</time></trkpt><trkpt lat="45.59660180865676" lon="8.960640850147458"><ele>207.0</ele><time>2026-04-10T18:16:39Z</time></trkpt><trkpt lat="45.59670697974861" lon="8.960390732143432"><ele>207.0</ele><time>2026-04-10T18:16:40Z</time></trkpt><trkpt lat="45.596812005092204" lon="8.960136557542368"><ele>207.0</ele><time>2026-04-10T18:16:41Z</time></trkpt><trkpt lat="45.59691309602714" lon="8.95988796110894"><ele>207.0</ele><time>2026-04-10T18:16:42Z</time></trkpt><trkpt lat="45.59701898170277" lon="8.95963943686627"><ele>207.0</ele><time>2026-04-10T18:16:43Z</time></trkpt><trkpt lat="45.59713100611737" lon="8.959381208791209"><ele>207.0</ele><time>2026-04-10T18:16:44Z</time></trkpt><trkpt lat="45.597241140874125" lon="8.959112517357648"><ele>207.0</ele><time>2026-04-10T18:16:45Z</time></trkpt><trkpt lat="45.59736046573958" lon="8.958845563657523"><ele>207.0</ele><time>2026-04-10T18:16:46Z</time></trkpt><trkpt lat="45.59747608295262" lon="8.958569897340615"><ele>207.0</ele><time>2026-04-10T18:16:47Z</time></trkpt><trkpt lat="45.597592470845804" lon="8.958288747824325"><ele>207.0</ele><time>2026-04-10T18:16:48Z</time></trkpt><trkpt lat="45.59771444854135" lon="8.95800720598054"><ele>207.0</ele><time>2026-04-10T18:16:49Z</time></trkpt><trkpt lat="45.597833400456125" lon="8.957717664372788"><ele>207.0</ele><time>2026-04-10T18:16:50Z</time></trkpt><trkpt lat="45.597952045239325" lon="8.957431630325223"><ele>207.5</ele><time>2026-04-10T18:16:51Z</time></trkpt><trkpt lat="45.5980738955278" lon="8.957137321652109"><ele>208.0</ele><time>2026-04-10T18:16:52Z</time></trkpt><trkpt lat="45.59819831489692" lon="8.956839392426593"><ele>207.5</ele><time>2026-04-10T18:16:53Z</time></trkpt><trkpt lat="45.59832118987535" lon="8.956549049033347"><ele>207.0</ele><time>2026-04-10T18:16:54Z</time></trkpt><trkpt lat="45.598442145019575" lon="8.956254261222893"><ele>207.0</ele><time>2026-04-10T18:16:55Z</time></trkpt><trkpt lat="45.59856612641274" lon="8.955959661193116"><ele>207.0</ele><time>2026-04-10T18:16:56Z</time></trkpt><trkpt lat="45.59869049822269" lon="8.955669052733963"><ele>207.5</ele><time>2026-04-10T18:16:57Z</time></trkpt><trkpt lat="45.59881165382934" lon="8.955380515714243"><ele>208.0</ele><time>2026-04-10T18:16:58Z</time></trkpt><trkpt lat="45.598932272815816" lon="8.955089547565672"><ele>208.5</ele><time>2026-04-10T18:16:59Z</time></trkpt><trkpt lat="45.59905323522233" lon="8.954794914856082"><ele>209.0</ele><time>2026-04-10T18:17:00Z</time></trkpt><trkpt lat="45.59918183418563" lon="8.954497289009513"><ele>208.5</ele><time>2026-04-10T18:17:01Z</time></trkpt><trkpt lat="45.599309532731375" lon="8.954191810221042"><ele>208.0</ele><time>2026-04-10T18:17:02Z</time></trkpt><trkpt lat="45.59943627778851" lon="8.953883204110197"><ele>208.0</ele><time>2026-04-10T18:17:03Z</time></trkpt><trkpt lat="45.599568778423226" lon="8.953573192910087"><ele>208.0</ele><time>2026-04-10T18:17:04Z</time></trkpt><trkpt lat="45.599706317253165" lon="8.953265633551355"><ele>208.0</ele><time>2026-04-10T18:17:05Z</time></trkpt><trkpt lat="45.599819553185185" lon="8.952970059979041"><ele>208.0</ele><time>2026-04-10T18:17:06Z</time></trkpt><trkpt lat="45.59994605116189" lon="8.952674940186467"><ele>209.0</ele><time>2026-04-10T18:17:07Z</time></trkpt><trkpt lat="45.600068464377195" lon="8.952378930171575"><ele>210.0</ele><time>2026-04-10T18:17:08Z</time></trkpt><trkpt lat="45.60019382943287" lon="8.952086237623266"><ele>210.0</ele><time>2026-04-10T18:17:09Z</time></trkpt><trkpt lat="45.600316089124114" lon="8.951791301843818"><ele>210.0</ele><time>2026-04-10T18:17:10Z</time></trkpt><trkpt lat="45.6078847139079" lon="8.933861427339117"><ele>212.0</ele><time>2026-04-10T18:18:11Z</time></trkpt><trkpt lat="45.608006913518025" lon="8.933564536522136"><ele>214.0</ele><time>2026-04-10T18:18:12Z</time></trkpt><trkpt lat="45.608126436768394" lon="8.933270407533817"><ele>214.0</ele><time>2026-04-10T18:18:13Z</time></trkpt><trkpt lat="45.60825077208276" lon="8.932977619244387"><ele>214.0</ele><time>2026-04-10T18:18:14Z</time></trkpt><trkpt lat="45.608378230576136" lon="8.93267750913124"><ele>212.0</ele><time>2026-04-10T18:18:15Z</time></trkpt><trkpt lat="45.60850336897928" lon="8.932372240910052"><ele>210.0</ele><time>2026-04-10T18:18:16Z</time></trkpt><trkpt lat="45.608631206118915" lon="8.932068063931618"><ele>211.5</ele><time>2026-04-10T18:18:17Z</time></trkpt><trkpt lat="45.60875585321377" lon="8.931768850949387"><ele>213.0</ele><time>2026-04-10T18:18:18Z</time></trkpt><trkpt lat="45.608880636177645" lon="8.931474764764632"><ele>213.0</ele><time>2026-04-10T18:18:19Z</time></trkpt><trkpt lat="45.60900771252784" lon="8.931171159200266"><ele>213.0</ele><time>2026-04-10T18:18:20Z</time></trkpt><trkpt lat="45.60913944512378" lon="8.93086429718657"><ele>211.5</ele><time>2026-04-10T18:18:21Z</time></trkpt><trkpt lat="45.60927347718097" lon="8.930548507693238"><ele>210.0</ele><time>2026-04-10T18:18:22Z</time></trkpt><trkpt lat="45.609407485503404" lon="8.93024263909054"><ele>209.5</ele><time>2026-04-10T18:18:23Z</time></trkpt><trkpt lat="45.609532545522605" lon="8.929937720739254"><ele>209.0</ele><time>2026-04-10T18:18:24Z</time></trkpt><trkpt lat="45.609662630081885" lon="8.92963087388023"><ele>209.0</ele><time>2026-04-10T18:18:25Z</time></trkpt><trkpt lat="45.60979174532964" lon="8.929320690405246"><ele>209.0</ele><time>2026-04-10T18:18:26Z</time></trkpt><trkpt lat="45.609923295762535" lon="8.929013043389027"><ele>208.5</ele><time>2026-04-10T18:18:27Z</time></trkpt><trkpt lat="45.61005452574657" lon="8.928708423257707"><ele>208.0</ele><time>2026-04-10T18:18:28Z</time></trkpt><trkpt lat="45.610185079043276" lon="8.928403060205277"><ele>208.0</ele><time>2026-04-10T18:18:29Z</time></trkpt><trkpt lat="45.61031214768159" lon="8.928093426961725"><ele>208.0</ele><time>2026-04-10T18:18:30Z</time></trkpt><trkpt lat="45.61043978675547" lon="8.927782843280633"><ele>208.0</ele><time>2026-04-10T18:18:31Z</time></trkpt><trkpt lat="45.61056774292936" lon="8.927472226498178"><ele>208.0</ele><time>2026-04-10T18:18:32Z</time></trkpt><trkpt lat="45.610698552886696" lon="8.927164340495727"><ele>208.0</ele><time>2026-04-10T18:18:33Z</time></trkpt><trkpt lat="45.610826199945265" lon="8.926855998048191"><ele>208.0</ele><time>2026-04-10T18:18:34Z</time></trkpt><trkpt lat="45.61095661233781" lon="8.926545116563293"><ele>208.0</ele><time>2026-04-10T18:18:35Z</time></trkpt><trkpt lat="45.6110864086639" lon="8.926241963318487"><ele>208.0</ele><time>2026-04-10T18:18:36Z</time></trkpt><trkpt lat="45.61121500143699" lon="8.925938823005527"><ele>208.5</ele><time>2026-04-10T18:18:37Z</time></trkpt><trkpt lat="45.61134411161826" lon="8.925634338342274"><ele>209.0</ele><time>2026-04-10T18:18:38Z</time></trkpt><trkpt lat="45.611473630244156" lon="8.92532955427079"><ele>209.0</ele><time>2026-04-10T18:18:39Z</time></trkpt><trkpt lat="45.61160143909402" lon="8.925024773775323"><ele>209.0</ele><time>2026-04-10T18:18:40Z</time></trkpt><trkpt lat="45.611727494862485" lon="8.924717967704542"><ele>209.0</ele><time>2026-04-10T18:18:41Z</time></trkpt><trkpt lat="45.611854681419025" lon="8.924408370985407"><ele>209.0</ele><time>2026-04-10T18:18:42Z</time></trkpt><trkpt lat="45.61198268634628" lon="8.92410133711873"><ele>208.5</ele><time>2026-04-10T18:18:43Z</time></trkpt><trkpt lat="45.61210751812128" lon="8.92380551957884"><ele>208.0</ele><time>2026-04-10T18:18:44Z</time></trkpt><trkpt lat="45.61223366005929" lon="8.923505973456647"><ele>209.0</ele><time>2026-04-10T18:18:45Z</time></trkpt><trkpt lat="45.61236120356891" lon="8.923203362263813"><ele>210.0</ele><time>2026-04-10T18:18:46Z</time></trkpt><trkpt lat="45.61248985789855" lon="8.92289803764269"><ele>210.0</ele><time>2026-04-10T18:18:47Z</time></trkpt><trkpt lat="45.61261861130212" lon="8.922589452426216"><ele>210.0</ele><time>2026-04-10T18:18:48Z</time></trkpt><trkpt lat="45.612748678125925" lon="8.922276560156522"><ele>211.5</ele><time>2026-04-10T18:18:49Z</time></trkpt><trkpt lat="45.61287995168613" lon="8.921963271247964"><ele>213.0</ele><time>2026-04-10T18:18:50Z</time></trkpt><trkpt lat="45.61300955334165" lon="8.921658257571229"><ele>213.0</ele><time>2026-04-10T18:18:51Z</time></trkpt><trkpt lat="45.61313850269311" lon="8.921352247869946"><ele>213.0</ele><time>2026-04-10T18:18:52Z</time></trkpt><trkpt lat="45.613267765489205" lon="8.921048186919952"><ele>212.5</ele><time>2026-04-10T18:18:53Z</time></trkpt><trkpt lat="45.613398434422166" lon="8.920741299552562"><ele>212.0</ele><time>2026-04-10T18:18:54Z</time></trkpt><trkpt lat="45.61352829923205" lon="8.920432797736153"><ele>215.0</ele><time>2026-04-10T18:18:55Z</time></trkpt><trkpt lat="45.61365758367934" lon="8.920122556706099"><ele>218.0</ele><time>2026-04-10T18:18:56Z</time></trkpt><trkpt lat="45.61378601342235" lon="8.919809382536677"><ele>219.0</ele><time>2026-04-10T18:18:57Z</time></trkpt><trkpt lat="45.613914649756374" lon="8.919495963090908"><ele>220.0</ele><time>2026-04-10T18:18:58Z</time></trkpt><trkpt lat="45.61404563943182" lon="8.919184861241126"><ele>220.5</ele><time>2026-04-10T18:18:59Z</time></trkpt><trkpt lat="45.61417799163113" lon="8.918876640865697"><ele>221.0</ele><time>2026-04-10T18:19:00Z</time></trkpt><trkpt lat="45.61430758891701" lon="8.91857635705991"><ele>221.0</ele><time>2026-04-10T18:19:01Z</time></trkpt><trkpt lat="45.61443575080708" lon="8.918275931229307"><ele>221.0</ele><time>2026-04-10T18:19:02Z</time></trkpt><trkpt lat="45.61456131263985" lon="8.917974528242723"><ele>219.5</ele><time>2026-04-10T18:19:03Z</time></trkpt><trkpt lat="45.61468864186926" lon="8.917674675376531"><ele>218.0</ele><time>2026-04-10T18:19:04Z</time></trkpt><trkpt lat="45.61481247280364" lon="8.917374196050593"><ele>216.0</ele><time>2026-04-10T18:19:05Z</time></trkpt><trkpt lat="45.614936995967604" lon="8.917071088484743"><ele>214.0</ele><time>2026-04-10T18:19:06Z</time></trkpt><trkpt lat="45.615062554936344" lon="8.916768193401525"><ele>213.5</ele><time>2026-04-10T18:19:07Z</time></trkpt><trkpt lat="45.615189182965615" lon="8.916459833806547"><ele>213.0</ele><time>2026-04-10T18:19:08Z</time></trkpt><trkpt lat="45.61531660843249" lon="8.916153649803325"><ele>216.5</ele><time>2026-04-10T18:19:09Z</time></trkpt><trkpt lat="45.61544838069844" lon="8.915844023312872"><ele>220.0</ele><time>2026-04-10T18:19:10Z</time></trkpt><trkpt lat="45.62325855450469" lon="8.897258134430887"><ele>220.0</ele><time>2026-04-10T18:20:11Z</time></trkpt><trkpt lat="45.62338836217082" lon="8.896948287294459"><ele>220.0</ele><time>2026-04-10T18:20:12Z</time></trkpt><trkpt lat="45.62352084672" lon="8.89663803158669"><ele>217.5</ele><time>2026-04-10T18:20:13Z</time></trkpt><trkpt lat="45.62365337229194" lon="8.896325607035662"><ele>215.0</ele><time>2026-04-10T18:20:14Z</time></trkpt><trkpt lat="45.62378812467911" lon="8.896010394164367"><ele>215.0</ele><time>2026-04-10T18:20:15Z</time></trkpt><trkpt lat="45.62391948693461" lon="8.895699815355668"><ele>215.0</ele><time>2026-04-10T18:20:16Z</time></trkpt><trkpt lat="45.62404736932209" lon="8.895390700764956"><ele>216.0</ele><time>2026-04-10T18:20:17Z</time></trkpt><trkpt lat="45.62417619335726" lon="8.895083370662192"><ele>217.0</ele><time>2026-04-10T18:20:18Z</time></trkpt><trkpt lat="45.62430352220743" lon="8.894775965477148"><ele>217.0</ele><time>2026-04-10T18:20:19Z</time></trkpt><trkpt lat="45.62443066609451" lon="8.894471676333987"><ele>217.0</ele><time>2026-04-10T18:20:20Z</time></trkpt><trkpt lat="45.62456023938527" lon="8.894165178231558"><ele>216.0</ele><time>2026-04-10T18:20:21Z</time></trkpt><trkpt lat="45.62468769553546" lon="8.89386111265145"><ele>215.0</ele><time>2026-04-10T18:20:22Z</time></trkpt><trkpt lat="45.62481710765822" lon="8.893559133851753"><ele>216.0</ele><time>2026-04-10T18:20:23Z</time></trkpt><trkpt lat="45.62494614226061" lon="8.893255541533323"><ele>217.0</ele><time>2026-04-10T18:20:24Z</time></trkpt><trkpt lat="45.62507279579969" lon="8.892952578135807"><ele>217.0</ele><time>2026-04-10T18:20:25Z</time></trkpt><trkpt lat="45.62519520922114" lon="8.89264588508397"><ele>217.0</ele><time>2026-04-10T18:20:26Z</time></trkpt><trkpt lat="45.62532099989085" lon="8.892339336969785"><ele>221.5</ele><time>2026-04-10T18:20:27Z</time></trkpt><trkpt lat="45.625446663408596" lon="8.892033614138953"><ele>226.0</ele><time>2026-04-10T18:20:28Z</time></trkpt><trkpt lat="45.62557164920239" lon="8.891732838174288"><ele>226.5</ele><time>2026-04-10T18:20:29Z</time></trkpt><trkpt lat="45.62569705157822" lon="8.891431506363896"><ele>227.0</ele><time>2026-04-10T18:20:30Z</time></trkpt><trkpt lat="45.6258222440663" lon="8.891131482385617"><ele>229.5</ele><time>2026-04-10T18:20:31Z</time></trkpt><trkpt lat="45.625948051398794" lon="8.890831846384348"><ele>232.0</ele><time>2026-04-10T18:20:32Z</time></trkpt><trkpt lat="45.62607460214142" lon="8.890533119124079"><ele>234.0</ele><time>2026-04-10T18:20:33Z</time></trkpt><trkpt lat="45.62620203047398" lon="8.890233548048817"><ele>236.0</ele><time>2026-04-10T18:20:34Z</time></trkpt><trkpt lat="45.62633036061608" lon="8.889933889527965"><ele>236.0</ele><time>2026-04-10T18:20:35Z</time></trkpt><trkpt lat="45.62645882656514" lon="8.889630788051177"><ele>236.0</ele><time>2026-04-10T18:20:36Z</time></trkpt><trkpt lat="45.62658677535885" lon="8.88932829467342"><ele>234.5</ele><time>2026-04-10T18:20:37Z</time></trkpt><trkpt lat="45.62671366663412" lon="8.88902421806422"><ele>233.0</ele><time>2026-04-10T18:20:38Z</time></trkpt><trkpt lat="45.626842308849824" lon="8.888723869844876"><ele>233.5</ele><time>2026-04-10T18:20:39Z</time></trkpt><trkpt lat="45.62697056213957" lon="8.888421214875404"><ele>234.0</ele><time>2026-04-10T18:20:40Z</time></trkpt><trkpt lat="45.62710157931359" lon="8.888118177587105"><ele>234.5</ele><time>2026-04-10T18:20:41Z</time></trkpt><trkpt lat="45.62723311498293" lon="8.887816979816328"><ele>235.0</ele><time>2026-04-10T18:20:42Z</time></trkpt><trkpt lat="45.6273655211491" lon="8.887512393955609"><ele>235.0</ele><time>2026-04-10T18:20:43Z</time></trkpt><trkpt lat="45.62749450396453" lon="8.887208443438254"><ele>235.0</ele><time>2026-04-10T18:20:44Z</time></trkpt><trkpt lat="45.6276188033991" lon="8.886912568788384"><ele>234.5</ele><time>2026-04-10T18:20:45Z</time></trkpt><trkpt lat="45.62774279196682" lon="8.886616747672418"><ele>234.0</ele><time>2026-04-10T18:20:46Z</time></trkpt><trkpt lat="45.62785967584387" lon="8.886321248418966"><ele>234.0</ele><time>2026-04-10T18:20:47Z</time></trkpt><trkpt lat="45.62798281499049" lon="8.886021987872352"><ele>234.0</ele><time>2026-04-10T18:20:48Z</time></trkpt><trkpt lat="45.62810483802288" lon="8.88572511238444"><ele>234.0</ele><time>2026-04-10T18:20:49Z</time></trkpt><trkpt lat="45.628227987456285" lon="8.88542756457618"><ele>234.0</ele><time>2026-04-10T18:20:50Z</time></trkpt><trkpt lat="45.62834872339218" lon="8.88513279990191"><ele>235.0</ele><time>2026-04-10T18:20:51Z</time></trkpt><trkpt lat="45.62846959850267" lon="8.884836120740855"><ele>236.0</ele><time>2026-04-10T18:20:52Z</time></trkpt><trkpt lat="45.62859247327654" lon="8.884541305783662"><ele>236.0</ele><time>2026-04-10T18:20:53Z</time></trkpt><trkpt lat="45.628717318663185" lon="8.884248570017702"><ele>236.0</ele><time>2026-04-10T18:20:54Z</time></trkpt><trkpt lat="45.62884231961717" lon="8.883958611292861"><ele>236.0</ele><time>2026-04-10T18:20:55Z</time></trkpt><trkpt lat="45.628966509657076" lon="8.883666425745488"><ele>236.0</ele><time>2026-04-10T18:20:56Z</time></trkpt><trkpt lat="45.62909245053325" lon="8.883379962665188"><ele>236.5</ele><time>2026-04-10T18:20:57Z</time></trkpt><trkpt lat="45.6292156328463" lon="8.883088888879037"><ele>237.0</ele><time>2026-04-10T18:20:58Z</time></trkpt><trkpt lat="45.62933761687192" lon="8.882796125072277"><ele>237.0</ele><time>2026-04-10T18:20:59Z</time></trkpt><trkpt lat="45.62945838189649" lon="8.882502006758793"><ele>237.0</ele><time>2026-04-10T18:21:00Z</time></trkpt><trkpt lat="45.62957875718144" lon="8.88220683694125"><ele>237.0</ele><time>2026-04-10T18:21:01Z</time></trkpt><trkpt lat="45.62969796274365" lon="8.88191313054986"><ele>237.0</ele><time>2026-04-10T18:21:02Z</time></trkpt><trkpt lat="45.6298189992837" lon="8.881623212962742"><ele>237.0</ele><time>2026-04-10T18:21:03Z</time></trkpt><trkpt lat="45.62994054994023" lon="8.88133636418052"><ele>237.0</ele><time>2026-04-10T18:21:04Z</time></trkpt><trkpt lat="45.630063903833964" lon="8.881051020118733"><ele>238.0</ele><time>2026-04-10T18:21:05Z</time></trkpt><trkpt lat="45.630188774320196" lon="8.880764264435097"><ele>239.0</ele><time>2026-04-10T18:21:06Z</time></trkpt><trkpt lat="45.63031172722169" lon="8.880475458883438"><ele>239.0</ele><time>2026-04-10T18:21:07Z</time></trkpt><trkpt lat="45.63043297928296" lon="8.880184432698883"><ele>239.0</ele><time>2026-04-10T18:21:08Z</time></trkpt><trkpt lat="45.63055369792414" lon="8.879894024743361"><ele>238.0</ele><time>2026-04-10T18:21:09Z</time></trkpt><trkpt lat="45.63067398724734" lon="8.87960468009753"><ele>237.0</ele><time>2026-04-10T18:21:10Z</time></trkpt><trkpt lat="45.638078904158725" lon="8.862064144818094"><ele>238.0</ele><time>2026-04-10T18:22:11Z</time></trkpt><trkpt lat="45.63819812239142" lon="8.861776137854234"><ele>239.0</ele><time>2026-04-10T18:22:12Z</time></trkpt><trkpt lat="45.63831851085056" lon="8.861485121408075"><ele>239.0</ele><time>2026-04-10T18:22:13Z</time></trkpt><trkpt lat="45.63843967292153" lon="8.861193093014979"><ele>239.0</ele><time>2026-04-10T18:22:14Z</time></trkpt><trkpt lat="45.63856235048224" lon="8.860903291451509"><ele>241.0</ele><time>2026-04-10T18:22:15Z</time></trkpt><trkpt lat="45.63868626106679" lon="8.860612531770036"><ele>243.0</ele><time>2026-04-10T18:22:16Z</time></trkpt><trkpt lat="45.63881196510036" lon="8.86031779744324"><ele>244.5</ele><time>2026-04-10T18:22:17Z</time></trkpt><trkpt lat="45.638939219434725" lon="8.860019814096153"><ele>246.0</ele><time>2026-04-10T18:22:18Z</time></trkpt><trkpt lat="45.63906119101415" lon="8.859726945279405"><ele>246.0</ele><time>2026-04-10T18:22:19Z</time></trkpt><trkpt lat="45.63918395587843" lon="8.859433865221492"><ele>246.0</ele><time>2026-04-10T18:22:20Z</time></trkpt><trkpt lat="45.63930819840584" lon="8.859137450554076"><ele>245.5</ele><time>2026-04-10T18:22:21Z</time></trkpt><trkpt lat="45.63942954521008" lon="8.85884083451944"><ele>245.0</ele><time>2026-04-10T18:22:22Z</time></trkpt><trkpt lat="45.63955378504773" lon="8.85854241413467"><ele>245.5</ele><time>2026-04-10T18:22:23Z</time></trkpt><trkpt lat="45.63967927598418" lon="8.858245530317193"><ele>246.0</ele><time>2026-04-10T18:22:24Z</time></trkpt><trkpt lat="45.63980405210482" lon="8.857950527222561"><ele>246.0</ele><time>2026-04-10T18:22:25Z</time></trkpt><trkpt lat="45.63993072824299" lon="8.857654757106525"><ele>246.0</ele><time>2026-04-10T18:22:26Z</time></trkpt><trkpt lat="45.64005665697935" lon="8.857358688264368"><ele>245.0</ele><time>2026-04-10T18:22:27Z</time></trkpt><trkpt lat="45.64017782850731" lon="8.857065205150162"><ele>244.0</ele><time>2026-04-10T18:22:28Z</time></trkpt><trkpt lat="45.64029524527711" lon="8.856770309473644"><ele>244.5</ele><time>2026-04-10T18:22:29Z</time></trkpt><trkpt lat="45.640413763714726" lon="8.856479587463186"><ele>245.0</ele><time>2026-04-10T18:22:30Z</time></trkpt><trkpt lat="45.640534254092664" lon="8.856197187418266"><ele>245.0</ele><time>2026-04-10T18:22:31Z</time></trkpt><trkpt lat="45.640656128102336" lon="8.855916952963534"><ele>245.0</ele><time>2026-04-10T18:22:32Z</time></trkpt><trkpt lat="45.640779589579" lon="8.855630684008972"><ele>245.0</ele><time>2026-04-10T18:22:33Z</time></trkpt><trkpt lat="45.64089045457024" lon="8.855355356217151"><ele>245.0</ele><time>2026-04-10T18:22:34Z</time></trkpt><trkpt lat="45.64099809254358" lon="8.855072788392514"><ele>245.0</ele><time>2026-04-10T18:22:35Z</time></trkpt><trkpt lat="45.641108065157916" lon="8.854786876306084"><ele>245.0</ele><time>2026-04-10T18:22:36Z</time></trkpt><trkpt lat="45.64122393814126" lon="8.854499625160189"><ele>245.0</ele><time>2026-04-10T18:22:37Z</time></trkpt><trkpt lat="45.64134323433955" lon="8.854214448389854"><ele>244.5</ele><time>2026-04-10T18:22:38Z</time></trkpt><trkpt lat="45.64146541432421" lon="8.853921789955505"><ele>244.0</ele><time>2026-04-10T18:22:39Z</time></trkpt><trkpt lat="45.641589825205465" lon="8.853625355143237"><ele>243.5</ele><time>2026-04-10T18:22:40Z</time></trkpt><trkpt lat="45.641713425214" lon="8.853325209997713"><ele>243.0</ele><time>2026-04-10T18:22:41Z</time></trkpt><trkpt lat="45.641837891770436" lon="8.853022391823828"><ele>243.0</ele><time>2026-04-10T18:22:42Z</time></trkpt><trkpt lat="45.64196291289375" lon="8.852720302257797"><ele>243.0</ele><time>2026-04-10T18:22:43Z</time></trkpt><trkpt lat="45.642088283896896" lon="8.852416437442914"><ele>243.5</ele><time>2026-04-10T18:22:44Z</time></trkpt><trkpt lat="45.64221651052653" lon="8.852109406053744"><ele>244.0</ele><time>2026-04-10T18:22:45Z</time></trkpt><trkpt lat="45.64234551781968" lon="8.851799903450893"><ele>244.5</ele><time>2026-04-10T18:22:46Z</time></trkpt><trkpt lat="45.64247591442346" lon="8.851491750392448"><ele>245.0</ele><time>2026-04-10T18:22:47Z</time></trkpt><trkpt lat="45.64260669186342" lon="8.851182391140602"><ele>244.5</ele><time>2026-04-10T18:22:48Z</time></trkpt><trkpt lat="45.64273725521134" lon="8.85087349439824"><ele>244.0</ele><time>2026-04-10T18:22:49Z</time></trkpt><trkpt lat="45.64286853631767" lon="8.850564137044278"><ele>244.0</ele><time>2026-04-10T18:22:50Z</time></trkpt><trkpt lat="45.64300065786173" lon="8.850252774561493"><ele>244.0</ele><time>2026-04-10T18:22:51Z</time></trkpt><trkpt lat="45.64313463399984" lon="8.84993971217046"><ele>245.5</ele><time>2026-04-10T18:22:52Z</time></trkpt><trkpt lat="45.64326463361818" lon="8.84963203426142"><ele>247.0</ele><time>2026-04-10T18:22:53Z</time></trkpt><trkpt lat="45.64339597563538" lon="8.8493306582091"><ele>247.0</ele><time>2026-04-10T18:22:54Z</time></trkpt><trkpt lat="45.643529252945314" lon="8.849034218648235"><ele>247.0</ele><time>2026-04-10T18:22:55Z</time></trkpt><trkpt lat="45.64366381276104" lon="8.848747837433839"><ele>247.0</ele><time>2026-04-10T18:22:56Z</time></trkpt><trkpt lat="45.64379567849895" lon="8.848463997707688"><ele>247.0</ele><time>2026-04-10T18:22:57Z</time></trkpt><trkpt lat="45.643918656704756" lon="8.8481746624493"><ele>247.0</ele><time>2026-04-10T18:22:58Z</time></trkpt><trkpt lat="45.64403877466453" lon="8.84788183382441"><ele>247.0</ele><time>2026-04-10T18:22:59Z</time></trkpt><trkpt lat="45.644161247313626" lon="8.847584936518526"><ele>246.5</ele><time>2026-04-10T18:23:00Z</time></trkpt><trkpt lat="45.64428554043092" lon="8.847285718182748"><ele>246.0</ele><time>2026-04-10T18:23:01Z</time></trkpt><trkpt lat="45.64440644829443" lon="8.846982052758113"><ele>246.0</ele><time>2026-04-10T18:23:02Z</time></trkpt><trkpt lat="45.644528611190545" lon="8.8466787622247"><ele>246.0</ele><time>2026-04-10T18:23:03Z</time></trkpt><trkpt lat="45.644655013652255" lon="8.846374200180565"><ele>246.0</ele><time>2026-04-10T18:23:04Z</time></trkpt><trkpt lat="45.64478390060421" lon="8.846071818707385"><ele>246.0</ele><time>2026-04-10T18:23:05Z</time></trkpt><trkpt lat="45.644912916471206" lon="8.845770862355272"><ele>245.5</ele><time>2026-04-10T18:23:06Z</time></trkpt><trkpt lat="45.64503939095753" lon="8.845466106788463"><ele>245.0</ele><time>2026-04-10T18:23:07Z</time></trkpt><trkpt lat="45.645168550103755" lon="8.845162036292814"><ele>246.5</ele><time>2026-04-10T18:23:08Z</time></trkpt><trkpt lat="45.64529948366167" lon="8.844855517879665"><ele>248.0</ele><time>2026-04-10T18:23:09Z</time></trkpt><trkpt lat="45.64542870011221" lon="8.844554244814624"><ele>250.0</ele><time>2026-04-10T18:23:10Z</time></trkpt><trkpt lat="45.65295312772931" lon="8.826522033260728"><ele>250.0</ele><time>2026-04-10T18:24:11Z</time></trkpt><trkpt lat="45.65307680430656" lon="8.826222470694209"><ele>250.0</ele><time>2026-04-10T18:24:12Z</time></trkpt><trkpt lat="45.65320364899229" lon="8.825922244111945"><ele>248.0</ele><time>2026-04-10T18:24:13Z</time></trkpt><trkpt lat="45.653334611585066" lon="8.82562053781795"><ele>246.0</ele><time>2026-04-10T18:24:14Z</time></trkpt><trkpt lat="45.65346366025262" lon="8.825316290396291"><ele>246.5</ele><time>2026-04-10T18:24:15Z</time></trkpt><trkpt lat="45.653586404357846" lon="8.825020424138215"><ele>247.0</ele><time>2026-04-10T18:24:16Z</time></trkpt><trkpt lat="45.65370810225386" lon="8.824721267116113"><ele>247.0</ele><time>2026-04-10T18:24:17Z</time></trkpt><trkpt lat="45.65383168522432" lon="8.824424791372406"><ele>247.0</ele><time>2026-04-10T18:24:18Z</time></trkpt><trkpt lat="45.65395462471225" lon="8.824127843159747"><ele>247.5</ele><time>2026-04-10T18:24:19Z</time></trkpt><trkpt lat="45.65407643314683" lon="8.823831318978785"><ele>248.0</ele><time>2026-04-10T18:24:20Z</time></trkpt><trkpt lat="45.654197606767575" lon="8.823537134961544"><ele>248.0</ele><time>2026-04-10T18:24:21Z</time></trkpt><trkpt lat="45.65432214786191" lon="8.82324370480776"><ele>248.0</ele><time>2026-04-10T18:24:22Z</time></trkpt><trkpt lat="45.65444855516502" lon="8.822949530316032"><ele>248.0</ele><time>2026-04-10T18:24:23Z</time></trkpt><trkpt lat="45.65457341888267" lon="8.822653701089122"><ele>248.0</ele><time>2026-04-10T18:24:24Z</time></trkpt><trkpt lat="45.65469733399671" lon="8.822356817399362"><ele>248.0</ele><time>2026-04-10T18:24:25Z</time></trkpt><trkpt lat="45.654818943201136" lon="8.822059186451863"><ele>248.0</ele><time>2026-04-10T18:24:26Z</time></trkpt><trkpt lat="45.654941940245436" lon="8.82176118126429"><ele>247.0</ele><time>2026-04-10T18:24:27Z</time></trkpt><trkpt lat="45.6550674556882" lon="8.821464426857833"><ele>246.0</ele><time>2026-04-10T18:24:28Z</time></trkpt><trkpt lat="45.65519167066545" lon="8.821166594290267"><ele>247.5</ele><time>2026-04-10T18:24:29Z</time></trkpt><trkpt lat="45.65531802424683" lon="8.820869459985978"><ele>249.0</ele><time>2026-04-10T18:24:30Z</time></trkpt><trkpt lat="45.65544215132805" lon="8.820579085609237"><ele>249.0</ele><time>2026-04-10T18:24:31Z</time></trkpt><trkpt lat="45.65556326338497" lon="8.82028911388113"><ele>249.0</ele><time>2026-04-10T18:24:32Z</time></trkpt><trkpt lat="45.65568822036885" lon="8.819994281875736"><ele>248.5</ele><time>2026-04-10T18:24:33Z</time></trkpt><trkpt lat="45.655814607299206" lon="8.819698897612477"><ele>248.0</ele><time>2026-04-10T18:24:34Z</time></trkpt><trkpt lat="45.655939332507344" lon="8.819398719614835"><ele>248.5</ele><time>2026-04-10T18:24:35Z</time></trkpt><trkpt lat="45.65606622758893" lon="8.819096606545003"><ele>249.0</ele><time>2026-04-10T18:24:36Z</time></trkpt><trkpt lat="45.65618950314442" lon="8.81879544915958"><ele>249.0</ele><time>2026-04-10T18:24:37Z</time></trkpt><trkpt lat="45.65631471333881" lon="8.818498853964844"><ele>249.0</ele><time>2026-04-10T18:24:38Z</time></trkpt><trkpt lat="45.656438903484506" lon="8.818203233806484"><ele>249.0</ele><time>2026-04-10T18:24:39Z</time></trkpt><trkpt lat="45.65656384256734" lon="8.817905553076129"><ele>249.0</ele><time>2026-04-10T18:24:40Z</time></trkpt><trkpt lat="45.65669185481502" lon="8.817607785285904"><ele>248.5</ele><time>2026-04-10T18:24:41Z</time></trkpt><trkpt lat="45.656819332253136" lon="8.81731077290601"><ele>248.0</ele><time>2026-04-10T18:24:42Z</time></trkpt><trkpt lat="45.656947276544734" lon="8.817014024061082"><ele>247.5</ele><time>2026-04-10T18:24:43Z</time></trkpt><trkpt lat="45.65707206454634" lon="8.816712306510984"><ele>247.0</ele><time>2026-04-10T18:24:44Z</time></trkpt><trkpt lat="45.65719581096209" lon="8.816411568634955"><ele>247.0</ele><time>2026-04-10T18:24:45Z</time></trkpt><trkpt lat="45.65732022228564" lon="8.816111381396363"><ele>247.0</ele><time>2026-04-10T18:24:46Z</time></trkpt><trkpt lat="45.65744439497783" lon="8.815810039757551"><ele>247.5</ele><time>2026-04-10T18:24:47Z</time></trkpt><trkpt lat="45.65756979161061" lon="8.815511358740482"><ele>248.0</ele><time>2026-04-10T18:24:48Z</time></trkpt><trkpt lat="45.657693922868006" lon="8.815212468157409"><ele>248.5</ele><time>2026-04-10T18:24:49Z</time></trkpt><trkpt lat="45.65781903780337" lon="8.81491705821927"><ele>249.0</ele><time>2026-04-10T18:24:50Z</time></trkpt><trkpt lat="45.65794636374361" lon="8.814625068644384"><ele>249.0</ele><time>2026-04-10T18:24:51Z</time></trkpt><trkpt lat="45.65807024543968" lon="8.814329746703898"><ele>249.0</ele><time>2026-04-10T18:24:52Z</time></trkpt><trkpt lat="45.65819545339368" lon="8.8140339032278"><ele>248.5</ele><time>2026-04-10T18:24:53Z</time></trkpt><trkpt lat="45.65831771906436" lon="8.813736413044248"><ele>248.0</ele><time>2026-04-10T18:24:54Z</time></trkpt><trkpt lat="45.65844237336987" lon="8.813439602143806"><ele>248.0</ele><time>2026-04-10T18:24:55Z</time></trkpt><trkpt lat="45.65856654221877" lon="8.813141205901738"><ele>248.0</ele><time>2026-04-10T18:24:56Z</time></trkpt><trkpt lat="45.65869166774595" lon="8.812842632980205"><ele>248.5</ele><time>2026-04-10T18:24:57Z</time></trkpt><trkpt lat="45.65881718590327" lon="8.812543741645841"><ele>249.0</ele><time>2026-04-10T18:24:58Z</time></trkpt><trkpt lat="45.65894270069477" lon="8.812243532439973"><ele>249.0</ele><time>2026-04-10T18:24:59Z</time></trkpt><trkpt lat="45.65906764991713" lon="8.811942231732441"><ele>249.0</ele><time>2026-04-10T18:25:00Z</time></trkpt><trkpt lat="45.6591923920102" lon="8.81164142204187"><ele>248.0</ele><time>2026-04-10T18:25:01Z</time></trkpt><trkpt lat="45.65931850232706" lon="8.811339075846151"><ele>247.0</ele><time>2026-04-10T18:25:02Z</time></trkpt><trkpt lat="45.659444690022866" lon="8.811035763289793"><ele>247.5</ele><time>2026-04-10T18:25:03Z</time></trkpt><trkpt lat="45.659571218725354" lon="8.810729213849461"><ele>248.0</ele><time>2026-04-10T18:25:04Z</time></trkpt><trkpt lat="45.65969899309879" lon="8.810423872396624"><ele>246.5</ele><time>2026-04-10T18:25:05Z</time></trkpt><trkpt lat="45.65982647452077" lon="8.810117786211269"><ele>245.0</ele><time>2026-04-10T18:25:06Z</time></trkpt><trkpt lat="45.65995557462305" lon="8.809811719136306"><ele>245.0</ele><time>2026-04-10T18:25:07Z</time></trkpt><trkpt lat="45.66008522946952" lon="8.809504791150957"><ele>245.0</ele><time>2026-04-10T18:25:08Z</time></trkpt><trkpt lat="45.66021311762826" lon="8.809194167892882"><ele>247.0</ele><time>2026-04-10T18:25:09Z</time></trkpt><trkpt lat="45.660342289688906" lon="8.808885225199745"><ele>249.0</ele><time>2026-04-10T18:25:10Z</time></trkpt><trkpt lat="45.67097849426132" lon="8.800102353524757"><ele>249.0</ele><time>2026-04-10T18:26:11Z</time></trkpt><trkpt lat="45.67120438153674" lon="8.800166686652549"><ele>249.0</ele><time>2026-04-10T18:26:12Z</time></trkpt><trkpt lat="45.6714296636814" lon="8.800234420950957"><ele>249.0</ele><time>2026-04-10T18:26:13Z</time></trkpt><trkpt lat="45.671653212682266" lon="8.800309786926265"><ele>249.0</ele><time>2026-04-10T18:26:14Z</time></trkpt><trkpt lat="45.67187680772837" lon="8.800390751996632"><ele>249.5</ele><time>2026-04-10T18:26:15Z</time></trkpt><trkpt lat="45.67209832611771" lon="8.80048151691342"><ele>250.0</ele><time>2026-04-10T18:26:16Z</time></trkpt><trkpt lat="45.67231746762154" lon="8.800582247112274"><ele>250.0</ele><time>2026-04-10T18:26:17Z</time></trkpt><trkpt lat="45.67253517461428" lon="8.800687597540854"><ele>250.0</ele><time>2026-04-10T18:26:18Z</time></trkpt><trkpt lat="45.67275119094975" lon="8.800793379124597"><ele>250.5</ele><time>2026-04-10T18:26:19Z</time></trkpt><trkpt lat="45.67296695971605" lon="8.800895528648233"><ele>251.0</ele><time>2026-04-10T18:26:20Z</time></trkpt><trkpt lat="45.673180440727855" lon="8.800995531833145"><ele>250.66666666666669</ele><time>2026-04-10T18:26:21Z</time></trkpt><trkpt lat="45.67338611623866" lon="8.801089787979015"><ele>250.33333333333331</ele><time>2026-04-10T18:26:22Z</time></trkpt><trkpt lat="45.673578480182144" lon="8.801168966275064"><ele>250.0</ele><time>2026-04-10T18:26:23Z</time></trkpt><trkpt lat="45.67374815750629" lon="8.80122242332103"><ele>250.66666666666666</ele><time>2026-04-10T18:26:24Z</time></trkpt><trkpt lat="45.67391549472035" lon="8.80126309027052"><ele>251.33333333333331</ele><time>2026-04-10T18:26:25Z</time></trkpt><trkpt lat="45.674067981741786" lon="8.801290023031267"><ele>252.0</ele><time>2026-04-10T18:26:26Z</time></trkpt><trkpt lat="45.67423396998906" lon="8.801304317642284"><ele>252.0</ele><time>2026-04-10T18:26:27Z</time></trkpt><trkpt lat="45.67440789780082" lon="8.80129920674275"><ele>252.0</ele><time>2026-04-10T18:26:28Z</time></trkpt><trkpt lat="45.67457753910343" lon="8.801276833023085"><ele>252.0</ele><time>2026-04-10T18:26:29Z</time></trkpt><trkpt lat="45.674754341604036" lon="8.801238883998442"><ele>251.66666666666669</ele><time>2026-04-10T18:26:30Z</time></trkpt><trkpt lat="45.674933644936445" lon="8.801184142001462"><ele>251.33333333333334</ele><time>2026-04-10T18:26:31Z</time></trkpt><trkpt lat="45.67510065114637" lon="8.80111675906639"><ele>251.0</ele><time>2026-04-10T18:26:32Z</time></trkpt><trkpt lat="45.675257183852075" lon="8.801042975810628"><ele>251.33333333333334</ele><time>2026-04-10T18:26:33Z</time></trkpt><trkpt lat="45.6754240846157" lon="8.800948478275863"><ele>251.66666666666669</ele><time>2026-04-10T18:26:34Z</time></trkpt><trkpt lat="45.67559411265197" lon="8.800836308577416"><ele>252.0</ele><time>2026-04-10T18:26:35Z</time></trkpt><trkpt lat="45.67576605466992" lon="8.800701891646236"><ele>252.0</ele><time>2026-04-10T18:26:36Z</time></trkpt><trkpt lat="45.67592954323087" lon="8.800540897955091"><ele>252.0</ele><time>2026-04-10T18:26:37Z</time></trkpt><trkpt lat="45.676091947706695" lon="8.800350745257196"><ele>252.0</ele><time>2026-04-10T18:26:38Z</time></trkpt><trkpt lat="45.676251822450624" lon="8.800141978938978"><ele>252.5</ele><time>2026-04-10T18:26:39Z</time></trkpt><trkpt lat="45.676412215431384" lon="8.799916507474695"><ele>253.0</ele><time>2026-04-10T18:26:40Z</time></trkpt><trkpt lat="45.67657387381736" lon="8.799684789327904"><ele>253.0</ele><time>2026-04-10T18:26:41Z</time></trkpt><trkpt lat="45.676739014313526" lon="8.799448431773099"><ele>253.0</ele><time>2026-04-10T18:26:42Z</time></trkpt><trkpt lat="45.67690585968484" lon="8.799208727813994"><ele>253.0</ele><time>2026-04-10T18:26:43Z</time></trkpt><trkpt lat="45.67707284464405" lon="8.79897204391562"><ele>253.0</ele><time>2026-04-10T18:26:44Z</time></trkpt><trkpt lat="45.677239678994965" lon="8.79873241082647"><ele>253.0</ele><time>2026-04-10T18:26:45Z</time></trkpt><trkpt lat="45.67740417772219" lon="8.798492943667256"><ele>253.0</ele><time>2026-04-10T18:26:46Z</time></trkpt><trkpt lat="45.677571129100215" lon="8.798259643742615"><ele>253.0</ele><time>2026-04-10T18:26:47Z</time></trkpt><trkpt lat="45.677741489974316" lon="8.798030527933406"><ele>253.0</ele><time>2026-04-10T18:26:48Z</time></trkpt><trkpt lat="45.67791231681376" lon="8.797804356706306"><ele>253.5</ele><time>2026-04-10T18:26:49Z</time></trkpt><trkpt lat="45.67808340364117" lon="8.797582916266897"><ele>254.0</ele><time>2026-04-10T18:26:50Z</time></trkpt><trkpt lat="45.67825622745676" lon="8.797364378110553"><ele>254.0</ele><time>2026-04-10T18:26:51Z</time></trkpt><trkpt lat="45.67842924887694" lon="8.797148400647522"><ele>254.0</ele><time>2026-04-10T18:26:52Z</time></trkpt><trkpt lat="45.6786036135176" lon="8.796935142428596"><ele>255.0</ele><time>2026-04-10T18:26:53Z</time></trkpt><trkpt lat="45.67878028445978" lon="8.796725057920613"><ele>256.0</ele><time>2026-04-10T18:26:54Z</time></trkpt><trkpt lat="45.678959825250836" lon="8.796518461194147"><ele>256.0</ele><time>2026-04-10T18:26:55Z</time></trkpt><trkpt lat="45.67913999323807" lon="8.79631225239913"><ele>256.0</ele><time>2026-04-10T18:26:56Z</time></trkpt><trkpt lat="45.67931877664808" lon="8.79610748323743"><ele>256.0</ele><time>2026-04-10T18:26:57Z</time></trkpt><trkpt lat="45.679500827885825" lon="8.795902379850144"><ele>256.0</ele><time>2026-04-10T18:26:58Z</time></trkpt><trkpt lat="45.67968016193142" lon="8.795697809343684"><ele>256.0</ele><time>2026-04-10T18:26:59Z</time></trkpt><trkpt lat="45.67986146612519" lon="8.795493365071955"><ele>256.0</ele><time>2026-04-10T18:27:00Z</time></trkpt><trkpt lat="45.68004773531823" lon="8.795285124524467"><ele>257.0</ele><time>2026-04-10T18:27:01Z</time></trkpt><trkpt lat="45.68022899689282" lon="8.795080248379934"><ele>258.0</ele><time>2026-04-10T18:27:02Z</time></trkpt><trkpt lat="45.68041096824815" lon="8.794874891394155"><ele>258.0</ele><time>2026-04-10T18:27:03Z</time></trkpt><trkpt lat="45.680597984532945" lon="8.794671866486402"><ele>258.0</ele><time>2026-04-10T18:27:04Z</time></trkpt><trkpt lat="45.68078474236033" lon="8.794466167663385"><ele>257.5</ele><time>2026-04-10T18:27:05Z</time></trkpt><trkpt lat="45.680968855086114" lon="8.794255545086601"><ele>257.0</ele><time>2026-04-10T18:27:06Z</time></trkpt><trkpt lat="45.681152852665655" lon="8.794046994047799"><ele>258.0</ele><time>2026-04-10T18:27:07Z</time></trkpt><trkpt lat="45.68133441278008" lon="8.793838664329376"><ele>259.0</ele><time>2026-04-10T18:27:08Z</time></trkpt><trkpt lat="45.68151560250457" lon="8.793631316787776"><ele>258.0</ele><time>2026-04-10T18:27:09Z</time></trkpt><trkpt lat="45.68169535916889" lon="8.793423151250959"><ele>257.0</ele><time>2026-04-10T18:27:10Z</time></trkpt><trkpt lat="45.68851405402098" lon="8.778063568022127"><ele>259.8</ele><time>2026-04-10T18:28:11Z</time></trkpt><trkpt lat="45.68861208446968" lon="8.777922632019223"><ele>262.6</ele><time>2026-04-10T18:28:12Z</time></trkpt><trkpt lat="45.68868330187891" lon="8.777819773314713"><ele>265.40000000000003</ele><time>2026-04-10T18:28:13Z</time></trkpt><trkpt lat="45.68874622933365" lon="8.777721535871565"><ele>268.2</ele><time>2026-04-10T18:28:15Z</time></trkpt><trkpt lat="45.68876859810981" lon="8.777622076628965"><ele>271.0</ele><time>2026-04-10T18:28:17Z</time></trkpt><trkpt lat="45.68873463534895" lon="8.777538381511764"><ele>271.3333333333333</ele><time>2026-04-10T18:28:23Z</time></trkpt><trkpt lat="45.68875612472925" lon="8.777386896324849"><ele>271.66666666666663</ele><time>2026-04-10T18:28:25Z</time></trkpt><trkpt lat="45.68879366479794" lon="8.777285115531086"><ele>272.0</ele><time>2026-04-10T18:28:26Z</time></trkpt><trkpt lat="45.68882586321291" lon="8.777179092961477"><ele>272.3333333333333</ele><time>2026-04-10T18:28:27Z</time></trkpt><trkpt lat="45.68884705692401" lon="8.777091965834632"><ele>272.6666666666667</ele><time>2026-04-10T18:28:28Z</time></trkpt><trkpt lat="45.68887064102104" lon="8.777005512371373"><ele>273.0</ele><time>2026-04-10T18:28:29Z</time></trkpt><trkpt lat="45.68889296678552" lon="8.77691127799115"><ele>272.8</ele><time>2026-04-10T18:28:30Z</time></trkpt><trkpt lat="45.688928610020895" lon="8.776783053500882"><ele>272.6</ele><time>2026-04-10T18:28:32Z</time></trkpt><trkpt lat="45.68896085966788" lon="8.776699935668967"><ele>272.4</ele><time>2026-04-10T18:28:53Z</time></trkpt><trkpt lat="45.689004354853125" lon="8.776561652039682"><ele>272.2</ele><time>2026-04-10T18:28:55Z</time></trkpt><trkpt lat="45.6890447395142" lon="8.77636887940083"><ele>272.0</ele><time>2026-04-10T18:28:57Z</time></trkpt><trkpt lat="45.689068222757605" lon="8.776253832560785"><ele>272.0</ele><time>2026-04-10T18:28:58Z</time></trkpt><trkpt lat="45.6890996073676" lon="8.776104203111432"><ele>272.0</ele><time>2026-04-10T18:28:59Z</time></trkpt><trkpt lat="45.68912494704208" lon="8.775929205550367"><ele>272.0</ele><time>2026-04-10T18:29:00Z</time></trkpt><trkpt lat="45.689143484791295" lon="8.775743180405305"><ele>272.0</ele><time>2026-04-10T18:29:01Z</time></trkpt><trkpt lat="45.689159176585356" lon="8.77553345607721"><ele>272.33333333333337</ele><time>2026-04-10T18:29:02Z</time></trkpt><trkpt lat="45.68918061785459" lon="8.77530531504365"><ele>272.6666666666667</ele><time>2026-04-10T18:29:03Z</time></trkpt><trkpt lat="45.6891872558792" lon="8.775056990319833"><ele>273.0</ele><time>2026-04-10T18:29:04Z</time></trkpt><trkpt lat="45.68921148834482" lon="8.774807546288212"><ele>273.3333333333333</ele><time>2026-04-10T18:29:05Z</time></trkpt><trkpt lat="45.6892642007434" lon="8.774555099243768"><ele>273.66666666666663</ele><time>2026-04-10T18:29:06Z</time></trkpt><trkpt lat="45.689309647062736" lon="8.774290534641409"><ele>274.0</ele><time>2026-04-10T18:29:07Z</time></trkpt><trkpt lat="45.6893663974773" lon="8.774023648450822"><ele>273.66666666666663</ele><time>2026-04-10T18:29:08Z</time></trkpt><trkpt lat="45.68943179015671" lon="8.773751421771857"><ele>273.3333333333333</ele><time>2026-04-10T18:29:09Z</time></trkpt><trkpt lat="45.68950136407273" lon="8.77348171420607"><ele>273.0</ele><time>2026-04-10T18:29:10Z</time></trkpt><trkpt lat="45.694281762179585" lon="8.755530512323835"><ele>277.3333333333333</ele><time>2026-04-10T18:30:11Z</time></trkpt><trkpt lat="45.69437877228429" lon="8.755251340647627"><ele>281.66666666666663</ele><time>2026-04-10T18:30:12Z</time></trkpt><trkpt lat="45.69447982869413" lon="8.754964248197714"><ele>286.0</ele><time>2026-04-10T18:30:13Z</time></trkpt><trkpt lat="45.694583987287665" lon="8.75466996029648"><ele>286.0</ele><time>2026-04-10T18:30:14Z</time></trkpt><trkpt lat="45.69469181547715" lon="8.754373005152184"><ele>286.0</ele><time>2026-04-10T18:30:15Z</time></trkpt><trkpt lat="45.6948046990748" lon="8.754076855945812"><ele>286.0</ele><time>2026-04-10T18:30:16Z</time></trkpt><trkpt lat="45.69492922009317" lon="8.753784436846125"><ele>286.0</ele><time>2026-04-10T18:30:17Z</time></trkpt><trkpt lat="45.69505955239967" lon="8.753491825563048"><ele>286.0</ele><time>2026-04-10T18:30:18Z</time></trkpt><trkpt lat="45.69519432973024" lon="8.753192127180935"><ele>286.0</ele><time>2026-04-10T18:30:19Z</time></trkpt><trkpt lat="45.695329720263544" lon="8.7528965360969"><ele>286.0</ele><time>2026-04-10T18:30:20Z</time></trkpt><trkpt lat="45.6954605766317" lon="8.752609502497076"><ele>286.0</ele><time>2026-04-10T18:30:21Z</time></trkpt><trkpt lat="45.69559079572092" lon="8.752329696532186"><ele>286.0</ele><time>2026-04-10T18:30:22Z</time></trkpt><trkpt lat="45.69571903326997" lon="8.752053323174056"><ele>286.0</ele><time>2026-04-10T18:30:23Z</time></trkpt><trkpt lat="45.695848109278856" lon="8.75177499900031"><ele>288.5</ele><time>2026-04-10T18:30:24Z</time></trkpt><trkpt lat="45.69597521672423" lon="8.75149782886739"><ele>291.0</ele><time>2026-04-10T18:30:25Z</time></trkpt><trkpt lat="45.69610053476095" lon="8.75121829593898"><ele>293.5</ele><time>2026-04-10T18:30:26Z</time></trkpt><trkpt lat="45.69622720970268" lon="8.750938651113257"><ele>296.0</ele><time>2026-04-10T18:30:27Z</time></trkpt><trkpt lat="45.69635317576974" lon="8.75065910733556"><ele>296.0</ele><time>2026-04-10T18:30:28Z</time></trkpt><trkpt lat="45.69648037447671" lon="8.7503766120811"><ele>296.0</ele><time>2026-04-10T18:30:29Z</time></trkpt><trkpt lat="45.696607578008575" lon="8.750093567662535"><ele>297.0</ele><time>2026-04-10T18:30:30Z</time></trkpt><trkpt lat="45.696735737767774" lon="8.749809202957058"><ele>298.0</ele><time>2026-04-10T18:30:31Z</time></trkpt><trkpt lat="45.69686389391112" lon="8.74952589729087"><ele>298.5</ele><time>2026-04-10T18:30:32Z</time></trkpt><trkpt lat="45.6969933180619" lon="8.749240120219369"><ele>299.0</ele><time>2026-04-10T18:30:33Z</time></trkpt><trkpt lat="45.69712111573164" lon="8.748954193770228"><ele>299.0</ele><time>2026-04-10T18:30:34Z</time></trkpt><trkpt lat="45.697247199577525" lon="8.748667299012691"><ele>299.0</ele><time>2026-04-10T18:30:35Z</time></trkpt><trkpt lat="45.69737261721076" lon="8.748379168953885"><ele>299.0</ele><time>2026-04-10T18:30:36Z</time></trkpt><trkpt lat="45.69749761645351" lon="8.748093869036254"><ele>299.0</ele><time>2026-04-10T18:30:37Z</time></trkpt><trkpt lat="45.69762313448037" lon="8.747811907494937"><ele>298.0</ele><time>2026-04-10T18:30:38Z</time></trkpt><trkpt lat="45.697751270513045" lon="8.74753117019549"><ele>297.0</ele><time>2026-04-10T18:30:39Z</time></trkpt><trkpt lat="45.697880532934754" lon="8.7472542240144"><ele>297.0</ele><time>2026-04-10T18:30:40Z</time></trkpt><trkpt lat="45.69800939085029" lon="8.746977145924829"><ele>297.0</ele><time>2026-04-10T18:30:41Z</time></trkpt><trkpt lat="45.69813753793508" lon="8.746699042092098"><ele>296.0</ele><time>2026-04-10T18:30:42Z</time></trkpt><trkpt lat="45.69826334097836" lon="8.746420297220471"><ele>295.0</ele><time>2026-04-10T18:30:43Z</time></trkpt><trkpt lat="45.69838736723291" lon="8.746142584368345"><ele>295.5</ele><time>2026-04-10T18:30:44Z</time></trkpt><trkpt lat="45.69851045994455" lon="8.745864135259993"><ele>296.0</ele><time>2026-04-10T18:30:45Z</time></trkpt><trkpt lat="45.69863434531895" lon="8.745585670741212"><ele>297.5</ele><time>2026-04-10T18:30:46Z</time></trkpt><trkpt lat="45.69875820332135" lon="8.745307559928367"><ele>299.0</ele><time>2026-04-10T18:30:47Z</time></trkpt><trkpt lat="45.698881585280645" lon="8.745032184670203"><ele>299.0</ele><time>2026-04-10T18:30:48Z</time></trkpt><trkpt lat="45.69900910514062" lon="8.744755785218375"><ele>299.0</ele><time>2026-04-10T18:30:49Z</time></trkpt><trkpt lat="45.69913380647297" lon="8.744479320506922"><ele>299.0</ele><time>2026-04-10T18:30:50Z</time></trkpt><trkpt lat="45.69925789417713" lon="8.744201804395399"><ele>299.0</ele><time>2026-04-10T18:30:51Z</time></trkpt><trkpt lat="45.69938329401709" lon="8.743925131973223"><ele>299.5</ele><time>2026-04-10T18:30:52Z</time></trkpt><trkpt lat="45.699506589071206" lon="8.743653574943774"><ele>300.0</ele><time>2026-04-10T18:30:53Z</time></trkpt><trkpt lat="45.69962943109784" lon="8.74338121515848"><ele>300.0</ele><time>2026-04-10T18:30:54Z</time></trkpt><trkpt lat="45.69975193644801" lon="8.743108944972903"><ele>300.0</ele><time>2026-04-10T18:30:55Z</time></trkpt><trkpt lat="45.69987448051469" lon="8.742835359917974"><ele>300.5</ele><time>2026-04-10T18:30:56Z</time></trkpt><trkpt lat="45.6999953922528" lon="8.742561633528354"><ele>301.0</ele><time>2026-04-10T18:30:57Z</time></trkpt><trkpt lat="45.70011896894267" lon="8.742289455339069"><ele>301.0</ele><time>2026-04-10T18:30:58Z</time></trkpt><trkpt lat="45.700245596405075" lon="8.742018162026673"><ele>301.0</ele><time>2026-04-10T18:30:59Z</time></trkpt><trkpt lat="45.70036974327431" lon="8.74174831284076"><ele>302.66666666666663</ele><time>2026-04-10T18:31:00Z</time></trkpt><trkpt lat="45.70049152131165" lon="8.741477385079497"><ele>304.3333333333333</ele><time>2026-04-10T18:31:01Z</time></trkpt><trkpt lat="45.70061148119751" lon="8.741206645028774"><ele>306.0</ele><time>2026-04-10T18:31:02Z</time></trkpt><trkpt lat="45.70073185601884" lon="8.740934858532253"><ele>306.0</ele><time>2026-04-10T18:31:03Z</time></trkpt><trkpt lat="45.70085416379688" lon="8.740665071117604"><ele>306.0</ele><time>2026-04-10T18:31:04Z</time></trkpt><trkpt lat="45.70097592431991" lon="8.740395855455375"><ele>306.0</ele><time>2026-04-10T18:31:05Z</time></trkpt><trkpt lat="45.70109914954968" lon="8.740121506836253"><ele>308.5</ele><time>2026-04-10T18:31:06Z</time></trkpt><trkpt lat="45.70122397238447" lon="8.739845567042316"><ele>311.0</ele><time>2026-04-10T18:31:07Z</time></trkpt><trkpt lat="45.70134778288924" lon="8.739571937909327"><ele>310.0</ele><time>2026-04-10T18:31:08Z</time></trkpt><trkpt lat="45.70147261461399" lon="8.739296645064716"><ele>309.0</ele><time>2026-04-10T18:31:09Z</time></trkpt><trkpt lat="45.70159623107182" lon="8.739018786684046"><ele>299.0</ele><time>2026-04-10T18:31:10Z</time></trkpt><trkpt lat="45.70353709108672" lon="8.735352725820215"><ele>290.0</ele><time>2026-04-10T18:32:12Z</time></trkpt><trkpt lat="45.70648796951406" lon="8.72814237186683"><ele>290.0</ele><time>2026-04-10T18:35:10.999Z</time></trkpt><trkpt lat="45.70663271052147" lon="8.727816277421706"><ele>290.0</ele><time>2026-04-10T18:35:11.999Z</time></trkpt><trkpt lat="45.706779322273405" lon="8.727488434579714"><ele>290.5</ele><time>2026-04-10T18:35:12.999Z</time></trkpt><trkpt lat="45.70692299889087" lon="8.727167287033968"><ele>291.0</ele><time>2026-04-10T18:35:13.999Z</time></trkpt><trkpt lat="45.70706294005377" lon="8.726851622432322"><ele>293.0</ele><time>2026-04-10T18:35:14.999Z</time></trkpt><trkpt lat="45.707203322155" lon="8.72653651556047"><ele>295.0</ele><time>2026-04-10T18:35:15.999Z</time></trkpt><trkpt lat="45.70734790447495" lon="8.726222127723728"><ele>294.0</ele><time>2026-04-10T18:35:16.999Z</time></trkpt><trkpt lat="45.70749211647114" lon="8.725910410257743"><ele>293.0</ele><time>2026-04-10T18:35:17.999Z</time></trkpt><trkpt lat="45.70763488814975" lon="8.725598020492258"><ele>292.0</ele><time>2026-04-10T18:35:18.999Z</time></trkpt><trkpt lat="45.707772604921864" lon="8.725282906218126"><ele>291.0</ele><time>2026-04-10T18:35:19.999Z</time></trkpt><trkpt lat="45.707910141069405" lon="8.72496697958818"><ele>289.5</ele><time>2026-04-10T18:35:20.999Z</time></trkpt><trkpt lat="45.7080472910195" lon="8.724667777740478"><ele>288.0</ele><time>2026-04-10T18:35:21.999Z</time></trkpt><trkpt lat="45.70818250401643" lon="8.724383298028938"><ele>286.0</ele><time>2026-04-10T18:35:22.999Z</time></trkpt><trkpt lat="45.708311313416" lon="8.72410466673181"><ele>284.0</ele><time>2026-04-10T18:35:23.999Z</time></trkpt><trkpt lat="45.708440127842564" lon="8.723818265853877"><ele>285.5</ele><time>2026-04-10T18:35:24.999Z</time></trkpt><trkpt lat="45.70857260392329" lon="8.723520082462995"><ele>287.0</ele><time>2026-04-10T18:35:25.999Z</time></trkpt><trkpt lat="45.70870897480267" lon="8.723214828961877"><ele>284.0</ele><time>2026-04-10T18:35:26.999Z</time></trkpt><trkpt lat="45.708847414168645" lon="8.722906827638152"><ele>281.0</ele><time>2026-04-10T18:35:27.999Z</time></trkpt><trkpt lat="45.708986351780716" lon="8.72259726556581"><ele>281.0</ele><time>2026-04-10T18:35:28.999Z</time></trkpt><trkpt lat="45.70912663461317" lon="8.722284875810628"><ele>281.0</ele><time>2026-04-10T18:35:29.999Z</time></trkpt><trkpt lat="45.709268307935105" lon="8.72196995876461"><ele>282.5</ele><time>2026-04-10T18:35:31Z</time></trkpt><trkpt lat="45.70940739466218" lon="8.72166197486642"><ele>284.0</ele><time>2026-04-10T18:35:32Z</time></trkpt><trkpt lat="45.709543324590726" lon="8.721354950059672"><ele>280.0</ele><time>2026-04-10T18:35:33Z</time></trkpt><trkpt lat="45.70968112133429" lon="8.72105093624343"><ele>276.0</ele><time>2026-04-10T18:35:34Z</time></trkpt><trkpt lat="45.709819602502925" lon="8.72074198945138"><ele>276.0</ele><time>2026-04-10T18:35:35Z</time></trkpt><trkpt lat="45.70995941143719" lon="8.720430594482552"><ele>276.0</ele><time>2026-04-10T18:35:36Z</time></trkpt><trkpt lat="45.71010089402467" lon="8.720114695251823"><ele>276.5</ele><time>2026-04-10T18:35:37Z</time></trkpt><trkpt lat="45.710241204293155" lon="8.719800506336957"><ele>277.0</ele><time>2026-04-10T18:35:38Z</time></trkpt><trkpt lat="45.71037990894206" lon="8.719495034394976"><ele>276.0</ele><time>2026-04-10T18:35:39Z</time></trkpt><trkpt lat="45.71051825293674" lon="8.71919636946449"><ele>275.0</ele><time>2026-04-10T18:35:40Z</time></trkpt><trkpt lat="45.71065257330601" lon="8.718897691350215"><ele>275.0</ele><time>2026-04-10T18:35:41Z</time></trkpt><trkpt lat="45.710786523778104" lon="8.718595833173273"><ele>275.0</ele><time>2026-04-10T18:35:42Z</time></trkpt><trkpt lat="45.710921992979586" lon="8.71829113028489"><ele>274.5</ele><time>2026-04-10T18:35:43Z</time></trkpt><trkpt lat="45.711058208763475" lon="8.717982817246895"><ele>274.0</ele><time>2026-04-10T18:35:44Z</time></trkpt><trkpt lat="45.71119949750279" lon="8.717677085020727"><ele>272.5</ele><time>2026-04-10T18:35:45Z</time></trkpt><trkpt lat="45.71134128896358" lon="8.717370331208343"><ele>271.0</ele><time>2026-04-10T18:35:46Z</time></trkpt><trkpt lat="45.711483460411884" lon="8.717061552125049"><ele>270.5</ele><time>2026-04-10T18:35:46.999Z</time></trkpt><trkpt lat="45.711624527136195" lon="8.716749826812928"><ele>270.0</ele><time>2026-04-10T18:35:47.999Z</time></trkpt><trkpt lat="45.711764748564505" lon="8.716430523495545"><ele>270.0</ele><time>2026-04-10T18:35:48.999Z</time></trkpt><trkpt lat="45.71190628429441" lon="8.71611114103164"><ele>270.0</ele><time>2026-04-10T18:35:49.999Z</time></trkpt><trkpt lat="45.71204613470151" lon="8.71578732306953"><ele>266.5</ele><time>2026-04-10T18:35:50.999Z</time></trkpt><trkpt lat="45.712186042552176" lon="8.715464216874935"><ele>263.0</ele><time>2026-04-10T18:35:51.999Z</time></trkpt><trkpt lat="45.712328448718885" lon="8.715142986036094"><ele>262.0</ele><time>2026-04-10T18:35:52.999Z</time></trkpt><trkpt lat="45.71247161101222" lon="8.71482509060376"><ele>261.0</ele><time>2026-04-10T18:35:53.999Z</time></trkpt><trkpt lat="45.712617433579844" lon="8.71450878972946"><ele>259.5</ele><time>2026-04-10T18:35:54.999Z</time></trkpt><trkpt lat="45.71276473219867" lon="8.714192502203414"><ele>258.0</ele><time>2026-04-10T18:35:55.999Z</time></trkpt><trkpt lat="45.71290550658955" lon="8.71388158357764"><ele>258.0</ele><time>2026-04-10T18:35:56.999Z</time></trkpt><trkpt lat="45.71304231010485" lon="8.7135747432423"><ele>258.0</ele><time>2026-04-10T18:35:57.999Z</time></trkpt><trkpt lat="45.71317868895244" lon="8.713268400445774"><ele>261.0</ele><time>2026-04-10T18:35:58.999Z</time></trkpt><trkpt lat="45.71331242192642" lon="8.712964249384102"><ele>264.0</ele><time>2026-04-10T18:35:59.999Z</time></trkpt><trkpt lat="45.713445208278024" lon="8.712659037815731"><ele>268.0</ele><time>2026-04-10T18:36:00.999Z</time></trkpt><trkpt lat="45.71357750580547" lon="8.712357508589808"><ele>272.0</ele><time>2026-04-10T18:36:01.999Z</time></trkpt><trkpt lat="45.713710385997246" lon="8.712062706714327"><ele>271.5</ele><time>2026-04-10T18:36:02.999Z</time></trkpt><trkpt lat="45.71384280236205" lon="8.711766714629418"><ele>271.0</ele><time>2026-04-10T18:36:03.999Z</time></trkpt><trkpt lat="45.71397991546135" lon="8.7114725558591"><ele>271.0</ele><time>2026-04-10T18:36:04.999Z</time></trkpt><trkpt lat="45.714119845044074" lon="8.711182767222597"><ele>271.0</ele><time>2026-04-10T18:36:05.999Z</time></trkpt><trkpt lat="45.714263017608815" lon="8.710890699499997"><ele>272.0</ele><time>2026-04-10T18:36:06.999Z</time></trkpt><trkpt lat="45.714406067602944" lon="8.710599749194161"><ele>273.0</ele><time>2026-04-10T18:36:07.999Z</time></trkpt><trkpt lat="45.714547185997915" lon="8.71032178828495"><ele>272.0</ele><time>2026-04-10T18:36:08.999Z</time></trkpt><trkpt lat="45.714685592707106" lon="8.710041249048183"><ele>271.0</ele><time>2026-04-10T18:36:09.999Z</time></trkpt><trkpt lat="45.72025621430324" lon="8.691513944488776"><ele>267.5</ele><time>2026-04-10T18:37:11.001Z</time></trkpt><trkpt lat="45.72027257082155" lon="8.691160280216996"><ele>264.0</ele><time>2026-04-10T18:37:12.001Z</time></trkpt><trkpt lat="45.72028758637367" lon="8.690810895389191"><ele>263.5</ele><time>2026-04-10T18:37:13.001Z</time></trkpt><trkpt lat="45.720301448354036" lon="8.690459398106459"><ele>263.0</ele><time>2026-04-10T18:37:14.001Z</time></trkpt><trkpt lat="45.720314950122294" lon="8.690108705679336"><ele>263.0</ele><time>2026-04-10T18:37:15.001Z</time></trkpt><trkpt lat="45.720328672036736" lon="8.68975894228872"><ele>263.0</ele><time>2026-04-10T18:37:16.001Z</time></trkpt><trkpt lat="45.7203460498211" lon="8.689412583223666"><ele>263.5</ele><time>2026-04-10T18:37:17.001Z</time></trkpt><trkpt lat="45.72036331254475" lon="8.689059325059207"><ele>264.0</ele><time>2026-04-10T18:37:18.001Z</time></trkpt><trkpt lat="45.72038190348265" lon="8.688710679028931"><ele>270.0</ele><time>2026-04-10T18:37:19.001Z</time></trkpt><trkpt lat="45.72039771681879" lon="8.688362605149969"><ele>276.0</ele><time>2026-04-10T18:37:20.001Z</time></trkpt><trkpt lat="45.72041342244976" lon="8.688014230553291"><ele>283.0</ele><time>2026-04-10T18:37:21.001Z</time></trkpt><trkpt lat="45.72042965505677" lon="8.687665268697444"><ele>290.0</ele><time>2026-04-10T18:37:22.001Z</time></trkpt><trkpt lat="45.72044502473563" lon="8.687315987555339"><ele>290.0</ele><time>2026-04-10T18:37:23.001Z</time></trkpt><trkpt lat="45.720462084416525" lon="8.686964089983073"><ele>290.0</ele><time>2026-04-10T18:37:24.001Z</time></trkpt><trkpt lat="45.72048119702213" lon="8.68661220408676"><ele>291.0</ele><time>2026-04-10T18:37:25.001Z</time></trkpt><trkpt lat="45.72050084011453" lon="8.686274734685268"><ele>292.0</ele><time>2026-04-10T18:37:26.001Z</time></trkpt><trkpt lat="45.720518679367146" lon="8.685939716224484"><ele>285.0</ele><time>2026-04-10T18:37:27.001Z</time></trkpt><trkpt lat="45.72053611162346" lon="8.685598509356286"><ele>278.0</ele><time>2026-04-10T18:37:28.001Z</time></trkpt><trkpt lat="45.720549398979514" lon="8.685253772504195"><ele>273.0</ele><time>2026-04-10T18:37:29.001Z</time></trkpt><trkpt lat="45.72056425492056" lon="8.684908840747344"><ele>268.0</ele><time>2026-04-10T18:37:30.001Z</time></trkpt><trkpt lat="45.72057847308441" lon="8.684564558136948"><ele>269.5</ele><time>2026-04-10T18:37:31.001Z</time></trkpt><trkpt lat="45.72059648659296" lon="8.684222214037087"><ele>271.0</ele><time>2026-04-10T18:37:32.001Z</time></trkpt><trkpt lat="45.72061656343765" lon="8.683887109346092"><ele>272.5</ele><time>2026-04-10T18:37:33.001Z</time></trkpt><trkpt lat="45.7206378614074" lon="8.68355038110161"><ele>274.0</ele><time>2026-04-10T18:37:34.001Z</time></trkpt><trkpt lat="45.72065804863152" lon="8.683215187176195"><ele>274.0</ele><time>2026-04-10T18:37:35.001Z</time></trkpt><trkpt lat="45.72067865813996" lon="8.682880024334015"><ele>274.0</ele><time>2026-04-10T18:37:36.001Z</time></trkpt><trkpt lat="45.72070099683325" lon="8.6825455603682"><ele>274.0</ele><time>2026-04-10T18:37:37.001Z</time></trkpt><trkpt lat="45.72072448011669" lon="8.682210971687121"><ele>274.0</ele><time>2026-04-10T18:37:38.001Z</time></trkpt><trkpt lat="45.72074748097503" lon="8.681880531043582"><ele>274.5</ele><time>2026-04-10T18:37:39.001Z</time></trkpt><trkpt lat="45.720774576283375" lon="8.68154850603753"><ele>275.0</ele><time>2026-04-10T18:37:40.001Z</time></trkpt><trkpt lat="45.72080089833363" lon="8.681217198671336"><ele>274.5</ele><time>2026-04-10T18:37:41.001Z</time></trkpt><trkpt lat="45.72082272130044" lon="8.6808836672639"><ele>274.0</ele><time>2026-04-10T18:37:42.001Z</time></trkpt><trkpt lat="45.720844622255214" lon="8.680549266441844"><ele>274.0</ele><time>2026-04-10T18:37:43.001Z</time></trkpt><trkpt lat="45.72086667114242" lon="8.680213594140964"><ele>274.0</ele><time>2026-04-10T18:37:44.001Z</time></trkpt><trkpt lat="45.72088989853115" lon="8.679878707597704"><ele>274.0</ele><time>2026-04-10T18:37:45.001Z</time></trkpt><trkpt lat="45.720911468940585" lon="8.679538199497363"><ele>274.0</ele><time>2026-04-10T18:37:46.001Z</time></trkpt><trkpt lat="45.72093170337139" lon="8.679195556510953"><ele>274.5</ele><time>2026-04-10T18:37:47.001Z</time></trkpt><trkpt lat="45.7209514133346" lon="8.678851251463499"><ele>275.0</ele><time>2026-04-10T18:37:48.001Z</time></trkpt><trkpt lat="45.72097334941468" lon="8.678516871035356"><ele>274.0</ele><time>2026-04-10T18:37:49.001Z</time></trkpt><trkpt lat="45.72099729879392" lon="8.678180581054889"><ele>273.0</ele><time>2026-04-10T18:37:50.001Z</time></trkpt><trkpt lat="45.72101924986747" lon="8.677845598693132"><ele>272.0</ele><time>2026-04-10T18:37:51.001Z</time></trkpt><trkpt lat="45.72103907986038" lon="8.677510046025425"><ele>271.0</ele><time>2026-04-10T18:37:52.001Z</time></trkpt><trkpt lat="45.721054092993775" lon="8.677174214854173"><ele>271.5</ele><time>2026-04-10T18:37:53.001Z</time></trkpt><trkpt lat="45.72106378826512" lon="8.676835324049097"><ele>272.0</ele><time>2026-04-10T18:37:54.001Z</time></trkpt><trkpt lat="45.72106597785358" lon="8.676497908470814"><ele>270.5</ele><time>2026-04-10T18:37:55.001Z</time></trkpt><trkpt lat="45.72106401999371" lon="8.676166000935996"><ele>269.0</ele><time>2026-04-10T18:37:56.001Z</time></trkpt><trkpt lat="45.72105019156282" lon="8.675834173615373"><ele>269.0</ele><time>2026-04-10T18:37:57.001Z</time></trkpt><trkpt lat="45.721030638654305" lon="8.675494750073751"><ele>269.0</ele><time>2026-04-10T18:37:58.001Z</time></trkpt><trkpt lat="45.72100708399567" lon="8.675153436254789"><ele>269.0</ele><time>2026-04-10T18:37:59.001Z</time></trkpt><trkpt lat="45.720974600708345" lon="8.67480993898962"><ele>269.0</ele><time>2026-04-10T18:38:00.001Z</time></trkpt><trkpt lat="45.72094329135478" lon="8.6744655952188"><ele>265.5</ele><time>2026-04-10T18:38:01.001Z</time></trkpt><trkpt lat="45.72090037258623" lon="8.674123873186703"><ele>262.0</ele><time>2026-04-10T18:38:02.001Z</time></trkpt><trkpt lat="45.72085109892322" lon="8.673782800546478"><ele>261.5</ele><time>2026-04-10T18:38:03.001Z</time></trkpt><trkpt lat="45.720797879373755" lon="8.673444094294272"><ele>261.0</ele><time>2026-04-10T18:38:04.001Z</time></trkpt><trkpt lat="45.72073050361609" lon="8.673113146325603"><ele>261.0</ele><time>2026-04-10T18:38:05.001Z</time></trkpt><trkpt lat="45.72065220490947" lon="8.672778195741923"><ele>261.0</ele><time>2026-04-10T18:38:06.001Z</time></trkpt><trkpt lat="45.72056685939639" lon="8.672448621531807"><ele>259.0</ele><time>2026-04-10T18:38:07.001Z</time></trkpt><trkpt lat="45.72047862208907" lon="8.672130217632274"><ele>257.0</ele><time>2026-04-10T18:38:08.001Z</time></trkpt><trkpt lat="45.720386376203976" lon="8.67182238491277"><ele>255.5</ele><time>2026-04-10T18:38:09.001Z</time></trkpt><trkpt lat="45.72029070457706" lon="8.671508969213603"><ele>254.0</ele><time>2026-04-10T18:38:10.001Z</time></trkpt><trkpt lat="45.71025575582476" lon="8.655801244144795"><ele>224.5</ele><time>2026-04-10T18:39:11.001Z</time></trkpt><trkpt lat="45.71016915323418" lon="8.655489174858483"><ele>195.0</ele><time>2026-04-10T18:39:12.001Z</time></trkpt><trkpt lat="45.7100842331085" lon="8.655173696916682"><ele>193.0</ele><time>2026-04-10T18:39:13.001Z</time></trkpt><trkpt lat="45.70999989776245" lon="8.654847731107305"><ele>191.0</ele><time>2026-04-10T18:39:14.001Z</time></trkpt><trkpt lat="45.70991653539306" lon="8.654532940983685"><ele>194.5</ele><time>2026-04-10T18:39:15.001Z</time></trkpt><trkpt lat="45.70983115262948" lon="8.654234309196296"><ele>198.0</ele><time>2026-04-10T18:39:16.001Z</time></trkpt><trkpt lat="45.709745385034125" lon="8.653906435016234"><ele>207.0</ele><time>2026-04-10T18:39:17.001Z</time></trkpt><trkpt lat="45.709657907172534" lon="8.6536024616356"><ele>216.0</ele><time>2026-04-10T18:39:18.001Z</time></trkpt><trkpt lat="45.70956848136892" lon="8.653290856683576"><ele>216.0</ele><time>2026-04-10T18:39:19.001Z</time></trkpt><trkpt lat="45.70947221048716" lon="8.652993767920607"><ele>216.0</ele><time>2026-04-10T18:39:20.001Z</time></trkpt><trkpt lat="45.70937344381723" lon="8.652693178290464"><ele>221.0</ele><time>2026-04-10T18:39:21.001Z</time></trkpt><trkpt lat="45.70926635590684" lon="8.652389316909662"><ele>226.0</ele><time>2026-04-10T18:39:22.001Z</time></trkpt><trkpt lat="45.70915547264111" lon="8.652083464877824"><ele>227.5</ele><time>2026-04-10T18:39:23.001Z</time></trkpt><trkpt lat="45.70904659584166" lon="8.651768104634531"><ele>229.0</ele><time>2026-04-10T18:39:24.001Z</time></trkpt><trkpt lat="45.70891204896752" lon="8.651478437741654"><ele>229.0</ele><time>2026-04-10T18:39:25.001Z</time></trkpt><trkpt lat="45.70877385947825" lon="8.651196112120852"><ele>229.0</ele><time>2026-04-10T18:39:26.001Z</time></trkpt><trkpt lat="45.70863218473005" lon="8.65092872472619"><ele>229.5</ele><time>2026-04-10T18:39:27.001Z</time></trkpt><trkpt lat="45.70846948735719" lon="8.650641200748062"><ele>230.0</ele><time>2026-04-10T18:39:28.074Z</time></trkpt><trkpt lat="45.70831108090706" lon="8.650379251706456"><ele>230.0</ele><time>2026-04-10T18:39:29.072Z</time></trkpt><trkpt lat="45.70816601586146" lon="8.650150785873395"><ele>230.0</ele><time>2026-04-10T18:39:30.071Z</time></trkpt><trkpt lat="45.706527278252985" lon="8.648402512168241"><ele>231.0</ele><time>2026-04-10T18:39:33.264Z</time></trkpt><trkpt lat="45.705401464971054" lon="8.647589208836042"><ele>229.0</ele><time>2026-04-10T18:39:44.001Z</time></trkpt><trkpt lat="45.70518126503225" lon="8.64745601539432"><ele>227.0</ele><time>2026-04-10T18:39:45.001Z</time></trkpt><trkpt lat="45.70496833208938" lon="8.6473187053717"><ele>227.0</ele><time>2026-04-10T18:39:46.001Z</time></trkpt><trkpt lat="45.70474656506122" lon="8.64718701978552"><ele>227.0</ele><time>2026-04-10T18:39:47.001Z</time></trkpt><trkpt lat="45.70452680743974" lon="8.647055385387644"><ele>221.5</ele><time>2026-04-10T18:39:48.001Z</time></trkpt><trkpt lat="45.70430968489868" lon="8.646929228772146"><ele>216.0</ele><time>2026-04-10T18:39:49.001Z</time></trkpt><trkpt lat="45.704087338240775" lon="8.646807628974598"><ele>216.0</ele><time>2026-04-10T18:39:50.001Z</time></trkpt><trkpt lat="45.703870133126294" lon="8.64667848963408"><ele>216.0</ele><time>2026-04-10T18:39:51.001Z</time></trkpt><trkpt lat="45.70365300892" lon="8.646548017657542"><ele>219.0</ele><time>2026-04-10T18:39:52.001Z</time></trkpt><trkpt lat="45.703440403350534" lon="8.646401140298448"><ele>222.0</ele><time>2026-04-10T18:39:53.001Z</time></trkpt><trkpt lat="45.70324049664411" lon="8.646244119374101"><ele>223.66666666666669</ele><time>2026-04-10T18:39:54.001Z</time></trkpt><trkpt lat="45.703052117066136" lon="8.646085546423334"><ele>225.33333333333334</ele><time>2026-04-10T18:39:55.001Z</time></trkpt><trkpt lat="45.702858445145864" lon="8.645922345285872"><ele>227.0</ele><time>2026-04-10T18:39:56.001Z</time></trkpt><trkpt lat="45.702672598355626" lon="8.645744375036637"><ele>231.5</ele><time>2026-04-10T18:39:57.001Z</time></trkpt><trkpt lat="45.70249173529174" lon="8.645557407491841"><ele>236.0</ele><time>2026-04-10T18:39:58.001Z</time></trkpt><trkpt lat="45.70230524841223" lon="8.64530524829361"><ele>236.5</ele><time>2026-04-10T18:39:59.001Z</time></trkpt><trkpt lat="45.70198133651934" lon="8.644980246667902"><ele>237.0</ele><time>2026-04-10T18:40:01.001Z</time></trkpt><trkpt lat="45.701850388176574" lon="8.644728867053434"><ele>238.0</ele><time>2026-04-10T18:40:02.001Z</time></trkpt><trkpt lat="45.70167742944741" lon="8.644558851346485"><ele>239.0</ele><time>2026-04-10T18:40:03.001Z</time></trkpt><trkpt lat="45.70151012923903" lon="8.644378366166741"><ele>240.0</ele><time>2026-04-10T18:40:04.001Z</time></trkpt><trkpt lat="45.70137667309949" lon="8.644130387758947"><ele>240.0</ele><time>2026-04-10T18:40:05.073Z</time></trkpt><trkpt lat="45.70126939760621" lon="8.64391918814309"><ele>240.0</ele><time>2026-04-10T18:40:06.071Z</time></trkpt><trkpt lat="45.70116077222762" lon="8.643686884687792"><ele>240.0</ele><time>2026-04-10T18:40:07.07Z</time></trkpt><trkpt lat="45.70095446246648" lon="8.64317727901444"><ele>242.5</ele><time>2026-04-10T18:40:09.04Z</time></trkpt><trkpt lat="45.70087197199409" lon="8.642948659239195"><ele>245.0</ele><time>2026-04-10T18:40:10.036Z</time></trkpt><trkpt lat="45.69982046517425" lon="8.639234690823965"><ele>245.0</ele><time>2026-04-10T18:40:21.001Z</time></trkpt><trkpt lat="45.69973884264966" lon="8.63891863330346"><ele>245.0</ele><time>2026-04-10T18:40:22.001Z</time></trkpt><trkpt lat="45.69989048747889" lon="8.638501877837436"><ele>242.5</ele><time>2026-04-10T18:40:23.001Z</time></trkpt><trkpt lat="45.69981234740351" lon="8.638186164034318"><ele>240.0</ele><time>2026-04-10T18:40:24.001Z</time></trkpt><trkpt lat="45.69973737481881" lon="8.637875073994111"><ele>240.66666666666669</ele><time>2026-04-10T18:40:25.001Z</time></trkpt><trkpt lat="45.699658735667875" lon="8.637574600147467"><ele>241.33333333333334</ele><time>2026-04-10T18:40:26.001Z</time></trkpt><trkpt lat="45.699585765692476" lon="8.637274521513508"><ele>242.0</ele><time>2026-04-10T18:40:27.001Z</time></trkpt><trkpt lat="45.69951206389922" lon="8.636978905194965"><ele>242.66666666666669</ele><time>2026-04-10T18:40:28.001Z</time></trkpt><trkpt lat="45.69943996947572" lon="8.636682595587702"><ele>243.33333333333331</ele><time>2026-04-10T18:40:29.001Z</time></trkpt><trkpt lat="45.699368830221076" lon="8.636383480968107"><ele>244.0</ele><time>2026-04-10T18:40:30.001Z</time></trkpt><trkpt lat="45.6992999821303" lon="8.636084561681585"><ele>244.0</ele><time>2026-04-10T18:40:31.001Z</time></trkpt><trkpt lat="45.6992328838964" lon="8.63578442929766"><ele>244.0</ele><time>2026-04-10T18:40:32.001Z</time></trkpt><trkpt lat="45.69916614998436" lon="8.635485505459764"><ele>244.0</ele><time>2026-04-10T18:40:33.001Z</time></trkpt><trkpt lat="45.699096536914084" lon="8.635187613428192"><ele>244.0</ele><time>2026-04-10T18:40:34.001Z</time></trkpt><trkpt lat="45.69902662707806" lon="8.634890355867817"><ele>244.0</ele><time>2026-04-10T18:40:35.001Z</time></trkpt><trkpt lat="45.69895625379742" lon="8.634586854294486"><ele>244.0</ele><time>2026-04-10T18:40:36.001Z</time></trkpt><trkpt lat="45.69888644201813" lon="8.634273253155826"><ele>244.0</ele><time>2026-04-10T18:40:37.001Z</time></trkpt><trkpt lat="45.698816461409" lon="8.633959606474953"><ele>244.0</ele><time>2026-04-10T18:40:38.001Z</time></trkpt><trkpt lat="45.69875057414251" lon="8.633647389188155"><ele>244.5</ele><time>2026-04-10T18:40:39.001Z</time></trkpt><trkpt lat="45.69869065414199" lon="8.633332885673001"><ele>245.0</ele><time>2026-04-10T18:40:40.001Z</time></trkpt><trkpt lat="45.69863365100444" lon="8.63301661470429"><ele>246.5</ele><time>2026-04-10T18:40:41.001Z</time></trkpt><trkpt lat="45.69857901551608" lon="8.632698100986948"><ele>248.0</ele><time>2026-04-10T18:40:42.001Z</time></trkpt><trkpt lat="45.69852695368576" lon="8.632377029154114"><ele>248.0</ele><time>2026-04-10T18:40:43.001Z</time></trkpt><trkpt lat="45.698479021740695" lon="8.632048951736184"><ele>248.0</ele><time>2026-04-10T18:40:44.001Z</time></trkpt><trkpt lat="45.69843615574766" lon="8.631727111405226"><ele>246.5</ele><time>2026-04-10T18:40:45.001Z</time></trkpt><trkpt lat="45.698397831357276" lon="8.631405285595562"><ele>245.0</ele><time>2026-04-10T18:40:46.001Z</time></trkpt><trkpt lat="45.69836208856884" lon="8.631076353058189"><ele>245.0</ele><time>2026-04-10T18:40:47.001Z</time></trkpt><trkpt lat="45.69832726959638" lon="8.630744329090623"><ele>245.0</ele><time>2026-04-10T18:40:48.001Z</time></trkpt><trkpt lat="45.69829732390567" lon="8.630412907548278"><ele>245.33333333333334</ele><time>2026-04-10T18:40:49.001Z</time></trkpt><trkpt lat="45.69827028588809" lon="8.630101788022223"><ele>245.66666666666669</ele><time>2026-04-10T18:40:50.001Z</time></trkpt><trkpt lat="45.69825144250486" lon="8.629804147840703"><ele>246.0</ele><time>2026-04-10T18:40:51.001Z</time></trkpt><trkpt lat="45.69823780709654" lon="8.629500561312657"><ele>246.0</ele><time>2026-04-10T18:40:52.001Z</time></trkpt><trkpt lat="45.698223535758295" lon="8.629185381640035"><ele>246.0</ele><time>2026-04-10T18:40:53.001Z</time></trkpt><trkpt lat="45.698212487135905" lon="8.628859963022652"><ele>246.0</ele><time>2026-04-10T18:40:54.001Z</time></trkpt><trkpt lat="45.698205069805866" lon="8.628525933837366"><ele>245.5</ele><time>2026-04-10T18:40:55.001Z</time></trkpt><trkpt lat="45.698201205271594" lon="8.62818926019831"><ele>245.0</ele><time>2026-04-10T18:40:56.001Z</time></trkpt><trkpt lat="45.69820489018913" lon="8.62784968739831"><ele>245.5</ele><time>2026-04-10T18:40:57.001Z</time></trkpt><trkpt lat="45.69821129275401" lon="8.627512119903576"><ele>246.0</ele><time>2026-04-10T18:40:58.001Z</time></trkpt><trkpt lat="45.698219375386316" lon="8.627168238560696"><ele>246.5</ele><time>2026-04-10T18:40:59.001Z</time></trkpt><trkpt lat="45.69823046829239" lon="8.626822049794502"><ele>247.0</ele><time>2026-04-10T18:41:00.001Z</time></trkpt><trkpt lat="45.698245827866266" lon="8.62647349549971"><ele>248.5</ele><time>2026-04-10T18:41:01.001Z</time></trkpt><trkpt lat="45.69826437150313" lon="8.6261234886819"><ele>250.0</ele><time>2026-04-10T18:41:02.001Z</time></trkpt><trkpt lat="45.698286274504476" lon="8.625769901513111"><ele>250.0</ele><time>2026-04-10T18:41:03.001Z</time></trkpt><trkpt lat="45.698308683279556" lon="8.625412884154327"><ele>250.0</ele><time>2026-04-10T18:41:04.001Z</time></trkpt><trkpt lat="45.698332766884285" lon="8.625056492558349"><ele>248.5</ele><time>2026-04-10T18:41:05.001Z</time></trkpt><trkpt lat="45.698355638039104" lon="8.624706933841988"><ele>247.0</ele><time>2026-04-10T18:41:06.001Z</time></trkpt><trkpt lat="45.69838023798284" lon="8.62436433436156"><ele>247.0</ele><time>2026-04-10T18:41:07.001Z</time></trkpt><trkpt lat="45.69840596979055" lon="8.624035203533273"><ele>247.0</ele><time>2026-04-10T18:41:08.001Z</time></trkpt><trkpt lat="45.69842990344716" lon="8.623715237049526"><ele>247.0</ele><time>2026-04-10T18:41:09.001Z</time></trkpt><trkpt lat="45.69845738575219" lon="8.62338815140304"><ele>247.0</ele><time>2026-04-10T18:41:10.001Z</time></trkpt><trkpt lat="45.70353494685867" lon="8.603737701080968"><ele>238.0</ele><time>2026-04-10T18:42:11.001Z</time></trkpt><trkpt lat="45.7036832905719" lon="8.603458326985471"><ele>229.0</ele><time>2026-04-10T18:42:12.001Z</time></trkpt><trkpt lat="45.703829761674946" lon="8.603174380077476"><ele>229.0</ele><time>2026-04-10T18:42:13.001Z</time></trkpt><trkpt lat="45.703968576672686" lon="8.602885791413302"><ele>229.0</ele><time>2026-04-10T18:42:14.001Z</time></trkpt><trkpt lat="45.704097914649985" lon="8.602587633951279"><ele>231.5</ele><time>2026-04-10T18:42:15.001Z</time></trkpt><trkpt lat="45.70421905470999" lon="8.602280500343715"><ele>234.0</ele><time>2026-04-10T18:42:16.001Z</time></trkpt><trkpt lat="45.70432965997252" lon="8.601967446325016"><ele>229.0</ele><time>2026-04-10T18:42:17.001Z</time></trkpt><trkpt lat="45.704430755913805" lon="8.601649183086813"><ele>224.0</ele><time>2026-04-10T18:42:18.001Z</time></trkpt><trkpt lat="45.70451777368537" lon="8.60134286112179"><ele>223.33333333333334</ele><time>2026-04-10T18:42:19.001Z</time></trkpt><trkpt lat="45.70459421333684" lon="8.601046619331402"><ele>222.66666666666669</ele><time>2026-04-10T18:42:20.001Z</time></trkpt><trkpt lat="45.70467047377714" lon="8.600751833688223"><ele>222.0</ele><time>2026-04-10T18:42:21.001Z</time></trkpt><trkpt lat="45.704735569693995" lon="8.600457997634683"><ele>221.66666666666669</ele><time>2026-04-10T18:42:22.001Z</time></trkpt><trkpt lat="45.70479090109854" lon="8.600151015539021"><ele>221.33333333333334</ele><time>2026-04-10T18:42:23.001Z</time></trkpt><trkpt lat="45.70484059132379" lon="8.599843584732465"><ele>221.0</ele><time>2026-04-10T18:42:24.001Z</time></trkpt><trkpt lat="45.70488308058437" lon="8.599525881318549"><ele>222.5</ele><time>2026-04-10T18:42:25.001Z</time></trkpt><trkpt lat="45.70491452269142" lon="8.599206181450503"><ele>224.0</ele><time>2026-04-10T18:42:26.001Z</time></trkpt><trkpt lat="45.70493923504786" lon="8.598878774434553"><ele>225.0</ele><time>2026-04-10T18:42:27.001Z</time></trkpt><trkpt lat="45.70495502368292" lon="8.598552854439847"><ele>226.0</ele><time>2026-04-10T18:42:28.001Z</time></trkpt><trkpt lat="45.70496779040378" lon="8.598220901454033"><ele>226.0</ele><time>2026-04-10T18:42:29.001Z</time></trkpt><trkpt lat="45.70497238292227" lon="8.597886684369682"><ele>226.0</ele><time>2026-04-10T18:42:30.001Z</time></trkpt><trkpt lat="45.70496822472097" lon="8.597564608439738"><ele>226.5</ele><time>2026-04-10T18:42:31.001Z</time></trkpt><trkpt lat="45.704961046181495" lon="8.597238658108955"><ele>227.0</ele><time>2026-04-10T18:42:32.001Z</time></trkpt><trkpt lat="45.7049516402837" lon="8.59690860541562"><ele>227.0</ele><time>2026-04-10T18:42:33.001Z</time></trkpt><trkpt lat="45.70493313707584" lon="8.596579799124607"><ele>227.0</ele><time>2026-04-10T18:42:34.001Z</time></trkpt><trkpt lat="45.70490406734035" lon="8.596252060225375"><ele>229.0</ele><time>2026-04-10T18:42:35.001Z</time></trkpt><trkpt lat="45.70486696584629" lon="8.595925485764344"><ele>231.0</ele><time>2026-04-10T18:42:36.001Z</time></trkpt><trkpt lat="45.704827095420555" lon="8.595603059165379"><ele>236.0</ele><time>2026-04-10T18:42:37.001Z</time></trkpt><trkpt lat="45.70478088310316" lon="8.59528473191979"><ele>241.0</ele><time>2026-04-10T18:42:38.001Z</time></trkpt><trkpt lat="45.70473441781588" lon="8.594965031396132"><ele>241.0</ele><time>2026-04-10T18:42:39.001Z</time></trkpt><trkpt lat="45.704684053577495" lon="8.594644287010313"><ele>241.0</ele><time>2026-04-10T18:42:40.001Z</time></trkpt><trkpt lat="45.70463742142423" lon="8.594335625821966"><ele>242.66666666666666</ele><time>2026-04-10T18:42:41.001Z</time></trkpt><trkpt lat="45.70459185211552" lon="8.594028428074708"><ele>244.33333333333331</ele><time>2026-04-10T18:42:42.001Z</time></trkpt><trkpt lat="45.70453888670069" lon="8.593714721576154"><ele>246.0</ele><time>2026-04-10T18:42:43.001Z</time></trkpt><trkpt lat="45.70448262593544" lon="8.593406962222497"><ele>245.66666666666669</ele><time>2026-04-10T18:42:44.001Z</time></trkpt><trkpt lat="45.70442238264802" lon="8.5931027490977"><ele>245.33333333333334</ele><time>2026-04-10T18:42:45.001Z</time></trkpt><trkpt lat="45.70435504675245" lon="8.592795097677104"><ele>245.0</ele><time>2026-04-10T18:42:46.001Z</time></trkpt><trkpt lat="45.704289341834055" lon="8.592482750660793"><ele>245.0</ele><time>2026-04-10T18:42:47.001Z</time></trkpt><trkpt lat="45.70422246854951" lon="8.592163762523747"><ele>245.0</ele><time>2026-04-10T18:42:48.001Z</time></trkpt><trkpt lat="45.7041902569199" lon="8.591873711888208"><ele>245.0</ele><time>2026-04-10T18:42:49.001Z</time></trkpt><trkpt lat="45.70413276713439" lon="8.591569625567306"><ele>245.0</ele><time>2026-04-10T18:42:50.001Z</time></trkpt><trkpt lat="45.70407541289807" lon="8.59126207223264"><ele>245.0</ele><time>2026-04-10T18:42:51.001Z</time></trkpt><trkpt lat="45.70401807971046" lon="8.590954344734278"><ele>245.0</ele><time>2026-04-10T18:42:52.001Z</time></trkpt><trkpt lat="45.703961741363955" lon="8.590639641179209"><ele>244.5</ele><time>2026-04-10T18:42:53.001Z</time></trkpt><trkpt lat="45.70390860082477" lon="8.590316376911382"><ele>244.0</ele><time>2026-04-10T18:42:54.001Z</time></trkpt><trkpt lat="45.70385605910064" lon="8.589996809418805"><ele>244.0</ele><time>2026-04-10T18:42:55.001Z</time></trkpt><trkpt lat="45.703800861274374" lon="8.58967469946429"><ele>244.0</ele><time>2026-04-10T18:42:56.001Z</time></trkpt><trkpt lat="45.70374537657176" lon="8.589352213849319"><ele>243.0</ele><time>2026-04-10T18:42:57.001Z</time></trkpt><trkpt lat="45.70369247654355" lon="8.589027148430805"><ele>242.0</ele><time>2026-04-10T18:42:58.001Z</time></trkpt><trkpt lat="45.70363730584916" lon="8.58869605117288"><ele>241.0</ele><time>2026-04-10T18:42:59.001Z</time></trkpt><trkpt lat="45.703584057648705" lon="8.58836461497667"><ele>240.0</ele><time>2026-04-10T18:43:00.001Z</time></trkpt><trkpt lat="45.703533762050675" lon="8.588034534646367"><ele>239.5</ele><time>2026-04-10T18:43:01.001Z</time></trkpt><trkpt lat="45.70348541968575" lon="8.587702466322831"><ele>239.0</ele><time>2026-04-10T18:43:02.001Z</time></trkpt><trkpt lat="45.70343217078701" lon="8.587376673753754"><ele>239.0</ele><time>2026-04-10T18:43:03.001Z</time></trkpt><trkpt lat="45.70338780161233" lon="8.587055753769727"><ele>239.0</ele><time>2026-04-10T18:43:04.001Z</time></trkpt><trkpt lat="45.70334547699765" lon="8.586747194882129"><ele>239.0</ele><time>2026-04-10T18:43:05.001Z</time></trkpt><trkpt lat="45.70331236940212" lon="8.586430998473267"><ele>242.33333333333334</ele><time>2026-04-10T18:43:06.001Z</time></trkpt><trkpt lat="45.70328901600411" lon="8.586122237142737"><ele>245.66666666666669</ele><time>2026-04-10T18:43:07.001Z</time></trkpt><trkpt lat="45.70326326215595" lon="8.585810106973309"><ele>249.0</ele><time>2026-04-10T18:43:08.001Z</time></trkpt><trkpt lat="45.703236026923136" lon="8.585498307001298"><ele>247.5</ele><time>2026-04-10T18:43:09.001Z</time></trkpt><trkpt lat="45.70323826975777" lon="8.585193092277057"><ele>246.0</ele><time>2026-04-10T18:43:10.001Z</time></trkpt><trkpt lat="45.70722136041624" lon="8.565915095668302"><ele>261.6666666666667</ele><time>2026-04-10T18:44:11Z</time></trkpt><trkpt lat="45.70731660207929" lon="8.565624677087268"><ele>277.33333333333337</ele><time>2026-04-10T18:44:12Z</time></trkpt><trkpt lat="45.70741492598943" lon="8.565339186400651"><ele>293.0</ele><time>2026-04-10T18:44:13Z</time></trkpt><trkpt lat="45.707511296008086" lon="8.565055873527196"><ele>295.0</ele><time>2026-04-10T18:44:14Z</time></trkpt><trkpt lat="45.70760624498644" lon="8.56478727689325"><ele>297.0</ele><time>2026-04-10T18:44:15Z</time></trkpt><trkpt lat="45.70769695422211" lon="8.564519529931362"><ele>299.0</ele><time>2026-04-10T18:44:16Z</time></trkpt><trkpt lat="45.70778754828244" lon="8.56424725990195"><ele>299.0</ele><time>2026-04-10T18:44:17Z</time></trkpt><trkpt lat="45.70785859115279" lon="8.56395911424225"><ele>299.0</ele><time>2026-04-10T18:44:18Z</time></trkpt><trkpt lat="45.70793872176326" lon="8.563674842500426"><ele>299.0</ele><time>2026-04-10T18:44:19Z</time></trkpt><trkpt lat="45.70801911035247" lon="8.563391803212328"><ele>300.6666666666667</ele><time>2026-04-10T18:44:20Z</time></trkpt><trkpt lat="45.70809846308127" lon="8.56311692135751"><ele>302.3333333333333</ele><time>2026-04-10T18:44:21Z</time></trkpt><trkpt lat="45.7081773149187" lon="8.562845397243787"><ele>304.0</ele><time>2026-04-10T18:44:22Z</time></trkpt><trkpt lat="45.708300676022496" lon="8.56259777615731"><ele>304.0</ele><time>2026-04-10T18:44:23Z</time></trkpt><trkpt lat="45.70838420920819" lon="8.562326670972883"><ele>304.0</ele><time>2026-04-10T18:44:24Z</time></trkpt><trkpt lat="45.70846335602101" lon="8.562052767769094"><ele>304.0</ele><time>2026-04-10T18:44:25Z</time></trkpt><trkpt lat="45.70853571985512" lon="8.561775804860934"><ele>304.0</ele><time>2026-04-10T18:44:26Z</time></trkpt><trkpt lat="45.70860324238101" lon="8.561497210788122"><ele>304.0</ele><time>2026-04-10T18:44:27Z</time></trkpt><trkpt lat="45.708664810563924" lon="8.561216329766454"><ele>304.0</ele><time>2026-04-10T18:44:28Z</time></trkpt><trkpt lat="45.70872879616047" lon="8.560935983982393"><ele>304.0</ele><time>2026-04-10T18:44:29Z</time></trkpt><trkpt lat="45.7087915368598" lon="8.560654599080317"><ele>304.0</ele><time>2026-04-10T18:44:30Z</time></trkpt><trkpt lat="45.70884245754419" lon="8.560368207709633"><ele>304.0</ele><time>2026-04-10T18:44:31Z</time></trkpt><trkpt lat="45.70888764475329" lon="8.560076801149657"><ele>304.0</ele><time>2026-04-10T18:44:32Z</time></trkpt><trkpt lat="45.70892693453655" lon="8.55978231462886"><ele>304.0</ele><time>2026-04-10T18:44:33Z</time></trkpt><trkpt lat="45.708964296529956" lon="8.55948159047852"><ele>304.0</ele><time>2026-04-10T18:44:34Z</time></trkpt><trkpt lat="45.708999052837214" lon="8.559179196260672"><ele>304.66666666666663</ele><time>2026-04-10T18:44:35Z</time></trkpt><trkpt lat="45.70903190033213" lon="8.558874063750556"><ele>305.3333333333333</ele><time>2026-04-10T18:44:36Z</time></trkpt><trkpt lat="45.709056711444624" lon="8.55856726201596"><ele>306.0</ele><time>2026-04-10T18:44:37Z</time></trkpt><trkpt lat="45.709071142874684" lon="8.558254668480362"><ele>306.0</ele><time>2026-04-10T18:44:38Z</time></trkpt><trkpt lat="45.70907884802517" lon="8.557931339977399"><ele>306.0</ele><time>2026-04-10T18:44:39Z</time></trkpt><trkpt lat="45.70908683196229" lon="8.557606580946471"><ele>306.0</ele><time>2026-04-10T18:44:40Z</time></trkpt><trkpt lat="45.70909008823306" lon="8.557281039233732"><ele>306.0</ele><time>2026-04-10T18:44:41Z</time></trkpt><trkpt lat="45.70908388642253" lon="8.55696031336898"><ele>306.0</ele><time>2026-04-10T18:44:42Z</time></trkpt><trkpt lat="45.70907188618677" lon="8.556636859148997"><ele>306.0</ele><time>2026-04-10T18:44:43Z</time></trkpt><trkpt lat="45.70905516174681" lon="8.556303684486915"><ele>306.0</ele><time>2026-04-10T18:44:44Z</time></trkpt><trkpt lat="45.70903263128437" lon="8.555972549594776"><ele>306.0</ele><time>2026-04-10T18:44:45Z</time></trkpt><trkpt lat="45.70899997543748" lon="8.555641809470497"><ele>306.0</ele><time>2026-04-10T18:44:46Z</time></trkpt><trkpt lat="45.70895828170912" lon="8.555311446449807"><ele>306.0</ele><time>2026-04-10T18:44:47Z</time></trkpt><trkpt lat="45.70891153573982" lon="8.554983080531237"><ele>306.0</ele><time>2026-04-10T18:44:48Z</time></trkpt><trkpt lat="45.708862117603914" lon="8.554657961922873"><ele>306.0</ele><time>2026-04-10T18:44:49Z</time></trkpt><trkpt lat="45.708809826814836" lon="8.554332655969688"><ele>307.5</ele><time>2026-04-10T18:44:50Z</time></trkpt><trkpt lat="45.70875728810821" lon="8.554003286803134"><ele>309.0</ele><time>2026-04-10T18:44:51Z</time></trkpt><trkpt lat="45.7087048358233" lon="8.553673596413756"><ele>311.0</ele><time>2026-04-10T18:44:52Z</time></trkpt><trkpt lat="45.70865182996098" lon="8.553346895925538"><ele>313.0</ele><time>2026-04-10T18:44:53Z</time></trkpt><trkpt lat="45.70859668869601" lon="8.553036578185864"><ele>314.66666666666663</ele><time>2026-04-10T18:44:54Z</time></trkpt><trkpt lat="45.7085404508986" lon="8.552729262103473"><ele>316.3333333333333</ele><time>2026-04-10T18:44:55Z</time></trkpt><trkpt lat="45.70848529131669" lon="8.552415344481078"><ele>318.0</ele><time>2026-04-10T18:44:56Z</time></trkpt><trkpt lat="45.708436708792306" lon="8.552096336607486"><ele>318.0</ele><time>2026-04-10T18:44:57Z</time></trkpt><trkpt lat="45.70838990912124" lon="8.551777633033609"><ele>318.0</ele><time>2026-04-10T18:44:58Z</time></trkpt><trkpt lat="45.70834878828695" lon="8.551454295301252"><ele>320.0</ele><time>2026-04-10T18:44:59Z</time></trkpt><trkpt lat="45.70831181348806" lon="8.551126495272078"><ele>322.0</ele><time>2026-04-10T18:45:00Z</time></trkpt><trkpt lat="45.708285868760974" lon="8.550797792717212"><ele>322.0</ele><time>2026-04-10T18:45:01Z</time></trkpt><trkpt lat="45.7082694694798" lon="8.55046632905392"><ele>322.0</ele><time>2026-04-10T18:45:02Z</time></trkpt><trkpt lat="45.70825681335951" lon="8.550137482723882"><ele>321.5</ele><time>2026-04-10T18:45:03Z</time></trkpt><trkpt lat="45.708251082209486" lon="8.54981348163994"><ele>321.0</ele><time>2026-04-10T18:45:04Z</time></trkpt><trkpt lat="45.70825539821037" lon="8.549486477469"><ele>317.5</ele><time>2026-04-10T18:45:05Z</time></trkpt><trkpt lat="45.708269090774714" lon="8.5491604624417"><ele>314.0</ele><time>2026-04-10T18:45:06Z</time></trkpt><trkpt lat="45.70829424506804" lon="8.548836962354057"><ele>313.0</ele><time>2026-04-10T18:45:07Z</time></trkpt><trkpt lat="45.70832804557379" lon="8.548512483731113"><ele>312.0</ele><time>2026-04-10T18:45:08Z</time></trkpt><trkpt lat="45.70837174774271" lon="8.548190257404494"><ele>311.0</ele><time>2026-04-10T18:45:09Z</time></trkpt><trkpt lat="45.70842247513442" lon="8.547867699349869"><ele>310.0</ele><time>2026-04-10T18:45:10Z</time></trkpt><trkpt lat="45.71700553135436" lon="8.531944981625564"><ele>310.0</ele><time>2026-04-10T18:46:11Z</time></trkpt><trkpt lat="45.717108019698856" lon="8.531644349107026"><ele>310.0</ele><time>2026-04-10T18:46:12Z</time></trkpt><trkpt lat="45.717211533325525" lon="8.531344659005706"><ele>312.0</ele><time>2026-04-10T18:46:13Z</time></trkpt><trkpt lat="45.71731566745499" lon="8.531047134961442"><ele>314.0</ele><time>2026-04-10T18:46:14Z</time></trkpt><trkpt lat="45.717422512918695" lon="8.530749122774528"><ele>314.0</ele><time>2026-04-10T18:46:15Z</time></trkpt><trkpt lat="45.71753036534465" lon="8.53045618032531"><ele>314.0</ele><time>2026-04-10T18:46:16Z</time></trkpt><trkpt lat="45.71764133088115" lon="8.530170270783174"><ele>317.33333333333337</ele><time>2026-04-10T18:46:17Z</time></trkpt><trkpt lat="45.717744281578504" lon="8.529919699162177"><ele>320.6666666666667</ele><time>2026-04-10T18:46:18Z</time></trkpt><trkpt lat="45.71784452931562" lon="8.529676762452556"><ele>324.0</ele><time>2026-04-10T18:46:19Z</time></trkpt><trkpt lat="45.71793680262995" lon="8.529434393325818"><ele>324.6666666666667</ele><time>2026-04-10T18:46:20Z</time></trkpt><trkpt lat="45.7180255844695" lon="8.529183468452763"><ele>325.33333333333337</ele><time>2026-04-10T18:46:21Z</time></trkpt><trkpt lat="45.7181169694847" lon="8.5289317244414"><ele>326.0</ele><time>2026-04-10T18:46:22Z</time></trkpt><trkpt lat="45.718223325297856" lon="8.528696972397574"><ele>326.0</ele><time>2026-04-10T18:46:23Z</time></trkpt><trkpt lat="45.71834640214869" lon="8.528464904514808"><ele>326.0</ele><time>2026-04-10T18:46:24.071Z</time></trkpt><trkpt lat="45.7184634321094" lon="8.528252015919076"><ele>326.0</ele><time>2026-04-10T18:46:25.07Z</time></trkpt><trkpt lat="45.7185807107836" lon="8.528046167732342"><ele>326.0</ele><time>2026-04-10T18:46:26.069Z</time></trkpt><trkpt lat="45.71869840436042" lon="8.527844002918862"><ele>326.0</ele><time>2026-04-10T18:46:27.07Z</time></trkpt><trkpt lat="45.71881466446854" lon="8.527652073743335"><ele>326.0</ele><time>2026-04-10T18:46:28.058Z</time></trkpt><trkpt lat="45.71990494712549" lon="8.526247856852512"><ele>327.33333333333337</ele><time>2026-04-10T18:46:33Z</time></trkpt><trkpt lat="45.7200685091964" lon="8.526025327112158"><ele>328.6666666666667</ele><time>2026-04-10T18:46:34Z</time></trkpt><trkpt lat="45.720228665834945" lon="8.525811373329823"><ele>330.0</ele><time>2026-04-10T18:46:35Z</time></trkpt><trkpt lat="45.72040957758425" lon="8.52556906522736"><ele>331.5</ele><time>2026-04-10T18:46:36Z</time></trkpt><trkpt lat="45.720590497166675" lon="8.525356462995209"><ele>333.0</ele><time>2026-04-10T18:46:37Z</time></trkpt><trkpt lat="45.72075390237466" lon="8.525154042043429"><ele>333.0</ele><time>2026-04-10T18:46:38Z</time></trkpt><trkpt lat="45.72092657509185" lon="8.524959903726991"><ele>333.0</ele><time>2026-04-10T18:46:39Z</time></trkpt><trkpt lat="45.72109533153088" lon="8.52475515505839"><ele>333.0</ele><time>2026-04-10T18:46:40Z</time></trkpt><trkpt lat="45.72125858445225" lon="8.524549954956859"><ele>333.3333333333333</ele><time>2026-04-10T18:46:41Z</time></trkpt><trkpt lat="45.72142313014472" lon="8.524341094567536"><ele>333.66666666666663</ele><time>2026-04-10T18:46:42Z</time></trkpt><trkpt lat="45.72159202585221" lon="8.52413328071334"><ele>334.0</ele><time>2026-04-10T18:46:43Z</time></trkpt><trkpt lat="45.721764938751065" lon="8.523930145258284"><ele>333.5</ele><time>2026-04-10T18:46:44Z</time></trkpt><trkpt lat="45.72193994177535" lon="8.523730520739514"><ele>333.0</ele><time>2026-04-10T18:46:45Z</time></trkpt><trkpt lat="45.72211897619223" lon="8.523524453833389"><ele>333.0</ele><time>2026-04-10T18:46:46Z</time></trkpt><trkpt lat="45.72229937907837" lon="8.523318241342212"><ele>333.0</ele><time>2026-04-10T18:46:47Z</time></trkpt><trkpt lat="45.7224856290882" lon="8.523114693857691"><ele>333.0</ele><time>2026-04-10T18:46:48Z</time></trkpt><trkpt lat="45.72267141998172" lon="8.522911899472492"><ele>333.0</ele><time>2026-04-10T18:46:49Z</time></trkpt><trkpt lat="45.72286015767391" lon="8.522707422876303"><ele>335.0</ele><time>2026-04-10T18:46:50Z</time></trkpt><trkpt lat="45.723049864181135" lon="8.522494655892064"><ele>337.0</ele><time>2026-04-10T18:46:51Z</time></trkpt><trkpt lat="45.723237446578665" lon="8.522288427469372"><ele>337.0</ele><time>2026-04-10T18:46:52Z</time></trkpt><trkpt lat="45.723429366176205" lon="8.52207797936694"><ele>337.0</ele><time>2026-04-10T18:46:53Z</time></trkpt><trkpt lat="45.723614398572494" lon="8.52186894162695"><ele>340.5</ele><time>2026-04-10T18:46:54Z</time></trkpt><trkpt lat="45.72380218621388" lon="8.521663487019902"><ele>344.0</ele><time>2026-04-10T18:46:55Z</time></trkpt><trkpt lat="45.72398951446698" lon="8.52145392794355"><ele>344.0</ele><time>2026-04-10T18:46:56Z</time></trkpt><trkpt lat="45.724173998471734" lon="8.521242896028971"><ele>344.0</ele><time>2026-04-10T18:46:57Z</time></trkpt><trkpt lat="45.724357973510614" lon="8.521025993350754"><ele>345.0</ele><time>2026-04-10T18:46:58Z</time></trkpt><trkpt lat="45.724540606619485" lon="8.520805634839647"><ele>346.0</ele><time>2026-04-10T18:46:59Z</time></trkpt><trkpt lat="45.72472918637675" lon="8.520584797508274"><ele>348.0</ele><time>2026-04-10T18:47:00Z</time></trkpt><trkpt lat="45.72491470403" lon="8.520360799295586"><ele>350.0</ele><time>2026-04-10T18:47:01Z</time></trkpt><trkpt lat="45.72509981172725" lon="8.52013265569762"><ele>350.0</ele><time>2026-04-10T18:47:02Z</time></trkpt><trkpt lat="45.72528099754725" lon="8.519904857186168"><ele>350.0</ele><time>2026-04-10T18:47:03Z</time></trkpt><trkpt lat="45.72544768272971" lon="8.519692106016363"><ele>350.0</ele><time>2026-04-10T18:47:04Z</time></trkpt><trkpt lat="45.725610142851465" lon="8.519479595071026"><ele>350.0</ele><time>2026-04-10T18:47:05Z</time></trkpt><trkpt lat="45.72577932926113" lon="8.51926205196243"><ele>350.0</ele><time>2026-04-10T18:47:06Z</time></trkpt><trkpt lat="45.72594859915457" lon="8.519040845586387"><ele>350.0</ele><time>2026-04-10T18:47:07Z</time></trkpt><trkpt lat="45.726116185740736" lon="8.518813002346006"><ele>350.0</ele><time>2026-04-10T18:47:08Z</time></trkpt><trkpt lat="45.72628088358652" lon="8.518577896875277"><ele>349.5</ele><time>2026-04-10T18:47:09Z</time></trkpt><trkpt lat="45.72644273742032" lon="8.518337476253267"><ele>349.0</ele><time>2026-04-10T18:47:10Z</time></trkpt><trkpt lat="45.737293302912015" lon="8.504961043897477"><ele>363.0</ele><time>2026-04-10T18:48:11Z</time></trkpt><trkpt lat="45.73750836321915" lon="8.50481287555005"><ele>377.0</ele><time>2026-04-10T18:48:12Z</time></trkpt><trkpt lat="45.73772453987125" lon="8.50466653725819"><ele>380.0</ele><time>2026-04-10T18:48:13Z</time></trkpt><trkpt lat="45.737940421292095" lon="8.504527973522054"><ele>383.0</ele><time>2026-04-10T18:48:14Z</time></trkpt><trkpt lat="45.73815177491966" lon="8.504398182418317"><ele>383.0</ele><time>2026-04-10T18:48:15Z</time></trkpt><trkpt lat="45.7383492484536" lon="8.504286079717348"><ele>383.0</ele><time>2026-04-10T18:48:16Z</time></trkpt><trkpt lat="45.73853717288222" lon="8.504193903403312"><ele>383.0</ele><time>2026-04-10T18:48:17Z</time></trkpt><trkpt lat="45.738717795662986" lon="8.504114295844396"><ele>382.0</ele><time>2026-04-10T18:48:18Z</time></trkpt><trkpt lat="45.738891052391715" lon="8.504048363540516"><ele>381.0</ele><time>2026-04-10T18:48:19Z</time></trkpt><trkpt lat="45.73905532349466" lon="8.503989251791385"><ele>380.0</ele><time>2026-04-10T18:48:20Z</time></trkpt><trkpt lat="45.73921912679014" lon="8.503930967792872"><ele>380.0</ele><time>2026-04-10T18:48:21Z</time></trkpt><trkpt lat="45.73937244376833" lon="8.503885041098641"><ele>380.0</ele><time>2026-04-10T18:48:22Z</time></trkpt><trkpt lat="45.73951032903335" lon="8.503842532943345"><ele>380.0</ele><time>2026-04-10T18:48:23Z</time></trkpt><trkpt lat="45.739642437121276" lon="8.503797313937811"><ele>380.0</ele><time>2026-04-10T18:48:24Z</time></trkpt><trkpt lat="45.73976087128315" lon="8.503760811801957"><ele>379.8</ele><time>2026-04-10T18:48:25Z</time></trkpt><trkpt lat="45.73987131396615" lon="8.50372466548982"><ele>379.6</ele><time>2026-04-10T18:48:26Z</time></trkpt><trkpt lat="45.739973277287426" lon="8.503688885782273"><ele>379.4</ele><time>2026-04-10T18:48:27Z</time></trkpt><trkpt lat="45.740068844841666" lon="8.50365758692708"><ele>379.2</ele><time>2026-04-10T18:48:28Z</time></trkpt><trkpt lat="45.74015842639208" lon="8.503632587360327"><ele>379.0</ele><time>2026-04-10T18:48:29Z</time></trkpt><trkpt lat="45.74023499388111" lon="8.503607261722244"><ele>378.5</ele><time>2026-04-10T18:48:30Z</time></trkpt><trkpt lat="45.7403064002086" lon="8.503578184610658"><ele>378.0</ele><time>2026-04-10T18:48:31Z</time></trkpt><trkpt lat="45.740396036339774" lon="8.503544700830338"><ele>377.5</ele><time>2026-04-10T18:48:33Z</time></trkpt><trkpt lat="45.74046462496799" lon="8.503568671275383"><ele>377.0</ele><time>2026-04-10T18:49:31Z</time></trkpt><trkpt lat="45.74054508650258" lon="8.50355547593915"><ele>376.5</ele><time>2026-04-10T18:49:46Z</time></trkpt><trkpt lat="45.74063358382992" lon="8.503514394030745"><ele>376.0</ele><time>2026-04-10T18:49:48Z</time></trkpt><trkpt lat="45.740685574903495" lon="8.503447492655718"><ele>376.0</ele><time>2026-04-10T18:49:51Z</time></trkpt><trkpt lat="45.74077529106012" lon="8.503409798523846"><ele>376.0</ele><time>2026-04-10T18:51:18Z</time></trkpt><trkpt lat="45.74085747919156" lon="8.503379890072862"><ele>376.0</ele><time>2026-04-10T18:51:19Z</time></trkpt><trkpt lat="45.74095482830399" lon="8.503343077380219"><ele>376.0</ele><time>2026-04-10T18:51:20Z</time></trkpt><trkpt lat="45.741069084186904" lon="8.503295616020258"><ele>376.0</ele><time>2026-04-10T18:51:21Z</time></trkpt><trkpt lat="45.74116808300188" lon="8.50324273927257"><ele>376.5</ele><time>2026-04-10T18:51:22Z</time></trkpt><trkpt lat="45.74129147826525" lon="8.503207308611586"><ele>377.0</ele><time>2026-04-10T18:51:23Z</time></trkpt><trkpt lat="45.74142608746693" lon="8.503166816692703"><ele>377.5</ele><time>2026-04-10T18:51:24Z</time></trkpt><trkpt lat="45.74156315877652" lon="8.503130454770222"><ele>378.0</ele><time>2026-04-10T18:51:25Z</time></trkpt><trkpt lat="45.74171759022702" lon="8.503097122963126"><ele>378.0</ele><time>2026-04-10T18:51:26Z</time></trkpt><trkpt lat="45.741877658128445" lon="8.503064846538935"><ele>378.0</ele><time>2026-04-10T18:51:27Z</time></trkpt><trkpt lat="45.7420460968832" lon="8.503028575274396"><ele>378.0</ele><time>2026-04-10T18:51:28Z</time></trkpt><trkpt lat="45.74221489248234" lon="8.502995379398627"><ele>378.6666666666667</ele><time>2026-04-10T18:51:29Z</time></trkpt><trkpt lat="45.742394445277384" lon="8.502969613064696"><ele>379.33333333333337</ele><time>2026-04-10T18:51:30Z</time></trkpt><trkpt lat="45.742575770968415" lon="8.502946865338407"><ele>380.0</ele><time>2026-04-10T18:51:31Z</time></trkpt><trkpt lat="45.74276546972995" lon="8.50292885416536"><ele>381.0</ele><time>2026-04-10T18:51:32Z</time></trkpt><trkpt lat="45.7429626566536" lon="8.50291484142962"><ele>382.0</ele><time>2026-04-10T18:51:33Z</time></trkpt><trkpt lat="45.7431627626771" lon="8.502904709556123"><ele>383.0</ele><time>2026-04-10T18:51:34Z</time></trkpt><trkpt lat="45.743368951120715" lon="8.502895951466797"><ele>381.33333333333337</ele><time>2026-04-10T18:51:35Z</time></trkpt><trkpt lat="45.743578290697215" lon="8.502890563951178"><ele>379.6666666666667</ele><time>2026-04-10T18:51:36Z</time></trkpt><trkpt lat="45.74379321047363" lon="8.502890240661731"><ele>378.0</ele><time>2026-04-10T18:51:37Z</time></trkpt><trkpt lat="45.7440069578153" lon="8.502893149343981"><ele>378.0</ele><time>2026-04-10T18:51:38Z</time></trkpt><trkpt lat="45.744225817243965" lon="8.502896313624886"><ele>378.0</ele><time>2026-04-10T18:51:39Z</time></trkpt><trkpt lat="45.74444988384226" lon="8.502901114690346"><ele>378.0</ele><time>2026-04-10T18:51:40Z</time></trkpt><trkpt lat="45.74467745732804" lon="8.502909468534414"><ele>377.5</ele><time>2026-04-10T18:51:41Z</time></trkpt><trkpt lat="45.744908227927354" lon="8.502908908014627"><ele>377.0</ele><time>2026-04-10T18:51:42Z</time></trkpt><trkpt lat="45.74513998409414" lon="8.502905914287847"><ele>380.5</ele><time>2026-04-10T18:51:43Z</time></trkpt><trkpt lat="45.74538104211512" lon="8.502951409710706"><ele>384.0</ele><time>2026-04-10T18:51:44Z</time></trkpt><trkpt lat="45.74561482902182" lon="8.502968985577365"><ele>384.0</ele><time>2026-04-10T18:51:45Z</time></trkpt><trkpt lat="45.74584793494347" lon="8.502985740213344"><ele>384.0</ele><time>2026-04-10T18:51:46Z</time></trkpt><trkpt lat="45.74608861288219" lon="8.503007387641686"><ele>384.0</ele><time>2026-04-10T18:51:47Z</time></trkpt><trkpt lat="45.7463330825059" lon="8.503023951468741"><ele>384.0</ele><time>2026-04-10T18:51:48Z</time></trkpt><trkpt lat="45.746569350796605" lon="8.503035195718866"><ele>384.0</ele><time>2026-04-10T18:51:49Z</time></trkpt><trkpt lat="45.746803139796675" lon="8.503057777660546"><ele>384.0</ele><time>2026-04-10T18:51:50Z</time></trkpt><trkpt lat="45.74703687168891" lon="8.50307219282602"><ele>383.0</ele><time>2026-04-10T18:51:51Z</time></trkpt><trkpt lat="45.74727914160365" lon="8.503097022318668"><ele>382.0</ele><time>2026-04-10T18:51:52Z</time></trkpt><trkpt lat="45.74751899013165" lon="8.503118751434933"><ele>382.5</ele><time>2026-04-10T18:51:53Z</time></trkpt><trkpt lat="45.74776359218145" lon="8.503126503505449"><ele>383.0</ele><time>2026-04-10T18:51:54Z</time></trkpt><trkpt lat="45.748001600739826" lon="8.503139472574507"><ele>383.0</ele><time>2026-04-10T18:51:55Z</time></trkpt><trkpt lat="45.74823370903107" lon="8.503159586658217"><ele>383.0</ele><time>2026-04-10T18:51:56Z</time></trkpt><trkpt lat="45.74846796641707" lon="8.503177261330771"><ele>385.0</ele><time>2026-04-10T18:51:57Z</time></trkpt><trkpt lat="45.74870553418276" lon="8.503191512715086"><ele>387.0</ele><time>2026-04-10T18:51:58Z</time></trkpt><trkpt lat="45.748934641204805" lon="8.503211643245137"><ele>387.0</ele><time>2026-04-10T18:51:59Z</time></trkpt><trkpt lat="45.7491549407528" lon="8.503230817441427"><ele>387.0</ele><time>2026-04-10T18:52:00Z</time></trkpt><trkpt lat="45.74937941668469" lon="8.503244557601809"><ele>387.0</ele><time>2026-04-10T18:52:01Z</time></trkpt><trkpt lat="45.749604699602685" lon="8.503256524133267"><ele>386.0</ele><time>2026-04-10T18:52:02Z</time></trkpt><trkpt lat="45.74983493123255" lon="8.503271903186992"><ele>385.0</ele><time>2026-04-10T18:52:03Z</time></trkpt><trkpt lat="45.750062336271405" lon="8.503284701863375"><ele>384.6666666666667</ele><time>2026-04-10T18:52:04Z</time></trkpt><trkpt lat="45.750288915408255" lon="8.50330246899933"><ele>384.33333333333337</ele><time>2026-04-10T18:52:05Z</time></trkpt><trkpt lat="45.75050858944969" lon="8.503306528415267"><ele>384.0</ele><time>2026-04-10T18:52:06Z</time></trkpt><trkpt lat="45.750742600876976" lon="8.503314781439704"><ele>384.0</ele><time>2026-04-10T18:52:07Z</time></trkpt><trkpt lat="45.750979877607946" lon="8.503318335672143"><ele>384.0</ele><time>2026-04-10T18:52:08Z</time></trkpt><trkpt lat="45.75122310482956" lon="8.503319431423538"><ele>385.5</ele><time>2026-04-10T18:52:09Z</time></trkpt><trkpt lat="45.75147101170785" lon="8.503321224774055"><ele>387.0</ele><time>2026-04-10T18:52:10Z</time></trkpt><trkpt lat="45.76499665624063" lon="8.495687070521265"><ele>385.0</ele><time>2026-04-10T18:53:11Z</time></trkpt><trkpt lat="45.765202265742715" lon="8.495587146972472"><ele>383.0</ele><time>2026-04-10T18:53:12Z</time></trkpt><trkpt lat="45.76541182254921" lon="8.495492059939915"><ele>381.0</ele><time>2026-04-10T18:53:13Z</time></trkpt><trkpt lat="45.76562578346484" lon="8.495403288452863"><ele>375.6666666666667</ele><time>2026-04-10T18:53:14Z</time></trkpt><trkpt lat="45.765843520571586" lon="8.495322660541628"><ele>370.33333333333337</ele><time>2026-04-10T18:53:15Z</time></trkpt><trkpt lat="45.7660611597201" lon="8.495254657636574"><ele>365.0</ele><time>2026-04-10T18:53:16Z</time></trkpt><trkpt lat="45.766277089740846" lon="8.495196704128466"><ele>365.0</ele><time>2026-04-10T18:53:17Z</time></trkpt><trkpt lat="45.766488561126444" lon="8.495146404675602"><ele>365.0</ele><time>2026-04-10T18:53:18Z</time></trkpt><trkpt lat="45.76669666326324" lon="8.495096224886101"><ele>365.0</ele><time>2026-04-10T18:53:19Z</time></trkpt><trkpt lat="45.76690973132027" lon="8.49505240761901"><ele>367.0</ele><time>2026-04-10T18:53:20Z</time></trkpt><trkpt lat="45.76712359637906" lon="8.495012877458864"><ele>369.0</ele><time>2026-04-10T18:53:21Z</time></trkpt><trkpt lat="45.76733931031962" lon="8.49498143326257"><ele>371.0</ele><time>2026-04-10T18:53:22Z</time></trkpt><trkpt lat="45.767557405170685" lon="8.494965848050192"><ele>370.6666666666667</ele><time>2026-04-10T18:53:23Z</time></trkpt><trkpt lat="45.76777979905182" lon="8.494955380741846"><ele>370.3333333333333</ele><time>2026-04-10T18:53:24Z</time></trkpt><trkpt lat="45.7680044096199" lon="8.49494686861674"><ele>370.0</ele><time>2026-04-10T18:53:25Z</time></trkpt><trkpt lat="45.768229471638456" lon="8.494937754429301"><ele>370.0</ele><time>2026-04-10T18:53:26Z</time></trkpt><trkpt lat="45.76846373646535" lon="8.494931792726591"><ele>370.0</ele><time>2026-04-10T18:53:27Z</time></trkpt><trkpt lat="45.76869352869958" lon="8.494929523286304"><ele>369.3333333333333</ele><time>2026-04-10T18:53:28Z</time></trkpt><trkpt lat="45.76891834871205" lon="8.494935538663736"><ele>368.6666666666667</ele><time>2026-04-10T18:53:29Z</time></trkpt><trkpt lat="45.76913933984704" lon="8.494938591646836"><ele>368.0</ele><time>2026-04-10T18:53:30Z</time></trkpt><trkpt lat="45.769360827455436" lon="8.494950081486888"><ele>367.0</ele><time>2026-04-10T18:53:31Z</time></trkpt><trkpt lat="45.76958306714409" lon="8.494979843154441"><ele>366.0</ele><time>2026-04-10T18:53:32Z</time></trkpt><trkpt lat="45.769806947537106" lon="8.495015628880864"><ele>365.0</ele><time>2026-04-10T18:53:33Z</time></trkpt><trkpt lat="45.770030588076835" lon="8.495056612100406"><ele>364.5</ele><time>2026-04-10T18:53:34Z</time></trkpt><trkpt lat="45.77025346693471" lon="8.495107609623194"><ele>364.0</ele><time>2026-04-10T18:53:35Z</time></trkpt><trkpt lat="45.7704747621874" lon="8.495164054578536"><ele>364.0</ele><time>2026-04-10T18:53:36Z</time></trkpt><trkpt lat="45.77069865590438" lon="8.49523101074587"><ele>364.0</ele><time>2026-04-10T18:53:37Z</time></trkpt><trkpt lat="45.77092040827716" lon="8.495308682802154"><ele>365.3333333333333</ele><time>2026-04-10T18:53:38Z</time></trkpt><trkpt lat="45.77113652770238" lon="8.495393128325825"><ele>366.6666666666667</ele><time>2026-04-10T18:53:39Z</time></trkpt><trkpt lat="45.771339416734236" lon="8.495482752606145"><ele>368.0</ele><time>2026-04-10T18:53:40Z</time></trkpt><trkpt lat="45.7715375813162" lon="8.495582875902283"><ele>370.0</ele><time>2026-04-10T18:53:41Z</time></trkpt><trkpt lat="45.77172713538503" lon="8.495689223711514"><ele>372.0</ele><time>2026-04-10T18:53:42Z</time></trkpt><trkpt lat="45.77192096794293" lon="8.495801411621715"><ele>374.0</ele><time>2026-04-10T18:53:43Z</time></trkpt><trkpt lat="45.77211263936489" lon="8.495916001729018"><ele>374.0</ele><time>2026-04-10T18:53:44Z</time></trkpt><trkpt lat="45.77230184078416" lon="8.496032954561718"><ele>374.0</ele><time>2026-04-10T18:53:45Z</time></trkpt><trkpt lat="45.77249052537596" lon="8.496149547249203"><ele>374.0</ele><time>2026-04-10T18:53:46Z</time></trkpt><trkpt lat="45.772672447862" lon="8.496265405976335"><ele>373.0</ele><time>2026-04-10T18:53:47Z</time></trkpt><trkpt lat="45.77283065191297" lon="8.496341957400896"><ele>372.0</ele><time>2026-04-10T18:53:48Z</time></trkpt><trkpt lat="45.772967909820835" lon="8.496619481823197"><ele>371.0</ele><time>2026-04-10T18:53:49Z</time></trkpt><trkpt lat="45.77314991724843" lon="8.496807858721262"><ele>371.0</ele><time>2026-04-10T18:53:50Z</time></trkpt><trkpt lat="45.77332971195073" lon="8.497013866527897"><ele>371.0</ele><time>2026-04-10T18:53:51Z</time></trkpt><trkpt lat="45.773509841089385" lon="8.497223984253544"><ele>370.5</ele><time>2026-04-10T18:53:52Z</time></trkpt><trkpt lat="45.77368328500834" lon="8.4974374933254"><ele>370.0</ele><time>2026-04-10T18:53:53Z</time></trkpt><trkpt lat="45.773855004394036" lon="8.49766438923654"><ele>370.0</ele><time>2026-04-10T18:53:54Z</time></trkpt><trkpt lat="45.77402361005358" lon="8.497898396605905"><ele>370.0</ele><time>2026-04-10T18:53:55Z</time></trkpt><trkpt lat="45.77418724260751" lon="8.498147109794346"><ele>369.0</ele><time>2026-04-10T18:53:56Z</time></trkpt><trkpt lat="45.774342296285916" lon="8.498404564228569"><ele>368.0</ele><time>2026-04-10T18:53:57Z</time></trkpt><trkpt lat="45.774490432371366" lon="8.498668441839518"><ele>370.5</ele><time>2026-04-10T18:53:58Z</time></trkpt><trkpt lat="45.77463447704581" lon="8.498942325974935"><ele>373.0</ele><time>2026-04-10T18:53:59Z</time></trkpt><trkpt lat="45.77477323767827" lon="8.499221456368812"><ele>373.0</ele><time>2026-04-10T18:54:00Z</time></trkpt><trkpt lat="45.77490881781871" lon="8.499496545715228"><ele>373.0</ele><time>2026-04-10T18:54:01Z</time></trkpt><trkpt lat="45.77503674456491" lon="8.499765835794996"><ele>371.5</ele><time>2026-04-10T18:54:02Z</time></trkpt><trkpt lat="45.77516396738508" lon="8.500041790908327"><ele>370.0</ele><time>2026-04-10T18:54:03Z</time></trkpt><trkpt lat="45.7752898158508" lon="8.500324073557268"><ele>369.5</ele><time>2026-04-10T18:54:04Z</time></trkpt><trkpt lat="45.775406557697394" lon="8.500597653880346"><ele>369.0</ele><time>2026-04-10T18:54:05Z</time></trkpt><trkpt lat="45.77552355403633" lon="8.500879527139585"><ele>369.0</ele><time>2026-04-10T18:54:06Z</time></trkpt><trkpt lat="45.77563651985159" lon="8.501162393847933"><ele>369.0</ele><time>2026-04-10T18:54:07Z</time></trkpt><trkpt lat="45.775746290680516" lon="8.501442893971786"><ele>372.5</ele><time>2026-04-10T18:54:08Z</time></trkpt><trkpt lat="45.775857560505656" lon="8.501727260411178"><ele>376.0</ele><time>2026-04-10T18:54:09Z</time></trkpt><trkpt lat="45.77597586762215" lon="8.502013373871485"><ele>356.0</ele><time>2026-04-10T18:54:10Z</time></trkpt><trkpt lat="45.787979647094645" lon="8.514293127745796"><ele>356.0</ele><time>2026-04-10T18:55:11Z</time></trkpt><trkpt lat="45.788184108178605" lon="8.514481740519921"><ele>356.0</ele><time>2026-04-10T18:55:12Z</time></trkpt><trkpt lat="45.78838676785138" lon="8.514681916459555"><ele>357.0</ele><time>2026-04-10T18:55:13Z</time></trkpt><trkpt lat="45.78858678048364" lon="8.514883609101433"><ele>358.0</ele><time>2026-04-10T18:55:14Z</time></trkpt><trkpt lat="45.78878610148653" lon="8.515092422099276"><ele>358.0</ele><time>2026-04-10T18:55:15Z</time></trkpt><trkpt lat="45.78898213120277" lon="8.515307548575032"><ele>358.0</ele><time>2026-04-10T18:55:16Z</time></trkpt><trkpt lat="45.78935799715519" lon="8.515751306937123"><ele>358.5</ele><time>2026-04-10T18:55:18Z</time></trkpt><trkpt lat="45.78953735782371" lon="8.515973118401687"><ele>359.0</ele><time>2026-04-10T18:55:19Z</time></trkpt><trkpt lat="45.78971171064362" lon="8.51620664538936"><ele>364.5</ele><time>2026-04-10T18:55:20Z</time></trkpt><trkpt lat="45.789873993137064" lon="8.516439861225363"><ele>370.0</ele><time>2026-04-10T18:55:21Z</time></trkpt><trkpt lat="45.79003134149041" lon="8.516668505634403"><ele>370.3333333333333</ele><time>2026-04-10T18:55:22Z</time></trkpt><trkpt lat="45.79018932516349" lon="8.516897330742804"><ele>370.6666666666667</ele><time>2026-04-10T18:55:23Z</time></trkpt><trkpt lat="45.79034146936402" lon="8.517131551142631"><ele>371.0</ele><time>2026-04-10T18:55:24Z</time></trkpt><trkpt lat="45.79048948232599" lon="8.517369760871688"><ele>371.0</ele><time>2026-04-10T18:55:25Z</time></trkpt><trkpt lat="45.79063674628833" lon="8.517617543189935"><ele>371.0</ele><time>2026-04-10T18:55:26Z</time></trkpt><trkpt lat="45.79078128978369" lon="8.517868243735629"><ele>373.0</ele><time>2026-04-10T18:55:27Z</time></trkpt><trkpt lat="45.79092460349721" lon="8.518122388509987"><ele>375.0</ele><time>2026-04-10T18:55:28Z</time></trkpt><trkpt lat="45.79106724208414" lon="8.518380734075082"><ele>377.5</ele><time>2026-04-10T18:55:29Z</time></trkpt><trkpt lat="45.7912097254871" lon="8.518639392630302"><ele>380.0</ele><time>2026-04-10T18:55:30Z</time></trkpt><trkpt lat="45.79134773924456" lon="8.518902393805286"><ele>381.0</ele><time>2026-04-10T18:55:31Z</time></trkpt><trkpt lat="45.79148440678616" lon="8.51917041968668"><ele>382.0</ele><time>2026-04-10T18:55:32Z</time></trkpt><trkpt lat="45.79162153560554" lon="8.519438149083276"><ele>378.5</ele><time>2026-04-10T18:55:33Z</time></trkpt><trkpt lat="45.791759523652" lon="8.519705584361246"><ele>375.0</ele><time>2026-04-10T18:55:34Z</time></trkpt><trkpt lat="45.79189124504729" lon="8.519972487216064"><ele>380.5</ele><time>2026-04-10T18:55:35Z</time></trkpt><trkpt lat="45.79202724032113" lon="8.52024178848865"><ele>386.0</ele><time>2026-04-10T18:55:36Z</time></trkpt><trkpt lat="45.79215912618804" lon="8.52050802152734"><ele>386.0</ele><time>2026-04-10T18:55:37Z</time></trkpt><trkpt lat="45.792287199148284" lon="8.520771321537799"><ele>386.0</ele><time>2026-04-10T18:55:38Z</time></trkpt><trkpt lat="45.792414476091835" lon="8.521033228725685"><ele>386.0</ele><time>2026-04-10T18:55:39Z</time></trkpt><trkpt lat="45.79254325590794" lon="8.52128917593508"><ele>386.3333333333333</ele><time>2026-04-10T18:55:40Z</time></trkpt><trkpt lat="45.792668195457544" lon="8.521542802172645"><ele>386.66666666666663</ele><time>2026-04-10T18:55:41Z</time></trkpt><trkpt lat="45.792795966981124" lon="8.52179891009665"><ele>387.0</ele><time>2026-04-10T18:55:42Z</time></trkpt><trkpt lat="45.792923705063544" lon="8.522050142665089"><ele>385.3333333333333</ele><time>2026-04-10T18:55:43Z</time></trkpt><trkpt lat="45.793049437040686" lon="8.522305968817648"><ele>383.66666666666663</ele><time>2026-04-10T18:55:44Z</time></trkpt><trkpt lat="45.79318417089263" lon="8.522562282233793"><ele>382.0</ele><time>2026-04-10T18:55:45Z</time></trkpt><trkpt lat="45.79332441074916" lon="8.52282380482475"><ele>382.3333333333333</ele><time>2026-04-10T18:55:46Z</time></trkpt><trkpt lat="45.793474853003865" lon="8.52307033246258"><ele>382.6666666666667</ele><time>2026-04-10T18:55:47Z</time></trkpt><trkpt lat="45.79361632569816" lon="8.523302242474216"><ele>383.0</ele><time>2026-04-10T18:55:48Z</time></trkpt><trkpt lat="45.79376755321122" lon="8.523544406315438"><ele>384.0</ele><time>2026-04-10T18:55:49Z</time></trkpt><trkpt lat="45.79392155794272" lon="8.523787649416326"><ele>385.0</ele><time>2026-04-10T18:55:50Z</time></trkpt><trkpt lat="45.794082048075225" lon="8.524021740924896"><ele>385.0</ele><time>2026-04-10T18:55:51Z</time></trkpt><trkpt lat="45.79424332050918" lon="8.524267340374717"><ele>385.0</ele><time>2026-04-10T18:55:52Z</time></trkpt><trkpt lat="45.79441015346042" lon="8.52448872909687"><ele>385.0</ele><time>2026-04-10T18:55:53Z</time></trkpt><trkpt lat="45.794580472855536" lon="8.524702892058487"><ele>385.0</ele><time>2026-04-10T18:55:54Z</time></trkpt><trkpt lat="45.794753869205145" lon="8.524920679170267"><ele>385.0</ele><time>2026-04-10T18:55:55Z</time></trkpt><trkpt lat="45.79492704445059" lon="8.5251330487061"><ele>385.0</ele><time>2026-04-10T18:55:56Z</time></trkpt><trkpt lat="45.79509959505961" lon="8.52535466252145"><ele>388.5</ele><time>2026-04-10T18:55:57Z</time></trkpt><trkpt lat="45.7952890768172" lon="8.52555746948638"><ele>392.0</ele><time>2026-04-10T18:55:58Z</time></trkpt><trkpt lat="45.79547972180728" lon="8.52575322450856"><ele>392.0</ele><time>2026-04-10T18:55:59Z</time></trkpt><trkpt lat="45.79567707421846" lon="8.525927986710798"><ele>392.0</ele><time>2026-04-10T18:56:00Z</time></trkpt><trkpt lat="45.79587527773756" lon="8.526093148371368"><ele>394.0</ele><time>2026-04-10T18:56:01Z</time></trkpt><trkpt lat="45.79607099867777" lon="8.52626362353462"><ele>396.0</ele><time>2026-04-10T18:56:02Z</time></trkpt><trkpt lat="45.79627156980896" lon="8.526426977096548"><ele>396.0</ele><time>2026-04-10T18:56:03Z</time></trkpt><trkpt lat="45.79647077833453" lon="8.52655478348445"><ele>396.0</ele><time>2026-04-10T18:56:04Z</time></trkpt><trkpt lat="45.79667531417886" lon="8.526675606050308"><ele>396.0</ele><time>2026-04-10T18:56:05Z</time></trkpt><trkpt lat="45.7968816526813" lon="8.526796738081288"><ele>396.0</ele><time>2026-04-10T18:56:06Z</time></trkpt><trkpt lat="45.79708137276207" lon="8.52690075946653"><ele>396.0</ele><time>2026-04-10T18:56:07Z</time></trkpt><trkpt lat="45.797287349453015" lon="8.52699682734956"><ele>396.0</ele><time>2026-04-10T18:56:08Z</time></trkpt><trkpt lat="45.79749547118402" lon="8.527088000394848"><ele>394.5</ele><time>2026-04-10T18:56:09Z</time></trkpt><trkpt lat="45.797707372038005" lon="8.527168063439934"><ele>393.0</ele><time>2026-04-10T18:56:10Z</time></trkpt><trkpt lat="45.81054137298358" lon="8.53537621382874"><ele>396.0</ele><time>2026-04-10T18:57:11Z</time></trkpt><trkpt lat="45.81074531600167" lon="8.535479020512026"><ele>399.0</ele><time>2026-04-10T18:57:12Z</time></trkpt><trkpt lat="45.810954530431886" lon="8.535570856737028"><ele>402.0</ele><time>2026-04-10T18:57:13Z</time></trkpt><trkpt lat="45.8111692117303" lon="8.535658352086685"><ele>402.0</ele><time>2026-04-10T18:57:14Z</time></trkpt><trkpt lat="45.811385381394246" lon="8.535733141386343"><ele>402.0</ele><time>2026-04-10T18:57:15Z</time></trkpt><trkpt lat="45.81160261311806" lon="8.535799024711809"><ele>402.0</ele><time>2026-04-10T18:57:16Z</time></trkpt><trkpt lat="45.81182306902201" lon="8.53586090915326"><ele>416.5</ele><time>2026-04-10T18:57:17Z</time></trkpt><trkpt lat="45.81205011876435" lon="8.535908008613125"><ele>431.0</ele><time>2026-04-10T18:57:18Z</time></trkpt><trkpt lat="45.81228785042869" lon="8.535942179038678"><ele>431.0</ele><time>2026-04-10T18:57:19Z</time></trkpt><trkpt lat="45.81252271403818" lon="8.535976812530828"><ele>431.0</ele><time>2026-04-10T18:57:20Z</time></trkpt><trkpt lat="45.81274979240305" lon="8.53600299011437"><ele>436.5</ele><time>2026-04-10T18:57:21Z</time></trkpt><trkpt lat="45.812984068389035" lon="8.536022905814326"><ele>442.0</ele><time>2026-04-10T18:57:22Z</time></trkpt><trkpt lat="45.813222120134874" lon="8.53604315561426"><ele>442.0</ele><time>2026-04-10T18:57:23Z</time></trkpt><trkpt lat="45.8134651832104" lon="8.536059158307264"><ele>442.0</ele><time>2026-04-10T18:57:24Z</time></trkpt><trkpt lat="45.81372212016875" lon="8.536069224395414"><ele>442.0</ele><time>2026-04-10T18:57:25.068Z</time></trkpt><trkpt lat="45.813961349079165" lon="8.536076434324949"><ele>442.0</ele><time>2026-04-10T18:57:26.067Z</time></trkpt><trkpt lat="45.81420199757087" lon="8.536081771005156"><ele>444.5</ele><time>2026-04-10T18:57:27.068Z</time></trkpt><trkpt lat="45.81443946274312" lon="8.536087528699106"><ele>447.0</ele><time>2026-04-10T18:57:28.065Z</time></trkpt><trkpt lat="45.81467899210392" lon="8.536087823332073"><ele>447.0</ele><time>2026-04-10T18:57:29.064Z</time></trkpt><trkpt lat="45.81491299723432" lon="8.53608527358711"><ele>447.0</ele><time>2026-04-10T18:57:30.039Z</time></trkpt><trkpt lat="45.817929895794016" lon="8.5364371840829"><ele>472.0</ele><time>2026-04-10T18:57:34.266Z</time></trkpt><trkpt lat="45.81891620078036" lon="8.536523274355696"><ele>485.0</ele><time>2026-04-10T18:57:35.264Z</time></trkpt><trkpt lat="45.81990555817715" lon="8.536606497840282"><ele>505.0</ele><time>2026-04-10T18:57:36.265Z</time></trkpt><trkpt lat="45.820892123894744" lon="8.536689706849478"><ele>552.0</ele><time>2026-04-10T18:57:37.264Z</time></trkpt><trkpt lat="45.82188011524134" lon="8.536772121558277"><ele>561.0</ele><time>2026-04-10T18:57:38.264Z</time></trkpt><trkpt lat="45.82286941888827" lon="8.53685789153946"><ele>568.0</ele><time>2026-04-10T18:57:39.265Z</time></trkpt><trkpt lat="45.82385382810921" lon="8.536940452254635"><ele>580.0</ele><time>2026-04-10T18:57:40.262Z</time></trkpt><trkpt lat="45.82484534981654" lon="8.53702360948186"><ele>553.0</ele><time>2026-04-10T18:57:41.265Z</time></trkpt><trkpt lat="45.82583334236914" lon="8.537106470724924"><ele>565.0</ele><time>2026-04-10T18:57:42.265Z</time></trkpt><trkpt lat="45.82682131030656" lon="8.537189329903555"><ele>563.0</ele><time>2026-04-10T18:57:43.265Z</time></trkpt><trkpt lat="45.827809273978104" lon="8.53727264669527"><ele>563.0</ele><time>2026-04-10T18:57:44.265Z</time></trkpt><trkpt lat="45.82879501758218" lon="8.537357033394422"><ele>560.0</ele><time>2026-04-10T18:57:45.263Z</time></trkpt><trkpt lat="45.82978505938911" lon="8.537442401979408"><ele>553.0</ele><time>2026-04-10T18:57:46.265Z</time></trkpt><trkpt lat="45.83077152795381" lon="8.53752741802035"><ele>546.0</ele><time>2026-04-10T18:57:47.264Z</time></trkpt><trkpt lat="45.83175671235464" lon="8.5376106789703"><ele>527.0</ele><time>2026-04-10T18:57:48.261Z</time></trkpt><trkpt lat="45.83274770464692" lon="8.537695425839965"><ele>503.0</ele><time>2026-04-10T18:57:49.264Z</time></trkpt><trkpt lat="45.83373411190163" lon="8.53776534386707"><ele>483.0</ele><time>2026-04-10T18:57:50.262Z</time></trkpt><trkpt lat="45.834726350642654" lon="8.537809166909659"><ele>418.0</ele><time>2026-04-10T18:57:51.265Z</time></trkpt><trkpt lat="45.83978890821579" lon="8.536853077992708"><ele>418.0</ele><time>2026-04-10T18:59:11Z</time></trkpt><trkpt lat="45.840016067838306" lon="8.536721637687497"><ele>418.0</ele><time>2026-04-10T18:59:12Z</time></trkpt><trkpt lat="45.84024915828519" lon="8.536621509586457"><ele>420.0</ele><time>2026-04-10T18:59:13Z</time></trkpt><trkpt lat="45.84047289733458" lon="8.536501762344006"><ele>422.0</ele><time>2026-04-10T18:59:14Z</time></trkpt><trkpt lat="45.84068980623772" lon="8.53637902457928"><ele>422.0</ele><time>2026-04-10T18:59:15Z</time></trkpt><trkpt lat="45.84089982493524" lon="8.53625369551006"><ele>422.0</ele><time>2026-04-10T18:59:16Z</time></trkpt><trkpt lat="45.84110612943204" lon="8.536125971370206"><ele>421.0</ele><time>2026-04-10T18:59:17Z</time></trkpt><trkpt lat="45.841303659416674" lon="8.535993816823508"><ele>420.0</ele><time>2026-04-10T18:59:18Z</time></trkpt><trkpt lat="45.84151033885545" lon="8.535915917796228"><ele>419.0</ele><time>2026-04-10T18:59:19Z</time></trkpt><trkpt lat="45.84194515856509" lon="8.53586929928716"><ele>419.0</ele><time>2026-04-10T18:59:20Z</time></trkpt><trkpt lat="45.84218107144149" lon="8.535762567539882"><ele>419.0</ele><time>2026-04-10T18:59:21Z</time></trkpt><trkpt lat="45.84241500202445" lon="8.535638981635339"><ele>421.5</ele><time>2026-04-10T18:59:22Z</time></trkpt><trkpt lat="45.842664157758016" lon="8.535513529793413"><ele>424.0</ele><time>2026-04-10T18:59:23Z</time></trkpt><trkpt lat="45.84288983369372" lon="8.535395997905265"><ele>423.5</ele><time>2026-04-10T18:59:24Z</time></trkpt><trkpt lat="45.84312305692262" lon="8.535272476340992"><ele>423.0</ele><time>2026-04-10T18:59:25Z</time></trkpt><trkpt lat="45.843354333797606" lon="8.535159866482312"><ele>420.5</ele><time>2026-04-10T18:59:26Z</time></trkpt><trkpt lat="45.84358886640975" lon="8.535048697801605"><ele>418.0</ele><time>2026-04-10T18:59:27Z</time></trkpt><trkpt lat="45.84382525470217" lon="8.534939646603721"><ele>418.0</ele><time>2026-04-10T18:59:28Z</time></trkpt><trkpt lat="45.844058706806635" lon="8.534835205459164"><ele>418.0</ele><time>2026-04-10T18:59:29Z</time></trkpt><trkpt lat="45.844292546614774" lon="8.534746836892966"><ele>413.0</ele><time>2026-04-10T18:59:30Z</time></trkpt><trkpt lat="45.84452729265547" lon="8.534665048072261"><ele>408.0</ele><time>2026-04-10T18:59:31Z</time></trkpt><trkpt lat="45.84476542089781" lon="8.534585832918374"><ele>406.0</ele><time>2026-04-10T18:59:32Z</time></trkpt><trkpt lat="45.84500041682018" lon="8.534502486234345"><ele>404.0</ele><time>2026-04-10T18:59:33Z</time></trkpt><trkpt lat="45.845237742037824" lon="8.534424332469724"><ele>404.0</ele><time>2026-04-10T18:59:34Z</time></trkpt><trkpt lat="45.84547528615028" lon="8.534360897199093"><ele>404.0</ele><time>2026-04-10T18:59:35Z</time></trkpt><trkpt lat="45.84571117246318" lon="8.53429999514251"><ele>404.0</ele><time>2026-04-10T18:59:36Z</time></trkpt><trkpt lat="45.845955882863485" lon="8.534235860848508"><ele>404.0</ele><time>2026-04-10T18:59:37Z</time></trkpt><trkpt lat="45.846198109937404" lon="8.534183474112503"><ele>411.5</ele><time>2026-04-10T18:59:38Z</time></trkpt><trkpt lat="45.846439843258196" lon="8.53413804101522"><ele>419.0</ele><time>2026-04-10T18:59:39Z</time></trkpt><trkpt lat="45.84668401453021" lon="8.534100220496759"><ele>420.0</ele><time>2026-04-10T18:59:40Z</time></trkpt><trkpt lat="45.84693375195783" lon="8.534078806477464"><ele>421.0</ele><time>2026-04-10T18:59:41Z</time></trkpt><trkpt lat="45.84718992024257" lon="8.534056626072424"><ele>421.0</ele><time>2026-04-10T18:59:42Z</time></trkpt><trkpt lat="45.847438906022326" lon="8.534028444088797"><ele>421.0</ele><time>2026-04-10T18:59:43Z</time></trkpt><trkpt lat="45.84769057275475" lon="8.534009564943442"><ele>420.5</ele><time>2026-04-10T18:59:44Z</time></trkpt><trkpt lat="45.84794617183343" lon="8.534009301385947"><ele>420.0</ele><time>2026-04-10T18:59:45Z</time></trkpt><trkpt lat="45.84820162608005" lon="8.534010035469542"><ele>420.0</ele><time>2026-04-10T18:59:46Z</time></trkpt><trkpt lat="45.848454191582334" lon="8.534020509851485"><ele>420.0</ele><time>2026-04-10T18:59:47Z</time></trkpt><trkpt lat="45.848706310294" lon="8.534033158567881"><ele>421.0</ele><time>2026-04-10T18:59:48Z</time></trkpt><trkpt lat="45.84895829722581" lon="8.534048115045598"><ele>422.0</ele><time>2026-04-10T18:59:49Z</time></trkpt><trkpt lat="45.84920803620394" lon="8.534071959901127"><ele>423.0</ele><time>2026-04-10T18:59:50Z</time></trkpt><trkpt lat="45.84945285725937" lon="8.53409924868824"><ele>424.0</ele><time>2026-04-10T18:59:51Z</time></trkpt><trkpt lat="45.849697124190314" lon="8.534133658596685"><ele>424.0</ele><time>2026-04-10T18:59:52Z</time></trkpt><trkpt lat="45.849941666299124" lon="8.53417301744834"><ele>424.0</ele><time>2026-04-10T18:59:53Z</time></trkpt><trkpt lat="45.850184806841135" lon="8.534217519932797"><ele>425.5</ele><time>2026-04-10T18:59:54Z</time></trkpt><trkpt lat="45.85042212922833" lon="8.534269313941978"><ele>427.0</ele><time>2026-04-10T18:59:55Z</time></trkpt><trkpt lat="45.8506524101341" lon="8.534326636401616"><ele>427.0</ele><time>2026-04-10T18:59:56Z</time></trkpt><trkpt lat="45.850888611035366" lon="8.534393427924515"><ele>427.0</ele><time>2026-04-10T18:59:57Z</time></trkpt><trkpt lat="45.851124912567656" lon="8.534464044547143"><ele>426.5</ele><time>2026-04-10T18:59:58Z</time></trkpt><trkpt lat="45.85135912967033" lon="8.534542394130892"><ele>426.0</ele><time>2026-04-10T18:59:59Z</time></trkpt><trkpt lat="45.8515913076191" lon="8.534628224388802"><ele>428.5</ele><time>2026-04-10T19:00:00Z</time></trkpt><trkpt lat="45.85182359154148" lon="8.53471608111426"><ele>431.0</ele><time>2026-04-10T19:00:01Z</time></trkpt><trkpt lat="45.85204823775753" lon="8.534796871342982"><ele>431.0</ele><time>2026-04-10T19:00:02Z</time></trkpt><trkpt lat="45.852268737700804" lon="8.534883724199732"><ele>431.0</ele><time>2026-04-10T19:00:03Z</time></trkpt><trkpt lat="45.852485244017565" lon="8.53498494215533"><ele>432.5</ele><time>2026-04-10T19:00:04Z</time></trkpt><trkpt lat="45.85270405279654" lon="8.535094178211315"><ele>434.0</ele><time>2026-04-10T19:00:05Z</time></trkpt><trkpt lat="45.852927098385265" lon="8.53520618808445"><ele>434.0</ele><time>2026-04-10T19:00:06Z</time></trkpt><trkpt lat="45.85314363605359" lon="8.535317909075095"><ele>434.0</ele><time>2026-04-10T19:00:07Z</time></trkpt><trkpt lat="45.85336064745678" lon="8.535436570142911"><ele>434.5</ele><time>2026-04-10T19:00:08Z</time></trkpt><trkpt lat="45.85357833919569" lon="8.535563912108048"><ele>435.0</ele><time>2026-04-10T19:00:09Z</time></trkpt><trkpt lat="45.85379529401166" lon="8.535700250920174"><ele>450.0</ele><time>2026-04-10T19:00:10Z</time></trkpt><trkpt lat="45.87482526003775" lon="8.533767821632972"><ele>430.0</ele><time>2026-04-10T19:01:21.264Z</time></trkpt><trkpt lat="45.87515637130064" lon="8.532431672452942"><ele>444.0</ele><time>2026-04-10T19:01:22.266Z</time></trkpt><trkpt lat="45.87535072115098" lon="8.531048510253521"><ele>443.0</ele><time>2026-04-10T19:01:23.262Z</time></trkpt><trkpt lat="45.875427535934406" lon="8.529632071753442"><ele>415.0</ele><time>2026-04-10T19:01:24.266Z</time></trkpt><trkpt lat="45.87540923009774" lon="8.528215569316483"><ele>478.0</ele><time>2026-04-10T19:01:25.266Z</time></trkpt><trkpt lat="45.875393442026166" lon="8.525384368784287"><ele>491.0</ele><time>2026-04-10T19:01:27.266Z</time></trkpt><trkpt lat="45.8755565956487" lon="8.523990356712707"><ele>471.0</ele><time>2026-04-10T19:01:28.264Z</time></trkpt><trkpt lat="45.87587255695496" lon="8.522652007415013"><ele>412.0</ele><time>2026-04-10T19:01:29.262Z</time></trkpt><trkpt lat="45.876329460255135" lon="8.521396399839736"><ele>428.0</ele><time>2026-04-10T19:01:30.262Z</time></trkpt><trkpt lat="45.87692337125207" lon="8.520259489618217"><ele>454.0</ele><time>2026-04-10T19:01:31.266Z</time></trkpt><trkpt lat="45.8776299840974" lon="8.51927879545344"><ele>458.0</ele><time>2026-04-10T19:01:32.261Z</time></trkpt><trkpt lat="45.87844183980312" lon="8.518459552060724"><ele>475.0</ele><time>2026-04-10T19:01:33.266Z</time></trkpt><trkpt lat="45.879323802187876" lon="8.517830716871146"><ele>437.0</ele><time>2026-04-10T19:01:34.262Z</time></trkpt><trkpt lat="45.880248645477565" lon="8.517331996867295"><ele>392.0</ele><time>2026-04-10T19:01:35.261Z</time></trkpt><trkpt lat="45.88118871699873" lon="8.516889454778653"><ele>408.0</ele><time>2026-04-10T19:01:36.261Z</time></trkpt><trkpt lat="45.88213133637126" lon="8.516453117259234"><ele>456.0</ele><time>2026-04-10T19:01:37.262Z</time></trkpt><trkpt lat="45.883073275226074" lon="8.516013687816255"><ele>444.0</ele><time>2026-04-10T19:01:38.263Z</time></trkpt><trkpt lat="45.884014026349725" lon="8.515560628096909"><ele>448.0</ele><time>2026-04-10T19:01:39.266Z</time></trkpt><trkpt lat="45.88494042131658" lon="8.515078238851816"><ele>452.0</ele><time>2026-04-10T19:01:40.262Z</time></trkpt><trkpt lat="45.88586701691734" lon="8.514565067959063"><ele>417.0</ele><time>2026-04-10T19:01:41.266Z</time></trkpt><trkpt lat="45.88678438392812" lon="8.514042045176474"><ele>413.0</ele><time>2026-04-10T19:01:42.263Z</time></trkpt><trkpt lat="45.887706375108756" lon="8.513518206120086"><ele>395.0</ele><time>2026-04-10T19:01:43.266Z</time></trkpt><trkpt lat="45.88862167292564" lon="8.51299645638914"><ele>397.0</ele><time>2026-04-10T19:01:44.261Z</time></trkpt><trkpt lat="45.88954229339761" lon="8.512473338785288"><ele>409.0</ele><time>2026-04-10T19:01:45.262Z</time></trkpt><trkpt lat="45.890463751502146" lon="8.511949538183009"><ele>382.0</ele><time>2026-04-10T19:01:46.264Z</time></trkpt><trkpt lat="45.89138210101124" lon="8.511424607073014"><ele>363.0</ele><time>2026-04-10T19:01:47.263Z</time></trkpt><trkpt lat="45.892304305487464" lon="8.51089914792285"><ele>402.0</ele><time>2026-04-10T19:01:48.266Z</time></trkpt><trkpt lat="45.87537905255342" lon="8.527259502664677"><ele>414.0</ele><time>2026-04-10T19:02:04Z</time></trkpt><trkpt lat="45.87539295128106" lon="8.526670848665887"><ele>426.0</ele><time>2026-04-10T19:02:06Z</time></trkpt><trkpt lat="45.87538908141874" lon="8.52632030653873"><ele>443.5</ele><time>2026-04-10T19:02:07Z</time></trkpt><trkpt lat="45.87538140316645" lon="8.525974620878749"><ele>461.0</ele><time>2026-04-10T19:02:08Z</time></trkpt><trkpt lat="45.87537954402347" lon="8.525628739350546"><ele>437.0</ele><time>2026-04-10T19:02:09Z</time></trkpt><trkpt lat="45.88010394202808" lon="8.517403362566954"><ele>392.0</ele><time>2026-04-10T19:02:21.266Z</time></trkpt><trkpt lat="45.88104326266638" lon="8.516957298331954"><ele>408.0</ele><time>2026-04-10T19:02:22.266Z</time></trkpt><trkpt lat="45.88198497140534" lon="8.51652158244935"><ele>395.0</ele><time>2026-04-10T19:02:23.266Z</time></trkpt><trkpt lat="45.876692986373065" lon="8.520711885278008"><ele>386.5</ele><time>2026-04-10T19:02:24Z</time></trkpt><trkpt lat="45.87684027278381" lon="8.520426895182649"><ele>378.0</ele><time>2026-04-10T19:02:25Z</time></trkpt><trkpt lat="45.8770027131165" lon="8.520150186516982"><ele>403.0</ele><time>2026-04-10T19:02:26Z</time></trkpt><trkpt lat="45.877160204210654" lon="8.51990163210019"><ele>428.0</ele><time>2026-04-10T19:02:27Z</time></trkpt><trkpt lat="45.877577220930334" lon="8.519326763956425"><ele>441.0</ele><time>2026-04-10T19:02:29Z</time></trkpt><trkpt lat="45.87777720586193" lon="8.519050848983092"><ele>454.0</ele><time>2026-04-10T19:02:30Z</time></trkpt><trkpt lat="45.87797559887994" lon="8.518775203525902"><ele>456.0</ele><time>2026-04-10T19:02:31Z</time></trkpt><trkpt lat="45.87821685390802" lon="8.518547554008952"><ele>458.0</ele><time>2026-04-10T19:02:32.067Z</time></trkpt><trkpt lat="45.87844392660104" lon="8.518347903890584"><ele>458.0</ele><time>2026-04-10T19:02:33.067Z</time></trkpt><trkpt lat="45.8786780685798" lon="8.518161082459127"><ele>458.0</ele><time>2026-04-10T19:02:34.066Z</time></trkpt><trkpt lat="45.88058986634892" lon="8.5171700520844"><ele>408.0</ele><time>2026-04-10T19:02:37.266Z</time></trkpt><trkpt lat="45.88247185845891" lon="8.516294985957018"><ele>456.0</ele><time>2026-04-10T19:02:39.265Z</time></trkpt><trkpt lat="45.88341309720184" lon="8.515854583265762"><ele>448.0</ele><time>2026-04-10T19:02:40.266Z</time></trkpt><trkpt lat="45.88434431668586" lon="8.515393445933007"><ele>433.0</ele><time>2026-04-10T19:02:41.261Z</time></trkpt><trkpt lat="45.88527179768861" lon="8.514899626684175"><ele>439.0</ele><time>2026-04-10T19:02:42.261Z</time></trkpt><trkpt lat="45.88619433250717" lon="8.514378209461468"><ele>417.0</ele><time>2026-04-10T19:02:43.263Z</time></trkpt><trkpt lat="45.887116164642" lon="8.513853650693537"><ele>413.0</ele><time>2026-04-10T19:02:44.266Z</time></trkpt><trkpt lat="45.888035728838545" lon="8.513329910499637"><ele>416.0</ele><time>2026-04-10T19:02:45.266Z</time></trkpt><trkpt lat="45.88895418459466" lon="8.512807515655311"><ele>397.0</ele><time>2026-04-10T19:02:46.264Z</time></trkpt><trkpt lat="45.88987465143451" lon="8.512284485348744"><ele>408.0</ele><time>2026-04-10T19:02:47.265Z</time></trkpt><trkpt lat="45.88179017345317" lon="8.516612412938558"><ele>408.0</ele><time>2026-04-10T19:02:48Z</time></trkpt><trkpt lat="45.88201621967373" lon="8.516507526892777"><ele>408.0</ele><time>2026-04-10T19:02:49Z</time></trkpt><trkpt lat="45.882312499702145" lon="8.516396276350207"><ele>439.0</ele><time>2026-04-10T19:02:50Z</time></trkpt><trkpt lat="45.886115155561924" lon="8.514547659823192"><ele>354.0</ele><time>2026-04-10T19:03:08.931Z</time></trkpt><trkpt lat="45.89336722933021" lon="8.510363692651094"><ele>346.0</ele><time>2026-04-10T19:03:34Z</time></trkpt><trkpt lat="45.89360848682576" lon="8.510228698821102"><ele>338.0</ele><time>2026-04-10T19:03:35Z</time></trkpt><trkpt lat="45.89384353144108" lon="8.510062979630819"><ele>338.0</ele><time>2026-04-10T19:03:36Z</time></trkpt><trkpt lat="45.894070022330304" lon="8.509921996373262"><ele>338.0</ele><time>2026-04-10T19:03:37Z</time></trkpt><trkpt lat="45.89429488645174" lon="8.50977825499838"><ele>340.0</ele><time>2026-04-10T19:03:38Z</time></trkpt><trkpt lat="45.894512820153395" lon="8.509631336686594"><ele>342.0</ele><time>2026-04-10T19:03:39Z</time></trkpt><trkpt lat="45.89473250018103" lon="8.509462057207301"><ele>342.0</ele><time>2026-04-10T19:03:40Z</time></trkpt><trkpt lat="45.89495432402948" lon="8.509283647753106"><ele>342.0</ele><time>2026-04-10T19:03:41Z</time></trkpt><trkpt lat="45.89517856315726" lon="8.509108562443455"><ele>342.0</ele><time>2026-04-10T19:03:42Z</time></trkpt><trkpt lat="45.895393928555535" lon="8.508905885847634"><ele>342.0</ele><time>2026-04-10T19:03:43Z</time></trkpt><trkpt lat="45.89559802919109" lon="8.508682713295023"><ele>342.0</ele><time>2026-04-10T19:03:44Z</time></trkpt><trkpt lat="45.895804357052725" lon="8.508452511935594"><ele>342.0</ele><time>2026-04-10T19:03:45Z</time></trkpt><trkpt lat="45.896013576166936" lon="8.508201298715827"><ele>337.5</ele><time>2026-04-10T19:03:46Z</time></trkpt><trkpt lat="45.89618920945327" lon="8.50796417211463"><ele>333.0</ele><time>2026-04-10T19:03:47Z</time></trkpt><trkpt lat="45.89636819496397" lon="8.507708921070144"><ele>333.0</ele><time>2026-04-10T19:03:48Z</time></trkpt><trkpt lat="45.89654613280564" lon="8.50742785712585"><ele>333.0</ele><time>2026-04-10T19:03:49Z</time></trkpt><trkpt lat="45.89671623415275" lon="8.507155826733905"><ele>331.0</ele><time>2026-04-10T19:03:50Z</time></trkpt><trkpt lat="45.89687858326049" lon="8.506882817329629"><ele>329.0</ele><time>2026-04-10T19:03:51Z</time></trkpt><trkpt lat="45.897030863536024" lon="8.506599765927309"><ele>329.0</ele><time>2026-04-10T19:03:52Z</time></trkpt><trkpt lat="45.89715778774775" lon="8.506324739505349"><ele>329.0</ele><time>2026-04-10T19:03:53Z</time></trkpt><trkpt lat="45.897281023580874" lon="8.506040624205196"><ele>328.6666666666667</ele><time>2026-04-10T19:03:54Z</time></trkpt><trkpt lat="45.89739771455139" lon="8.505769670815921"><ele>328.3333333333333</ele><time>2026-04-10T19:03:55Z</time></trkpt><trkpt lat="45.89750742494454" lon="8.505492215862786"><ele>328.0</ele><time>2026-04-10T19:03:56Z</time></trkpt><trkpt lat="45.8976117036649" lon="8.505203822124951"><ele>328.0</ele><time>2026-04-10T19:03:57Z</time></trkpt><trkpt lat="45.89770606702666" lon="8.504904231906314"><ele>328.0</ele><time>2026-04-10T19:03:58Z</time></trkpt><trkpt lat="45.89779706053054" lon="8.504602767887377"><ele>329.5</ele><time>2026-04-10T19:03:59Z</time></trkpt><trkpt lat="45.89787665658401" lon="8.504300041482002"><ele>331.0</ele><time>2026-04-10T19:04:00Z</time></trkpt><trkpt lat="45.89794473035317" lon="8.503980507259522"><ele>336.5</ele><time>2026-04-10T19:04:01Z</time></trkpt><trkpt lat="45.89800963316338" lon="8.50365896341931"><ele>342.0</ele><time>2026-04-10T19:04:02Z</time></trkpt><trkpt lat="45.898063416285616" lon="8.503351061938492"><ele>342.0</ele><time>2026-04-10T19:04:03Z</time></trkpt><trkpt lat="45.89811079675632" lon="8.503043763740253"><ele>342.0</ele><time>2026-04-10T19:04:04Z</time></trkpt><trkpt lat="45.89815460766109" lon="8.502735663557747"><ele>342.0</ele><time>2026-04-10T19:04:05Z</time></trkpt><trkpt lat="45.89819826537911" lon="8.502431837041614"><ele>346.6666666666667</ele><time>2026-04-10T19:04:06Z</time></trkpt><trkpt lat="45.8982622018136" lon="8.502134226159027"><ele>351.33333333333337</ele><time>2026-04-10T19:04:07Z</time></trkpt><trkpt lat="45.8983271565525" lon="8.501816780747541"><ele>356.0</ele><time>2026-04-10T19:04:08.069Z</time></trkpt><trkpt lat="45.898390894499535" lon="8.50152488140926"><ele>363.5</ele><time>2026-04-10T19:04:09.064Z</time></trkpt><trkpt lat="45.89845987302253" lon="8.501236991090058"><ele>371.0</ele><time>2026-04-10T19:04:10.064Z</time></trkpt><trkpt lat="45.902953495472886" lon="8.49437658053363"><ele>391.0</ele><time>2026-04-10T19:04:21.266Z</time></trkpt><trkpt lat="45.90363068545748" lon="8.49374071772437"><ele>364.0</ele><time>2026-04-10T19:04:22.266Z</time></trkpt><trkpt lat="45.90430912180073" lon="8.493109911673168"><ele>377.0</ele><time>2026-04-10T19:04:23.265Z</time></trkpt><trkpt lat="45.90498664280113" lon="8.492472547859302"><ele>367.0</ele><time>2026-04-10T19:04:24.266Z</time></trkpt><trkpt lat="45.90566476389047" lon="8.491838678372536"><ele>372.0</ele><time>2026-04-10T19:04:25.266Z</time></trkpt><trkpt lat="45.90634301114331" lon="8.491205123398823"><ele>348.0</ele><time>2026-04-10T19:04:26.266Z</time></trkpt><trkpt lat="45.907022601377726" lon="8.490574521202495"><ele>345.0</ele><time>2026-04-10T19:04:27.266Z</time></trkpt><trkpt lat="45.90769977227075" lon="8.489938611071793"><ele>364.0</ele><time>2026-04-10T19:04:28.266Z</time></trkpt><trkpt lat="45.908374378418394" lon="8.489306391016077"><ele>334.0</ele><time>2026-04-10T19:04:29.261Z</time></trkpt><trkpt lat="45.909731337679226" lon="8.488038535216125"><ele>326.0</ele><time>2026-04-10T19:04:31.262Z</time></trkpt><trkpt lat="45.91041972320239" lon="8.487419921991584"><ele>384.0</ele><time>2026-04-10T19:04:32.266Z</time></trkpt><trkpt lat="45.9084692699452" lon="8.486499168038739"><ele>384.0</ele><time>2026-04-10T19:05:03Z</time></trkpt><trkpt lat="45.908701798911615" lon="8.48628032741441"><ele>384.0</ele><time>2026-04-10T19:05:04Z</time></trkpt><trkpt lat="45.909942234491304" lon="8.485116872735961"><ele>374.5</ele><time>2026-04-10T19:05:09Z</time></trkpt><trkpt lat="45.910185526392866" lon="8.484908436809063"><ele>365.0</ele><time>2026-04-10T19:05:10Z</time></trkpt><trkpt lat="45.91298287963295" lon="8.484730328018323"><ele>344.5</ele><time>2026-04-10T19:05:20Z</time></trkpt><trkpt lat="45.91327039372861" lon="8.484711163153268"><ele>324.0</ele><time>2026-04-10T19:05:21Z</time></trkpt><trkpt lat="45.913566387962085" lon="8.484711037443278"><ele>318.0</ele><time>2026-04-10T19:05:22Z</time></trkpt><trkpt lat="45.91391752583886" lon="8.484832443443047"><ele>312.0</ele><time>2026-04-10T19:05:23Z</time></trkpt><trkpt lat="45.914257652159144" lon="8.484919502067394"><ele>310.5</ele><time>2026-04-10T19:05:24Z</time></trkpt><trkpt lat="45.91462628979407" lon="8.48504565787284"><ele>309.0</ele><time>2026-04-10T19:05:25Z</time></trkpt><trkpt lat="45.914917791357524" lon="8.485063770310163"><ele>309.0</ele><time>2026-04-10T19:05:26Z</time></trkpt><trkpt lat="45.91519305906149" lon="8.485054052963958"><ele>309.0</ele><time>2026-04-10T19:05:27Z</time></trkpt><trkpt lat="45.91483057581327" lon="8.485010829247292"><ele>305.5</ele><time>2026-04-10T19:05:28Z</time></trkpt><trkpt lat="45.91508574902092" lon="8.48496736223682"><ele>302.0</ele><time>2026-04-10T19:05:29Z</time></trkpt><trkpt lat="45.91534586473258" lon="8.48493227256094"><ele>302.0</ele><time>2026-04-10T19:05:30Z</time></trkpt><trkpt lat="45.91561959262258" lon="8.484903582826647"><ele>302.0</ele><time>2026-04-10T19:05:31Z</time></trkpt><trkpt lat="45.915886916646684" lon="8.484883794943904"><ele>298.5</ele><time>2026-04-10T19:05:32Z</time></trkpt><trkpt lat="45.916156706124085" lon="8.484873951841047"><ele>295.0</ele><time>2026-04-10T19:05:33Z</time></trkpt><trkpt lat="45.91642806242645" lon="8.484876989067745"><ele>295.0</ele><time>2026-04-10T19:05:34Z</time></trkpt><trkpt lat="45.91669433367696" lon="8.484886739637734"><ele>295.0</ele><time>2026-04-10T19:05:35Z</time></trkpt><trkpt lat="45.916969929461104" lon="8.484908351269477"><ele>293.0</ele><time>2026-04-10T19:05:36Z</time></trkpt><trkpt lat="45.91721921165738" lon="8.484931886447498"><ele>291.0</ele><time>2026-04-10T19:05:37Z</time></trkpt><trkpt lat="45.91740270188959" lon="8.484954125873324"><ele>289.0</ele><time>2026-04-10T19:05:38Z</time></trkpt><trkpt lat="45.91760578097003" lon="8.484979282175455"><ele>288.3333333333333</ele><time>2026-04-10T19:05:39Z</time></trkpt><trkpt lat="45.91779608859245" lon="8.485003643546248"><ele>287.6666666666667</ele><time>2026-04-10T19:05:40Z</time></trkpt><trkpt lat="45.917986216719825" lon="8.485027982751893"><ele>287.0</ele><time>2026-04-10T19:05:41Z</time></trkpt><trkpt lat="45.91818772539377" lon="8.485053602071414"><ele>287.0</ele><time>2026-04-10T19:05:42Z</time></trkpt><trkpt lat="45.918399802154134" lon="8.485080565136272"><ele>287.0</ele><time>2026-04-10T19:05:43Z</time></trkpt><trkpt lat="45.91863427549525" lon="8.48510689953874"><ele>287.0</ele><time>2026-04-10T19:05:44Z</time></trkpt><trkpt lat="45.91884702712222" lon="8.485127054217475"><ele>284.0</ele><time>2026-04-10T19:05:45Z</time></trkpt><trkpt lat="45.91921529078034" lon="8.485147879158012"><ele>281.0</ele><time>2026-04-10T19:05:46Z</time></trkpt><trkpt lat="45.91948265906992" lon="8.4851519617136"><ele>280.5</ele><time>2026-04-10T19:05:47Z</time></trkpt><trkpt lat="45.919759233908124" lon="8.485141875560329"><ele>280.0</ele><time>2026-04-10T19:05:48Z</time></trkpt><trkpt lat="45.920023890119715" lon="8.485114981506426"><ele>278.0</ele><time>2026-04-10T19:05:49Z</time></trkpt><trkpt lat="45.920289704087764" lon="8.485073515936953"><ele>276.0</ele><time>2026-04-10T19:05:50Z</time></trkpt><trkpt lat="45.920555753872634" lon="8.48501632390644"><ele>276.0</ele><time>2026-04-10T19:05:51Z</time></trkpt><trkpt lat="45.920829437000016" lon="8.484934299602198"><ele>276.0</ele><time>2026-04-10T19:05:52Z</time></trkpt><trkpt lat="45.92110532222783" lon="8.484834973717165"><ele>274.5</ele><time>2026-04-10T19:05:53Z</time></trkpt><trkpt lat="45.92135435539843" lon="8.4847278235224"><ele>273.0</ele><time>2026-04-10T19:05:54Z</time></trkpt><trkpt lat="45.92161195964807" lon="8.484596239584546"><ele>274.5</ele><time>2026-04-10T19:05:55Z</time></trkpt><trkpt lat="45.92185622945475" lon="8.484454327177863"><ele>276.0</ele><time>2026-04-10T19:05:56Z</time></trkpt><trkpt lat="45.92210164395998" lon="8.484289294682956"><ele>276.0</ele><time>2026-04-10T19:05:57Z</time></trkpt><trkpt lat="45.922329235768736" lon="8.484117778488933"><ele>276.0</ele><time>2026-04-10T19:05:58Z</time></trkpt><trkpt lat="45.922548203179566" lon="8.483938218991218"><ele>276.0</ele><time>2026-04-10T19:05:59Z</time></trkpt><trkpt lat="45.922806755269086" lon="8.483699644194127"><ele>276.0</ele><time>2026-04-10T19:06:00Z</time></trkpt><trkpt lat="45.9232135630589" lon="8.483238776321429"><ele>268.0</ele><time>2026-04-10T19:06:02.07Z</time></trkpt><trkpt lat="45.92345059760408" lon="8.483118004478328"><ele>260.0</ele><time>2026-04-10T19:06:03.058Z</time></trkpt><trkpt lat="45.92366051067592" lon="8.482947249508756"><ele>264.0</ele><time>2026-04-10T19:06:04.06Z</time></trkpt><trkpt lat="45.92382329477702" lon="8.482716428850429"><ele>268.0</ele><time>2026-04-10T19:06:05.052Z</time></trkpt><trkpt lat="45.92505505284094" lon="8.479886834163743"><ele>252.33333333333331</ele><time>2026-04-10T19:06:14Z</time></trkpt><trkpt lat="45.925121448996364" lon="8.479591916278702"><ele>236.66666666666669</ele><time>2026-04-10T19:06:15Z</time></trkpt><trkpt lat="45.92519627459233" lon="8.479297641400647"><ele>221.0</ele><time>2026-04-10T19:06:16Z</time></trkpt><trkpt lat="45.925268042251936" lon="8.479003207634637"><ele>220.0</ele><time>2026-04-10T19:06:17Z</time></trkpt><trkpt lat="45.925339330685986" lon="8.478718048596985"><ele>219.0</ele><time>2026-04-10T19:06:18Z</time></trkpt><trkpt lat="45.92540945110945" lon="8.47844497132757"><ele>218.0</ele><time>2026-04-10T19:06:19Z</time></trkpt><trkpt lat="45.92548683492646" lon="8.478173901574287"><ele>217.33333333333334</ele><time>2026-04-10T19:06:20Z</time></trkpt><trkpt lat="45.925558155520534" lon="8.477915634589069"><ele>216.66666666666669</ele><time>2026-04-10T19:06:21Z</time></trkpt><trkpt lat="45.925646974980715" lon="8.477658977091867"><ele>216.0</ele><time>2026-04-10T19:06:22Z</time></trkpt><trkpt lat="45.925740620107" lon="8.477391426913655"><ele>216.0</ele><time>2026-04-10T19:06:23Z</time></trkpt><trkpt lat="45.92583748080197" lon="8.477100033377042"><ele>216.0</ele><time>2026-04-10T19:06:24Z</time></trkpt><trkpt lat="45.92594866093445" lon="8.476794808331336"><ele>215.0</ele><time>2026-04-10T19:06:25Z</time></trkpt><trkpt lat="45.92605940724993" lon="8.476512000506183"><ele>214.0</ele><time>2026-04-10T19:06:26Z</time></trkpt><trkpt lat="45.92617676424744" lon="8.476246424389487"><ele>213.0</ele><time>2026-04-10T19:06:27Z</time></trkpt><trkpt lat="45.9262970729688" lon="8.47598640368678"><ele>213.0</ele><time>2026-04-10T19:06:28Z</time></trkpt><trkpt lat="45.92643429644102" lon="8.475724746861532"><ele>213.0</ele><time>2026-04-10T19:06:29Z</time></trkpt><trkpt lat="45.926582369362016" lon="8.475456866345363"><ele>207.5</ele><time>2026-04-10T19:06:30Z</time></trkpt><trkpt lat="45.92673100447321" lon="8.475196101100972"><ele>202.0</ele><time>2026-04-10T19:06:31Z</time></trkpt><trkpt lat="45.92689909848637" lon="8.474933226298532"><ele>202.0</ele><time>2026-04-10T19:06:32Z</time></trkpt><trkpt lat="45.92700459373303" lon="8.474821507269606"><ele>202.0</ele><time>2026-04-10T19:06:33Z</time></trkpt><trkpt lat="45.92719101952238" lon="8.47455479011799"><ele>202.0</ele><time>2026-04-10T19:06:34Z</time></trkpt><trkpt lat="45.92738015748649" lon="8.474306647224958"><ele>201.0</ele><time>2026-04-10T19:06:35Z</time></trkpt><trkpt lat="45.92757761544285" lon="8.474064422872944"><ele>200.0</ele><time>2026-04-10T19:06:36Z</time></trkpt><trkpt lat="45.92778982130381" lon="8.473816916047905"><ele>200.0</ele><time>2026-04-10T19:06:37Z</time></trkpt><trkpt lat="45.928007860454805" lon="8.473528741043632"><ele>200.0</ele><time>2026-04-10T19:06:38Z</time></trkpt><trkpt lat="45.92823041511081" lon="8.47332268990702"><ele>199.5</ele><time>2026-04-10T19:06:39Z</time></trkpt><trkpt lat="45.928431602362565" lon="8.473091977174672"><ele>199.0</ele><time>2026-04-10T19:06:40Z</time></trkpt><trkpt lat="45.928623171709944" lon="8.472880946409646"><ele>199.0</ele><time>2026-04-10T19:06:41Z</time></trkpt><trkpt lat="45.92880575204275" lon="8.472681726098683"><ele>199.0</ele><time>2026-04-10T19:06:42Z</time></trkpt><trkpt lat="45.92898831468881" lon="8.472484790912231"><ele>199.0</ele><time>2026-04-10T19:06:43Z</time></trkpt><trkpt lat="45.92917739226666" lon="8.472274693212897"><ele>199.0</ele><time>2026-04-10T19:06:44Z</time></trkpt><trkpt lat="45.92935909454471" lon="8.472060992829528"><ele>198.5</ele><time>2026-04-10T19:06:45Z</time></trkpt><trkpt lat="45.92954131930707" lon="8.471842110869005"><ele>198.0</ele><time>2026-04-10T19:06:46Z</time></trkpt><trkpt lat="45.92972365147933" lon="8.471610532075461"><ele>198.0</ele><time>2026-04-10T19:06:47Z</time></trkpt><trkpt lat="45.92990044352861" lon="8.471371706519257"><ele>198.0</ele><time>2026-04-10T19:06:48Z</time></trkpt><trkpt lat="45.93007532012719" lon="8.471120931559007"><ele>199.0</ele><time>2026-04-10T19:06:49Z</time></trkpt><trkpt lat="45.93024805750227" lon="8.470858968295543"><ele>200.0</ele><time>2026-04-10T19:06:50Z</time></trkpt><trkpt lat="45.9304210975584" lon="8.470593090749526"><ele>201.5</ele><time>2026-04-10T19:06:51Z</time></trkpt><trkpt lat="45.93058192622793" lon="8.470321487342755"><ele>203.0</ele><time>2026-04-10T19:06:52Z</time></trkpt><trkpt lat="45.93074092310278" lon="8.47004112270433"><ele>202.5</ele><time>2026-04-10T19:06:53Z</time></trkpt><trkpt lat="45.93089337723776" lon="8.469758099645457"><ele>202.0</ele><time>2026-04-10T19:06:54Z</time></trkpt><trkpt lat="45.93104380685624" lon="8.469468523093733"><ele>202.0</ele><time>2026-04-10T19:06:55Z</time></trkpt><trkpt lat="45.931190692374294" lon="8.46917757209659"><ele>202.0</ele><time>2026-04-10T19:06:56Z</time></trkpt><trkpt lat="45.931327320267094" lon="8.468885404015534"><ele>202.0</ele><time>2026-04-10T19:06:57Z</time></trkpt><trkpt lat="45.9314587254906" lon="8.46858296456858"><ele>202.0</ele><time>2026-04-10T19:06:58Z</time></trkpt><trkpt lat="45.93158742812024" lon="8.468275059001401"><ele>202.0</ele><time>2026-04-10T19:06:59Z</time></trkpt><trkpt lat="45.93171332394783" lon="8.467956746835707"><ele>202.0</ele><time>2026-04-10T19:07:00Z</time></trkpt><trkpt lat="45.93183892279127" lon="8.46763431484428"><ele>200.5</ele><time>2026-04-10T19:07:01Z</time></trkpt><trkpt lat="45.931963772444035" lon="8.46731377100765"><ele>199.0</ele><time>2026-04-10T19:07:02Z</time></trkpt><trkpt lat="45.9320861217772" lon="8.466991048678421"><ele>199.0</ele><time>2026-04-10T19:07:03Z</time></trkpt><trkpt lat="45.93220116415343" lon="8.466672874150282"><ele>199.0</ele><time>2026-04-10T19:07:04Z</time></trkpt><trkpt lat="45.93231130236069" lon="8.46634717222507"><ele>199.0</ele><time>2026-04-10T19:07:05Z</time></trkpt><trkpt lat="45.932415129540836" lon="8.466018958087785"><ele>199.0</ele><time>2026-04-10T19:07:06Z</time></trkpt><trkpt lat="45.93251059054095" lon="8.46568628739523"><ele>199.5</ele><time>2026-04-10T19:07:07Z</time></trkpt><trkpt lat="45.93260226890949" lon="8.465355834330976"><ele>200.0</ele><time>2026-04-10T19:07:08Z</time></trkpt><trkpt lat="45.932695793598235" lon="8.465026158980374"><ele>200.0</ele><time>2026-04-10T19:07:09Z</time></trkpt><trkpt lat="45.93278814678513" lon="8.4646920638917"><ele>200.0</ele><time>2026-04-10T19:07:10Z</time></trkpt><trkpt lat="45.93343185534102" lon="8.443843220682998"><ele>201.0</ele><time>2026-04-10T19:08:11Z</time></trkpt><trkpt lat="45.933406778395515" lon="8.443527910512765"><ele>202.0</ele><time>2026-04-10T19:08:12Z</time></trkpt><trkpt lat="45.93339441315882" lon="8.443226713289535"><ele>203.0</ele><time>2026-04-10T19:08:13Z</time></trkpt><trkpt lat="45.93339323745279" lon="8.442915354586367"><ele>203.0</ele><time>2026-04-10T19:08:14Z</time></trkpt><trkpt lat="45.933399864860654" lon="8.442605162780229"><ele>203.0</ele><time>2026-04-10T19:08:15Z</time></trkpt><trkpt lat="45.93341580843139" lon="8.442281432151267"><ele>203.0</ele><time>2026-04-10T19:08:16Z</time></trkpt><trkpt lat="45.93344214095859" lon="8.441959997167883"><ele>203.0</ele><time>2026-04-10T19:08:17Z</time></trkpt><trkpt lat="45.93347855020216" lon="8.441642804267433"><ele>203.0</ele><time>2026-04-10T19:08:18Z</time></trkpt><trkpt lat="45.933525573076544" lon="8.441325798022765"><ele>203.0</ele><time>2026-04-10T19:08:19Z</time></trkpt><trkpt lat="45.933586147977245" lon="8.44100972884895"><ele>203.5</ele><time>2026-04-10T19:08:20Z</time></trkpt><trkpt lat="45.93365605820949" lon="8.440691943808504"><ele>204.0</ele><time>2026-04-10T19:08:21Z</time></trkpt><trkpt lat="45.93373654263413" lon="8.440381640979323"><ele>204.0</ele><time>2026-04-10T19:08:22Z</time></trkpt><trkpt lat="45.933825954080234" lon="8.440072580630545"><ele>204.0</ele><time>2026-04-10T19:08:23Z</time></trkpt><trkpt lat="45.93392801140846" lon="8.439767779577084"><ele>204.5</ele><time>2026-04-10T19:08:24Z</time></trkpt><trkpt lat="45.93404212610787" lon="8.439471739590957"><ele>205.0</ele><time>2026-04-10T19:08:25Z</time></trkpt><trkpt lat="45.93416615523179" lon="8.439178600984377"><ele>204.5</ele><time>2026-04-10T19:08:26Z</time></trkpt><trkpt lat="45.93429699727839" lon="8.43889270603341"><ele>204.0</ele><time>2026-04-10T19:08:27Z</time></trkpt><trkpt lat="45.934439781087086" lon="8.438616568868014"><ele>205.0</ele><time>2026-04-10T19:08:28Z</time></trkpt><trkpt lat="45.934588962816036" lon="8.438348159424564"><ele>206.0</ele><time>2026-04-10T19:08:29Z</time></trkpt><trkpt lat="45.9347482873324" lon="8.438078552976474"><ele>206.0</ele><time>2026-04-10T19:08:30Z</time></trkpt><trkpt lat="45.93491229399251" lon="8.437806685669077"><ele>206.0</ele><time>2026-04-10T19:08:31Z</time></trkpt><trkpt lat="45.935079011285694" lon="8.437536389546539"><ele>204.0</ele><time>2026-04-10T19:08:32Z</time></trkpt><trkpt lat="45.93524783375014" lon="8.437260158164731"><ele>202.0</ele><time>2026-04-10T19:08:33Z</time></trkpt><trkpt lat="45.93541683002792" lon="8.436978197355788"><ele>202.0</ele><time>2026-04-10T19:08:34Z</time></trkpt><trkpt lat="45.93558710153982" lon="8.436691074290277"><ele>202.0</ele><time>2026-04-10T19:08:35Z</time></trkpt><trkpt lat="45.93575777982733" lon="8.436398499558118"><ele>202.5</ele><time>2026-04-10T19:08:36Z</time></trkpt><trkpt lat="45.93592933306407" lon="8.43610408026381"><ele>203.0</ele><time>2026-04-10T19:08:37Z</time></trkpt><trkpt lat="45.9361029000138" lon="8.435809762527015"><ele>203.0</ele><time>2026-04-10T19:08:38Z</time></trkpt><trkpt lat="45.93626771907078" lon="8.435526609252255"><ele>203.0</ele><time>2026-04-10T19:08:39Z</time></trkpt><trkpt lat="45.93643180245902" lon="8.435246238685355"><ele>203.0</ele><time>2026-04-10T19:08:40Z</time></trkpt><trkpt lat="45.93660071030936" lon="8.434967334953486"><ele>203.0</ele><time>2026-04-10T19:08:41Z</time></trkpt><trkpt lat="45.936769774096064" lon="8.434693479010834"><ele>202.0</ele><time>2026-04-10T19:08:42Z</time></trkpt><trkpt lat="45.936927755043044" lon="8.434425638136759"><ele>201.0</ele><time>2026-04-10T19:08:43Z</time></trkpt><trkpt lat="45.93708288256073" lon="8.43414591782843"><ele>201.0</ele><time>2026-04-10T19:08:44Z</time></trkpt><trkpt lat="45.93723098988999" lon="8.433860821834802"><ele>201.0</ele><time>2026-04-10T19:08:45Z</time></trkpt><trkpt lat="45.93738115778988" lon="8.433574822531705"><ele>201.0</ele><time>2026-04-10T19:08:46Z</time></trkpt><trkpt lat="45.93752815353508" lon="8.433284794513883"><ele>201.0</ele><time>2026-04-10T19:08:47Z</time></trkpt><trkpt lat="45.93767083116941" lon="8.432985600308177"><ele>200.5</ele><time>2026-04-10T19:08:48Z</time></trkpt><trkpt lat="45.93780470619669" lon="8.43267853792838"><ele>200.0</ele><time>2026-04-10T19:08:49Z</time></trkpt><trkpt lat="45.93793489684327" lon="8.432363108223683"><ele>201.5</ele><time>2026-04-10T19:08:50Z</time></trkpt><trkpt lat="45.938057782211544" lon="8.432043101617351"><ele>203.0</ele><time>2026-04-10T19:08:51Z</time></trkpt><trkpt lat="45.93817532763271" lon="8.431722930874894"><ele>203.0</ele><time>2026-04-10T19:08:52Z</time></trkpt><trkpt lat="45.938290217569055" lon="8.431401390806508"><ele>203.0</ele><time>2026-04-10T19:08:53Z</time></trkpt><trkpt lat="45.93840593094977" lon="8.431077008079145"><ele>201.5</ele><time>2026-04-10T19:08:54Z</time></trkpt><trkpt lat="45.938513672818566" lon="8.430769536958058"><ele>200.0</ele><time>2026-04-10T19:08:55Z</time></trkpt><trkpt lat="45.93861421017407" lon="8.430484318380675"><ele>200.33333333333334</ele><time>2026-04-10T19:08:56Z</time></trkpt><trkpt lat="45.938716724740566" lon="8.430199425054592"><ele>200.66666666666669</ele><time>2026-04-10T19:08:57Z</time></trkpt><trkpt lat="45.93881981318105" lon="8.42992211520301"><ele>201.0</ele><time>2026-04-10T19:08:58Z</time></trkpt><trkpt lat="45.93892957696769" lon="8.429645336985265"><ele>201.5</ele><time>2026-04-10T19:08:59Z</time></trkpt><trkpt lat="45.939044880941374" lon="8.429366969828754"><ele>202.0</ele><time>2026-04-10T19:09:00Z</time></trkpt><trkpt lat="45.93916250792348" lon="8.429087860805495"><ele>201.0</ele><time>2026-04-10T19:09:01Z</time></trkpt><trkpt lat="45.939284935034514" lon="8.428814190681656"><ele>200.0</ele><time>2026-04-10T19:09:02Z</time></trkpt><trkpt lat="45.93941504206411" lon="8.428550053885715"><ele>201.33333333333334</ele><time>2026-04-10T19:09:03Z</time></trkpt><trkpt lat="45.93954632289473" lon="8.428298177534547"><ele>202.66666666666669</ele><time>2026-04-10T19:09:04Z</time></trkpt><trkpt lat="45.93968984054737" lon="8.428045173991064"><ele>204.0</ele><time>2026-04-10T19:09:05Z</time></trkpt><trkpt lat="45.93983978288627" lon="8.427795908512842"><ele>204.5</ele><time>2026-04-10T19:09:06Z</time></trkpt><trkpt lat="45.939996713061014" lon="8.427550349299"><ele>205.0</ele><time>2026-04-10T19:09:07Z</time></trkpt><trkpt lat="45.94016138942683" lon="8.427307256697242"><ele>203.0</ele><time>2026-04-10T19:09:08Z</time></trkpt><trkpt lat="45.94033478842159" lon="8.427071750703897"><ele>201.0</ele><time>2026-04-10T19:09:09Z</time></trkpt><trkpt lat="45.94051602225716" lon="8.42684229350074"><ele>201.0</ele><time>2026-04-10T19:09:10Z</time></trkpt><trkpt lat="45.95434510579092" lon="8.42727581716796"><ele>201.0</ele><time>2026-04-10T19:10:11.001Z</time></trkpt><trkpt lat="45.954570679528416" lon="8.42729326933978"><ele>201.0</ele><time>2026-04-10T19:10:12.001Z</time></trkpt><trkpt lat="45.95478894426014" lon="8.427320356518909"><ele>201.0</ele><time>2026-04-10T19:10:13.001Z</time></trkpt><trkpt lat="45.95501081342922" lon="8.427349860697772"><ele>204.0</ele><time>2026-04-10T19:10:14.001Z</time></trkpt><trkpt lat="45.955237307932315" lon="8.4273733288142"><ele>207.0</ele><time>2026-04-10T19:10:15.001Z</time></trkpt><trkpt lat="45.95546586316011" lon="8.427394968867882"><ele>207.0</ele><time>2026-04-10T19:10:16.001Z</time></trkpt><trkpt lat="45.955698432510104" lon="8.427417933067208"><ele>207.0</ele><time>2026-04-10T19:10:17.001Z</time></trkpt><trkpt lat="45.955933876801176" lon="8.427441292811396"><ele>206.5</ele><time>2026-04-10T19:10:18.001Z</time></trkpt><trkpt lat="45.95617369207593" lon="8.427465243229891"><ele>206.0</ele><time>2026-04-10T19:10:19.001Z</time></trkpt><trkpt lat="45.95641719187636" lon="8.427492216812475"><ele>206.0</ele><time>2026-04-10T19:10:20.001Z</time></trkpt><trkpt lat="45.956663292252394" lon="8.427519049549588"><ele>206.0</ele><time>2026-04-10T19:10:21.001Z</time></trkpt><trkpt lat="45.95690251823851" lon="8.427544228930978"><ele>204.5</ele><time>2026-04-10T19:10:22.001Z</time></trkpt><trkpt lat="45.957143923594565" lon="8.427565851597098"><ele>203.0</ele><time>2026-04-10T19:10:23.001Z</time></trkpt><trkpt lat="45.95738807274191" lon="8.42758627419659"><ele>203.5</ele><time>2026-04-10T19:10:24.001Z</time></trkpt><trkpt lat="45.957628732229956" lon="8.42760818184364"><ele>204.0</ele><time>2026-04-10T19:10:25.001Z</time></trkpt><trkpt lat="45.9578566737464" lon="8.427632915585846"><ele>204.0</ele><time>2026-04-10T19:10:26.001Z</time></trkpt><trkpt lat="45.958086550420056" lon="8.427660100424838"><ele>204.0</ele><time>2026-04-10T19:10:27.001Z</time></trkpt><trkpt lat="45.9583159356892" lon="8.427688108668434"><ele>205.0</ele><time>2026-04-10T19:10:28.001Z</time></trkpt><trkpt lat="45.958546335090496" lon="8.427710537217134"><ele>206.0</ele><time>2026-04-10T19:10:29.001Z</time></trkpt><trkpt lat="45.958783847477115" lon="8.427729999458238"><ele>206.0</ele><time>2026-04-10T19:10:30.001Z</time></trkpt><trkpt lat="45.95902624672514" lon="8.427749194199787"><ele>206.0</ele><time>2026-04-10T19:10:31.001Z</time></trkpt><trkpt lat="45.959272350434084" lon="8.42777185268637"><ele>205.0</ele><time>2026-04-10T19:10:32.001Z</time></trkpt><trkpt lat="45.95951546912661" lon="8.427797698322749"><ele>204.0</ele><time>2026-04-10T19:10:33.001Z</time></trkpt><trkpt lat="45.95975615054537" lon="8.427820615444812"><ele>204.0</ele><time>2026-04-10T19:10:34.001Z</time></trkpt><trkpt lat="45.959988049583046" lon="8.427841338409852"><ele>204.0</ele><time>2026-04-10T19:10:35.001Z</time></trkpt><trkpt lat="45.96021267064583" lon="8.427862057258778"><ele>203.0</ele><time>2026-04-10T19:10:36.001Z</time></trkpt><trkpt lat="45.960439260767096" lon="8.427886732160829"><ele>202.0</ele><time>2026-04-10T19:10:37.001Z</time></trkpt><trkpt lat="45.96066913722836" lon="8.427912144004663"><ele>202.0</ele><time>2026-04-10T19:10:38.001Z</time></trkpt><trkpt lat="45.96090232887822" lon="8.427936257241218"><ele>202.0</ele><time>2026-04-10T19:10:39.001Z</time></trkpt><trkpt lat="45.96113724778905" lon="8.427960817717931"><ele>201.0</ele><time>2026-04-10T19:10:40.001Z</time></trkpt><trkpt lat="45.96137559349417" lon="8.427986432934981"><ele>200.0</ele><time>2026-04-10T19:10:41.001Z</time></trkpt><trkpt lat="45.961618755417334" lon="8.428009535606948"><ele>202.0</ele><time>2026-04-10T19:10:42.001Z</time></trkpt><trkpt lat="45.961864731840826" lon="8.428035109514783"><ele>204.0</ele><time>2026-04-10T19:10:43.001Z</time></trkpt><trkpt lat="45.962113907882895" lon="8.42805848065801"><ele>204.0</ele><time>2026-04-10T19:10:44.001Z</time></trkpt><trkpt lat="45.962365477297745" lon="8.428079571316088"><ele>204.0</ele><time>2026-04-10T19:10:45.001Z</time></trkpt><trkpt lat="45.962619211932754" lon="8.428103323526301"><ele>205.5</ele><time>2026-04-10T19:10:46.001Z</time></trkpt><trkpt lat="45.962874408586195" lon="8.428128007467514"><ele>207.0</ele><time>2026-04-10T19:10:47.001Z</time></trkpt><trkpt lat="45.963130234532095" lon="8.428157822636983"><ele>206.5</ele><time>2026-04-10T19:10:48.001Z</time></trkpt><trkpt lat="45.96338660856055" lon="8.42818876889538"><ele>206.0</ele><time>2026-04-10T19:10:49.001Z</time></trkpt><trkpt lat="45.963639690651966" lon="8.428215156882146"><ele>206.0</ele><time>2026-04-10T19:10:50.001Z</time></trkpt><trkpt lat="45.96389251911055" lon="8.428239939990966"><ele>206.0</ele><time>2026-04-10T19:10:51.001Z</time></trkpt><trkpt lat="45.96414358206816" lon="8.428264329909362"><ele>206.0</ele><time>2026-04-10T19:10:52.001Z</time></trkpt><trkpt lat="45.96439349973136" lon="8.428287992423037"><ele>206.0</ele><time>2026-04-10T19:10:53.001Z</time></trkpt><trkpt lat="45.964635602095775" lon="8.428310332349835"><ele>206.0</ele><time>2026-04-10T19:10:54.001Z</time></trkpt><trkpt lat="45.96487805260247" lon="8.428334004257994"><ele>206.0</ele><time>2026-04-10T19:10:55.001Z</time></trkpt><trkpt lat="45.96511669922474" lon="8.428350898550876"><ele>206.5</ele><time>2026-04-10T19:10:56.001Z</time></trkpt><trkpt lat="45.965357477151954" lon="8.42835839097173"><ele>207.0</ele><time>2026-04-10T19:10:57.001Z</time></trkpt><trkpt lat="45.96559994037809" lon="8.428358778325721"><ele>207.0</ele><time>2026-04-10T19:10:58.001Z</time></trkpt><trkpt lat="45.96584576546654" lon="8.428355314294194"><ele>207.0</ele><time>2026-04-10T19:10:59.001Z</time></trkpt><trkpt lat="45.96609068171564" lon="8.428340351707707"><ele>208.0</ele><time>2026-04-10T19:11:00.001Z</time></trkpt><trkpt lat="45.966335605038935" lon="8.428322583885924"><ele>209.0</ele><time>2026-04-10T19:11:01.001Z</time></trkpt><trkpt lat="45.966580750432236" lon="8.428300572703154"><ele>208.0</ele><time>2026-04-10T19:11:02.001Z</time></trkpt><trkpt lat="45.96682746082826" lon="8.428270437285214"><ele>207.0</ele><time>2026-04-10T19:11:03.001Z</time></trkpt><trkpt lat="45.96707474394573" lon="8.428236186586965"><ele>207.0</ele><time>2026-04-10T19:11:04.001Z</time></trkpt><trkpt lat="45.96732309700852" lon="8.428195475197429"><ele>207.0</ele><time>2026-04-10T19:11:05.001Z</time></trkpt><trkpt lat="45.96757299226731" lon="8.428147346863545"><ele>206.0</ele><time>2026-04-10T19:11:06.001Z</time></trkpt><trkpt lat="45.96782394254812" lon="8.428094260381542"><ele>205.0</ele><time>2026-04-10T19:11:07.001Z</time></trkpt><trkpt lat="45.96807494455661" lon="8.428034075845174"><ele>204.5</ele><time>2026-04-10T19:11:08.001Z</time></trkpt><trkpt lat="45.9683262246321" lon="8.427966808972624"><ele>204.0</ele><time>2026-04-10T19:11:09.001Z</time></trkpt><trkpt lat="45.96857172004153" lon="8.427887835308415"><ele>208.0</ele><time>2026-04-10T19:11:10.001Z</time></trkpt><trkpt lat="45.98027095257201" lon="8.41581068662656"><ele>208.0</ele><time>2026-04-10T19:12:11Z</time></trkpt><trkpt lat="45.98046328871168" lon="8.415623578796554"><ele>208.0</ele><time>2026-04-10T19:12:12Z</time></trkpt><trkpt lat="45.98065347296913" lon="8.415427152677035"><ele>207.5</ele><time>2026-04-10T19:12:13Z</time></trkpt><trkpt lat="45.98084705664205" lon="8.415224476556407"><ele>207.0</ele><time>2026-04-10T19:12:14Z</time></trkpt><trkpt lat="45.981041772288116" lon="8.415028335682383"><ele>207.0</ele><time>2026-04-10T19:12:15Z</time></trkpt><trkpt lat="45.981237459118496" lon="8.414828324379274"><ele>207.0</ele><time>2026-04-10T19:12:16Z</time></trkpt><trkpt lat="45.9814407245818" lon="8.414627493060488"><ele>207.0</ele><time>2026-04-10T19:12:17Z</time></trkpt><trkpt lat="45.98164738255142" lon="8.414427091114016"><ele>207.0</ele><time>2026-04-10T19:12:18Z</time></trkpt><trkpt lat="45.98185569989441" lon="8.414224447277428"><ele>207.5</ele><time>2026-04-10T19:12:19Z</time></trkpt><trkpt lat="45.982065612226975" lon="8.41402647606392"><ele>208.0</ele><time>2026-04-10T19:12:20Z</time></trkpt><trkpt lat="45.982275001733754" lon="8.413827810494059"><ele>208.5</ele><time>2026-04-10T19:12:21Z</time></trkpt><trkpt lat="45.982483454154256" lon="8.413623074713197"><ele>209.0</ele><time>2026-04-10T19:12:22Z</time></trkpt><trkpt lat="45.982693706678056" lon="8.413421060497422"><ele>209.0</ele><time>2026-04-10T19:12:23Z</time></trkpt><trkpt lat="45.982905228515364" lon="8.413217311306"><ele>209.0</ele><time>2026-04-10T19:12:24Z</time></trkpt><trkpt lat="45.98311800610631" lon="8.413016258017242"><ele>209.0</ele><time>2026-04-10T19:12:25Z</time></trkpt><trkpt lat="45.98333207456457" lon="8.412809697544162"><ele>209.0</ele><time>2026-04-10T19:12:26Z</time></trkpt><trkpt lat="45.98354917876041" lon="8.412602974172403"><ele>209.0</ele><time>2026-04-10T19:12:27Z</time></trkpt><trkpt lat="45.98376525274416" lon="8.412405094076336"><ele>209.0</ele><time>2026-04-10T19:12:28Z</time></trkpt><trkpt lat="45.9839742883361" lon="8.412205632350858"><ele>209.0</ele><time>2026-04-10T19:12:29Z</time></trkpt><trkpt lat="45.98417926011388" lon="8.412006526296103"><ele>209.0</ele><time>2026-04-10T19:12:30Z</time></trkpt><trkpt lat="45.984381091901874" lon="8.411805572305411"><ele>207.0</ele><time>2026-04-10T19:12:31Z</time></trkpt><trkpt lat="45.98457872914568" lon="8.411606951862622"><ele>205.0</ele><time>2026-04-10T19:12:32Z</time></trkpt><trkpt lat="45.98477642461362" lon="8.411405940948725"><ele>204.5</ele><time>2026-04-10T19:12:33Z</time></trkpt><trkpt lat="45.98496781325024" lon="8.411193241137573"><ele>204.0</ele><time>2026-04-10T19:12:34Z</time></trkpt><trkpt lat="45.98515820174042" lon="8.410967312716991"><ele>205.5</ele><time>2026-04-10T19:12:35Z</time></trkpt><trkpt lat="45.985345863976164" lon="8.41074253659971"><ele>207.0</ele><time>2026-04-10T19:12:36Z</time></trkpt><trkpt lat="45.98552289105309" lon="8.410513021179076"><ele>208.0</ele><time>2026-04-10T19:12:37Z</time></trkpt><trkpt lat="45.98569523071857" lon="8.410281541800298"><ele>209.0</ele><time>2026-04-10T19:12:38Z</time></trkpt><trkpt lat="45.985866561459744" lon="8.41004118425582"><ele>210.0</ele><time>2026-04-10T19:12:39Z</time></trkpt><trkpt lat="45.98603462748897" lon="8.40979314903328"><ele>211.0</ele><time>2026-04-10T19:12:40Z</time></trkpt><trkpt lat="45.98619738771602" lon="8.409538582403261"><ele>211.0</ele><time>2026-04-10T19:12:41Z</time></trkpt><trkpt lat="45.98635470613286" lon="8.409278105225962"><ele>211.0</ele><time>2026-04-10T19:12:42Z</time></trkpt><trkpt lat="45.98650605073224" lon="8.409007475254821"><ele>210.5</ele><time>2026-04-10T19:12:43Z</time></trkpt><trkpt lat="45.98665041932937" lon="8.408728739574224"><ele>210.0</ele><time>2026-04-10T19:12:44Z</time></trkpt><trkpt lat="45.9867923706357" lon="8.408446622700126"><ele>210.0</ele><time>2026-04-10T19:12:45Z</time></trkpt><trkpt lat="45.986936640108965" lon="8.408161199496972"><ele>210.0</ele><time>2026-04-10T19:12:46Z</time></trkpt><trkpt lat="45.98707279819986" lon="8.407877813890682"><ele>209.5</ele><time>2026-04-10T19:12:47Z</time></trkpt><trkpt lat="45.987205231985996" lon="8.40759419517959"><ele>209.0</ele><time>2026-04-10T19:12:48Z</time></trkpt><trkpt lat="45.98732524537245" lon="8.407319043813795"><ele>209.0</ele><time>2026-04-10T19:12:49Z</time></trkpt><trkpt lat="45.987434248274354" lon="8.40703437312415"><ele>209.0</ele><time>2026-04-10T19:12:50Z</time></trkpt><trkpt lat="45.98754143820079" lon="8.406735494567249"><ele>209.0</ele><time>2026-04-10T19:12:51Z</time></trkpt><trkpt lat="45.987648474783896" lon="8.406426341980602"><ele>209.0</ele><time>2026-04-10T19:12:52.001Z</time></trkpt><trkpt lat="45.98775225775462" lon="8.40610926618978"><ele>208.5</ele><time>2026-04-10T19:12:53.001Z</time></trkpt><trkpt lat="45.98784990293655" lon="8.40578210663505"><ele>208.0</ele><time>2026-04-10T19:12:54.001Z</time></trkpt><trkpt lat="45.98793920417691" lon="8.40544485179259"><ele>208.0</ele><time>2026-04-10T19:12:55.001Z</time></trkpt><trkpt lat="45.98801832273509" lon="8.405103243871338"><ele>208.0</ele><time>2026-04-10T19:12:56.001Z</time></trkpt><trkpt lat="45.98808748099857" lon="8.404757733171003"><ele>208.5</ele><time>2026-04-10T19:12:57.001Z</time></trkpt><trkpt lat="45.98815267205168" lon="8.404408369070342"><ele>209.0</ele><time>2026-04-10T19:12:58.001Z</time></trkpt><trkpt lat="45.98821351770682" lon="8.404057616940202"><ele>209.5</ele><time>2026-04-10T19:12:59.001Z</time></trkpt><trkpt lat="45.98826844563951" lon="8.403712466029107"><ele>210.0</ele><time>2026-04-10T19:13:00.001Z</time></trkpt><trkpt lat="45.98831823752579" lon="8.4033683146018"><ele>210.0</ele><time>2026-04-10T19:13:01.001Z</time></trkpt><trkpt lat="45.988360776492584" lon="8.403024992391474"><ele>210.0</ele><time>2026-04-10T19:13:02.001Z</time></trkpt><trkpt lat="45.98839546633359" lon="8.402678739817048"><ele>210.0</ele><time>2026-04-10T19:13:03.001Z</time></trkpt><trkpt lat="45.98842628745972" lon="8.402334819431404"><ele>210.0</ele><time>2026-04-10T19:13:04.001Z</time></trkpt><trkpt lat="45.988446810852416" lon="8.401989978810256"><ele>211.5</ele><time>2026-04-10T19:13:05.001Z</time></trkpt><trkpt lat="45.98846040858676" lon="8.401642609818346"><ele>213.0</ele><time>2026-04-10T19:13:06.001Z</time></trkpt><trkpt lat="45.98846978303436" lon="8.401296993411364"><ele>213.0</ele><time>2026-04-10T19:13:07.001Z</time></trkpt><trkpt lat="45.98847353360668" lon="8.400950996470666"><ele>213.0</ele><time>2026-04-10T19:13:08.001Z</time></trkpt><trkpt lat="45.98847122044225" lon="8.400602468366284"><ele>212.5</ele><time>2026-04-10T19:13:09.001Z</time></trkpt><trkpt lat="45.98846262794869" lon="8.400258594510955"><ele>212.0</ele><time>2026-04-10T19:13:10.001Z</time></trkpt><trkpt lat="45.985641001847874" lon="8.37968064110766"><ele>211.5</ele><time>2026-04-10T19:14:11Z</time></trkpt><trkpt lat="45.985703557680814" lon="8.379344949576282"><ele>211.0</ele><time>2026-04-10T19:14:12Z</time></trkpt><trkpt lat="45.98576983974898" lon="8.379010319786142"><ele>211.0</ele><time>2026-04-10T19:14:13Z</time></trkpt><trkpt lat="45.98583331724106" lon="8.37866506888247"><ele>211.0</ele><time>2026-04-10T19:14:14Z</time></trkpt><trkpt lat="45.98589384840747" lon="8.378330000610722"><ele>209.5</ele><time>2026-04-10T19:14:15Z</time></trkpt><trkpt lat="45.98594139232764" lon="8.377991060574926"><ele>208.0</ele><time>2026-04-10T19:14:16Z</time></trkpt><trkpt lat="45.985978029096415" lon="8.37765619137299"><ele>208.0</ele><time>2026-04-10T19:14:17Z</time></trkpt><trkpt lat="45.98600926731041" lon="8.377319353974796"><ele>208.0</ele><time>2026-04-10T19:14:18Z</time></trkpt><trkpt lat="45.98602790779451" lon="8.376980049257195"><ele>208.5</ele><time>2026-04-10T19:14:19Z</time></trkpt><trkpt lat="45.98603872062913" lon="8.376643483547955"><ele>209.0</ele><time>2026-04-10T19:14:20Z</time></trkpt><trkpt lat="45.98604374751736" lon="8.376297009182718"><ele>209.5</ele><time>2026-04-10T19:14:21Z</time></trkpt><trkpt lat="45.98604328851065" lon="8.375947379038262"><ele>210.0</ele><time>2026-04-10T19:14:22Z</time></trkpt><trkpt lat="45.986034304552376" lon="8.37559512568199"><ele>208.0</ele><time>2026-04-10T19:14:23Z</time></trkpt><trkpt lat="45.98601949437797" lon="8.375247123922986"><ele>206.0</ele><time>2026-04-10T19:14:24Z</time></trkpt><trkpt lat="45.98599749134161" lon="8.374891095737041"><ele>206.0</ele><time>2026-04-10T19:14:25Z</time></trkpt><trkpt lat="45.985971536924765" lon="8.374541964829003"><ele>206.0</ele><time>2026-04-10T19:14:26Z</time></trkpt><trkpt lat="45.985945475148704" lon="8.374190382860363"><ele>206.5</ele><time>2026-04-10T19:14:27Z</time></trkpt><trkpt lat="45.98592050756839" lon="8.373834093687266"><ele>207.0</ele><time>2026-04-10T19:14:28Z</time></trkpt><trkpt lat="45.98590889131788" lon="8.373474028792062"><ele>207.0</ele><time>2026-04-10T19:14:29Z</time></trkpt><trkpt lat="45.985876818767096" lon="8.373125003191573"><ele>207.0</ele><time>2026-04-10T19:14:30Z</time></trkpt><trkpt lat="45.98585775109787" lon="8.372774007450898"><ele>206.5</ele><time>2026-04-10T19:14:31Z</time></trkpt><trkpt lat="45.98583190032358" lon="8.372415051533773"><ele>206.0</ele><time>2026-04-10T19:14:32Z</time></trkpt><trkpt lat="45.985805813593885" lon="8.372059331252109"><ele>207.5</ele><time>2026-04-10T19:14:33Z</time></trkpt><trkpt lat="45.98577605439922" lon="8.371709083529725"><ele>209.0</ele><time>2026-04-10T19:14:34Z</time></trkpt><trkpt lat="45.98575235911194" lon="8.371370599464253"><ele>209.0</ele><time>2026-04-10T19:14:35Z</time></trkpt><trkpt lat="45.985739871644874" lon="8.371054716899367"><ele>209.0</ele><time>2026-04-10T19:14:36Z</time></trkpt><trkpt lat="45.98572850950803" lon="8.370745150918122"><ele>209.0</ele><time>2026-04-10T19:14:37Z</time></trkpt><trkpt lat="45.985722057885624" lon="8.370433914157267"><ele>209.66666666666669</ele><time>2026-04-10T19:14:38Z</time></trkpt><trkpt lat="45.985741108530654" lon="8.37012066065288"><ele>210.33333333333331</ele><time>2026-04-10T19:14:39Z</time></trkpt><trkpt lat="45.98576922327722" lon="8.369798237200056"><ele>211.0</ele><time>2026-04-10T19:14:40Z</time></trkpt><trkpt lat="45.98580645737534" lon="8.369479822474966"><ele>210.33333333333331</ele><time>2026-04-10T19:14:41Z</time></trkpt><trkpt lat="45.98585015285525" lon="8.369176652633032"><ele>209.66666666666669</ele><time>2026-04-10T19:14:42Z</time></trkpt><trkpt lat="45.985905572471026" lon="8.368865183806864"><ele>209.0</ele><time>2026-04-10T19:14:43Z</time></trkpt><trkpt lat="45.98597687744535" lon="8.368553946139208"><ele>209.0</ele><time>2026-04-10T19:14:44Z</time></trkpt><trkpt lat="45.986060002096146" lon="8.368236213708187"><ele>209.0</ele><time>2026-04-10T19:14:45Z</time></trkpt><trkpt lat="45.986151645581685" lon="8.367926147241763"><ele>210.0</ele><time>2026-04-10T19:14:46Z</time></trkpt><trkpt lat="45.98625558557505" lon="8.3676240830361"><ele>211.0</ele><time>2026-04-10T19:14:47Z</time></trkpt><trkpt lat="45.9863724228708" lon="8.367324165099111"><ele>211.5</ele><time>2026-04-10T19:14:48Z</time></trkpt><trkpt lat="45.98650256099984" lon="8.367029497052124"><ele>212.0</ele><time>2026-04-10T19:14:49Z</time></trkpt><trkpt lat="45.986645254691226" lon="8.366738274173946"><ele>212.0</ele><time>2026-04-10T19:14:50Z</time></trkpt><trkpt lat="45.98679406306228" lon="8.366457046785825"><ele>212.0</ele><time>2026-04-10T19:14:51Z</time></trkpt><trkpt lat="45.98694931311573" lon="8.366171889583548"><ele>211.5</ele><time>2026-04-10T19:14:52Z</time></trkpt><trkpt lat="45.98710075904098" lon="8.365882540493297"><ele>211.0</ele><time>2026-04-10T19:14:53Z</time></trkpt><trkpt lat="45.98725273904525" lon="8.365594272969833"><ele>211.0</ele><time>2026-04-10T19:14:54Z</time></trkpt><trkpt lat="45.98740447470415" lon="8.365311562978977"><ele>211.0</ele><time>2026-04-10T19:14:55Z</time></trkpt><trkpt lat="45.98755341148492" lon="8.365029935863612"><ele>210.5</ele><time>2026-04-10T19:14:56Z</time></trkpt><trkpt lat="45.98769954187006" lon="8.36474741084163"><ele>210.0</ele><time>2026-04-10T19:14:57Z</time></trkpt><trkpt lat="45.98783629351982" lon="8.364464516287176"><ele>211.5</ele><time>2026-04-10T19:14:58Z</time></trkpt><trkpt lat="45.98796096593361" lon="8.36417682615899"><ele>213.0</ele><time>2026-04-10T19:14:59Z</time></trkpt><trkpt lat="45.988089306008064" lon="8.363886132654523"><ele>213.0</ele><time>2026-04-10T19:15:00Z</time></trkpt><trkpt lat="45.988214233195905" lon="8.363592321812764"><ele>213.0</ele><time>2026-04-10T19:15:01Z</time></trkpt><trkpt lat="45.9883363661279" lon="8.36329500056275"><ele>210.0</ele><time>2026-04-10T19:15:02Z</time></trkpt><trkpt lat="45.988452816645854" lon="8.36299986602089"><ele>207.0</ele><time>2026-04-10T19:15:03Z</time></trkpt><trkpt lat="45.988558224699595" lon="8.362699369555573"><ele>207.0</ele><time>2026-04-10T19:15:04Z</time></trkpt><trkpt lat="45.98865180851921" lon="8.36238809038875"><ele>207.0</ele><time>2026-04-10T19:15:05Z</time></trkpt><trkpt lat="45.98873847163146" lon="8.362060492375674"><ele>209.0</ele><time>2026-04-10T19:15:06Z</time></trkpt><trkpt lat="45.98882135106292" lon="8.361723543700336"><ele>211.0</ele><time>2026-04-10T19:15:07Z</time></trkpt><trkpt lat="45.98890418467948" lon="8.361393707602899"><ele>212.0</ele><time>2026-04-10T19:15:08Z</time></trkpt><trkpt lat="45.98898646653325" lon="8.361073690656402"><ele>213.0</ele><time>2026-04-10T19:15:09Z</time></trkpt><trkpt lat="45.98906992975866" lon="8.360754171449774"><ele>211.0</ele><time>2026-04-10T19:15:10Z</time></trkpt><trkpt lat="45.99190438741668" lon="8.340372304349929"><ele>211.0</ele><time>2026-04-10T19:16:11Z</time></trkpt><trkpt lat="45.99189562333866" lon="8.340018477124158"><ele>211.0</ele><time>2026-04-10T19:16:12Z</time></trkpt><trkpt lat="45.991888495740206" lon="8.339665912457253"><ele>212.0</ele><time>2026-04-10T19:16:13Z</time></trkpt><trkpt lat="45.99188080898884" lon="8.339316553094644"><ele>213.0</ele><time>2026-04-10T19:16:14Z</time></trkpt><trkpt lat="45.991874656115215" lon="8.338966076394817"><ele>214.5</ele><time>2026-04-10T19:16:15Z</time></trkpt><trkpt lat="45.99187153111337" lon="8.338611234713436"><ele>216.0</ele><time>2026-04-10T19:16:16Z</time></trkpt><trkpt lat="45.99186936259985" lon="8.338261355479156"><ele>217.0</ele><time>2026-04-10T19:16:17Z</time></trkpt><trkpt lat="45.99186800910575" lon="8.337896457620536"><ele>218.0</ele><time>2026-04-10T19:16:18Z</time></trkpt><trkpt lat="45.991869311879086" lon="8.33753854593541"><ele>217.0</ele><time>2026-04-10T19:16:19Z</time></trkpt><trkpt lat="45.99186765007465" lon="8.337181585102915"><ele>216.0</ele><time>2026-04-10T19:16:20Z</time></trkpt><trkpt lat="45.991861582016924" lon="8.336823848184599"><ele>216.0</ele><time>2026-04-10T19:16:21Z</time></trkpt><trkpt lat="45.99185596580747" lon="8.336461100349402"><ele>216.0</ele><time>2026-04-10T19:16:22Z</time></trkpt><trkpt lat="45.99184745409404" lon="8.33610036928875"><ele>213.5</ele><time>2026-04-10T19:16:23Z</time></trkpt><trkpt lat="45.99183725842151" lon="8.335740149926083"><ele>211.0</ele><time>2026-04-10T19:16:24Z</time></trkpt><trkpt lat="45.991829694643094" lon="8.335379772698062"><ele>210.0</ele><time>2026-04-10T19:16:25Z</time></trkpt><trkpt lat="45.99182266513928" lon="8.335021712260952"><ele>209.0</ele><time>2026-04-10T19:16:26Z</time></trkpt><trkpt lat="45.991813200623234" lon="8.334664954094341"><ele>209.0</ele><time>2026-04-10T19:16:27Z</time></trkpt><trkpt lat="45.99180294430819" lon="8.334307527882551"><ele>209.0</ele><time>2026-04-10T19:16:28Z</time></trkpt><trkpt lat="45.99178584726974" lon="8.333957215064483"><ele>209.0</ele><time>2026-04-10T19:16:29Z</time></trkpt><trkpt lat="45.991762353536124" lon="8.333612069582527"><ele>209.0</ele><time>2026-04-10T19:16:30Z</time></trkpt><trkpt lat="45.991738658459255" lon="8.33326723192045"><ele>210.5</ele><time>2026-04-10T19:16:31Z</time></trkpt><trkpt lat="45.99171692326526" lon="8.332928397366144"><ele>212.0</ele><time>2026-04-10T19:16:32Z</time></trkpt><trkpt lat="45.99169286366954" lon="8.332588935665258"><ele>212.5</ele><time>2026-04-10T19:16:33Z</time></trkpt><trkpt lat="45.991663178198294" lon="8.332242404943413"><ele>213.0</ele><time>2026-04-10T19:16:34Z</time></trkpt><trkpt lat="45.99163025936651" lon="8.33189063301195"><ele>212.0</ele><time>2026-04-10T19:16:35Z</time></trkpt><trkpt lat="45.99159609352216" lon="8.331539003923758"><ele>211.0</ele><time>2026-04-10T19:16:36Z</time></trkpt><trkpt lat="45.99156381985116" lon="8.33118764163732"><ele>211.0</ele><time>2026-04-10T19:16:37Z</time></trkpt><trkpt lat="45.99152860202602" lon="8.33083651684178"><ele>211.0</ele><time>2026-04-10T19:16:38Z</time></trkpt><trkpt lat="45.9914985651737" lon="8.330480912199377"><ele>211.5</ele><time>2026-04-10T19:16:39Z</time></trkpt><trkpt lat="45.991462041081846" lon="8.330121975603328"><ele>212.0</ele><time>2026-04-10T19:16:40Z</time></trkpt><trkpt lat="45.99142247030226" lon="8.32976284084438"><ele>211.0</ele><time>2026-04-10T19:16:41Z</time></trkpt><trkpt lat="45.991389207476026" lon="8.329397093610106"><ele>210.0</ele><time>2026-04-10T19:16:42Z</time></trkpt><trkpt lat="45.99135683032776" lon="8.329038006387277"><ele>212.0</ele><time>2026-04-10T19:16:43Z</time></trkpt><trkpt lat="45.99133344408281" lon="8.328671015775674"><ele>214.0</ele><time>2026-04-10T19:16:44Z</time></trkpt><trkpt lat="45.99131488188526" lon="8.328308631289586"><ele>214.5</ele><time>2026-04-10T19:16:45Z</time></trkpt><trkpt lat="45.991297334598315" lon="8.327947247933128"><ele>215.0</ele><time>2026-04-10T19:16:46Z</time></trkpt><trkpt lat="45.99127799739633" lon="8.327589473772187"><ele>215.0</ele><time>2026-04-10T19:16:47Z</time></trkpt><trkpt lat="45.991261347541865" lon="8.327231143883479"><ele>215.0</ele><time>2026-04-10T19:16:48Z</time></trkpt><trkpt lat="45.99124535477359" lon="8.326869829355461"><ele>215.0</ele><time>2026-04-10T19:16:49Z</time></trkpt><trkpt lat="45.9912310497444" lon="8.326506555993557"><ele>215.0</ele><time>2026-04-10T19:16:50Z</time></trkpt><trkpt lat="45.99121866643379" lon="8.326141596184547"><ele>215.0</ele><time>2026-04-10T19:16:51Z</time></trkpt><trkpt lat="45.99121105536678" lon="8.325780226592487"><ele>215.0</ele><time>2026-04-10T19:16:52Z</time></trkpt><trkpt lat="45.99120411050512" lon="8.32542199533938"><ele>215.0</ele><time>2026-04-10T19:16:53Z</time></trkpt><trkpt lat="45.99119713282028" lon="8.32506440459821"><ele>215.0</ele><time>2026-04-10T19:16:54Z</time></trkpt><trkpt lat="45.99119675012062" lon="8.324705828505005"><ele>214.0</ele><time>2026-04-10T19:16:55Z</time></trkpt><trkpt lat="45.99119501994754" lon="8.324354116664216"><ele>213.0</ele><time>2026-04-10T19:16:56Z</time></trkpt><trkpt lat="45.9911902459387" lon="8.324010929749267"><ele>215.0</ele><time>2026-04-10T19:16:57Z</time></trkpt><trkpt lat="45.991182575100154" lon="8.323667079452173"><ele>217.0</ele><time>2026-04-10T19:16:58Z</time></trkpt><trkpt lat="45.99117420496951" lon="8.323320913758192"><ele>216.0</ele><time>2026-04-10T19:16:59Z</time></trkpt><trkpt lat="45.991168206579175" lon="8.322966322338253"><ele>215.0</ele><time>2026-04-10T19:17:00Z</time></trkpt><trkpt lat="45.99116308630983" lon="8.322609889287328"><ele>215.0</ele><time>2026-04-10T19:17:01Z</time></trkpt><trkpt lat="45.99115712935315" lon="8.322249556961273"><ele>215.0</ele><time>2026-04-10T19:17:02Z</time></trkpt><trkpt lat="45.991152410905414" lon="8.321890775027114"><ele>213.5</ele><time>2026-04-10T19:17:03Z</time></trkpt><trkpt lat="45.9911490186986" lon="8.321549778979975"><ele>212.0</ele><time>2026-04-10T19:17:04Z</time></trkpt><trkpt lat="45.99114440862964" lon="8.321204344164817"><ele>211.5</ele><time>2026-04-10T19:17:05Z</time></trkpt><trkpt lat="45.99113864653992" lon="8.320860927725578"><ele>211.0</ele><time>2026-04-10T19:17:06Z</time></trkpt><trkpt lat="45.99113305528095" lon="8.32051923314893"><ele>212.5</ele><time>2026-04-10T19:17:07Z</time></trkpt><trkpt lat="45.991126506086474" lon="8.320182287351923"><ele>214.0</ele><time>2026-04-10T19:17:08Z</time></trkpt><trkpt lat="45.99112181158033" lon="8.319843615516307"><ele>213.0</ele><time>2026-04-10T19:17:09Z</time></trkpt><trkpt lat="45.991117428346705" lon="8.319501504614518"><ele>212.0</ele><time>2026-04-10T19:17:10Z</time></trkpt><trkpt lat="45.99518037917956" lon="8.299494785312438"><ele>214.5</ele><time>2026-04-10T19:18:11Z</time></trkpt><trkpt lat="45.99525756954472" lon="8.299158883659556"><ele>217.0</ele><time>2026-04-10T19:18:12Z</time></trkpt><trkpt lat="45.99533604787224" lon="8.298824850211599"><ele>218.0</ele><time>2026-04-10T19:18:13Z</time></trkpt><trkpt lat="45.99541678034439" lon="8.298491383733198"><ele>219.0</ele><time>2026-04-10T19:18:14Z</time></trkpt><trkpt lat="45.9954991903953" lon="8.298161104638265"><ele>219.5</ele><time>2026-04-10T19:18:15Z</time></trkpt><trkpt lat="45.99558844331425" lon="8.297834109464695"><ele>220.0</ele><time>2026-04-10T19:18:16Z</time></trkpt><trkpt lat="45.99567911439992" lon="8.297511402270022"><ele>220.5</ele><time>2026-04-10T19:18:17Z</time></trkpt><trkpt lat="45.99577511773033" lon="8.297192156470285"><ele>221.0</ele><time>2026-04-10T19:18:18Z</time></trkpt><trkpt lat="45.99587545542381" lon="8.296874027849995"><ele>221.0</ele><time>2026-04-10T19:18:19Z</time></trkpt><trkpt lat="45.99597810982496" lon="8.296556154175994"><ele>221.0</ele><time>2026-04-10T19:18:20Z</time></trkpt><trkpt lat="45.99609014231256" lon="8.296238515671908"><ele>220.0</ele><time>2026-04-10T19:18:21Z</time></trkpt><trkpt lat="45.99620776779026" lon="8.295918971617057"><ele>219.0</ele><time>2026-04-10T19:18:22Z</time></trkpt><trkpt lat="45.99632592928381" lon="8.295599362124454"><ele>219.0</ele><time>2026-04-10T19:18:23Z</time></trkpt><trkpt lat="45.99645102215936" lon="8.295285940310476"><ele>219.0</ele><time>2026-04-10T19:18:24Z</time></trkpt><trkpt lat="45.996576223130496" lon="8.294971529121788"><ele>218.5</ele><time>2026-04-10T19:18:25Z</time></trkpt><trkpt lat="45.99669992633619" lon="8.294652143303672"><ele>218.0</ele><time>2026-04-10T19:18:26Z</time></trkpt><trkpt lat="45.99682160770792" lon="8.294332075353376"><ele>218.0</ele><time>2026-04-10T19:18:27Z</time></trkpt><trkpt lat="45.9969401430066" lon="8.294018066805206"><ele>218.0</ele><time>2026-04-10T19:18:28Z</time></trkpt><trkpt lat="45.99705402554212" lon="8.293700881249025"><ele>217.5</ele><time>2026-04-10T19:18:29Z</time></trkpt><trkpt lat="45.99716319141343" lon="8.293382018029607"><ele>217.0</ele><time>2026-04-10T19:18:30Z</time></trkpt><trkpt lat="45.99727021451207" lon="8.293064599945197"><ele>218.0</ele><time>2026-04-10T19:18:31Z</time></trkpt><trkpt lat="45.99737550552097" lon="8.292743900834822"><ele>219.0</ele><time>2026-04-10T19:18:32Z</time></trkpt><trkpt lat="45.997477370606994" lon="8.292422680567526"><ele>218.5</ele><time>2026-04-10T19:18:33Z</time></trkpt><trkpt lat="45.997573968238164" lon="8.29209913065017"><ele>218.0</ele><time>2026-04-10T19:18:34Z</time></trkpt><trkpt lat="45.99766761188266" lon="8.291776301661148"><ele>218.0</ele><time>2026-04-10T19:18:35Z</time></trkpt><trkpt lat="45.99775336419079" lon="8.291448669540713"><ele>218.0</ele><time>2026-04-10T19:18:36Z</time></trkpt><trkpt lat="45.99783154385576" lon="8.2911176235095"><ele>218.5</ele><time>2026-04-10T19:18:37Z</time></trkpt><trkpt lat="45.99791028979367" lon="8.290784915786357"><ele>219.0</ele><time>2026-04-10T19:18:38Z</time></trkpt><trkpt lat="45.99798638936703" lon="8.290450425075939"><ele>219.0</ele><time>2026-04-10T19:18:39Z</time></trkpt><trkpt lat="45.99805879175816" lon="8.290116368336545"><ele>219.0</ele><time>2026-04-10T19:18:40Z</time></trkpt><trkpt lat="45.99812245331657" lon="8.289781180914293"><ele>219.0</ele><time>2026-04-10T19:18:41Z</time></trkpt><trkpt lat="45.998187990763924" lon="8.289446219610445"><ele>219.0</ele><time>2026-04-10T19:18:42Z</time></trkpt><trkpt lat="45.998254295325644" lon="8.289107474046649"><ele>219.0</ele><time>2026-04-10T19:18:43Z</time></trkpt><trkpt lat="45.998320314323664" lon="8.288767855475884"><ele>219.0</ele><time>2026-04-10T19:18:44Z</time></trkpt><trkpt lat="45.998387918205495" lon="8.28842874507994"><ele>219.5</ele><time>2026-04-10T19:18:45Z</time></trkpt><trkpt lat="45.998453985550604" lon="8.288089565235516"><ele>220.0</ele><time>2026-04-10T19:18:46Z</time></trkpt><trkpt lat="45.998514008695274" lon="8.287750684978398"><ele>220.0</ele><time>2026-04-10T19:18:47Z</time></trkpt><trkpt lat="45.99857288967775" lon="8.287411179128554"><ele>220.0</ele><time>2026-04-10T19:18:48Z</time></trkpt><trkpt lat="45.99863342401864" lon="8.287072986316975"><ele>221.0</ele><time>2026-04-10T19:18:49Z</time></trkpt><trkpt lat="45.99869666412228" lon="8.286735519067124"><ele>222.0</ele><time>2026-04-10T19:18:50Z</time></trkpt><trkpt lat="45.99876262490053" lon="8.286403813394523"><ele>222.5</ele><time>2026-04-10T19:18:51Z</time></trkpt><trkpt lat="45.9988297064131" lon="8.286076144108558"><ele>223.0</ele><time>2026-04-10T19:18:52Z</time></trkpt><trkpt lat="45.99889338575274" lon="8.285768698047509"><ele>221.66666666666666</ele><time>2026-04-10T19:18:53Z</time></trkpt><trkpt lat="45.99896308420488" lon="8.285471919668886"><ele>220.33333333333331</ele><time>2026-04-10T19:18:54Z</time></trkpt><trkpt lat="45.999039011871865" lon="8.285185360595694"><ele>219.0</ele><time>2026-04-10T19:18:55Z</time></trkpt><trkpt lat="45.99911735652789" lon="8.284906162727987"><ele>218.66666666666669</ele><time>2026-04-10T19:18:56Z</time></trkpt><trkpt lat="45.99920341216462" lon="8.284641970528499"><ele>218.33333333333334</ele><time>2026-04-10T19:18:57Z</time></trkpt><trkpt lat="45.99929693520591" lon="8.284371808323053"><ele>218.0</ele><time>2026-04-10T19:18:58Z</time></trkpt><trkpt lat="45.99939907324677" lon="8.284104345925124"><ele>219.0</ele><time>2026-04-10T19:18:59Z</time></trkpt><trkpt lat="45.999509238817176" lon="8.283847087349125"><ele>220.0</ele><time>2026-04-10T19:19:00Z</time></trkpt><trkpt lat="45.99962062850676" lon="8.283602358730317"><ele>221.0</ele><time>2026-04-10T19:19:01Z</time></trkpt><trkpt lat="45.99973924842444" lon="8.283349645781465"><ele>221.0</ele><time>2026-04-10T19:19:02Z</time></trkpt><trkpt lat="45.99986837354969" lon="8.283103382861027"><ele>221.0</ele><time>2026-04-10T19:19:03Z</time></trkpt><trkpt lat="46.00000304194126" lon="8.282871001380332"><ele>221.0</ele><time>2026-04-10T19:19:04Z</time></trkpt><trkpt lat="46.000148417540466" lon="8.282640207285363"><ele>220.66666666666669</ele><time>2026-04-10T19:19:05Z</time></trkpt><trkpt lat="46.0003032274975" lon="8.282411922529727"><ele>220.33333333333331</ele><time>2026-04-10T19:19:06Z</time></trkpt><trkpt lat="46.00046362283515" lon="8.282203693831041"><ele>220.0</ele><time>2026-04-10T19:19:07Z</time></trkpt><trkpt lat="46.00063509323876" lon="8.281999186021606"><ele>220.0</ele><time>2026-04-10T19:19:08Z</time></trkpt><trkpt lat="46.0008194483536" lon="8.281797143659473"><ele>220.0</ele><time>2026-04-10T19:19:09Z</time></trkpt><trkpt lat="46.00100667308778" lon="8.281605957902162"><ele>225.0</ele><time>2026-04-10T19:19:10Z</time></trkpt><trkpt lat="46.014338190369195" lon="8.276726819001988"><ele>225.0</ele><time>2026-04-10T19:20:11Z</time></trkpt><trkpt lat="46.014547448188075" lon="8.276598213918957"><ele>225.0</ele><time>2026-04-10T19:20:12Z</time></trkpt><trkpt lat="46.01475458294923" lon="8.276465953362178"><ele>225.0</ele><time>2026-04-10T19:20:13Z</time></trkpt><trkpt lat="46.01496298035582" lon="8.276330685673857"><ele>225.0</ele><time>2026-04-10T19:20:14Z</time></trkpt><trkpt lat="46.015171786757946" lon="8.276193169313931"><ele>225.0</ele><time>2026-04-10T19:20:15Z</time></trkpt><trkpt lat="46.015380512171454" lon="8.27605284856437"><ele>225.0</ele><time>2026-04-10T19:20:16Z</time></trkpt><trkpt lat="46.01559062914261" lon="8.275915913636517"><ele>225.0</ele><time>2026-04-10T19:20:17Z</time></trkpt><trkpt lat="46.01579999115593" lon="8.275778441724217"><ele>225.0</ele><time>2026-04-10T19:20:18Z</time></trkpt><trkpt lat="46.01600784034347" lon="8.275640861515155"><ele>226.0</ele><time>2026-04-10T19:20:19Z</time></trkpt><trkpt lat="46.0162128856034" lon="8.27551086882149"><ele>227.0</ele><time>2026-04-10T19:20:20Z</time></trkpt><trkpt lat="46.01641867616153" lon="8.275398331330326"><ele>228.0</ele><time>2026-04-10T19:20:21Z</time></trkpt><trkpt lat="46.01662889487568" lon="8.275300508903458"><ele>228.33333333333331</ele><time>2026-04-10T19:20:22Z</time></trkpt><trkpt lat="46.016842003501615" lon="8.275211717277465"><ele>228.66666666666666</ele><time>2026-04-10T19:20:23Z</time></trkpt><trkpt lat="46.01705848066801" lon="8.275133249928476"><ele>229.0</ele><time>2026-04-10T19:20:24Z</time></trkpt><trkpt lat="46.017278072316955" lon="8.27507295534742"><ele>229.33333333333331</ele><time>2026-04-10T19:20:25Z</time></trkpt><trkpt lat="46.01749766719514" lon="8.275020259083643"><ele>229.66666666666669</ele><time>2026-04-10T19:20:26Z</time></trkpt><trkpt lat="46.01771566095576" lon="8.274982394753025"><ele>230.0</ele><time>2026-04-10T19:20:27Z</time></trkpt><trkpt lat="46.01793028322048" lon="8.27496412268179"><ele>230.0</ele><time>2026-04-10T19:20:28Z</time></trkpt><trkpt lat="46.018140402822105" lon="8.274953480545395"><ele>230.0</ele><time>2026-04-10T19:20:29Z</time></trkpt><trkpt lat="46.01835736704951" lon="8.274956979790675"><ele>230.0</ele><time>2026-04-10T19:20:30Z</time></trkpt><trkpt lat="46.01857715188627" lon="8.274971469906069"><ele>230.5</ele><time>2026-04-10T19:20:31Z</time></trkpt><trkpt lat="46.01880071881696" lon="8.274994250561884"><ele>231.0</ele><time>2026-04-10T19:20:32Z</time></trkpt><trkpt lat="46.019028782750816" lon="8.27503566077568"><ele>231.0</ele><time>2026-04-10T19:20:33Z</time></trkpt><trkpt lat="46.01925571065962" lon="8.275095975174835"><ele>231.0</ele><time>2026-04-10T19:20:34Z</time></trkpt><trkpt lat="46.0194740715392" lon="8.275167010078317"><ele>231.0</ele><time>2026-04-10T19:20:35Z</time></trkpt><trkpt lat="46.01969620825858" lon="8.275248350966935"><ele>231.0</ele><time>2026-04-10T19:20:36Z</time></trkpt><trkpt lat="46.01991141792322" lon="8.275342964215398"><ele>230.66666666666669</ele><time>2026-04-10T19:20:37Z</time></trkpt><trkpt lat="46.020119388227094" lon="8.275447205637459"><ele>230.33333333333334</ele><time>2026-04-10T19:20:38Z</time></trkpt><trkpt lat="46.020313303923096" lon="8.275558616781"><ele>230.0</ele><time>2026-04-10T19:20:39Z</time></trkpt><trkpt lat="46.02051127346313" lon="8.275688213832643"><ele>229.66666666666669</ele><time>2026-04-10T19:20:40Z</time></trkpt><trkpt lat="46.02070982504334" lon="8.275826241779606"><ele>229.33333333333331</ele><time>2026-04-10T19:20:41Z</time></trkpt><trkpt lat="46.02090360617076" lon="8.275981525075405"><ele>229.0</ele><time>2026-04-10T19:20:42Z</time></trkpt><trkpt lat="46.02109601202203" lon="8.276149184167412"><ele>227.5</ele><time>2026-04-10T19:20:43Z</time></trkpt><trkpt lat="46.02128281895097" lon="8.276329017850369"><ele>226.0</ele><time>2026-04-10T19:20:44Z</time></trkpt><trkpt lat="46.021465566758444" lon="8.27652555731688"><ele>227.5</ele><time>2026-04-10T19:20:45Z</time></trkpt><trkpt lat="46.0216488063105" lon="8.276731196982123"><ele>229.0</ele><time>2026-04-10T19:20:46Z</time></trkpt><trkpt lat="46.02182748819032" lon="8.27694640570865"><ele>229.0</ele><time>2026-04-10T19:20:47Z</time></trkpt><trkpt lat="46.022004387546204" lon="8.277175689816918"><ele>229.0</ele><time>2026-04-10T19:20:48Z</time></trkpt><trkpt lat="46.02217493732128" lon="8.277417150753015"><ele>229.0</ele><time>2026-04-10T19:20:49Z</time></trkpt><trkpt lat="46.0223476238083" lon="8.277662981183624"><ele>229.0</ele><time>2026-04-10T19:20:50Z</time></trkpt><trkpt lat="46.02251652797255" lon="8.277903854135822"><ele>228.0</ele><time>2026-04-10T19:20:51Z</time></trkpt><trkpt lat="46.0226816160886" lon="8.278133471043075"><ele>227.0</ele><time>2026-04-10T19:20:52Z</time></trkpt><trkpt lat="46.02284786936817" lon="8.27837188453243"><ele>227.0</ele><time>2026-04-10T19:20:53Z</time></trkpt><trkpt lat="46.02301152245201" lon="8.278613073065928"><ele>227.0</ele><time>2026-04-10T19:20:54Z</time></trkpt><trkpt lat="46.02317960572563" lon="8.278852561117862"><ele>226.5</ele><time>2026-04-10T19:20:55Z</time></trkpt><trkpt lat="46.02334805104593" lon="8.279081818227315"><ele>226.0</ele><time>2026-04-10T19:20:56Z</time></trkpt><trkpt lat="46.023513666407474" lon="8.279289472663805"><ele>226.0</ele><time>2026-04-10T19:20:57Z</time></trkpt><trkpt lat="46.02367527706864" lon="8.27947851461087"><ele>226.0</ele><time>2026-04-10T19:20:58Z</time></trkpt><trkpt lat="46.023839810882414" lon="8.279659037977012"><ele>226.0</ele><time>2026-04-10T19:20:59Z</time></trkpt><trkpt lat="46.02401185765267" lon="8.279825408820717"><ele>226.66666666666666</ele><time>2026-04-10T19:21:00Z</time></trkpt><trkpt lat="46.02418939191991" lon="8.279979275046742"><ele>227.33333333333331</ele><time>2026-04-10T19:21:01Z</time></trkpt><trkpt lat="46.02437738864751" lon="8.28011938045813"><ele>228.0</ele><time>2026-04-10T19:21:02Z</time></trkpt><trkpt lat="46.024577479855644" lon="8.280247693512807"><ele>228.0</ele><time>2026-04-10T19:21:03Z</time></trkpt><trkpt lat="46.024783461728795" lon="8.280357681565539"><ele>228.0</ele><time>2026-04-10T19:21:04Z</time></trkpt><trkpt lat="46.024998129426336" lon="8.280452913966313"><ele>228.0</ele><time>2026-04-10T19:21:05Z</time></trkpt><trkpt lat="46.02520834649829" lon="8.280527031130577"><ele>227.66666666666669</ele><time>2026-04-10T19:21:06Z</time></trkpt><trkpt lat="46.025423813709736" lon="8.280577908237968"><ele>227.33333333333334</ele><time>2026-04-10T19:21:07Z</time></trkpt><trkpt lat="46.02565019870534" lon="8.280617317488682"><ele>227.0</ele><time>2026-04-10T19:21:08Z</time></trkpt><trkpt lat="46.02588189006903" lon="8.280648396449353"><ele>226.0</ele><time>2026-04-10T19:21:09Z</time></trkpt><trkpt lat="46.02611418260301" lon="8.280670216447712"><ele>225.0</ele><time>2026-04-10T19:21:10Z</time></trkpt><trkpt lat="46.03700889758275" lon="8.270090457996771"><ele>226.5</ele><time>2026-04-10T19:22:11Z</time></trkpt><trkpt lat="46.037177657610535" lon="8.269830290457357"><ele>228.0</ele><time>2026-04-10T19:22:12Z</time></trkpt><trkpt lat="46.0373459970267" lon="8.269570030312988"><ele>228.0</ele><time>2026-04-10T19:22:13Z</time></trkpt><trkpt lat="46.03751452180137" lon="8.269306986876163"><ele>228.0</ele><time>2026-04-10T19:22:14Z</time></trkpt><trkpt lat="46.037681385565634" lon="8.269041014174526"><ele>228.5</ele><time>2026-04-10T19:22:15Z</time></trkpt><trkpt lat="46.03785017219565" lon="8.268775752169743"><ele>229.0</ele><time>2026-04-10T19:22:16Z</time></trkpt><trkpt lat="46.038019597000066" lon="8.268515228710422"><ele>229.0</ele><time>2026-04-10T19:22:17Z</time></trkpt><trkpt lat="46.0381889106133" lon="8.268253406521145"><ele>229.0</ele><time>2026-04-10T19:22:18Z</time></trkpt><trkpt lat="46.03835829239133" lon="8.26799311378671"><ele>229.0</ele><time>2026-04-10T19:22:19Z</time></trkpt><trkpt lat="46.03852963949928" lon="8.267733842952694"><ele>229.0</ele><time>2026-04-10T19:22:20Z</time></trkpt><trkpt lat="46.038697969226334" lon="8.267472246539349"><ele>228.5</ele><time>2026-04-10T19:22:21Z</time></trkpt><trkpt lat="46.038866030155035" lon="8.267210842757741"><ele>228.0</ele><time>2026-04-10T19:22:22Z</time></trkpt><trkpt lat="46.039036199926365" lon="8.266951870258422"><ele>230.0</ele><time>2026-04-10T19:22:23Z</time></trkpt><trkpt lat="46.039205435262566" lon="8.266694198307803"><ele>232.0</ele><time>2026-04-10T19:22:24Z</time></trkpt><trkpt lat="46.039380989650994" lon="8.2664559863991"><ele>231.0</ele><time>2026-04-10T19:22:25Z</time></trkpt><trkpt lat="46.03956464967129" lon="8.266245388681746"><ele>230.0</ele><time>2026-04-10T19:22:26Z</time></trkpt><trkpt lat="46.039745206436116" lon="8.266051158962014"><ele>230.0</ele><time>2026-04-10T19:22:27Z</time></trkpt><trkpt lat="46.039918323049704" lon="8.265872735032485"><ele>230.0</ele><time>2026-04-10T19:22:28Z</time></trkpt><trkpt lat="46.04010352690167" lon="8.265701993566815"><ele>230.0</ele><time>2026-04-10T19:22:29Z</time></trkpt><trkpt lat="46.04030662905513" lon="8.265559318118138"><ele>230.0</ele><time>2026-04-10T19:22:30Z</time></trkpt><trkpt lat="46.04045316872947" lon="8.265390853726915"><ele>230.0</ele><time>2026-04-10T19:22:31Z</time></trkpt><trkpt lat="46.04065315804782" lon="8.265269828607648"><ele>230.0</ele><time>2026-04-10T19:22:32Z</time></trkpt><trkpt lat="46.0408612867132" lon="8.26516592768623"><ele>230.0</ele><time>2026-04-10T19:22:33Z</time></trkpt><trkpt lat="46.04107524339636" lon="8.265080518031448"><ele>230.0</ele><time>2026-04-10T19:22:34Z</time></trkpt><trkpt lat="46.04129703159526" lon="8.26500801757091"><ele>230.0</ele><time>2026-04-10T19:22:35Z</time></trkpt><trkpt lat="46.04152364860902" lon="8.26494653392586"><ele>230.0</ele><time>2026-04-10T19:22:36Z</time></trkpt><trkpt lat="46.041755363083304" lon="8.26489604179809"><ele>230.0</ele><time>2026-04-10T19:22:37Z</time></trkpt><trkpt lat="46.04199082857294" lon="8.264848053370923"><ele>230.0</ele><time>2026-04-10T19:22:38Z</time></trkpt><trkpt lat="46.04222656252357" lon="8.264798628283874"><ele>230.0</ele><time>2026-04-10T19:22:39Z</time></trkpt><trkpt lat="46.042463259496536" lon="8.264749694640201"><ele>231.5</ele><time>2026-04-10T19:22:40Z</time></trkpt><trkpt lat="46.042701984760505" lon="8.2646979517182"><ele>233.0</ele><time>2026-04-10T19:22:41Z</time></trkpt><trkpt lat="46.0429434019471" lon="8.26465054264485"><ele>233.0</ele><time>2026-04-10T19:22:42Z</time></trkpt><trkpt lat="46.043185749463376" lon="8.264606765496849"><ele>233.0</ele><time>2026-04-10T19:22:43Z</time></trkpt><trkpt lat="46.04341699722911" lon="8.264567774846698"><ele>232.33333333333334</ele><time>2026-04-10T19:22:44Z</time></trkpt><trkpt lat="46.04363816812252" lon="8.26452177267699"><ele>231.66666666666669</ele><time>2026-04-10T19:22:45Z</time></trkpt><trkpt lat="46.04385860529309" lon="8.264478784403757"><ele>231.0</ele><time>2026-04-10T19:22:46Z</time></trkpt><trkpt lat="46.04407957616002" lon="8.264446921064202"><ele>230.66666666666669</ele><time>2026-04-10T19:22:47Z</time></trkpt><trkpt lat="46.04430195777386" lon="8.264431134153075"><ele>230.33333333333334</ele><time>2026-04-10T19:22:48Z</time></trkpt><trkpt lat="46.044524791728996" lon="8.264432176720838"><ele>230.0</ele><time>2026-04-10T19:22:49Z</time></trkpt><trkpt lat="46.044747474635685" lon="8.26444410402665"><ele>230.33333333333334</ele><time>2026-04-10T19:22:50Z</time></trkpt><trkpt lat="46.0449676285252" lon="8.26447202874439"><ele>230.66666666666669</ele><time>2026-04-10T19:22:51Z</time></trkpt><trkpt lat="46.0451808868665" lon="8.264512259741164"><ele>231.0</ele><time>2026-04-10T19:22:52Z</time></trkpt><trkpt lat="46.045392550095464" lon="8.264576123886323"><ele>231.0</ele><time>2026-04-10T19:22:53Z</time></trkpt><trkpt lat="46.04560183712289" lon="8.264661396531427"><ele>231.0</ele><time>2026-04-10T19:22:54Z</time></trkpt><trkpt lat="46.045815042220774" lon="8.264758515362509"><ele>231.0</ele><time>2026-04-10T19:22:55Z</time></trkpt><trkpt lat="46.04602180870844" lon="8.264878045560096"><ele>232.0</ele><time>2026-04-10T19:22:56Z</time></trkpt><trkpt lat="46.04622789732109" lon="8.265015889768051"><ele>233.0</ele><time>2026-04-10T19:22:57Z</time></trkpt><trkpt lat="46.04643136491456" lon="8.265164028790478"><ele>233.0</ele><time>2026-04-10T19:22:58Z</time></trkpt><trkpt lat="46.0466143541324" lon="8.265326980759752"><ele>233.0</ele><time>2026-04-10T19:22:59Z</time></trkpt><trkpt lat="46.04679120979262" lon="8.26550629153003"><ele>233.0</ele><time>2026-04-10T19:23:00Z</time></trkpt><trkpt lat="46.046964830531486" lon="8.265698834518078"><ele>232.66666666666669</ele><time>2026-04-10T19:23:01Z</time></trkpt><trkpt lat="46.04713226069823" lon="8.265904884320916"><ele>232.33333333333331</ele><time>2026-04-10T19:23:02Z</time></trkpt><trkpt lat="46.04730023052142" lon="8.26612412325675"><ele>232.0</ele><time>2026-04-10T19:23:03Z</time></trkpt><trkpt lat="46.04746530891888" lon="8.266347696936949"><ele>231.0</ele><time>2026-04-10T19:23:04Z</time></trkpt><trkpt lat="46.0476276134476" lon="8.266577726502838"><ele>230.0</ele><time>2026-04-10T19:23:05Z</time></trkpt><trkpt lat="46.047792178782736" lon="8.266813336111387"><ele>230.0</ele><time>2026-04-10T19:23:06Z</time></trkpt><trkpt lat="46.04795760236647" lon="8.267053637392731"><ele>230.0</ele><time>2026-04-10T19:23:07Z</time></trkpt><trkpt lat="46.04811787609759" lon="8.267291513214962"><ele>231.0</ele><time>2026-04-10T19:23:08Z</time></trkpt><trkpt lat="46.04828132766453" lon="8.267528961067654"><ele>232.0</ele><time>2026-04-10T19:23:09Z</time></trkpt><trkpt lat="46.048446742583565" lon="8.267764930277213"><ele>234.0</ele><time>2026-04-10T19:23:10Z</time></trkpt><trkpt lat="46.06049052303004" lon="8.276020039649554"><ele>234.0</ele><time>2026-04-10T19:24:11Z</time></trkpt><trkpt lat="46.060716646281925" lon="8.276018247888453"><ele>234.0</ele><time>2026-04-10T19:24:12Z</time></trkpt><trkpt lat="46.06094292516164" lon="8.276015626718122"><ele>234.5</ele><time>2026-04-10T19:24:13Z</time></trkpt><trkpt lat="46.06116970605162" lon="8.276012628507933"><ele>235.0</ele><time>2026-04-10T19:24:14Z</time></trkpt><trkpt lat="46.06139587068499" lon="8.276010007354913"><ele>234.5</ele><time>2026-04-10T19:24:15Z</time></trkpt><trkpt lat="46.06162443862175" lon="8.276007319248984"><ele>234.0</ele><time>2026-04-10T19:24:16Z</time></trkpt><trkpt lat="46.061854814675925" lon="8.276002151002551"><ele>234.0</ele><time>2026-04-10T19:24:17Z</time></trkpt><trkpt lat="46.06208497470911" lon="8.275999957568864"><ele>234.0</ele><time>2026-04-10T19:24:18Z</time></trkpt><trkpt lat="46.06231403664641" lon="8.276000296772052"><ele>234.66666666666669</ele><time>2026-04-10T19:24:19Z</time></trkpt><trkpt lat="46.06253734190908" lon="8.276004387513487"><ele>235.33333333333334</ele><time>2026-04-10T19:24:20Z</time></trkpt><trkpt lat="46.06275703942754" lon="8.27601667248067"><ele>236.0</ele><time>2026-04-10T19:24:21Z</time></trkpt><trkpt lat="46.06297374464068" lon="8.276039339457377"><ele>236.0</ele><time>2026-04-10T19:24:22Z</time></trkpt><trkpt lat="46.06318876507205" lon="8.276069682532029"><ele>236.0</ele><time>2026-04-10T19:24:23Z</time></trkpt><trkpt lat="46.063404712974204" lon="8.276108543722808"><ele>236.0</ele><time>2026-04-10T19:24:24Z</time></trkpt><trkpt lat="46.0636218022273" lon="8.276158715945426"><ele>236.0</ele><time>2026-04-10T19:24:25Z</time></trkpt><trkpt lat="46.06383970225848" lon="8.276219214002552"><ele>236.0</ele><time>2026-04-10T19:24:26Z</time></trkpt><trkpt lat="46.064058118041494" lon="8.27628596785295"><ele>236.0</ele><time>2026-04-10T19:24:27Z</time></trkpt><trkpt lat="46.064279362927245" lon="8.276356440775663"><ele>236.5</ele><time>2026-04-10T19:24:28Z</time></trkpt><trkpt lat="46.064500870069594" lon="8.276435540689754"><ele>237.0</ele><time>2026-04-10T19:24:29Z</time></trkpt><trkpt lat="46.06472114423752" lon="8.27652360211367"><ele>237.0</ele><time>2026-04-10T19:24:30Z</time></trkpt><trkpt lat="46.064941126576635" lon="8.276612278335223"><ele>237.0</ele><time>2026-04-10T19:24:31Z</time></trkpt><trkpt lat="46.06516169553066" lon="8.27669694159449"><ele>238.5</ele><time>2026-04-10T19:24:32Z</time></trkpt><trkpt lat="46.0653818441115" lon="8.27677776501294"><ele>240.0</ele><time>2026-04-10T19:24:33Z</time></trkpt><trkpt lat="46.065601152160724" lon="8.276848707536907"><ele>239.33333333333331</ele><time>2026-04-10T19:24:34Z</time></trkpt><trkpt lat="46.06582025642101" lon="8.276918819407596"><ele>238.66666666666666</ele><time>2026-04-10T19:24:35Z</time></trkpt><trkpt lat="46.06603700663717" lon="8.27699053274305"><ele>238.0</ele><time>2026-04-10T19:24:36Z</time></trkpt><trkpt lat="46.06625180730508" lon="8.277066145376306"><ele>238.0</ele><time>2026-04-10T19:24:37Z</time></trkpt><trkpt lat="46.06646529443262" lon="8.277137680752746"><ele>238.0</ele><time>2026-04-10T19:24:38Z</time></trkpt><trkpt lat="46.066678202178466" lon="8.277201294934342"><ele>238.0</ele><time>2026-04-10T19:24:39Z</time></trkpt><trkpt lat="46.06689016157571" lon="8.277266441851706"><ele>237.33333333333331</ele><time>2026-04-10T19:24:40Z</time></trkpt><trkpt lat="46.067104013198175" lon="8.277325629706267"><ele>236.66666666666669</ele><time>2026-04-10T19:24:41Z</time></trkpt><trkpt lat="46.06731986635162" lon="8.277378851497282"><ele>236.0</ele><time>2026-04-10T19:24:42Z</time></trkpt><trkpt lat="46.06753442161963" lon="8.277423568740774"><ele>235.66666666666669</ele><time>2026-04-10T19:24:43Z</time></trkpt><trkpt lat="46.067744785430946" lon="8.277468254312145"><ele>235.33333333333331</ele><time>2026-04-10T19:24:44Z</time></trkpt><trkpt lat="46.067949252961874" lon="8.277514223244495"><ele>235.0</ele><time>2026-04-10T19:24:45Z</time></trkpt><trkpt lat="46.068153310462826" lon="8.277553219314584"><ele>235.33333333333331</ele><time>2026-04-10T19:24:46Z</time></trkpt><trkpt lat="46.06836121074793" lon="8.277588230005069"><ele>235.66666666666669</ele><time>2026-04-10T19:24:47Z</time></trkpt><trkpt lat="46.06856832911268" lon="8.277614988733951"><ele>236.0</ele><time>2026-04-10T19:24:48Z</time></trkpt><trkpt lat="46.068776100168435" lon="8.277634188648198"><ele>236.0</ele><time>2026-04-10T19:24:49Z</time></trkpt><trkpt lat="46.06898587990058" lon="8.277648290882965"><ele>236.0</ele><time>2026-04-10T19:24:50Z</time></trkpt><trkpt lat="46.069197653252786" lon="8.277660287120012"><ele>236.0</ele><time>2026-04-10T19:24:51Z</time></trkpt><trkpt lat="46.0694114820797" lon="8.277672402200276"><ele>237.0</ele><time>2026-04-10T19:24:52Z</time></trkpt><trkpt lat="46.06962668706465" lon="8.277682237356853"><ele>238.0</ele><time>2026-04-10T19:24:53Z</time></trkpt><trkpt lat="46.06984319507073" lon="8.27768876201497"><ele>239.0</ele><time>2026-04-10T19:24:54Z</time></trkpt><trkpt lat="46.070065730886284" lon="8.27768991978537"><ele>241.0</ele><time>2026-04-10T19:24:55Z</time></trkpt><trkpt lat="46.07028911660319" lon="8.27768077374408"><ele>243.0</ele><time>2026-04-10T19:24:56Z</time></trkpt><trkpt lat="46.07051614019201" lon="8.277667738141025"><ele>243.0</ele><time>2026-04-10T19:24:57Z</time></trkpt><trkpt lat="46.07074414264267" lon="8.277648432898983"><ele>243.0</ele><time>2026-04-10T19:24:58Z</time></trkpt><trkpt lat="46.07096379230182" lon="8.277628729977675"><ele>243.0</ele><time>2026-04-10T19:24:59Z</time></trkpt><trkpt lat="46.07118358736028" lon="8.27760872603327"><ele>242.66666666666669</ele><time>2026-04-10T19:25:00Z</time></trkpt><trkpt lat="46.07139392362463" lon="8.277581612563704"><ele>242.33333333333334</ele><time>2026-04-10T19:25:01Z</time></trkpt><trkpt lat="46.071606997005965" lon="8.27754505339926"><ele>242.0</ele><time>2026-04-10T19:25:02Z</time></trkpt><trkpt lat="46.07182093147452" lon="8.277508288511001"><ele>243.0</ele><time>2026-04-10T19:25:03Z</time></trkpt><trkpt lat="46.072025615925526" lon="8.277479082926963"><ele>244.0</ele><time>2026-04-10T19:25:04Z</time></trkpt><trkpt lat="46.07222579398521" lon="8.277449339668815"><ele>245.0</ele><time>2026-04-10T19:25:05Z</time></trkpt><trkpt lat="46.072428261706754" lon="8.277419805010688"><ele>244.0</ele><time>2026-04-10T19:25:06Z</time></trkpt><trkpt lat="46.0726331701064" lon="8.277391313404115"><ele>243.0</ele><time>2026-04-10T19:25:07Z</time></trkpt><trkpt lat="46.072842177038765" lon="8.277363048266787"><ele>242.0</ele><time>2026-04-10T19:25:08Z</time></trkpt><trkpt lat="46.07305138461639" lon="8.277334884692408"><ele>242.0</ele><time>2026-04-10T19:25:09Z</time></trkpt><trkpt lat="46.073268298690834" lon="8.27729932963734"><ele>242.0</ele><time>2026-04-10T19:25:10Z</time></trkpt><trkpt lat="46.084568103662306" lon="8.284115835959945"><ele>241.0</ele><time>2026-04-10T19:26:11Z</time></trkpt><trkpt lat="46.08473245406438" lon="8.284245280599732"><ele>240.0</ele><time>2026-04-10T19:26:12Z</time></trkpt><trkpt lat="46.08488718235322" lon="8.284368932079367"><ele>239.0</ele><time>2026-04-10T19:26:13Z</time></trkpt><trkpt lat="46.085042584078366" lon="8.284486614393249"><ele>239.0</ele><time>2026-04-10T19:26:14Z</time></trkpt><trkpt lat="46.085187350350225" lon="8.284595844678476"><ele>239.0</ele><time>2026-04-10T19:26:15Z</time></trkpt><trkpt lat="46.08532188190259" lon="8.284704560123597"><ele>239.0</ele><time>2026-04-10T19:26:16Z</time></trkpt><trkpt lat="46.08544903814787" lon="8.28481098537143"><ele>238.75</ele><time>2026-04-10T19:26:17Z</time></trkpt><trkpt lat="46.085561701119225" lon="8.284910892573684"><ele>238.5</ele><time>2026-04-10T19:26:18Z</time></trkpt><trkpt lat="46.08566880187938" lon="8.28501406609812"><ele>238.25</ele><time>2026-04-10T19:26:19Z</time></trkpt><trkpt lat="46.08577007348777" lon="8.285120095242508"><ele>238.0</ele><time>2026-04-10T19:26:20Z</time></trkpt><trkpt lat="46.08587098717326" lon="8.28523244443207"><ele>238.0</ele><time>2026-04-10T19:26:21Z</time></trkpt><trkpt lat="46.085961440418124" lon="8.285327461786533"><ele>238.0</ele><time>2026-04-10T19:26:22Z</time></trkpt><trkpt lat="46.08603805295045" lon="8.285398586172162"><ele>238.0</ele><time>2026-04-10T19:26:23Z</time></trkpt><trkpt lat="46.086131714067974" lon="8.285462917927923"><ele>238.0</ele><time>2026-04-10T19:26:24Z</time></trkpt><trkpt lat="46.0862253351366" lon="8.28551162688317"><ele>238.0</ele><time>2026-04-10T19:26:25Z</time></trkpt><trkpt lat="46.08632936790425" lon="8.285544645231147"><ele>238.0</ele><time>2026-04-10T19:26:26Z</time></trkpt><trkpt lat="46.086438060326685" lon="8.285557937709804"><ele>238.0</ele><time>2026-04-10T19:26:27Z</time></trkpt><trkpt lat="46.086561093415405" lon="8.285551094046584"><ele>238.0</ele><time>2026-04-10T19:26:28Z</time></trkpt><trkpt lat="46.08667775707229" lon="8.285522096949236"><ele>238.0</ele><time>2026-04-10T19:26:29Z</time></trkpt><trkpt lat="46.08678495281623" lon="8.285462982176258"><ele>238.0</ele><time>2026-04-10T19:26:30Z</time></trkpt><trkpt lat="46.086887080962015" lon="8.285395737325699"><ele>238.0</ele><time>2026-04-10T19:26:31Z</time></trkpt><trkpt lat="46.08697704227638" lon="8.285317356393442"><ele>238.0</ele><time>2026-04-10T19:26:32Z</time></trkpt><trkpt lat="46.08706443368306" lon="8.285207717448113"><ele>238.0</ele><time>2026-04-10T19:26:33Z</time></trkpt><trkpt lat="46.08713739351481" lon="8.28507532556701"><ele>238.0</ele><time>2026-04-10T19:26:34Z</time></trkpt><trkpt lat="46.08719883221316" lon="8.284937187643914"><ele>238.0</ele><time>2026-04-10T19:26:35Z</time></trkpt><trkpt lat="46.08724809992253" lon="8.284795120699265"><ele>238.0</ele><time>2026-04-10T19:26:36Z</time></trkpt><trkpt lat="46.08728011161507" lon="8.284641287915676"><ele>238.0</ele><time>2026-04-10T19:26:37Z</time></trkpt><trkpt lat="46.08729976939987" lon="8.284468237350138"><ele>238.0</ele><time>2026-04-10T19:26:38Z</time></trkpt><trkpt lat="46.08730841790116" lon="8.28427212099089"><ele>238.0</ele><time>2026-04-10T19:26:39Z</time></trkpt><trkpt lat="46.08729365044269" lon="8.284065611527359"><ele>238.0</ele><time>2026-04-10T19:26:40Z</time></trkpt><trkpt lat="46.08730633721072" lon="8.283843243645379"><ele>238.0</ele><time>2026-04-10T19:26:41Z</time></trkpt><trkpt lat="46.087303091226715" lon="8.28362889356544"><ele>238.0</ele><time>2026-04-10T19:26:42Z</time></trkpt><trkpt lat="46.08730572561062" lon="8.28342566397986"><ele>238.0</ele><time>2026-04-10T19:26:43Z</time></trkpt><trkpt lat="46.08732259484287" lon="8.283221551661011"><ele>238.0</ele><time>2026-04-10T19:26:44Z</time></trkpt><trkpt lat="46.08735722486034" lon="8.283010886612287"><ele>238.0</ele><time>2026-04-10T19:26:45Z</time></trkpt><trkpt lat="46.08740487041295" lon="8.282795715701724"><ele>238.2</ele><time>2026-04-10T19:26:46Z</time></trkpt><trkpt lat="46.08745578369262" lon="8.282610198625596"><ele>238.4</ele><time>2026-04-10T19:26:47Z</time></trkpt><trkpt lat="46.087508083654264" lon="8.282467213870465"><ele>238.59999999999997</ele><time>2026-04-10T19:26:48Z</time></trkpt><trkpt lat="46.087566294155046" lon="8.282346730267601"><ele>238.79999999999998</ele><time>2026-04-10T19:26:49Z</time></trkpt><trkpt lat="46.08763005095237" lon="8.28224644234936"><ele>239.0</ele><time>2026-04-10T19:26:50Z</time></trkpt><trkpt lat="46.087696275656114" lon="8.282164300023473"><ele>239.25</ele><time>2026-04-10T19:26:51Z</time></trkpt><trkpt lat="46.08777761341152" lon="8.282105940800065"><ele>239.5</ele><time>2026-04-10T19:26:52Z</time></trkpt><trkpt lat="46.087887871079346" lon="8.282049184621874"><ele>239.75</ele><time>2026-04-10T19:26:53Z</time></trkpt><trkpt lat="46.08801058996783" lon="8.281992262166812"><ele>240.0</ele><time>2026-04-10T19:26:54Z</time></trkpt><trkpt lat="46.088127388874916" lon="8.28193706576417"><ele>240.0</ele><time>2026-04-10T19:26:55Z</time></trkpt><trkpt lat="46.08821969132277" lon="8.281894703570151"><ele>240.0</ele><time>2026-04-10T19:26:56Z</time></trkpt><trkpt lat="46.088303422944556" lon="8.281864000833398"><ele>240.0</ele><time>2026-04-10T19:26:57Z</time></trkpt><trkpt lat="46.08840523787434" lon="8.281872064091782"><ele>240.0</ele><time>2026-04-10T19:26:58Z</time></trkpt><trkpt lat="46.08850724777309" lon="8.281907357869237"><ele>240.0</ele><time>2026-04-10T19:26:59Z</time></trkpt><trkpt lat="46.08861042385408" lon="8.281975393153422"><ele>240.0</ele><time>2026-04-10T19:27:00Z</time></trkpt><trkpt lat="46.088718218205386" lon="8.282087798942744"><ele>240.0</ele><time>2026-04-10T19:27:01Z</time></trkpt><trkpt lat="46.08882997890374" lon="8.28221934279542"><ele>240.0</ele><time>2026-04-10T19:27:02Z</time></trkpt><trkpt lat="46.088946893314834" lon="8.282345608240853"><ele>240.0</ele><time>2026-04-10T19:27:03Z</time></trkpt><trkpt lat="46.089056576101434" lon="8.282468821571983"><ele>240.0</ele><time>2026-04-10T19:27:04Z</time></trkpt><trkpt lat="46.08917569986392" lon="8.282597708653196"><ele>240.0</ele><time>2026-04-10T19:27:05Z</time></trkpt><trkpt lat="46.08929650824228" lon="8.282729959056514"><ele>240.0</ele><time>2026-04-10T19:27:06Z</time></trkpt><trkpt lat="46.089407264019286" lon="8.282851070216811"><ele>240.0</ele><time>2026-04-10T19:27:07Z</time></trkpt><trkpt lat="46.08951957858747" lon="8.282969443982193"><ele>240.0</ele><time>2026-04-10T19:27:08Z</time></trkpt><trkpt lat="46.089633248955664" lon="8.283091152554803"><ele>240.0</ele><time>2026-04-10T19:27:09Z</time></trkpt><trkpt lat="46.08974691925244" lon="8.283215196157204"><ele>240.0</ele><time>2026-04-10T19:27:10Z</time></trkpt><trkpt lat="46.09334169374483" lon="8.286225915984813"><ele>241.25</ele><time>2026-04-10T19:28:11Z</time></trkpt><trkpt lat="46.09358124414332" lon="8.286181906659541"><ele>242.5</ele><time>2026-04-10T19:39:11Z</time></trkpt><trkpt lat="46.093631424771765" lon="8.286116829035167"><ele>243.75</ele><time>2026-04-10T19:39:20Z</time></trkpt><trkpt lat="46.093557436549084" lon="8.286206460859475"><ele>245.0</ele><time>2026-04-10T19:39:42Z</time></trkpt><trkpt lat="46.09358919981213" lon="8.28629849093658"><ele>245.0</ele><time>2026-04-10T19:39:55Z</time></trkpt><trkpt lat="46.09352156951126" lon="8.285925759125359"><ele>245.0</ele><time>2026-04-10T19:42:11.001Z</time></trkpt><trkpt lat="46.093492446505664" lon="8.286025069954631"><ele>245.0</ele><time>2026-04-10T19:42:50.001Z</time></trkpt><trkpt lat="46.093509763673026" lon="8.286114000603716"><ele>245.0</ele><time>2026-04-10T19:42:53.001Z</time></trkpt><trkpt lat="46.09350320053495" lon="8.286023347167037"><ele>245.0</ele><time>2026-04-10T19:42:57Z</time></trkpt><trkpt lat="46.093524023264024" lon="8.285835434125042"><ele>245.0</ele><time>2026-04-10T19:43:03Z</time></trkpt><trkpt lat="46.093509408009986" lon="8.28595389493637"><ele>245.0</ele><time>2026-04-10T19:43:09Z</time></trkpt></trkseg></trk></gpx>